<?xml version="1.0" encoding="UTF-8" standalone="no" ?>
<gpx xmlns="http://www.topografix.com/GPX/1/1" xmlns:xsi="http://www.w3.org/2001/XMLSchema-instance" xsi:schemaLocation="http://www.topografix.com/GPX/1/1 http://www.topografix.com/GPX/1/1/gpx.xsd" version="1.1" creator="VisuGPX - https://www.visugpx.com">
  <metadata>
    <name>tour avec Patrick</name>
  </metadata>
  <trk>
    <name><![CDATA[Afternoon Ride]]></name>
    <trkseg>
      <trkpt lat="46.90619" lon="5.77153">
        <ele>486</ele>
        <time>2020-12-26T12:25:49Z</time>
      </trkpt>
      <trkpt lat="46.9062" lon="5.77154">
        <ele>486</ele>
        <time>2020-12-26T12:25:50Z</time>
      </trkpt>
      <trkpt lat="46.90621" lon="5.77154">
        <ele>486</ele>
        <time>2020-12-26T12:25:51Z</time>
      </trkpt>
      <trkpt lat="46.90623" lon="5.77154">
        <ele>486.4</ele>
        <time>2020-12-26T12:25:52Z</time>
      </trkpt>
      <trkpt lat="46.90625" lon="5.77154">
        <ele>486.4</ele>
        <time>2020-12-26T12:25:53Z</time>
      </trkpt>
      <trkpt lat="46.90626" lon="5.77153">
        <ele>486.4</ele>
        <time>2020-12-26T12:25:54Z</time>
      </trkpt>
      <trkpt lat="46.90628" lon="5.77152">
        <ele>486.4</ele>
        <time>2020-12-26T12:25:55Z</time>
      </trkpt>
      <trkpt lat="46.9063" lon="5.77151">
        <ele>486.4</ele>
        <time>2020-12-26T12:25:56Z</time>
      </trkpt>
      <trkpt lat="46.90633" lon="5.7715">
        <ele>486.4</ele>
        <time>2020-12-26T12:25:57Z</time>
      </trkpt>
      <trkpt lat="46.90635" lon="5.77147">
        <ele>486</ele>
        <time>2020-12-26T12:25:58Z</time>
      </trkpt>
      <trkpt lat="46.90638" lon="5.77145">
        <ele>486</ele>
        <time>2020-12-26T12:25:59Z</time>
      </trkpt>
      <trkpt lat="46.9064" lon="5.77143">
        <ele>485.6</ele>
        <time>2020-12-26T12:26:00Z</time>
      </trkpt>
      <trkpt lat="46.90641" lon="5.7714">
        <ele>485.6</ele>
        <time>2020-12-26T12:26:01Z</time>
      </trkpt>
      <trkpt lat="46.90642" lon="5.77138">
        <ele>485.4</ele>
        <time>2020-12-26T12:26:02Z</time>
      </trkpt>
      <trkpt lat="46.90643" lon="5.77137">
        <ele>485.4</ele>
        <time>2020-12-26T12:26:03Z</time>
      </trkpt>
      <trkpt lat="46.90642" lon="5.77135">
        <ele>485</ele>
        <time>2020-12-26T12:26:04Z</time>
      </trkpt>
      <trkpt lat="46.90641" lon="5.77132">
        <ele>484.8</ele>
        <time>2020-12-26T12:26:05Z</time>
      </trkpt>
      <trkpt lat="46.9064" lon="5.77128">
        <ele>484.8</ele>
        <time>2020-12-26T12:26:06Z</time>
      </trkpt>
      <trkpt lat="46.90639" lon="5.77123">
        <ele>484.6</ele>
        <time>2020-12-26T12:26:07Z</time>
      </trkpt>
      <trkpt lat="46.90637" lon="5.77119">
        <ele>484.6</ele>
        <time>2020-12-26T12:26:08Z</time>
      </trkpt>
      <trkpt lat="46.90635" lon="5.77114">
        <ele>484.2</ele>
        <time>2020-12-26T12:26:09Z</time>
      </trkpt>
      <trkpt lat="46.90634" lon="5.7711">
        <ele>484.2</ele>
        <time>2020-12-26T12:26:10Z</time>
      </trkpt>
      <trkpt lat="46.90632" lon="5.77106">
        <ele>484</ele>
        <time>2020-12-26T12:26:11Z</time>
      </trkpt>
      <trkpt lat="46.90631" lon="5.77103">
        <ele>484</ele>
        <time>2020-12-26T12:26:12Z</time>
      </trkpt>
      <trkpt lat="46.90629" lon="5.77101">
        <ele>484</ele>
        <time>2020-12-26T12:26:13Z</time>
      </trkpt>
      <trkpt lat="46.90627" lon="5.77099">
        <ele>484</ele>
        <time>2020-12-26T12:26:14Z</time>
      </trkpt>
      <trkpt lat="46.90625" lon="5.77099">
        <ele>484</ele>
        <time>2020-12-26T12:26:15Z</time>
      </trkpt>
      <trkpt lat="46.90622" lon="5.771">
        <ele>484</ele>
        <time>2020-12-26T12:26:16Z</time>
      </trkpt>
      <trkpt lat="46.9062" lon="5.771">
        <ele>484.4</ele>
        <time>2020-12-26T12:26:17Z</time>
      </trkpt>
      <trkpt lat="46.90616" lon="5.77102">
        <ele>484.6</ele>
        <time>2020-12-26T12:26:18Z</time>
      </trkpt>
      <trkpt lat="46.90613" lon="5.77103">
        <ele>484.8</ele>
        <time>2020-12-26T12:26:19Z</time>
      </trkpt>
      <trkpt lat="46.9061" lon="5.77105">
        <ele>485.2</ele>
        <time>2020-12-26T12:26:20Z</time>
      </trkpt>
      <trkpt lat="46.90607" lon="5.77106">
        <ele>485.4</ele>
        <time>2020-12-26T12:26:21Z</time>
      </trkpt>
      <trkpt lat="46.90605" lon="5.77108">
        <ele>485.6</ele>
        <time>2020-12-26T12:26:22Z</time>
      </trkpt>
      <trkpt lat="46.90602" lon="5.7711">
        <ele>485.8</ele>
        <time>2020-12-26T12:26:23Z</time>
      </trkpt>
      <trkpt lat="46.906" lon="5.77113">
        <ele>485.8</ele>
        <time>2020-12-26T12:26:24Z</time>
      </trkpt>
      <trkpt lat="46.90598" lon="5.77117">
        <ele>486.2</ele>
        <time>2020-12-26T12:26:25Z</time>
      </trkpt>
      <trkpt lat="46.90596" lon="5.77121">
        <ele>486.2</ele>
        <time>2020-12-26T12:26:26Z</time>
      </trkpt>
      <trkpt lat="46.90595" lon="5.77125">
        <ele>486.4</ele>
        <time>2020-12-26T12:26:27Z</time>
      </trkpt>
      <trkpt lat="46.90594" lon="5.77129">
        <ele>486.4</ele>
        <time>2020-12-26T12:26:28Z</time>
      </trkpt>
      <trkpt lat="46.90592" lon="5.77133">
        <ele>486.6</ele>
        <time>2020-12-26T12:26:29Z</time>
      </trkpt>
      <trkpt lat="46.90591" lon="5.77137">
        <ele>486.6</ele>
        <time>2020-12-26T12:26:30Z</time>
      </trkpt>
      <trkpt lat="46.9059" lon="5.77141">
        <ele>487</ele>
        <time>2020-12-26T12:26:31Z</time>
      </trkpt>
      <trkpt lat="46.90589" lon="5.77145">
        <ele>487</ele>
        <time>2020-12-26T12:26:32Z</time>
      </trkpt>
      <trkpt lat="46.90587" lon="5.7715">
        <ele>487.4</ele>
        <time>2020-12-26T12:26:33Z</time>
      </trkpt>
      <trkpt lat="46.90586" lon="5.77154">
        <ele>487.4</ele>
        <time>2020-12-26T12:26:34Z</time>
      </trkpt>
      <trkpt lat="46.90584" lon="5.77158">
        <ele>487.8</ele>
        <time>2020-12-26T12:26:35Z</time>
      </trkpt>
      <trkpt lat="46.90583" lon="5.77162">
        <ele>488</ele>
        <time>2020-12-26T12:26:36Z</time>
      </trkpt>
      <trkpt lat="46.90583" lon="5.77166">
        <ele>488.2</ele>
        <time>2020-12-26T12:26:37Z</time>
      </trkpt>
      <trkpt lat="46.90583" lon="5.77169">
        <ele>488.6</ele>
        <time>2020-12-26T12:26:38Z</time>
      </trkpt>
      <trkpt lat="46.90583" lon="5.77173">
        <ele>489</ele>
        <time>2020-12-26T12:26:39Z</time>
      </trkpt>
      <trkpt lat="46.90583" lon="5.77177">
        <ele>489.4</ele>
        <time>2020-12-26T12:26:40Z</time>
      </trkpt>
      <trkpt lat="46.90583" lon="5.77182">
        <ele>489.8</ele>
        <time>2020-12-26T12:26:41Z</time>
      </trkpt>
      <trkpt lat="46.90582" lon="5.77186">
        <ele>490.2</ele>
        <time>2020-12-26T12:26:42Z</time>
      </trkpt>
      <trkpt lat="46.90581" lon="5.77189">
        <ele>490.6</ele>
        <time>2020-12-26T12:26:43Z</time>
      </trkpt>
      <trkpt lat="46.9058" lon="5.77193">
        <ele>490.8</ele>
        <time>2020-12-26T12:26:44Z</time>
      </trkpt>
      <trkpt lat="46.90579" lon="5.77197">
        <ele>491.2</ele>
        <time>2020-12-26T12:26:45Z</time>
      </trkpt>
      <trkpt lat="46.90577" lon="5.77201">
        <ele>491.6</ele>
        <time>2020-12-26T12:26:46Z</time>
      </trkpt>
      <trkpt lat="46.90576" lon="5.77206">
        <ele>491.8</ele>
        <time>2020-12-26T12:26:47Z</time>
      </trkpt>
      <trkpt lat="46.90574" lon="5.7721">
        <ele>492.2</ele>
        <time>2020-12-26T12:26:48Z</time>
      </trkpt>
      <trkpt lat="46.90573" lon="5.77214">
        <ele>492.4</ele>
        <time>2020-12-26T12:26:49Z</time>
      </trkpt>
      <trkpt lat="46.90571" lon="5.77218">
        <ele>492.8</ele>
        <time>2020-12-26T12:26:50Z</time>
      </trkpt>
      <trkpt lat="46.9057" lon="5.77221">
        <ele>493</ele>
        <time>2020-12-26T12:26:51Z</time>
      </trkpt>
      <trkpt lat="46.90569" lon="5.77225">
        <ele>493.4</ele>
        <time>2020-12-26T12:26:52Z</time>
      </trkpt>
      <trkpt lat="46.90567" lon="5.77229">
        <ele>493.6</ele>
        <time>2020-12-26T12:26:53Z</time>
      </trkpt>
      <trkpt lat="46.90566" lon="5.77233">
        <ele>494</ele>
        <time>2020-12-26T12:26:54Z</time>
      </trkpt>
      <trkpt lat="46.90564" lon="5.77237">
        <ele>494.4</ele>
        <time>2020-12-26T12:26:55Z</time>
      </trkpt>
      <trkpt lat="46.90562" lon="5.7724">
        <ele>494.8</ele>
        <time>2020-12-26T12:26:56Z</time>
      </trkpt>
      <trkpt lat="46.9056" lon="5.77244">
        <ele>495.2</ele>
        <time>2020-12-26T12:26:57Z</time>
      </trkpt>
      <trkpt lat="46.90558" lon="5.77247">
        <ele>495.6</ele>
        <time>2020-12-26T12:26:58Z</time>
      </trkpt>
      <trkpt lat="46.90556" lon="5.77251">
        <ele>496</ele>
        <time>2020-12-26T12:26:59Z</time>
      </trkpt>
      <trkpt lat="46.90554" lon="5.77255">
        <ele>496.4</ele>
        <time>2020-12-26T12:27:00Z</time>
      </trkpt>
      <trkpt lat="46.90553" lon="5.77259">
        <ele>496.6</ele>
        <time>2020-12-26T12:27:01Z</time>
      </trkpt>
      <trkpt lat="46.90551" lon="5.77263">
        <ele>497</ele>
        <time>2020-12-26T12:27:02Z</time>
      </trkpt>
      <trkpt lat="46.9055" lon="5.77267">
        <ele>497.4</ele>
        <time>2020-12-26T12:27:03Z</time>
      </trkpt>
      <trkpt lat="46.90548" lon="5.77271">
        <ele>497.6</ele>
        <time>2020-12-26T12:27:04Z</time>
      </trkpt>
      <trkpt lat="46.90547" lon="5.77275">
        <ele>498</ele>
        <time>2020-12-26T12:27:05Z</time>
      </trkpt>
      <trkpt lat="46.90545" lon="5.7728">
        <ele>498.4</ele>
        <time>2020-12-26T12:27:06Z</time>
      </trkpt>
      <trkpt lat="46.90543" lon="5.77284">
        <ele>498.8</ele>
        <time>2020-12-26T12:27:07Z</time>
      </trkpt>
      <trkpt lat="46.90541" lon="5.77288">
        <ele>499</ele>
        <time>2020-12-26T12:27:08Z</time>
      </trkpt>
      <trkpt lat="46.90539" lon="5.77292">
        <ele>499</ele>
        <time>2020-12-26T12:27:09Z</time>
      </trkpt>
      <trkpt lat="46.90537" lon="5.77297">
        <ele>499.4</ele>
        <time>2020-12-26T12:27:10Z</time>
      </trkpt>
      <trkpt lat="46.90535" lon="5.77301">
        <ele>499.6</ele>
        <time>2020-12-26T12:27:11Z</time>
      </trkpt>
      <trkpt lat="46.90534" lon="5.77305">
        <ele>499.6</ele>
        <time>2020-12-26T12:27:12Z</time>
      </trkpt>
      <trkpt lat="46.90532" lon="5.77308">
        <ele>499.8</ele>
        <time>2020-12-26T12:27:13Z</time>
      </trkpt>
      <trkpt lat="46.90531" lon="5.77311">
        <ele>499.8</ele>
        <time>2020-12-26T12:27:14Z</time>
      </trkpt>
      <trkpt lat="46.90529" lon="5.77315">
        <ele>500</ele>
        <time>2020-12-26T12:27:15Z</time>
      </trkpt>
      <trkpt lat="46.90528" lon="5.77317">
        <ele>500</ele>
        <time>2020-12-26T12:27:16Z</time>
      </trkpt>
      <trkpt lat="46.90527" lon="5.7732">
        <ele>500.4</ele>
        <time>2020-12-26T12:27:17Z</time>
      </trkpt>
      <trkpt lat="46.90526" lon="5.77322">
        <ele>500.4</ele>
        <time>2020-12-26T12:27:18Z</time>
      </trkpt>
      <trkpt lat="46.90525" lon="5.77324">
        <ele>500.4</ele>
        <time>2020-12-26T12:27:19Z</time>
      </trkpt>
      <trkpt lat="46.90525" lon="5.77327">
        <ele>500.6</ele>
        <time>2020-12-26T12:27:20Z</time>
      </trkpt>
      <trkpt lat="46.90525" lon="5.77329">
        <ele>500.8</ele>
        <time>2020-12-26T12:27:21Z</time>
      </trkpt>
      <trkpt lat="46.90526" lon="5.77331">
        <ele>500.8</ele>
        <time>2020-12-26T12:27:22Z</time>
      </trkpt>
      <trkpt lat="46.90528" lon="5.77334">
        <ele>501.2</ele>
        <time>2020-12-26T12:27:23Z</time>
      </trkpt>
      <trkpt lat="46.90529" lon="5.77337">
        <ele>501.2</ele>
        <time>2020-12-26T12:27:24Z</time>
      </trkpt>
      <trkpt lat="46.90531" lon="5.77339">
        <ele>501.4</ele>
        <time>2020-12-26T12:27:25Z</time>
      </trkpt>
      <trkpt lat="46.90532" lon="5.77342">
        <ele>501.4</ele>
        <time>2020-12-26T12:27:26Z</time>
      </trkpt>
      <trkpt lat="46.90534" lon="5.77344">
        <ele>501.8</ele>
        <time>2020-12-26T12:27:27Z</time>
      </trkpt>
      <trkpt lat="46.90536" lon="5.77347">
        <ele>501.8</ele>
        <time>2020-12-26T12:27:28Z</time>
      </trkpt>
      <trkpt lat="46.90538" lon="5.77351">
        <ele>502.2</ele>
        <time>2020-12-26T12:27:29Z</time>
      </trkpt>
      <trkpt lat="46.90539" lon="5.77355">
        <ele>502.4</ele>
        <time>2020-12-26T12:27:30Z</time>
      </trkpt>
      <trkpt lat="46.90541" lon="5.77358">
        <ele>502.4</ele>
        <time>2020-12-26T12:27:31Z</time>
      </trkpt>
      <trkpt lat="46.90542" lon="5.77362">
        <ele>502.8</ele>
        <time>2020-12-26T12:27:32Z</time>
      </trkpt>
      <trkpt lat="46.90543" lon="5.77366">
        <ele>503.2</ele>
        <time>2020-12-26T12:27:33Z</time>
      </trkpt>
      <trkpt lat="46.90544" lon="5.7737">
        <ele>503.4</ele>
        <time>2020-12-26T12:27:34Z</time>
      </trkpt>
      <trkpt lat="46.90545" lon="5.77374">
        <ele>503.8</ele>
        <time>2020-12-26T12:27:35Z</time>
      </trkpt>
      <trkpt lat="46.90546" lon="5.77377">
        <ele>504</ele>
        <time>2020-12-26T12:27:36Z</time>
      </trkpt>
      <trkpt lat="46.90548" lon="5.77381">
        <ele>504</ele>
        <time>2020-12-26T12:27:37Z</time>
      </trkpt>
      <trkpt lat="46.90549" lon="5.77385">
        <ele>504.2</ele>
        <time>2020-12-26T12:27:38Z</time>
      </trkpt>
      <trkpt lat="46.9055" lon="5.77389">
        <ele>504.2</ele>
        <time>2020-12-26T12:27:39Z</time>
      </trkpt>
      <trkpt lat="46.90551" lon="5.77394">
        <ele>504.6</ele>
        <time>2020-12-26T12:27:40Z</time>
      </trkpt>
      <trkpt lat="46.90552" lon="5.77398">
        <ele>504.6</ele>
        <time>2020-12-26T12:27:41Z</time>
      </trkpt>
      <trkpt lat="46.90553" lon="5.77402">
        <ele>504.8</ele>
        <time>2020-12-26T12:27:42Z</time>
      </trkpt>
      <trkpt lat="46.90555" lon="5.77406">
        <ele>504.8</ele>
        <time>2020-12-26T12:27:43Z</time>
      </trkpt>
      <trkpt lat="46.90556" lon="5.7741">
        <ele>504.8</ele>
        <time>2020-12-26T12:27:44Z</time>
      </trkpt>
      <trkpt lat="46.90558" lon="5.77415">
        <ele>504.8</ele>
        <time>2020-12-26T12:27:45Z</time>
      </trkpt>
      <trkpt lat="46.90559" lon="5.77419">
        <ele>504.8</ele>
        <time>2020-12-26T12:27:46Z</time>
      </trkpt>
      <trkpt lat="46.90561" lon="5.77424">
        <ele>504.8</ele>
        <time>2020-12-26T12:27:47Z</time>
      </trkpt>
      <trkpt lat="46.90563" lon="5.77429">
        <ele>504.6</ele>
        <time>2020-12-26T12:27:48Z</time>
      </trkpt>
      <trkpt lat="46.90565" lon="5.77434">
        <ele>504.6</ele>
        <time>2020-12-26T12:27:49Z</time>
      </trkpt>
      <trkpt lat="46.90567" lon="5.77439">
        <ele>504.6</ele>
        <time>2020-12-26T12:27:50Z</time>
      </trkpt>
      <trkpt lat="46.90568" lon="5.77444">
        <ele>504.2</ele>
        <time>2020-12-26T12:27:51Z</time>
      </trkpt>
      <trkpt lat="46.9057" lon="5.77449">
        <ele>504</ele>
        <time>2020-12-26T12:27:52Z</time>
      </trkpt>
      <trkpt lat="46.90572" lon="5.77455">
        <ele>503.8</ele>
        <time>2020-12-26T12:27:53Z</time>
      </trkpt>
      <trkpt lat="46.90574" lon="5.77461">
        <ele>503.4</ele>
        <time>2020-12-26T12:27:54Z</time>
      </trkpt>
      <trkpt lat="46.90575" lon="5.77467">
        <ele>503.2</ele>
        <time>2020-12-26T12:27:55Z</time>
      </trkpt>
      <trkpt lat="46.90576" lon="5.77474">
        <ele>502.8</ele>
        <time>2020-12-26T12:27:56Z</time>
      </trkpt>
      <trkpt lat="46.90576" lon="5.77481">
        <ele>502.4</ele>
        <time>2020-12-26T12:27:57Z</time>
      </trkpt>
      <trkpt lat="46.90575" lon="5.77489">
        <ele>501.8</ele>
        <time>2020-12-26T12:27:58Z</time>
      </trkpt>
      <trkpt lat="46.90575" lon="5.77497">
        <ele>501.4</ele>
        <time>2020-12-26T12:27:59Z</time>
      </trkpt>
      <trkpt lat="46.90575" lon="5.77505">
        <ele>500.8</ele>
        <time>2020-12-26T12:28:00Z</time>
      </trkpt>
      <trkpt lat="46.90575" lon="5.77514">
        <ele>500.4</ele>
        <time>2020-12-26T12:28:01Z</time>
      </trkpt>
      <trkpt lat="46.90575" lon="5.77522">
        <ele>500</ele>
        <time>2020-12-26T12:28:02Z</time>
      </trkpt>
      <trkpt lat="46.90575" lon="5.77531">
        <ele>499.6</ele>
        <time>2020-12-26T12:28:03Z</time>
      </trkpt>
      <trkpt lat="46.90576" lon="5.77539">
        <ele>499.2</ele>
        <time>2020-12-26T12:28:04Z</time>
      </trkpt>
      <trkpt lat="46.90577" lon="5.77547">
        <ele>498.8</ele>
        <time>2020-12-26T12:28:05Z</time>
      </trkpt>
      <trkpt lat="46.90578" lon="5.77555">
        <ele>498.6</ele>
        <time>2020-12-26T12:28:06Z</time>
      </trkpt>
      <trkpt lat="46.90579" lon="5.77562">
        <ele>498.2</ele>
        <time>2020-12-26T12:28:07Z</time>
      </trkpt>
      <trkpt lat="46.90581" lon="5.7757">
        <ele>498</ele>
        <time>2020-12-26T12:28:08Z</time>
      </trkpt>
      <trkpt lat="46.90582" lon="5.77577">
        <ele>497.8</ele>
        <time>2020-12-26T12:28:09Z</time>
      </trkpt>
      <trkpt lat="46.90583" lon="5.77585">
        <ele>497.4</ele>
        <time>2020-12-26T12:28:10Z</time>
      </trkpt>
      <trkpt lat="46.90585" lon="5.77591">
        <ele>497.2</ele>
        <time>2020-12-26T12:28:11Z</time>
      </trkpt>
      <trkpt lat="46.90587" lon="5.77597">
        <ele>497.2</ele>
        <time>2020-12-26T12:28:12Z</time>
      </trkpt>
      <trkpt lat="46.90588" lon="5.77602">
        <ele>496.8</ele>
        <time>2020-12-26T12:28:13Z</time>
      </trkpt>
      <trkpt lat="46.9059" lon="5.77607">
        <ele>496.8</ele>
        <time>2020-12-26T12:28:14Z</time>
      </trkpt>
      <trkpt lat="46.90591" lon="5.77612">
        <ele>496.6</ele>
        <time>2020-12-26T12:28:15Z</time>
      </trkpt>
      <trkpt lat="46.90591" lon="5.77616">
        <ele>496.2</ele>
        <time>2020-12-26T12:28:16Z</time>
      </trkpt>
      <trkpt lat="46.90591" lon="5.7762">
        <ele>496</ele>
        <time>2020-12-26T12:28:17Z</time>
      </trkpt>
      <trkpt lat="46.90591" lon="5.77624">
        <ele>496</ele>
        <time>2020-12-26T12:28:18Z</time>
      </trkpt>
      <trkpt lat="46.90589" lon="5.77628">
        <ele>496</ele>
        <time>2020-12-26T12:28:19Z</time>
      </trkpt>
      <trkpt lat="46.90588" lon="5.77631">
        <ele>496</ele>
        <time>2020-12-26T12:28:20Z</time>
      </trkpt>
      <trkpt lat="46.90585" lon="5.77633">
        <ele>496</ele>
        <time>2020-12-26T12:28:21Z</time>
      </trkpt>
      <trkpt lat="46.90582" lon="5.77635">
        <ele>496</ele>
        <time>2020-12-26T12:28:22Z</time>
      </trkpt>
      <trkpt lat="46.90579" lon="5.77637">
        <ele>496.4</ele>
        <time>2020-12-26T12:28:23Z</time>
      </trkpt>
      <trkpt lat="46.90576" lon="5.7764">
        <ele>496.6</ele>
        <time>2020-12-26T12:28:24Z</time>
      </trkpt>
      <trkpt lat="46.90573" lon="5.77642">
        <ele>496.8</ele>
        <time>2020-12-26T12:28:25Z</time>
      </trkpt>
      <trkpt lat="46.90571" lon="5.77644">
        <ele>497.2</ele>
        <time>2020-12-26T12:28:26Z</time>
      </trkpt>
      <trkpt lat="46.90569" lon="5.77645">
        <ele>497.4</ele>
        <time>2020-12-26T12:28:27Z</time>
      </trkpt>
      <trkpt lat="46.90568" lon="5.77646">
        <ele>497.6</ele>
        <time>2020-12-26T12:28:28Z</time>
      </trkpt>
      <trkpt lat="46.90566" lon="5.77647">
        <ele>497.8</ele>
        <time>2020-12-26T12:28:29Z</time>
      </trkpt>
      <trkpt lat="46.90564" lon="5.77648">
        <ele>497.8</ele>
        <time>2020-12-26T12:28:30Z</time>
      </trkpt>
      <trkpt lat="46.90563" lon="5.77649">
        <ele>498</ele>
        <time>2020-12-26T12:28:31Z</time>
      </trkpt>
      <trkpt lat="46.90561" lon="5.77651">
        <ele>498</ele>
        <time>2020-12-26T12:28:32Z</time>
      </trkpt>
      <trkpt lat="46.90561" lon="5.77654">
        <ele>498</ele>
        <time>2020-12-26T12:28:33Z</time>
      </trkpt>
      <trkpt lat="46.90561" lon="5.77659">
        <ele>498</ele>
        <time>2020-12-26T12:28:34Z</time>
      </trkpt>
      <trkpt lat="46.90563" lon="5.77665">
        <ele>497.8</ele>
        <time>2020-12-26T12:28:35Z</time>
      </trkpt>
      <trkpt lat="46.90566" lon="5.77671">
        <ele>497.8</ele>
        <time>2020-12-26T12:28:36Z</time>
      </trkpt>
      <trkpt lat="46.90568" lon="5.77678">
        <ele>497.4</ele>
        <time>2020-12-26T12:28:37Z</time>
      </trkpt>
      <trkpt lat="46.90571" lon="5.77685">
        <ele>497.4</ele>
        <time>2020-12-26T12:28:38Z</time>
      </trkpt>
      <trkpt lat="46.90573" lon="5.77692">
        <ele>497.2</ele>
        <time>2020-12-26T12:28:39Z</time>
      </trkpt>
      <trkpt lat="46.90576" lon="5.777">
        <ele>497.2</ele>
        <time>2020-12-26T12:28:40Z</time>
      </trkpt>
      <trkpt lat="46.90578" lon="5.77708">
        <ele>496.8</ele>
        <time>2020-12-26T12:28:41Z</time>
      </trkpt>
      <trkpt lat="46.90581" lon="5.77715">
        <ele>496.8</ele>
        <time>2020-12-26T12:28:42Z</time>
      </trkpt>
      <trkpt lat="46.90583" lon="5.77722">
        <ele>496.8</ele>
        <time>2020-12-26T12:28:43Z</time>
      </trkpt>
      <trkpt lat="46.90586" lon="5.77729">
        <ele>496.4</ele>
        <time>2020-12-26T12:28:44Z</time>
      </trkpt>
      <trkpt lat="46.90588" lon="5.77736">
        <ele>496.4</ele>
        <time>2020-12-26T12:28:45Z</time>
      </trkpt>
      <trkpt lat="46.90591" lon="5.77743">
        <ele>496.4</ele>
        <time>2020-12-26T12:28:46Z</time>
      </trkpt>
      <trkpt lat="46.90593" lon="5.7775">
        <ele>496.8</ele>
        <time>2020-12-26T12:28:47Z</time>
      </trkpt>
      <trkpt lat="46.90595" lon="5.77757">
        <ele>496.8</ele>
        <time>2020-12-26T12:28:48Z</time>
      </trkpt>
      <trkpt lat="46.90597" lon="5.77764">
        <ele>497.2</ele>
        <time>2020-12-26T12:28:49Z</time>
      </trkpt>
      <trkpt lat="46.90599" lon="5.7777">
        <ele>497.2</ele>
        <time>2020-12-26T12:28:50Z</time>
      </trkpt>
      <trkpt lat="46.90601" lon="5.77777">
        <ele>497.6</ele>
        <time>2020-12-26T12:28:51Z</time>
      </trkpt>
      <trkpt lat="46.90603" lon="5.77783">
        <ele>497.6</ele>
        <time>2020-12-26T12:28:52Z</time>
      </trkpt>
      <trkpt lat="46.90605" lon="5.77789">
        <ele>498</ele>
        <time>2020-12-26T12:28:53Z</time>
      </trkpt>
      <trkpt lat="46.90607" lon="5.77795">
        <ele>498</ele>
        <time>2020-12-26T12:28:54Z</time>
      </trkpt>
      <trkpt lat="46.90608" lon="5.77801">
        <ele>498.2</ele>
        <time>2020-12-26T12:28:55Z</time>
      </trkpt>
      <trkpt lat="46.9061" lon="5.77807">
        <ele>498.4</ele>
        <time>2020-12-26T12:28:56Z</time>
      </trkpt>
      <trkpt lat="46.90612" lon="5.77813">
        <ele>498.8</ele>
        <time>2020-12-26T12:28:57Z</time>
      </trkpt>
      <trkpt lat="46.90613" lon="5.77819">
        <ele>499</ele>
        <time>2020-12-26T12:28:58Z</time>
      </trkpt>
      <trkpt lat="46.90615" lon="5.77825">
        <ele>499.2</ele>
        <time>2020-12-26T12:28:59Z</time>
      </trkpt>
      <trkpt lat="46.90617" lon="5.7783">
        <ele>499.2</ele>
        <time>2020-12-26T12:29:00Z</time>
      </trkpt>
      <trkpt lat="46.90618" lon="5.77836">
        <ele>499.6</ele>
        <time>2020-12-26T12:29:01Z</time>
      </trkpt>
      <trkpt lat="46.9062" lon="5.77842">
        <ele>499.8</ele>
        <time>2020-12-26T12:29:02Z</time>
      </trkpt>
      <trkpt lat="46.90622" lon="5.77848">
        <ele>500</ele>
        <time>2020-12-26T12:29:03Z</time>
      </trkpt>
      <trkpt lat="46.90624" lon="5.77854">
        <ele>500</ele>
        <time>2020-12-26T12:29:04Z</time>
      </trkpt>
      <trkpt lat="46.90626" lon="5.7786">
        <ele>500.4</ele>
        <time>2020-12-26T12:29:05Z</time>
      </trkpt>
      <trkpt lat="46.90628" lon="5.77865">
        <ele>500.6</ele>
        <time>2020-12-26T12:29:06Z</time>
      </trkpt>
      <trkpt lat="46.90631" lon="5.77872">
        <ele>500.8</ele>
        <time>2020-12-26T12:29:07Z</time>
      </trkpt>
      <trkpt lat="46.90633" lon="5.77877">
        <ele>501.2</ele>
        <time>2020-12-26T12:29:08Z</time>
      </trkpt>
      <trkpt lat="46.90635" lon="5.77883">
        <ele>501.4</ele>
        <time>2020-12-26T12:29:09Z</time>
      </trkpt>
      <trkpt lat="46.90637" lon="5.77888">
        <ele>501.6</ele>
        <time>2020-12-26T12:29:10Z</time>
      </trkpt>
      <trkpt lat="46.90639" lon="5.77894">
        <ele>501.8</ele>
        <time>2020-12-26T12:29:11Z</time>
      </trkpt>
      <trkpt lat="46.90641" lon="5.77899">
        <ele>501.8</ele>
        <time>2020-12-26T12:29:12Z</time>
      </trkpt>
      <trkpt lat="46.90643" lon="5.77904">
        <ele>502.2</ele>
        <time>2020-12-26T12:29:13Z</time>
      </trkpt>
      <trkpt lat="46.90644" lon="5.77909">
        <ele>502.6</ele>
        <time>2020-12-26T12:29:14Z</time>
      </trkpt>
      <trkpt lat="46.90647" lon="5.77913">
        <ele>502.8</ele>
        <time>2020-12-26T12:29:15Z</time>
      </trkpt>
      <trkpt lat="46.90649" lon="5.77918">
        <ele>503.2</ele>
        <time>2020-12-26T12:29:16Z</time>
      </trkpt>
      <trkpt lat="46.90651" lon="5.77922">
        <ele>503.4</ele>
        <time>2020-12-26T12:29:17Z</time>
      </trkpt>
      <trkpt lat="46.90654" lon="5.77926">
        <ele>503.6</ele>
        <time>2020-12-26T12:29:18Z</time>
      </trkpt>
      <trkpt lat="46.90658" lon="5.7793">
        <ele>504</ele>
        <time>2020-12-26T12:29:19Z</time>
      </trkpt>
      <trkpt lat="46.90661" lon="5.77933">
        <ele>504</ele>
        <time>2020-12-26T12:29:20Z</time>
      </trkpt>
      <trkpt lat="46.90665" lon="5.77935">
        <ele>504.4</ele>
        <time>2020-12-26T12:29:21Z</time>
      </trkpt>
      <trkpt lat="46.90669" lon="5.77938">
        <ele>504.6</ele>
        <time>2020-12-26T12:29:22Z</time>
      </trkpt>
      <trkpt lat="46.90673" lon="5.7794">
        <ele>504.6</ele>
        <time>2020-12-26T12:29:23Z</time>
      </trkpt>
      <trkpt lat="46.90676" lon="5.77941">
        <ele>505</ele>
        <time>2020-12-26T12:29:24Z</time>
      </trkpt>
      <trkpt lat="46.9068" lon="5.77943">
        <ele>505.2</ele>
        <time>2020-12-26T12:29:25Z</time>
      </trkpt>
      <trkpt lat="46.90683" lon="5.77943">
        <ele>505.6</ele>
        <time>2020-12-26T12:29:26Z</time>
      </trkpt>
      <trkpt lat="46.90687" lon="5.77943">
        <ele>505.8</ele>
        <time>2020-12-26T12:29:27Z</time>
      </trkpt>
      <trkpt lat="46.9069" lon="5.77943">
        <ele>506</ele>
        <time>2020-12-26T12:29:28Z</time>
      </trkpt>
      <trkpt lat="46.90694" lon="5.77942">
        <ele>506.2</ele>
        <time>2020-12-26T12:29:29Z</time>
      </trkpt>
      <trkpt lat="46.90698" lon="5.77941">
        <ele>506.4</ele>
        <time>2020-12-26T12:29:30Z</time>
      </trkpt>
      <trkpt lat="46.90701" lon="5.7794">
        <ele>506.8</ele>
        <time>2020-12-26T12:29:31Z</time>
      </trkpt>
      <trkpt lat="46.90705" lon="5.77938">
        <ele>507</ele>
        <time>2020-12-26T12:29:32Z</time>
      </trkpt>
      <trkpt lat="46.90709" lon="5.77937">
        <ele>507.2</ele>
        <time>2020-12-26T12:29:33Z</time>
      </trkpt>
      <trkpt lat="46.90713" lon="5.77936">
        <ele>507.2</ele>
        <time>2020-12-26T12:29:34Z</time>
      </trkpt>
      <trkpt lat="46.90716" lon="5.77934">
        <ele>507.6</ele>
        <time>2020-12-26T12:29:35Z</time>
      </trkpt>
      <trkpt lat="46.9072" lon="5.77932">
        <ele>507.8</ele>
        <time>2020-12-26T12:29:36Z</time>
      </trkpt>
      <trkpt lat="46.90724" lon="5.77931">
        <ele>507.8</ele>
        <time>2020-12-26T12:29:37Z</time>
      </trkpt>
      <trkpt lat="46.90727" lon="5.7793">
        <ele>508.2</ele>
        <time>2020-12-26T12:29:38Z</time>
      </trkpt>
      <trkpt lat="46.90731" lon="5.77928">
        <ele>508.2</ele>
        <time>2020-12-26T12:29:39Z</time>
      </trkpt>
      <trkpt lat="46.90735" lon="5.77927">
        <ele>508.6</ele>
        <time>2020-12-26T12:29:40Z</time>
      </trkpt>
      <trkpt lat="46.90738" lon="5.77925">
        <ele>508.8</ele>
        <time>2020-12-26T12:29:41Z</time>
      </trkpt>
      <trkpt lat="46.90742" lon="5.77924">
        <ele>509.2</ele>
        <time>2020-12-26T12:29:42Z</time>
      </trkpt>
      <trkpt lat="46.90746" lon="5.77923">
        <ele>509.2</ele>
        <time>2020-12-26T12:29:43Z</time>
      </trkpt>
      <trkpt lat="46.9075" lon="5.77921">
        <ele>509.4</ele>
        <time>2020-12-26T12:29:44Z</time>
      </trkpt>
      <trkpt lat="46.90753" lon="5.7792">
        <ele>509.4</ele>
        <time>2020-12-26T12:29:45Z</time>
      </trkpt>
      <trkpt lat="46.90757" lon="5.7792">
        <ele>509.8</ele>
        <time>2020-12-26T12:29:46Z</time>
      </trkpt>
      <trkpt lat="46.90761" lon="5.77919">
        <ele>509.8</ele>
        <time>2020-12-26T12:29:47Z</time>
      </trkpt>
      <trkpt lat="46.90764" lon="5.7792">
        <ele>510.2</ele>
        <time>2020-12-26T12:29:48Z</time>
      </trkpt>
      <trkpt lat="46.90768" lon="5.7792">
        <ele>510.2</ele>
        <time>2020-12-26T12:29:49Z</time>
      </trkpt>
      <trkpt lat="46.90772" lon="5.77921">
        <ele>510.6</ele>
        <time>2020-12-26T12:29:50Z</time>
      </trkpt>
      <trkpt lat="46.90775" lon="5.77922">
        <ele>510.8</ele>
        <time>2020-12-26T12:29:51Z</time>
      </trkpt>
      <trkpt lat="46.90779" lon="5.77924">
        <ele>510.8</ele>
        <time>2020-12-26T12:29:52Z</time>
      </trkpt>
      <trkpt lat="46.90782" lon="5.77926">
        <ele>511.2</ele>
        <time>2020-12-26T12:29:53Z</time>
      </trkpt>
      <trkpt lat="46.90785" lon="5.77928">
        <ele>511.4</ele>
        <time>2020-12-26T12:29:54Z</time>
      </trkpt>
      <trkpt lat="46.90788" lon="5.77931">
        <ele>511.4</ele>
        <time>2020-12-26T12:29:55Z</time>
      </trkpt>
      <trkpt lat="46.9079" lon="5.77933">
        <ele>511.8</ele>
        <time>2020-12-26T12:29:56Z</time>
      </trkpt>
      <trkpt lat="46.90793" lon="5.77936">
        <ele>512</ele>
        <time>2020-12-26T12:29:57Z</time>
      </trkpt>
      <trkpt lat="46.90796" lon="5.77939">
        <ele>512.2</ele>
        <time>2020-12-26T12:29:58Z</time>
      </trkpt>
      <trkpt lat="46.90799" lon="5.77942">
        <ele>512.4</ele>
        <time>2020-12-26T12:29:59Z</time>
      </trkpt>
      <trkpt lat="46.90802" lon="5.77944">
        <ele>512.6</ele>
        <time>2020-12-26T12:30:00Z</time>
      </trkpt>
      <trkpt lat="46.90805" lon="5.77947">
        <ele>512.8</ele>
        <time>2020-12-26T12:30:01Z</time>
      </trkpt>
      <trkpt lat="46.90809" lon="5.77949">
        <ele>513.2</ele>
        <time>2020-12-26T12:30:02Z</time>
      </trkpt>
      <trkpt lat="46.90812" lon="5.77951">
        <ele>513.2</ele>
        <time>2020-12-26T12:30:03Z</time>
      </trkpt>
      <trkpt lat="46.90815" lon="5.77953">
        <ele>513.6</ele>
        <time>2020-12-26T12:30:04Z</time>
      </trkpt>
      <trkpt lat="46.90818" lon="5.77955">
        <ele>513.8</ele>
        <time>2020-12-26T12:30:05Z</time>
      </trkpt>
      <trkpt lat="46.90822" lon="5.77956">
        <ele>513.8</ele>
        <time>2020-12-26T12:30:06Z</time>
      </trkpt>
      <trkpt lat="46.90825" lon="5.77958">
        <ele>514.2</ele>
        <time>2020-12-26T12:30:07Z</time>
      </trkpt>
      <trkpt lat="46.90828" lon="5.7796">
        <ele>514.2</ele>
        <time>2020-12-26T12:30:08Z</time>
      </trkpt>
      <trkpt lat="46.90831" lon="5.77962">
        <ele>514.4</ele>
        <time>2020-12-26T12:30:09Z</time>
      </trkpt>
      <trkpt lat="46.90835" lon="5.77963">
        <ele>514.8</ele>
        <time>2020-12-26T12:30:10Z</time>
      </trkpt>
      <trkpt lat="46.90838" lon="5.77965">
        <ele>515</ele>
        <time>2020-12-26T12:30:11Z</time>
      </trkpt>
      <trkpt lat="46.90842" lon="5.77967">
        <ele>515.2</ele>
        <time>2020-12-26T12:30:12Z</time>
      </trkpt>
      <trkpt lat="46.90845" lon="5.77968">
        <ele>515.2</ele>
        <time>2020-12-26T12:30:13Z</time>
      </trkpt>
      <trkpt lat="46.90848" lon="5.77969">
        <ele>515.6</ele>
        <time>2020-12-26T12:30:14Z</time>
      </trkpt>
      <trkpt lat="46.90851" lon="5.77971">
        <ele>515.6</ele>
        <time>2020-12-26T12:30:15Z</time>
      </trkpt>
      <trkpt lat="46.90854" lon="5.77972">
        <ele>515.8</ele>
        <time>2020-12-26T12:30:16Z</time>
      </trkpt>
      <trkpt lat="46.90857" lon="5.77973">
        <ele>516</ele>
        <time>2020-12-26T12:30:17Z</time>
      </trkpt>
      <trkpt lat="46.9086" lon="5.77974">
        <ele>516</ele>
        <time>2020-12-26T12:30:18Z</time>
      </trkpt>
      <trkpt lat="46.90863" lon="5.77975">
        <ele>516.4</ele>
        <time>2020-12-26T12:30:19Z</time>
      </trkpt>
      <trkpt lat="46.90866" lon="5.77976">
        <ele>516.8</ele>
        <time>2020-12-26T12:30:20Z</time>
      </trkpt>
      <trkpt lat="46.90869" lon="5.77978">
        <ele>517</ele>
        <time>2020-12-26T12:30:21Z</time>
      </trkpt>
      <trkpt lat="46.90872" lon="5.77979">
        <ele>517.2</ele>
        <time>2020-12-26T12:30:22Z</time>
      </trkpt>
      <trkpt lat="46.90875" lon="5.7798">
        <ele>517.4</ele>
        <time>2020-12-26T12:30:23Z</time>
      </trkpt>
      <trkpt lat="46.90878" lon="5.77982">
        <ele>517.4</ele>
        <time>2020-12-26T12:30:24Z</time>
      </trkpt>
      <trkpt lat="46.90881" lon="5.77983">
        <ele>517.8</ele>
        <time>2020-12-26T12:30:25Z</time>
      </trkpt>
      <trkpt lat="46.90884" lon="5.77984">
        <ele>517.8</ele>
        <time>2020-12-26T12:30:26Z</time>
      </trkpt>
      <trkpt lat="46.90887" lon="5.77986">
        <ele>518</ele>
        <time>2020-12-26T12:30:27Z</time>
      </trkpt>
      <trkpt lat="46.9089" lon="5.77987">
        <ele>518.4</ele>
        <time>2020-12-26T12:30:28Z</time>
      </trkpt>
      <trkpt lat="46.90894" lon="5.77988">
        <ele>518.4</ele>
        <time>2020-12-26T12:30:29Z</time>
      </trkpt>
      <trkpt lat="46.90897" lon="5.77989">
        <ele>518.6</ele>
        <time>2020-12-26T12:30:30Z</time>
      </trkpt>
      <trkpt lat="46.909" lon="5.7799">
        <ele>518.6</ele>
        <time>2020-12-26T12:30:31Z</time>
      </trkpt>
      <trkpt lat="46.90903" lon="5.77992">
        <ele>519.2</ele>
        <time>2020-12-26T12:30:32Z</time>
      </trkpt>
      <trkpt lat="46.90905" lon="5.77994">
        <ele>519.4</ele>
        <time>2020-12-26T12:30:33Z</time>
      </trkpt>
      <trkpt lat="46.90908" lon="5.77995">
        <ele>519.6</ele>
        <time>2020-12-26T12:30:34Z</time>
      </trkpt>
      <trkpt lat="46.90911" lon="5.77996">
        <ele>519.8</ele>
        <time>2020-12-26T12:30:35Z</time>
      </trkpt>
      <trkpt lat="46.90914" lon="5.77998">
        <ele>520</ele>
        <time>2020-12-26T12:30:36Z</time>
      </trkpt>
      <trkpt lat="46.90917" lon="5.78">
        <ele>520.2</ele>
        <time>2020-12-26T12:30:37Z</time>
      </trkpt>
      <trkpt lat="46.9092" lon="5.78003">
        <ele>520.2</ele>
        <time>2020-12-26T12:30:38Z</time>
      </trkpt>
      <trkpt lat="46.90922" lon="5.78005">
        <ele>520.6</ele>
        <time>2020-12-26T12:30:39Z</time>
      </trkpt>
      <trkpt lat="46.90925" lon="5.78008">
        <ele>520.8</ele>
        <time>2020-12-26T12:30:40Z</time>
      </trkpt>
      <trkpt lat="46.90928" lon="5.7801">
        <ele>521</ele>
        <time>2020-12-26T12:30:41Z</time>
      </trkpt>
      <trkpt lat="46.90931" lon="5.78013">
        <ele>521</ele>
        <time>2020-12-26T12:30:42Z</time>
      </trkpt>
      <trkpt lat="46.90933" lon="5.78015">
        <ele>521.4</ele>
        <time>2020-12-26T12:30:43Z</time>
      </trkpt>
      <trkpt lat="46.90936" lon="5.78018">
        <ele>521.4</ele>
        <time>2020-12-26T12:30:44Z</time>
      </trkpt>
      <trkpt lat="46.90938" lon="5.7802">
        <ele>521.8</ele>
        <time>2020-12-26T12:30:45Z</time>
      </trkpt>
      <trkpt lat="46.90941" lon="5.78022">
        <ele>522</ele>
        <time>2020-12-26T12:30:46Z</time>
      </trkpt>
      <trkpt lat="46.90943" lon="5.78024">
        <ele>522.2</ele>
        <time>2020-12-26T12:30:47Z</time>
      </trkpt>
      <trkpt lat="46.90945" lon="5.78026">
        <ele>522.2</ele>
        <time>2020-12-26T12:30:48Z</time>
      </trkpt>
      <trkpt lat="46.90948" lon="5.78028">
        <ele>522.6</ele>
        <time>2020-12-26T12:30:49Z</time>
      </trkpt>
      <trkpt lat="46.9095" lon="5.7803">
        <ele>522.6</ele>
        <time>2020-12-26T12:30:50Z</time>
      </trkpt>
      <trkpt lat="46.90952" lon="5.78031">
        <ele>522.8</ele>
        <time>2020-12-26T12:30:51Z</time>
      </trkpt>
      <trkpt lat="46.90954" lon="5.78033">
        <ele>522.8</ele>
        <time>2020-12-26T12:30:52Z</time>
      </trkpt>
      <trkpt lat="46.90957" lon="5.78036">
        <ele>523.2</ele>
        <time>2020-12-26T12:30:53Z</time>
      </trkpt>
      <trkpt lat="46.9096" lon="5.78037">
        <ele>523.4</ele>
        <time>2020-12-26T12:30:54Z</time>
      </trkpt>
      <trkpt lat="46.90963" lon="5.78039">
        <ele>523.4</ele>
        <time>2020-12-26T12:30:55Z</time>
      </trkpt>
      <trkpt lat="46.90965" lon="5.78041">
        <ele>523.8</ele>
        <time>2020-12-26T12:30:56Z</time>
      </trkpt>
      <trkpt lat="46.90968" lon="5.78043">
        <ele>523.8</ele>
        <time>2020-12-26T12:30:57Z</time>
      </trkpt>
      <trkpt lat="46.90971" lon="5.78044">
        <ele>524</ele>
        <time>2020-12-26T12:30:58Z</time>
      </trkpt>
      <trkpt lat="46.90974" lon="5.78046">
        <ele>524.2</ele>
        <time>2020-12-26T12:30:59Z</time>
      </trkpt>
      <trkpt lat="46.90977" lon="5.78046">
        <ele>524.6</ele>
        <time>2020-12-26T12:31:00Z</time>
      </trkpt>
      <trkpt lat="46.9098" lon="5.78047">
        <ele>524.8</ele>
        <time>2020-12-26T12:31:01Z</time>
      </trkpt>
      <trkpt lat="46.90983" lon="5.78048">
        <ele>525</ele>
        <time>2020-12-26T12:31:02Z</time>
      </trkpt>
      <trkpt lat="46.90987" lon="5.78049">
        <ele>525</ele>
        <time>2020-12-26T12:31:03Z</time>
      </trkpt>
      <trkpt lat="46.90991" lon="5.7805">
        <ele>525.4</ele>
        <time>2020-12-26T12:31:04Z</time>
      </trkpt>
      <trkpt lat="46.90994" lon="5.78051">
        <ele>525.6</ele>
        <time>2020-12-26T12:31:05Z</time>
      </trkpt>
      <trkpt lat="46.90998" lon="5.78052">
        <ele>525.8</ele>
        <time>2020-12-26T12:31:06Z</time>
      </trkpt>
      <trkpt lat="46.91001" lon="5.78052">
        <ele>526.2</ele>
        <time>2020-12-26T12:31:07Z</time>
      </trkpt>
      <trkpt lat="46.91004" lon="5.78053">
        <ele>526.4</ele>
        <time>2020-12-26T12:31:08Z</time>
      </trkpt>
      <trkpt lat="46.91008" lon="5.78054">
        <ele>526.4</ele>
        <time>2020-12-26T12:31:09Z</time>
      </trkpt>
      <trkpt lat="46.91011" lon="5.78054">
        <ele>526.6</ele>
        <time>2020-12-26T12:31:10Z</time>
      </trkpt>
      <trkpt lat="46.91014" lon="5.78056">
        <ele>526.8</ele>
        <time>2020-12-26T12:31:11Z</time>
      </trkpt>
      <trkpt lat="46.91017" lon="5.78057">
        <ele>526.8</ele>
        <time>2020-12-26T12:31:12Z</time>
      </trkpt>
      <trkpt lat="46.9102" lon="5.78059">
        <ele>527.2</ele>
        <time>2020-12-26T12:31:13Z</time>
      </trkpt>
      <trkpt lat="46.91023" lon="5.78061">
        <ele>527.2</ele>
        <time>2020-12-26T12:31:14Z</time>
      </trkpt>
      <trkpt lat="46.91025" lon="5.78063">
        <ele>527.6</ele>
        <time>2020-12-26T12:31:15Z</time>
      </trkpt>
      <trkpt lat="46.91028" lon="5.78065">
        <ele>527.6</ele>
        <time>2020-12-26T12:31:16Z</time>
      </trkpt>
      <trkpt lat="46.9103" lon="5.78067">
        <ele>528</ele>
        <time>2020-12-26T12:31:17Z</time>
      </trkpt>
      <trkpt lat="46.91032" lon="5.78069">
        <ele>528.2</ele>
        <time>2020-12-26T12:31:18Z</time>
      </trkpt>
      <trkpt lat="46.91034" lon="5.78071">
        <ele>528.2</ele>
        <time>2020-12-26T12:31:19Z</time>
      </trkpt>
      <trkpt lat="46.91035" lon="5.78073">
        <ele>528.6</ele>
        <time>2020-12-26T12:31:20Z</time>
      </trkpt>
      <trkpt lat="46.91037" lon="5.78074">
        <ele>528.6</ele>
        <time>2020-12-26T12:31:21Z</time>
      </trkpt>
      <trkpt lat="46.91039" lon="5.78076">
        <ele>528.8</ele>
        <time>2020-12-26T12:31:22Z</time>
      </trkpt>
      <trkpt lat="46.91041" lon="5.78078">
        <ele>529</ele>
        <time>2020-12-26T12:31:23Z</time>
      </trkpt>
      <trkpt lat="46.91042" lon="5.7808">
        <ele>529.4</ele>
        <time>2020-12-26T12:31:24Z</time>
      </trkpt>
      <trkpt lat="46.91045" lon="5.78082">
        <ele>529.4</ele>
        <time>2020-12-26T12:31:25Z</time>
      </trkpt>
      <trkpt lat="46.91046" lon="5.78083">
        <ele>529.6</ele>
        <time>2020-12-26T12:31:26Z</time>
      </trkpt>
      <trkpt lat="46.91048" lon="5.78085">
        <ele>529.8</ele>
        <time>2020-12-26T12:31:27Z</time>
      </trkpt>
      <trkpt lat="46.9105" lon="5.78087">
        <ele>529.8</ele>
        <time>2020-12-26T12:31:28Z</time>
      </trkpt>
      <trkpt lat="46.91052" lon="5.78089">
        <ele>530.2</ele>
        <time>2020-12-26T12:31:29Z</time>
      </trkpt>
      <trkpt lat="46.91054" lon="5.78091">
        <ele>530.4</ele>
        <time>2020-12-26T12:31:30Z</time>
      </trkpt>
      <trkpt lat="46.91056" lon="5.78092">
        <ele>530.6</ele>
        <time>2020-12-26T12:31:31Z</time>
      </trkpt>
      <trkpt lat="46.91059" lon="5.78094">
        <ele>530.8</ele>
        <time>2020-12-26T12:31:32Z</time>
      </trkpt>
      <trkpt lat="46.91062" lon="5.78095">
        <ele>530.8</ele>
        <time>2020-12-26T12:31:33Z</time>
      </trkpt>
      <trkpt lat="46.91064" lon="5.78096">
        <ele>531.2</ele>
        <time>2020-12-26T12:31:34Z</time>
      </trkpt>
      <trkpt lat="46.91067" lon="5.78098">
        <ele>531.2</ele>
        <time>2020-12-26T12:31:35Z</time>
      </trkpt>
      <trkpt lat="46.91071" lon="5.78099">
        <ele>531.6</ele>
        <time>2020-12-26T12:31:36Z</time>
      </trkpt>
      <trkpt lat="46.91075" lon="5.781">
        <ele>531.6</ele>
        <time>2020-12-26T12:31:37Z</time>
      </trkpt>
      <trkpt lat="46.91079" lon="5.78101">
        <ele>532</ele>
        <time>2020-12-26T12:31:38Z</time>
      </trkpt>
      <trkpt lat="46.91082" lon="5.78101">
        <ele>532</ele>
        <time>2020-12-26T12:31:39Z</time>
      </trkpt>
      <trkpt lat="46.91086" lon="5.78102">
        <ele>532.2</ele>
        <time>2020-12-26T12:31:40Z</time>
      </trkpt>
      <trkpt lat="46.91089" lon="5.78102">
        <ele>532.6</ele>
        <time>2020-12-26T12:31:41Z</time>
      </trkpt>
      <trkpt lat="46.91093" lon="5.78102">
        <ele>532.8</ele>
        <time>2020-12-26T12:31:42Z</time>
      </trkpt>
      <trkpt lat="46.91096" lon="5.78103">
        <ele>532.8</ele>
        <time>2020-12-26T12:31:43Z</time>
      </trkpt>
      <trkpt lat="46.91099" lon="5.78103">
        <ele>533</ele>
        <time>2020-12-26T12:31:44Z</time>
      </trkpt>
      <trkpt lat="46.91103" lon="5.78103">
        <ele>533</ele>
        <time>2020-12-26T12:31:45Z</time>
      </trkpt>
      <trkpt lat="46.91106" lon="5.78103">
        <ele>533.4</ele>
        <time>2020-12-26T12:31:46Z</time>
      </trkpt>
      <trkpt lat="46.9111" lon="5.78104">
        <ele>533.4</ele>
        <time>2020-12-26T12:31:47Z</time>
      </trkpt>
      <trkpt lat="46.91114" lon="5.78104">
        <ele>533.8</ele>
        <time>2020-12-26T12:31:48Z</time>
      </trkpt>
      <trkpt lat="46.91117" lon="5.78105">
        <ele>533.8</ele>
        <time>2020-12-26T12:31:49Z</time>
      </trkpt>
      <trkpt lat="46.91121" lon="5.78107">
        <ele>534.2</ele>
        <time>2020-12-26T12:31:50Z</time>
      </trkpt>
      <trkpt lat="46.91125" lon="5.78108">
        <ele>534.2</ele>
        <time>2020-12-26T12:31:51Z</time>
      </trkpt>
      <trkpt lat="46.91128" lon="5.78108">
        <ele>534.6</ele>
        <time>2020-12-26T12:31:52Z</time>
      </trkpt>
      <trkpt lat="46.91131" lon="5.78109">
        <ele>534.8</ele>
        <time>2020-12-26T12:31:53Z</time>
      </trkpt>
      <trkpt lat="46.91135" lon="5.7811">
        <ele>535</ele>
        <time>2020-12-26T12:31:54Z</time>
      </trkpt>
      <trkpt lat="46.91137" lon="5.78111">
        <ele>535.2</ele>
        <time>2020-12-26T12:31:55Z</time>
      </trkpt>
      <trkpt lat="46.9114" lon="5.78112">
        <ele>535.6</ele>
        <time>2020-12-26T12:31:56Z</time>
      </trkpt>
      <trkpt lat="46.91143" lon="5.78114">
        <ele>535.8</ele>
        <time>2020-12-26T12:31:57Z</time>
      </trkpt>
      <trkpt lat="46.91146" lon="5.78115">
        <ele>535.8</ele>
        <time>2020-12-26T12:31:58Z</time>
      </trkpt>
      <trkpt lat="46.91148" lon="5.78115">
        <ele>536.2</ele>
        <time>2020-12-26T12:31:59Z</time>
      </trkpt>
      <trkpt lat="46.91152" lon="5.78117">
        <ele>536.6</ele>
        <time>2020-12-26T12:32:00Z</time>
      </trkpt>
      <trkpt lat="46.91155" lon="5.78118">
        <ele>536.8</ele>
        <time>2020-12-26T12:32:01Z</time>
      </trkpt>
      <trkpt lat="46.91158" lon="5.78119">
        <ele>536.8</ele>
        <time>2020-12-26T12:32:02Z</time>
      </trkpt>
      <trkpt lat="46.91161" lon="5.78119">
        <ele>537</ele>
        <time>2020-12-26T12:32:03Z</time>
      </trkpt>
      <trkpt lat="46.91164" lon="5.7812">
        <ele>537</ele>
        <time>2020-12-26T12:32:04Z</time>
      </trkpt>
      <trkpt lat="46.91167" lon="5.78121">
        <ele>537.4</ele>
        <time>2020-12-26T12:32:05Z</time>
      </trkpt>
      <trkpt lat="46.9117" lon="5.78121">
        <ele>537.4</ele>
        <time>2020-12-26T12:32:06Z</time>
      </trkpt>
      <trkpt lat="46.91174" lon="5.78122">
        <ele>537.8</ele>
        <time>2020-12-26T12:32:07Z</time>
      </trkpt>
      <trkpt lat="46.91177" lon="5.78123">
        <ele>538</ele>
        <time>2020-12-26T12:32:08Z</time>
      </trkpt>
      <trkpt lat="46.9118" lon="5.78124">
        <ele>538</ele>
        <time>2020-12-26T12:32:09Z</time>
      </trkpt>
      <trkpt lat="46.91184" lon="5.78125">
        <ele>538.4</ele>
        <time>2020-12-26T12:32:10Z</time>
      </trkpt>
      <trkpt lat="46.91187" lon="5.78126">
        <ele>538.4</ele>
        <time>2020-12-26T12:32:11Z</time>
      </trkpt>
      <trkpt lat="46.91191" lon="5.78127">
        <ele>538.8</ele>
        <time>2020-12-26T12:32:12Z</time>
      </trkpt>
      <trkpt lat="46.91194" lon="5.78128">
        <ele>538.8</ele>
        <time>2020-12-26T12:32:13Z</time>
      </trkpt>
      <trkpt lat="46.91197" lon="5.78129">
        <ele>539</ele>
        <time>2020-12-26T12:32:14Z</time>
      </trkpt>
      <trkpt lat="46.912" lon="5.78129">
        <ele>539.2</ele>
        <time>2020-12-26T12:32:15Z</time>
      </trkpt>
      <trkpt lat="46.91203" lon="5.78129">
        <ele>539.2</ele>
        <time>2020-12-26T12:32:16Z</time>
      </trkpt>
      <trkpt lat="46.91207" lon="5.7813">
        <ele>539.6</ele>
        <time>2020-12-26T12:32:17Z</time>
      </trkpt>
      <trkpt lat="46.9121" lon="5.78131">
        <ele>539.6</ele>
        <time>2020-12-26T12:32:18Z</time>
      </trkpt>
      <trkpt lat="46.91214" lon="5.78132">
        <ele>540</ele>
        <time>2020-12-26T12:32:19Z</time>
      </trkpt>
      <trkpt lat="46.91217" lon="5.78132">
        <ele>540</ele>
        <time>2020-12-26T12:32:20Z</time>
      </trkpt>
      <trkpt lat="46.9122" lon="5.78133">
        <ele>540.2</ele>
        <time>2020-12-26T12:32:21Z</time>
      </trkpt>
      <trkpt lat="46.91223" lon="5.78134">
        <ele>540.6</ele>
        <time>2020-12-26T12:32:22Z</time>
      </trkpt>
      <trkpt lat="46.91226" lon="5.78135">
        <ele>540.6</ele>
        <time>2020-12-26T12:32:23Z</time>
      </trkpt>
      <trkpt lat="46.9123" lon="5.78136">
        <ele>540.8</ele>
        <time>2020-12-26T12:32:24Z</time>
      </trkpt>
      <trkpt lat="46.91234" lon="5.78137">
        <ele>541</ele>
        <time>2020-12-26T12:32:25Z</time>
      </trkpt>
      <trkpt lat="46.91237" lon="5.78138">
        <ele>541</ele>
        <time>2020-12-26T12:32:26Z</time>
      </trkpt>
      <trkpt lat="46.9124" lon="5.78139">
        <ele>541.4</ele>
        <time>2020-12-26T12:32:27Z</time>
      </trkpt>
      <trkpt lat="46.91244" lon="5.7814">
        <ele>541.4</ele>
        <time>2020-12-26T12:32:28Z</time>
      </trkpt>
      <trkpt lat="46.91247" lon="5.78141">
        <ele>541.8</ele>
        <time>2020-12-26T12:32:29Z</time>
      </trkpt>
      <trkpt lat="46.91251" lon="5.78142">
        <ele>541.8</ele>
        <time>2020-12-26T12:32:30Z</time>
      </trkpt>
      <trkpt lat="46.91254" lon="5.78143">
        <ele>542.2</ele>
        <time>2020-12-26T12:32:31Z</time>
      </trkpt>
      <trkpt lat="46.91257" lon="5.78144">
        <ele>542.4</ele>
        <time>2020-12-26T12:32:32Z</time>
      </trkpt>
      <trkpt lat="46.9126" lon="5.78145">
        <ele>542.4</ele>
        <time>2020-12-26T12:32:33Z</time>
      </trkpt>
      <trkpt lat="46.91263" lon="5.78145">
        <ele>542.8</ele>
        <time>2020-12-26T12:32:34Z</time>
      </trkpt>
      <trkpt lat="46.91266" lon="5.78144">
        <ele>542.8</ele>
        <time>2020-12-26T12:32:35Z</time>
      </trkpt>
      <trkpt lat="46.91269" lon="5.78144">
        <ele>543</ele>
        <time>2020-12-26T12:32:36Z</time>
      </trkpt>
      <trkpt lat="46.91272" lon="5.78145">
        <ele>543.2</ele>
        <time>2020-12-26T12:32:37Z</time>
      </trkpt>
      <trkpt lat="46.91275" lon="5.78145">
        <ele>543.2</ele>
        <time>2020-12-26T12:32:38Z</time>
      </trkpt>
      <trkpt lat="46.91278" lon="5.78144">
        <ele>543.8</ele>
        <time>2020-12-26T12:32:39Z</time>
      </trkpt>
      <trkpt lat="46.9128" lon="5.78144">
        <ele>543.8</ele>
        <time>2020-12-26T12:32:40Z</time>
      </trkpt>
      <trkpt lat="46.91283" lon="5.78144">
        <ele>544</ele>
        <time>2020-12-26T12:32:41Z</time>
      </trkpt>
      <trkpt lat="46.91285" lon="5.78143">
        <ele>544</ele>
        <time>2020-12-26T12:32:42Z</time>
      </trkpt>
      <trkpt lat="46.91287" lon="5.78143">
        <ele>544.4</ele>
        <time>2020-12-26T12:32:43Z</time>
      </trkpt>
      <trkpt lat="46.9129" lon="5.78143">
        <ele>544.6</ele>
        <time>2020-12-26T12:32:44Z</time>
      </trkpt>
      <trkpt lat="46.91293" lon="5.78143">
        <ele>544.6</ele>
        <time>2020-12-26T12:32:45Z</time>
      </trkpt>
      <trkpt lat="46.91296" lon="5.78143">
        <ele>545</ele>
        <time>2020-12-26T12:32:46Z</time>
      </trkpt>
      <trkpt lat="46.91298" lon="5.78142">
        <ele>545</ele>
        <time>2020-12-26T12:32:47Z</time>
      </trkpt>
      <trkpt lat="46.91301" lon="5.78142">
        <ele>545.4</ele>
        <time>2020-12-26T12:32:48Z</time>
      </trkpt>
      <trkpt lat="46.91305" lon="5.78141">
        <ele>545.4</ele>
        <time>2020-12-26T12:32:49Z</time>
      </trkpt>
      <trkpt lat="46.91308" lon="5.7814">
        <ele>545.8</ele>
        <time>2020-12-26T12:32:50Z</time>
      </trkpt>
      <trkpt lat="46.91312" lon="5.7814">
        <ele>545.8</ele>
        <time>2020-12-26T12:32:51Z</time>
      </trkpt>
      <trkpt lat="46.91316" lon="5.7814">
        <ele>546</ele>
        <time>2020-12-26T12:32:52Z</time>
      </trkpt>
      <trkpt lat="46.91319" lon="5.7814">
        <ele>546</ele>
        <time>2020-12-26T12:32:53Z</time>
      </trkpt>
      <trkpt lat="46.91322" lon="5.7814">
        <ele>546.4</ele>
        <time>2020-12-26T12:32:54Z</time>
      </trkpt>
      <trkpt lat="46.91325" lon="5.78141">
        <ele>546.4</ele>
        <time>2020-12-26T12:32:55Z</time>
      </trkpt>
      <trkpt lat="46.91328" lon="5.78142">
        <ele>546.8</ele>
        <time>2020-12-26T12:32:56Z</time>
      </trkpt>
      <trkpt lat="46.91331" lon="5.78142">
        <ele>546.8</ele>
        <time>2020-12-26T12:32:57Z</time>
      </trkpt>
      <trkpt lat="46.91333" lon="5.78143">
        <ele>547.2</ele>
        <time>2020-12-26T12:32:58Z</time>
      </trkpt>
      <trkpt lat="46.91336" lon="5.78144">
        <ele>547.2</ele>
        <time>2020-12-26T12:32:59Z</time>
      </trkpt>
      <trkpt lat="46.91339" lon="5.78146">
        <ele>547.4</ele>
        <time>2020-12-26T12:33:00Z</time>
      </trkpt>
      <trkpt lat="46.91342" lon="5.78147">
        <ele>547.8</ele>
        <time>2020-12-26T12:33:01Z</time>
      </trkpt>
      <trkpt lat="46.91344" lon="5.7815">
        <ele>547.8</ele>
        <time>2020-12-26T12:33:02Z</time>
      </trkpt>
      <trkpt lat="46.91347" lon="5.78153">
        <ele>548.2</ele>
        <time>2020-12-26T12:33:03Z</time>
      </trkpt>
      <trkpt lat="46.91349" lon="5.78156">
        <ele>548.4</ele>
        <time>2020-12-26T12:33:04Z</time>
      </trkpt>
      <trkpt lat="46.91352" lon="5.78159">
        <ele>548.6</ele>
        <time>2020-12-26T12:33:05Z</time>
      </trkpt>
      <trkpt lat="46.91355" lon="5.78162">
        <ele>548.8</ele>
        <time>2020-12-26T12:33:06Z</time>
      </trkpt>
      <trkpt lat="46.91357" lon="5.78166">
        <ele>548.8</ele>
        <time>2020-12-26T12:33:07Z</time>
      </trkpt>
      <trkpt lat="46.91359" lon="5.7817">
        <ele>549.2</ele>
        <time>2020-12-26T12:33:08Z</time>
      </trkpt>
      <trkpt lat="46.91362" lon="5.78176">
        <ele>549.2</ele>
        <time>2020-12-26T12:33:09Z</time>
      </trkpt>
      <trkpt lat="46.91365" lon="5.7818">
        <ele>549.6</ele>
        <time>2020-12-26T12:33:10Z</time>
      </trkpt>
      <trkpt lat="46.91367" lon="5.78184">
        <ele>549.8</ele>
        <time>2020-12-26T12:33:11Z</time>
      </trkpt>
      <trkpt lat="46.91369" lon="5.78188">
        <ele>550</ele>
        <time>2020-12-26T12:33:12Z</time>
      </trkpt>
      <trkpt lat="46.91371" lon="5.78191">
        <ele>550.2</ele>
        <time>2020-12-26T12:33:13Z</time>
      </trkpt>
      <trkpt lat="46.91374" lon="5.78195">
        <ele>550.2</ele>
        <time>2020-12-26T12:33:14Z</time>
      </trkpt>
      <trkpt lat="46.91376" lon="5.782">
        <ele>550.6</ele>
        <time>2020-12-26T12:33:15Z</time>
      </trkpt>
      <trkpt lat="46.91378" lon="5.78204">
        <ele>550.6</ele>
        <time>2020-12-26T12:33:16Z</time>
      </trkpt>
      <trkpt lat="46.9138" lon="5.78209">
        <ele>551</ele>
        <time>2020-12-26T12:33:17Z</time>
      </trkpt>
      <trkpt lat="46.91381" lon="5.78215">
        <ele>551</ele>
        <time>2020-12-26T12:33:18Z</time>
      </trkpt>
      <trkpt lat="46.91382" lon="5.78221">
        <ele>551.2</ele>
        <time>2020-12-26T12:33:19Z</time>
      </trkpt>
      <trkpt lat="46.91383" lon="5.78227">
        <ele>551.2</ele>
        <time>2020-12-26T12:33:20Z</time>
      </trkpt>
      <trkpt lat="46.91383" lon="5.78233">
        <ele>551.6</ele>
        <time>2020-12-26T12:33:21Z</time>
      </trkpt>
      <trkpt lat="46.91383" lon="5.7824">
        <ele>551.6</ele>
        <time>2020-12-26T12:33:22Z</time>
      </trkpt>
      <trkpt lat="46.91382" lon="5.78247">
        <ele>551.8</ele>
        <time>2020-12-26T12:33:23Z</time>
      </trkpt>
      <trkpt lat="46.91382" lon="5.78253">
        <ele>551.8</ele>
        <time>2020-12-26T12:33:24Z</time>
      </trkpt>
      <trkpt lat="46.91381" lon="5.78258">
        <ele>552.2</ele>
        <time>2020-12-26T12:33:25Z</time>
      </trkpt>
      <trkpt lat="46.91382" lon="5.78264">
        <ele>552.2</ele>
        <time>2020-12-26T12:33:26Z</time>
      </trkpt>
      <trkpt lat="46.91384" lon="5.7827">
        <ele>552.6</ele>
        <time>2020-12-26T12:33:27Z</time>
      </trkpt>
      <trkpt lat="46.91385" lon="5.78275">
        <ele>552.6</ele>
        <time>2020-12-26T12:33:28Z</time>
      </trkpt>
      <trkpt lat="46.91388" lon="5.7828">
        <ele>553</ele>
        <time>2020-12-26T12:33:29Z</time>
      </trkpt>
      <trkpt lat="46.9139" lon="5.78284">
        <ele>553.2</ele>
        <time>2020-12-26T12:33:30Z</time>
      </trkpt>
      <trkpt lat="46.91393" lon="5.78288">
        <ele>553.4</ele>
        <time>2020-12-26T12:33:31Z</time>
      </trkpt>
      <trkpt lat="46.91395" lon="5.78292">
        <ele>553.4</ele>
        <time>2020-12-26T12:33:32Z</time>
      </trkpt>
      <trkpt lat="46.91397" lon="5.78296">
        <ele>553.6</ele>
        <time>2020-12-26T12:33:33Z</time>
      </trkpt>
      <trkpt lat="46.91399" lon="5.78299">
        <ele>553.6</ele>
        <time>2020-12-26T12:33:34Z</time>
      </trkpt>
      <trkpt lat="46.91401" lon="5.78303">
        <ele>554</ele>
        <time>2020-12-26T12:33:35Z</time>
      </trkpt>
      <trkpt lat="46.91403" lon="5.78306">
        <ele>554</ele>
        <time>2020-12-26T12:33:36Z</time>
      </trkpt>
      <trkpt lat="46.91405" lon="5.78309">
        <ele>554.4</ele>
        <time>2020-12-26T12:33:37Z</time>
      </trkpt>
      <trkpt lat="46.91407" lon="5.78312">
        <ele>554.6</ele>
        <time>2020-12-26T12:33:38Z</time>
      </trkpt>
      <trkpt lat="46.91409" lon="5.78316">
        <ele>554.8</ele>
        <time>2020-12-26T12:33:39Z</time>
      </trkpt>
      <trkpt lat="46.91411" lon="5.78319">
        <ele>554.8</ele>
        <time>2020-12-26T12:33:40Z</time>
      </trkpt>
      <trkpt lat="46.91414" lon="5.78323">
        <ele>555.2</ele>
        <time>2020-12-26T12:33:41Z</time>
      </trkpt>
      <trkpt lat="46.91416" lon="5.78328">
        <ele>555.4</ele>
        <time>2020-12-26T12:33:42Z</time>
      </trkpt>
      <trkpt lat="46.91419" lon="5.78333">
        <ele>555.8</ele>
        <time>2020-12-26T12:33:43Z</time>
      </trkpt>
      <trkpt lat="46.91421" lon="5.78338">
        <ele>556</ele>
        <time>2020-12-26T12:33:44Z</time>
      </trkpt>
      <trkpt lat="46.91423" lon="5.78343">
        <ele>556.2</ele>
        <time>2020-12-26T12:33:45Z</time>
      </trkpt>
      <trkpt lat="46.91425" lon="5.78348">
        <ele>556.4</ele>
        <time>2020-12-26T12:33:46Z</time>
      </trkpt>
      <trkpt lat="46.91426" lon="5.78352">
        <ele>556.8</ele>
        <time>2020-12-26T12:33:47Z</time>
      </trkpt>
      <trkpt lat="46.91427" lon="5.78356">
        <ele>557</ele>
        <time>2020-12-26T12:33:48Z</time>
      </trkpt>
      <trkpt lat="46.91429" lon="5.7836">
        <ele>557.2</ele>
        <time>2020-12-26T12:33:49Z</time>
      </trkpt>
      <trkpt lat="46.9143" lon="5.78363">
        <ele>557.6</ele>
        <time>2020-12-26T12:33:50Z</time>
      </trkpt>
      <trkpt lat="46.91432" lon="5.78367">
        <ele>557.6</ele>
        <time>2020-12-26T12:33:51Z</time>
      </trkpt>
      <trkpt lat="46.91433" lon="5.7837">
        <ele>558</ele>
        <time>2020-12-26T12:33:52Z</time>
      </trkpt>
      <trkpt lat="46.91434" lon="5.78374">
        <ele>558.2</ele>
        <time>2020-12-26T12:33:53Z</time>
      </trkpt>
      <trkpt lat="46.91435" lon="5.78378">
        <ele>558.4</ele>
        <time>2020-12-26T12:33:54Z</time>
      </trkpt>
      <trkpt lat="46.91436" lon="5.78381">
        <ele>558.8</ele>
        <time>2020-12-26T12:33:55Z</time>
      </trkpt>
      <trkpt lat="46.91437" lon="5.78385">
        <ele>559</ele>
        <time>2020-12-26T12:33:56Z</time>
      </trkpt>
      <trkpt lat="46.91438" lon="5.78389">
        <ele>559.2</ele>
        <time>2020-12-26T12:33:57Z</time>
      </trkpt>
      <trkpt lat="46.91439" lon="5.78392">
        <ele>559.6</ele>
        <time>2020-12-26T12:33:58Z</time>
      </trkpt>
      <trkpt lat="46.9144" lon="5.78396">
        <ele>559.8</ele>
        <time>2020-12-26T12:33:59Z</time>
      </trkpt>
      <trkpt lat="46.91441" lon="5.78399">
        <ele>560</ele>
        <time>2020-12-26T12:34:00Z</time>
      </trkpt>
      <trkpt lat="46.91441" lon="5.78403">
        <ele>560</ele>
        <time>2020-12-26T12:34:01Z</time>
      </trkpt>
      <trkpt lat="46.91442" lon="5.78407">
        <ele>560.4</ele>
        <time>2020-12-26T12:34:02Z</time>
      </trkpt>
      <trkpt lat="46.91443" lon="5.78411">
        <ele>560.4</ele>
        <time>2020-12-26T12:34:03Z</time>
      </trkpt>
      <trkpt lat="46.91443" lon="5.78415">
        <ele>560.8</ele>
        <time>2020-12-26T12:34:04Z</time>
      </trkpt>
      <trkpt lat="46.91444" lon="5.78418">
        <ele>561</ele>
        <time>2020-12-26T12:34:05Z</time>
      </trkpt>
      <trkpt lat="46.91444" lon="5.78422">
        <ele>561</ele>
        <time>2020-12-26T12:34:06Z</time>
      </trkpt>
      <trkpt lat="46.91445" lon="5.78425">
        <ele>561.4</ele>
        <time>2020-12-26T12:34:07Z</time>
      </trkpt>
      <trkpt lat="46.91446" lon="5.78429">
        <ele>561.4</ele>
        <time>2020-12-26T12:34:08Z</time>
      </trkpt>
      <trkpt lat="46.91446" lon="5.78432">
        <ele>561.8</ele>
        <time>2020-12-26T12:34:09Z</time>
      </trkpt>
      <trkpt lat="46.91447" lon="5.78436">
        <ele>562</ele>
        <time>2020-12-26T12:34:10Z</time>
      </trkpt>
      <trkpt lat="46.91448" lon="5.78439">
        <ele>562.2</ele>
        <time>2020-12-26T12:34:11Z</time>
      </trkpt>
      <trkpt lat="46.91448" lon="5.78442">
        <ele>562.2</ele>
        <time>2020-12-26T12:34:12Z</time>
      </trkpt>
      <trkpt lat="46.91449" lon="5.78446">
        <ele>562.6</ele>
        <time>2020-12-26T12:34:13Z</time>
      </trkpt>
      <trkpt lat="46.91449" lon="5.78449">
        <ele>563</ele>
        <time>2020-12-26T12:34:14Z</time>
      </trkpt>
      <trkpt lat="46.9145" lon="5.78452">
        <ele>563.2</ele>
        <time>2020-12-26T12:34:15Z</time>
      </trkpt>
      <trkpt lat="46.9145" lon="5.78455">
        <ele>563.4</ele>
        <time>2020-12-26T12:34:16Z</time>
      </trkpt>
      <trkpt lat="46.91451" lon="5.78458">
        <ele>563.8</ele>
        <time>2020-12-26T12:34:17Z</time>
      </trkpt>
      <trkpt lat="46.91452" lon="5.78461">
        <ele>564</ele>
        <time>2020-12-26T12:34:18Z</time>
      </trkpt>
      <trkpt lat="46.91453" lon="5.78464">
        <ele>564.2</ele>
        <time>2020-12-26T12:34:19Z</time>
      </trkpt>
      <trkpt lat="46.91453" lon="5.78468">
        <ele>564.6</ele>
        <time>2020-12-26T12:34:20Z</time>
      </trkpt>
      <trkpt lat="46.91453" lon="5.78471">
        <ele>565</ele>
        <time>2020-12-26T12:34:21Z</time>
      </trkpt>
      <trkpt lat="46.91454" lon="5.78475">
        <ele>565.2</ele>
        <time>2020-12-26T12:34:22Z</time>
      </trkpt>
      <trkpt lat="46.91454" lon="5.78478">
        <ele>565.4</ele>
        <time>2020-12-26T12:34:23Z</time>
      </trkpt>
      <trkpt lat="46.91455" lon="5.78481">
        <ele>565.8</ele>
        <time>2020-12-26T12:34:24Z</time>
      </trkpt>
      <trkpt lat="46.91455" lon="5.78484">
        <ele>566</ele>
        <time>2020-12-26T12:34:25Z</time>
      </trkpt>
      <trkpt lat="46.91456" lon="5.78488">
        <ele>566.4</ele>
        <time>2020-12-26T12:34:26Z</time>
      </trkpt>
      <trkpt lat="46.91456" lon="5.78491">
        <ele>566.6</ele>
        <time>2020-12-26T12:34:27Z</time>
      </trkpt>
      <trkpt lat="46.91457" lon="5.78494">
        <ele>567</ele>
        <time>2020-12-26T12:34:28Z</time>
      </trkpt>
      <trkpt lat="46.91458" lon="5.78497">
        <ele>567.2</ele>
        <time>2020-12-26T12:34:29Z</time>
      </trkpt>
      <trkpt lat="46.91458" lon="5.785">
        <ele>567.4</ele>
        <time>2020-12-26T12:34:30Z</time>
      </trkpt>
      <trkpt lat="46.91459" lon="5.78503">
        <ele>567.8</ele>
        <time>2020-12-26T12:34:31Z</time>
      </trkpt>
      <trkpt lat="46.9146" lon="5.78506">
        <ele>568</ele>
        <time>2020-12-26T12:34:32Z</time>
      </trkpt>
      <trkpt lat="46.91462" lon="5.78509">
        <ele>568.4</ele>
        <time>2020-12-26T12:34:33Z</time>
      </trkpt>
      <trkpt lat="46.91464" lon="5.78512">
        <ele>568.8</ele>
        <time>2020-12-26T12:34:34Z</time>
      </trkpt>
      <trkpt lat="46.91465" lon="5.78515">
        <ele>569.2</ele>
        <time>2020-12-26T12:34:35Z</time>
      </trkpt>
      <trkpt lat="46.91467" lon="5.78518">
        <ele>569.4</ele>
        <time>2020-12-26T12:34:36Z</time>
      </trkpt>
      <trkpt lat="46.91469" lon="5.78519">
        <ele>569.8</ele>
        <time>2020-12-26T12:34:37Z</time>
      </trkpt>
      <trkpt lat="46.91472" lon="5.78521">
        <ele>570</ele>
        <time>2020-12-26T12:34:38Z</time>
      </trkpt>
      <trkpt lat="46.91474" lon="5.78521">
        <ele>570.2</ele>
        <time>2020-12-26T12:34:39Z</time>
      </trkpt>
      <trkpt lat="46.91477" lon="5.78521">
        <ele>570.2</ele>
        <time>2020-12-26T12:34:40Z</time>
      </trkpt>
      <trkpt lat="46.9148" lon="5.78521">
        <ele>570.6</ele>
        <time>2020-12-26T12:34:41Z</time>
      </trkpt>
      <trkpt lat="46.91483" lon="5.78521">
        <ele>570.8</ele>
        <time>2020-12-26T12:34:42Z</time>
      </trkpt>
      <trkpt lat="46.91485" lon="5.78521">
        <ele>571.2</ele>
        <time>2020-12-26T12:34:43Z</time>
      </trkpt>
      <trkpt lat="46.91487" lon="5.78521">
        <ele>571.4</ele>
        <time>2020-12-26T12:34:44Z</time>
      </trkpt>
      <trkpt lat="46.91489" lon="5.78522">
        <ele>571.6</ele>
        <time>2020-12-26T12:34:45Z</time>
      </trkpt>
      <trkpt lat="46.91491" lon="5.78522">
        <ele>571.8</ele>
        <time>2020-12-26T12:34:46Z</time>
      </trkpt>
      <trkpt lat="46.91493" lon="5.78522">
        <ele>571.8</ele>
        <time>2020-12-26T12:34:47Z</time>
      </trkpt>
      <trkpt lat="46.91495" lon="5.78522">
        <ele>572.4</ele>
        <time>2020-12-26T12:34:48Z</time>
      </trkpt>
      <trkpt lat="46.91498" lon="5.78521">
        <ele>572.6</ele>
        <time>2020-12-26T12:34:49Z</time>
      </trkpt>
      <trkpt lat="46.91501" lon="5.7852">
        <ele>572.8</ele>
        <time>2020-12-26T12:34:50Z</time>
      </trkpt>
      <trkpt lat="46.91503" lon="5.78517">
        <ele>573</ele>
        <time>2020-12-26T12:34:51Z</time>
      </trkpt>
      <trkpt lat="46.91505" lon="5.78514">
        <ele>573</ele>
        <time>2020-12-26T12:34:52Z</time>
      </trkpt>
      <trkpt lat="46.91507" lon="5.78511">
        <ele>573.4</ele>
        <time>2020-12-26T12:34:53Z</time>
      </trkpt>
      <trkpt lat="46.91508" lon="5.78507">
        <ele>573.4</ele>
        <time>2020-12-26T12:34:54Z</time>
      </trkpt>
      <trkpt lat="46.91508" lon="5.78503">
        <ele>573.6</ele>
        <time>2020-12-26T12:34:55Z</time>
      </trkpt>
      <trkpt lat="46.91508" lon="5.78498">
        <ele>573.6</ele>
        <time>2020-12-26T12:34:56Z</time>
      </trkpt>
      <trkpt lat="46.91508" lon="5.78493">
        <ele>573.6</ele>
        <time>2020-12-26T12:34:57Z</time>
      </trkpt>
      <trkpt lat="46.91507" lon="5.78488">
        <ele>573.6</ele>
        <time>2020-12-26T12:34:58Z</time>
      </trkpt>
      <trkpt lat="46.91506" lon="5.78483">
        <ele>573.6</ele>
        <time>2020-12-26T12:34:59Z</time>
      </trkpt>
      <trkpt lat="46.91505" lon="5.78476">
        <ele>573.6</ele>
        <time>2020-12-26T12:35:00Z</time>
      </trkpt>
      <trkpt lat="46.91503" lon="5.7847">
        <ele>573.2</ele>
        <time>2020-12-26T12:35:01Z</time>
      </trkpt>
      <trkpt lat="46.91502" lon="5.78462">
        <ele>573</ele>
        <time>2020-12-26T12:35:02Z</time>
      </trkpt>
      <trkpt lat="46.91501" lon="5.78455">
        <ele>572.8</ele>
        <time>2020-12-26T12:35:03Z</time>
      </trkpt>
      <trkpt lat="46.91501" lon="5.78447">
        <ele>572.6</ele>
        <time>2020-12-26T12:35:04Z</time>
      </trkpt>
      <trkpt lat="46.91501" lon="5.78439">
        <ele>572.6</ele>
        <time>2020-12-26T12:35:05Z</time>
      </trkpt>
      <trkpt lat="46.91501" lon="5.78432">
        <ele>572.4</ele>
        <time>2020-12-26T12:35:06Z</time>
      </trkpt>
      <trkpt lat="46.91502" lon="5.78424">
        <ele>572.4</ele>
        <time>2020-12-26T12:35:07Z</time>
      </trkpt>
      <trkpt lat="46.91504" lon="5.78416">
        <ele>572.4</ele>
        <time>2020-12-26T12:35:08Z</time>
      </trkpt>
      <trkpt lat="46.91506" lon="5.78409">
        <ele>572.4</ele>
        <time>2020-12-26T12:35:09Z</time>
      </trkpt>
      <trkpt lat="46.91508" lon="5.78402">
        <ele>572.4</ele>
        <time>2020-12-26T12:35:10Z</time>
      </trkpt>
      <trkpt lat="46.9151" lon="5.78395">
        <ele>572.6</ele>
        <time>2020-12-26T12:35:11Z</time>
      </trkpt>
      <trkpt lat="46.91512" lon="5.7839">
        <ele>572.6</ele>
        <time>2020-12-26T12:35:12Z</time>
      </trkpt>
      <trkpt lat="46.91514" lon="5.78384">
        <ele>572.8</ele>
        <time>2020-12-26T12:35:13Z</time>
      </trkpt>
      <trkpt lat="46.91516" lon="5.78379">
        <ele>572.8</ele>
        <time>2020-12-26T12:35:14Z</time>
      </trkpt>
      <trkpt lat="46.91519" lon="5.78373">
        <ele>573.2</ele>
        <time>2020-12-26T12:35:15Z</time>
      </trkpt>
      <trkpt lat="46.9152" lon="5.78369">
        <ele>573.4</ele>
        <time>2020-12-26T12:35:16Z</time>
      </trkpt>
      <trkpt lat="46.91522" lon="5.78364">
        <ele>573.4</ele>
        <time>2020-12-26T12:35:17Z</time>
      </trkpt>
      <trkpt lat="46.91524" lon="5.78359">
        <ele>573.6</ele>
        <time>2020-12-26T12:35:18Z</time>
      </trkpt>
      <trkpt lat="46.91526" lon="5.78354">
        <ele>573.6</ele>
        <time>2020-12-26T12:35:19Z</time>
      </trkpt>
      <trkpt lat="46.91528" lon="5.78349">
        <ele>573.6</ele>
        <time>2020-12-26T12:35:20Z</time>
      </trkpt>
      <trkpt lat="46.9153" lon="5.78343">
        <ele>574</ele>
        <time>2020-12-26T12:35:21Z</time>
      </trkpt>
      <trkpt lat="46.91532" lon="5.78339">
        <ele>574</ele>
        <time>2020-12-26T12:35:22Z</time>
      </trkpt>
      <trkpt lat="46.91534" lon="5.78334">
        <ele>574.4</ele>
        <time>2020-12-26T12:35:23Z</time>
      </trkpt>
      <trkpt lat="46.91536" lon="5.7833">
        <ele>574.6</ele>
        <time>2020-12-26T12:35:24Z</time>
      </trkpt>
      <trkpt lat="46.91538" lon="5.78326">
        <ele>575</ele>
        <time>2020-12-26T12:35:25Z</time>
      </trkpt>
      <trkpt lat="46.91539" lon="5.78322">
        <ele>575.2</ele>
        <time>2020-12-26T12:35:26Z</time>
      </trkpt>
      <trkpt lat="46.91541" lon="5.78318">
        <ele>575.2</ele>
        <time>2020-12-26T12:35:27Z</time>
      </trkpt>
      <trkpt lat="46.91543" lon="5.78314">
        <ele>575.4</ele>
        <time>2020-12-26T12:35:28Z</time>
      </trkpt>
      <trkpt lat="46.91545" lon="5.7831">
        <ele>575.4</ele>
        <time>2020-12-26T12:35:29Z</time>
      </trkpt>
      <trkpt lat="46.91546" lon="5.78306">
        <ele>575.8</ele>
        <time>2020-12-26T12:35:30Z</time>
      </trkpt>
      <trkpt lat="46.91548" lon="5.78301">
        <ele>576</ele>
        <time>2020-12-26T12:35:31Z</time>
      </trkpt>
      <trkpt lat="46.91549" lon="5.78297">
        <ele>576</ele>
        <time>2020-12-26T12:35:32Z</time>
      </trkpt>
      <trkpt lat="46.91551" lon="5.78293">
        <ele>576.4</ele>
        <time>2020-12-26T12:35:33Z</time>
      </trkpt>
      <trkpt lat="46.91552" lon="5.78289">
        <ele>576.4</ele>
        <time>2020-12-26T12:35:34Z</time>
      </trkpt>
      <trkpt lat="46.91554" lon="5.78284">
        <ele>576.8</ele>
        <time>2020-12-26T12:35:35Z</time>
      </trkpt>
      <trkpt lat="46.91555" lon="5.78279">
        <ele>576.8</ele>
        <time>2020-12-26T12:35:36Z</time>
      </trkpt>
      <trkpt lat="46.91557" lon="5.78275">
        <ele>577.2</ele>
        <time>2020-12-26T12:35:37Z</time>
      </trkpt>
      <trkpt lat="46.91559" lon="5.7827">
        <ele>577.2</ele>
        <time>2020-12-26T12:35:38Z</time>
      </trkpt>
      <trkpt lat="46.91561" lon="5.78266">
        <ele>577.6</ele>
        <time>2020-12-26T12:35:39Z</time>
      </trkpt>
      <trkpt lat="46.91562" lon="5.78261">
        <ele>577.8</ele>
        <time>2020-12-26T12:35:40Z</time>
      </trkpt>
      <trkpt lat="46.91564" lon="5.78257">
        <ele>578</ele>
        <time>2020-12-26T12:35:41Z</time>
      </trkpt>
      <trkpt lat="46.91566" lon="5.78253">
        <ele>578</ele>
        <time>2020-12-26T12:35:42Z</time>
      </trkpt>
      <trkpt lat="46.91568" lon="5.78248">
        <ele>578.2</ele>
        <time>2020-12-26T12:35:43Z</time>
      </trkpt>
      <trkpt lat="46.91571" lon="5.78244">
        <ele>578.2</ele>
        <time>2020-12-26T12:35:44Z</time>
      </trkpt>
      <trkpt lat="46.91573" lon="5.7824">
        <ele>578.6</ele>
        <time>2020-12-26T12:35:45Z</time>
      </trkpt>
      <trkpt lat="46.91576" lon="5.78236">
        <ele>578.6</ele>
        <time>2020-12-26T12:35:46Z</time>
      </trkpt>
      <trkpt lat="46.91579" lon="5.78232">
        <ele>578.8</ele>
        <time>2020-12-26T12:35:47Z</time>
      </trkpt>
      <trkpt lat="46.91582" lon="5.78228">
        <ele>578.8</ele>
        <time>2020-12-26T12:35:48Z</time>
      </trkpt>
      <trkpt lat="46.91586" lon="5.78224">
        <ele>578.8</ele>
        <time>2020-12-26T12:35:49Z</time>
      </trkpt>
      <trkpt lat="46.9159" lon="5.78221">
        <ele>578.8</ele>
        <time>2020-12-26T12:35:50Z</time>
      </trkpt>
      <trkpt lat="46.91594" lon="5.78217">
        <ele>578.8</ele>
        <time>2020-12-26T12:35:51Z</time>
      </trkpt>
      <trkpt lat="46.91598" lon="5.78214">
        <ele>578.6</ele>
        <time>2020-12-26T12:35:52Z</time>
      </trkpt>
      <trkpt lat="46.91603" lon="5.7821">
        <ele>578.6</ele>
        <time>2020-12-26T12:35:53Z</time>
      </trkpt>
      <trkpt lat="46.91608" lon="5.78207">
        <ele>578.2</ele>
        <time>2020-12-26T12:35:54Z</time>
      </trkpt>
      <trkpt lat="46.91614" lon="5.78204">
        <ele>578</ele>
        <time>2020-12-26T12:35:55Z</time>
      </trkpt>
      <trkpt lat="46.91619" lon="5.78202">
        <ele>577.8</ele>
        <time>2020-12-26T12:35:56Z</time>
      </trkpt>
      <trkpt lat="46.91625" lon="5.782">
        <ele>577.8</ele>
        <time>2020-12-26T12:35:57Z</time>
      </trkpt>
      <trkpt lat="46.9163" lon="5.78198">
        <ele>577.2</ele>
        <time>2020-12-26T12:35:58Z</time>
      </trkpt>
      <trkpt lat="46.91636" lon="5.78196">
        <ele>577</ele>
        <time>2020-12-26T12:35:59Z</time>
      </trkpt>
      <trkpt lat="46.91643" lon="5.78194">
        <ele>576.6</ele>
        <time>2020-12-26T12:36:00Z</time>
      </trkpt>
      <trkpt lat="46.91649" lon="5.78192">
        <ele>576.4</ele>
        <time>2020-12-26T12:36:01Z</time>
      </trkpt>
      <trkpt lat="46.91656" lon="5.78191">
        <ele>576.2</ele>
        <time>2020-12-26T12:36:02Z</time>
      </trkpt>
      <trkpt lat="46.91663" lon="5.78189">
        <ele>575.8</ele>
        <time>2020-12-26T12:36:03Z</time>
      </trkpt>
      <trkpt lat="46.9167" lon="5.78187">
        <ele>575.4</ele>
        <time>2020-12-26T12:36:04Z</time>
      </trkpt>
      <trkpt lat="46.91677" lon="5.78185">
        <ele>575</ele>
        <time>2020-12-26T12:36:05Z</time>
      </trkpt>
      <trkpt lat="46.91685" lon="5.78183">
        <ele>574.6</ele>
        <time>2020-12-26T12:36:06Z</time>
      </trkpt>
      <trkpt lat="46.91692" lon="5.78181">
        <ele>574</ele>
        <time>2020-12-26T12:36:07Z</time>
      </trkpt>
      <trkpt lat="46.917" lon="5.78179">
        <ele>573.6</ele>
        <time>2020-12-26T12:36:08Z</time>
      </trkpt>
      <trkpt lat="46.91709" lon="5.78177">
        <ele>573.2</ele>
        <time>2020-12-26T12:36:09Z</time>
      </trkpt>
      <trkpt lat="46.91717" lon="5.78174">
        <ele>572.8</ele>
        <time>2020-12-26T12:36:10Z</time>
      </trkpt>
      <trkpt lat="46.91725" lon="5.78172">
        <ele>572.4</ele>
        <time>2020-12-26T12:36:11Z</time>
      </trkpt>
      <trkpt lat="46.91734" lon="5.7817">
        <ele>572</ele>
        <time>2020-12-26T12:36:12Z</time>
      </trkpt>
      <trkpt lat="46.91743" lon="5.78168">
        <ele>571.6</ele>
        <time>2020-12-26T12:36:13Z</time>
      </trkpt>
      <trkpt lat="46.91751" lon="5.78165">
        <ele>571.2</ele>
        <time>2020-12-26T12:36:14Z</time>
      </trkpt>
      <trkpt lat="46.9176" lon="5.78163">
        <ele>570.8</ele>
        <time>2020-12-26T12:36:15Z</time>
      </trkpt>
      <trkpt lat="46.91768" lon="5.78161">
        <ele>570.4</ele>
        <time>2020-12-26T12:36:16Z</time>
      </trkpt>
      <trkpt lat="46.91777" lon="5.78159">
        <ele>570</ele>
        <time>2020-12-26T12:36:17Z</time>
      </trkpt>
      <trkpt lat="46.91785" lon="5.78157">
        <ele>569.6</ele>
        <time>2020-12-26T12:36:18Z</time>
      </trkpt>
      <trkpt lat="46.91794" lon="5.78155">
        <ele>569.4</ele>
        <time>2020-12-26T12:36:19Z</time>
      </trkpt>
      <trkpt lat="46.91803" lon="5.78154">
        <ele>568.8</ele>
        <time>2020-12-26T12:36:20Z</time>
      </trkpt>
      <trkpt lat="46.91812" lon="5.78152">
        <ele>568.4</ele>
        <time>2020-12-26T12:36:21Z</time>
      </trkpt>
      <trkpt lat="46.91821" lon="5.78151">
        <ele>567.8</ele>
        <time>2020-12-26T12:36:22Z</time>
      </trkpt>
      <trkpt lat="46.9183" lon="5.78151">
        <ele>567.4</ele>
        <time>2020-12-26T12:36:23Z</time>
      </trkpt>
      <trkpt lat="46.91839" lon="5.7815">
        <ele>567</ele>
        <time>2020-12-26T12:36:24Z</time>
      </trkpt>
      <trkpt lat="46.91848" lon="5.7815">
        <ele>566.4</ele>
        <time>2020-12-26T12:36:25Z</time>
      </trkpt>
      <trkpt lat="46.91858" lon="5.78151">
        <ele>566</ele>
        <time>2020-12-26T12:36:26Z</time>
      </trkpt>
      <trkpt lat="46.91867" lon="5.78151">
        <ele>565.4</ele>
        <time>2020-12-26T12:36:27Z</time>
      </trkpt>
      <trkpt lat="46.91876" lon="5.78151">
        <ele>565</ele>
        <time>2020-12-26T12:36:28Z</time>
      </trkpt>
      <trkpt lat="46.91885" lon="5.78152">
        <ele>564.4</ele>
        <time>2020-12-26T12:36:29Z</time>
      </trkpt>
      <trkpt lat="46.91894" lon="5.78152">
        <ele>563.8</ele>
        <time>2020-12-26T12:36:30Z</time>
      </trkpt>
      <trkpt lat="46.91904" lon="5.78153">
        <ele>563.4</ele>
        <time>2020-12-26T12:36:31Z</time>
      </trkpt>
      <trkpt lat="46.91913" lon="5.78154">
        <ele>562.8</ele>
        <time>2020-12-26T12:36:32Z</time>
      </trkpt>
      <trkpt lat="46.91922" lon="5.78156">
        <ele>562.2</ele>
        <time>2020-12-26T12:36:33Z</time>
      </trkpt>
      <trkpt lat="46.91932" lon="5.78159">
        <ele>561.6</ele>
        <time>2020-12-26T12:36:34Z</time>
      </trkpt>
      <trkpt lat="46.91941" lon="5.78161">
        <ele>561</ele>
        <time>2020-12-26T12:36:35Z</time>
      </trkpt>
      <trkpt lat="46.91951" lon="5.78163">
        <ele>560.4</ele>
        <time>2020-12-26T12:36:36Z</time>
      </trkpt>
      <trkpt lat="46.91962" lon="5.78167">
        <ele>559.8</ele>
        <time>2020-12-26T12:36:37Z</time>
      </trkpt>
      <trkpt lat="46.91971" lon="5.7817">
        <ele>559.2</ele>
        <time>2020-12-26T12:36:38Z</time>
      </trkpt>
      <trkpt lat="46.91982" lon="5.78174">
        <ele>558.8</ele>
        <time>2020-12-26T12:36:39Z</time>
      </trkpt>
      <trkpt lat="46.91992" lon="5.78178">
        <ele>558.2</ele>
        <time>2020-12-26T12:36:40Z</time>
      </trkpt>
      <trkpt lat="46.92002" lon="5.78181">
        <ele>557.4</ele>
        <time>2020-12-26T12:36:41Z</time>
      </trkpt>
      <trkpt lat="46.92012" lon="5.78185">
        <ele>556.8</ele>
        <time>2020-12-26T12:36:42Z</time>
      </trkpt>
      <trkpt lat="46.92022" lon="5.78189">
        <ele>556.2</ele>
        <time>2020-12-26T12:36:43Z</time>
      </trkpt>
      <trkpt lat="46.92032" lon="5.78192">
        <ele>555.6</ele>
        <time>2020-12-26T12:36:44Z</time>
      </trkpt>
      <trkpt lat="46.92041" lon="5.78194">
        <ele>554.8</ele>
        <time>2020-12-26T12:36:45Z</time>
      </trkpt>
      <trkpt lat="46.9205" lon="5.78198">
        <ele>554.2</ele>
        <time>2020-12-26T12:36:46Z</time>
      </trkpt>
      <trkpt lat="46.92059" lon="5.78203">
        <ele>553.6</ele>
        <time>2020-12-26T12:36:47Z</time>
      </trkpt>
      <trkpt lat="46.92067" lon="5.78209">
        <ele>553</ele>
        <time>2020-12-26T12:36:48Z</time>
      </trkpt>
      <trkpt lat="46.92074" lon="5.78216">
        <ele>552.4</ele>
        <time>2020-12-26T12:36:49Z</time>
      </trkpt>
      <trkpt lat="46.92083" lon="5.78223">
        <ele>552</ele>
        <time>2020-12-26T12:36:50Z</time>
      </trkpt>
      <trkpt lat="46.92092" lon="5.78231">
        <ele>551.6</ele>
        <time>2020-12-26T12:36:51Z</time>
      </trkpt>
      <trkpt lat="46.921" lon="5.78238">
        <ele>551.2</ele>
        <time>2020-12-26T12:36:52Z</time>
      </trkpt>
      <trkpt lat="46.92109" lon="5.78246">
        <ele>551</ele>
        <time>2020-12-26T12:36:53Z</time>
      </trkpt>
      <trkpt lat="46.92117" lon="5.78253">
        <ele>551</ele>
        <time>2020-12-26T12:36:54Z</time>
      </trkpt>
      <trkpt lat="46.92126" lon="5.7826">
        <ele>551</ele>
        <time>2020-12-26T12:36:55Z</time>
      </trkpt>
      <trkpt lat="46.92133" lon="5.78265">
        <ele>551</ele>
        <time>2020-12-26T12:36:56Z</time>
      </trkpt>
      <trkpt lat="46.9214" lon="5.78267">
        <ele>551.2</ele>
        <time>2020-12-26T12:36:57Z</time>
      </trkpt>
      <trkpt lat="46.92147" lon="5.78269">
        <ele>551.2</ele>
        <time>2020-12-26T12:36:58Z</time>
      </trkpt>
      <trkpt lat="46.92154" lon="5.78269">
        <ele>551.6</ele>
        <time>2020-12-26T12:36:59Z</time>
      </trkpt>
      <trkpt lat="46.9216" lon="5.78267">
        <ele>551.6</ele>
        <time>2020-12-26T12:37:00Z</time>
      </trkpt>
      <trkpt lat="46.92167" lon="5.78263">
        <ele>551.8</ele>
        <time>2020-12-26T12:37:01Z</time>
      </trkpt>
      <trkpt lat="46.92174" lon="5.78259">
        <ele>552.2</ele>
        <time>2020-12-26T12:37:02Z</time>
      </trkpt>
      <trkpt lat="46.9218" lon="5.78255">
        <ele>552.6</ele>
        <time>2020-12-26T12:37:03Z</time>
      </trkpt>
      <trkpt lat="46.92186" lon="5.78251">
        <ele>553</ele>
        <time>2020-12-26T12:37:04Z</time>
      </trkpt>
      <trkpt lat="46.92192" lon="5.78248">
        <ele>553.4</ele>
        <time>2020-12-26T12:37:05Z</time>
      </trkpt>
      <trkpt lat="46.92198" lon="5.78245">
        <ele>553.6</ele>
        <time>2020-12-26T12:37:06Z</time>
      </trkpt>
      <trkpt lat="46.92203" lon="5.78243">
        <ele>554.2</ele>
        <time>2020-12-26T12:37:07Z</time>
      </trkpt>
      <trkpt lat="46.92209" lon="5.7824">
        <ele>554.4</ele>
        <time>2020-12-26T12:37:08Z</time>
      </trkpt>
      <trkpt lat="46.92214" lon="5.78236">
        <ele>554.8</ele>
        <time>2020-12-26T12:37:09Z</time>
      </trkpt>
      <trkpt lat="46.92218" lon="5.78232">
        <ele>555</ele>
        <time>2020-12-26T12:37:10Z</time>
      </trkpt>
      <trkpt lat="46.92223" lon="5.78228">
        <ele>555.4</ele>
        <time>2020-12-26T12:37:11Z</time>
      </trkpt>
      <trkpt lat="46.92227" lon="5.78223">
        <ele>555.8</ele>
        <time>2020-12-26T12:37:12Z</time>
      </trkpt>
      <trkpt lat="46.92231" lon="5.78218">
        <ele>556</ele>
        <time>2020-12-26T12:37:13Z</time>
      </trkpt>
      <trkpt lat="46.92236" lon="5.78213">
        <ele>556.2</ele>
        <time>2020-12-26T12:37:14Z</time>
      </trkpt>
      <trkpt lat="46.9224" lon="5.78208">
        <ele>556.2</ele>
        <time>2020-12-26T12:37:15Z</time>
      </trkpt>
      <trkpt lat="46.92244" lon="5.78203">
        <ele>556.6</ele>
        <time>2020-12-26T12:37:16Z</time>
      </trkpt>
      <trkpt lat="46.92249" lon="5.78197">
        <ele>556.6</ele>
        <time>2020-12-26T12:37:17Z</time>
      </trkpt>
      <trkpt lat="46.92253" lon="5.78191">
        <ele>556.8</ele>
        <time>2020-12-26T12:37:18Z</time>
      </trkpt>
      <trkpt lat="46.92257" lon="5.78186">
        <ele>556.8</ele>
        <time>2020-12-26T12:37:19Z</time>
      </trkpt>
      <trkpt lat="46.92262" lon="5.78181">
        <ele>556.8</ele>
        <time>2020-12-26T12:37:20Z</time>
      </trkpt>
      <trkpt lat="46.92267" lon="5.78177">
        <ele>556.8</ele>
        <time>2020-12-26T12:37:21Z</time>
      </trkpt>
      <trkpt lat="46.92272" lon="5.78172">
        <ele>556.8</ele>
        <time>2020-12-26T12:37:22Z</time>
      </trkpt>
      <trkpt lat="46.92278" lon="5.78168">
        <ele>556.8</ele>
        <time>2020-12-26T12:37:23Z</time>
      </trkpt>
      <trkpt lat="46.92283" lon="5.78163">
        <ele>556.8</ele>
        <time>2020-12-26T12:37:24Z</time>
      </trkpt>
      <trkpt lat="46.92288" lon="5.78157">
        <ele>556.6</ele>
        <time>2020-12-26T12:37:25Z</time>
      </trkpt>
      <trkpt lat="46.92293" lon="5.78151">
        <ele>556.6</ele>
        <time>2020-12-26T12:37:26Z</time>
      </trkpt>
      <trkpt lat="46.92297" lon="5.78143">
        <ele>556.6</ele>
        <time>2020-12-26T12:37:27Z</time>
      </trkpt>
      <trkpt lat="46.92301" lon="5.78135">
        <ele>556.2</ele>
        <time>2020-12-26T12:37:28Z</time>
      </trkpt>
      <trkpt lat="46.92305" lon="5.78127">
        <ele>556.2</ele>
        <time>2020-12-26T12:37:29Z</time>
      </trkpt>
      <trkpt lat="46.92309" lon="5.78119">
        <ele>555.8</ele>
        <time>2020-12-26T12:37:30Z</time>
      </trkpt>
      <trkpt lat="46.92314" lon="5.78109">
        <ele>555.6</ele>
        <time>2020-12-26T12:37:31Z</time>
      </trkpt>
      <trkpt lat="46.92318" lon="5.781">
        <ele>555.4</ele>
        <time>2020-12-26T12:37:32Z</time>
      </trkpt>
      <trkpt lat="46.92323" lon="5.7809">
        <ele>555.2</ele>
        <time>2020-12-26T12:37:33Z</time>
      </trkpt>
      <trkpt lat="46.92328" lon="5.7808">
        <ele>555</ele>
        <time>2020-12-26T12:37:34Z</time>
      </trkpt>
      <trkpt lat="46.92333" lon="5.7807">
        <ele>554.6</ele>
        <time>2020-12-26T12:37:35Z</time>
      </trkpt>
      <trkpt lat="46.92338" lon="5.78061">
        <ele>554.2</ele>
        <time>2020-12-26T12:37:36Z</time>
      </trkpt>
      <trkpt lat="46.92343" lon="5.78051">
        <ele>553.8</ele>
        <time>2020-12-26T12:37:37Z</time>
      </trkpt>
      <trkpt lat="46.92348" lon="5.78042">
        <ele>553.4</ele>
        <time>2020-12-26T12:37:38Z</time>
      </trkpt>
      <trkpt lat="46.92353" lon="5.78032">
        <ele>553.4</ele>
        <time>2020-12-26T12:37:39Z</time>
      </trkpt>
      <trkpt lat="46.92357" lon="5.78024">
        <ele>553.2</ele>
        <time>2020-12-26T12:37:40Z</time>
      </trkpt>
      <trkpt lat="46.92362" lon="5.78016">
        <ele>553.2</ele>
        <time>2020-12-26T12:37:41Z</time>
      </trkpt>
      <trkpt lat="46.92366" lon="5.7801">
        <ele>553</ele>
        <time>2020-12-26T12:37:42Z</time>
      </trkpt>
      <trkpt lat="46.9237" lon="5.78006">
        <ele>553</ele>
        <time>2020-12-26T12:37:43Z</time>
      </trkpt>
      <trkpt lat="46.92374" lon="5.78007">
        <ele>553</ele>
        <time>2020-12-26T12:37:44Z</time>
      </trkpt>
      <trkpt lat="46.92378" lon="5.78012">
        <ele>553</ele>
        <time>2020-12-26T12:37:45Z</time>
      </trkpt>
      <trkpt lat="46.92382" lon="5.78018">
        <ele>553.2</ele>
        <time>2020-12-26T12:37:46Z</time>
      </trkpt>
      <trkpt lat="46.92385" lon="5.78024">
        <ele>553.2</ele>
        <time>2020-12-26T12:37:47Z</time>
      </trkpt>
      <trkpt lat="46.92388" lon="5.7803">
        <ele>553.2</ele>
        <time>2020-12-26T12:37:48Z</time>
      </trkpt>
      <trkpt lat="46.92391" lon="5.78036">
        <ele>553.6</ele>
        <time>2020-12-26T12:37:49Z</time>
      </trkpt>
      <trkpt lat="46.92394" lon="5.78042">
        <ele>553.6</ele>
        <time>2020-12-26T12:37:50Z</time>
      </trkpt>
      <trkpt lat="46.92398" lon="5.78048">
        <ele>553.8</ele>
        <time>2020-12-26T12:37:51Z</time>
      </trkpt>
      <trkpt lat="46.92402" lon="5.78054">
        <ele>553.8</ele>
        <time>2020-12-26T12:37:52Z</time>
      </trkpt>
      <trkpt lat="46.92406" lon="5.7806">
        <ele>553.8</ele>
        <time>2020-12-26T12:37:53Z</time>
      </trkpt>
      <trkpt lat="46.92409" lon="5.78066">
        <ele>553.8</ele>
        <time>2020-12-26T12:37:54Z</time>
      </trkpt>
      <trkpt lat="46.92413" lon="5.78073">
        <ele>553.8</ele>
        <time>2020-12-26T12:37:55Z</time>
      </trkpt>
      <trkpt lat="46.92416" lon="5.7808">
        <ele>553.6</ele>
        <time>2020-12-26T12:37:56Z</time>
      </trkpt>
      <trkpt lat="46.9242" lon="5.78087">
        <ele>553.6</ele>
        <time>2020-12-26T12:37:57Z</time>
      </trkpt>
      <trkpt lat="46.92425" lon="5.78093">
        <ele>553.2</ele>
        <time>2020-12-26T12:37:58Z</time>
      </trkpt>
      <trkpt lat="46.92429" lon="5.781">
        <ele>553.2</ele>
        <time>2020-12-26T12:37:59Z</time>
      </trkpt>
      <trkpt lat="46.92434" lon="5.78107">
        <ele>553.2</ele>
        <time>2020-12-26T12:38:00Z</time>
      </trkpt>
      <trkpt lat="46.92439" lon="5.78114">
        <ele>553.2</ele>
        <time>2020-12-26T12:38:01Z</time>
      </trkpt>
      <trkpt lat="46.92444" lon="5.7812">
        <ele>553</ele>
        <time>2020-12-26T12:38:02Z</time>
      </trkpt>
      <trkpt lat="46.92449" lon="5.78125">
        <ele>553</ele>
        <time>2020-12-26T12:38:03Z</time>
      </trkpt>
      <trkpt lat="46.92455" lon="5.7813">
        <ele>552.6</ele>
        <time>2020-12-26T12:38:04Z</time>
      </trkpt>
      <trkpt lat="46.92461" lon="5.78134">
        <ele>552.6</ele>
        <time>2020-12-26T12:38:05Z</time>
      </trkpt>
      <trkpt lat="46.92468" lon="5.78137">
        <ele>552.6</ele>
        <time>2020-12-26T12:38:06Z</time>
      </trkpt>
      <trkpt lat="46.92474" lon="5.78141">
        <ele>552.6</ele>
        <time>2020-12-26T12:38:07Z</time>
      </trkpt>
      <trkpt lat="46.9248" lon="5.78144">
        <ele>553</ele>
        <time>2020-12-26T12:38:08Z</time>
      </trkpt>
      <trkpt lat="46.92486" lon="5.78147">
        <ele>553.4</ele>
        <time>2020-12-26T12:38:09Z</time>
      </trkpt>
      <trkpt lat="46.92491" lon="5.78149">
        <ele>553.6</ele>
        <time>2020-12-26T12:38:10Z</time>
      </trkpt>
      <trkpt lat="46.92496" lon="5.78151">
        <ele>554</ele>
        <time>2020-12-26T12:38:11Z</time>
      </trkpt>
      <trkpt lat="46.92501" lon="5.78154">
        <ele>554.4</ele>
        <time>2020-12-26T12:38:12Z</time>
      </trkpt>
      <trkpt lat="46.92506" lon="5.78156">
        <ele>554.8</ele>
        <time>2020-12-26T12:38:13Z</time>
      </trkpt>
      <trkpt lat="46.92512" lon="5.78159">
        <ele>555</ele>
        <time>2020-12-26T12:38:14Z</time>
      </trkpt>
      <trkpt lat="46.92516" lon="5.78162">
        <ele>555.4</ele>
        <time>2020-12-26T12:38:15Z</time>
      </trkpt>
      <trkpt lat="46.92521" lon="5.78165">
        <ele>555.6</ele>
        <time>2020-12-26T12:38:16Z</time>
      </trkpt>
      <trkpt lat="46.92526" lon="5.78168">
        <ele>555.8</ele>
        <time>2020-12-26T12:38:17Z</time>
      </trkpt>
      <trkpt lat="46.92531" lon="5.78171">
        <ele>555.8</ele>
        <time>2020-12-26T12:38:18Z</time>
      </trkpt>
      <trkpt lat="46.92536" lon="5.78173">
        <ele>556.2</ele>
        <time>2020-12-26T12:38:19Z</time>
      </trkpt>
      <trkpt lat="46.92541" lon="5.78176">
        <ele>556.4</ele>
        <time>2020-12-26T12:38:20Z</time>
      </trkpt>
      <trkpt lat="46.92545" lon="5.78178">
        <ele>556.6</ele>
        <time>2020-12-26T12:38:21Z</time>
      </trkpt>
      <trkpt lat="46.9255" lon="5.7818">
        <ele>557</ele>
        <time>2020-12-26T12:38:22Z</time>
      </trkpt>
      <trkpt lat="46.92555" lon="5.78181">
        <ele>557</ele>
        <time>2020-12-26T12:38:23Z</time>
      </trkpt>
      <trkpt lat="46.92561" lon="5.7818">
        <ele>557.2</ele>
        <time>2020-12-26T12:38:24Z</time>
      </trkpt>
      <trkpt lat="46.92566" lon="5.78179">
        <ele>557.4</ele>
        <time>2020-12-26T12:38:25Z</time>
      </trkpt>
      <trkpt lat="46.92571" lon="5.78176">
        <ele>557.6</ele>
        <time>2020-12-26T12:38:26Z</time>
      </trkpt>
      <trkpt lat="46.92575" lon="5.78173">
        <ele>558</ele>
        <time>2020-12-26T12:38:27Z</time>
      </trkpt>
      <trkpt lat="46.9258" lon="5.7817">
        <ele>558.2</ele>
        <time>2020-12-26T12:38:28Z</time>
      </trkpt>
      <trkpt lat="46.92584" lon="5.78166">
        <ele>558.2</ele>
        <time>2020-12-26T12:38:29Z</time>
      </trkpt>
      <trkpt lat="46.92588" lon="5.78161">
        <ele>558.6</ele>
        <time>2020-12-26T12:38:30Z</time>
      </trkpt>
      <trkpt lat="46.92592" lon="5.78157">
        <ele>558.6</ele>
        <time>2020-12-26T12:38:31Z</time>
      </trkpt>
      <trkpt lat="46.92595" lon="5.78153">
        <ele>559</ele>
        <time>2020-12-26T12:38:32Z</time>
      </trkpt>
      <trkpt lat="46.92599" lon="5.78149">
        <ele>559</ele>
        <time>2020-12-26T12:38:33Z</time>
      </trkpt>
      <trkpt lat="46.92602" lon="5.78146">
        <ele>559.2</ele>
        <time>2020-12-26T12:38:34Z</time>
      </trkpt>
      <trkpt lat="46.92606" lon="5.78144">
        <ele>559.2</ele>
        <time>2020-12-26T12:38:35Z</time>
      </trkpt>
      <trkpt lat="46.9261" lon="5.78144">
        <ele>559.2</ele>
        <time>2020-12-26T12:38:36Z</time>
      </trkpt>
      <trkpt lat="46.92614" lon="5.78146">
        <ele>559.2</ele>
        <time>2020-12-26T12:38:37Z</time>
      </trkpt>
      <trkpt lat="46.92617" lon="5.7815">
        <ele>559.2</ele>
        <time>2020-12-26T12:38:38Z</time>
      </trkpt>
      <trkpt lat="46.92621" lon="5.78154">
        <ele>559.4</ele>
        <time>2020-12-26T12:38:39Z</time>
      </trkpt>
      <trkpt lat="46.92624" lon="5.7816">
        <ele>559.4</ele>
        <time>2020-12-26T12:38:40Z</time>
      </trkpt>
      <trkpt lat="46.92627" lon="5.78166">
        <ele>559.4</ele>
        <time>2020-12-26T12:38:41Z</time>
      </trkpt>
      <trkpt lat="46.92629" lon="5.78172">
        <ele>559.4</ele>
        <time>2020-12-26T12:38:42Z</time>
      </trkpt>
      <trkpt lat="46.92632" lon="5.78179">
        <ele>559.6</ele>
        <time>2020-12-26T12:38:43Z</time>
      </trkpt>
      <trkpt lat="46.92635" lon="5.78186">
        <ele>560</ele>
        <time>2020-12-26T12:38:44Z</time>
      </trkpt>
      <trkpt lat="46.92637" lon="5.78192">
        <ele>560.2</ele>
        <time>2020-12-26T12:38:45Z</time>
      </trkpt>
      <trkpt lat="46.9264" lon="5.78198">
        <ele>560.2</ele>
        <time>2020-12-26T12:38:46Z</time>
      </trkpt>
      <trkpt lat="46.92644" lon="5.78204">
        <ele>560.2</ele>
        <time>2020-12-26T12:38:47Z</time>
      </trkpt>
      <trkpt lat="46.92647" lon="5.7821">
        <ele>560.2</ele>
        <time>2020-12-26T12:38:48Z</time>
      </trkpt>
      <trkpt lat="46.9265" lon="5.78216">
        <ele>560.2</ele>
        <time>2020-12-26T12:38:49Z</time>
      </trkpt>
      <trkpt lat="46.92654" lon="5.78222">
        <ele>560</ele>
        <time>2020-12-26T12:38:50Z</time>
      </trkpt>
      <trkpt lat="46.92658" lon="5.78228">
        <ele>560</ele>
        <time>2020-12-26T12:38:51Z</time>
      </trkpt>
      <trkpt lat="46.92662" lon="5.78234">
        <ele>559.8</ele>
        <time>2020-12-26T12:38:52Z</time>
      </trkpt>
      <trkpt lat="46.92666" lon="5.78239">
        <ele>559.8</ele>
        <time>2020-12-26T12:38:53Z</time>
      </trkpt>
      <trkpt lat="46.9267" lon="5.78245">
        <ele>559.4</ele>
        <time>2020-12-26T12:38:54Z</time>
      </trkpt>
      <trkpt lat="46.92675" lon="5.78251">
        <ele>559.2</ele>
        <time>2020-12-26T12:38:55Z</time>
      </trkpt>
      <trkpt lat="46.9268" lon="5.78256">
        <ele>559.2</ele>
        <time>2020-12-26T12:38:56Z</time>
      </trkpt>
      <trkpt lat="46.92685" lon="5.78262">
        <ele>558.6</ele>
        <time>2020-12-26T12:38:57Z</time>
      </trkpt>
      <trkpt lat="46.92691" lon="5.78267">
        <ele>558.4</ele>
        <time>2020-12-26T12:38:58Z</time>
      </trkpt>
      <trkpt lat="46.92697" lon="5.78273">
        <ele>558</ele>
        <time>2020-12-26T12:38:59Z</time>
      </trkpt>
      <trkpt lat="46.92702" lon="5.78278">
        <ele>557.6</ele>
        <time>2020-12-26T12:39:00Z</time>
      </trkpt>
      <trkpt lat="46.92708" lon="5.78283">
        <ele>557.4</ele>
        <time>2020-12-26T12:39:01Z</time>
      </trkpt>
      <trkpt lat="46.92714" lon="5.78288">
        <ele>557</ele>
        <time>2020-12-26T12:39:02Z</time>
      </trkpt>
      <trkpt lat="46.92721" lon="5.78294">
        <ele>556.4</ele>
        <time>2020-12-26T12:39:03Z</time>
      </trkpt>
      <trkpt lat="46.92728" lon="5.78298">
        <ele>555.8</ele>
        <time>2020-12-26T12:39:04Z</time>
      </trkpt>
      <trkpt lat="46.92734" lon="5.78303">
        <ele>555.2</ele>
        <time>2020-12-26T12:39:05Z</time>
      </trkpt>
      <trkpt lat="46.92741" lon="5.78307">
        <ele>554.6</ele>
        <time>2020-12-26T12:39:06Z</time>
      </trkpt>
      <trkpt lat="46.92748" lon="5.78311">
        <ele>554</ele>
        <time>2020-12-26T12:39:07Z</time>
      </trkpt>
      <trkpt lat="46.92754" lon="5.78314">
        <ele>553.2</ele>
        <time>2020-12-26T12:39:08Z</time>
      </trkpt>
      <trkpt lat="46.92761" lon="5.78316">
        <ele>552.6</ele>
        <time>2020-12-26T12:39:09Z</time>
      </trkpt>
      <trkpt lat="46.92768" lon="5.78316">
        <ele>552.2</ele>
        <time>2020-12-26T12:39:10Z</time>
      </trkpt>
      <trkpt lat="46.92774" lon="5.78314">
        <ele>551.8</ele>
        <time>2020-12-26T12:39:11Z</time>
      </trkpt>
      <trkpt lat="46.92781" lon="5.7831">
        <ele>551.4</ele>
        <time>2020-12-26T12:39:12Z</time>
      </trkpt>
      <trkpt lat="46.92788" lon="5.78305">
        <ele>551.2</ele>
        <time>2020-12-26T12:39:13Z</time>
      </trkpt>
      <trkpt lat="46.92795" lon="5.78301">
        <ele>551</ele>
        <time>2020-12-26T12:39:14Z</time>
      </trkpt>
      <trkpt lat="46.92802" lon="5.78299">
        <ele>550.8</ele>
        <time>2020-12-26T12:39:15Z</time>
      </trkpt>
      <trkpt lat="46.9281" lon="5.78298">
        <ele>550.4</ele>
        <time>2020-12-26T12:39:16Z</time>
      </trkpt>
      <trkpt lat="46.92818" lon="5.78299">
        <ele>550.2</ele>
        <time>2020-12-26T12:39:17Z</time>
      </trkpt>
      <trkpt lat="46.92827" lon="5.783">
        <ele>550</ele>
        <time>2020-12-26T12:39:18Z</time>
      </trkpt>
      <trkpt lat="46.92836" lon="5.78301">
        <ele>550</ele>
        <time>2020-12-26T12:39:19Z</time>
      </trkpt>
      <trkpt lat="46.92845" lon="5.78303">
        <ele>549.6</ele>
        <time>2020-12-26T12:39:20Z</time>
      </trkpt>
      <trkpt lat="46.92854" lon="5.78304">
        <ele>549</ele>
        <time>2020-12-26T12:39:21Z</time>
      </trkpt>
      <trkpt lat="46.92864" lon="5.78305">
        <ele>548.6</ele>
        <time>2020-12-26T12:39:22Z</time>
      </trkpt>
      <trkpt lat="46.92874" lon="5.78308">
        <ele>548</ele>
        <time>2020-12-26T12:39:23Z</time>
      </trkpt>
      <trkpt lat="46.92885" lon="5.7831">
        <ele>547.6</ele>
        <time>2020-12-26T12:39:24Z</time>
      </trkpt>
      <trkpt lat="46.92895" lon="5.78313">
        <ele>547.2</ele>
        <time>2020-12-26T12:39:25Z</time>
      </trkpt>
      <trkpt lat="46.92905" lon="5.78315">
        <ele>546.8</ele>
        <time>2020-12-26T12:39:26Z</time>
      </trkpt>
      <trkpt lat="46.92914" lon="5.78318">
        <ele>546.2</ele>
        <time>2020-12-26T12:39:27Z</time>
      </trkpt>
      <trkpt lat="46.92923" lon="5.78322">
        <ele>546</ele>
        <time>2020-12-26T12:39:28Z</time>
      </trkpt>
      <trkpt lat="46.92932" lon="5.78326">
        <ele>545.6</ele>
        <time>2020-12-26T12:39:29Z</time>
      </trkpt>
      <trkpt lat="46.92941" lon="5.7833">
        <ele>545.4</ele>
        <time>2020-12-26T12:39:30Z</time>
      </trkpt>
      <trkpt lat="46.92951" lon="5.78333">
        <ele>545</ele>
        <time>2020-12-26T12:39:31Z</time>
      </trkpt>
      <trkpt lat="46.92959" lon="5.78337">
        <ele>544.6</ele>
        <time>2020-12-26T12:39:32Z</time>
      </trkpt>
      <trkpt lat="46.92968" lon="5.7834">
        <ele>544.2</ele>
        <time>2020-12-26T12:39:33Z</time>
      </trkpt>
      <trkpt lat="46.92977" lon="5.78343">
        <ele>543.8</ele>
        <time>2020-12-26T12:39:34Z</time>
      </trkpt>
      <trkpt lat="46.92987" lon="5.78346">
        <ele>543.4</ele>
        <time>2020-12-26T12:39:35Z</time>
      </trkpt>
      <trkpt lat="46.92997" lon="5.78351">
        <ele>543</ele>
        <time>2020-12-26T12:39:36Z</time>
      </trkpt>
      <trkpt lat="46.93006" lon="5.78355">
        <ele>542.6</ele>
        <time>2020-12-26T12:39:37Z</time>
      </trkpt>
      <trkpt lat="46.93016" lon="5.7836">
        <ele>542.2</ele>
        <time>2020-12-26T12:39:38Z</time>
      </trkpt>
      <trkpt lat="46.93026" lon="5.78365">
        <ele>541.8</ele>
        <time>2020-12-26T12:39:39Z</time>
      </trkpt>
      <trkpt lat="46.93035" lon="5.78371">
        <ele>541.4</ele>
        <time>2020-12-26T12:39:40Z</time>
      </trkpt>
      <trkpt lat="46.93045" lon="5.78375">
        <ele>540.8</ele>
        <time>2020-12-26T12:39:41Z</time>
      </trkpt>
      <trkpt lat="46.93055" lon="5.78379">
        <ele>540</ele>
        <time>2020-12-26T12:39:42Z</time>
      </trkpt>
      <trkpt lat="46.93064" lon="5.78384">
        <ele>539.4</ele>
        <time>2020-12-26T12:39:43Z</time>
      </trkpt>
      <trkpt lat="46.93074" lon="5.78388">
        <ele>538.6</ele>
        <time>2020-12-26T12:39:44Z</time>
      </trkpt>
      <trkpt lat="46.93084" lon="5.78392">
        <ele>538.2</ele>
        <time>2020-12-26T12:39:45Z</time>
      </trkpt>
      <trkpt lat="46.93094" lon="5.78398">
        <ele>537.6</ele>
        <time>2020-12-26T12:39:46Z</time>
      </trkpt>
      <trkpt lat="46.93103" lon="5.78402">
        <ele>537</ele>
        <time>2020-12-26T12:39:47Z</time>
      </trkpt>
      <trkpt lat="46.93113" lon="5.78407">
        <ele>536.6</ele>
        <time>2020-12-26T12:39:48Z</time>
      </trkpt>
      <trkpt lat="46.93124" lon="5.78411">
        <ele>535.8</ele>
        <time>2020-12-26T12:39:49Z</time>
      </trkpt>
      <trkpt lat="46.93134" lon="5.78413">
        <ele>535.2</ele>
        <time>2020-12-26T12:39:50Z</time>
      </trkpt>
      <trkpt lat="46.93146" lon="5.78415">
        <ele>534.8</ele>
        <time>2020-12-26T12:39:51Z</time>
      </trkpt>
      <trkpt lat="46.93156" lon="5.78418">
        <ele>534.4</ele>
        <time>2020-12-26T12:39:52Z</time>
      </trkpt>
      <trkpt lat="46.93167" lon="5.78418">
        <ele>534</ele>
        <time>2020-12-26T12:39:53Z</time>
      </trkpt>
      <trkpt lat="46.93177" lon="5.78418">
        <ele>533.6</ele>
        <time>2020-12-26T12:39:54Z</time>
      </trkpt>
      <trkpt lat="46.93187" lon="5.78416">
        <ele>533.4</ele>
        <time>2020-12-26T12:39:55Z</time>
      </trkpt>
      <trkpt lat="46.93196" lon="5.78412">
        <ele>533.2</ele>
        <time>2020-12-26T12:39:56Z</time>
      </trkpt>
      <trkpt lat="46.93205" lon="5.78408">
        <ele>533.2</ele>
        <time>2020-12-26T12:39:57Z</time>
      </trkpt>
      <trkpt lat="46.93215" lon="5.78403">
        <ele>532.6</ele>
        <time>2020-12-26T12:39:58Z</time>
      </trkpt>
      <trkpt lat="46.93225" lon="5.78399">
        <ele>532.4</ele>
        <time>2020-12-26T12:39:59Z</time>
      </trkpt>
      <trkpt lat="46.93234" lon="5.78396">
        <ele>532.4</ele>
        <time>2020-12-26T12:40:00Z</time>
      </trkpt>
      <trkpt lat="46.93244" lon="5.78394">
        <ele>532</ele>
        <time>2020-12-26T12:40:01Z</time>
      </trkpt>
      <trkpt lat="46.93252" lon="5.78391">
        <ele>531.8</ele>
        <time>2020-12-26T12:40:02Z</time>
      </trkpt>
      <trkpt lat="46.93261" lon="5.78388">
        <ele>531.6</ele>
        <time>2020-12-26T12:40:03Z</time>
      </trkpt>
      <trkpt lat="46.93271" lon="5.78384">
        <ele>531.2</ele>
        <time>2020-12-26T12:40:04Z</time>
      </trkpt>
      <trkpt lat="46.93281" lon="5.78377">
        <ele>531.2</ele>
        <time>2020-12-26T12:40:05Z</time>
      </trkpt>
      <trkpt lat="46.9329" lon="5.78369">
        <ele>530.8</ele>
        <time>2020-12-26T12:40:06Z</time>
      </trkpt>
      <trkpt lat="46.93298" lon="5.7836">
        <ele>530.6</ele>
        <time>2020-12-26T12:40:07Z</time>
      </trkpt>
      <trkpt lat="46.93306" lon="5.78351">
        <ele>530.2</ele>
        <time>2020-12-26T12:40:08Z</time>
      </trkpt>
      <trkpt lat="46.93314" lon="5.78342">
        <ele>529.8</ele>
        <time>2020-12-26T12:40:09Z</time>
      </trkpt>
      <trkpt lat="46.93322" lon="5.78334">
        <ele>529.4</ele>
        <time>2020-12-26T12:40:10Z</time>
      </trkpt>
      <trkpt lat="46.9333" lon="5.78326">
        <ele>529.2</ele>
        <time>2020-12-26T12:40:11Z</time>
      </trkpt>
      <trkpt lat="46.93338" lon="5.78318">
        <ele>528.8</ele>
        <time>2020-12-26T12:40:12Z</time>
      </trkpt>
      <trkpt lat="46.93345" lon="5.7831">
        <ele>528.6</ele>
        <time>2020-12-26T12:40:13Z</time>
      </trkpt>
      <trkpt lat="46.93353" lon="5.78302">
        <ele>528.2</ele>
        <time>2020-12-26T12:40:14Z</time>
      </trkpt>
      <trkpt lat="46.93362" lon="5.78295">
        <ele>527.8</ele>
        <time>2020-12-26T12:40:15Z</time>
      </trkpt>
      <trkpt lat="46.93371" lon="5.7829">
        <ele>527.6</ele>
        <time>2020-12-26T12:40:16Z</time>
      </trkpt>
      <trkpt lat="46.9338" lon="5.78284">
        <ele>527.2</ele>
        <time>2020-12-26T12:40:17Z</time>
      </trkpt>
      <trkpt lat="46.93388" lon="5.7828">
        <ele>527.2</ele>
        <time>2020-12-26T12:40:18Z</time>
      </trkpt>
      <trkpt lat="46.93397" lon="5.78277">
        <ele>526.8</ele>
        <time>2020-12-26T12:40:19Z</time>
      </trkpt>
      <trkpt lat="46.93406" lon="5.78276">
        <ele>526.8</ele>
        <time>2020-12-26T12:40:20Z</time>
      </trkpt>
      <trkpt lat="46.93416" lon="5.78276">
        <ele>526.6</ele>
        <time>2020-12-26T12:40:21Z</time>
      </trkpt>
      <trkpt lat="46.93425" lon="5.78277">
        <ele>526.4</ele>
        <time>2020-12-26T12:40:22Z</time>
      </trkpt>
      <trkpt lat="46.93434" lon="5.78278">
        <ele>526.4</ele>
        <time>2020-12-26T12:40:23Z</time>
      </trkpt>
      <trkpt lat="46.93444" lon="5.78279">
        <ele>526.2</ele>
        <time>2020-12-26T12:40:24Z</time>
      </trkpt>
      <trkpt lat="46.93453" lon="5.78281">
        <ele>526</ele>
        <time>2020-12-26T12:40:25Z</time>
      </trkpt>
      <trkpt lat="46.93462" lon="5.78282">
        <ele>526</ele>
        <time>2020-12-26T12:40:26Z</time>
      </trkpt>
      <trkpt lat="46.93471" lon="5.78283">
        <ele>525.6</ele>
        <time>2020-12-26T12:40:27Z</time>
      </trkpt>
      <trkpt lat="46.9348" lon="5.78285">
        <ele>525.6</ele>
        <time>2020-12-26T12:40:28Z</time>
      </trkpt>
      <trkpt lat="46.93488" lon="5.78286">
        <ele>525.6</ele>
        <time>2020-12-26T12:40:29Z</time>
      </trkpt>
      <trkpt lat="46.93497" lon="5.78288">
        <ele>525.4</ele>
        <time>2020-12-26T12:40:30Z</time>
      </trkpt>
      <trkpt lat="46.93505" lon="5.78289">
        <ele>525.4</ele>
        <time>2020-12-26T12:40:31Z</time>
      </trkpt>
      <trkpt lat="46.93514" lon="5.7829">
        <ele>525</ele>
        <time>2020-12-26T12:40:32Z</time>
      </trkpt>
      <trkpt lat="46.93523" lon="5.78292">
        <ele>525</ele>
        <time>2020-12-26T12:40:33Z</time>
      </trkpt>
      <trkpt lat="46.93531" lon="5.78293">
        <ele>525</ele>
        <time>2020-12-26T12:40:34Z</time>
      </trkpt>
      <trkpt lat="46.9354" lon="5.78295">
        <ele>525</ele>
        <time>2020-12-26T12:40:35Z</time>
      </trkpt>
      <trkpt lat="46.93549" lon="5.78296">
        <ele>525</ele>
        <time>2020-12-26T12:40:36Z</time>
      </trkpt>
      <trkpt lat="46.93557" lon="5.78297">
        <ele>525</ele>
        <time>2020-12-26T12:40:37Z</time>
      </trkpt>
      <trkpt lat="46.93566" lon="5.78298">
        <ele>524.8</ele>
        <time>2020-12-26T12:40:38Z</time>
      </trkpt>
      <trkpt lat="46.93574" lon="5.783">
        <ele>524.8</ele>
        <time>2020-12-26T12:40:39Z</time>
      </trkpt>
      <trkpt lat="46.93583" lon="5.78301">
        <ele>524.8</ele>
        <time>2020-12-26T12:40:40Z</time>
      </trkpt>
      <trkpt lat="46.93591" lon="5.78303">
        <ele>524.8</ele>
        <time>2020-12-26T12:40:41Z</time>
      </trkpt>
      <trkpt lat="46.93599" lon="5.78304">
        <ele>524.8</ele>
        <time>2020-12-26T12:40:42Z</time>
      </trkpt>
      <trkpt lat="46.93607" lon="5.78306">
        <ele>524.8</ele>
        <time>2020-12-26T12:40:43Z</time>
      </trkpt>
      <trkpt lat="46.93616" lon="5.78309">
        <ele>524.6</ele>
        <time>2020-12-26T12:40:44Z</time>
      </trkpt>
      <trkpt lat="46.93624" lon="5.78311">
        <ele>524.6</ele>
        <time>2020-12-26T12:40:45Z</time>
      </trkpt>
      <trkpt lat="46.93632" lon="5.78313">
        <ele>524.2</ele>
        <time>2020-12-26T12:40:46Z</time>
      </trkpt>
      <trkpt lat="46.93641" lon="5.78316">
        <ele>524.2</ele>
        <time>2020-12-26T12:40:47Z</time>
      </trkpt>
      <trkpt lat="46.93649" lon="5.78319">
        <ele>523.8</ele>
        <time>2020-12-26T12:40:48Z</time>
      </trkpt>
      <trkpt lat="46.93657" lon="5.78322">
        <ele>523.6</ele>
        <time>2020-12-26T12:40:49Z</time>
      </trkpt>
      <trkpt lat="46.93666" lon="5.78325">
        <ele>523.4</ele>
        <time>2020-12-26T12:40:50Z</time>
      </trkpt>
      <trkpt lat="46.93674" lon="5.78328">
        <ele>523</ele>
        <time>2020-12-26T12:40:51Z</time>
      </trkpt>
      <trkpt lat="46.93683" lon="5.78331">
        <ele>523</ele>
        <time>2020-12-26T12:40:52Z</time>
      </trkpt>
      <trkpt lat="46.93691" lon="5.78334">
        <ele>522.6</ele>
        <time>2020-12-26T12:40:53Z</time>
      </trkpt>
      <trkpt lat="46.937" lon="5.78338">
        <ele>522.4</ele>
        <time>2020-12-26T12:40:54Z</time>
      </trkpt>
      <trkpt lat="46.93708" lon="5.78342">
        <ele>522</ele>
        <time>2020-12-26T12:40:55Z</time>
      </trkpt>
      <trkpt lat="46.93717" lon="5.78348">
        <ele>521.8</ele>
        <time>2020-12-26T12:40:56Z</time>
      </trkpt>
      <trkpt lat="46.93725" lon="5.78354">
        <ele>521.8</ele>
        <time>2020-12-26T12:40:57Z</time>
      </trkpt>
      <trkpt lat="46.93733" lon="5.7836">
        <ele>521.4</ele>
        <time>2020-12-26T12:40:58Z</time>
      </trkpt>
      <trkpt lat="46.93741" lon="5.78365">
        <ele>521</ele>
        <time>2020-12-26T12:40:59Z</time>
      </trkpt>
      <trkpt lat="46.93748" lon="5.78371">
        <ele>520.8</ele>
        <time>2020-12-26T12:41:00Z</time>
      </trkpt>
      <trkpt lat="46.93756" lon="5.78376">
        <ele>520.4</ele>
        <time>2020-12-26T12:41:01Z</time>
      </trkpt>
      <trkpt lat="46.93763" lon="5.78382">
        <ele>520.2</ele>
        <time>2020-12-26T12:41:02Z</time>
      </trkpt>
      <trkpt lat="46.93771" lon="5.78389">
        <ele>520</ele>
        <time>2020-12-26T12:41:03Z</time>
      </trkpt>
      <trkpt lat="46.93779" lon="5.78395">
        <ele>519.8</ele>
        <time>2020-12-26T12:41:04Z</time>
      </trkpt>
      <trkpt lat="46.93786" lon="5.78401">
        <ele>519.6</ele>
        <time>2020-12-26T12:41:05Z</time>
      </trkpt>
      <trkpt lat="46.93794" lon="5.78408">
        <ele>519.6</ele>
        <time>2020-12-26T12:41:06Z</time>
      </trkpt>
      <trkpt lat="46.93801" lon="5.78414">
        <ele>519.6</ele>
        <time>2020-12-26T12:41:07Z</time>
      </trkpt>
      <trkpt lat="46.93809" lon="5.7842">
        <ele>519.2</ele>
        <time>2020-12-26T12:41:08Z</time>
      </trkpt>
      <trkpt lat="46.93816" lon="5.78426">
        <ele>519.2</ele>
        <time>2020-12-26T12:41:09Z</time>
      </trkpt>
      <trkpt lat="46.93823" lon="5.78432">
        <ele>519</ele>
        <time>2020-12-26T12:41:10Z</time>
      </trkpt>
      <trkpt lat="46.93831" lon="5.78438">
        <ele>519</ele>
        <time>2020-12-26T12:41:11Z</time>
      </trkpt>
      <trkpt lat="46.93838" lon="5.78444">
        <ele>519</ele>
        <time>2020-12-26T12:41:12Z</time>
      </trkpt>
      <trkpt lat="46.93845" lon="5.78451">
        <ele>518.8</ele>
        <time>2020-12-26T12:41:13Z</time>
      </trkpt>
      <trkpt lat="46.93852" lon="5.78457">
        <ele>518.8</ele>
        <time>2020-12-26T12:41:14Z</time>
      </trkpt>
      <trkpt lat="46.93859" lon="5.78463">
        <ele>518.4</ele>
        <time>2020-12-26T12:41:15Z</time>
      </trkpt>
      <trkpt lat="46.93867" lon="5.7847">
        <ele>518.2</ele>
        <time>2020-12-26T12:41:16Z</time>
      </trkpt>
      <trkpt lat="46.93874" lon="5.78476">
        <ele>517.8</ele>
        <time>2020-12-26T12:41:17Z</time>
      </trkpt>
      <trkpt lat="46.93881" lon="5.78483">
        <ele>517.6</ele>
        <time>2020-12-26T12:41:18Z</time>
      </trkpt>
      <trkpt lat="46.93888" lon="5.78491">
        <ele>517.2</ele>
        <time>2020-12-26T12:41:19Z</time>
      </trkpt>
      <trkpt lat="46.93895" lon="5.78498">
        <ele>516.8</ele>
        <time>2020-12-26T12:41:20Z</time>
      </trkpt>
      <trkpt lat="46.93903" lon="5.78506">
        <ele>516.4</ele>
        <time>2020-12-26T12:41:21Z</time>
      </trkpt>
      <trkpt lat="46.9391" lon="5.78514">
        <ele>516</ele>
        <time>2020-12-26T12:41:22Z</time>
      </trkpt>
      <trkpt lat="46.93917" lon="5.78522">
        <ele>515.6</ele>
        <time>2020-12-26T12:41:23Z</time>
      </trkpt>
      <trkpt lat="46.93924" lon="5.78531">
        <ele>515.2</ele>
        <time>2020-12-26T12:41:24Z</time>
      </trkpt>
      <trkpt lat="46.93932" lon="5.78539">
        <ele>514.8</ele>
        <time>2020-12-26T12:41:25Z</time>
      </trkpt>
      <trkpt lat="46.93939" lon="5.78548">
        <ele>514.4</ele>
        <time>2020-12-26T12:41:26Z</time>
      </trkpt>
      <trkpt lat="46.93947" lon="5.78557">
        <ele>514</ele>
        <time>2020-12-26T12:41:27Z</time>
      </trkpt>
      <trkpt lat="46.93955" lon="5.78566">
        <ele>513.6</ele>
        <time>2020-12-26T12:41:28Z</time>
      </trkpt>
      <trkpt lat="46.93961" lon="5.78576">
        <ele>513.2</ele>
        <time>2020-12-26T12:41:29Z</time>
      </trkpt>
      <trkpt lat="46.93968" lon="5.78585">
        <ele>512.8</ele>
        <time>2020-12-26T12:41:30Z</time>
      </trkpt>
      <trkpt lat="46.93974" lon="5.78594">
        <ele>512.4</ele>
        <time>2020-12-26T12:41:31Z</time>
      </trkpt>
      <trkpt lat="46.9398" lon="5.78605">
        <ele>512</ele>
        <time>2020-12-26T12:41:32Z</time>
      </trkpt>
      <trkpt lat="46.93985" lon="5.78616">
        <ele>511.6</ele>
        <time>2020-12-26T12:41:33Z</time>
      </trkpt>
      <trkpt lat="46.9399" lon="5.78628">
        <ele>511.4</ele>
        <time>2020-12-26T12:41:34Z</time>
      </trkpt>
      <trkpt lat="46.93996" lon="5.78638">
        <ele>511</ele>
        <time>2020-12-26T12:41:35Z</time>
      </trkpt>
      <trkpt lat="46.94003" lon="5.78649">
        <ele>510.8</ele>
        <time>2020-12-26T12:41:36Z</time>
      </trkpt>
      <trkpt lat="46.94009" lon="5.78659">
        <ele>510.6</ele>
        <time>2020-12-26T12:41:37Z</time>
      </trkpt>
      <trkpt lat="46.94017" lon="5.78668">
        <ele>510.6</ele>
        <time>2020-12-26T12:41:38Z</time>
      </trkpt>
      <trkpt lat="46.94024" lon="5.78676">
        <ele>510.2</ele>
        <time>2020-12-26T12:41:39Z</time>
      </trkpt>
      <trkpt lat="46.94031" lon="5.78683">
        <ele>510.2</ele>
        <time>2020-12-26T12:41:40Z</time>
      </trkpt>
      <trkpt lat="46.94038" lon="5.78689">
        <ele>510.2</ele>
        <time>2020-12-26T12:41:41Z</time>
      </trkpt>
      <trkpt lat="46.94045" lon="5.78694">
        <ele>510.2</ele>
        <time>2020-12-26T12:41:42Z</time>
      </trkpt>
      <trkpt lat="46.94052" lon="5.78699">
        <ele>510.2</ele>
        <time>2020-12-26T12:41:43Z</time>
      </trkpt>
      <trkpt lat="46.94059" lon="5.78703">
        <ele>510.6</ele>
        <time>2020-12-26T12:41:44Z</time>
      </trkpt>
      <trkpt lat="46.94066" lon="5.78707">
        <ele>510.6</ele>
        <time>2020-12-26T12:41:45Z</time>
      </trkpt>
      <trkpt lat="46.94073" lon="5.78711">
        <ele>510.8</ele>
        <time>2020-12-26T12:41:46Z</time>
      </trkpt>
      <trkpt lat="46.94079" lon="5.78715">
        <ele>510.8</ele>
        <time>2020-12-26T12:41:47Z</time>
      </trkpt>
      <trkpt lat="46.94085" lon="5.78718">
        <ele>511.2</ele>
        <time>2020-12-26T12:41:48Z</time>
      </trkpt>
      <trkpt lat="46.94092" lon="5.78721">
        <ele>511.2</ele>
        <time>2020-12-26T12:41:49Z</time>
      </trkpt>
      <trkpt lat="46.94098" lon="5.78724">
        <ele>511.4</ele>
        <time>2020-12-26T12:41:50Z</time>
      </trkpt>
      <trkpt lat="46.94104" lon="5.78728">
        <ele>511.8</ele>
        <time>2020-12-26T12:41:51Z</time>
      </trkpt>
      <trkpt lat="46.9411" lon="5.78731">
        <ele>512</ele>
        <time>2020-12-26T12:41:52Z</time>
      </trkpt>
      <trkpt lat="46.94115" lon="5.78734">
        <ele>512.2</ele>
        <time>2020-12-26T12:41:53Z</time>
      </trkpt>
      <trkpt lat="46.94121" lon="5.78738">
        <ele>512.2</ele>
        <time>2020-12-26T12:41:54Z</time>
      </trkpt>
      <trkpt lat="46.94127" lon="5.78741">
        <ele>512.6</ele>
        <time>2020-12-26T12:41:55Z</time>
      </trkpt>
      <trkpt lat="46.94132" lon="5.78744">
        <ele>512.8</ele>
        <time>2020-12-26T12:41:56Z</time>
      </trkpt>
      <trkpt lat="46.94138" lon="5.78747">
        <ele>512.8</ele>
        <time>2020-12-26T12:41:57Z</time>
      </trkpt>
      <trkpt lat="46.94143" lon="5.78751">
        <ele>513.2</ele>
        <time>2020-12-26T12:41:58Z</time>
      </trkpt>
      <trkpt lat="46.94149" lon="5.78754">
        <ele>513.6</ele>
        <time>2020-12-26T12:41:59Z</time>
      </trkpt>
      <trkpt lat="46.94154" lon="5.78757">
        <ele>514</ele>
        <time>2020-12-26T12:42:00Z</time>
      </trkpt>
      <trkpt lat="46.9416" lon="5.7876">
        <ele>514</ele>
        <time>2020-12-26T12:42:01Z</time>
      </trkpt>
      <trkpt lat="46.94165" lon="5.78764">
        <ele>514.2</ele>
        <time>2020-12-26T12:42:02Z</time>
      </trkpt>
      <trkpt lat="46.94171" lon="5.78767">
        <ele>514.2</ele>
        <time>2020-12-26T12:42:03Z</time>
      </trkpt>
      <trkpt lat="46.94177" lon="5.78771">
        <ele>514.2</ele>
        <time>2020-12-26T12:42:04Z</time>
      </trkpt>
      <trkpt lat="46.94182" lon="5.78775">
        <ele>514.2</ele>
        <time>2020-12-26T12:42:05Z</time>
      </trkpt>
      <trkpt lat="46.94188" lon="5.78779">
        <ele>514.6</ele>
        <time>2020-12-26T12:42:06Z</time>
      </trkpt>
      <trkpt lat="46.94194" lon="5.78783">
        <ele>514.6</ele>
        <time>2020-12-26T12:42:07Z</time>
      </trkpt>
      <trkpt lat="46.942" lon="5.78787">
        <ele>514.6</ele>
        <time>2020-12-26T12:42:08Z</time>
      </trkpt>
      <trkpt lat="46.94205" lon="5.78791">
        <ele>514.6</ele>
        <time>2020-12-26T12:42:09Z</time>
      </trkpt>
      <trkpt lat="46.94211" lon="5.78796">
        <ele>514.6</ele>
        <time>2020-12-26T12:42:10Z</time>
      </trkpt>
      <trkpt lat="46.94217" lon="5.788">
        <ele>514.6</ele>
        <time>2020-12-26T12:42:11Z</time>
      </trkpt>
      <trkpt lat="46.94223" lon="5.78805">
        <ele>514.6</ele>
        <time>2020-12-26T12:42:12Z</time>
      </trkpt>
      <trkpt lat="46.94229" lon="5.78809">
        <ele>514.6</ele>
        <time>2020-12-26T12:42:13Z</time>
      </trkpt>
      <trkpt lat="46.94235" lon="5.78814">
        <ele>514.6</ele>
        <time>2020-12-26T12:42:14Z</time>
      </trkpt>
      <trkpt lat="46.94241" lon="5.78819">
        <ele>514.2</ele>
        <time>2020-12-26T12:42:15Z</time>
      </trkpt>
      <trkpt lat="46.94247" lon="5.78823">
        <ele>514.2</ele>
        <time>2020-12-26T12:42:16Z</time>
      </trkpt>
      <trkpt lat="46.94253" lon="5.78828">
        <ele>514.2</ele>
        <time>2020-12-26T12:42:17Z</time>
      </trkpt>
      <trkpt lat="46.94259" lon="5.78834">
        <ele>514.2</ele>
        <time>2020-12-26T12:42:18Z</time>
      </trkpt>
      <trkpt lat="46.94265" lon="5.78839">
        <ele>514.2</ele>
        <time>2020-12-26T12:42:19Z</time>
      </trkpt>
      <trkpt lat="46.94271" lon="5.78843">
        <ele>514.2</ele>
        <time>2020-12-26T12:42:20Z</time>
      </trkpt>
      <trkpt lat="46.94277" lon="5.78848">
        <ele>514.2</ele>
        <time>2020-12-26T12:42:21Z</time>
      </trkpt>
      <trkpt lat="46.94283" lon="5.78853">
        <ele>514.2</ele>
        <time>2020-12-26T12:42:22Z</time>
      </trkpt>
      <trkpt lat="46.94289" lon="5.78858">
        <ele>514.2</ele>
        <time>2020-12-26T12:42:23Z</time>
      </trkpt>
      <trkpt lat="46.94294" lon="5.78863">
        <ele>514.2</ele>
        <time>2020-12-26T12:42:24Z</time>
      </trkpt>
      <trkpt lat="46.943" lon="5.78868">
        <ele>514</ele>
        <time>2020-12-26T12:42:25Z</time>
      </trkpt>
      <trkpt lat="46.94306" lon="5.78873">
        <ele>514</ele>
        <time>2020-12-26T12:42:26Z</time>
      </trkpt>
      <trkpt lat="46.94312" lon="5.78878">
        <ele>514</ele>
        <time>2020-12-26T12:42:27Z</time>
      </trkpt>
      <trkpt lat="46.94318" lon="5.78883">
        <ele>514</ele>
        <time>2020-12-26T12:42:28Z</time>
      </trkpt>
      <trkpt lat="46.94324" lon="5.78887">
        <ele>514</ele>
        <time>2020-12-26T12:42:29Z</time>
      </trkpt>
      <trkpt lat="46.9433" lon="5.78892">
        <ele>514</ele>
        <time>2020-12-26T12:42:30Z</time>
      </trkpt>
      <trkpt lat="46.94336" lon="5.78897">
        <ele>513.8</ele>
        <time>2020-12-26T12:42:31Z</time>
      </trkpt>
      <trkpt lat="46.94342" lon="5.78902">
        <ele>513.8</ele>
        <time>2020-12-26T12:42:32Z</time>
      </trkpt>
      <trkpt lat="46.94348" lon="5.78907">
        <ele>513.8</ele>
        <time>2020-12-26T12:42:33Z</time>
      </trkpt>
      <trkpt lat="46.94355" lon="5.78913">
        <ele>513.4</ele>
        <time>2020-12-26T12:42:34Z</time>
      </trkpt>
      <trkpt lat="46.94361" lon="5.78918">
        <ele>513.4</ele>
        <time>2020-12-26T12:42:35Z</time>
      </trkpt>
      <trkpt lat="46.94367" lon="5.78924">
        <ele>513</ele>
        <time>2020-12-26T12:42:36Z</time>
      </trkpt>
      <trkpt lat="46.94374" lon="5.7893">
        <ele>512.8</ele>
        <time>2020-12-26T12:42:37Z</time>
      </trkpt>
      <trkpt lat="46.9438" lon="5.78936">
        <ele>512.4</ele>
        <time>2020-12-26T12:42:38Z</time>
      </trkpt>
      <trkpt lat="46.94387" lon="5.78943">
        <ele>512.2</ele>
        <time>2020-12-26T12:42:39Z</time>
      </trkpt>
      <trkpt lat="46.94393" lon="5.78951">
        <ele>511.8</ele>
        <time>2020-12-26T12:42:40Z</time>
      </trkpt>
      <trkpt lat="46.94399" lon="5.78959">
        <ele>511.4</ele>
        <time>2020-12-26T12:42:41Z</time>
      </trkpt>
      <trkpt lat="46.94404" lon="5.78968">
        <ele>511</ele>
        <time>2020-12-26T12:42:42Z</time>
      </trkpt>
      <trkpt lat="46.9441" lon="5.78978">
        <ele>510.6</ele>
        <time>2020-12-26T12:42:43Z</time>
      </trkpt>
      <trkpt lat="46.94415" lon="5.78988">
        <ele>510.2</ele>
        <time>2020-12-26T12:42:44Z</time>
      </trkpt>
      <trkpt lat="46.94421" lon="5.78998">
        <ele>509.8</ele>
        <time>2020-12-26T12:42:45Z</time>
      </trkpt>
      <trkpt lat="46.94427" lon="5.79007">
        <ele>509.4</ele>
        <time>2020-12-26T12:42:46Z</time>
      </trkpt>
      <trkpt lat="46.94434" lon="5.79015">
        <ele>509</ele>
        <time>2020-12-26T12:42:47Z</time>
      </trkpt>
      <trkpt lat="46.94441" lon="5.79022">
        <ele>509</ele>
        <time>2020-12-26T12:42:48Z</time>
      </trkpt>
      <trkpt lat="46.94448" lon="5.79028">
        <ele>508.6</ele>
        <time>2020-12-26T12:42:49Z</time>
      </trkpt>
      <trkpt lat="46.94455" lon="5.79033">
        <ele>508.4</ele>
        <time>2020-12-26T12:42:50Z</time>
      </trkpt>
      <trkpt lat="46.94462" lon="5.79037">
        <ele>508.4</ele>
        <time>2020-12-26T12:42:51Z</time>
      </trkpt>
      <trkpt lat="46.9447" lon="5.7904">
        <ele>508.4</ele>
        <time>2020-12-26T12:42:52Z</time>
      </trkpt>
      <trkpt lat="46.94477" lon="5.79043">
        <ele>508.2</ele>
        <time>2020-12-26T12:42:53Z</time>
      </trkpt>
      <trkpt lat="46.94483" lon="5.79046">
        <ele>508.2</ele>
        <time>2020-12-26T12:42:54Z</time>
      </trkpt>
      <trkpt lat="46.9449" lon="5.79049">
        <ele>508.2</ele>
        <time>2020-12-26T12:42:55Z</time>
      </trkpt>
      <trkpt lat="46.94497" lon="5.79052">
        <ele>508.6</ele>
        <time>2020-12-26T12:42:56Z</time>
      </trkpt>
      <trkpt lat="46.94503" lon="5.79054">
        <ele>508.6</ele>
        <time>2020-12-26T12:42:57Z</time>
      </trkpt>
      <trkpt lat="46.9451" lon="5.79057">
        <ele>508.8</ele>
        <time>2020-12-26T12:42:58Z</time>
      </trkpt>
      <trkpt lat="46.94516" lon="5.7906">
        <ele>508.8</ele>
        <time>2020-12-26T12:42:59Z</time>
      </trkpt>
      <trkpt lat="46.94522" lon="5.79063">
        <ele>509</ele>
        <time>2020-12-26T12:43:00Z</time>
      </trkpt>
      <trkpt lat="46.94527" lon="5.79067">
        <ele>509.2</ele>
        <time>2020-12-26T12:43:01Z</time>
      </trkpt>
      <trkpt lat="46.94533" lon="5.79071">
        <ele>509.6</ele>
        <time>2020-12-26T12:43:02Z</time>
      </trkpt>
      <trkpt lat="46.94538" lon="5.79075">
        <ele>510</ele>
        <time>2020-12-26T12:43:03Z</time>
      </trkpt>
      <trkpt lat="46.94543" lon="5.79079">
        <ele>510.2</ele>
        <time>2020-12-26T12:43:04Z</time>
      </trkpt>
      <trkpt lat="46.94548" lon="5.79083">
        <ele>510.4</ele>
        <time>2020-12-26T12:43:05Z</time>
      </trkpt>
      <trkpt lat="46.94553" lon="5.79087">
        <ele>510.4</ele>
        <time>2020-12-26T12:43:06Z</time>
      </trkpt>
      <trkpt lat="46.94558" lon="5.79091">
        <ele>510.8</ele>
        <time>2020-12-26T12:43:07Z</time>
      </trkpt>
      <trkpt lat="46.94563" lon="5.79095">
        <ele>510.8</ele>
        <time>2020-12-26T12:43:08Z</time>
      </trkpt>
      <trkpt lat="46.94568" lon="5.79098">
        <ele>511.2</ele>
        <time>2020-12-26T12:43:09Z</time>
      </trkpt>
      <trkpt lat="46.94572" lon="5.79103">
        <ele>511.2</ele>
        <time>2020-12-26T12:43:10Z</time>
      </trkpt>
      <trkpt lat="46.94577" lon="5.79107">
        <ele>511.4</ele>
        <time>2020-12-26T12:43:11Z</time>
      </trkpt>
      <trkpt lat="46.94582" lon="5.79111">
        <ele>511.4</ele>
        <time>2020-12-26T12:43:12Z</time>
      </trkpt>
      <trkpt lat="46.94587" lon="5.79116">
        <ele>511.4</ele>
        <time>2020-12-26T12:43:13Z</time>
      </trkpt>
      <trkpt lat="46.94592" lon="5.7912">
        <ele>511.4</ele>
        <time>2020-12-26T12:43:14Z</time>
      </trkpt>
      <trkpt lat="46.94597" lon="5.79124">
        <ele>511.4</ele>
        <time>2020-12-26T12:43:15Z</time>
      </trkpt>
      <trkpt lat="46.94602" lon="5.79128">
        <ele>511.2</ele>
        <time>2020-12-26T12:43:16Z</time>
      </trkpt>
      <trkpt lat="46.94608" lon="5.79132">
        <ele>511.2</ele>
        <time>2020-12-26T12:43:17Z</time>
      </trkpt>
      <trkpt lat="46.94613" lon="5.79136">
        <ele>511</ele>
        <time>2020-12-26T12:43:18Z</time>
      </trkpt>
      <trkpt lat="46.94619" lon="5.79139">
        <ele>510.6</ele>
        <time>2020-12-26T12:43:19Z</time>
      </trkpt>
      <trkpt lat="46.94625" lon="5.79142">
        <ele>510.2</ele>
        <time>2020-12-26T12:43:20Z</time>
      </trkpt>
      <trkpt lat="46.94631" lon="5.79144">
        <ele>510</ele>
        <time>2020-12-26T12:43:21Z</time>
      </trkpt>
      <trkpt lat="46.94637" lon="5.79144">
        <ele>509.8</ele>
        <time>2020-12-26T12:43:22Z</time>
      </trkpt>
      <trkpt lat="46.94644" lon="5.79144">
        <ele>509.4</ele>
        <time>2020-12-26T12:43:23Z</time>
      </trkpt>
      <trkpt lat="46.9465" lon="5.79143">
        <ele>509.2</ele>
        <time>2020-12-26T12:43:24Z</time>
      </trkpt>
      <trkpt lat="46.94657" lon="5.79141">
        <ele>508.8</ele>
        <time>2020-12-26T12:43:25Z</time>
      </trkpt>
      <trkpt lat="46.94663" lon="5.79138">
        <ele>508.6</ele>
        <time>2020-12-26T12:43:26Z</time>
      </trkpt>
      <trkpt lat="46.94669" lon="5.79136">
        <ele>508.4</ele>
        <time>2020-12-26T12:43:27Z</time>
      </trkpt>
      <trkpt lat="46.94674" lon="5.79134">
        <ele>508.4</ele>
        <time>2020-12-26T12:43:28Z</time>
      </trkpt>
      <trkpt lat="46.94678" lon="5.79132">
        <ele>508</ele>
        <time>2020-12-26T12:43:29Z</time>
      </trkpt>
      <trkpt lat="46.94682" lon="5.79132">
        <ele>508</ele>
        <time>2020-12-26T12:43:30Z</time>
      </trkpt>
      <trkpt lat="46.94685" lon="5.79133">
        <ele>508</ele>
        <time>2020-12-26T12:43:31Z</time>
      </trkpt>
      <trkpt lat="46.94689" lon="5.79137">
        <ele>507.8</ele>
        <time>2020-12-26T12:43:32Z</time>
      </trkpt>
      <trkpt lat="46.94692" lon="5.79142">
        <ele>507.8</ele>
        <time>2020-12-26T12:43:33Z</time>
      </trkpt>
      <trkpt lat="46.94694" lon="5.79148">
        <ele>507.8</ele>
        <time>2020-12-26T12:43:34Z</time>
      </trkpt>
      <trkpt lat="46.94695" lon="5.79155">
        <ele>507.8</ele>
        <time>2020-12-26T12:43:35Z</time>
      </trkpt>
      <trkpt lat="46.94696" lon="5.79162">
        <ele>508</ele>
        <time>2020-12-26T12:43:36Z</time>
      </trkpt>
      <trkpt lat="46.94696" lon="5.7917">
        <ele>508</ele>
        <time>2020-12-26T12:43:37Z</time>
      </trkpt>
      <trkpt lat="46.94696" lon="5.79177">
        <ele>508.4</ele>
        <time>2020-12-26T12:43:38Z</time>
      </trkpt>
      <trkpt lat="46.94696" lon="5.79183">
        <ele>508.6</ele>
        <time>2020-12-26T12:43:39Z</time>
      </trkpt>
      <trkpt lat="46.94696" lon="5.79189">
        <ele>508.8</ele>
        <time>2020-12-26T12:43:40Z</time>
      </trkpt>
      <trkpt lat="46.94696" lon="5.79195">
        <ele>509</ele>
        <time>2020-12-26T12:43:41Z</time>
      </trkpt>
      <trkpt lat="46.94697" lon="5.792">
        <ele>509.2</ele>
        <time>2020-12-26T12:43:42Z</time>
      </trkpt>
      <trkpt lat="46.94697" lon="5.79206">
        <ele>509.6</ele>
        <time>2020-12-26T12:43:43Z</time>
      </trkpt>
      <trkpt lat="46.94698" lon="5.79211">
        <ele>510</ele>
        <time>2020-12-26T12:43:44Z</time>
      </trkpt>
      <trkpt lat="46.94698" lon="5.79217">
        <ele>510.4</ele>
        <time>2020-12-26T12:43:45Z</time>
      </trkpt>
      <trkpt lat="46.94698" lon="5.79222">
        <ele>510.6</ele>
        <time>2020-12-26T12:43:46Z</time>
      </trkpt>
      <trkpt lat="46.94697" lon="5.79227">
        <ele>510.8</ele>
        <time>2020-12-26T12:43:47Z</time>
      </trkpt>
      <trkpt lat="46.94696" lon="5.79232">
        <ele>511.2</ele>
        <time>2020-12-26T12:43:48Z</time>
      </trkpt>
      <trkpt lat="46.94696" lon="5.79237">
        <ele>511.4</ele>
        <time>2020-12-26T12:43:49Z</time>
      </trkpt>
      <trkpt lat="46.94695" lon="5.79242">
        <ele>511.8</ele>
        <time>2020-12-26T12:43:50Z</time>
      </trkpt>
      <trkpt lat="46.94695" lon="5.79247">
        <ele>512</ele>
        <time>2020-12-26T12:43:51Z</time>
      </trkpt>
      <trkpt lat="46.94694" lon="5.79251">
        <ele>512.4</ele>
        <time>2020-12-26T12:43:52Z</time>
      </trkpt>
      <trkpt lat="46.94693" lon="5.79256">
        <ele>512.8</ele>
        <time>2020-12-26T12:43:53Z</time>
      </trkpt>
      <trkpt lat="46.94693" lon="5.7926">
        <ele>513.2</ele>
        <time>2020-12-26T12:43:54Z</time>
      </trkpt>
      <trkpt lat="46.94692" lon="5.79265">
        <ele>513.4</ele>
        <time>2020-12-26T12:43:55Z</time>
      </trkpt>
      <trkpt lat="46.94692" lon="5.7927">
        <ele>513.8</ele>
        <time>2020-12-26T12:43:56Z</time>
      </trkpt>
      <trkpt lat="46.94691" lon="5.79274">
        <ele>514.2</ele>
        <time>2020-12-26T12:43:57Z</time>
      </trkpt>
      <trkpt lat="46.94691" lon="5.79279">
        <ele>514.4</ele>
        <time>2020-12-26T12:43:58Z</time>
      </trkpt>
      <trkpt lat="46.9469" lon="5.79283">
        <ele>514.8</ele>
        <time>2020-12-26T12:43:59Z</time>
      </trkpt>
      <trkpt lat="46.94689" lon="5.79288">
        <ele>515.2</ele>
        <time>2020-12-26T12:44:00Z</time>
      </trkpt>
      <trkpt lat="46.94689" lon="5.79292">
        <ele>515.4</ele>
        <time>2020-12-26T12:44:01Z</time>
      </trkpt>
      <trkpt lat="46.94688" lon="5.79297">
        <ele>515.8</ele>
        <time>2020-12-26T12:44:02Z</time>
      </trkpt>
      <trkpt lat="46.94688" lon="5.79301">
        <ele>516</ele>
        <time>2020-12-26T12:44:03Z</time>
      </trkpt>
      <trkpt lat="46.94687" lon="5.79305">
        <ele>516.4</ele>
        <time>2020-12-26T12:44:04Z</time>
      </trkpt>
      <trkpt lat="46.94687" lon="5.7931">
        <ele>516.8</ele>
        <time>2020-12-26T12:44:05Z</time>
      </trkpt>
      <trkpt lat="46.94686" lon="5.79314">
        <ele>517</ele>
        <time>2020-12-26T12:44:06Z</time>
      </trkpt>
      <trkpt lat="46.94686" lon="5.79319">
        <ele>517.2</ele>
        <time>2020-12-26T12:44:07Z</time>
      </trkpt>
      <trkpt lat="46.94685" lon="5.79324">
        <ele>517.6</ele>
        <time>2020-12-26T12:44:08Z</time>
      </trkpt>
      <trkpt lat="46.94685" lon="5.79328">
        <ele>517.8</ele>
        <time>2020-12-26T12:44:09Z</time>
      </trkpt>
      <trkpt lat="46.94684" lon="5.79332">
        <ele>518.2</ele>
        <time>2020-12-26T12:44:10Z</time>
      </trkpt>
      <trkpt lat="46.94684" lon="5.79337">
        <ele>518.4</ele>
        <time>2020-12-26T12:44:11Z</time>
      </trkpt>
      <trkpt lat="46.94684" lon="5.79341">
        <ele>518.4</ele>
        <time>2020-12-26T12:44:12Z</time>
      </trkpt>
      <trkpt lat="46.94683" lon="5.79346">
        <ele>518.8</ele>
        <time>2020-12-26T12:44:13Z</time>
      </trkpt>
      <trkpt lat="46.94683" lon="5.7935">
        <ele>519</ele>
        <time>2020-12-26T12:44:14Z</time>
      </trkpt>
      <trkpt lat="46.94683" lon="5.79354">
        <ele>519.2</ele>
        <time>2020-12-26T12:44:15Z</time>
      </trkpt>
      <trkpt lat="46.94683" lon="5.79358">
        <ele>519.6</ele>
        <time>2020-12-26T12:44:16Z</time>
      </trkpt>
      <trkpt lat="46.94683" lon="5.79362">
        <ele>519.8</ele>
        <time>2020-12-26T12:44:17Z</time>
      </trkpt>
      <trkpt lat="46.94683" lon="5.79366">
        <ele>519.8</ele>
        <time>2020-12-26T12:44:18Z</time>
      </trkpt>
      <trkpt lat="46.94683" lon="5.7937">
        <ele>520.2</ele>
        <time>2020-12-26T12:44:19Z</time>
      </trkpt>
      <trkpt lat="46.94683" lon="5.79375">
        <ele>520.4</ele>
        <time>2020-12-26T12:44:20Z</time>
      </trkpt>
      <trkpt lat="46.94684" lon="5.79379">
        <ele>520.8</ele>
        <time>2020-12-26T12:44:21Z</time>
      </trkpt>
      <trkpt lat="46.94684" lon="5.79383">
        <ele>521.2</ele>
        <time>2020-12-26T12:44:22Z</time>
      </trkpt>
      <trkpt lat="46.94684" lon="5.79387">
        <ele>521.4</ele>
        <time>2020-12-26T12:44:23Z</time>
      </trkpt>
      <trkpt lat="46.94685" lon="5.79392">
        <ele>521.6</ele>
        <time>2020-12-26T12:44:24Z</time>
      </trkpt>
      <trkpt lat="46.94685" lon="5.79396">
        <ele>521.8</ele>
        <time>2020-12-26T12:44:25Z</time>
      </trkpt>
      <trkpt lat="46.94685" lon="5.794">
        <ele>522.2</ele>
        <time>2020-12-26T12:44:26Z</time>
      </trkpt>
      <trkpt lat="46.94685" lon="5.79404">
        <ele>522.4</ele>
        <time>2020-12-26T12:44:27Z</time>
      </trkpt>
      <trkpt lat="46.94686" lon="5.79409">
        <ele>522.8</ele>
        <time>2020-12-26T12:44:28Z</time>
      </trkpt>
      <trkpt lat="46.94686" lon="5.79413">
        <ele>523</ele>
        <time>2020-12-26T12:44:29Z</time>
      </trkpt>
      <trkpt lat="46.94686" lon="5.79417">
        <ele>523.2</ele>
        <time>2020-12-26T12:44:30Z</time>
      </trkpt>
      <trkpt lat="46.94686" lon="5.79421">
        <ele>523.4</ele>
        <time>2020-12-26T12:44:31Z</time>
      </trkpt>
      <trkpt lat="46.94686" lon="5.79425">
        <ele>523.8</ele>
        <time>2020-12-26T12:44:32Z</time>
      </trkpt>
      <trkpt lat="46.94686" lon="5.79429">
        <ele>524</ele>
        <time>2020-12-26T12:44:33Z</time>
      </trkpt>
      <trkpt lat="46.94687" lon="5.79433">
        <ele>524.4</ele>
        <time>2020-12-26T12:44:34Z</time>
      </trkpt>
      <trkpt lat="46.94687" lon="5.79438">
        <ele>524.6</ele>
        <time>2020-12-26T12:44:35Z</time>
      </trkpt>
      <trkpt lat="46.94688" lon="5.79442">
        <ele>524.8</ele>
        <time>2020-12-26T12:44:36Z</time>
      </trkpt>
      <trkpt lat="46.94688" lon="5.79446">
        <ele>525.2</ele>
        <time>2020-12-26T12:44:37Z</time>
      </trkpt>
      <trkpt lat="46.94688" lon="5.7945">
        <ele>525.4</ele>
        <time>2020-12-26T12:44:38Z</time>
      </trkpt>
      <trkpt lat="46.94689" lon="5.79454">
        <ele>525.8</ele>
        <time>2020-12-26T12:44:39Z</time>
      </trkpt>
      <trkpt lat="46.94689" lon="5.79457">
        <ele>526</ele>
        <time>2020-12-26T12:44:40Z</time>
      </trkpt>
      <trkpt lat="46.94689" lon="5.79461">
        <ele>526.2</ele>
        <time>2020-12-26T12:44:41Z</time>
      </trkpt>
      <trkpt lat="46.94689" lon="5.79465">
        <ele>526.4</ele>
        <time>2020-12-26T12:44:42Z</time>
      </trkpt>
      <trkpt lat="46.9469" lon="5.79469">
        <ele>526.6</ele>
        <time>2020-12-26T12:44:43Z</time>
      </trkpt>
      <trkpt lat="46.9469" lon="5.79473">
        <ele>526.6</ele>
        <time>2020-12-26T12:44:44Z</time>
      </trkpt>
      <trkpt lat="46.9469" lon="5.79477">
        <ele>527</ele>
        <time>2020-12-26T12:44:45Z</time>
      </trkpt>
      <trkpt lat="46.9469" lon="5.79481">
        <ele>527</ele>
        <time>2020-12-26T12:44:46Z</time>
      </trkpt>
      <trkpt lat="46.9469" lon="5.79486">
        <ele>527.4</ele>
        <time>2020-12-26T12:44:47Z</time>
      </trkpt>
      <trkpt lat="46.9469" lon="5.7949">
        <ele>527.6</ele>
        <time>2020-12-26T12:44:48Z</time>
      </trkpt>
      <trkpt lat="46.9469" lon="5.79494">
        <ele>527.6</ele>
        <time>2020-12-26T12:44:49Z</time>
      </trkpt>
      <trkpt lat="46.9469" lon="5.79498">
        <ele>528</ele>
        <time>2020-12-26T12:44:50Z</time>
      </trkpt>
      <trkpt lat="46.94691" lon="5.79502">
        <ele>528</ele>
        <time>2020-12-26T12:44:51Z</time>
      </trkpt>
      <trkpt lat="46.94691" lon="5.79507">
        <ele>528.2</ele>
        <time>2020-12-26T12:44:52Z</time>
      </trkpt>
      <trkpt lat="46.94691" lon="5.79511">
        <ele>528.6</ele>
        <time>2020-12-26T12:44:53Z</time>
      </trkpt>
      <trkpt lat="46.94691" lon="5.79515">
        <ele>528.8</ele>
        <time>2020-12-26T12:44:54Z</time>
      </trkpt>
      <trkpt lat="46.9469" lon="5.79519">
        <ele>529</ele>
        <time>2020-12-26T12:44:55Z</time>
      </trkpt>
      <trkpt lat="46.9469" lon="5.79523">
        <ele>529.2</ele>
        <time>2020-12-26T12:44:56Z</time>
      </trkpt>
      <trkpt lat="46.9469" lon="5.79528">
        <ele>529.6</ele>
        <time>2020-12-26T12:44:57Z</time>
      </trkpt>
      <trkpt lat="46.94689" lon="5.79532">
        <ele>529.8</ele>
        <time>2020-12-26T12:44:58Z</time>
      </trkpt>
      <trkpt lat="46.94688" lon="5.79536">
        <ele>529.8</ele>
        <time>2020-12-26T12:44:59Z</time>
      </trkpt>
      <trkpt lat="46.94688" lon="5.7954">
        <ele>530</ele>
        <time>2020-12-26T12:45:00Z</time>
      </trkpt>
      <trkpt lat="46.94687" lon="5.79544">
        <ele>530.2</ele>
        <time>2020-12-26T12:45:01Z</time>
      </trkpt>
      <trkpt lat="46.94687" lon="5.79548">
        <ele>530.6</ele>
        <time>2020-12-26T12:45:02Z</time>
      </trkpt>
      <trkpt lat="46.94686" lon="5.79552">
        <ele>530.8</ele>
        <time>2020-12-26T12:45:03Z</time>
      </trkpt>
      <trkpt lat="46.94686" lon="5.79556">
        <ele>530.8</ele>
        <time>2020-12-26T12:45:04Z</time>
      </trkpt>
      <trkpt lat="46.94685" lon="5.7956">
        <ele>530.8</ele>
        <time>2020-12-26T12:45:05Z</time>
      </trkpt>
      <trkpt lat="46.94684" lon="5.79564">
        <ele>531.2</ele>
        <time>2020-12-26T12:45:06Z</time>
      </trkpt>
      <trkpt lat="46.94682" lon="5.79569">
        <ele>531.4</ele>
        <time>2020-12-26T12:45:07Z</time>
      </trkpt>
      <trkpt lat="46.94681" lon="5.79573">
        <ele>531.8</ele>
        <time>2020-12-26T12:45:08Z</time>
      </trkpt>
      <trkpt lat="46.9468" lon="5.79578">
        <ele>531.8</ele>
        <time>2020-12-26T12:45:09Z</time>
      </trkpt>
      <trkpt lat="46.94679" lon="5.79582">
        <ele>532.2</ele>
        <time>2020-12-26T12:45:10Z</time>
      </trkpt>
      <trkpt lat="46.94678" lon="5.79587">
        <ele>532.4</ele>
        <time>2020-12-26T12:45:11Z</time>
      </trkpt>
      <trkpt lat="46.94677" lon="5.79591">
        <ele>532.6</ele>
        <time>2020-12-26T12:45:12Z</time>
      </trkpt>
      <trkpt lat="46.94676" lon="5.79595">
        <ele>532.6</ele>
        <time>2020-12-26T12:45:13Z</time>
      </trkpt>
      <trkpt lat="46.94675" lon="5.79599">
        <ele>533</ele>
        <time>2020-12-26T12:45:14Z</time>
      </trkpt>
      <trkpt lat="46.94674" lon="5.79603">
        <ele>533</ele>
        <time>2020-12-26T12:45:15Z</time>
      </trkpt>
      <trkpt lat="46.94673" lon="5.79607">
        <ele>533.2</ele>
        <time>2020-12-26T12:45:16Z</time>
      </trkpt>
      <trkpt lat="46.94672" lon="5.79611">
        <ele>533.2</ele>
        <time>2020-12-26T12:45:17Z</time>
      </trkpt>
      <trkpt lat="46.9467" lon="5.79615">
        <ele>533.8</ele>
        <time>2020-12-26T12:45:18Z</time>
      </trkpt>
      <trkpt lat="46.94669" lon="5.79619">
        <ele>533.8</ele>
        <time>2020-12-26T12:45:19Z</time>
      </trkpt>
      <trkpt lat="46.94668" lon="5.79623">
        <ele>534</ele>
        <time>2020-12-26T12:45:20Z</time>
      </trkpt>
      <trkpt lat="46.94666" lon="5.79627">
        <ele>534</ele>
        <time>2020-12-26T12:45:21Z</time>
      </trkpt>
      <trkpt lat="46.94665" lon="5.79631">
        <ele>534.4</ele>
        <time>2020-12-26T12:45:22Z</time>
      </trkpt>
      <trkpt lat="46.94664" lon="5.79635">
        <ele>534.6</ele>
        <time>2020-12-26T12:45:23Z</time>
      </trkpt>
      <trkpt lat="46.94663" lon="5.79639">
        <ele>534.6</ele>
        <time>2020-12-26T12:45:24Z</time>
      </trkpt>
      <trkpt lat="46.94661" lon="5.79644">
        <ele>534.8</ele>
        <time>2020-12-26T12:45:25Z</time>
      </trkpt>
      <trkpt lat="46.9466" lon="5.79648">
        <ele>534.8</ele>
        <time>2020-12-26T12:45:26Z</time>
      </trkpt>
      <trkpt lat="46.94659" lon="5.79652">
        <ele>535.2</ele>
        <time>2020-12-26T12:45:27Z</time>
      </trkpt>
      <trkpt lat="46.94657" lon="5.79657">
        <ele>535.2</ele>
        <time>2020-12-26T12:45:28Z</time>
      </trkpt>
      <trkpt lat="46.94656" lon="5.79661">
        <ele>535.4</ele>
        <time>2020-12-26T12:45:29Z</time>
      </trkpt>
      <trkpt lat="46.94654" lon="5.79666">
        <ele>535.4</ele>
        <time>2020-12-26T12:45:30Z</time>
      </trkpt>
      <trkpt lat="46.94653" lon="5.7967">
        <ele>535.6</ele>
        <time>2020-12-26T12:45:31Z</time>
      </trkpt>
      <trkpt lat="46.94652" lon="5.79675">
        <ele>535.6</ele>
        <time>2020-12-26T12:45:32Z</time>
      </trkpt>
      <trkpt lat="46.9465" lon="5.7968">
        <ele>535.8</ele>
        <time>2020-12-26T12:45:33Z</time>
      </trkpt>
      <trkpt lat="46.94649" lon="5.79684">
        <ele>535.8</ele>
        <time>2020-12-26T12:45:34Z</time>
      </trkpt>
      <trkpt lat="46.94647" lon="5.79689">
        <ele>536.2</ele>
        <time>2020-12-26T12:45:35Z</time>
      </trkpt>
      <trkpt lat="46.94646" lon="5.79693">
        <ele>536.2</ele>
        <time>2020-12-26T12:45:36Z</time>
      </trkpt>
      <trkpt lat="46.94645" lon="5.79698">
        <ele>536.4</ele>
        <time>2020-12-26T12:45:37Z</time>
      </trkpt>
      <trkpt lat="46.94643" lon="5.79702">
        <ele>536.4</ele>
        <time>2020-12-26T12:45:38Z</time>
      </trkpt>
      <trkpt lat="46.94642" lon="5.79707">
        <ele>536.6</ele>
        <time>2020-12-26T12:45:39Z</time>
      </trkpt>
      <trkpt lat="46.94641" lon="5.79711">
        <ele>536.6</ele>
        <time>2020-12-26T12:45:40Z</time>
      </trkpt>
      <trkpt lat="46.94639" lon="5.79716">
        <ele>537</ele>
        <time>2020-12-26T12:45:41Z</time>
      </trkpt>
      <trkpt lat="46.94638" lon="5.7972">
        <ele>537.2</ele>
        <time>2020-12-26T12:45:42Z</time>
      </trkpt>
      <trkpt lat="46.94636" lon="5.79723">
        <ele>537.4</ele>
        <time>2020-12-26T12:45:43Z</time>
      </trkpt>
      <trkpt lat="46.94635" lon="5.79727">
        <ele>537.4</ele>
        <time>2020-12-26T12:45:44Z</time>
      </trkpt>
      <trkpt lat="46.94634" lon="5.7973">
        <ele>537.8</ele>
        <time>2020-12-26T12:45:45Z</time>
      </trkpt>
      <trkpt lat="46.94632" lon="5.79734">
        <ele>537.8</ele>
        <time>2020-12-26T12:45:46Z</time>
      </trkpt>
      <trkpt lat="46.94631" lon="5.79738">
        <ele>537.8</ele>
        <time>2020-12-26T12:45:47Z</time>
      </trkpt>
      <trkpt lat="46.9463" lon="5.79743">
        <ele>538.2</ele>
        <time>2020-12-26T12:45:48Z</time>
      </trkpt>
      <trkpt lat="46.94629" lon="5.79747">
        <ele>538.2</ele>
        <time>2020-12-26T12:45:49Z</time>
      </trkpt>
      <trkpt lat="46.94627" lon="5.79752">
        <ele>538.6</ele>
        <time>2020-12-26T12:45:50Z</time>
      </trkpt>
      <trkpt lat="46.94626" lon="5.79757">
        <ele>538.8</ele>
        <time>2020-12-26T12:45:51Z</time>
      </trkpt>
      <trkpt lat="46.94624" lon="5.79761">
        <ele>538.8</ele>
        <time>2020-12-26T12:45:52Z</time>
      </trkpt>
      <trkpt lat="46.94623" lon="5.79766">
        <ele>539.2</ele>
        <time>2020-12-26T12:45:53Z</time>
      </trkpt>
      <trkpt lat="46.94621" lon="5.7977">
        <ele>539.6</ele>
        <time>2020-12-26T12:45:54Z</time>
      </trkpt>
      <trkpt lat="46.9462" lon="5.79775">
        <ele>539.8</ele>
        <time>2020-12-26T12:45:55Z</time>
      </trkpt>
      <trkpt lat="46.94619" lon="5.7978">
        <ele>540</ele>
        <time>2020-12-26T12:45:56Z</time>
      </trkpt>
      <trkpt lat="46.94617" lon="5.79785">
        <ele>540.2</ele>
        <time>2020-12-26T12:45:57Z</time>
      </trkpt>
      <trkpt lat="46.94616" lon="5.7979">
        <ele>540.4</ele>
        <time>2020-12-26T12:45:58Z</time>
      </trkpt>
      <trkpt lat="46.94615" lon="5.79795">
        <ele>540.6</ele>
        <time>2020-12-26T12:45:59Z</time>
      </trkpt>
      <trkpt lat="46.94613" lon="5.798">
        <ele>541</ele>
        <time>2020-12-26T12:46:00Z</time>
      </trkpt>
      <trkpt lat="46.94612" lon="5.79805">
        <ele>541</ele>
        <time>2020-12-26T12:46:01Z</time>
      </trkpt>
      <trkpt lat="46.9461" lon="5.79809">
        <ele>541.2</ele>
        <time>2020-12-26T12:46:02Z</time>
      </trkpt>
      <trkpt lat="46.94609" lon="5.79814">
        <ele>541.6</ele>
        <time>2020-12-26T12:46:03Z</time>
      </trkpt>
      <trkpt lat="46.94608" lon="5.79819">
        <ele>541.8</ele>
        <time>2020-12-26T12:46:04Z</time>
      </trkpt>
      <trkpt lat="46.94607" lon="5.79824">
        <ele>542</ele>
        <time>2020-12-26T12:46:05Z</time>
      </trkpt>
      <trkpt lat="46.94605" lon="5.79828">
        <ele>542.2</ele>
        <time>2020-12-26T12:46:06Z</time>
      </trkpt>
      <trkpt lat="46.94604" lon="5.79832">
        <ele>542.4</ele>
        <time>2020-12-26T12:46:07Z</time>
      </trkpt>
      <trkpt lat="46.94603" lon="5.79837">
        <ele>542.4</ele>
        <time>2020-12-26T12:46:08Z</time>
      </trkpt>
      <trkpt lat="46.94601" lon="5.79842">
        <ele>542.8</ele>
        <time>2020-12-26T12:46:09Z</time>
      </trkpt>
      <trkpt lat="46.946" lon="5.79846">
        <ele>542.8</ele>
        <time>2020-12-26T12:46:10Z</time>
      </trkpt>
      <trkpt lat="46.94599" lon="5.79851">
        <ele>543.2</ele>
        <time>2020-12-26T12:46:11Z</time>
      </trkpt>
      <trkpt lat="46.94597" lon="5.79855">
        <ele>543.2</ele>
        <time>2020-12-26T12:46:12Z</time>
      </trkpt>
      <trkpt lat="46.94596" lon="5.7986">
        <ele>543.4</ele>
        <time>2020-12-26T12:46:13Z</time>
      </trkpt>
      <trkpt lat="46.94595" lon="5.79864">
        <ele>543.4</ele>
        <time>2020-12-26T12:46:14Z</time>
      </trkpt>
      <trkpt lat="46.94593" lon="5.79868">
        <ele>543.8</ele>
        <time>2020-12-26T12:46:15Z</time>
      </trkpt>
      <trkpt lat="46.94592" lon="5.79873">
        <ele>544</ele>
        <time>2020-12-26T12:46:16Z</time>
      </trkpt>
      <trkpt lat="46.94591" lon="5.79877">
        <ele>544.2</ele>
        <time>2020-12-26T12:46:17Z</time>
      </trkpt>
      <trkpt lat="46.9459" lon="5.79882">
        <ele>544.2</ele>
        <time>2020-12-26T12:46:18Z</time>
      </trkpt>
      <trkpt lat="46.94588" lon="5.79886">
        <ele>544.4</ele>
        <time>2020-12-26T12:46:19Z</time>
      </trkpt>
      <trkpt lat="46.94587" lon="5.79891">
        <ele>544.4</ele>
        <time>2020-12-26T12:46:20Z</time>
      </trkpt>
      <trkpt lat="46.94586" lon="5.79895">
        <ele>544.8</ele>
        <time>2020-12-26T12:46:21Z</time>
      </trkpt>
      <trkpt lat="46.94585" lon="5.79899">
        <ele>545</ele>
        <time>2020-12-26T12:46:22Z</time>
      </trkpt>
      <trkpt lat="46.94584" lon="5.79904">
        <ele>545.2</ele>
        <time>2020-12-26T12:46:23Z</time>
      </trkpt>
      <trkpt lat="46.94582" lon="5.79908">
        <ele>545.2</ele>
        <time>2020-12-26T12:46:24Z</time>
      </trkpt>
      <trkpt lat="46.94581" lon="5.79912">
        <ele>545.8</ele>
        <time>2020-12-26T12:46:25Z</time>
      </trkpt>
      <trkpt lat="46.9458" lon="5.79917">
        <ele>546</ele>
        <time>2020-12-26T12:46:26Z</time>
      </trkpt>
      <trkpt lat="46.94579" lon="5.79921">
        <ele>546.2</ele>
        <time>2020-12-26T12:46:27Z</time>
      </trkpt>
      <trkpt lat="46.94578" lon="5.79925">
        <ele>546.2</ele>
        <time>2020-12-26T12:46:28Z</time>
      </trkpt>
      <trkpt lat="46.94576" lon="5.7993">
        <ele>546.4</ele>
        <time>2020-12-26T12:46:29Z</time>
      </trkpt>
      <trkpt lat="46.94575" lon="5.79934">
        <ele>546.8</ele>
        <time>2020-12-26T12:46:30Z</time>
      </trkpt>
      <trkpt lat="46.94574" lon="5.79939">
        <ele>547</ele>
        <time>2020-12-26T12:46:31Z</time>
      </trkpt>
      <trkpt lat="46.94572" lon="5.79943">
        <ele>547</ele>
        <time>2020-12-26T12:46:32Z</time>
      </trkpt>
      <trkpt lat="46.94571" lon="5.79947">
        <ele>547.4</ele>
        <time>2020-12-26T12:46:33Z</time>
      </trkpt>
      <trkpt lat="46.9457" lon="5.79951">
        <ele>547.6</ele>
        <time>2020-12-26T12:46:34Z</time>
      </trkpt>
      <trkpt lat="46.94569" lon="5.79955">
        <ele>547.8</ele>
        <time>2020-12-26T12:46:35Z</time>
      </trkpt>
      <trkpt lat="46.94568" lon="5.7996">
        <ele>548</ele>
        <time>2020-12-26T12:46:36Z</time>
      </trkpt>
      <trkpt lat="46.94567" lon="5.79964">
        <ele>548.2</ele>
        <time>2020-12-26T12:46:37Z</time>
      </trkpt>
      <trkpt lat="46.94566" lon="5.79969">
        <ele>548.2</ele>
        <time>2020-12-26T12:46:38Z</time>
      </trkpt>
      <trkpt lat="46.94565" lon="5.79973">
        <ele>548.6</ele>
        <time>2020-12-26T12:46:39Z</time>
      </trkpt>
      <trkpt lat="46.94564" lon="5.79978">
        <ele>548.6</ele>
        <time>2020-12-26T12:46:40Z</time>
      </trkpt>
      <trkpt lat="46.94563" lon="5.79982">
        <ele>549</ele>
        <time>2020-12-26T12:46:41Z</time>
      </trkpt>
      <trkpt lat="46.94562" lon="5.79986">
        <ele>549</ele>
        <time>2020-12-26T12:46:42Z</time>
      </trkpt>
      <trkpt lat="46.9456" lon="5.79991">
        <ele>549.4</ele>
        <time>2020-12-26T12:46:43Z</time>
      </trkpt>
      <trkpt lat="46.94559" lon="5.79996">
        <ele>549.6</ele>
        <time>2020-12-26T12:46:44Z</time>
      </trkpt>
      <trkpt lat="46.94558" lon="5.80001">
        <ele>549.6</ele>
        <time>2020-12-26T12:46:45Z</time>
      </trkpt>
      <trkpt lat="46.94557" lon="5.80005">
        <ele>550</ele>
        <time>2020-12-26T12:46:46Z</time>
      </trkpt>
      <trkpt lat="46.94556" lon="5.8001">
        <ele>550.2</ele>
        <time>2020-12-26T12:46:47Z</time>
      </trkpt>
      <trkpt lat="46.94555" lon="5.80015">
        <ele>550.2</ele>
        <time>2020-12-26T12:46:48Z</time>
      </trkpt>
      <trkpt lat="46.94554" lon="5.8002">
        <ele>550.6</ele>
        <time>2020-12-26T12:46:49Z</time>
      </trkpt>
      <trkpt lat="46.94553" lon="5.80025">
        <ele>550.6</ele>
        <time>2020-12-26T12:46:50Z</time>
      </trkpt>
      <trkpt lat="46.94552" lon="5.80029">
        <ele>551</ele>
        <time>2020-12-26T12:46:51Z</time>
      </trkpt>
      <trkpt lat="46.94552" lon="5.80034">
        <ele>551</ele>
        <time>2020-12-26T12:46:52Z</time>
      </trkpt>
      <trkpt lat="46.94551" lon="5.80038">
        <ele>551.2</ele>
        <time>2020-12-26T12:46:53Z</time>
      </trkpt>
      <trkpt lat="46.9455" lon="5.80043">
        <ele>551.2</ele>
        <time>2020-12-26T12:46:54Z</time>
      </trkpt>
      <trkpt lat="46.94549" lon="5.80048">
        <ele>551.4</ele>
        <time>2020-12-26T12:46:55Z</time>
      </trkpt>
      <trkpt lat="46.94549" lon="5.80052">
        <ele>551.4</ele>
        <time>2020-12-26T12:46:56Z</time>
      </trkpt>
      <trkpt lat="46.94548" lon="5.80057">
        <ele>551.8</ele>
        <time>2020-12-26T12:46:57Z</time>
      </trkpt>
      <trkpt lat="46.94547" lon="5.80062">
        <ele>551.8</ele>
        <time>2020-12-26T12:46:58Z</time>
      </trkpt>
      <trkpt lat="46.94547" lon="5.80067">
        <ele>552</ele>
        <time>2020-12-26T12:46:59Z</time>
      </trkpt>
      <trkpt lat="46.94546" lon="5.80072">
        <ele>552.4</ele>
        <time>2020-12-26T12:47:00Z</time>
      </trkpt>
      <trkpt lat="46.94545" lon="5.80077">
        <ele>552.4</ele>
        <time>2020-12-26T12:47:01Z</time>
      </trkpt>
      <trkpt lat="46.94545" lon="5.80083">
        <ele>552.4</ele>
        <time>2020-12-26T12:47:02Z</time>
      </trkpt>
      <trkpt lat="46.94544" lon="5.80088">
        <ele>552.6</ele>
        <time>2020-12-26T12:47:03Z</time>
      </trkpt>
      <trkpt lat="46.94544" lon="5.80093">
        <ele>552.6</ele>
        <time>2020-12-26T12:47:04Z</time>
      </trkpt>
      <trkpt lat="46.94543" lon="5.80098">
        <ele>552.8</ele>
        <time>2020-12-26T12:47:05Z</time>
      </trkpt>
      <trkpt lat="46.94543" lon="5.80104">
        <ele>552.8</ele>
        <time>2020-12-26T12:47:06Z</time>
      </trkpt>
      <trkpt lat="46.94542" lon="5.8011">
        <ele>552.8</ele>
        <time>2020-12-26T12:47:07Z</time>
      </trkpt>
      <trkpt lat="46.94541" lon="5.80115">
        <ele>553</ele>
        <time>2020-12-26T12:47:08Z</time>
      </trkpt>
      <trkpt lat="46.94541" lon="5.80121">
        <ele>553</ele>
        <time>2020-12-26T12:47:09Z</time>
      </trkpt>
      <trkpt lat="46.9454" lon="5.80127">
        <ele>553</ele>
        <time>2020-12-26T12:47:10Z</time>
      </trkpt>
      <trkpt lat="46.9454" lon="5.80132">
        <ele>553.2</ele>
        <time>2020-12-26T12:47:11Z</time>
      </trkpt>
      <trkpt lat="46.94539" lon="5.80138">
        <ele>553.4</ele>
        <time>2020-12-26T12:47:12Z</time>
      </trkpt>
      <trkpt lat="46.94539" lon="5.80144">
        <ele>553.4</ele>
        <time>2020-12-26T12:47:13Z</time>
      </trkpt>
      <trkpt lat="46.94538" lon="5.8015">
        <ele>553.8</ele>
        <time>2020-12-26T12:47:14Z</time>
      </trkpt>
      <trkpt lat="46.94537" lon="5.80157">
        <ele>553.8</ele>
        <time>2020-12-26T12:47:15Z</time>
      </trkpt>
      <trkpt lat="46.94537" lon="5.80163">
        <ele>554</ele>
        <time>2020-12-26T12:47:16Z</time>
      </trkpt>
      <trkpt lat="46.94536" lon="5.80168">
        <ele>554</ele>
        <time>2020-12-26T12:47:17Z</time>
      </trkpt>
      <trkpt lat="46.94536" lon="5.80174">
        <ele>554</ele>
        <time>2020-12-26T12:47:18Z</time>
      </trkpt>
      <trkpt lat="46.94535" lon="5.8018">
        <ele>554.2</ele>
        <time>2020-12-26T12:47:19Z</time>
      </trkpt>
      <trkpt lat="46.94534" lon="5.80185">
        <ele>554.2</ele>
        <time>2020-12-26T12:47:20Z</time>
      </trkpt>
      <trkpt lat="46.94534" lon="5.80191">
        <ele>554.2</ele>
        <time>2020-12-26T12:47:21Z</time>
      </trkpt>
      <trkpt lat="46.94534" lon="5.80197">
        <ele>554.4</ele>
        <time>2020-12-26T12:47:22Z</time>
      </trkpt>
      <trkpt lat="46.94533" lon="5.80203">
        <ele>554.4</ele>
        <time>2020-12-26T12:47:23Z</time>
      </trkpt>
      <trkpt lat="46.94533" lon="5.80208">
        <ele>554.4</ele>
        <time>2020-12-26T12:47:24Z</time>
      </trkpt>
      <trkpt lat="46.94533" lon="5.80214">
        <ele>554.8</ele>
        <time>2020-12-26T12:47:25Z</time>
      </trkpt>
      <trkpt lat="46.94533" lon="5.80221">
        <ele>554.8</ele>
        <time>2020-12-26T12:47:26Z</time>
      </trkpt>
      <trkpt lat="46.94533" lon="5.80227">
        <ele>555</ele>
        <time>2020-12-26T12:47:27Z</time>
      </trkpt>
      <trkpt lat="46.94533" lon="5.80233">
        <ele>555</ele>
        <time>2020-12-26T12:47:28Z</time>
      </trkpt>
      <trkpt lat="46.94533" lon="5.80239">
        <ele>555.2</ele>
        <time>2020-12-26T12:47:29Z</time>
      </trkpt>
      <trkpt lat="46.94533" lon="5.80246">
        <ele>555.2</ele>
        <time>2020-12-26T12:47:30Z</time>
      </trkpt>
      <trkpt lat="46.94534" lon="5.80252">
        <ele>555.4</ele>
        <time>2020-12-26T12:47:31Z</time>
      </trkpt>
      <trkpt lat="46.94534" lon="5.80258">
        <ele>555.4</ele>
        <time>2020-12-26T12:47:32Z</time>
      </trkpt>
      <trkpt lat="46.94534" lon="5.80264">
        <ele>555.4</ele>
        <time>2020-12-26T12:47:33Z</time>
      </trkpt>
      <trkpt lat="46.94535" lon="5.8027">
        <ele>555.6</ele>
        <time>2020-12-26T12:47:34Z</time>
      </trkpt>
      <trkpt lat="46.94535" lon="5.80276">
        <ele>555.6</ele>
        <time>2020-12-26T12:47:35Z</time>
      </trkpt>
      <trkpt lat="46.94536" lon="5.80282">
        <ele>555.6</ele>
        <time>2020-12-26T12:47:36Z</time>
      </trkpt>
      <trkpt lat="46.94536" lon="5.80287">
        <ele>556</ele>
        <time>2020-12-26T12:47:37Z</time>
      </trkpt>
      <trkpt lat="46.94537" lon="5.80294">
        <ele>556</ele>
        <time>2020-12-26T12:47:38Z</time>
      </trkpt>
      <trkpt lat="46.94538" lon="5.803">
        <ele>556.2</ele>
        <time>2020-12-26T12:47:39Z</time>
      </trkpt>
      <trkpt lat="46.94538" lon="5.80306">
        <ele>556.2</ele>
        <time>2020-12-26T12:47:40Z</time>
      </trkpt>
      <trkpt lat="46.94539" lon="5.80312">
        <ele>556.2</ele>
        <time>2020-12-26T12:47:41Z</time>
      </trkpt>
      <trkpt lat="46.9454" lon="5.80318">
        <ele>556.4</ele>
        <time>2020-12-26T12:47:42Z</time>
      </trkpt>
      <trkpt lat="46.9454" lon="5.80324">
        <ele>556.4</ele>
        <time>2020-12-26T12:47:43Z</time>
      </trkpt>
      <trkpt lat="46.9454" lon="5.8033">
        <ele>556.6</ele>
        <time>2020-12-26T12:47:44Z</time>
      </trkpt>
      <trkpt lat="46.94541" lon="5.80336">
        <ele>556.6</ele>
        <time>2020-12-26T12:47:45Z</time>
      </trkpt>
      <trkpt lat="46.94542" lon="5.80342">
        <ele>557</ele>
        <time>2020-12-26T12:47:46Z</time>
      </trkpt>
      <trkpt lat="46.94543" lon="5.80348">
        <ele>557</ele>
        <time>2020-12-26T12:47:47Z</time>
      </trkpt>
      <trkpt lat="46.94543" lon="5.80354">
        <ele>557.4</ele>
        <time>2020-12-26T12:47:48Z</time>
      </trkpt>
      <trkpt lat="46.94544" lon="5.8036">
        <ele>557.6</ele>
        <time>2020-12-26T12:47:49Z</time>
      </trkpt>
      <trkpt lat="46.94545" lon="5.80367">
        <ele>557.6</ele>
        <time>2020-12-26T12:47:50Z</time>
      </trkpt>
      <trkpt lat="46.94545" lon="5.80373">
        <ele>558</ele>
        <time>2020-12-26T12:47:51Z</time>
      </trkpt>
      <trkpt lat="46.94546" lon="5.80379">
        <ele>558</ele>
        <time>2020-12-26T12:47:52Z</time>
      </trkpt>
      <trkpt lat="46.94547" lon="5.80385">
        <ele>558.2</ele>
        <time>2020-12-26T12:47:53Z</time>
      </trkpt>
      <trkpt lat="46.94547" lon="5.8039">
        <ele>558.4</ele>
        <time>2020-12-26T12:47:54Z</time>
      </trkpt>
      <trkpt lat="46.94548" lon="5.80396">
        <ele>558.6</ele>
        <time>2020-12-26T12:47:55Z</time>
      </trkpt>
      <trkpt lat="46.94549" lon="5.80402">
        <ele>558.6</ele>
        <time>2020-12-26T12:47:56Z</time>
      </trkpt>
      <trkpt lat="46.94549" lon="5.80408">
        <ele>559</ele>
        <time>2020-12-26T12:47:57Z</time>
      </trkpt>
      <trkpt lat="46.9455" lon="5.80414">
        <ele>559</ele>
        <time>2020-12-26T12:47:58Z</time>
      </trkpt>
      <trkpt lat="46.94551" lon="5.8042">
        <ele>559.4</ele>
        <time>2020-12-26T12:47:59Z</time>
      </trkpt>
      <trkpt lat="46.94552" lon="5.80425">
        <ele>559.4</ele>
        <time>2020-12-26T12:48:00Z</time>
      </trkpt>
      <trkpt lat="46.94553" lon="5.80431">
        <ele>559.6</ele>
        <time>2020-12-26T12:48:01Z</time>
      </trkpt>
      <trkpt lat="46.94553" lon="5.80437">
        <ele>559.6</ele>
        <time>2020-12-26T12:48:02Z</time>
      </trkpt>
      <trkpt lat="46.94554" lon="5.80442">
        <ele>560</ele>
        <time>2020-12-26T12:48:03Z</time>
      </trkpt>
      <trkpt lat="46.94556" lon="5.80448">
        <ele>560</ele>
        <time>2020-12-26T12:48:04Z</time>
      </trkpt>
      <trkpt lat="46.94557" lon="5.80453">
        <ele>560.4</ele>
        <time>2020-12-26T12:48:05Z</time>
      </trkpt>
      <trkpt lat="46.94558" lon="5.80458">
        <ele>560.6</ele>
        <time>2020-12-26T12:48:06Z</time>
      </trkpt>
      <trkpt lat="46.94559" lon="5.80463">
        <ele>560.8</ele>
        <time>2020-12-26T12:48:07Z</time>
      </trkpt>
      <trkpt lat="46.9456" lon="5.80468">
        <ele>561</ele>
        <time>2020-12-26T12:48:08Z</time>
      </trkpt>
      <trkpt lat="46.94562" lon="5.80473">
        <ele>561</ele>
        <time>2020-12-26T12:48:09Z</time>
      </trkpt>
      <trkpt lat="46.94563" lon="5.80478">
        <ele>561.4</ele>
        <time>2020-12-26T12:48:10Z</time>
      </trkpt>
      <trkpt lat="46.94564" lon="5.80483">
        <ele>561.4</ele>
        <time>2020-12-26T12:48:11Z</time>
      </trkpt>
      <trkpt lat="46.94565" lon="5.80488">
        <ele>561.6</ele>
        <time>2020-12-26T12:48:12Z</time>
      </trkpt>
      <trkpt lat="46.94567" lon="5.80493">
        <ele>561.8</ele>
        <time>2020-12-26T12:48:13Z</time>
      </trkpt>
      <trkpt lat="46.94568" lon="5.80497">
        <ele>561.8</ele>
        <time>2020-12-26T12:48:14Z</time>
      </trkpt>
      <trkpt lat="46.94569" lon="5.80502">
        <ele>562.2</ele>
        <time>2020-12-26T12:48:15Z</time>
      </trkpt>
      <trkpt lat="46.94571" lon="5.80507">
        <ele>562.2</ele>
        <time>2020-12-26T12:48:16Z</time>
      </trkpt>
      <trkpt lat="46.94572" lon="5.80512">
        <ele>562.2</ele>
        <time>2020-12-26T12:48:17Z</time>
      </trkpt>
      <trkpt lat="46.94574" lon="5.80517">
        <ele>562.4</ele>
        <time>2020-12-26T12:48:18Z</time>
      </trkpt>
      <trkpt lat="46.94576" lon="5.80522">
        <ele>562.4</ele>
        <time>2020-12-26T12:48:19Z</time>
      </trkpt>
      <trkpt lat="46.94577" lon="5.80527">
        <ele>562.8</ele>
        <time>2020-12-26T12:48:20Z</time>
      </trkpt>
      <trkpt lat="46.94579" lon="5.80531">
        <ele>562.8</ele>
        <time>2020-12-26T12:48:21Z</time>
      </trkpt>
      <trkpt lat="46.94581" lon="5.80536">
        <ele>563</ele>
        <time>2020-12-26T12:48:22Z</time>
      </trkpt>
      <trkpt lat="46.94582" lon="5.80541">
        <ele>563</ele>
        <time>2020-12-26T12:48:23Z</time>
      </trkpt>
      <trkpt lat="46.94584" lon="5.80546">
        <ele>563.2</ele>
        <time>2020-12-26T12:48:24Z</time>
      </trkpt>
      <trkpt lat="46.94586" lon="5.80551">
        <ele>563.2</ele>
        <time>2020-12-26T12:48:25Z</time>
      </trkpt>
      <trkpt lat="46.94588" lon="5.80557">
        <ele>563.6</ele>
        <time>2020-12-26T12:48:26Z</time>
      </trkpt>
      <trkpt lat="46.94589" lon="5.80562">
        <ele>563.6</ele>
        <time>2020-12-26T12:48:27Z</time>
      </trkpt>
      <trkpt lat="46.94591" lon="5.80567">
        <ele>563.8</ele>
        <time>2020-12-26T12:48:28Z</time>
      </trkpt>
      <trkpt lat="46.94593" lon="5.80573">
        <ele>563.8</ele>
        <time>2020-12-26T12:48:29Z</time>
      </trkpt>
      <trkpt lat="46.94595" lon="5.80578">
        <ele>563.8</ele>
        <time>2020-12-26T12:48:30Z</time>
      </trkpt>
      <trkpt lat="46.94597" lon="5.80584">
        <ele>564</ele>
        <time>2020-12-26T12:48:31Z</time>
      </trkpt>
      <trkpt lat="46.94598" lon="5.80589">
        <ele>564</ele>
        <time>2020-12-26T12:48:32Z</time>
      </trkpt>
      <trkpt lat="46.946" lon="5.80594">
        <ele>564</ele>
        <time>2020-12-26T12:48:33Z</time>
      </trkpt>
      <trkpt lat="46.94601" lon="5.806">
        <ele>564.2</ele>
        <time>2020-12-26T12:48:34Z</time>
      </trkpt>
      <trkpt lat="46.94603" lon="5.80605">
        <ele>564.2</ele>
        <time>2020-12-26T12:48:35Z</time>
      </trkpt>
      <trkpt lat="46.94605" lon="5.80611">
        <ele>564.6</ele>
        <time>2020-12-26T12:48:36Z</time>
      </trkpt>
      <trkpt lat="46.94607" lon="5.80616">
        <ele>564.6</ele>
        <time>2020-12-26T12:48:37Z</time>
      </trkpt>
      <trkpt lat="46.94608" lon="5.80622">
        <ele>565</ele>
        <time>2020-12-26T12:48:38Z</time>
      </trkpt>
      <trkpt lat="46.9461" lon="5.80627">
        <ele>565</ele>
        <time>2020-12-26T12:48:39Z</time>
      </trkpt>
      <trkpt lat="46.94611" lon="5.80633">
        <ele>565.4</ele>
        <time>2020-12-26T12:48:40Z</time>
      </trkpt>
      <trkpt lat="46.94612" lon="5.80639">
        <ele>565.4</ele>
        <time>2020-12-26T12:48:41Z</time>
      </trkpt>
      <trkpt lat="46.94614" lon="5.80645">
        <ele>565.6</ele>
        <time>2020-12-26T12:48:42Z</time>
      </trkpt>
      <trkpt lat="46.94615" lon="5.80651">
        <ele>565.6</ele>
        <time>2020-12-26T12:48:43Z</time>
      </trkpt>
      <trkpt lat="46.94616" lon="5.80656">
        <ele>565.6</ele>
        <time>2020-12-26T12:48:44Z</time>
      </trkpt>
      <trkpt lat="46.94618" lon="5.80662">
        <ele>566</ele>
        <time>2020-12-26T12:48:45Z</time>
      </trkpt>
      <trkpt lat="46.94619" lon="5.80668">
        <ele>566</ele>
        <time>2020-12-26T12:48:46Z</time>
      </trkpt>
      <trkpt lat="46.9462" lon="5.80674">
        <ele>566.2</ele>
        <time>2020-12-26T12:48:47Z</time>
      </trkpt>
      <trkpt lat="46.94621" lon="5.8068">
        <ele>566.2</ele>
        <time>2020-12-26T12:48:48Z</time>
      </trkpt>
      <trkpt lat="46.94622" lon="5.80686">
        <ele>566.4</ele>
        <time>2020-12-26T12:48:49Z</time>
      </trkpt>
      <trkpt lat="46.94623" lon="5.80692">
        <ele>566.4</ele>
        <time>2020-12-26T12:48:50Z</time>
      </trkpt>
      <trkpt lat="46.94624" lon="5.80698">
        <ele>566.4</ele>
        <time>2020-12-26T12:48:51Z</time>
      </trkpt>
      <trkpt lat="46.94625" lon="5.80704">
        <ele>566.4</ele>
        <time>2020-12-26T12:48:52Z</time>
      </trkpt>
      <trkpt lat="46.94627" lon="5.8071">
        <ele>566.6</ele>
        <time>2020-12-26T12:48:53Z</time>
      </trkpt>
      <trkpt lat="46.94628" lon="5.80716">
        <ele>566.6</ele>
        <time>2020-12-26T12:48:54Z</time>
      </trkpt>
      <trkpt lat="46.94629" lon="5.80722">
        <ele>566.6</ele>
        <time>2020-12-26T12:48:55Z</time>
      </trkpt>
      <trkpt lat="46.9463" lon="5.80728">
        <ele>566.6</ele>
        <time>2020-12-26T12:48:56Z</time>
      </trkpt>
      <trkpt lat="46.94631" lon="5.80734">
        <ele>566.6</ele>
        <time>2020-12-26T12:48:57Z</time>
      </trkpt>
      <trkpt lat="46.94632" lon="5.8074">
        <ele>566.8</ele>
        <time>2020-12-26T12:48:58Z</time>
      </trkpt>
      <trkpt lat="46.94633" lon="5.80746">
        <ele>566.8</ele>
        <time>2020-12-26T12:48:59Z</time>
      </trkpt>
      <trkpt lat="46.94634" lon="5.80752">
        <ele>566.8</ele>
        <time>2020-12-26T12:49:00Z</time>
      </trkpt>
      <trkpt lat="46.94635" lon="5.80758">
        <ele>566.8</ele>
        <time>2020-12-26T12:49:01Z</time>
      </trkpt>
      <trkpt lat="46.94636" lon="5.80764">
        <ele>566.8</ele>
        <time>2020-12-26T12:49:02Z</time>
      </trkpt>
      <trkpt lat="46.94637" lon="5.80771">
        <ele>566.8</ele>
        <time>2020-12-26T12:49:03Z</time>
      </trkpt>
      <trkpt lat="46.94639" lon="5.80777">
        <ele>566.8</ele>
        <time>2020-12-26T12:49:04Z</time>
      </trkpt>
      <trkpt lat="46.9464" lon="5.80784">
        <ele>566.8</ele>
        <time>2020-12-26T12:49:05Z</time>
      </trkpt>
      <trkpt lat="46.94642" lon="5.80791">
        <ele>566.8</ele>
        <time>2020-12-26T12:49:06Z</time>
      </trkpt>
      <trkpt lat="46.94643" lon="5.80798">
        <ele>566.8</ele>
        <time>2020-12-26T12:49:07Z</time>
      </trkpt>
      <trkpt lat="46.94645" lon="5.80806">
        <ele>566.8</ele>
        <time>2020-12-26T12:49:08Z</time>
      </trkpt>
      <trkpt lat="46.94646" lon="5.80813">
        <ele>566.8</ele>
        <time>2020-12-26T12:49:09Z</time>
      </trkpt>
      <trkpt lat="46.94648" lon="5.80821">
        <ele>566.8</ele>
        <time>2020-12-26T12:49:10Z</time>
      </trkpt>
      <trkpt lat="46.94649" lon="5.80829">
        <ele>566.8</ele>
        <time>2020-12-26T12:49:11Z</time>
      </trkpt>
      <trkpt lat="46.94651" lon="5.80837">
        <ele>566.8</ele>
        <time>2020-12-26T12:49:12Z</time>
      </trkpt>
      <trkpt lat="46.94653" lon="5.80845">
        <ele>566.8</ele>
        <time>2020-12-26T12:49:13Z</time>
      </trkpt>
      <trkpt lat="46.94654" lon="5.80853">
        <ele>566.8</ele>
        <time>2020-12-26T12:49:14Z</time>
      </trkpt>
      <trkpt lat="46.94656" lon="5.80861">
        <ele>566.6</ele>
        <time>2020-12-26T12:49:15Z</time>
      </trkpt>
      <trkpt lat="46.94658" lon="5.80869">
        <ele>566.6</ele>
        <time>2020-12-26T12:49:16Z</time>
      </trkpt>
      <trkpt lat="46.94659" lon="5.80878">
        <ele>566.6</ele>
        <time>2020-12-26T12:49:17Z</time>
      </trkpt>
      <trkpt lat="46.94661" lon="5.80886">
        <ele>566.4</ele>
        <time>2020-12-26T12:49:18Z</time>
      </trkpt>
      <trkpt lat="46.94663" lon="5.80895">
        <ele>566.2</ele>
        <time>2020-12-26T12:49:19Z</time>
      </trkpt>
      <trkpt lat="46.94664" lon="5.80904">
        <ele>566.2</ele>
        <time>2020-12-26T12:49:20Z</time>
      </trkpt>
      <trkpt lat="46.94666" lon="5.80914">
        <ele>566.2</ele>
        <time>2020-12-26T12:49:21Z</time>
      </trkpt>
      <trkpt lat="46.94668" lon="5.80923">
        <ele>566</ele>
        <time>2020-12-26T12:49:22Z</time>
      </trkpt>
      <trkpt lat="46.9467" lon="5.80933">
        <ele>565.8</ele>
        <time>2020-12-26T12:49:23Z</time>
      </trkpt>
      <trkpt lat="46.94672" lon="5.80943">
        <ele>565.4</ele>
        <time>2020-12-26T12:49:24Z</time>
      </trkpt>
      <trkpt lat="46.94675" lon="5.80954">
        <ele>565</ele>
        <time>2020-12-26T12:49:25Z</time>
      </trkpt>
      <trkpt lat="46.94677" lon="5.80964">
        <ele>564.6</ele>
        <time>2020-12-26T12:49:26Z</time>
      </trkpt>
      <trkpt lat="46.94679" lon="5.80975">
        <ele>564.4</ele>
        <time>2020-12-26T12:49:27Z</time>
      </trkpt>
      <trkpt lat="46.94681" lon="5.80986">
        <ele>564</ele>
        <time>2020-12-26T12:49:28Z</time>
      </trkpt>
      <trkpt lat="46.94683" lon="5.80997">
        <ele>563.6</ele>
        <time>2020-12-26T12:49:29Z</time>
      </trkpt>
      <trkpt lat="46.94686" lon="5.81008">
        <ele>563.2</ele>
        <time>2020-12-26T12:49:30Z</time>
      </trkpt>
      <trkpt lat="46.94688" lon="5.8102">
        <ele>562.8</ele>
        <time>2020-12-26T12:49:31Z</time>
      </trkpt>
      <trkpt lat="46.9469" lon="5.81031">
        <ele>562.4</ele>
        <time>2020-12-26T12:49:32Z</time>
      </trkpt>
      <trkpt lat="46.94693" lon="5.81043">
        <ele>562</ele>
        <time>2020-12-26T12:49:33Z</time>
      </trkpt>
      <trkpt lat="46.94695" lon="5.81055">
        <ele>561.6</ele>
        <time>2020-12-26T12:49:34Z</time>
      </trkpt>
      <trkpt lat="46.94698" lon="5.81067">
        <ele>561.2</ele>
        <time>2020-12-26T12:49:35Z</time>
      </trkpt>
      <trkpt lat="46.947" lon="5.81079">
        <ele>561.2</ele>
        <time>2020-12-26T12:49:36Z</time>
      </trkpt>
      <trkpt lat="46.94703" lon="5.81091">
        <ele>560.6</ele>
        <time>2020-12-26T12:49:37Z</time>
      </trkpt>
      <trkpt lat="46.94705" lon="5.81104">
        <ele>560.2</ele>
        <time>2020-12-26T12:49:38Z</time>
      </trkpt>
      <trkpt lat="46.94708" lon="5.81117">
        <ele>560</ele>
        <time>2020-12-26T12:49:39Z</time>
      </trkpt>
      <trkpt lat="46.94711" lon="5.8113">
        <ele>559.8</ele>
        <time>2020-12-26T12:49:40Z</time>
      </trkpt>
      <trkpt lat="46.94714" lon="5.81144">
        <ele>559.4</ele>
        <time>2020-12-26T12:49:41Z</time>
      </trkpt>
      <trkpt lat="46.94717" lon="5.81157">
        <ele>559.2</ele>
        <time>2020-12-26T12:49:42Z</time>
      </trkpt>
      <trkpt lat="46.94719" lon="5.8117">
        <ele>558.8</ele>
        <time>2020-12-26T12:49:43Z</time>
      </trkpt>
      <trkpt lat="46.94722" lon="5.81183">
        <ele>558.4</ele>
        <time>2020-12-26T12:49:44Z</time>
      </trkpt>
      <trkpt lat="46.94724" lon="5.81196">
        <ele>558</ele>
        <time>2020-12-26T12:49:45Z</time>
      </trkpt>
      <trkpt lat="46.94727" lon="5.8121">
        <ele>557.8</ele>
        <time>2020-12-26T12:49:46Z</time>
      </trkpt>
      <trkpt lat="46.9473" lon="5.81224">
        <ele>557.4</ele>
        <time>2020-12-26T12:49:47Z</time>
      </trkpt>
      <trkpt lat="46.94733" lon="5.81237">
        <ele>557.2</ele>
        <time>2020-12-26T12:49:48Z</time>
      </trkpt>
      <trkpt lat="46.94735" lon="5.8125">
        <ele>557.2</ele>
        <time>2020-12-26T12:49:49Z</time>
      </trkpt>
      <trkpt lat="46.94738" lon="5.81263">
        <ele>557.2</ele>
        <time>2020-12-26T12:49:50Z</time>
      </trkpt>
      <trkpt lat="46.9474" lon="5.81274">
        <ele>557</ele>
        <time>2020-12-26T12:49:51Z</time>
      </trkpt>
      <trkpt lat="46.94743" lon="5.81286">
        <ele>557</ele>
        <time>2020-12-26T12:49:52Z</time>
      </trkpt>
      <trkpt lat="46.94745" lon="5.81298">
        <ele>557</ele>
        <time>2020-12-26T12:49:53Z</time>
      </trkpt>
      <trkpt lat="46.94748" lon="5.81309">
        <ele>557</ele>
        <time>2020-12-26T12:49:54Z</time>
      </trkpt>
      <trkpt lat="46.9475" lon="5.81321">
        <ele>557.4</ele>
        <time>2020-12-26T12:49:55Z</time>
      </trkpt>
      <trkpt lat="46.94753" lon="5.81332">
        <ele>557.8</ele>
        <time>2020-12-26T12:49:56Z</time>
      </trkpt>
      <trkpt lat="46.94755" lon="5.81342">
        <ele>558</ele>
        <time>2020-12-26T12:49:57Z</time>
      </trkpt>
      <trkpt lat="46.94757" lon="5.81351">
        <ele>558.4</ele>
        <time>2020-12-26T12:49:58Z</time>
      </trkpt>
      <trkpt lat="46.94758" lon="5.81359">
        <ele>558.8</ele>
        <time>2020-12-26T12:49:59Z</time>
      </trkpt>
      <trkpt lat="46.9476" lon="5.81367">
        <ele>559.2</ele>
        <time>2020-12-26T12:50:00Z</time>
      </trkpt>
      <trkpt lat="46.94761" lon="5.81375">
        <ele>559.6</ele>
        <time>2020-12-26T12:50:01Z</time>
      </trkpt>
      <trkpt lat="46.94763" lon="5.81382">
        <ele>559.8</ele>
        <time>2020-12-26T12:50:02Z</time>
      </trkpt>
      <trkpt lat="46.94765" lon="5.8139">
        <ele>559.8</ele>
        <time>2020-12-26T12:50:03Z</time>
      </trkpt>
      <trkpt lat="46.94767" lon="5.81397">
        <ele>560.2</ele>
        <time>2020-12-26T12:50:04Z</time>
      </trkpt>
      <trkpt lat="46.94768" lon="5.81405">
        <ele>560.2</ele>
        <time>2020-12-26T12:50:05Z</time>
      </trkpt>
      <trkpt lat="46.94769" lon="5.81413">
        <ele>560.6</ele>
        <time>2020-12-26T12:50:06Z</time>
      </trkpt>
      <trkpt lat="46.94771" lon="5.81421">
        <ele>560.8</ele>
        <time>2020-12-26T12:50:07Z</time>
      </trkpt>
      <trkpt lat="46.94773" lon="5.81429">
        <ele>561.2</ele>
        <time>2020-12-26T12:50:08Z</time>
      </trkpt>
      <trkpt lat="46.94774" lon="5.81436">
        <ele>561.4</ele>
        <time>2020-12-26T12:50:09Z</time>
      </trkpt>
      <trkpt lat="46.94775" lon="5.81443">
        <ele>561.8</ele>
        <time>2020-12-26T12:50:10Z</time>
      </trkpt>
      <trkpt lat="46.94777" lon="5.8145">
        <ele>562</ele>
        <time>2020-12-26T12:50:11Z</time>
      </trkpt>
      <trkpt lat="46.94778" lon="5.81457">
        <ele>562.4</ele>
        <time>2020-12-26T12:50:12Z</time>
      </trkpt>
      <trkpt lat="46.9478" lon="5.81464">
        <ele>562.8</ele>
        <time>2020-12-26T12:50:13Z</time>
      </trkpt>
      <trkpt lat="46.94781" lon="5.81471">
        <ele>563</ele>
        <time>2020-12-26T12:50:14Z</time>
      </trkpt>
      <trkpt lat="46.94783" lon="5.81477">
        <ele>563.2</ele>
        <time>2020-12-26T12:50:15Z</time>
      </trkpt>
      <trkpt lat="46.94784" lon="5.81485">
        <ele>563.6</ele>
        <time>2020-12-26T12:50:16Z</time>
      </trkpt>
      <trkpt lat="46.94786" lon="5.81491">
        <ele>563.8</ele>
        <time>2020-12-26T12:50:17Z</time>
      </trkpt>
      <trkpt lat="46.94787" lon="5.81498">
        <ele>563.8</ele>
        <time>2020-12-26T12:50:18Z</time>
      </trkpt>
      <trkpt lat="46.94788" lon="5.81505">
        <ele>564.2</ele>
        <time>2020-12-26T12:50:19Z</time>
      </trkpt>
      <trkpt lat="46.9479" lon="5.81512">
        <ele>564.2</ele>
        <time>2020-12-26T12:50:20Z</time>
      </trkpt>
      <trkpt lat="46.94792" lon="5.81519">
        <ele>564.6</ele>
        <time>2020-12-26T12:50:21Z</time>
      </trkpt>
      <trkpt lat="46.94793" lon="5.81526">
        <ele>564.8</ele>
        <time>2020-12-26T12:50:22Z</time>
      </trkpt>
      <trkpt lat="46.94794" lon="5.81532">
        <ele>565.2</ele>
        <time>2020-12-26T12:50:23Z</time>
      </trkpt>
      <trkpt lat="46.94796" lon="5.81539">
        <ele>565.4</ele>
        <time>2020-12-26T12:50:24Z</time>
      </trkpt>
      <trkpt lat="46.94797" lon="5.81545">
        <ele>565.8</ele>
        <time>2020-12-26T12:50:25Z</time>
      </trkpt>
      <trkpt lat="46.94798" lon="5.81551">
        <ele>566</ele>
        <time>2020-12-26T12:50:26Z</time>
      </trkpt>
      <trkpt lat="46.94799" lon="5.81557">
        <ele>566</ele>
        <time>2020-12-26T12:50:27Z</time>
      </trkpt>
      <trkpt lat="46.948" lon="5.81562">
        <ele>566.4</ele>
        <time>2020-12-26T12:50:28Z</time>
      </trkpt>
      <trkpt lat="46.94801" lon="5.81568">
        <ele>566.6</ele>
        <time>2020-12-26T12:50:29Z</time>
      </trkpt>
      <trkpt lat="46.94802" lon="5.81573">
        <ele>566.8</ele>
        <time>2020-12-26T12:50:30Z</time>
      </trkpt>
      <trkpt lat="46.94803" lon="5.81579">
        <ele>567</ele>
        <time>2020-12-26T12:50:31Z</time>
      </trkpt>
      <trkpt lat="46.94804" lon="5.81584">
        <ele>567</ele>
        <time>2020-12-26T12:50:32Z</time>
      </trkpt>
      <trkpt lat="46.94805" lon="5.8159">
        <ele>567.4</ele>
        <time>2020-12-26T12:50:33Z</time>
      </trkpt>
      <trkpt lat="46.94806" lon="5.81595">
        <ele>567.8</ele>
        <time>2020-12-26T12:50:34Z</time>
      </trkpt>
      <trkpt lat="46.94807" lon="5.81601">
        <ele>568</ele>
        <time>2020-12-26T12:50:35Z</time>
      </trkpt>
      <trkpt lat="46.94809" lon="5.81606">
        <ele>568.2</ele>
        <time>2020-12-26T12:50:36Z</time>
      </trkpt>
      <trkpt lat="46.9481" lon="5.81612">
        <ele>568.6</ele>
        <time>2020-12-26T12:50:37Z</time>
      </trkpt>
      <trkpt lat="46.94811" lon="5.81618">
        <ele>568.8</ele>
        <time>2020-12-26T12:50:38Z</time>
      </trkpt>
      <trkpt lat="46.94812" lon="5.81624">
        <ele>568.8</ele>
        <time>2020-12-26T12:50:39Z</time>
      </trkpt>
      <trkpt lat="46.94813" lon="5.8163">
        <ele>569</ele>
        <time>2020-12-26T12:50:40Z</time>
      </trkpt>
      <trkpt lat="46.94815" lon="5.81637">
        <ele>569.2</ele>
        <time>2020-12-26T12:50:41Z</time>
      </trkpt>
      <trkpt lat="46.94817" lon="5.81643">
        <ele>569.6</ele>
        <time>2020-12-26T12:50:42Z</time>
      </trkpt>
      <trkpt lat="46.94818" lon="5.81649">
        <ele>569.6</ele>
        <time>2020-12-26T12:50:43Z</time>
      </trkpt>
      <trkpt lat="46.94819" lon="5.81656">
        <ele>569.8</ele>
        <time>2020-12-26T12:50:44Z</time>
      </trkpt>
      <trkpt lat="46.94821" lon="5.81663">
        <ele>569.8</ele>
        <time>2020-12-26T12:50:45Z</time>
      </trkpt>
      <trkpt lat="46.94822" lon="5.81669">
        <ele>569.8</ele>
        <time>2020-12-26T12:50:46Z</time>
      </trkpt>
      <trkpt lat="46.94824" lon="5.81676">
        <ele>570</ele>
        <time>2020-12-26T12:50:47Z</time>
      </trkpt>
      <trkpt lat="46.94825" lon="5.81683">
        <ele>570</ele>
        <time>2020-12-26T12:50:48Z</time>
      </trkpt>
      <trkpt lat="46.94827" lon="5.81689">
        <ele>570.2</ele>
        <time>2020-12-26T12:50:49Z</time>
      </trkpt>
      <trkpt lat="46.94829" lon="5.81696">
        <ele>570.2</ele>
        <time>2020-12-26T12:50:50Z</time>
      </trkpt>
      <trkpt lat="46.9483" lon="5.81702">
        <ele>570.2</ele>
        <time>2020-12-26T12:50:51Z</time>
      </trkpt>
      <trkpt lat="46.94832" lon="5.81709">
        <ele>570.6</ele>
        <time>2020-12-26T12:50:52Z</time>
      </trkpt>
      <trkpt lat="46.94834" lon="5.81716">
        <ele>570.6</ele>
        <time>2020-12-26T12:50:53Z</time>
      </trkpt>
      <trkpt lat="46.94837" lon="5.81722">
        <ele>570.6</ele>
        <time>2020-12-26T12:50:54Z</time>
      </trkpt>
      <trkpt lat="46.94839" lon="5.81729">
        <ele>570.6</ele>
        <time>2020-12-26T12:50:55Z</time>
      </trkpt>
      <trkpt lat="46.94842" lon="5.81735">
        <ele>570.6</ele>
        <time>2020-12-26T12:50:56Z</time>
      </trkpt>
      <trkpt lat="46.94845" lon="5.81741">
        <ele>570.4</ele>
        <time>2020-12-26T12:50:57Z</time>
      </trkpt>
      <trkpt lat="46.94848" lon="5.81747">
        <ele>570.4</ele>
        <time>2020-12-26T12:50:58Z</time>
      </trkpt>
      <trkpt lat="46.94851" lon="5.81753">
        <ele>570.4</ele>
        <time>2020-12-26T12:50:59Z</time>
      </trkpt>
      <trkpt lat="46.94855" lon="5.81759">
        <ele>570.4</ele>
        <time>2020-12-26T12:51:00Z</time>
      </trkpt>
      <trkpt lat="46.94859" lon="5.81765">
        <ele>570.4</ele>
        <time>2020-12-26T12:51:01Z</time>
      </trkpt>
      <trkpt lat="46.94862" lon="5.81771">
        <ele>570.4</ele>
        <time>2020-12-26T12:51:02Z</time>
      </trkpt>
      <trkpt lat="46.94866" lon="5.81777">
        <ele>570</ele>
        <time>2020-12-26T12:51:03Z</time>
      </trkpt>
      <trkpt lat="46.9487" lon="5.81783">
        <ele>570</ele>
        <time>2020-12-26T12:51:04Z</time>
      </trkpt>
      <trkpt lat="46.94873" lon="5.81789">
        <ele>570</ele>
        <time>2020-12-26T12:51:05Z</time>
      </trkpt>
      <trkpt lat="46.94877" lon="5.81796">
        <ele>569.8</ele>
        <time>2020-12-26T12:51:06Z</time>
      </trkpt>
      <trkpt lat="46.9488" lon="5.81803">
        <ele>569.8</ele>
        <time>2020-12-26T12:51:07Z</time>
      </trkpt>
      <trkpt lat="46.94883" lon="5.81811">
        <ele>569.8</ele>
        <time>2020-12-26T12:51:08Z</time>
      </trkpt>
      <trkpt lat="46.94885" lon="5.81819">
        <ele>569.8</ele>
        <time>2020-12-26T12:51:09Z</time>
      </trkpt>
      <trkpt lat="46.94888" lon="5.81827">
        <ele>569.4</ele>
        <time>2020-12-26T12:51:10Z</time>
      </trkpt>
      <trkpt lat="46.9489" lon="5.81835">
        <ele>569.4</ele>
        <time>2020-12-26T12:51:11Z</time>
      </trkpt>
      <trkpt lat="46.94891" lon="5.81843">
        <ele>569.2</ele>
        <time>2020-12-26T12:51:12Z</time>
      </trkpt>
      <trkpt lat="46.94892" lon="5.81851">
        <ele>569.2</ele>
        <time>2020-12-26T12:51:13Z</time>
      </trkpt>
      <trkpt lat="46.94893" lon="5.8186">
        <ele>569</ele>
        <time>2020-12-26T12:51:14Z</time>
      </trkpt>
      <trkpt lat="46.94893" lon="5.81869">
        <ele>569</ele>
        <time>2020-12-26T12:51:15Z</time>
      </trkpt>
      <trkpt lat="46.94893" lon="5.81879">
        <ele>568.6</ele>
        <time>2020-12-26T12:51:16Z</time>
      </trkpt>
      <trkpt lat="46.94892" lon="5.81889">
        <ele>568.6</ele>
        <time>2020-12-26T12:51:17Z</time>
      </trkpt>
      <trkpt lat="46.94892" lon="5.81898">
        <ele>568.4</ele>
        <time>2020-12-26T12:51:18Z</time>
      </trkpt>
      <trkpt lat="46.94891" lon="5.81908">
        <ele>568.4</ele>
        <time>2020-12-26T12:51:19Z</time>
      </trkpt>
      <trkpt lat="46.9489" lon="5.81917">
        <ele>568.4</ele>
        <time>2020-12-26T12:51:20Z</time>
      </trkpt>
      <trkpt lat="46.94889" lon="5.81926">
        <ele>568.4</ele>
        <time>2020-12-26T12:51:21Z</time>
      </trkpt>
      <trkpt lat="46.94887" lon="5.81935">
        <ele>568.4</ele>
        <time>2020-12-26T12:51:22Z</time>
      </trkpt>
      <trkpt lat="46.94885" lon="5.81944">
        <ele>568.4</ele>
        <time>2020-12-26T12:51:23Z</time>
      </trkpt>
      <trkpt lat="46.94883" lon="5.81953">
        <ele>568.4</ele>
        <time>2020-12-26T12:51:24Z</time>
      </trkpt>
      <trkpt lat="46.94882" lon="5.81961">
        <ele>568.6</ele>
        <time>2020-12-26T12:51:25Z</time>
      </trkpt>
      <trkpt lat="46.94881" lon="5.8197">
        <ele>568.6</ele>
        <time>2020-12-26T12:51:26Z</time>
      </trkpt>
      <trkpt lat="46.94881" lon="5.81978">
        <ele>568.6</ele>
        <time>2020-12-26T12:51:27Z</time>
      </trkpt>
      <trkpt lat="46.94882" lon="5.81987">
        <ele>568.6</ele>
        <time>2020-12-26T12:51:28Z</time>
      </trkpt>
      <trkpt lat="46.94883" lon="5.81994">
        <ele>568.8</ele>
        <time>2020-12-26T12:51:29Z</time>
      </trkpt>
      <trkpt lat="46.94885" lon="5.82002">
        <ele>568.8</ele>
        <time>2020-12-26T12:51:30Z</time>
      </trkpt>
      <trkpt lat="46.94887" lon="5.82009">
        <ele>569.2</ele>
        <time>2020-12-26T12:51:31Z</time>
      </trkpt>
      <trkpt lat="46.94889" lon="5.82016">
        <ele>569.2</ele>
        <time>2020-12-26T12:51:32Z</time>
      </trkpt>
      <trkpt lat="46.94891" lon="5.82023">
        <ele>569.4</ele>
        <time>2020-12-26T12:51:33Z</time>
      </trkpt>
      <trkpt lat="46.94894" lon="5.82029">
        <ele>569.6</ele>
        <time>2020-12-26T12:51:34Z</time>
      </trkpt>
      <trkpt lat="46.94896" lon="5.82035">
        <ele>570</ele>
        <time>2020-12-26T12:51:35Z</time>
      </trkpt>
      <trkpt lat="46.94898" lon="5.82042">
        <ele>570</ele>
        <time>2020-12-26T12:51:36Z</time>
      </trkpt>
      <trkpt lat="46.949" lon="5.82048">
        <ele>570.4</ele>
        <time>2020-12-26T12:51:37Z</time>
      </trkpt>
      <trkpt lat="46.94902" lon="5.82055">
        <ele>570.6</ele>
        <time>2020-12-26T12:51:38Z</time>
      </trkpt>
      <trkpt lat="46.94904" lon="5.82061">
        <ele>570.8</ele>
        <time>2020-12-26T12:51:39Z</time>
      </trkpt>
      <trkpt lat="46.94905" lon="5.82068">
        <ele>571.2</ele>
        <time>2020-12-26T12:51:40Z</time>
      </trkpt>
      <trkpt lat="46.94907" lon="5.82074">
        <ele>571.4</ele>
        <time>2020-12-26T12:51:41Z</time>
      </trkpt>
      <trkpt lat="46.94909" lon="5.82081">
        <ele>571.8</ele>
        <time>2020-12-26T12:51:42Z</time>
      </trkpt>
      <trkpt lat="46.9491" lon="5.82087">
        <ele>572</ele>
        <time>2020-12-26T12:51:43Z</time>
      </trkpt>
      <trkpt lat="46.94911" lon="5.82094">
        <ele>572.4</ele>
        <time>2020-12-26T12:51:44Z</time>
      </trkpt>
      <trkpt lat="46.94912" lon="5.821">
        <ele>572.6</ele>
        <time>2020-12-26T12:51:45Z</time>
      </trkpt>
      <trkpt lat="46.94914" lon="5.82106">
        <ele>572.8</ele>
        <time>2020-12-26T12:51:46Z</time>
      </trkpt>
      <trkpt lat="46.94915" lon="5.82112">
        <ele>573.2</ele>
        <time>2020-12-26T12:51:47Z</time>
      </trkpt>
      <trkpt lat="46.94916" lon="5.82118">
        <ele>573.4</ele>
        <time>2020-12-26T12:51:48Z</time>
      </trkpt>
      <trkpt lat="46.94918" lon="5.82125">
        <ele>573.8</ele>
        <time>2020-12-26T12:51:49Z</time>
      </trkpt>
      <trkpt lat="46.94919" lon="5.82131">
        <ele>573.8</ele>
        <time>2020-12-26T12:51:50Z</time>
      </trkpt>
      <trkpt lat="46.94921" lon="5.82138">
        <ele>574.2</ele>
        <time>2020-12-26T12:51:51Z</time>
      </trkpt>
      <trkpt lat="46.94922" lon="5.82144">
        <ele>574.4</ele>
        <time>2020-12-26T12:51:52Z</time>
      </trkpt>
      <trkpt lat="46.94924" lon="5.82151">
        <ele>574.6</ele>
        <time>2020-12-26T12:51:53Z</time>
      </trkpt>
      <trkpt lat="46.94925" lon="5.82158">
        <ele>574.6</ele>
        <time>2020-12-26T12:51:54Z</time>
      </trkpt>
      <trkpt lat="46.94926" lon="5.82165">
        <ele>575</ele>
        <time>2020-12-26T12:51:55Z</time>
      </trkpt>
      <trkpt lat="46.94928" lon="5.82172">
        <ele>575</ele>
        <time>2020-12-26T12:51:56Z</time>
      </trkpt>
      <trkpt lat="46.94929" lon="5.82179">
        <ele>575.2</ele>
        <time>2020-12-26T12:51:57Z</time>
      </trkpt>
      <trkpt lat="46.94931" lon="5.82186">
        <ele>575.2</ele>
        <time>2020-12-26T12:51:58Z</time>
      </trkpt>
      <trkpt lat="46.94932" lon="5.82194">
        <ele>575.2</ele>
        <time>2020-12-26T12:51:59Z</time>
      </trkpt>
      <trkpt lat="46.94934" lon="5.82202">
        <ele>575.2</ele>
        <time>2020-12-26T12:52:00Z</time>
      </trkpt>
      <trkpt lat="46.94936" lon="5.8221">
        <ele>575.6</ele>
        <time>2020-12-26T12:52:01Z</time>
      </trkpt>
      <trkpt lat="46.94937" lon="5.82218">
        <ele>575.6</ele>
        <time>2020-12-26T12:52:02Z</time>
      </trkpt>
      <trkpt lat="46.94939" lon="5.82226">
        <ele>575.6</ele>
        <time>2020-12-26T12:52:03Z</time>
      </trkpt>
      <trkpt lat="46.94941" lon="5.82235">
        <ele>575.6</ele>
        <time>2020-12-26T12:52:04Z</time>
      </trkpt>
      <trkpt lat="46.94943" lon="5.82243">
        <ele>575.6</ele>
        <time>2020-12-26T12:52:05Z</time>
      </trkpt>
      <trkpt lat="46.94944" lon="5.82251">
        <ele>575.6</ele>
        <time>2020-12-26T12:52:06Z</time>
      </trkpt>
      <trkpt lat="46.94946" lon="5.8226">
        <ele>575.4</ele>
        <time>2020-12-26T12:52:07Z</time>
      </trkpt>
      <trkpt lat="46.94948" lon="5.82268">
        <ele>575.4</ele>
        <time>2020-12-26T12:52:08Z</time>
      </trkpt>
      <trkpt lat="46.94949" lon="5.82276">
        <ele>575.4</ele>
        <time>2020-12-26T12:52:09Z</time>
      </trkpt>
      <trkpt lat="46.94951" lon="5.82284">
        <ele>575</ele>
        <time>2020-12-26T12:52:10Z</time>
      </trkpt>
      <trkpt lat="46.94952" lon="5.82293">
        <ele>574.8</ele>
        <time>2020-12-26T12:52:11Z</time>
      </trkpt>
      <trkpt lat="46.94954" lon="5.82302">
        <ele>574.8</ele>
        <time>2020-12-26T12:52:12Z</time>
      </trkpt>
      <trkpt lat="46.94956" lon="5.82311">
        <ele>574.4</ele>
        <time>2020-12-26T12:52:13Z</time>
      </trkpt>
      <trkpt lat="46.94958" lon="5.8232">
        <ele>574.2</ele>
        <time>2020-12-26T12:52:14Z</time>
      </trkpt>
      <trkpt lat="46.9496" lon="5.82331">
        <ele>574</ele>
        <time>2020-12-26T12:52:15Z</time>
      </trkpt>
      <trkpt lat="46.94962" lon="5.82343">
        <ele>573.6</ele>
        <time>2020-12-26T12:52:16Z</time>
      </trkpt>
      <trkpt lat="46.94964" lon="5.82355">
        <ele>573</ele>
        <time>2020-12-26T12:52:17Z</time>
      </trkpt>
      <trkpt lat="46.94965" lon="5.82367">
        <ele>572.4</ele>
        <time>2020-12-26T12:52:18Z</time>
      </trkpt>
      <trkpt lat="46.94966" lon="5.8238">
        <ele>572</ele>
        <time>2020-12-26T12:52:19Z</time>
      </trkpt>
      <trkpt lat="46.94968" lon="5.82394">
        <ele>571.6</ele>
        <time>2020-12-26T12:52:20Z</time>
      </trkpt>
      <trkpt lat="46.94969" lon="5.82408">
        <ele>571</ele>
        <time>2020-12-26T12:52:21Z</time>
      </trkpt>
      <trkpt lat="46.9497" lon="5.82422">
        <ele>570.6</ele>
        <time>2020-12-26T12:52:22Z</time>
      </trkpt>
      <trkpt lat="46.94971" lon="5.82436">
        <ele>570.2</ele>
        <time>2020-12-26T12:52:23Z</time>
      </trkpt>
      <trkpt lat="46.94972" lon="5.8245">
        <ele>569.8</ele>
        <time>2020-12-26T12:52:24Z</time>
      </trkpt>
      <trkpt lat="46.94972" lon="5.82464">
        <ele>569.6</ele>
        <time>2020-12-26T12:52:25Z</time>
      </trkpt>
      <trkpt lat="46.94973" lon="5.82479">
        <ele>569.2</ele>
        <time>2020-12-26T12:52:26Z</time>
      </trkpt>
      <trkpt lat="46.94974" lon="5.82493">
        <ele>568.8</ele>
        <time>2020-12-26T12:52:27Z</time>
      </trkpt>
      <trkpt lat="46.94974" lon="5.82507">
        <ele>568.2</ele>
        <time>2020-12-26T12:52:28Z</time>
      </trkpt>
      <trkpt lat="46.94975" lon="5.82523">
        <ele>567.8</ele>
        <time>2020-12-26T12:52:29Z</time>
      </trkpt>
      <trkpt lat="46.94976" lon="5.82538">
        <ele>567.2</ele>
        <time>2020-12-26T12:52:30Z</time>
      </trkpt>
      <trkpt lat="46.94977" lon="5.82553">
        <ele>566.6</ele>
        <time>2020-12-26T12:52:31Z</time>
      </trkpt>
      <trkpt lat="46.94978" lon="5.82568">
        <ele>565.8</ele>
        <time>2020-12-26T12:52:32Z</time>
      </trkpt>
      <trkpt lat="46.94979" lon="5.82583">
        <ele>565</ele>
        <time>2020-12-26T12:52:33Z</time>
      </trkpt>
      <trkpt lat="46.94979" lon="5.82599">
        <ele>564.4</ele>
        <time>2020-12-26T12:52:34Z</time>
      </trkpt>
      <trkpt lat="46.94981" lon="5.82616">
        <ele>563.6</ele>
        <time>2020-12-26T12:52:35Z</time>
      </trkpt>
      <trkpt lat="46.94982" lon="5.82633">
        <ele>563.2</ele>
        <time>2020-12-26T12:52:36Z</time>
      </trkpt>
      <trkpt lat="46.94983" lon="5.8265">
        <ele>562.4</ele>
        <time>2020-12-26T12:52:37Z</time>
      </trkpt>
      <trkpt lat="46.94984" lon="5.82667">
        <ele>561.8</ele>
        <time>2020-12-26T12:52:38Z</time>
      </trkpt>
      <trkpt lat="46.94985" lon="5.82683">
        <ele>561.4</ele>
        <time>2020-12-26T12:52:39Z</time>
      </trkpt>
      <trkpt lat="46.94986" lon="5.82699">
        <ele>561</ele>
        <time>2020-12-26T12:52:40Z</time>
      </trkpt>
      <trkpt lat="46.94987" lon="5.82714">
        <ele>560.6</ele>
        <time>2020-12-26T12:52:41Z</time>
      </trkpt>
      <trkpt lat="46.94988" lon="5.8273">
        <ele>560</ele>
        <time>2020-12-26T12:52:42Z</time>
      </trkpt>
      <trkpt lat="46.9499" lon="5.82747">
        <ele>559.6</ele>
        <time>2020-12-26T12:52:43Z</time>
      </trkpt>
      <trkpt lat="46.94991" lon="5.82765">
        <ele>559.2</ele>
        <time>2020-12-26T12:52:44Z</time>
      </trkpt>
      <trkpt lat="46.94992" lon="5.82782">
        <ele>558.6</ele>
        <time>2020-12-26T12:52:45Z</time>
      </trkpt>
      <trkpt lat="46.94993" lon="5.82799">
        <ele>558.2</ele>
        <time>2020-12-26T12:52:46Z</time>
      </trkpt>
      <trkpt lat="46.94994" lon="5.82817">
        <ele>557.8</ele>
        <time>2020-12-26T12:52:47Z</time>
      </trkpt>
      <trkpt lat="46.94996" lon="5.82835">
        <ele>557.4</ele>
        <time>2020-12-26T12:52:48Z</time>
      </trkpt>
      <trkpt lat="46.94997" lon="5.82852">
        <ele>557.2</ele>
        <time>2020-12-26T12:52:49Z</time>
      </trkpt>
      <trkpt lat="46.94999" lon="5.8287">
        <ele>557</ele>
        <time>2020-12-26T12:52:50Z</time>
      </trkpt>
      <trkpt lat="46.94999" lon="5.82887">
        <ele>556.6</ele>
        <time>2020-12-26T12:52:51Z</time>
      </trkpt>
      <trkpt lat="46.95" lon="5.82904">
        <ele>556.4</ele>
        <time>2020-12-26T12:52:52Z</time>
      </trkpt>
      <trkpt lat="46.95001" lon="5.82922">
        <ele>556</ele>
        <time>2020-12-26T12:52:53Z</time>
      </trkpt>
      <trkpt lat="46.95002" lon="5.82938">
        <ele>555.6</ele>
        <time>2020-12-26T12:52:54Z</time>
      </trkpt>
      <trkpt lat="46.95003" lon="5.82954">
        <ele>555</ele>
        <time>2020-12-26T12:52:55Z</time>
      </trkpt>
      <trkpt lat="46.95003" lon="5.82971">
        <ele>554.6</ele>
        <time>2020-12-26T12:52:56Z</time>
      </trkpt>
      <trkpt lat="46.95003" lon="5.82987">
        <ele>554</ele>
        <time>2020-12-26T12:52:57Z</time>
      </trkpt>
      <trkpt lat="46.95003" lon="5.83003">
        <ele>553.4</ele>
        <time>2020-12-26T12:52:58Z</time>
      </trkpt>
      <trkpt lat="46.95003" lon="5.83019">
        <ele>552.8</ele>
        <time>2020-12-26T12:52:59Z</time>
      </trkpt>
      <trkpt lat="46.95003" lon="5.83035">
        <ele>552.2</ele>
        <time>2020-12-26T12:53:00Z</time>
      </trkpt>
      <trkpt lat="46.95003" lon="5.83052">
        <ele>551.4</ele>
        <time>2020-12-26T12:53:01Z</time>
      </trkpt>
      <trkpt lat="46.95004" lon="5.83071">
        <ele>550.6</ele>
        <time>2020-12-26T12:53:02Z</time>
      </trkpt>
      <trkpt lat="46.95005" lon="5.83088">
        <ele>549.8</ele>
        <time>2020-12-26T12:53:03Z</time>
      </trkpt>
      <trkpt lat="46.95006" lon="5.83104">
        <ele>549.2</ele>
        <time>2020-12-26T12:53:04Z</time>
      </trkpt>
      <trkpt lat="46.95007" lon="5.83119">
        <ele>548.4</ele>
        <time>2020-12-26T12:53:05Z</time>
      </trkpt>
      <trkpt lat="46.95008" lon="5.83135">
        <ele>547.6</ele>
        <time>2020-12-26T12:53:06Z</time>
      </trkpt>
      <trkpt lat="46.95008" lon="5.83151">
        <ele>546.8</ele>
        <time>2020-12-26T12:53:07Z</time>
      </trkpt>
      <trkpt lat="46.95007" lon="5.83165">
        <ele>546.2</ele>
        <time>2020-12-26T12:53:08Z</time>
      </trkpt>
      <trkpt lat="46.95006" lon="5.83179">
        <ele>545.6</ele>
        <time>2020-12-26T12:53:09Z</time>
      </trkpt>
      <trkpt lat="46.95005" lon="5.83192">
        <ele>545.2</ele>
        <time>2020-12-26T12:53:10Z</time>
      </trkpt>
      <trkpt lat="46.95003" lon="5.83202">
        <ele>544.8</ele>
        <time>2020-12-26T12:53:11Z</time>
      </trkpt>
      <trkpt lat="46.95001" lon="5.8321">
        <ele>544.4</ele>
        <time>2020-12-26T12:53:12Z</time>
      </trkpt>
      <trkpt lat="46.95001" lon="5.83217">
        <ele>544.2</ele>
        <time>2020-12-26T12:53:13Z</time>
      </trkpt>
      <trkpt lat="46.95" lon="5.83222">
        <ele>544.2</ele>
        <time>2020-12-26T12:53:14Z</time>
      </trkpt>
      <trkpt lat="46.95" lon="5.83226">
        <ele>543.8</ele>
        <time>2020-12-26T12:53:15Z</time>
      </trkpt>
      <trkpt lat="46.94999" lon="5.83229">
        <ele>543.8</ele>
        <time>2020-12-26T12:53:16Z</time>
      </trkpt>
      <trkpt lat="46.94999" lon="5.83232">
        <ele>543.4</ele>
        <time>2020-12-26T12:53:17Z</time>
      </trkpt>
      <trkpt lat="46.94998" lon="5.83235">
        <ele>543.4</ele>
        <time>2020-12-26T12:53:18Z</time>
      </trkpt>
      <trkpt lat="46.94998" lon="5.83237">
        <ele>543</ele>
        <time>2020-12-26T12:53:19Z</time>
      </trkpt>
      <trkpt lat="46.94999" lon="5.83238">
        <ele>543</ele>
        <time>2020-12-26T12:53:20Z</time>
      </trkpt>
      <trkpt lat="46.95001" lon="5.83239">
        <ele>543</ele>
        <time>2020-12-26T12:53:21Z</time>
      </trkpt>
      <trkpt lat="46.95003" lon="5.83239">
        <ele>542.6</ele>
        <time>2020-12-26T12:53:22Z</time>
      </trkpt>
      <trkpt lat="46.95007" lon="5.83239">
        <ele>542.4</ele>
        <time>2020-12-26T12:53:23Z</time>
      </trkpt>
      <trkpt lat="46.95012" lon="5.83241">
        <ele>541.8</ele>
        <time>2020-12-26T12:53:24Z</time>
      </trkpt>
      <trkpt lat="46.95018" lon="5.83244">
        <ele>541.6</ele>
        <time>2020-12-26T12:53:25Z</time>
      </trkpt>
      <trkpt lat="46.95024" lon="5.83247">
        <ele>541.2</ele>
        <time>2020-12-26T12:53:26Z</time>
      </trkpt>
      <trkpt lat="46.9503" lon="5.83251">
        <ele>540.8</ele>
        <time>2020-12-26T12:53:27Z</time>
      </trkpt>
      <trkpt lat="46.95036" lon="5.83255">
        <ele>540.4</ele>
        <time>2020-12-26T12:53:28Z</time>
      </trkpt>
      <trkpt lat="46.95043" lon="5.8326">
        <ele>540</ele>
        <time>2020-12-26T12:53:29Z</time>
      </trkpt>
      <trkpt lat="46.95049" lon="5.83264">
        <ele>539.8</ele>
        <time>2020-12-26T12:53:30Z</time>
      </trkpt>
      <trkpt lat="46.95057" lon="5.83269">
        <ele>539.8</ele>
        <time>2020-12-26T12:53:31Z</time>
      </trkpt>
      <trkpt lat="46.95064" lon="5.83273">
        <ele>539.4</ele>
        <time>2020-12-26T12:53:32Z</time>
      </trkpt>
      <trkpt lat="46.95072" lon="5.83278">
        <ele>539.4</ele>
        <time>2020-12-26T12:53:33Z</time>
      </trkpt>
      <trkpt lat="46.95079" lon="5.83283">
        <ele>539.2</ele>
        <time>2020-12-26T12:53:34Z</time>
      </trkpt>
      <trkpt lat="46.95086" lon="5.83287">
        <ele>539.2</ele>
        <time>2020-12-26T12:53:35Z</time>
      </trkpt>
      <trkpt lat="46.95093" lon="5.83292">
        <ele>539</ele>
        <time>2020-12-26T12:53:36Z</time>
      </trkpt>
      <trkpt lat="46.951" lon="5.83297">
        <ele>539</ele>
        <time>2020-12-26T12:53:37Z</time>
      </trkpt>
      <trkpt lat="46.95106" lon="5.83303">
        <ele>539</ele>
        <time>2020-12-26T12:53:38Z</time>
      </trkpt>
      <trkpt lat="46.95112" lon="5.83308">
        <ele>539</ele>
        <time>2020-12-26T12:53:39Z</time>
      </trkpt>
      <trkpt lat="46.95118" lon="5.83313">
        <ele>539</ele>
        <time>2020-12-26T12:53:40Z</time>
      </trkpt>
      <trkpt lat="46.95124" lon="5.83318">
        <ele>539</ele>
        <time>2020-12-26T12:53:41Z</time>
      </trkpt>
      <trkpt lat="46.95129" lon="5.83323">
        <ele>539.2</ele>
        <time>2020-12-26T12:53:42Z</time>
      </trkpt>
      <trkpt lat="46.95135" lon="5.83327">
        <ele>539.2</ele>
        <time>2020-12-26T12:53:43Z</time>
      </trkpt>
      <trkpt lat="46.9514" lon="5.83331">
        <ele>539.6</ele>
        <time>2020-12-26T12:53:44Z</time>
      </trkpt>
      <trkpt lat="46.95146" lon="5.83335">
        <ele>539.8</ele>
        <time>2020-12-26T12:53:45Z</time>
      </trkpt>
      <trkpt lat="46.95151" lon="5.83338">
        <ele>540.2</ele>
        <time>2020-12-26T12:53:46Z</time>
      </trkpt>
      <trkpt lat="46.95156" lon="5.83342">
        <ele>540.6</ele>
        <time>2020-12-26T12:53:47Z</time>
      </trkpt>
      <trkpt lat="46.95161" lon="5.83345">
        <ele>541</ele>
        <time>2020-12-26T12:53:48Z</time>
      </trkpt>
      <trkpt lat="46.95166" lon="5.83348">
        <ele>541.4</ele>
        <time>2020-12-26T12:53:49Z</time>
      </trkpt>
      <trkpt lat="46.95171" lon="5.83351">
        <ele>541.6</ele>
        <time>2020-12-26T12:53:50Z</time>
      </trkpt>
      <trkpt lat="46.95175" lon="5.83353">
        <ele>542</ele>
        <time>2020-12-26T12:53:51Z</time>
      </trkpt>
      <trkpt lat="46.9518" lon="5.83356">
        <ele>542.4</ele>
        <time>2020-12-26T12:53:52Z</time>
      </trkpt>
      <trkpt lat="46.95184" lon="5.83358">
        <ele>542.8</ele>
        <time>2020-12-26T12:53:53Z</time>
      </trkpt>
      <trkpt lat="46.95188" lon="5.83361">
        <ele>543</ele>
        <time>2020-12-26T12:53:54Z</time>
      </trkpt>
      <trkpt lat="46.95192" lon="5.83363">
        <ele>543.2</ele>
        <time>2020-12-26T12:53:55Z</time>
      </trkpt>
      <trkpt lat="46.95197" lon="5.83365">
        <ele>543.6</ele>
        <time>2020-12-26T12:53:56Z</time>
      </trkpt>
      <trkpt lat="46.95201" lon="5.83367">
        <ele>543.8</ele>
        <time>2020-12-26T12:53:57Z</time>
      </trkpt>
      <trkpt lat="46.95205" lon="5.83369">
        <ele>544.2</ele>
        <time>2020-12-26T12:53:58Z</time>
      </trkpt>
      <trkpt lat="46.95209" lon="5.83371">
        <ele>544.4</ele>
        <time>2020-12-26T12:53:59Z</time>
      </trkpt>
      <trkpt lat="46.95214" lon="5.83373">
        <ele>544.6</ele>
        <time>2020-12-26T12:54:00Z</time>
      </trkpt>
      <trkpt lat="46.95218" lon="5.83376">
        <ele>544.8</ele>
        <time>2020-12-26T12:54:01Z</time>
      </trkpt>
      <trkpt lat="46.95223" lon="5.83378">
        <ele>544.8</ele>
        <time>2020-12-26T12:54:02Z</time>
      </trkpt>
      <trkpt lat="46.95228" lon="5.83381">
        <ele>545.2</ele>
        <time>2020-12-26T12:54:03Z</time>
      </trkpt>
      <trkpt lat="46.95232" lon="5.83384">
        <ele>545.4</ele>
        <time>2020-12-26T12:54:04Z</time>
      </trkpt>
      <trkpt lat="46.95237" lon="5.83386">
        <ele>545.8</ele>
        <time>2020-12-26T12:54:05Z</time>
      </trkpt>
      <trkpt lat="46.95242" lon="5.83389">
        <ele>545.8</ele>
        <time>2020-12-26T12:54:06Z</time>
      </trkpt>
      <trkpt lat="46.95247" lon="5.83392">
        <ele>546</ele>
        <time>2020-12-26T12:54:07Z</time>
      </trkpt>
      <trkpt lat="46.95251" lon="5.83395">
        <ele>546</ele>
        <time>2020-12-26T12:54:08Z</time>
      </trkpt>
      <trkpt lat="46.95256" lon="5.83398">
        <ele>546.4</ele>
        <time>2020-12-26T12:54:09Z</time>
      </trkpt>
      <trkpt lat="46.9526" lon="5.83401">
        <ele>546.4</ele>
        <time>2020-12-26T12:54:10Z</time>
      </trkpt>
      <trkpt lat="46.95265" lon="5.83404">
        <ele>546.8</ele>
        <time>2020-12-26T12:54:11Z</time>
      </trkpt>
      <trkpt lat="46.95269" lon="5.83408">
        <ele>546.8</ele>
        <time>2020-12-26T12:54:12Z</time>
      </trkpt>
      <trkpt lat="46.95273" lon="5.83412">
        <ele>547.2</ele>
        <time>2020-12-26T12:54:13Z</time>
      </trkpt>
      <trkpt lat="46.95278" lon="5.83415">
        <ele>547.2</ele>
        <time>2020-12-26T12:54:14Z</time>
      </trkpt>
      <trkpt lat="46.95282" lon="5.83419">
        <ele>547.4</ele>
        <time>2020-12-26T12:54:15Z</time>
      </trkpt>
      <trkpt lat="46.95286" lon="5.83422">
        <ele>547.4</ele>
        <time>2020-12-26T12:54:16Z</time>
      </trkpt>
      <trkpt lat="46.9529" lon="5.83425">
        <ele>547.6</ele>
        <time>2020-12-26T12:54:17Z</time>
      </trkpt>
      <trkpt lat="46.95295" lon="5.83428">
        <ele>547.6</ele>
        <time>2020-12-26T12:54:18Z</time>
      </trkpt>
      <trkpt lat="46.95299" lon="5.83431">
        <ele>548</ele>
        <time>2020-12-26T12:54:19Z</time>
      </trkpt>
      <trkpt lat="46.95304" lon="5.83434">
        <ele>548.2</ele>
        <time>2020-12-26T12:54:20Z</time>
      </trkpt>
      <trkpt lat="46.95308" lon="5.83437">
        <ele>548.2</ele>
        <time>2020-12-26T12:54:21Z</time>
      </trkpt>
      <trkpt lat="46.95313" lon="5.83439">
        <ele>548.6</ele>
        <time>2020-12-26T12:54:22Z</time>
      </trkpt>
      <trkpt lat="46.95317" lon="5.83442">
        <ele>548.8</ele>
        <time>2020-12-26T12:54:23Z</time>
      </trkpt>
      <trkpt lat="46.95322" lon="5.83445">
        <ele>549</ele>
        <time>2020-12-26T12:54:24Z</time>
      </trkpt>
      <trkpt lat="46.95326" lon="5.83447">
        <ele>549</ele>
        <time>2020-12-26T12:54:25Z</time>
      </trkpt>
      <trkpt lat="46.9533" lon="5.83449">
        <ele>549.4</ele>
        <time>2020-12-26T12:54:26Z</time>
      </trkpt>
      <trkpt lat="46.95334" lon="5.83452">
        <ele>549.6</ele>
        <time>2020-12-26T12:54:27Z</time>
      </trkpt>
      <trkpt lat="46.95339" lon="5.83454">
        <ele>549.8</ele>
        <time>2020-12-26T12:54:28Z</time>
      </trkpt>
      <trkpt lat="46.95343" lon="5.83456">
        <ele>550.2</ele>
        <time>2020-12-26T12:54:29Z</time>
      </trkpt>
      <trkpt lat="46.95347" lon="5.83459">
        <ele>550.4</ele>
        <time>2020-12-26T12:54:30Z</time>
      </trkpt>
      <trkpt lat="46.9535" lon="5.83461">
        <ele>550.6</ele>
        <time>2020-12-26T12:54:31Z</time>
      </trkpt>
      <trkpt lat="46.95354" lon="5.83464">
        <ele>551</ele>
        <time>2020-12-26T12:54:32Z</time>
      </trkpt>
      <trkpt lat="46.95358" lon="5.83466">
        <ele>551.2</ele>
        <time>2020-12-26T12:54:33Z</time>
      </trkpt>
      <trkpt lat="46.95362" lon="5.83468">
        <ele>551.4</ele>
        <time>2020-12-26T12:54:34Z</time>
      </trkpt>
      <trkpt lat="46.95365" lon="5.83471">
        <ele>551.8</ele>
        <time>2020-12-26T12:54:35Z</time>
      </trkpt>
      <trkpt lat="46.95369" lon="5.83473">
        <ele>552</ele>
        <time>2020-12-26T12:54:36Z</time>
      </trkpt>
      <trkpt lat="46.95373" lon="5.83475">
        <ele>552.4</ele>
        <time>2020-12-26T12:54:37Z</time>
      </trkpt>
      <trkpt lat="46.95376" lon="5.83477">
        <ele>552.6</ele>
        <time>2020-12-26T12:54:38Z</time>
      </trkpt>
      <trkpt lat="46.9538" lon="5.83479">
        <ele>552.8</ele>
        <time>2020-12-26T12:54:39Z</time>
      </trkpt>
      <trkpt lat="46.95384" lon="5.83481">
        <ele>552.8</ele>
        <time>2020-12-26T12:54:40Z</time>
      </trkpt>
      <trkpt lat="46.95387" lon="5.83483">
        <ele>553.2</ele>
        <time>2020-12-26T12:54:41Z</time>
      </trkpt>
      <trkpt lat="46.95391" lon="5.83484">
        <ele>553.2</ele>
        <time>2020-12-26T12:54:42Z</time>
      </trkpt>
      <trkpt lat="46.95395" lon="5.83485">
        <ele>553.4</ele>
        <time>2020-12-26T12:54:43Z</time>
      </trkpt>
      <trkpt lat="46.95399" lon="5.83486">
        <ele>553.4</ele>
        <time>2020-12-26T12:54:44Z</time>
      </trkpt>
      <trkpt lat="46.95403" lon="5.83487">
        <ele>553.8</ele>
        <time>2020-12-26T12:54:45Z</time>
      </trkpt>
      <trkpt lat="46.95408" lon="5.83487">
        <ele>553.8</ele>
        <time>2020-12-26T12:54:46Z</time>
      </trkpt>
      <trkpt lat="46.95412" lon="5.83488">
        <ele>553.8</ele>
        <time>2020-12-26T12:54:47Z</time>
      </trkpt>
      <trkpt lat="46.95416" lon="5.83488">
        <ele>554</ele>
        <time>2020-12-26T12:54:48Z</time>
      </trkpt>
      <trkpt lat="46.95421" lon="5.83488">
        <ele>554.2</ele>
        <time>2020-12-26T12:54:49Z</time>
      </trkpt>
      <trkpt lat="46.95425" lon="5.83488">
        <ele>554.2</ele>
        <time>2020-12-26T12:54:50Z</time>
      </trkpt>
      <trkpt lat="46.95429" lon="5.83488">
        <ele>554.6</ele>
        <time>2020-12-26T12:54:51Z</time>
      </trkpt>
      <trkpt lat="46.95433" lon="5.83488">
        <ele>554.6</ele>
        <time>2020-12-26T12:54:52Z</time>
      </trkpt>
      <trkpt lat="46.95437" lon="5.83488">
        <ele>555</ele>
        <time>2020-12-26T12:54:53Z</time>
      </trkpt>
      <trkpt lat="46.95441" lon="5.83487">
        <ele>555</ele>
        <time>2020-12-26T12:54:54Z</time>
      </trkpt>
      <trkpt lat="46.95445" lon="5.83487">
        <ele>555.2</ele>
        <time>2020-12-26T12:54:55Z</time>
      </trkpt>
      <trkpt lat="46.95449" lon="5.83487">
        <ele>555.2</ele>
        <time>2020-12-26T12:54:56Z</time>
      </trkpt>
      <trkpt lat="46.95453" lon="5.83486">
        <ele>555.6</ele>
        <time>2020-12-26T12:54:57Z</time>
      </trkpt>
      <trkpt lat="46.95458" lon="5.83486">
        <ele>555.6</ele>
        <time>2020-12-26T12:54:58Z</time>
      </trkpt>
      <trkpt lat="46.95462" lon="5.83485">
        <ele>555.8</ele>
        <time>2020-12-26T12:54:59Z</time>
      </trkpt>
      <trkpt lat="46.95466" lon="5.83485">
        <ele>555.8</ele>
        <time>2020-12-26T12:55:00Z</time>
      </trkpt>
      <trkpt lat="46.9547" lon="5.83484">
        <ele>556</ele>
        <time>2020-12-26T12:55:01Z</time>
      </trkpt>
      <trkpt lat="46.95475" lon="5.83484">
        <ele>556</ele>
        <time>2020-12-26T12:55:02Z</time>
      </trkpt>
      <trkpt lat="46.95479" lon="5.83484">
        <ele>556.2</ele>
        <time>2020-12-26T12:55:03Z</time>
      </trkpt>
      <trkpt lat="46.95484" lon="5.83483">
        <ele>556.2</ele>
        <time>2020-12-26T12:55:04Z</time>
      </trkpt>
      <trkpt lat="46.95488" lon="5.83483">
        <ele>556.2</ele>
        <time>2020-12-26T12:55:05Z</time>
      </trkpt>
      <trkpt lat="46.95493" lon="5.83483">
        <ele>556.6</ele>
        <time>2020-12-26T12:55:06Z</time>
      </trkpt>
      <trkpt lat="46.95498" lon="5.83483">
        <ele>556.6</ele>
        <time>2020-12-26T12:55:07Z</time>
      </trkpt>
      <trkpt lat="46.95503" lon="5.83483">
        <ele>556.6</ele>
        <time>2020-12-26T12:55:08Z</time>
      </trkpt>
      <trkpt lat="46.95508" lon="5.83483">
        <ele>556.6</ele>
        <time>2020-12-26T12:55:09Z</time>
      </trkpt>
      <trkpt lat="46.95513" lon="5.83483">
        <ele>556.6</ele>
        <time>2020-12-26T12:55:10Z</time>
      </trkpt>
      <trkpt lat="46.95518" lon="5.83482">
        <ele>556.6</ele>
        <time>2020-12-26T12:55:11Z</time>
      </trkpt>
      <trkpt lat="46.95523" lon="5.83482">
        <ele>556.6</ele>
        <time>2020-12-26T12:55:12Z</time>
      </trkpt>
      <trkpt lat="46.95528" lon="5.83483">
        <ele>556.6</ele>
        <time>2020-12-26T12:55:13Z</time>
      </trkpt>
      <trkpt lat="46.95533" lon="5.83483">
        <ele>556.2</ele>
        <time>2020-12-26T12:55:14Z</time>
      </trkpt>
      <trkpt lat="46.95539" lon="5.83484">
        <ele>556.2</ele>
        <time>2020-12-26T12:55:15Z</time>
      </trkpt>
      <trkpt lat="46.95544" lon="5.83485">
        <ele>556</ele>
        <time>2020-12-26T12:55:16Z</time>
      </trkpt>
      <trkpt lat="46.9555" lon="5.83486">
        <ele>556</ele>
        <time>2020-12-26T12:55:17Z</time>
      </trkpt>
      <trkpt lat="46.95556" lon="5.83487">
        <ele>555.6</ele>
        <time>2020-12-26T12:55:18Z</time>
      </trkpt>
      <trkpt lat="46.95562" lon="5.83488">
        <ele>555.6</ele>
        <time>2020-12-26T12:55:19Z</time>
      </trkpt>
      <trkpt lat="46.95568" lon="5.8349">
        <ele>555.4</ele>
        <time>2020-12-26T12:55:20Z</time>
      </trkpt>
      <trkpt lat="46.95575" lon="5.83492">
        <ele>555</ele>
        <time>2020-12-26T12:55:21Z</time>
      </trkpt>
      <trkpt lat="46.95581" lon="5.83495">
        <ele>554.6</ele>
        <time>2020-12-26T12:55:22Z</time>
      </trkpt>
      <trkpt lat="46.95588" lon="5.83498">
        <ele>554.2</ele>
        <time>2020-12-26T12:55:23Z</time>
      </trkpt>
      <trkpt lat="46.95594" lon="5.83501">
        <ele>553.8</ele>
        <time>2020-12-26T12:55:24Z</time>
      </trkpt>
      <trkpt lat="46.95601" lon="5.83505">
        <ele>553.4</ele>
        <time>2020-12-26T12:55:25Z</time>
      </trkpt>
      <trkpt lat="46.95607" lon="5.8351">
        <ele>552.8</ele>
        <time>2020-12-26T12:55:26Z</time>
      </trkpt>
      <trkpt lat="46.95614" lon="5.83516">
        <ele>552.4</ele>
        <time>2020-12-26T12:55:27Z</time>
      </trkpt>
      <trkpt lat="46.95621" lon="5.83523">
        <ele>551.8</ele>
        <time>2020-12-26T12:55:28Z</time>
      </trkpt>
      <trkpt lat="46.95627" lon="5.83531">
        <ele>551.2</ele>
        <time>2020-12-26T12:55:29Z</time>
      </trkpt>
      <trkpt lat="46.95632" lon="5.83539">
        <ele>550.8</ele>
        <time>2020-12-26T12:55:30Z</time>
      </trkpt>
      <trkpt lat="46.95638" lon="5.83549">
        <ele>550.2</ele>
        <time>2020-12-26T12:55:31Z</time>
      </trkpt>
      <trkpt lat="46.95643" lon="5.83559">
        <ele>549.6</ele>
        <time>2020-12-26T12:55:32Z</time>
      </trkpt>
      <trkpt lat="46.95648" lon="5.83569">
        <ele>549.2</ele>
        <time>2020-12-26T12:55:33Z</time>
      </trkpt>
      <trkpt lat="46.95654" lon="5.83578">
        <ele>548.8</ele>
        <time>2020-12-26T12:55:34Z</time>
      </trkpt>
      <trkpt lat="46.95662" lon="5.83586">
        <ele>548.2</ele>
        <time>2020-12-26T12:55:35Z</time>
      </trkpt>
      <trkpt lat="46.9567" lon="5.83592">
        <ele>547.8</ele>
        <time>2020-12-26T12:55:36Z</time>
      </trkpt>
      <trkpt lat="46.9568" lon="5.83596">
        <ele>547.4</ele>
        <time>2020-12-26T12:55:37Z</time>
      </trkpt>
      <trkpt lat="46.95689" lon="5.83598">
        <ele>546.8</ele>
        <time>2020-12-26T12:55:38Z</time>
      </trkpt>
      <trkpt lat="46.957" lon="5.83598">
        <ele>546.4</ele>
        <time>2020-12-26T12:55:39Z</time>
      </trkpt>
      <trkpt lat="46.95709" lon="5.83597">
        <ele>546</ele>
        <time>2020-12-26T12:55:40Z</time>
      </trkpt>
      <trkpt lat="46.95718" lon="5.83596">
        <ele>545.8</ele>
        <time>2020-12-26T12:55:41Z</time>
      </trkpt>
      <trkpt lat="46.95727" lon="5.83595">
        <ele>545.6</ele>
        <time>2020-12-26T12:55:42Z</time>
      </trkpt>
      <trkpt lat="46.95736" lon="5.83594">
        <ele>545.4</ele>
        <time>2020-12-26T12:55:43Z</time>
      </trkpt>
      <trkpt lat="46.95746" lon="5.83595">
        <ele>545</ele>
        <time>2020-12-26T12:55:44Z</time>
      </trkpt>
      <trkpt lat="46.95755" lon="5.83594">
        <ele>544.6</ele>
        <time>2020-12-26T12:55:45Z</time>
      </trkpt>
      <trkpt lat="46.95765" lon="5.83594">
        <ele>544.4</ele>
        <time>2020-12-26T12:55:46Z</time>
      </trkpt>
      <trkpt lat="46.95775" lon="5.83595">
        <ele>544</ele>
        <time>2020-12-26T12:55:47Z</time>
      </trkpt>
      <trkpt lat="46.95785" lon="5.83596">
        <ele>543.6</ele>
        <time>2020-12-26T12:55:48Z</time>
      </trkpt>
      <trkpt lat="46.95796" lon="5.83597">
        <ele>543.2</ele>
        <time>2020-12-26T12:55:49Z</time>
      </trkpt>
      <trkpt lat="46.95805" lon="5.83598">
        <ele>542.8</ele>
        <time>2020-12-26T12:55:50Z</time>
      </trkpt>
      <trkpt lat="46.95815" lon="5.836">
        <ele>542.4</ele>
        <time>2020-12-26T12:55:51Z</time>
      </trkpt>
      <trkpt lat="46.95825" lon="5.83601">
        <ele>541.8</ele>
        <time>2020-12-26T12:55:52Z</time>
      </trkpt>
      <trkpt lat="46.95835" lon="5.83602">
        <ele>541.4</ele>
        <time>2020-12-26T12:55:53Z</time>
      </trkpt>
      <trkpt lat="46.95844" lon="5.83603">
        <ele>541.2</ele>
        <time>2020-12-26T12:55:54Z</time>
      </trkpt>
      <trkpt lat="46.95854" lon="5.83604">
        <ele>540.8</ele>
        <time>2020-12-26T12:55:55Z</time>
      </trkpt>
      <trkpt lat="46.95863" lon="5.83606">
        <ele>540.4</ele>
        <time>2020-12-26T12:55:56Z</time>
      </trkpt>
      <trkpt lat="46.95873" lon="5.83608">
        <ele>540</ele>
        <time>2020-12-26T12:55:57Z</time>
      </trkpt>
      <trkpt lat="46.95881" lon="5.83611">
        <ele>539.4</ele>
        <time>2020-12-26T12:55:58Z</time>
      </trkpt>
      <trkpt lat="46.9589" lon="5.83615">
        <ele>538.8</ele>
        <time>2020-12-26T12:55:59Z</time>
      </trkpt>
      <trkpt lat="46.95898" lon="5.83618">
        <ele>538.4</ele>
        <time>2020-12-26T12:56:00Z</time>
      </trkpt>
      <trkpt lat="46.95905" lon="5.83622">
        <ele>538</ele>
        <time>2020-12-26T12:56:01Z</time>
      </trkpt>
      <trkpt lat="46.95913" lon="5.83626">
        <ele>537.8</ele>
        <time>2020-12-26T12:56:02Z</time>
      </trkpt>
      <trkpt lat="46.95919" lon="5.83629">
        <ele>537.8</ele>
        <time>2020-12-26T12:56:03Z</time>
      </trkpt>
      <trkpt lat="46.95926" lon="5.83633">
        <ele>537.6</ele>
        <time>2020-12-26T12:56:04Z</time>
      </trkpt>
      <trkpt lat="46.95932" lon="5.83637">
        <ele>537.6</ele>
        <time>2020-12-26T12:56:05Z</time>
      </trkpt>
      <trkpt lat="46.95938" lon="5.8364">
        <ele>537.6</ele>
        <time>2020-12-26T12:56:06Z</time>
      </trkpt>
      <trkpt lat="46.95943" lon="5.83645">
        <ele>537.6</ele>
        <time>2020-12-26T12:56:07Z</time>
      </trkpt>
      <trkpt lat="46.95948" lon="5.8365">
        <ele>537.2</ele>
        <time>2020-12-26T12:56:08Z</time>
      </trkpt>
      <trkpt lat="46.95951" lon="5.83657">
        <ele>537.2</ele>
        <time>2020-12-26T12:56:09Z</time>
      </trkpt>
      <trkpt lat="46.95952" lon="5.83665">
        <ele>537</ele>
        <time>2020-12-26T12:56:10Z</time>
      </trkpt>
      <trkpt lat="46.95952" lon="5.83674">
        <ele>536.6</ele>
        <time>2020-12-26T12:56:11Z</time>
      </trkpt>
      <trkpt lat="46.95951" lon="5.83684">
        <ele>536.2</ele>
        <time>2020-12-26T12:56:12Z</time>
      </trkpt>
      <trkpt lat="46.95949" lon="5.83694">
        <ele>536</ele>
        <time>2020-12-26T12:56:13Z</time>
      </trkpt>
      <trkpt lat="46.95947" lon="5.83706">
        <ele>536</ele>
        <time>2020-12-26T12:56:14Z</time>
      </trkpt>
      <trkpt lat="46.95945" lon="5.83717">
        <ele>535.6</ele>
        <time>2020-12-26T12:56:15Z</time>
      </trkpt>
      <trkpt lat="46.95943" lon="5.83729">
        <ele>535.4</ele>
        <time>2020-12-26T12:56:16Z</time>
      </trkpt>
      <trkpt lat="46.95942" lon="5.83742">
        <ele>535</ele>
        <time>2020-12-26T12:56:17Z</time>
      </trkpt>
      <trkpt lat="46.9594" lon="5.83754">
        <ele>534.8</ele>
        <time>2020-12-26T12:56:18Z</time>
      </trkpt>
      <trkpt lat="46.95939" lon="5.83767">
        <ele>534.4</ele>
        <time>2020-12-26T12:56:19Z</time>
      </trkpt>
      <trkpt lat="46.95938" lon="5.8378">
        <ele>534</ele>
        <time>2020-12-26T12:56:20Z</time>
      </trkpt>
      <trkpt lat="46.95936" lon="5.83794">
        <ele>533.6</ele>
        <time>2020-12-26T12:56:21Z</time>
      </trkpt>
      <trkpt lat="46.95935" lon="5.83808">
        <ele>533.2</ele>
        <time>2020-12-26T12:56:22Z</time>
      </trkpt>
      <trkpt lat="46.95933" lon="5.83821">
        <ele>532.8</ele>
        <time>2020-12-26T12:56:23Z</time>
      </trkpt>
      <trkpt lat="46.95932" lon="5.83836">
        <ele>532.4</ele>
        <time>2020-12-26T12:56:24Z</time>
      </trkpt>
      <trkpt lat="46.95931" lon="5.8385">
        <ele>532</ele>
        <time>2020-12-26T12:56:25Z</time>
      </trkpt>
      <trkpt lat="46.9593" lon="5.83864">
        <ele>531.4</ele>
        <time>2020-12-26T12:56:26Z</time>
      </trkpt>
      <trkpt lat="46.95928" lon="5.83878">
        <ele>531</ele>
        <time>2020-12-26T12:56:27Z</time>
      </trkpt>
      <trkpt lat="46.95927" lon="5.83892">
        <ele>530.4</ele>
        <time>2020-12-26T12:56:28Z</time>
      </trkpt>
      <trkpt lat="46.95926" lon="5.83907">
        <ele>530</ele>
        <time>2020-12-26T12:56:29Z</time>
      </trkpt>
      <trkpt lat="46.95926" lon="5.83922">
        <ele>529.4</ele>
        <time>2020-12-26T12:56:30Z</time>
      </trkpt>
      <trkpt lat="46.95925" lon="5.83935">
        <ele>529</ele>
        <time>2020-12-26T12:56:31Z</time>
      </trkpt>
      <trkpt lat="46.95924" lon="5.83949">
        <ele>528.6</ele>
        <time>2020-12-26T12:56:32Z</time>
      </trkpt>
      <trkpt lat="46.95923" lon="5.83963">
        <ele>528</ele>
        <time>2020-12-26T12:56:33Z</time>
      </trkpt>
      <trkpt lat="46.95922" lon="5.83977">
        <ele>527.6</ele>
        <time>2020-12-26T12:56:34Z</time>
      </trkpt>
      <trkpt lat="46.95922" lon="5.83991">
        <ele>527.2</ele>
        <time>2020-12-26T12:56:35Z</time>
      </trkpt>
      <trkpt lat="46.95921" lon="5.84005">
        <ele>526.8</ele>
        <time>2020-12-26T12:56:36Z</time>
      </trkpt>
      <trkpt lat="46.95921" lon="5.84019">
        <ele>526.4</ele>
        <time>2020-12-26T12:56:37Z</time>
      </trkpt>
      <trkpt lat="46.9592" lon="5.84033">
        <ele>525.8</ele>
        <time>2020-12-26T12:56:38Z</time>
      </trkpt>
      <trkpt lat="46.95921" lon="5.84048">
        <ele>525.4</ele>
        <time>2020-12-26T12:56:39Z</time>
      </trkpt>
      <trkpt lat="46.95921" lon="5.84062">
        <ele>524.8</ele>
        <time>2020-12-26T12:56:40Z</time>
      </trkpt>
      <trkpt lat="46.95923" lon="5.84077">
        <ele>524.4</ele>
        <time>2020-12-26T12:56:41Z</time>
      </trkpt>
      <trkpt lat="46.95926" lon="5.8409">
        <ele>523.8</ele>
        <time>2020-12-26T12:56:42Z</time>
      </trkpt>
      <trkpt lat="46.95929" lon="5.84103">
        <ele>523.2</ele>
        <time>2020-12-26T12:56:43Z</time>
      </trkpt>
      <trkpt lat="46.95934" lon="5.84116">
        <ele>522.6</ele>
        <time>2020-12-26T12:56:44Z</time>
      </trkpt>
      <trkpt lat="46.95938" lon="5.84129">
        <ele>522.2</ele>
        <time>2020-12-26T12:56:45Z</time>
      </trkpt>
      <trkpt lat="46.95944" lon="5.84143">
        <ele>521.6</ele>
        <time>2020-12-26T12:56:46Z</time>
      </trkpt>
      <trkpt lat="46.95952" lon="5.84155">
        <ele>521.2</ele>
        <time>2020-12-26T12:56:47Z</time>
      </trkpt>
      <trkpt lat="46.9596" lon="5.84166">
        <ele>520.6</ele>
        <time>2020-12-26T12:56:48Z</time>
      </trkpt>
      <trkpt lat="46.95967" lon="5.84176">
        <ele>520</ele>
        <time>2020-12-26T12:56:49Z</time>
      </trkpt>
      <trkpt lat="46.95975" lon="5.84186">
        <ele>519.2</ele>
        <time>2020-12-26T12:56:50Z</time>
      </trkpt>
      <trkpt lat="46.95983" lon="5.84197">
        <ele>518.6</ele>
        <time>2020-12-26T12:56:51Z</time>
      </trkpt>
      <trkpt lat="46.95991" lon="5.84208">
        <ele>518</ele>
        <time>2020-12-26T12:56:52Z</time>
      </trkpt>
      <trkpt lat="46.95999" lon="5.84221">
        <ele>517.2</ele>
        <time>2020-12-26T12:56:53Z</time>
      </trkpt>
      <trkpt lat="46.96007" lon="5.84233">
        <ele>516.6</ele>
        <time>2020-12-26T12:56:54Z</time>
      </trkpt>
      <trkpt lat="46.96015" lon="5.84244">
        <ele>516</ele>
        <time>2020-12-26T12:56:55Z</time>
      </trkpt>
      <trkpt lat="46.96024" lon="5.84255">
        <ele>515.4</ele>
        <time>2020-12-26T12:56:56Z</time>
      </trkpt>
      <trkpt lat="46.96034" lon="5.84265">
        <ele>514.6</ele>
        <time>2020-12-26T12:56:57Z</time>
      </trkpt>
      <trkpt lat="46.96043" lon="5.84274">
        <ele>514</ele>
        <time>2020-12-26T12:56:58Z</time>
      </trkpt>
      <trkpt lat="46.96054" lon="5.84282">
        <ele>513</ele>
        <time>2020-12-26T12:56:59Z</time>
      </trkpt>
      <trkpt lat="46.96065" lon="5.84288">
        <ele>512.4</ele>
        <time>2020-12-26T12:57:00Z</time>
      </trkpt>
      <trkpt lat="46.96076" lon="5.84295">
        <ele>511.6</ele>
        <time>2020-12-26T12:57:01Z</time>
      </trkpt>
      <trkpt lat="46.96087" lon="5.843">
        <ele>511</ele>
        <time>2020-12-26T12:57:02Z</time>
      </trkpt>
      <trkpt lat="46.96097" lon="5.84308">
        <ele>510</ele>
        <time>2020-12-26T12:57:03Z</time>
      </trkpt>
      <trkpt lat="46.96107" lon="5.84318">
        <ele>509.2</ele>
        <time>2020-12-26T12:57:04Z</time>
      </trkpt>
      <trkpt lat="46.96115" lon="5.84331">
        <ele>508.4</ele>
        <time>2020-12-26T12:57:05Z</time>
      </trkpt>
      <trkpt lat="46.96123" lon="5.84346">
        <ele>507.6</ele>
        <time>2020-12-26T12:57:06Z</time>
      </trkpt>
      <trkpt lat="46.96128" lon="5.84363">
        <ele>507</ele>
        <time>2020-12-26T12:57:07Z</time>
      </trkpt>
      <trkpt lat="46.96133" lon="5.8438">
        <ele>506.4</ele>
        <time>2020-12-26T12:57:08Z</time>
      </trkpt>
      <trkpt lat="46.96134" lon="5.844">
        <ele>505.6</ele>
        <time>2020-12-26T12:57:09Z</time>
      </trkpt>
      <trkpt lat="46.96136" lon="5.84419">
        <ele>505.2</ele>
        <time>2020-12-26T12:57:10Z</time>
      </trkpt>
      <trkpt lat="46.96137" lon="5.84437">
        <ele>504.8</ele>
        <time>2020-12-26T12:57:11Z</time>
      </trkpt>
      <trkpt lat="46.96137" lon="5.84454">
        <ele>504.2</ele>
        <time>2020-12-26T12:57:12Z</time>
      </trkpt>
      <trkpt lat="46.96137" lon="5.84472">
        <ele>503.6</ele>
        <time>2020-12-26T12:57:13Z</time>
      </trkpt>
      <trkpt lat="46.96136" lon="5.8449">
        <ele>502.8</ele>
        <time>2020-12-26T12:57:14Z</time>
      </trkpt>
      <trkpt lat="46.96134" lon="5.84507">
        <ele>502.4</ele>
        <time>2020-12-26T12:57:15Z</time>
      </trkpt>
      <trkpt lat="46.96132" lon="5.84524">
        <ele>501.6</ele>
        <time>2020-12-26T12:57:16Z</time>
      </trkpt>
      <trkpt lat="46.96129" lon="5.84539">
        <ele>501</ele>
        <time>2020-12-26T12:57:17Z</time>
      </trkpt>
      <trkpt lat="46.96126" lon="5.84556">
        <ele>500.6</ele>
        <time>2020-12-26T12:57:18Z</time>
      </trkpt>
      <trkpt lat="46.96123" lon="5.84572">
        <ele>500.2</ele>
        <time>2020-12-26T12:57:19Z</time>
      </trkpt>
      <trkpt lat="46.9612" lon="5.84586">
        <ele>500</ele>
        <time>2020-12-26T12:57:20Z</time>
      </trkpt>
      <trkpt lat="46.96117" lon="5.846">
        <ele>499.8</ele>
        <time>2020-12-26T12:57:21Z</time>
      </trkpt>
      <trkpt lat="46.96114" lon="5.84613">
        <ele>499.8</ele>
        <time>2020-12-26T12:57:22Z</time>
      </trkpt>
      <trkpt lat="46.9611" lon="5.84628">
        <ele>499.8</ele>
        <time>2020-12-26T12:57:23Z</time>
      </trkpt>
      <trkpt lat="46.96107" lon="5.84642">
        <ele>499.8</ele>
        <time>2020-12-26T12:57:24Z</time>
      </trkpt>
      <trkpt lat="46.96104" lon="5.84655">
        <ele>499.8</ele>
        <time>2020-12-26T12:57:25Z</time>
      </trkpt>
      <trkpt lat="46.96102" lon="5.84665">
        <ele>499.8</ele>
        <time>2020-12-26T12:57:26Z</time>
      </trkpt>
      <trkpt lat="46.96101" lon="5.84675">
        <ele>499.8</ele>
        <time>2020-12-26T12:57:27Z</time>
      </trkpt>
      <trkpt lat="46.96102" lon="5.84682">
        <ele>499.8</ele>
        <time>2020-12-26T12:57:28Z</time>
      </trkpt>
      <trkpt lat="46.96105" lon="5.84687">
        <ele>499.8</ele>
        <time>2020-12-26T12:57:29Z</time>
      </trkpt>
      <trkpt lat="46.96111" lon="5.84689">
        <ele>499.8</ele>
        <time>2020-12-26T12:57:30Z</time>
      </trkpt>
      <trkpt lat="46.96117" lon="5.84689">
        <ele>499.4</ele>
        <time>2020-12-26T12:57:31Z</time>
      </trkpt>
      <trkpt lat="46.96124" lon="5.84686">
        <ele>499.4</ele>
        <time>2020-12-26T12:57:32Z</time>
      </trkpt>
      <trkpt lat="46.9613" lon="5.84682">
        <ele>499.2</ele>
        <time>2020-12-26T12:57:33Z</time>
      </trkpt>
      <trkpt lat="46.96137" lon="5.84677">
        <ele>499.2</ele>
        <time>2020-12-26T12:57:34Z</time>
      </trkpt>
      <trkpt lat="46.96143" lon="5.84671">
        <ele>499</ele>
        <time>2020-12-26T12:57:35Z</time>
      </trkpt>
      <trkpt lat="46.9615" lon="5.84666">
        <ele>499</ele>
        <time>2020-12-26T12:57:36Z</time>
      </trkpt>
      <trkpt lat="46.96157" lon="5.84661">
        <ele>498.6</ele>
        <time>2020-12-26T12:57:37Z</time>
      </trkpt>
      <trkpt lat="46.96164" lon="5.84655">
        <ele>498.6</ele>
        <time>2020-12-26T12:57:38Z</time>
      </trkpt>
      <trkpt lat="46.96171" lon="5.84651">
        <ele>498.6</ele>
        <time>2020-12-26T12:57:39Z</time>
      </trkpt>
      <trkpt lat="46.96179" lon="5.84648">
        <ele>498.4</ele>
        <time>2020-12-26T12:57:40Z</time>
      </trkpt>
      <trkpt lat="46.96187" lon="5.84645">
        <ele>498.4</ele>
        <time>2020-12-26T12:57:41Z</time>
      </trkpt>
      <trkpt lat="46.96195" lon="5.84644">
        <ele>498.4</ele>
        <time>2020-12-26T12:57:42Z</time>
      </trkpt>
      <trkpt lat="46.96203" lon="5.84643">
        <ele>498.4</ele>
        <time>2020-12-26T12:57:43Z</time>
      </trkpt>
      <trkpt lat="46.9621" lon="5.84643">
        <ele>498.4</ele>
        <time>2020-12-26T12:57:44Z</time>
      </trkpt>
      <trkpt lat="46.96218" lon="5.84643">
        <ele>498</ele>
        <time>2020-12-26T12:57:45Z</time>
      </trkpt>
      <trkpt lat="46.96226" lon="5.84643">
        <ele>498</ele>
        <time>2020-12-26T12:57:46Z</time>
      </trkpt>
      <trkpt lat="46.96233" lon="5.84643">
        <ele>498</ele>
        <time>2020-12-26T12:57:47Z</time>
      </trkpt>
      <trkpt lat="46.96241" lon="5.84643">
        <ele>498</ele>
        <time>2020-12-26T12:57:48Z</time>
      </trkpt>
      <trkpt lat="46.96248" lon="5.84643">
        <ele>498</ele>
        <time>2020-12-26T12:57:49Z</time>
      </trkpt>
      <trkpt lat="46.96256" lon="5.84643">
        <ele>498</ele>
        <time>2020-12-26T12:57:50Z</time>
      </trkpt>
      <trkpt lat="46.96264" lon="5.84642">
        <ele>498</ele>
        <time>2020-12-26T12:57:51Z</time>
      </trkpt>
      <trkpt lat="46.96271" lon="5.84642">
        <ele>497.8</ele>
        <time>2020-12-26T12:57:52Z</time>
      </trkpt>
      <trkpt lat="46.96279" lon="5.84641">
        <ele>497.8</ele>
        <time>2020-12-26T12:57:53Z</time>
      </trkpt>
      <trkpt lat="46.96287" lon="5.84639">
        <ele>497.8</ele>
        <time>2020-12-26T12:57:54Z</time>
      </trkpt>
      <trkpt lat="46.96295" lon="5.84636">
        <ele>497.8</ele>
        <time>2020-12-26T12:57:55Z</time>
      </trkpt>
      <trkpt lat="46.96303" lon="5.84633">
        <ele>497.8</ele>
        <time>2020-12-26T12:57:56Z</time>
      </trkpt>
      <trkpt lat="46.96311" lon="5.84629">
        <ele>497.8</ele>
        <time>2020-12-26T12:57:57Z</time>
      </trkpt>
      <trkpt lat="46.96319" lon="5.84626">
        <ele>497.4</ele>
        <time>2020-12-26T12:57:58Z</time>
      </trkpt>
      <trkpt lat="46.96327" lon="5.84622">
        <ele>497.4</ele>
        <time>2020-12-26T12:57:59Z</time>
      </trkpt>
      <trkpt lat="46.96335" lon="5.84617">
        <ele>497</ele>
        <time>2020-12-26T12:58:00Z</time>
      </trkpt>
      <trkpt lat="46.96343" lon="5.84612">
        <ele>497</ele>
        <time>2020-12-26T12:58:01Z</time>
      </trkpt>
      <trkpt lat="46.9635" lon="5.84607">
        <ele>497</ele>
        <time>2020-12-26T12:58:02Z</time>
      </trkpt>
      <trkpt lat="46.96359" lon="5.84603">
        <ele>496.8</ele>
        <time>2020-12-26T12:58:03Z</time>
      </trkpt>
      <trkpt lat="46.96367" lon="5.84599">
        <ele>496.8</ele>
        <time>2020-12-26T12:58:04Z</time>
      </trkpt>
      <trkpt lat="46.96376" lon="5.84596">
        <ele>496.4</ele>
        <time>2020-12-26T12:58:05Z</time>
      </trkpt>
      <trkpt lat="46.96384" lon="5.84593">
        <ele>496.4</ele>
        <time>2020-12-26T12:58:06Z</time>
      </trkpt>
      <trkpt lat="46.96393" lon="5.84591">
        <ele>496.2</ele>
        <time>2020-12-26T12:58:07Z</time>
      </trkpt>
      <trkpt lat="46.96401" lon="5.84588">
        <ele>496</ele>
        <time>2020-12-26T12:58:08Z</time>
      </trkpt>
      <trkpt lat="46.9641" lon="5.84586">
        <ele>495.4</ele>
        <time>2020-12-26T12:58:09Z</time>
      </trkpt>
      <trkpt lat="46.96419" lon="5.84585">
        <ele>495.4</ele>
        <time>2020-12-26T12:58:10Z</time>
      </trkpt>
      <trkpt lat="46.96427" lon="5.84584">
        <ele>495.2</ele>
        <time>2020-12-26T12:58:11Z</time>
      </trkpt>
      <trkpt lat="46.96436" lon="5.84583">
        <ele>495.2</ele>
        <time>2020-12-26T12:58:12Z</time>
      </trkpt>
      <trkpt lat="46.96445" lon="5.84583">
        <ele>495.2</ele>
        <time>2020-12-26T12:58:13Z</time>
      </trkpt>
      <trkpt lat="46.96453" lon="5.84583">
        <ele>495.2</ele>
        <time>2020-12-26T12:58:14Z</time>
      </trkpt>
      <trkpt lat="46.96462" lon="5.84584">
        <ele>494.8</ele>
        <time>2020-12-26T12:58:15Z</time>
      </trkpt>
      <trkpt lat="46.96471" lon="5.84584">
        <ele>494.8</ele>
        <time>2020-12-26T12:58:16Z</time>
      </trkpt>
      <trkpt lat="46.96479" lon="5.84586">
        <ele>494.6</ele>
        <time>2020-12-26T12:58:17Z</time>
      </trkpt>
      <trkpt lat="46.96488" lon="5.84588">
        <ele>494.6</ele>
        <time>2020-12-26T12:58:18Z</time>
      </trkpt>
      <trkpt lat="46.96496" lon="5.8459">
        <ele>494.6</ele>
        <time>2020-12-26T12:58:19Z</time>
      </trkpt>
      <trkpt lat="46.96505" lon="5.84592">
        <ele>494.4</ele>
        <time>2020-12-26T12:58:20Z</time>
      </trkpt>
      <trkpt lat="46.96513" lon="5.84595">
        <ele>494.4</ele>
        <time>2020-12-26T12:58:21Z</time>
      </trkpt>
      <trkpt lat="46.96522" lon="5.84597">
        <ele>494.4</ele>
        <time>2020-12-26T12:58:22Z</time>
      </trkpt>
      <trkpt lat="46.9653" lon="5.846">
        <ele>494.4</ele>
        <time>2020-12-26T12:58:23Z</time>
      </trkpt>
      <trkpt lat="46.96538" lon="5.84603">
        <ele>494.4</ele>
        <time>2020-12-26T12:58:24Z</time>
      </trkpt>
      <trkpt lat="46.96546" lon="5.84606">
        <ele>494.4</ele>
        <time>2020-12-26T12:58:25Z</time>
      </trkpt>
      <trkpt lat="46.96554" lon="5.84609">
        <ele>494.6</ele>
        <time>2020-12-26T12:58:26Z</time>
      </trkpt>
      <trkpt lat="46.96562" lon="5.84612">
        <ele>494.6</ele>
        <time>2020-12-26T12:58:27Z</time>
      </trkpt>
      <trkpt lat="46.9657" lon="5.84615">
        <ele>494.8</ele>
        <time>2020-12-26T12:58:28Z</time>
      </trkpt>
      <trkpt lat="46.96578" lon="5.84617">
        <ele>494.8</ele>
        <time>2020-12-26T12:58:29Z</time>
      </trkpt>
      <trkpt lat="46.96587" lon="5.8462">
        <ele>494.8</ele>
        <time>2020-12-26T12:58:30Z</time>
      </trkpt>
      <trkpt lat="46.96595" lon="5.84623">
        <ele>494.8</ele>
        <time>2020-12-26T12:58:31Z</time>
      </trkpt>
      <trkpt lat="46.96604" lon="5.84626">
        <ele>494.8</ele>
        <time>2020-12-26T12:58:32Z</time>
      </trkpt>
      <trkpt lat="46.96613" lon="5.84628">
        <ele>494.8</ele>
        <time>2020-12-26T12:58:33Z</time>
      </trkpt>
      <trkpt lat="46.96621" lon="5.84631">
        <ele>494.8</ele>
        <time>2020-12-26T12:58:34Z</time>
      </trkpt>
      <trkpt lat="46.9663" lon="5.84633">
        <ele>494.8</ele>
        <time>2020-12-26T12:58:35Z</time>
      </trkpt>
      <trkpt lat="46.96638" lon="5.84636">
        <ele>494.8</ele>
        <time>2020-12-26T12:58:36Z</time>
      </trkpt>
      <trkpt lat="46.96647" lon="5.84638">
        <ele>494.8</ele>
        <time>2020-12-26T12:58:37Z</time>
      </trkpt>
      <trkpt lat="46.96655" lon="5.8464">
        <ele>494.8</ele>
        <time>2020-12-26T12:58:38Z</time>
      </trkpt>
      <trkpt lat="46.96663" lon="5.84641">
        <ele>494.6</ele>
        <time>2020-12-26T12:58:39Z</time>
      </trkpt>
      <trkpt lat="46.96671" lon="5.84643">
        <ele>494.6</ele>
        <time>2020-12-26T12:58:40Z</time>
      </trkpt>
      <trkpt lat="46.96679" lon="5.84644">
        <ele>494.6</ele>
        <time>2020-12-26T12:58:41Z</time>
      </trkpt>
      <trkpt lat="46.96688" lon="5.84645">
        <ele>494.2</ele>
        <time>2020-12-26T12:58:42Z</time>
      </trkpt>
      <trkpt lat="46.96697" lon="5.84647">
        <ele>494</ele>
        <time>2020-12-26T12:58:43Z</time>
      </trkpt>
      <trkpt lat="46.96705" lon="5.84647">
        <ele>493.8</ele>
        <time>2020-12-26T12:58:44Z</time>
      </trkpt>
      <trkpt lat="46.96714" lon="5.84647">
        <ele>493.8</ele>
        <time>2020-12-26T12:58:45Z</time>
      </trkpt>
      <trkpt lat="46.96723" lon="5.84647">
        <ele>493.8</ele>
        <time>2020-12-26T12:58:46Z</time>
      </trkpt>
      <trkpt lat="46.96732" lon="5.84647">
        <ele>493.4</ele>
        <time>2020-12-26T12:58:47Z</time>
      </trkpt>
      <trkpt lat="46.96741" lon="5.84646">
        <ele>493.2</ele>
        <time>2020-12-26T12:58:48Z</time>
      </trkpt>
      <trkpt lat="46.96751" lon="5.84644">
        <ele>493</ele>
        <time>2020-12-26T12:58:49Z</time>
      </trkpt>
      <trkpt lat="46.9676" lon="5.84642">
        <ele>492.8</ele>
        <time>2020-12-26T12:58:50Z</time>
      </trkpt>
      <trkpt lat="46.9677" lon="5.84639">
        <ele>492.8</ele>
        <time>2020-12-26T12:58:51Z</time>
      </trkpt>
      <trkpt lat="46.96779" lon="5.84637">
        <ele>492.4</ele>
        <time>2020-12-26T12:58:52Z</time>
      </trkpt>
      <trkpt lat="46.96789" lon="5.84634">
        <ele>492.4</ele>
        <time>2020-12-26T12:58:53Z</time>
      </trkpt>
      <trkpt lat="46.96797" lon="5.8463">
        <ele>492.4</ele>
        <time>2020-12-26T12:58:54Z</time>
      </trkpt>
      <trkpt lat="46.96806" lon="5.84627">
        <ele>492.4</ele>
        <time>2020-12-26T12:58:55Z</time>
      </trkpt>
      <trkpt lat="46.96815" lon="5.84623">
        <ele>492.4</ele>
        <time>2020-12-26T12:58:56Z</time>
      </trkpt>
      <trkpt lat="46.96824" lon="5.8462">
        <ele>492.2</ele>
        <time>2020-12-26T12:58:57Z</time>
      </trkpt>
      <trkpt lat="46.96832" lon="5.84617">
        <ele>492.2</ele>
        <time>2020-12-26T12:58:58Z</time>
      </trkpt>
      <trkpt lat="46.96841" lon="5.84614">
        <ele>492.2</ele>
        <time>2020-12-26T12:58:59Z</time>
      </trkpt>
      <trkpt lat="46.96849" lon="5.8461">
        <ele>492.2</ele>
        <time>2020-12-26T12:59:00Z</time>
      </trkpt>
      <trkpt lat="46.96857" lon="5.84607">
        <ele>492.2</ele>
        <time>2020-12-26T12:59:01Z</time>
      </trkpt>
      <trkpt lat="46.96865" lon="5.84604">
        <ele>492.4</ele>
        <time>2020-12-26T12:59:02Z</time>
      </trkpt>
      <trkpt lat="46.96873" lon="5.84601">
        <ele>492.4</ele>
        <time>2020-12-26T12:59:03Z</time>
      </trkpt>
      <trkpt lat="46.96881" lon="5.84598">
        <ele>492.4</ele>
        <time>2020-12-26T12:59:04Z</time>
      </trkpt>
      <trkpt lat="46.96888" lon="5.84594">
        <ele>492.4</ele>
        <time>2020-12-26T12:59:05Z</time>
      </trkpt>
      <trkpt lat="46.96896" lon="5.84591">
        <ele>492.6</ele>
        <time>2020-12-26T12:59:06Z</time>
      </trkpt>
      <trkpt lat="46.96904" lon="5.84588">
        <ele>492.6</ele>
        <time>2020-12-26T12:59:07Z</time>
      </trkpt>
      <trkpt lat="46.96912" lon="5.84585">
        <ele>492.6</ele>
        <time>2020-12-26T12:59:08Z</time>
      </trkpt>
      <trkpt lat="46.9692" lon="5.84581">
        <ele>492.6</ele>
        <time>2020-12-26T12:59:09Z</time>
      </trkpt>
      <trkpt lat="46.96928" lon="5.84579">
        <ele>492.4</ele>
        <time>2020-12-26T12:59:10Z</time>
      </trkpt>
      <trkpt lat="46.96936" lon="5.84576">
        <ele>492.4</ele>
        <time>2020-12-26T12:59:11Z</time>
      </trkpt>
      <trkpt lat="46.96944" lon="5.84573">
        <ele>492.2</ele>
        <time>2020-12-26T12:59:12Z</time>
      </trkpt>
      <trkpt lat="46.96952" lon="5.8457">
        <ele>492.2</ele>
        <time>2020-12-26T12:59:13Z</time>
      </trkpt>
      <trkpt lat="46.9696" lon="5.84568">
        <ele>492.2</ele>
        <time>2020-12-26T12:59:14Z</time>
      </trkpt>
      <trkpt lat="46.96968" lon="5.84566">
        <ele>491.8</ele>
        <time>2020-12-26T12:59:15Z</time>
      </trkpt>
      <trkpt lat="46.96976" lon="5.84563">
        <ele>491.8</ele>
        <time>2020-12-26T12:59:16Z</time>
      </trkpt>
      <trkpt lat="46.96984" lon="5.8456">
        <ele>491.6</ele>
        <time>2020-12-26T12:59:17Z</time>
      </trkpt>
      <trkpt lat="46.96992" lon="5.84557">
        <ele>491.6</ele>
        <time>2020-12-26T12:59:18Z</time>
      </trkpt>
      <trkpt lat="46.97" lon="5.84554">
        <ele>491.4</ele>
        <time>2020-12-26T12:59:19Z</time>
      </trkpt>
      <trkpt lat="46.97008" lon="5.84551">
        <ele>491.4</ele>
        <time>2020-12-26T12:59:20Z</time>
      </trkpt>
      <trkpt lat="46.97016" lon="5.84549">
        <ele>491.4</ele>
        <time>2020-12-26T12:59:21Z</time>
      </trkpt>
      <trkpt lat="46.97025" lon="5.84547">
        <ele>491.4</ele>
        <time>2020-12-26T12:59:22Z</time>
      </trkpt>
      <trkpt lat="46.97033" lon="5.84544">
        <ele>491.2</ele>
        <time>2020-12-26T12:59:23Z</time>
      </trkpt>
      <trkpt lat="46.97041" lon="5.84541">
        <ele>491.2</ele>
        <time>2020-12-26T12:59:24Z</time>
      </trkpt>
      <trkpt lat="46.97049" lon="5.84538">
        <ele>491.2</ele>
        <time>2020-12-26T12:59:25Z</time>
      </trkpt>
      <trkpt lat="46.97056" lon="5.84535">
        <ele>490.8</ele>
        <time>2020-12-26T12:59:26Z</time>
      </trkpt>
      <trkpt lat="46.97065" lon="5.84532">
        <ele>490.8</ele>
        <time>2020-12-26T12:59:27Z</time>
      </trkpt>
      <trkpt lat="46.97073" lon="5.84529">
        <ele>490.6</ele>
        <time>2020-12-26T12:59:28Z</time>
      </trkpt>
      <trkpt lat="46.97081" lon="5.84527">
        <ele>490.6</ele>
        <time>2020-12-26T12:59:29Z</time>
      </trkpt>
      <trkpt lat="46.97089" lon="5.84524">
        <ele>490.2</ele>
        <time>2020-12-26T12:59:30Z</time>
      </trkpt>
      <trkpt lat="46.97097" lon="5.84521">
        <ele>490.2</ele>
        <time>2020-12-26T12:59:31Z</time>
      </trkpt>
      <trkpt lat="46.97105" lon="5.84519">
        <ele>490</ele>
        <time>2020-12-26T12:59:32Z</time>
      </trkpt>
      <trkpt lat="46.97114" lon="5.84517">
        <ele>490</ele>
        <time>2020-12-26T12:59:33Z</time>
      </trkpt>
      <trkpt lat="46.97122" lon="5.84515">
        <ele>490</ele>
        <time>2020-12-26T12:59:34Z</time>
      </trkpt>
      <trkpt lat="46.9713" lon="5.84513">
        <ele>489.8</ele>
        <time>2020-12-26T12:59:35Z</time>
      </trkpt>
      <trkpt lat="46.97138" lon="5.84511">
        <ele>489.8</ele>
        <time>2020-12-26T12:59:36Z</time>
      </trkpt>
      <trkpt lat="46.97146" lon="5.84509">
        <ele>489.8</ele>
        <time>2020-12-26T12:59:37Z</time>
      </trkpt>
      <trkpt lat="46.97154" lon="5.84508">
        <ele>489.4</ele>
        <time>2020-12-26T12:59:38Z</time>
      </trkpt>
      <trkpt lat="46.97162" lon="5.84507">
        <ele>489.4</ele>
        <time>2020-12-26T12:59:39Z</time>
      </trkpt>
      <trkpt lat="46.97171" lon="5.84505">
        <ele>489.4</ele>
        <time>2020-12-26T12:59:40Z</time>
      </trkpt>
      <trkpt lat="46.97179" lon="5.84504">
        <ele>489.2</ele>
        <time>2020-12-26T12:59:41Z</time>
      </trkpt>
      <trkpt lat="46.97187" lon="5.84503">
        <ele>489.2</ele>
        <time>2020-12-26T12:59:42Z</time>
      </trkpt>
      <trkpt lat="46.97195" lon="5.84501">
        <ele>488.8</ele>
        <time>2020-12-26T12:59:43Z</time>
      </trkpt>
      <trkpt lat="46.97203" lon="5.845">
        <ele>488.8</ele>
        <time>2020-12-26T12:59:44Z</time>
      </trkpt>
      <trkpt lat="46.97211" lon="5.84499">
        <ele>488.6</ele>
        <time>2020-12-26T12:59:45Z</time>
      </trkpt>
      <trkpt lat="46.97219" lon="5.84499">
        <ele>488.6</ele>
        <time>2020-12-26T12:59:46Z</time>
      </trkpt>
      <trkpt lat="46.97226" lon="5.84499">
        <ele>488.6</ele>
        <time>2020-12-26T12:59:47Z</time>
      </trkpt>
      <trkpt lat="46.97234" lon="5.84499">
        <ele>488.6</ele>
        <time>2020-12-26T12:59:48Z</time>
      </trkpt>
      <trkpt lat="46.97242" lon="5.845">
        <ele>488.6</ele>
        <time>2020-12-26T12:59:49Z</time>
      </trkpt>
      <trkpt lat="46.97249" lon="5.84502">
        <ele>488.6</ele>
        <time>2020-12-26T12:59:50Z</time>
      </trkpt>
      <trkpt lat="46.97257" lon="5.84504">
        <ele>488.6</ele>
        <time>2020-12-26T12:59:51Z</time>
      </trkpt>
      <trkpt lat="46.97264" lon="5.84506">
        <ele>488.6</ele>
        <time>2020-12-26T12:59:52Z</time>
      </trkpt>
      <trkpt lat="46.97272" lon="5.84509">
        <ele>488.6</ele>
        <time>2020-12-26T12:59:53Z</time>
      </trkpt>
      <trkpt lat="46.9728" lon="5.84512">
        <ele>488.6</ele>
        <time>2020-12-26T12:59:54Z</time>
      </trkpt>
      <trkpt lat="46.97287" lon="5.84516">
        <ele>488.6</ele>
        <time>2020-12-26T12:59:55Z</time>
      </trkpt>
      <trkpt lat="46.97294" lon="5.8452">
        <ele>488.6</ele>
        <time>2020-12-26T12:59:56Z</time>
      </trkpt>
      <trkpt lat="46.97302" lon="5.84524">
        <ele>488.6</ele>
        <time>2020-12-26T12:59:57Z</time>
      </trkpt>
      <trkpt lat="46.97309" lon="5.84529">
        <ele>488.4</ele>
        <time>2020-12-26T12:59:58Z</time>
      </trkpt>
      <trkpt lat="46.97316" lon="5.84533">
        <ele>488.4</ele>
        <time>2020-12-26T12:59:59Z</time>
      </trkpt>
      <trkpt lat="46.97323" lon="5.84538">
        <ele>488.4</ele>
        <time>2020-12-26T13:00:00Z</time>
      </trkpt>
      <trkpt lat="46.97331" lon="5.84542">
        <ele>488.4</ele>
        <time>2020-12-26T13:00:01Z</time>
      </trkpt>
      <trkpt lat="46.97338" lon="5.84546">
        <ele>488.4</ele>
        <time>2020-12-26T13:00:02Z</time>
      </trkpt>
      <trkpt lat="46.97346" lon="5.8455">
        <ele>488.4</ele>
        <time>2020-12-26T13:00:03Z</time>
      </trkpt>
      <trkpt lat="46.97354" lon="5.84555">
        <ele>488</ele>
        <time>2020-12-26T13:00:04Z</time>
      </trkpt>
      <trkpt lat="46.97362" lon="5.84559">
        <ele>488</ele>
        <time>2020-12-26T13:00:05Z</time>
      </trkpt>
      <trkpt lat="46.97369" lon="5.84564">
        <ele>488</ele>
        <time>2020-12-26T13:00:06Z</time>
      </trkpt>
      <trkpt lat="46.97377" lon="5.84569">
        <ele>487.8</ele>
        <time>2020-12-26T13:00:07Z</time>
      </trkpt>
      <trkpt lat="46.97385" lon="5.84574">
        <ele>487.8</ele>
        <time>2020-12-26T13:00:08Z</time>
      </trkpt>
      <trkpt lat="46.97393" lon="5.84578">
        <ele>487.8</ele>
        <time>2020-12-26T13:00:09Z</time>
      </trkpt>
      <trkpt lat="46.974" lon="5.84582">
        <ele>487.8</ele>
        <time>2020-12-26T13:00:10Z</time>
      </trkpt>
      <trkpt lat="46.97408" lon="5.84585">
        <ele>487.8</ele>
        <time>2020-12-26T13:00:11Z</time>
      </trkpt>
      <trkpt lat="46.97417" lon="5.84588">
        <ele>487.6</ele>
        <time>2020-12-26T13:00:12Z</time>
      </trkpt>
      <trkpt lat="46.97425" lon="5.8459">
        <ele>487.6</ele>
        <time>2020-12-26T13:00:13Z</time>
      </trkpt>
      <trkpt lat="46.97434" lon="5.84593">
        <ele>487.2</ele>
        <time>2020-12-26T13:00:14Z</time>
      </trkpt>
      <trkpt lat="46.97443" lon="5.84596">
        <ele>487.2</ele>
        <time>2020-12-26T13:00:15Z</time>
      </trkpt>
      <trkpt lat="46.97451" lon="5.84598">
        <ele>486.8</ele>
        <time>2020-12-26T13:00:16Z</time>
      </trkpt>
      <trkpt lat="46.9746" lon="5.84601">
        <ele>486.8</ele>
        <time>2020-12-26T13:00:17Z</time>
      </trkpt>
      <trkpt lat="46.97469" lon="5.84603">
        <ele>486.6</ele>
        <time>2020-12-26T13:00:18Z</time>
      </trkpt>
      <trkpt lat="46.97478" lon="5.84606">
        <ele>486.6</ele>
        <time>2020-12-26T13:00:19Z</time>
      </trkpt>
      <trkpt lat="46.97486" lon="5.84609">
        <ele>486.6</ele>
        <time>2020-12-26T13:00:20Z</time>
      </trkpt>
      <trkpt lat="46.97494" lon="5.84613">
        <ele>486.6</ele>
        <time>2020-12-26T13:00:21Z</time>
      </trkpt>
      <trkpt lat="46.97503" lon="5.84616">
        <ele>486.4</ele>
        <time>2020-12-26T13:00:22Z</time>
      </trkpt>
      <trkpt lat="46.97512" lon="5.8462">
        <ele>486.4</ele>
        <time>2020-12-26T13:00:23Z</time>
      </trkpt>
      <trkpt lat="46.9752" lon="5.84623">
        <ele>486</ele>
        <time>2020-12-26T13:00:24Z</time>
      </trkpt>
      <trkpt lat="46.97529" lon="5.84626">
        <ele>485.8</ele>
        <time>2020-12-26T13:00:25Z</time>
      </trkpt>
      <trkpt lat="46.97538" lon="5.8463">
        <ele>485.6</ele>
        <time>2020-12-26T13:00:26Z</time>
      </trkpt>
      <trkpt lat="46.97547" lon="5.84633">
        <ele>485.4</ele>
        <time>2020-12-26T13:00:27Z</time>
      </trkpt>
      <trkpt lat="46.97556" lon="5.84637">
        <ele>485</ele>
        <time>2020-12-26T13:00:28Z</time>
      </trkpt>
      <trkpt lat="46.97565" lon="5.8464">
        <ele>485</ele>
        <time>2020-12-26T13:00:29Z</time>
      </trkpt>
      <trkpt lat="46.97574" lon="5.84643">
        <ele>484.8</ele>
        <time>2020-12-26T13:00:30Z</time>
      </trkpt>
      <trkpt lat="46.97583" lon="5.84647">
        <ele>484.8</ele>
        <time>2020-12-26T13:00:31Z</time>
      </trkpt>
      <trkpt lat="46.97592" lon="5.8465">
        <ele>484.4</ele>
        <time>2020-12-26T13:00:32Z</time>
      </trkpt>
      <trkpt lat="46.97601" lon="5.84653">
        <ele>484.2</ele>
        <time>2020-12-26T13:00:33Z</time>
      </trkpt>
      <trkpt lat="46.9761" lon="5.84656">
        <ele>484.2</ele>
        <time>2020-12-26T13:00:34Z</time>
      </trkpt>
      <trkpt lat="46.97619" lon="5.84659">
        <ele>484</ele>
        <time>2020-12-26T13:00:35Z</time>
      </trkpt>
      <trkpt lat="46.97628" lon="5.8466">
        <ele>484</ele>
        <time>2020-12-26T13:00:36Z</time>
      </trkpt>
      <trkpt lat="46.97637" lon="5.8466">
        <ele>483.6</ele>
        <time>2020-12-26T13:00:37Z</time>
      </trkpt>
      <trkpt lat="46.97646" lon="5.84659">
        <ele>483.6</ele>
        <time>2020-12-26T13:00:38Z</time>
      </trkpt>
      <trkpt lat="46.97656" lon="5.84657">
        <ele>483.6</ele>
        <time>2020-12-26T13:00:39Z</time>
      </trkpt>
      <trkpt lat="46.97665" lon="5.84654">
        <ele>483.6</ele>
        <time>2020-12-26T13:00:40Z</time>
      </trkpt>
      <trkpt lat="46.97674" lon="5.8465">
        <ele>483.6</ele>
        <time>2020-12-26T13:00:41Z</time>
      </trkpt>
      <trkpt lat="46.97683" lon="5.84646">
        <ele>483.6</ele>
        <time>2020-12-26T13:00:42Z</time>
      </trkpt>
      <trkpt lat="46.97692" lon="5.84641">
        <ele>483.6</ele>
        <time>2020-12-26T13:00:43Z</time>
      </trkpt>
      <trkpt lat="46.97701" lon="5.84635">
        <ele>483.6</ele>
        <time>2020-12-26T13:00:44Z</time>
      </trkpt>
      <trkpt lat="46.9771" lon="5.84629">
        <ele>483.6</ele>
        <time>2020-12-26T13:00:45Z</time>
      </trkpt>
      <trkpt lat="46.97719" lon="5.84625">
        <ele>483.6</ele>
        <time>2020-12-26T13:00:46Z</time>
      </trkpt>
      <trkpt lat="46.97728" lon="5.84621">
        <ele>483.6</ele>
        <time>2020-12-26T13:00:47Z</time>
      </trkpt>
      <trkpt lat="46.97736" lon="5.84617">
        <ele>483.6</ele>
        <time>2020-12-26T13:00:48Z</time>
      </trkpt>
      <trkpt lat="46.97745" lon="5.84616">
        <ele>484</ele>
        <time>2020-12-26T13:00:49Z</time>
      </trkpt>
      <trkpt lat="46.97755" lon="5.84618">
        <ele>484</ele>
        <time>2020-12-26T13:00:50Z</time>
      </trkpt>
      <trkpt lat="46.97764" lon="5.84619">
        <ele>484</ele>
        <time>2020-12-26T13:00:51Z</time>
      </trkpt>
      <trkpt lat="46.97773" lon="5.84622">
        <ele>484</ele>
        <time>2020-12-26T13:00:52Z</time>
      </trkpt>
      <trkpt lat="46.97782" lon="5.84624">
        <ele>484</ele>
        <time>2020-12-26T13:00:53Z</time>
      </trkpt>
      <trkpt lat="46.97791" lon="5.84628">
        <ele>483.6</ele>
        <time>2020-12-26T13:00:54Z</time>
      </trkpt>
      <trkpt lat="46.97801" lon="5.84631">
        <ele>483.6</ele>
        <time>2020-12-26T13:00:55Z</time>
      </trkpt>
      <trkpt lat="46.9781" lon="5.84633">
        <ele>483.6</ele>
        <time>2020-12-26T13:00:56Z</time>
      </trkpt>
      <trkpt lat="46.97819" lon="5.84636">
        <ele>483.6</ele>
        <time>2020-12-26T13:00:57Z</time>
      </trkpt>
      <trkpt lat="46.97829" lon="5.84639">
        <ele>483.6</ele>
        <time>2020-12-26T13:00:58Z</time>
      </trkpt>
      <trkpt lat="46.97838" lon="5.84642">
        <ele>483.4</ele>
        <time>2020-12-26T13:00:59Z</time>
      </trkpt>
      <trkpt lat="46.97847" lon="5.84644">
        <ele>483.4</ele>
        <time>2020-12-26T13:01:00Z</time>
      </trkpt>
      <trkpt lat="46.97857" lon="5.84647">
        <ele>483.4</ele>
        <time>2020-12-26T13:01:01Z</time>
      </trkpt>
      <trkpt lat="46.97866" lon="5.8465">
        <ele>483</ele>
        <time>2020-12-26T13:01:02Z</time>
      </trkpt>
      <trkpt lat="46.97876" lon="5.84653">
        <ele>483</ele>
        <time>2020-12-26T13:01:03Z</time>
      </trkpt>
      <trkpt lat="46.97885" lon="5.84656">
        <ele>483</ele>
        <time>2020-12-26T13:01:04Z</time>
      </trkpt>
      <trkpt lat="46.97895" lon="5.84659">
        <ele>482.8</ele>
        <time>2020-12-26T13:01:05Z</time>
      </trkpt>
      <trkpt lat="46.97905" lon="5.84662">
        <ele>482.8</ele>
        <time>2020-12-26T13:01:06Z</time>
      </trkpt>
      <trkpt lat="46.97915" lon="5.84665">
        <ele>482.4</ele>
        <time>2020-12-26T13:01:07Z</time>
      </trkpt>
      <trkpt lat="46.97925" lon="5.84669">
        <ele>482</ele>
        <time>2020-12-26T13:01:08Z</time>
      </trkpt>
      <trkpt lat="46.97934" lon="5.84673">
        <ele>481.8</ele>
        <time>2020-12-26T13:01:09Z</time>
      </trkpt>
      <trkpt lat="46.97944" lon="5.84677">
        <ele>481.6</ele>
        <time>2020-12-26T13:01:10Z</time>
      </trkpt>
      <trkpt lat="46.97953" lon="5.84681">
        <ele>481.4</ele>
        <time>2020-12-26T13:01:11Z</time>
      </trkpt>
      <trkpt lat="46.97962" lon="5.84686">
        <ele>481.2</ele>
        <time>2020-12-26T13:01:12Z</time>
      </trkpt>
      <trkpt lat="46.97971" lon="5.84692">
        <ele>480.8</ele>
        <time>2020-12-26T13:01:13Z</time>
      </trkpt>
      <trkpt lat="46.9798" lon="5.84699">
        <ele>480.6</ele>
        <time>2020-12-26T13:01:14Z</time>
      </trkpt>
      <trkpt lat="46.97988" lon="5.84706">
        <ele>480.6</ele>
        <time>2020-12-26T13:01:15Z</time>
      </trkpt>
      <trkpt lat="46.97997" lon="5.84714">
        <ele>480.2</ele>
        <time>2020-12-26T13:01:16Z</time>
      </trkpt>
      <trkpt lat="46.98005" lon="5.84721">
        <ele>480.2</ele>
        <time>2020-12-26T13:01:17Z</time>
      </trkpt>
      <trkpt lat="46.98013" lon="5.8473">
        <ele>480.2</ele>
        <time>2020-12-26T13:01:18Z</time>
      </trkpt>
      <trkpt lat="46.98021" lon="5.84739">
        <ele>480</ele>
        <time>2020-12-26T13:01:19Z</time>
      </trkpt>
      <trkpt lat="46.98029" lon="5.84748">
        <ele>480</ele>
        <time>2020-12-26T13:01:20Z</time>
      </trkpt>
      <trkpt lat="46.98037" lon="5.84757">
        <ele>479.6</ele>
        <time>2020-12-26T13:01:21Z</time>
      </trkpt>
      <trkpt lat="46.98044" lon="5.84766">
        <ele>479.6</ele>
        <time>2020-12-26T13:01:22Z</time>
      </trkpt>
      <trkpt lat="46.98051" lon="5.84776">
        <ele>479.4</ele>
        <time>2020-12-26T13:01:23Z</time>
      </trkpt>
      <trkpt lat="46.98058" lon="5.84785">
        <ele>479.4</ele>
        <time>2020-12-26T13:01:24Z</time>
      </trkpt>
      <trkpt lat="46.98065" lon="5.84794">
        <ele>479.4</ele>
        <time>2020-12-26T13:01:25Z</time>
      </trkpt>
      <trkpt lat="46.98072" lon="5.84802">
        <ele>479.4</ele>
        <time>2020-12-26T13:01:26Z</time>
      </trkpt>
      <trkpt lat="46.9808" lon="5.8481">
        <ele>479.4</ele>
        <time>2020-12-26T13:01:27Z</time>
      </trkpt>
      <trkpt lat="46.98087" lon="5.84818">
        <ele>479.4</ele>
        <time>2020-12-26T13:01:28Z</time>
      </trkpt>
      <trkpt lat="46.98094" lon="5.84825">
        <ele>479.4</ele>
        <time>2020-12-26T13:01:29Z</time>
      </trkpt>
      <trkpt lat="46.98102" lon="5.84832">
        <ele>479.4</ele>
        <time>2020-12-26T13:01:30Z</time>
      </trkpt>
      <trkpt lat="46.98109" lon="5.8484">
        <ele>479.4</ele>
        <time>2020-12-26T13:01:31Z</time>
      </trkpt>
      <trkpt lat="46.98117" lon="5.84847">
        <ele>479</ele>
        <time>2020-12-26T13:01:32Z</time>
      </trkpt>
      <trkpt lat="46.98126" lon="5.84854">
        <ele>479</ele>
        <time>2020-12-26T13:01:33Z</time>
      </trkpt>
      <trkpt lat="46.98134" lon="5.84861">
        <ele>478.8</ele>
        <time>2020-12-26T13:01:34Z</time>
      </trkpt>
      <trkpt lat="46.98143" lon="5.84867">
        <ele>478.8</ele>
        <time>2020-12-26T13:01:35Z</time>
      </trkpt>
      <trkpt lat="46.98151" lon="5.84873">
        <ele>478.6</ele>
        <time>2020-12-26T13:01:36Z</time>
      </trkpt>
      <trkpt lat="46.98159" lon="5.84879">
        <ele>478.6</ele>
        <time>2020-12-26T13:01:37Z</time>
      </trkpt>
      <trkpt lat="46.98167" lon="5.84885">
        <ele>478.6</ele>
        <time>2020-12-26T13:01:38Z</time>
      </trkpt>
      <trkpt lat="46.98175" lon="5.84891">
        <ele>478.4</ele>
        <time>2020-12-26T13:01:39Z</time>
      </trkpt>
      <trkpt lat="46.98183" lon="5.84897">
        <ele>478.4</ele>
        <time>2020-12-26T13:01:40Z</time>
      </trkpt>
      <trkpt lat="46.98191" lon="5.84904">
        <ele>478.4</ele>
        <time>2020-12-26T13:01:41Z</time>
      </trkpt>
      <trkpt lat="46.982" lon="5.84909">
        <ele>478.4</ele>
        <time>2020-12-26T13:01:42Z</time>
      </trkpt>
      <trkpt lat="46.98208" lon="5.84914">
        <ele>478.6</ele>
        <time>2020-12-26T13:01:43Z</time>
      </trkpt>
      <trkpt lat="46.98216" lon="5.8492">
        <ele>478.6</ele>
        <time>2020-12-26T13:01:44Z</time>
      </trkpt>
      <trkpt lat="46.98224" lon="5.84925">
        <ele>478.6</ele>
        <time>2020-12-26T13:01:45Z</time>
      </trkpt>
      <trkpt lat="46.98233" lon="5.8493">
        <ele>478.6</ele>
        <time>2020-12-26T13:01:46Z</time>
      </trkpt>
      <trkpt lat="46.98242" lon="5.84934">
        <ele>478.6</ele>
        <time>2020-12-26T13:01:47Z</time>
      </trkpt>
      <trkpt lat="46.98252" lon="5.84938">
        <ele>478.6</ele>
        <time>2020-12-26T13:01:48Z</time>
      </trkpt>
      <trkpt lat="46.98261" lon="5.84943">
        <ele>478.6</ele>
        <time>2020-12-26T13:01:49Z</time>
      </trkpt>
      <trkpt lat="46.98271" lon="5.84946">
        <ele>478.6</ele>
        <time>2020-12-26T13:01:50Z</time>
      </trkpt>
      <trkpt lat="46.98281" lon="5.84949">
        <ele>478.6</ele>
        <time>2020-12-26T13:01:51Z</time>
      </trkpt>
      <trkpt lat="46.98291" lon="5.84951">
        <ele>478.6</ele>
        <time>2020-12-26T13:01:52Z</time>
      </trkpt>
      <trkpt lat="46.983" lon="5.84954">
        <ele>478.6</ele>
        <time>2020-12-26T13:01:53Z</time>
      </trkpt>
      <trkpt lat="46.9831" lon="5.84956">
        <ele>478.6</ele>
        <time>2020-12-26T13:01:54Z</time>
      </trkpt>
      <trkpt lat="46.98319" lon="5.84959">
        <ele>478.6</ele>
        <time>2020-12-26T13:01:55Z</time>
      </trkpt>
      <trkpt lat="46.98328" lon="5.84962">
        <ele>478.6</ele>
        <time>2020-12-26T13:01:56Z</time>
      </trkpt>
      <trkpt lat="46.98337" lon="5.84965">
        <ele>478.6</ele>
        <time>2020-12-26T13:01:57Z</time>
      </trkpt>
      <trkpt lat="46.98346" lon="5.84968">
        <ele>478.6</ele>
        <time>2020-12-26T13:01:58Z</time>
      </trkpt>
      <trkpt lat="46.98355" lon="5.84972">
        <ele>478.6</ele>
        <time>2020-12-26T13:01:59Z</time>
      </trkpt>
      <trkpt lat="46.98363" lon="5.84976">
        <ele>478.6</ele>
        <time>2020-12-26T13:02:00Z</time>
      </trkpt>
      <trkpt lat="46.98372" lon="5.8498">
        <ele>478.4</ele>
        <time>2020-12-26T13:02:01Z</time>
      </trkpt>
      <trkpt lat="46.9838" lon="5.84984">
        <ele>478.4</ele>
        <time>2020-12-26T13:02:02Z</time>
      </trkpt>
      <trkpt lat="46.98389" lon="5.84989">
        <ele>478.2</ele>
        <time>2020-12-26T13:02:03Z</time>
      </trkpt>
      <trkpt lat="46.98398" lon="5.84995">
        <ele>478.2</ele>
        <time>2020-12-26T13:02:04Z</time>
      </trkpt>
      <trkpt lat="46.98407" lon="5.85">
        <ele>478</ele>
        <time>2020-12-26T13:02:05Z</time>
      </trkpt>
      <trkpt lat="46.98417" lon="5.85005">
        <ele>478</ele>
        <time>2020-12-26T13:02:06Z</time>
      </trkpt>
      <trkpt lat="46.98428" lon="5.8501">
        <ele>477.6</ele>
        <time>2020-12-26T13:02:07Z</time>
      </trkpt>
      <trkpt lat="46.98438" lon="5.85015">
        <ele>477.6</ele>
        <time>2020-12-26T13:02:08Z</time>
      </trkpt>
      <trkpt lat="46.98447" lon="5.8502">
        <ele>477.2</ele>
        <time>2020-12-26T13:02:09Z</time>
      </trkpt>
      <trkpt lat="46.98457" lon="5.85023">
        <ele>477.2</ele>
        <time>2020-12-26T13:02:10Z</time>
      </trkpt>
      <trkpt lat="46.98465" lon="5.85023">
        <ele>477</ele>
        <time>2020-12-26T13:02:11Z</time>
      </trkpt>
      <trkpt lat="46.98473" lon="5.85028">
        <ele>477</ele>
        <time>2020-12-26T13:02:12Z</time>
      </trkpt>
      <trkpt lat="46.98482" lon="5.85033">
        <ele>477</ele>
        <time>2020-12-26T13:02:13Z</time>
      </trkpt>
      <trkpt lat="46.9849" lon="5.85038">
        <ele>477</ele>
        <time>2020-12-26T13:02:14Z</time>
      </trkpt>
      <trkpt lat="46.98498" lon="5.85043">
        <ele>477</ele>
        <time>2020-12-26T13:02:15Z</time>
      </trkpt>
      <trkpt lat="46.98507" lon="5.85049">
        <ele>477</ele>
        <time>2020-12-26T13:02:16Z</time>
      </trkpt>
      <trkpt lat="46.98514" lon="5.85055">
        <ele>477</ele>
        <time>2020-12-26T13:02:17Z</time>
      </trkpt>
      <trkpt lat="46.9852" lon="5.85063">
        <ele>477</ele>
        <time>2020-12-26T13:02:18Z</time>
      </trkpt>
      <trkpt lat="46.98526" lon="5.85072">
        <ele>476.8</ele>
        <time>2020-12-26T13:02:19Z</time>
      </trkpt>
      <trkpt lat="46.98531" lon="5.85082">
        <ele>476.8</ele>
        <time>2020-12-26T13:02:20Z</time>
      </trkpt>
      <trkpt lat="46.98536" lon="5.85092">
        <ele>476.8</ele>
        <time>2020-12-26T13:02:21Z</time>
      </trkpt>
      <trkpt lat="46.9854" lon="5.85103">
        <ele>476.4</ele>
        <time>2020-12-26T13:02:22Z</time>
      </trkpt>
      <trkpt lat="46.98544" lon="5.85114">
        <ele>476.4</ele>
        <time>2020-12-26T13:02:23Z</time>
      </trkpt>
      <trkpt lat="46.98547" lon="5.85126">
        <ele>476.4</ele>
        <time>2020-12-26T13:02:24Z</time>
      </trkpt>
      <trkpt lat="46.9855" lon="5.85138">
        <ele>476.4</ele>
        <time>2020-12-26T13:02:25Z</time>
      </trkpt>
      <trkpt lat="46.98553" lon="5.8515">
        <ele>476.4</ele>
        <time>2020-12-26T13:02:26Z</time>
      </trkpt>
      <trkpt lat="46.98557" lon="5.85161">
        <ele>476.2</ele>
        <time>2020-12-26T13:02:27Z</time>
      </trkpt>
      <trkpt lat="46.9856" lon="5.85173">
        <ele>476.2</ele>
        <time>2020-12-26T13:02:28Z</time>
      </trkpt>
      <trkpt lat="46.98564" lon="5.85184">
        <ele>476.2</ele>
        <time>2020-12-26T13:02:29Z</time>
      </trkpt>
      <trkpt lat="46.98567" lon="5.85196">
        <ele>476.2</ele>
        <time>2020-12-26T13:02:30Z</time>
      </trkpt>
      <trkpt lat="46.9857" lon="5.85207">
        <ele>476.2</ele>
        <time>2020-12-26T13:02:31Z</time>
      </trkpt>
      <trkpt lat="46.98573" lon="5.85218">
        <ele>476.2</ele>
        <time>2020-12-26T13:02:32Z</time>
      </trkpt>
      <trkpt lat="46.98576" lon="5.85229">
        <ele>476.2</ele>
        <time>2020-12-26T13:02:33Z</time>
      </trkpt>
      <trkpt lat="46.98579" lon="5.8524">
        <ele>476.2</ele>
        <time>2020-12-26T13:02:34Z</time>
      </trkpt>
      <trkpt lat="46.98582" lon="5.85251">
        <ele>476.2</ele>
        <time>2020-12-26T13:02:35Z</time>
      </trkpt>
      <trkpt lat="46.98585" lon="5.85262">
        <ele>476.4</ele>
        <time>2020-12-26T13:02:36Z</time>
      </trkpt>
      <trkpt lat="46.98587" lon="5.85272">
        <ele>476.4</ele>
        <time>2020-12-26T13:02:37Z</time>
      </trkpt>
      <trkpt lat="46.9859" lon="5.85282">
        <ele>476.8</ele>
        <time>2020-12-26T13:02:38Z</time>
      </trkpt>
      <trkpt lat="46.98593" lon="5.85292">
        <ele>477.2</ele>
        <time>2020-12-26T13:02:39Z</time>
      </trkpt>
      <trkpt lat="46.98595" lon="5.853">
        <ele>477.4</ele>
        <time>2020-12-26T13:02:40Z</time>
      </trkpt>
      <trkpt lat="46.98597" lon="5.85309">
        <ele>477.8</ele>
        <time>2020-12-26T13:02:41Z</time>
      </trkpt>
      <trkpt lat="46.98599" lon="5.85316">
        <ele>478.2</ele>
        <time>2020-12-26T13:02:42Z</time>
      </trkpt>
      <trkpt lat="46.98602" lon="5.85323">
        <ele>478.6</ele>
        <time>2020-12-26T13:02:43Z</time>
      </trkpt>
      <trkpt lat="46.98604" lon="5.8533">
        <ele>479</ele>
        <time>2020-12-26T13:02:44Z</time>
      </trkpt>
      <trkpt lat="46.98606" lon="5.85335">
        <ele>479.4</ele>
        <time>2020-12-26T13:02:45Z</time>
      </trkpt>
      <trkpt lat="46.98609" lon="5.85341">
        <ele>479.8</ele>
        <time>2020-12-26T13:02:46Z</time>
      </trkpt>
      <trkpt lat="46.98611" lon="5.85346">
        <ele>480.2</ele>
        <time>2020-12-26T13:02:47Z</time>
      </trkpt>
      <trkpt lat="46.98613" lon="5.85351">
        <ele>480.6</ele>
        <time>2020-12-26T13:02:48Z</time>
      </trkpt>
      <trkpt lat="46.98616" lon="5.85355">
        <ele>481.2</ele>
        <time>2020-12-26T13:02:49Z</time>
      </trkpt>
      <trkpt lat="46.98618" lon="5.85359">
        <ele>481.6</ele>
        <time>2020-12-26T13:02:50Z</time>
      </trkpt>
      <trkpt lat="46.98621" lon="5.85363">
        <ele>482</ele>
        <time>2020-12-26T13:02:51Z</time>
      </trkpt>
      <trkpt lat="46.98624" lon="5.85367">
        <ele>482.4</ele>
        <time>2020-12-26T13:02:52Z</time>
      </trkpt>
      <trkpt lat="46.98627" lon="5.85371">
        <ele>482.8</ele>
        <time>2020-12-26T13:02:53Z</time>
      </trkpt>
      <trkpt lat="46.9863" lon="5.85375">
        <ele>483.2</ele>
        <time>2020-12-26T13:02:54Z</time>
      </trkpt>
      <trkpt lat="46.98633" lon="5.85378">
        <ele>483.6</ele>
        <time>2020-12-26T13:02:55Z</time>
      </trkpt>
      <trkpt lat="46.98636" lon="5.85381">
        <ele>483.8</ele>
        <time>2020-12-26T13:02:56Z</time>
      </trkpt>
      <trkpt lat="46.9864" lon="5.85384">
        <ele>484.2</ele>
        <time>2020-12-26T13:02:57Z</time>
      </trkpt>
      <trkpt lat="46.98643" lon="5.85387">
        <ele>484.4</ele>
        <time>2020-12-26T13:02:58Z</time>
      </trkpt>
      <trkpt lat="46.98646" lon="5.8539">
        <ele>484.4</ele>
        <time>2020-12-26T13:02:59Z</time>
      </trkpt>
      <trkpt lat="46.9865" lon="5.85392">
        <ele>484.6</ele>
        <time>2020-12-26T13:03:00Z</time>
      </trkpt>
      <trkpt lat="46.98653" lon="5.85394">
        <ele>484.6</ele>
        <time>2020-12-26T13:03:01Z</time>
      </trkpt>
      <trkpt lat="46.98656" lon="5.85397">
        <ele>484.8</ele>
        <time>2020-12-26T13:03:02Z</time>
      </trkpt>
      <trkpt lat="46.9866" lon="5.85399">
        <ele>484.8</ele>
        <time>2020-12-26T13:03:03Z</time>
      </trkpt>
      <trkpt lat="46.98663" lon="5.85402">
        <ele>485.2</ele>
        <time>2020-12-26T13:03:04Z</time>
      </trkpt>
      <trkpt lat="46.98667" lon="5.85405">
        <ele>485.2</ele>
        <time>2020-12-26T13:03:05Z</time>
      </trkpt>
      <trkpt lat="46.9867" lon="5.85407">
        <ele>485.2</ele>
        <time>2020-12-26T13:03:06Z</time>
      </trkpt>
      <trkpt lat="46.98673" lon="5.8541">
        <ele>485.4</ele>
        <time>2020-12-26T13:03:07Z</time>
      </trkpt>
      <trkpt lat="46.98676" lon="5.85412">
        <ele>485.6</ele>
        <time>2020-12-26T13:03:08Z</time>
      </trkpt>
      <trkpt lat="46.98679" lon="5.85415">
        <ele>485.6</ele>
        <time>2020-12-26T13:03:09Z</time>
      </trkpt>
      <trkpt lat="46.98682" lon="5.85418">
        <ele>486</ele>
        <time>2020-12-26T13:03:10Z</time>
      </trkpt>
      <trkpt lat="46.98686" lon="5.85421">
        <ele>486</ele>
        <time>2020-12-26T13:03:11Z</time>
      </trkpt>
      <trkpt lat="46.98689" lon="5.85423">
        <ele>486.4</ele>
        <time>2020-12-26T13:03:12Z</time>
      </trkpt>
      <trkpt lat="46.98692" lon="5.85426">
        <ele>486.4</ele>
        <time>2020-12-26T13:03:13Z</time>
      </trkpt>
      <trkpt lat="46.98696" lon="5.85428">
        <ele>486.6</ele>
        <time>2020-12-26T13:03:14Z</time>
      </trkpt>
      <trkpt lat="46.987" lon="5.85431">
        <ele>486.6</ele>
        <time>2020-12-26T13:03:15Z</time>
      </trkpt>
      <trkpt lat="46.98703" lon="5.85433">
        <ele>487</ele>
        <time>2020-12-26T13:03:16Z</time>
      </trkpt>
      <trkpt lat="46.98707" lon="5.85436">
        <ele>487</ele>
        <time>2020-12-26T13:03:17Z</time>
      </trkpt>
      <trkpt lat="46.98711" lon="5.85438">
        <ele>487.2</ele>
        <time>2020-12-26T13:03:18Z</time>
      </trkpt>
      <trkpt lat="46.98714" lon="5.85441">
        <ele>487.4</ele>
        <time>2020-12-26T13:03:19Z</time>
      </trkpt>
      <trkpt lat="46.98718" lon="5.85443">
        <ele>487.8</ele>
        <time>2020-12-26T13:03:20Z</time>
      </trkpt>
      <trkpt lat="46.98722" lon="5.85445">
        <ele>487.8</ele>
        <time>2020-12-26T13:03:21Z</time>
      </trkpt>
      <trkpt lat="46.98726" lon="5.85447">
        <ele>488</ele>
        <time>2020-12-26T13:03:22Z</time>
      </trkpt>
      <trkpt lat="46.98731" lon="5.85449">
        <ele>488</ele>
        <time>2020-12-26T13:03:23Z</time>
      </trkpt>
      <trkpt lat="46.98736" lon="5.85452">
        <ele>488.2</ele>
        <time>2020-12-26T13:03:24Z</time>
      </trkpt>
      <trkpt lat="46.9874" lon="5.85454">
        <ele>488.2</ele>
        <time>2020-12-26T13:03:25Z</time>
      </trkpt>
      <trkpt lat="46.98745" lon="5.85456">
        <ele>488.2</ele>
        <time>2020-12-26T13:03:26Z</time>
      </trkpt>
      <trkpt lat="46.98749" lon="5.85459">
        <ele>488.4</ele>
        <time>2020-12-26T13:03:27Z</time>
      </trkpt>
      <trkpt lat="46.98753" lon="5.85461">
        <ele>488.4</ele>
        <time>2020-12-26T13:03:28Z</time>
      </trkpt>
      <trkpt lat="46.98758" lon="5.85463">
        <ele>488.8</ele>
        <time>2020-12-26T13:03:29Z</time>
      </trkpt>
      <trkpt lat="46.98762" lon="5.85465">
        <ele>488.8</ele>
        <time>2020-12-26T13:03:30Z</time>
      </trkpt>
      <trkpt lat="46.98766" lon="5.85467">
        <ele>489</ele>
        <time>2020-12-26T13:03:31Z</time>
      </trkpt>
      <trkpt lat="46.98771" lon="5.85469">
        <ele>489</ele>
        <time>2020-12-26T13:03:32Z</time>
      </trkpt>
      <trkpt lat="46.98775" lon="5.8547">
        <ele>489.2</ele>
        <time>2020-12-26T13:03:33Z</time>
      </trkpt>
      <trkpt lat="46.98779" lon="5.85472">
        <ele>489.2</ele>
        <time>2020-12-26T13:03:34Z</time>
      </trkpt>
      <trkpt lat="46.98783" lon="5.85473">
        <ele>489.2</ele>
        <time>2020-12-26T13:03:35Z</time>
      </trkpt>
      <trkpt lat="46.98787" lon="5.85475">
        <ele>489.4</ele>
        <time>2020-12-26T13:03:36Z</time>
      </trkpt>
      <trkpt lat="46.98792" lon="5.85476">
        <ele>489.4</ele>
        <time>2020-12-26T13:03:37Z</time>
      </trkpt>
      <trkpt lat="46.98796" lon="5.85477">
        <ele>489.4</ele>
        <time>2020-12-26T13:03:38Z</time>
      </trkpt>
      <trkpt lat="46.98801" lon="5.85477">
        <ele>489.8</ele>
        <time>2020-12-26T13:03:39Z</time>
      </trkpt>
      <trkpt lat="46.98805" lon="5.85478">
        <ele>489.8</ele>
        <time>2020-12-26T13:03:40Z</time>
      </trkpt>
      <trkpt lat="46.98809" lon="5.85479">
        <ele>489.8</ele>
        <time>2020-12-26T13:03:41Z</time>
      </trkpt>
      <trkpt lat="46.98813" lon="5.8548">
        <ele>490</ele>
        <time>2020-12-26T13:03:42Z</time>
      </trkpt>
      <trkpt lat="46.98818" lon="5.8548">
        <ele>490</ele>
        <time>2020-12-26T13:03:43Z</time>
      </trkpt>
      <trkpt lat="46.98822" lon="5.85481">
        <ele>490</ele>
        <time>2020-12-26T13:03:44Z</time>
      </trkpt>
      <trkpt lat="46.98826" lon="5.85482">
        <ele>490</ele>
        <time>2020-12-26T13:03:45Z</time>
      </trkpt>
      <trkpt lat="46.98831" lon="5.85482">
        <ele>490</ele>
        <time>2020-12-26T13:03:46Z</time>
      </trkpt>
      <trkpt lat="46.98835" lon="5.85483">
        <ele>490</ele>
        <time>2020-12-26T13:03:47Z</time>
      </trkpt>
      <trkpt lat="46.9884" lon="5.85484">
        <ele>490</ele>
        <time>2020-12-26T13:03:48Z</time>
      </trkpt>
      <trkpt lat="46.98844" lon="5.85485">
        <ele>490</ele>
        <time>2020-12-26T13:03:49Z</time>
      </trkpt>
      <trkpt lat="46.98849" lon="5.85485">
        <ele>490</ele>
        <time>2020-12-26T13:03:50Z</time>
      </trkpt>
      <trkpt lat="46.98854" lon="5.85486">
        <ele>490</ele>
        <time>2020-12-26T13:03:51Z</time>
      </trkpt>
      <trkpt lat="46.9886" lon="5.85487">
        <ele>490</ele>
        <time>2020-12-26T13:03:52Z</time>
      </trkpt>
      <trkpt lat="46.98865" lon="5.85488">
        <ele>490</ele>
        <time>2020-12-26T13:03:53Z</time>
      </trkpt>
      <trkpt lat="46.98871" lon="5.85489">
        <ele>490</ele>
        <time>2020-12-26T13:03:54Z</time>
      </trkpt>
      <trkpt lat="46.98877" lon="5.8549">
        <ele>489.8</ele>
        <time>2020-12-26T13:03:55Z</time>
      </trkpt>
      <trkpt lat="46.98883" lon="5.85491">
        <ele>489.8</ele>
        <time>2020-12-26T13:03:56Z</time>
      </trkpt>
      <trkpt lat="46.98889" lon="5.85493">
        <ele>489.6</ele>
        <time>2020-12-26T13:03:57Z</time>
      </trkpt>
      <trkpt lat="46.98895" lon="5.85494">
        <ele>489.4</ele>
        <time>2020-12-26T13:03:58Z</time>
      </trkpt>
      <trkpt lat="46.98901" lon="5.85495">
        <ele>489.4</ele>
        <time>2020-12-26T13:03:59Z</time>
      </trkpt>
      <trkpt lat="46.98908" lon="5.85496">
        <ele>489.4</ele>
        <time>2020-12-26T13:04:00Z</time>
      </trkpt>
      <trkpt lat="46.98914" lon="5.85497">
        <ele>489</ele>
        <time>2020-12-26T13:04:01Z</time>
      </trkpt>
      <trkpt lat="46.9892" lon="5.85498">
        <ele>489</ele>
        <time>2020-12-26T13:04:02Z</time>
      </trkpt>
      <trkpt lat="46.98926" lon="5.85499">
        <ele>488.8</ele>
        <time>2020-12-26T13:04:03Z</time>
      </trkpt>
      <trkpt lat="46.98932" lon="5.85501">
        <ele>488.8</ele>
        <time>2020-12-26T13:04:04Z</time>
      </trkpt>
      <trkpt lat="46.98938" lon="5.85501">
        <ele>488.8</ele>
        <time>2020-12-26T13:04:05Z</time>
      </trkpt>
      <trkpt lat="46.98944" lon="5.85502">
        <ele>488.8</ele>
        <time>2020-12-26T13:04:06Z</time>
      </trkpt>
      <trkpt lat="46.9895" lon="5.85503">
        <ele>488.8</ele>
        <time>2020-12-26T13:04:07Z</time>
      </trkpt>
      <trkpt lat="46.98956" lon="5.85505">
        <ele>488.8</ele>
        <time>2020-12-26T13:04:08Z</time>
      </trkpt>
      <trkpt lat="46.98962" lon="5.85506">
        <ele>488.8</ele>
        <time>2020-12-26T13:04:09Z</time>
      </trkpt>
      <trkpt lat="46.98969" lon="5.85507">
        <ele>488.8</ele>
        <time>2020-12-26T13:04:10Z</time>
      </trkpt>
      <trkpt lat="46.98975" lon="5.85508">
        <ele>488.8</ele>
        <time>2020-12-26T13:04:11Z</time>
      </trkpt>
      <trkpt lat="46.98981" lon="5.85508">
        <ele>488.8</ele>
        <time>2020-12-26T13:04:12Z</time>
      </trkpt>
      <trkpt lat="46.98988" lon="5.85509">
        <ele>488.8</ele>
        <time>2020-12-26T13:04:13Z</time>
      </trkpt>
      <trkpt lat="46.98994" lon="5.8551">
        <ele>488.8</ele>
        <time>2020-12-26T13:04:14Z</time>
      </trkpt>
      <trkpt lat="46.99" lon="5.8551">
        <ele>488.8</ele>
        <time>2020-12-26T13:04:15Z</time>
      </trkpt>
      <trkpt lat="46.99005" lon="5.85511">
        <ele>489</ele>
        <time>2020-12-26T13:04:16Z</time>
      </trkpt>
      <trkpt lat="46.99011" lon="5.85512">
        <ele>489</ele>
        <time>2020-12-26T13:04:17Z</time>
      </trkpt>
      <trkpt lat="46.99017" lon="5.85513">
        <ele>489.4</ele>
        <time>2020-12-26T13:04:18Z</time>
      </trkpt>
      <trkpt lat="46.99022" lon="5.85513">
        <ele>489.4</ele>
        <time>2020-12-26T13:04:19Z</time>
      </trkpt>
      <trkpt lat="46.99028" lon="5.85514">
        <ele>489.6</ele>
        <time>2020-12-26T13:04:20Z</time>
      </trkpt>
      <trkpt lat="46.99034" lon="5.85515">
        <ele>489.6</ele>
        <time>2020-12-26T13:04:21Z</time>
      </trkpt>
      <trkpt lat="46.99039" lon="5.85515">
        <ele>490</ele>
        <time>2020-12-26T13:04:22Z</time>
      </trkpt>
      <trkpt lat="46.99045" lon="5.85516">
        <ele>490</ele>
        <time>2020-12-26T13:04:23Z</time>
      </trkpt>
      <trkpt lat="46.9905" lon="5.85518">
        <ele>490.2</ele>
        <time>2020-12-26T13:04:24Z</time>
      </trkpt>
      <trkpt lat="46.99056" lon="5.85519">
        <ele>490.2</ele>
        <time>2020-12-26T13:04:25Z</time>
      </trkpt>
      <trkpt lat="46.99061" lon="5.8552">
        <ele>490.4</ele>
        <time>2020-12-26T13:04:26Z</time>
      </trkpt>
      <trkpt lat="46.99067" lon="5.85522">
        <ele>490.4</ele>
        <time>2020-12-26T13:04:27Z</time>
      </trkpt>
      <trkpt lat="46.99072" lon="5.85523">
        <ele>490.8</ele>
        <time>2020-12-26T13:04:28Z</time>
      </trkpt>
      <trkpt lat="46.99078" lon="5.85525">
        <ele>490.8</ele>
        <time>2020-12-26T13:04:29Z</time>
      </trkpt>
      <trkpt lat="46.99084" lon="5.85527">
        <ele>490.8</ele>
        <time>2020-12-26T13:04:30Z</time>
      </trkpt>
      <trkpt lat="46.99089" lon="5.85528">
        <ele>490.8</ele>
        <time>2020-12-26T13:04:31Z</time>
      </trkpt>
      <trkpt lat="46.99095" lon="5.8553">
        <ele>490.8</ele>
        <time>2020-12-26T13:04:32Z</time>
      </trkpt>
      <trkpt lat="46.99101" lon="5.85531">
        <ele>490.8</ele>
        <time>2020-12-26T13:04:33Z</time>
      </trkpt>
      <trkpt lat="46.99108" lon="5.85533">
        <ele>490.8</ele>
        <time>2020-12-26T13:04:34Z</time>
      </trkpt>
      <trkpt lat="46.99114" lon="5.85535">
        <ele>490.8</ele>
        <time>2020-12-26T13:04:35Z</time>
      </trkpt>
      <trkpt lat="46.9912" lon="5.85536">
        <ele>490.8</ele>
        <time>2020-12-26T13:04:36Z</time>
      </trkpt>
      <trkpt lat="46.99126" lon="5.85538">
        <ele>490.8</ele>
        <time>2020-12-26T13:04:37Z</time>
      </trkpt>
      <trkpt lat="46.99132" lon="5.8554">
        <ele>490.8</ele>
        <time>2020-12-26T13:04:38Z</time>
      </trkpt>
      <trkpt lat="46.99139" lon="5.85542">
        <ele>490.4</ele>
        <time>2020-12-26T13:04:39Z</time>
      </trkpt>
      <trkpt lat="46.99145" lon="5.85544">
        <ele>490.4</ele>
        <time>2020-12-26T13:04:40Z</time>
      </trkpt>
      <trkpt lat="46.99151" lon="5.85546">
        <ele>490</ele>
        <time>2020-12-26T13:04:41Z</time>
      </trkpt>
      <trkpt lat="46.99158" lon="5.85548">
        <ele>490</ele>
        <time>2020-12-26T13:04:42Z</time>
      </trkpt>
      <trkpt lat="46.99164" lon="5.85549">
        <ele>489.8</ele>
        <time>2020-12-26T13:04:43Z</time>
      </trkpt>
      <trkpt lat="46.9917" lon="5.85551">
        <ele>489.8</ele>
        <time>2020-12-26T13:04:44Z</time>
      </trkpt>
      <trkpt lat="46.99177" lon="5.85553">
        <ele>489.8</ele>
        <time>2020-12-26T13:04:45Z</time>
      </trkpt>
      <trkpt lat="46.99183" lon="5.85555">
        <ele>489.4</ele>
        <time>2020-12-26T13:04:46Z</time>
      </trkpt>
      <trkpt lat="46.9919" lon="5.85557">
        <ele>489.4</ele>
        <time>2020-12-26T13:04:47Z</time>
      </trkpt>
      <trkpt lat="46.99196" lon="5.85559">
        <ele>489.4</ele>
        <time>2020-12-26T13:04:48Z</time>
      </trkpt>
      <trkpt lat="46.99203" lon="5.85561">
        <ele>489.4</ele>
        <time>2020-12-26T13:04:49Z</time>
      </trkpt>
      <trkpt lat="46.9921" lon="5.85563">
        <ele>489.2</ele>
        <time>2020-12-26T13:04:50Z</time>
      </trkpt>
      <trkpt lat="46.99217" lon="5.85565">
        <ele>489.2</ele>
        <time>2020-12-26T13:04:51Z</time>
      </trkpt>
      <trkpt lat="46.99224" lon="5.85567">
        <ele>489.2</ele>
        <time>2020-12-26T13:04:52Z</time>
      </trkpt>
      <trkpt lat="46.99231" lon="5.85569">
        <ele>488.8</ele>
        <time>2020-12-26T13:04:53Z</time>
      </trkpt>
      <trkpt lat="46.99238" lon="5.85571">
        <ele>488.6</ele>
        <time>2020-12-26T13:04:54Z</time>
      </trkpt>
      <trkpt lat="46.99245" lon="5.85573">
        <ele>488.6</ele>
        <time>2020-12-26T13:04:55Z</time>
      </trkpt>
      <trkpt lat="46.99252" lon="5.85575">
        <ele>488.2</ele>
        <time>2020-12-26T13:04:56Z</time>
      </trkpt>
      <trkpt lat="46.99259" lon="5.85577">
        <ele>488.2</ele>
        <time>2020-12-26T13:04:57Z</time>
      </trkpt>
      <trkpt lat="46.99266" lon="5.85579">
        <ele>488</ele>
        <time>2020-12-26T13:04:58Z</time>
      </trkpt>
      <trkpt lat="46.99273" lon="5.85581">
        <ele>488</ele>
        <time>2020-12-26T13:04:59Z</time>
      </trkpt>
      <trkpt lat="46.9928" lon="5.85583">
        <ele>487.8</ele>
        <time>2020-12-26T13:05:00Z</time>
      </trkpt>
      <trkpt lat="46.99287" lon="5.85585">
        <ele>487.8</ele>
        <time>2020-12-26T13:05:01Z</time>
      </trkpt>
      <trkpt lat="46.99294" lon="5.85587">
        <ele>487.4</ele>
        <time>2020-12-26T13:05:02Z</time>
      </trkpt>
      <trkpt lat="46.99301" lon="5.85589">
        <ele>487.2</ele>
        <time>2020-12-26T13:05:03Z</time>
      </trkpt>
      <trkpt lat="46.99308" lon="5.85591">
        <ele>487.2</ele>
        <time>2020-12-26T13:05:04Z</time>
      </trkpt>
      <trkpt lat="46.99315" lon="5.85593">
        <ele>487.2</ele>
        <time>2020-12-26T13:05:05Z</time>
      </trkpt>
      <trkpt lat="46.99322" lon="5.85595">
        <ele>486.8</ele>
        <time>2020-12-26T13:05:06Z</time>
      </trkpt>
      <trkpt lat="46.99329" lon="5.85597">
        <ele>486.8</ele>
        <time>2020-12-26T13:05:07Z</time>
      </trkpt>
      <trkpt lat="46.99336" lon="5.856">
        <ele>486.6</ele>
        <time>2020-12-26T13:05:08Z</time>
      </trkpt>
      <trkpt lat="46.99343" lon="5.85602">
        <ele>486.6</ele>
        <time>2020-12-26T13:05:09Z</time>
      </trkpt>
      <trkpt lat="46.9935" lon="5.85604">
        <ele>486.6</ele>
        <time>2020-12-26T13:05:10Z</time>
      </trkpt>
      <trkpt lat="46.99357" lon="5.85606">
        <ele>486.6</ele>
        <time>2020-12-26T13:05:11Z</time>
      </trkpt>
      <trkpt lat="46.99364" lon="5.85608">
        <ele>486.2</ele>
        <time>2020-12-26T13:05:12Z</time>
      </trkpt>
      <trkpt lat="46.99371" lon="5.8561">
        <ele>486.2</ele>
        <time>2020-12-26T13:05:13Z</time>
      </trkpt>
      <trkpt lat="46.99377" lon="5.85612">
        <ele>485.8</ele>
        <time>2020-12-26T13:05:14Z</time>
      </trkpt>
      <trkpt lat="46.99384" lon="5.85614">
        <ele>485.8</ele>
        <time>2020-12-26T13:05:15Z</time>
      </trkpt>
      <trkpt lat="46.99391" lon="5.85616">
        <ele>485.6</ele>
        <time>2020-12-26T13:05:16Z</time>
      </trkpt>
      <trkpt lat="46.99398" lon="5.85618">
        <ele>485.6</ele>
        <time>2020-12-26T13:05:17Z</time>
      </trkpt>
      <trkpt lat="46.99404" lon="5.8562">
        <ele>485.6</ele>
        <time>2020-12-26T13:05:18Z</time>
      </trkpt>
      <trkpt lat="46.99411" lon="5.85622">
        <ele>485.4</ele>
        <time>2020-12-26T13:05:19Z</time>
      </trkpt>
      <trkpt lat="46.99418" lon="5.85624">
        <ele>485.4</ele>
        <time>2020-12-26T13:05:20Z</time>
      </trkpt>
      <trkpt lat="46.99424" lon="5.85626">
        <ele>485.4</ele>
        <time>2020-12-26T13:05:21Z</time>
      </trkpt>
      <trkpt lat="46.99431" lon="5.85628">
        <ele>485.2</ele>
        <time>2020-12-26T13:05:22Z</time>
      </trkpt>
      <trkpt lat="46.99438" lon="5.8563">
        <ele>485.2</ele>
        <time>2020-12-26T13:05:23Z</time>
      </trkpt>
      <trkpt lat="46.99445" lon="5.85631">
        <ele>485.2</ele>
        <time>2020-12-26T13:05:24Z</time>
      </trkpt>
      <trkpt lat="46.99451" lon="5.85633">
        <ele>485.2</ele>
        <time>2020-12-26T13:05:25Z</time>
      </trkpt>
      <trkpt lat="46.99458" lon="5.85635">
        <ele>484.8</ele>
        <time>2020-12-26T13:05:26Z</time>
      </trkpt>
      <trkpt lat="46.99465" lon="5.85636">
        <ele>484.8</ele>
        <time>2020-12-26T13:05:27Z</time>
      </trkpt>
      <trkpt lat="46.99472" lon="5.85638">
        <ele>484.8</ele>
        <time>2020-12-26T13:05:28Z</time>
      </trkpt>
      <trkpt lat="46.99479" lon="5.8564">
        <ele>484.6</ele>
        <time>2020-12-26T13:05:29Z</time>
      </trkpt>
      <trkpt lat="46.99486" lon="5.85642">
        <ele>484.2</ele>
        <time>2020-12-26T13:05:30Z</time>
      </trkpt>
      <trkpt lat="46.99493" lon="5.85645">
        <ele>484.2</ele>
        <time>2020-12-26T13:05:31Z</time>
      </trkpt>
      <trkpt lat="46.99501" lon="5.85647">
        <ele>484.2</ele>
        <time>2020-12-26T13:05:32Z</time>
      </trkpt>
      <trkpt lat="46.99508" lon="5.85649">
        <ele>484.2</ele>
        <time>2020-12-26T13:05:33Z</time>
      </trkpt>
      <trkpt lat="46.99515" lon="5.85652">
        <ele>484.2</ele>
        <time>2020-12-26T13:05:34Z</time>
      </trkpt>
      <trkpt lat="46.99522" lon="5.85655">
        <ele>484.6</ele>
        <time>2020-12-26T13:05:35Z</time>
      </trkpt>
      <trkpt lat="46.9953" lon="5.85657">
        <ele>485</ele>
        <time>2020-12-26T13:05:36Z</time>
      </trkpt>
      <trkpt lat="46.99537" lon="5.85659">
        <ele>485</ele>
        <time>2020-12-26T13:05:37Z</time>
      </trkpt>
      <trkpt lat="46.99544" lon="5.85661">
        <ele>485.4</ele>
        <time>2020-12-26T13:05:38Z</time>
      </trkpt>
      <trkpt lat="46.99552" lon="5.85663">
        <ele>485.4</ele>
        <time>2020-12-26T13:05:39Z</time>
      </trkpt>
      <trkpt lat="46.99559" lon="5.85665">
        <ele>485.4</ele>
        <time>2020-12-26T13:05:40Z</time>
      </trkpt>
      <trkpt lat="46.99566" lon="5.85668">
        <ele>485.6</ele>
        <time>2020-12-26T13:05:41Z</time>
      </trkpt>
      <trkpt lat="46.99574" lon="5.8567">
        <ele>485.6</ele>
        <time>2020-12-26T13:05:42Z</time>
      </trkpt>
      <trkpt lat="46.9958" lon="5.85673">
        <ele>485.8</ele>
        <time>2020-12-26T13:05:43Z</time>
      </trkpt>
      <trkpt lat="46.99587" lon="5.85675">
        <ele>485.8</ele>
        <time>2020-12-26T13:05:44Z</time>
      </trkpt>
      <trkpt lat="46.99594" lon="5.85678">
        <ele>485.8</ele>
        <time>2020-12-26T13:05:45Z</time>
      </trkpt>
      <trkpt lat="46.99601" lon="5.8568">
        <ele>485.8</ele>
        <time>2020-12-26T13:05:46Z</time>
      </trkpt>
      <trkpt lat="46.99608" lon="5.85683">
        <ele>485.8</ele>
        <time>2020-12-26T13:05:47Z</time>
      </trkpt>
      <trkpt lat="46.99615" lon="5.85685">
        <ele>485.8</ele>
        <time>2020-12-26T13:05:48Z</time>
      </trkpt>
      <trkpt lat="46.99623" lon="5.85687">
        <ele>485.6</ele>
        <time>2020-12-26T13:05:49Z</time>
      </trkpt>
      <trkpt lat="46.9963" lon="5.8569">
        <ele>485.4</ele>
        <time>2020-12-26T13:05:50Z</time>
      </trkpt>
      <trkpt lat="46.99638" lon="5.85693">
        <ele>484.8</ele>
        <time>2020-12-26T13:05:51Z</time>
      </trkpt>
      <trkpt lat="46.99647" lon="5.85696">
        <ele>484.2</ele>
        <time>2020-12-26T13:05:52Z</time>
      </trkpt>
      <trkpt lat="46.99655" lon="5.85699">
        <ele>483.4</ele>
        <time>2020-12-26T13:05:53Z</time>
      </trkpt>
      <trkpt lat="46.99664" lon="5.85702">
        <ele>482.8</ele>
        <time>2020-12-26T13:05:54Z</time>
      </trkpt>
      <trkpt lat="46.99672" lon="5.85704">
        <ele>482.2</ele>
        <time>2020-12-26T13:05:55Z</time>
      </trkpt>
      <trkpt lat="46.9968" lon="5.85707">
        <ele>481.8</ele>
        <time>2020-12-26T13:05:56Z</time>
      </trkpt>
      <trkpt lat="46.99686" lon="5.85709">
        <ele>481.6</ele>
        <time>2020-12-26T13:05:57Z</time>
      </trkpt>
      <trkpt lat="46.99691" lon="5.85712">
        <ele>481.4</ele>
        <time>2020-12-26T13:05:58Z</time>
      </trkpt>
      <trkpt lat="46.99696" lon="5.85716">
        <ele>481.4</ele>
        <time>2020-12-26T13:05:59Z</time>
      </trkpt>
      <trkpt lat="46.99698" lon="5.85721">
        <ele>481.2</ele>
        <time>2020-12-26T13:06:00Z</time>
      </trkpt>
      <trkpt lat="46.99699" lon="5.85728">
        <ele>481.2</ele>
        <time>2020-12-26T13:06:01Z</time>
      </trkpt>
      <trkpt lat="46.99698" lon="5.85734">
        <ele>481.2</ele>
        <time>2020-12-26T13:06:02Z</time>
      </trkpt>
      <trkpt lat="46.99696" lon="5.85741">
        <ele>481.2</ele>
        <time>2020-12-26T13:06:03Z</time>
      </trkpt>
      <trkpt lat="46.99694" lon="5.85748">
        <ele>481.2</ele>
        <time>2020-12-26T13:06:04Z</time>
      </trkpt>
      <trkpt lat="46.99692" lon="5.85756">
        <ele>481.2</ele>
        <time>2020-12-26T13:06:05Z</time>
      </trkpt>
      <trkpt lat="46.99691" lon="5.85763">
        <ele>481.2</ele>
        <time>2020-12-26T13:06:06Z</time>
      </trkpt>
      <trkpt lat="46.9969" lon="5.85771">
        <ele>481.6</ele>
        <time>2020-12-26T13:06:07Z</time>
      </trkpt>
      <trkpt lat="46.99689" lon="5.85779">
        <ele>481.8</ele>
        <time>2020-12-26T13:06:08Z</time>
      </trkpt>
      <trkpt lat="46.99688" lon="5.85786">
        <ele>482</ele>
        <time>2020-12-26T13:06:09Z</time>
      </trkpt>
      <trkpt lat="46.99686" lon="5.85794">
        <ele>482.2</ele>
        <time>2020-12-26T13:06:10Z</time>
      </trkpt>
      <trkpt lat="46.99685" lon="5.85802">
        <ele>482.6</ele>
        <time>2020-12-26T13:06:11Z</time>
      </trkpt>
      <trkpt lat="46.99683" lon="5.85811">
        <ele>482.8</ele>
        <time>2020-12-26T13:06:12Z</time>
      </trkpt>
      <trkpt lat="46.99682" lon="5.85819">
        <ele>483</ele>
        <time>2020-12-26T13:06:13Z</time>
      </trkpt>
      <trkpt lat="46.9968" lon="5.85828">
        <ele>483</ele>
        <time>2020-12-26T13:06:14Z</time>
      </trkpt>
      <trkpt lat="46.99679" lon="5.85837">
        <ele>483.4</ele>
        <time>2020-12-26T13:06:15Z</time>
      </trkpt>
      <trkpt lat="46.99677" lon="5.85845">
        <ele>483.4</ele>
        <time>2020-12-26T13:06:16Z</time>
      </trkpt>
      <trkpt lat="46.99675" lon="5.85854">
        <ele>483.8</ele>
        <time>2020-12-26T13:06:17Z</time>
      </trkpt>
      <trkpt lat="46.99674" lon="5.85862">
        <ele>483.8</ele>
        <time>2020-12-26T13:06:18Z</time>
      </trkpt>
      <trkpt lat="46.99672" lon="5.8587">
        <ele>483.8</ele>
        <time>2020-12-26T13:06:19Z</time>
      </trkpt>
      <trkpt lat="46.9967" lon="5.85879">
        <ele>483.8</ele>
        <time>2020-12-26T13:06:20Z</time>
      </trkpt>
      <trkpt lat="46.99667" lon="5.85889">
        <ele>483.8</ele>
        <time>2020-12-26T13:06:21Z</time>
      </trkpt>
      <trkpt lat="46.99665" lon="5.85898">
        <ele>483.8</ele>
        <time>2020-12-26T13:06:22Z</time>
      </trkpt>
      <trkpt lat="46.99662" lon="5.85907">
        <ele>483.6</ele>
        <time>2020-12-26T13:06:23Z</time>
      </trkpt>
      <trkpt lat="46.99659" lon="5.85916">
        <ele>483.6</ele>
        <time>2020-12-26T13:06:24Z</time>
      </trkpt>
      <trkpt lat="46.99656" lon="5.85925">
        <ele>483.6</ele>
        <time>2020-12-26T13:06:25Z</time>
      </trkpt>
      <trkpt lat="46.99652" lon="5.85933">
        <ele>483.6</ele>
        <time>2020-12-26T13:06:26Z</time>
      </trkpt>
      <trkpt lat="46.99649" lon="5.85942">
        <ele>483.6</ele>
        <time>2020-12-26T13:06:27Z</time>
      </trkpt>
      <trkpt lat="46.99645" lon="5.85949">
        <ele>483.6</ele>
        <time>2020-12-26T13:06:28Z</time>
      </trkpt>
      <trkpt lat="46.9964" lon="5.85957">
        <ele>483.6</ele>
        <time>2020-12-26T13:06:29Z</time>
      </trkpt>
      <trkpt lat="46.99636" lon="5.85964">
        <ele>483.6</ele>
        <time>2020-12-26T13:06:30Z</time>
      </trkpt>
      <trkpt lat="46.99632" lon="5.85971">
        <ele>483.4</ele>
        <time>2020-12-26T13:06:31Z</time>
      </trkpt>
      <trkpt lat="46.99629" lon="5.8598">
        <ele>483.4</ele>
        <time>2020-12-26T13:06:32Z</time>
      </trkpt>
      <trkpt lat="46.99628" lon="5.85991">
        <ele>483</ele>
        <time>2020-12-26T13:06:33Z</time>
      </trkpt>
      <trkpt lat="46.99627" lon="5.86002">
        <ele>482.6</ele>
        <time>2020-12-26T13:06:34Z</time>
      </trkpt>
      <trkpt lat="46.99627" lon="5.86013">
        <ele>482.2</ele>
        <time>2020-12-26T13:06:35Z</time>
      </trkpt>
      <trkpt lat="46.99627" lon="5.86025">
        <ele>482</ele>
        <time>2020-12-26T13:06:36Z</time>
      </trkpt>
      <trkpt lat="46.99627" lon="5.86036">
        <ele>481.8</ele>
        <time>2020-12-26T13:06:37Z</time>
      </trkpt>
      <trkpt lat="46.99626" lon="5.86047">
        <ele>481.8</ele>
        <time>2020-12-26T13:06:38Z</time>
      </trkpt>
      <trkpt lat="46.99625" lon="5.86057">
        <ele>481.4</ele>
        <time>2020-12-26T13:06:39Z</time>
      </trkpt>
      <trkpt lat="46.99623" lon="5.86067">
        <ele>481.4</ele>
        <time>2020-12-26T13:06:40Z</time>
      </trkpt>
      <trkpt lat="46.99622" lon="5.86077">
        <ele>481.2</ele>
        <time>2020-12-26T13:06:41Z</time>
      </trkpt>
      <trkpt lat="46.99621" lon="5.86086">
        <ele>481.2</ele>
        <time>2020-12-26T13:06:42Z</time>
      </trkpt>
      <trkpt lat="46.99621" lon="5.86096">
        <ele>481.2</ele>
        <time>2020-12-26T13:06:43Z</time>
      </trkpt>
      <trkpt lat="46.99621" lon="5.86105">
        <ele>481.2</ele>
        <time>2020-12-26T13:06:44Z</time>
      </trkpt>
      <trkpt lat="46.99621" lon="5.86115">
        <ele>481.2</ele>
        <time>2020-12-26T13:06:45Z</time>
      </trkpt>
      <trkpt lat="46.99621" lon="5.86124">
        <ele>481.2</ele>
        <time>2020-12-26T13:06:46Z</time>
      </trkpt>
      <trkpt lat="46.99622" lon="5.86133">
        <ele>481.2</ele>
        <time>2020-12-26T13:06:47Z</time>
      </trkpt>
      <trkpt lat="46.99623" lon="5.86142">
        <ele>481.6</ele>
        <time>2020-12-26T13:06:48Z</time>
      </trkpt>
      <trkpt lat="46.99625" lon="5.8615">
        <ele>481.8</ele>
        <time>2020-12-26T13:06:49Z</time>
      </trkpt>
      <trkpt lat="46.99626" lon="5.86158">
        <ele>481.8</ele>
        <time>2020-12-26T13:06:50Z</time>
      </trkpt>
      <trkpt lat="46.99628" lon="5.86165">
        <ele>482</ele>
        <time>2020-12-26T13:06:51Z</time>
      </trkpt>
      <trkpt lat="46.9963" lon="5.86172">
        <ele>482.2</ele>
        <time>2020-12-26T13:06:52Z</time>
      </trkpt>
      <trkpt lat="46.99632" lon="5.86178">
        <ele>482.2</ele>
        <time>2020-12-26T13:06:53Z</time>
      </trkpt>
      <trkpt lat="46.99635" lon="5.86185">
        <ele>482.6</ele>
        <time>2020-12-26T13:06:54Z</time>
      </trkpt>
      <trkpt lat="46.99638" lon="5.86192">
        <ele>483</ele>
        <time>2020-12-26T13:06:55Z</time>
      </trkpt>
      <trkpt lat="46.99641" lon="5.86199">
        <ele>483.2</ele>
        <time>2020-12-26T13:06:56Z</time>
      </trkpt>
      <trkpt lat="46.99644" lon="5.86205">
        <ele>483.4</ele>
        <time>2020-12-26T13:06:57Z</time>
      </trkpt>
      <trkpt lat="46.99646" lon="5.86212">
        <ele>483.6</ele>
        <time>2020-12-26T13:06:58Z</time>
      </trkpt>
      <trkpt lat="46.99649" lon="5.86218">
        <ele>484</ele>
        <time>2020-12-26T13:06:59Z</time>
      </trkpt>
      <trkpt lat="46.99651" lon="5.86224">
        <ele>484.2</ele>
        <time>2020-12-26T13:07:00Z</time>
      </trkpt>
      <trkpt lat="46.99654" lon="5.8623">
        <ele>484.4</ele>
        <time>2020-12-26T13:07:01Z</time>
      </trkpt>
      <trkpt lat="46.99656" lon="5.86236">
        <ele>484.6</ele>
        <time>2020-12-26T13:07:02Z</time>
      </trkpt>
      <trkpt lat="46.99658" lon="5.86241">
        <ele>485</ele>
        <time>2020-12-26T13:07:03Z</time>
      </trkpt>
      <trkpt lat="46.9966" lon="5.86246">
        <ele>485.2</ele>
        <time>2020-12-26T13:07:04Z</time>
      </trkpt>
      <trkpt lat="46.99662" lon="5.86252">
        <ele>485.2</ele>
        <time>2020-12-26T13:07:05Z</time>
      </trkpt>
      <trkpt lat="46.99664" lon="5.86257">
        <ele>485.6</ele>
        <time>2020-12-26T13:07:06Z</time>
      </trkpt>
      <trkpt lat="46.99665" lon="5.86262">
        <ele>486</ele>
        <time>2020-12-26T13:07:07Z</time>
      </trkpt>
      <trkpt lat="46.99666" lon="5.86268">
        <ele>486.2</ele>
        <time>2020-12-26T13:07:08Z</time>
      </trkpt>
      <trkpt lat="46.99667" lon="5.86273">
        <ele>486.4</ele>
        <time>2020-12-26T13:07:09Z</time>
      </trkpt>
      <trkpt lat="46.99668" lon="5.86277">
        <ele>486.8</ele>
        <time>2020-12-26T13:07:10Z</time>
      </trkpt>
      <trkpt lat="46.99669" lon="5.86282">
        <ele>486.8</ele>
        <time>2020-12-26T13:07:11Z</time>
      </trkpt>
      <trkpt lat="46.9967" lon="5.86287">
        <ele>487.2</ele>
        <time>2020-12-26T13:07:12Z</time>
      </trkpt>
      <trkpt lat="46.99671" lon="5.86292">
        <ele>487.4</ele>
        <time>2020-12-26T13:07:13Z</time>
      </trkpt>
      <trkpt lat="46.99673" lon="5.86296">
        <ele>487.8</ele>
        <time>2020-12-26T13:07:14Z</time>
      </trkpt>
      <trkpt lat="46.99674" lon="5.86301">
        <ele>488</ele>
        <time>2020-12-26T13:07:15Z</time>
      </trkpt>
      <trkpt lat="46.99676" lon="5.86305">
        <ele>488</ele>
        <time>2020-12-26T13:07:16Z</time>
      </trkpt>
      <trkpt lat="46.99678" lon="5.86309">
        <ele>488.4</ele>
        <time>2020-12-26T13:07:17Z</time>
      </trkpt>
      <trkpt lat="46.9968" lon="5.86314">
        <ele>488.6</ele>
        <time>2020-12-26T13:07:18Z</time>
      </trkpt>
      <trkpt lat="46.99681" lon="5.86318">
        <ele>488.6</ele>
        <time>2020-12-26T13:07:19Z</time>
      </trkpt>
      <trkpt lat="46.99682" lon="5.86323">
        <ele>488.8</ele>
        <time>2020-12-26T13:07:20Z</time>
      </trkpt>
      <trkpt lat="46.99684" lon="5.86328">
        <ele>489.2</ele>
        <time>2020-12-26T13:07:21Z</time>
      </trkpt>
      <trkpt lat="46.99685" lon="5.86333">
        <ele>489.4</ele>
        <time>2020-12-26T13:07:22Z</time>
      </trkpt>
      <trkpt lat="46.99686" lon="5.86338">
        <ele>489.6</ele>
        <time>2020-12-26T13:07:23Z</time>
      </trkpt>
      <trkpt lat="46.99687" lon="5.86343">
        <ele>489.6</ele>
        <time>2020-12-26T13:07:24Z</time>
      </trkpt>
      <trkpt lat="46.99688" lon="5.86347">
        <ele>490</ele>
        <time>2020-12-26T13:07:25Z</time>
      </trkpt>
      <trkpt lat="46.99689" lon="5.86352">
        <ele>490.2</ele>
        <time>2020-12-26T13:07:26Z</time>
      </trkpt>
      <trkpt lat="46.99689" lon="5.86357">
        <ele>490.4</ele>
        <time>2020-12-26T13:07:27Z</time>
      </trkpt>
      <trkpt lat="46.9969" lon="5.86361">
        <ele>490.4</ele>
        <time>2020-12-26T13:07:28Z</time>
      </trkpt>
      <trkpt lat="46.99691" lon="5.86366">
        <ele>490.8</ele>
        <time>2020-12-26T13:07:29Z</time>
      </trkpt>
      <trkpt lat="46.99691" lon="5.8637">
        <ele>491</ele>
        <time>2020-12-26T13:07:30Z</time>
      </trkpt>
      <trkpt lat="46.99692" lon="5.86375">
        <ele>491.2</ele>
        <time>2020-12-26T13:07:31Z</time>
      </trkpt>
      <trkpt lat="46.99693" lon="5.8638">
        <ele>491.4</ele>
        <time>2020-12-26T13:07:32Z</time>
      </trkpt>
      <trkpt lat="46.99693" lon="5.86384">
        <ele>491.4</ele>
        <time>2020-12-26T13:07:33Z</time>
      </trkpt>
      <trkpt lat="46.99694" lon="5.86389">
        <ele>491.8</ele>
        <time>2020-12-26T13:07:34Z</time>
      </trkpt>
      <trkpt lat="46.99694" lon="5.86393">
        <ele>491.8</ele>
        <time>2020-12-26T13:07:35Z</time>
      </trkpt>
      <trkpt lat="46.99695" lon="5.86398">
        <ele>492.4</ele>
        <time>2020-12-26T13:07:36Z</time>
      </trkpt>
      <trkpt lat="46.99696" lon="5.86402">
        <ele>492.6</ele>
        <time>2020-12-26T13:07:37Z</time>
      </trkpt>
      <trkpt lat="46.99696" lon="5.86406">
        <ele>493</ele>
        <time>2020-12-26T13:07:38Z</time>
      </trkpt>
      <trkpt lat="46.99697" lon="5.86411">
        <ele>493.2</ele>
        <time>2020-12-26T13:07:39Z</time>
      </trkpt>
      <trkpt lat="46.99697" lon="5.86415">
        <ele>493.4</ele>
        <time>2020-12-26T13:07:40Z</time>
      </trkpt>
      <trkpt lat="46.99698" lon="5.8642">
        <ele>493.6</ele>
        <time>2020-12-26T13:07:41Z</time>
      </trkpt>
      <trkpt lat="46.99698" lon="5.86424">
        <ele>493.6</ele>
        <time>2020-12-26T13:07:42Z</time>
      </trkpt>
      <trkpt lat="46.99699" lon="5.86429">
        <ele>494</ele>
        <time>2020-12-26T13:07:43Z</time>
      </trkpt>
      <trkpt lat="46.99699" lon="5.86433">
        <ele>494.2</ele>
        <time>2020-12-26T13:07:44Z</time>
      </trkpt>
      <trkpt lat="46.997" lon="5.86438">
        <ele>494.2</ele>
        <time>2020-12-26T13:07:45Z</time>
      </trkpt>
      <trkpt lat="46.99701" lon="5.86443">
        <ele>494.6</ele>
        <time>2020-12-26T13:07:46Z</time>
      </trkpt>
      <trkpt lat="46.99701" lon="5.86447">
        <ele>494.6</ele>
        <time>2020-12-26T13:07:47Z</time>
      </trkpt>
      <trkpt lat="46.99702" lon="5.86452">
        <ele>494.8</ele>
        <time>2020-12-26T13:07:48Z</time>
      </trkpt>
      <trkpt lat="46.99702" lon="5.86457">
        <ele>495</ele>
        <time>2020-12-26T13:07:49Z</time>
      </trkpt>
      <trkpt lat="46.99703" lon="5.86462">
        <ele>495</ele>
        <time>2020-12-26T13:07:50Z</time>
      </trkpt>
      <trkpt lat="46.99703" lon="5.86466">
        <ele>495.4</ele>
        <time>2020-12-26T13:07:51Z</time>
      </trkpt>
      <trkpt lat="46.99704" lon="5.86471">
        <ele>495.8</ele>
        <time>2020-12-26T13:07:52Z</time>
      </trkpt>
      <trkpt lat="46.99704" lon="5.86476">
        <ele>495.8</ele>
        <time>2020-12-26T13:07:53Z</time>
      </trkpt>
      <trkpt lat="46.99705" lon="5.8648">
        <ele>496</ele>
        <time>2020-12-26T13:07:54Z</time>
      </trkpt>
      <trkpt lat="46.99705" lon="5.86485">
        <ele>496</ele>
        <time>2020-12-26T13:07:55Z</time>
      </trkpt>
      <trkpt lat="46.99705" lon="5.86489">
        <ele>496.4</ele>
        <time>2020-12-26T13:07:56Z</time>
      </trkpt>
      <trkpt lat="46.99705" lon="5.86494">
        <ele>496.4</ele>
        <time>2020-12-26T13:07:57Z</time>
      </trkpt>
      <trkpt lat="46.99705" lon="5.86498">
        <ele>496.6</ele>
        <time>2020-12-26T13:07:58Z</time>
      </trkpt>
      <trkpt lat="46.99705" lon="5.86503">
        <ele>496.6</ele>
        <time>2020-12-26T13:07:59Z</time>
      </trkpt>
      <trkpt lat="46.99705" lon="5.86507">
        <ele>497</ele>
        <time>2020-12-26T13:08:00Z</time>
      </trkpt>
      <trkpt lat="46.99705" lon="5.86512">
        <ele>497</ele>
        <time>2020-12-26T13:08:01Z</time>
      </trkpt>
      <trkpt lat="46.99705" lon="5.86517">
        <ele>497.4</ele>
        <time>2020-12-26T13:08:02Z</time>
      </trkpt>
      <trkpt lat="46.99705" lon="5.86522">
        <ele>497.6</ele>
        <time>2020-12-26T13:08:03Z</time>
      </trkpt>
      <trkpt lat="46.99705" lon="5.86528">
        <ele>497.6</ele>
        <time>2020-12-26T13:08:04Z</time>
      </trkpt>
      <trkpt lat="46.99705" lon="5.86533">
        <ele>498</ele>
        <time>2020-12-26T13:08:05Z</time>
      </trkpt>
      <trkpt lat="46.99705" lon="5.86539">
        <ele>498.2</ele>
        <time>2020-12-26T13:08:06Z</time>
      </trkpt>
      <trkpt lat="46.99704" lon="5.86544">
        <ele>498.4</ele>
        <time>2020-12-26T13:08:07Z</time>
      </trkpt>
      <trkpt lat="46.99704" lon="5.86549">
        <ele>498.6</ele>
        <time>2020-12-26T13:08:08Z</time>
      </trkpt>
      <trkpt lat="46.99703" lon="5.86554">
        <ele>498.8</ele>
        <time>2020-12-26T13:08:09Z</time>
      </trkpt>
      <trkpt lat="46.99702" lon="5.86559">
        <ele>499.2</ele>
        <time>2020-12-26T13:08:10Z</time>
      </trkpt>
      <trkpt lat="46.99702" lon="5.86564">
        <ele>499.2</ele>
        <time>2020-12-26T13:08:11Z</time>
      </trkpt>
      <trkpt lat="46.99702" lon="5.86568">
        <ele>499.6</ele>
        <time>2020-12-26T13:08:12Z</time>
      </trkpt>
      <trkpt lat="46.99701" lon="5.86572">
        <ele>499.8</ele>
        <time>2020-12-26T13:08:13Z</time>
      </trkpt>
      <trkpt lat="46.997" lon="5.86576">
        <ele>500</ele>
        <time>2020-12-26T13:08:14Z</time>
      </trkpt>
      <trkpt lat="46.99698" lon="5.86581">
        <ele>500</ele>
        <time>2020-12-26T13:08:15Z</time>
      </trkpt>
      <trkpt lat="46.99697" lon="5.86585">
        <ele>500.4</ele>
        <time>2020-12-26T13:08:16Z</time>
      </trkpt>
      <trkpt lat="46.99697" lon="5.8659">
        <ele>500.6</ele>
        <time>2020-12-26T13:08:17Z</time>
      </trkpt>
      <trkpt lat="46.99695" lon="5.86594">
        <ele>500.6</ele>
        <time>2020-12-26T13:08:18Z</time>
      </trkpt>
      <trkpt lat="46.99694" lon="5.86598">
        <ele>501</ele>
        <time>2020-12-26T13:08:19Z</time>
      </trkpt>
      <trkpt lat="46.99693" lon="5.86602">
        <ele>501</ele>
        <time>2020-12-26T13:08:20Z</time>
      </trkpt>
      <trkpt lat="46.99692" lon="5.86606">
        <ele>501.4</ele>
        <time>2020-12-26T13:08:21Z</time>
      </trkpt>
      <trkpt lat="46.99691" lon="5.86611">
        <ele>501.6</ele>
        <time>2020-12-26T13:08:22Z</time>
      </trkpt>
      <trkpt lat="46.9969" lon="5.86615">
        <ele>501.8</ele>
        <time>2020-12-26T13:08:23Z</time>
      </trkpt>
      <trkpt lat="46.99688" lon="5.8662">
        <ele>502</ele>
        <time>2020-12-26T13:08:24Z</time>
      </trkpt>
      <trkpt lat="46.99687" lon="5.86624">
        <ele>502.2</ele>
        <time>2020-12-26T13:08:25Z</time>
      </trkpt>
      <trkpt lat="46.99686" lon="5.86629">
        <ele>502.4</ele>
        <time>2020-12-26T13:08:26Z</time>
      </trkpt>
      <trkpt lat="46.99685" lon="5.86633">
        <ele>502.6</ele>
        <time>2020-12-26T13:08:27Z</time>
      </trkpt>
      <trkpt lat="46.99683" lon="5.86638">
        <ele>503</ele>
        <time>2020-12-26T13:08:28Z</time>
      </trkpt>
      <trkpt lat="46.99682" lon="5.86643">
        <ele>503.2</ele>
        <time>2020-12-26T13:08:29Z</time>
      </trkpt>
      <trkpt lat="46.9968" lon="5.86648">
        <ele>503.4</ele>
        <time>2020-12-26T13:08:30Z</time>
      </trkpt>
      <trkpt lat="46.99679" lon="5.86653">
        <ele>503.8</ele>
        <time>2020-12-26T13:08:31Z</time>
      </trkpt>
      <trkpt lat="46.99677" lon="5.86658">
        <ele>504</ele>
        <time>2020-12-26T13:08:32Z</time>
      </trkpt>
      <trkpt lat="46.99676" lon="5.86663">
        <ele>504.2</ele>
        <time>2020-12-26T13:08:33Z</time>
      </trkpt>
      <trkpt lat="46.99674" lon="5.86667">
        <ele>504.4</ele>
        <time>2020-12-26T13:08:34Z</time>
      </trkpt>
      <trkpt lat="46.99673" lon="5.86672">
        <ele>504.6</ele>
        <time>2020-12-26T13:08:35Z</time>
      </trkpt>
      <trkpt lat="46.99671" lon="5.86677">
        <ele>504.6</ele>
        <time>2020-12-26T13:08:36Z</time>
      </trkpt>
      <trkpt lat="46.99669" lon="5.86682">
        <ele>505</ele>
        <time>2020-12-26T13:08:37Z</time>
      </trkpt>
      <trkpt lat="46.99668" lon="5.86687">
        <ele>505</ele>
        <time>2020-12-26T13:08:38Z</time>
      </trkpt>
      <trkpt lat="46.99666" lon="5.86692">
        <ele>505.4</ele>
        <time>2020-12-26T13:08:39Z</time>
      </trkpt>
      <trkpt lat="46.99665" lon="5.86698">
        <ele>505.4</ele>
        <time>2020-12-26T13:08:40Z</time>
      </trkpt>
      <trkpt lat="46.99663" lon="5.86702">
        <ele>506</ele>
        <time>2020-12-26T13:08:41Z</time>
      </trkpt>
      <trkpt lat="46.99661" lon="5.86707">
        <ele>506</ele>
        <time>2020-12-26T13:08:42Z</time>
      </trkpt>
      <trkpt lat="46.99659" lon="5.86713">
        <ele>506.4</ele>
        <time>2020-12-26T13:08:43Z</time>
      </trkpt>
      <trkpt lat="46.99658" lon="5.86718">
        <ele>506.6</ele>
        <time>2020-12-26T13:08:44Z</time>
      </trkpt>
      <trkpt lat="46.99656" lon="5.86723">
        <ele>506.8</ele>
        <time>2020-12-26T13:08:45Z</time>
      </trkpt>
      <trkpt lat="46.99654" lon="5.86728">
        <ele>507.2</ele>
        <time>2020-12-26T13:08:46Z</time>
      </trkpt>
      <trkpt lat="46.99652" lon="5.86733">
        <ele>507.4</ele>
        <time>2020-12-26T13:08:47Z</time>
      </trkpt>
      <trkpt lat="46.9965" lon="5.86738">
        <ele>507.6</ele>
        <time>2020-12-26T13:08:48Z</time>
      </trkpt>
      <trkpt lat="46.99647" lon="5.86743">
        <ele>507.8</ele>
        <time>2020-12-26T13:08:49Z</time>
      </trkpt>
      <trkpt lat="46.99645" lon="5.86748">
        <ele>507.8</ele>
        <time>2020-12-26T13:08:50Z</time>
      </trkpt>
      <trkpt lat="46.99643" lon="5.86753">
        <ele>508.2</ele>
        <time>2020-12-26T13:08:51Z</time>
      </trkpt>
      <trkpt lat="46.99641" lon="5.86758">
        <ele>508.4</ele>
        <time>2020-12-26T13:08:52Z</time>
      </trkpt>
      <trkpt lat="46.99638" lon="5.86763">
        <ele>508.8</ele>
        <time>2020-12-26T13:08:53Z</time>
      </trkpt>
      <trkpt lat="46.99636" lon="5.86768">
        <ele>509</ele>
        <time>2020-12-26T13:08:54Z</time>
      </trkpt>
      <trkpt lat="46.99634" lon="5.86772">
        <ele>509.2</ele>
        <time>2020-12-26T13:08:55Z</time>
      </trkpt>
      <trkpt lat="46.99632" lon="5.86777">
        <ele>509.2</ele>
        <time>2020-12-26T13:08:56Z</time>
      </trkpt>
      <trkpt lat="46.9963" lon="5.86781">
        <ele>509.8</ele>
        <time>2020-12-26T13:08:57Z</time>
      </trkpt>
      <trkpt lat="46.99627" lon="5.86786">
        <ele>510</ele>
        <time>2020-12-26T13:08:58Z</time>
      </trkpt>
      <trkpt lat="46.99625" lon="5.86789">
        <ele>510.2</ele>
        <time>2020-12-26T13:08:59Z</time>
      </trkpt>
      <trkpt lat="46.99622" lon="5.86793">
        <ele>510.6</ele>
        <time>2020-12-26T13:09:00Z</time>
      </trkpt>
      <trkpt lat="46.9962" lon="5.86797">
        <ele>510.8</ele>
        <time>2020-12-26T13:09:01Z</time>
      </trkpt>
      <trkpt lat="46.99617" lon="5.86802">
        <ele>511</ele>
        <time>2020-12-26T13:09:02Z</time>
      </trkpt>
      <trkpt lat="46.99615" lon="5.86806">
        <ele>511.4</ele>
        <time>2020-12-26T13:09:03Z</time>
      </trkpt>
      <trkpt lat="46.99613" lon="5.8681">
        <ele>511.6</ele>
        <time>2020-12-26T13:09:04Z</time>
      </trkpt>
      <trkpt lat="46.99611" lon="5.86814">
        <ele>512</ele>
        <time>2020-12-26T13:09:05Z</time>
      </trkpt>
      <trkpt lat="46.99609" lon="5.86817">
        <ele>512.2</ele>
        <time>2020-12-26T13:09:06Z</time>
      </trkpt>
      <trkpt lat="46.99607" lon="5.86821">
        <ele>512.4</ele>
        <time>2020-12-26T13:09:07Z</time>
      </trkpt>
      <trkpt lat="46.99604" lon="5.86825">
        <ele>512.8</ele>
        <time>2020-12-26T13:09:08Z</time>
      </trkpt>
      <trkpt lat="46.99602" lon="5.86829">
        <ele>513</ele>
        <time>2020-12-26T13:09:09Z</time>
      </trkpt>
      <trkpt lat="46.99599" lon="5.86834">
        <ele>513.2</ele>
        <time>2020-12-26T13:09:10Z</time>
      </trkpt>
      <trkpt lat="46.99596" lon="5.86838">
        <ele>513.6</ele>
        <time>2020-12-26T13:09:11Z</time>
      </trkpt>
      <trkpt lat="46.99594" lon="5.86842">
        <ele>513.8</ele>
        <time>2020-12-26T13:09:12Z</time>
      </trkpt>
      <trkpt lat="46.99591" lon="5.86846">
        <ele>514</ele>
        <time>2020-12-26T13:09:13Z</time>
      </trkpt>
      <trkpt lat="46.99589" lon="5.8685">
        <ele>514.4</ele>
        <time>2020-12-26T13:09:14Z</time>
      </trkpt>
      <trkpt lat="46.99586" lon="5.86855">
        <ele>514.8</ele>
        <time>2020-12-26T13:09:15Z</time>
      </trkpt>
      <trkpt lat="46.99584" lon="5.8686">
        <ele>515</ele>
        <time>2020-12-26T13:09:16Z</time>
      </trkpt>
      <trkpt lat="46.99581" lon="5.86864">
        <ele>515.4</ele>
        <time>2020-12-26T13:09:17Z</time>
      </trkpt>
      <trkpt lat="46.99579" lon="5.86869">
        <ele>515.6</ele>
        <time>2020-12-26T13:09:18Z</time>
      </trkpt>
      <trkpt lat="46.99576" lon="5.86873">
        <ele>516</ele>
        <time>2020-12-26T13:09:19Z</time>
      </trkpt>
      <trkpt lat="46.99573" lon="5.86877">
        <ele>516.4</ele>
        <time>2020-12-26T13:09:20Z</time>
      </trkpt>
      <trkpt lat="46.9957" lon="5.86882">
        <ele>516.6</ele>
        <time>2020-12-26T13:09:21Z</time>
      </trkpt>
      <trkpt lat="46.99567" lon="5.86886">
        <ele>516.8</ele>
        <time>2020-12-26T13:09:22Z</time>
      </trkpt>
      <trkpt lat="46.99565" lon="5.8689">
        <ele>517</ele>
        <time>2020-12-26T13:09:23Z</time>
      </trkpt>
      <trkpt lat="46.99562" lon="5.86894">
        <ele>517.4</ele>
        <time>2020-12-26T13:09:24Z</time>
      </trkpt>
      <trkpt lat="46.99558" lon="5.86899">
        <ele>517.6</ele>
        <time>2020-12-26T13:09:25Z</time>
      </trkpt>
      <trkpt lat="46.99555" lon="5.86903">
        <ele>517.8</ele>
        <time>2020-12-26T13:09:26Z</time>
      </trkpt>
      <trkpt lat="46.99552" lon="5.86906">
        <ele>518</ele>
        <time>2020-12-26T13:09:27Z</time>
      </trkpt>
      <trkpt lat="46.9955" lon="5.8691">
        <ele>518.4</ele>
        <time>2020-12-26T13:09:28Z</time>
      </trkpt>
      <trkpt lat="46.99547" lon="5.86915">
        <ele>518.6</ele>
        <time>2020-12-26T13:09:29Z</time>
      </trkpt>
      <trkpt lat="46.99544" lon="5.8692">
        <ele>519</ele>
        <time>2020-12-26T13:09:30Z</time>
      </trkpt>
      <trkpt lat="46.99542" lon="5.86924">
        <ele>519.2</ele>
        <time>2020-12-26T13:09:31Z</time>
      </trkpt>
      <trkpt lat="46.99539" lon="5.86929">
        <ele>519.4</ele>
        <time>2020-12-26T13:09:32Z</time>
      </trkpt>
      <trkpt lat="46.99536" lon="5.86935">
        <ele>519.6</ele>
        <time>2020-12-26T13:09:33Z</time>
      </trkpt>
      <trkpt lat="46.99533" lon="5.8694">
        <ele>520</ele>
        <time>2020-12-26T13:09:34Z</time>
      </trkpt>
      <trkpt lat="46.99531" lon="5.86946">
        <ele>520.2</ele>
        <time>2020-12-26T13:09:35Z</time>
      </trkpt>
      <trkpt lat="46.99528" lon="5.86951">
        <ele>520.6</ele>
        <time>2020-12-26T13:09:36Z</time>
      </trkpt>
      <trkpt lat="46.99525" lon="5.86957">
        <ele>520.8</ele>
        <time>2020-12-26T13:09:37Z</time>
      </trkpt>
      <trkpt lat="46.99523" lon="5.86962">
        <ele>521</ele>
        <time>2020-12-26T13:09:38Z</time>
      </trkpt>
      <trkpt lat="46.9952" lon="5.86967">
        <ele>521.2</ele>
        <time>2020-12-26T13:09:39Z</time>
      </trkpt>
      <trkpt lat="46.99517" lon="5.86972">
        <ele>521.6</ele>
        <time>2020-12-26T13:09:40Z</time>
      </trkpt>
      <trkpt lat="46.99515" lon="5.86977">
        <ele>521.8</ele>
        <time>2020-12-26T13:09:41Z</time>
      </trkpt>
      <trkpt lat="46.99513" lon="5.86982">
        <ele>522</ele>
        <time>2020-12-26T13:09:42Z</time>
      </trkpt>
      <trkpt lat="46.9951" lon="5.86987">
        <ele>522.4</ele>
        <time>2020-12-26T13:09:43Z</time>
      </trkpt>
      <trkpt lat="46.99508" lon="5.86991">
        <ele>522.8</ele>
        <time>2020-12-26T13:09:44Z</time>
      </trkpt>
      <trkpt lat="46.99506" lon="5.86996">
        <ele>523</ele>
        <time>2020-12-26T13:09:45Z</time>
      </trkpt>
      <trkpt lat="46.99504" lon="5.87001">
        <ele>523</ele>
        <time>2020-12-26T13:09:46Z</time>
      </trkpt>
      <trkpt lat="46.99501" lon="5.87005">
        <ele>523.4</ele>
        <time>2020-12-26T13:09:47Z</time>
      </trkpt>
      <trkpt lat="46.99499" lon="5.8701">
        <ele>523.6</ele>
        <time>2020-12-26T13:09:48Z</time>
      </trkpt>
      <trkpt lat="46.99496" lon="5.87014">
        <ele>523.8</ele>
        <time>2020-12-26T13:09:49Z</time>
      </trkpt>
      <trkpt lat="46.99493" lon="5.87019">
        <ele>524.2</ele>
        <time>2020-12-26T13:09:50Z</time>
      </trkpt>
      <trkpt lat="46.99491" lon="5.87023">
        <ele>524.6</ele>
        <time>2020-12-26T13:09:51Z</time>
      </trkpt>
      <trkpt lat="46.99489" lon="5.87027">
        <ele>524.8</ele>
        <time>2020-12-26T13:09:52Z</time>
      </trkpt>
      <trkpt lat="46.99487" lon="5.87032">
        <ele>525</ele>
        <time>2020-12-26T13:09:53Z</time>
      </trkpt>
      <trkpt lat="46.99485" lon="5.87037">
        <ele>525.2</ele>
        <time>2020-12-26T13:09:54Z</time>
      </trkpt>
      <trkpt lat="46.99482" lon="5.8704">
        <ele>525.4</ele>
        <time>2020-12-26T13:09:55Z</time>
      </trkpt>
      <trkpt lat="46.9948" lon="5.87045">
        <ele>525.8</ele>
        <time>2020-12-26T13:09:56Z</time>
      </trkpt>
      <trkpt lat="46.99477" lon="5.87049">
        <ele>526.2</ele>
        <time>2020-12-26T13:09:57Z</time>
      </trkpt>
      <trkpt lat="46.99474" lon="5.87054">
        <ele>526.4</ele>
        <time>2020-12-26T13:09:58Z</time>
      </trkpt>
      <trkpt lat="46.99472" lon="5.87058">
        <ele>526.6</ele>
        <time>2020-12-26T13:09:59Z</time>
      </trkpt>
      <trkpt lat="46.99469" lon="5.87062">
        <ele>526.8</ele>
        <time>2020-12-26T13:10:00Z</time>
      </trkpt>
      <trkpt lat="46.99466" lon="5.87066">
        <ele>526.8</ele>
        <time>2020-12-26T13:10:01Z</time>
      </trkpt>
      <trkpt lat="46.99464" lon="5.8707">
        <ele>527.2</ele>
        <time>2020-12-26T13:10:02Z</time>
      </trkpt>
      <trkpt lat="46.99462" lon="5.87074">
        <ele>527.4</ele>
        <time>2020-12-26T13:10:03Z</time>
      </trkpt>
      <trkpt lat="46.99459" lon="5.87078">
        <ele>527.6</ele>
        <time>2020-12-26T13:10:04Z</time>
      </trkpt>
      <trkpt lat="46.99457" lon="5.87083">
        <ele>528</ele>
        <time>2020-12-26T13:10:05Z</time>
      </trkpt>
      <trkpt lat="46.99454" lon="5.87088">
        <ele>528.2</ele>
        <time>2020-12-26T13:10:06Z</time>
      </trkpt>
      <trkpt lat="46.99452" lon="5.87092">
        <ele>528.4</ele>
        <time>2020-12-26T13:10:07Z</time>
      </trkpt>
      <trkpt lat="46.99449" lon="5.87097">
        <ele>528.6</ele>
        <time>2020-12-26T13:10:08Z</time>
      </trkpt>
      <trkpt lat="46.99447" lon="5.87102">
        <ele>528.6</ele>
        <time>2020-12-26T13:10:09Z</time>
      </trkpt>
      <trkpt lat="46.99444" lon="5.87107">
        <ele>529</ele>
        <time>2020-12-26T13:10:10Z</time>
      </trkpt>
      <trkpt lat="46.99442" lon="5.87111">
        <ele>529</ele>
        <time>2020-12-26T13:10:11Z</time>
      </trkpt>
      <trkpt lat="46.99439" lon="5.87115">
        <ele>529.4</ele>
        <time>2020-12-26T13:10:12Z</time>
      </trkpt>
      <trkpt lat="46.99436" lon="5.87118">
        <ele>529.6</ele>
        <time>2020-12-26T13:10:13Z</time>
      </trkpt>
      <trkpt lat="46.99434" lon="5.87123">
        <ele>529.8</ele>
        <time>2020-12-26T13:10:14Z</time>
      </trkpt>
      <trkpt lat="46.99431" lon="5.87127">
        <ele>530.2</ele>
        <time>2020-12-26T13:10:15Z</time>
      </trkpt>
      <trkpt lat="46.99429" lon="5.87131">
        <ele>530.4</ele>
        <time>2020-12-26T13:10:16Z</time>
      </trkpt>
      <trkpt lat="46.99426" lon="5.87135">
        <ele>530.8</ele>
        <time>2020-12-26T13:10:17Z</time>
      </trkpt>
      <trkpt lat="46.99423" lon="5.8714">
        <ele>531</ele>
        <time>2020-12-26T13:10:18Z</time>
      </trkpt>
      <trkpt lat="46.9942" lon="5.87144">
        <ele>531.2</ele>
        <time>2020-12-26T13:10:19Z</time>
      </trkpt>
      <trkpt lat="46.99417" lon="5.87148">
        <ele>531.4</ele>
        <time>2020-12-26T13:10:20Z</time>
      </trkpt>
      <trkpt lat="46.99415" lon="5.87152">
        <ele>531.6</ele>
        <time>2020-12-26T13:10:21Z</time>
      </trkpt>
      <trkpt lat="46.99412" lon="5.87156">
        <ele>531.8</ele>
        <time>2020-12-26T13:10:22Z</time>
      </trkpt>
      <trkpt lat="46.9941" lon="5.8716">
        <ele>532.2</ele>
        <time>2020-12-26T13:10:23Z</time>
      </trkpt>
      <trkpt lat="46.99407" lon="5.87164">
        <ele>532.4</ele>
        <time>2020-12-26T13:10:24Z</time>
      </trkpt>
      <trkpt lat="46.99404" lon="5.87169">
        <ele>532.6</ele>
        <time>2020-12-26T13:10:25Z</time>
      </trkpt>
      <trkpt lat="46.99402" lon="5.87173">
        <ele>533</ele>
        <time>2020-12-26T13:10:26Z</time>
      </trkpt>
      <trkpt lat="46.994" lon="5.87177">
        <ele>533.2</ele>
        <time>2020-12-26T13:10:27Z</time>
      </trkpt>
      <trkpt lat="46.99397" lon="5.87182">
        <ele>533.4</ele>
        <time>2020-12-26T13:10:28Z</time>
      </trkpt>
      <trkpt lat="46.99395" lon="5.87187">
        <ele>533.6</ele>
        <time>2020-12-26T13:10:29Z</time>
      </trkpt>
      <trkpt lat="46.99392" lon="5.87191">
        <ele>534</ele>
        <time>2020-12-26T13:10:30Z</time>
      </trkpt>
      <trkpt lat="46.99389" lon="5.87196">
        <ele>534.2</ele>
        <time>2020-12-26T13:10:31Z</time>
      </trkpt>
      <trkpt lat="46.99387" lon="5.872">
        <ele>534.6</ele>
        <time>2020-12-26T13:10:32Z</time>
      </trkpt>
      <trkpt lat="46.99383" lon="5.87203">
        <ele>534.8</ele>
        <time>2020-12-26T13:10:33Z</time>
      </trkpt>
      <trkpt lat="46.9938" lon="5.87206">
        <ele>535</ele>
        <time>2020-12-26T13:10:34Z</time>
      </trkpt>
      <trkpt lat="46.99377" lon="5.8721">
        <ele>535.2</ele>
        <time>2020-12-26T13:10:35Z</time>
      </trkpt>
      <trkpt lat="46.99374" lon="5.87213">
        <ele>535.6</ele>
        <time>2020-12-26T13:10:36Z</time>
      </trkpt>
      <trkpt lat="46.99371" lon="5.87216">
        <ele>535.8</ele>
        <time>2020-12-26T13:10:37Z</time>
      </trkpt>
      <trkpt lat="46.99368" lon="5.87219">
        <ele>536.2</ele>
        <time>2020-12-26T13:10:38Z</time>
      </trkpt>
      <trkpt lat="46.99366" lon="5.87221">
        <ele>536.4</ele>
        <time>2020-12-26T13:10:39Z</time>
      </trkpt>
      <trkpt lat="46.99363" lon="5.87225">
        <ele>536.6</ele>
        <time>2020-12-26T13:10:40Z</time>
      </trkpt>
      <trkpt lat="46.99361" lon="5.87229">
        <ele>536.8</ele>
        <time>2020-12-26T13:10:41Z</time>
      </trkpt>
      <trkpt lat="46.99358" lon="5.87233">
        <ele>537.2</ele>
        <time>2020-12-26T13:10:42Z</time>
      </trkpt>
      <trkpt lat="46.99356" lon="5.87238">
        <ele>537.4</ele>
        <time>2020-12-26T13:10:43Z</time>
      </trkpt>
      <trkpt lat="46.99353" lon="5.87242">
        <ele>537.6</ele>
        <time>2020-12-26T13:10:44Z</time>
      </trkpt>
      <trkpt lat="46.9935" lon="5.87247">
        <ele>537.6</ele>
        <time>2020-12-26T13:10:45Z</time>
      </trkpt>
      <trkpt lat="46.99348" lon="5.87252">
        <ele>538</ele>
        <time>2020-12-26T13:10:46Z</time>
      </trkpt>
      <trkpt lat="46.99346" lon="5.87256">
        <ele>538</ele>
        <time>2020-12-26T13:10:47Z</time>
      </trkpt>
      <trkpt lat="46.99343" lon="5.8726">
        <ele>538.2</ele>
        <time>2020-12-26T13:10:48Z</time>
      </trkpt>
      <trkpt lat="46.99341" lon="5.87265">
        <ele>538.6</ele>
        <time>2020-12-26T13:10:49Z</time>
      </trkpt>
      <trkpt lat="46.99339" lon="5.8727">
        <ele>539</ele>
        <time>2020-12-26T13:10:50Z</time>
      </trkpt>
      <trkpt lat="46.99337" lon="5.87275">
        <ele>539.4</ele>
        <time>2020-12-26T13:10:51Z</time>
      </trkpt>
      <trkpt lat="46.99334" lon="5.87278">
        <ele>539.6</ele>
        <time>2020-12-26T13:10:52Z</time>
      </trkpt>
      <trkpt lat="46.99331" lon="5.87281">
        <ele>539.8</ele>
        <time>2020-12-26T13:10:53Z</time>
      </trkpt>
      <trkpt lat="46.99328" lon="5.87283">
        <ele>540.2</ele>
        <time>2020-12-26T13:10:54Z</time>
      </trkpt>
      <trkpt lat="46.99326" lon="5.87285">
        <ele>540.6</ele>
        <time>2020-12-26T13:10:55Z</time>
      </trkpt>
      <trkpt lat="46.99323" lon="5.87287">
        <ele>541</ele>
        <time>2020-12-26T13:10:56Z</time>
      </trkpt>
      <trkpt lat="46.99321" lon="5.87289">
        <ele>541.2</ele>
        <time>2020-12-26T13:10:57Z</time>
      </trkpt>
      <trkpt lat="46.99318" lon="5.8729">
        <ele>541.6</ele>
        <time>2020-12-26T13:10:58Z</time>
      </trkpt>
      <trkpt lat="46.99315" lon="5.87292">
        <ele>542</ele>
        <time>2020-12-26T13:10:59Z</time>
      </trkpt>
      <trkpt lat="46.99312" lon="5.87294">
        <ele>542.2</ele>
        <time>2020-12-26T13:11:00Z</time>
      </trkpt>
      <trkpt lat="46.99309" lon="5.87296">
        <ele>542.6</ele>
        <time>2020-12-26T13:11:01Z</time>
      </trkpt>
      <trkpt lat="46.99305" lon="5.87299">
        <ele>542.8</ele>
        <time>2020-12-26T13:11:02Z</time>
      </trkpt>
      <trkpt lat="46.99301" lon="5.87301">
        <ele>542.8</ele>
        <time>2020-12-26T13:11:03Z</time>
      </trkpt>
      <trkpt lat="46.99298" lon="5.87304">
        <ele>542.8</ele>
        <time>2020-12-26T13:11:04Z</time>
      </trkpt>
      <trkpt lat="46.99294" lon="5.87306">
        <ele>543.2</ele>
        <time>2020-12-26T13:11:05Z</time>
      </trkpt>
      <trkpt lat="46.9929" lon="5.8731">
        <ele>543.4</ele>
        <time>2020-12-26T13:11:06Z</time>
      </trkpt>
      <trkpt lat="46.99286" lon="5.87313">
        <ele>543.4</ele>
        <time>2020-12-26T13:11:07Z</time>
      </trkpt>
      <trkpt lat="46.99283" lon="5.87316">
        <ele>543.6</ele>
        <time>2020-12-26T13:11:08Z</time>
      </trkpt>
      <trkpt lat="46.9928" lon="5.8732">
        <ele>543.6</ele>
        <time>2020-12-26T13:11:09Z</time>
      </trkpt>
      <trkpt lat="46.99276" lon="5.87323">
        <ele>544</ele>
        <time>2020-12-26T13:11:10Z</time>
      </trkpt>
      <trkpt lat="46.99272" lon="5.87326">
        <ele>544.2</ele>
        <time>2020-12-26T13:11:11Z</time>
      </trkpt>
      <trkpt lat="46.99269" lon="5.87329">
        <ele>544.4</ele>
        <time>2020-12-26T13:11:12Z</time>
      </trkpt>
      <trkpt lat="46.99265" lon="5.87332">
        <ele>544.8</ele>
        <time>2020-12-26T13:11:13Z</time>
      </trkpt>
      <trkpt lat="46.99262" lon="5.87336">
        <ele>545</ele>
        <time>2020-12-26T13:11:14Z</time>
      </trkpt>
      <trkpt lat="46.99259" lon="5.87339">
        <ele>545.2</ele>
        <time>2020-12-26T13:11:15Z</time>
      </trkpt>
      <trkpt lat="46.99256" lon="5.87342">
        <ele>545.4</ele>
        <time>2020-12-26T13:11:16Z</time>
      </trkpt>
      <trkpt lat="46.99252" lon="5.87345">
        <ele>545.6</ele>
        <time>2020-12-26T13:11:17Z</time>
      </trkpt>
      <trkpt lat="46.99249" lon="5.87348">
        <ele>546</ele>
        <time>2020-12-26T13:11:18Z</time>
      </trkpt>
      <trkpt lat="46.99246" lon="5.87351">
        <ele>546.2</ele>
        <time>2020-12-26T13:11:19Z</time>
      </trkpt>
      <trkpt lat="46.99243" lon="5.87355">
        <ele>546.4</ele>
        <time>2020-12-26T13:11:20Z</time>
      </trkpt>
      <trkpt lat="46.99239" lon="5.87358">
        <ele>546.6</ele>
        <time>2020-12-26T13:11:21Z</time>
      </trkpt>
      <trkpt lat="46.99236" lon="5.87361">
        <ele>546.6</ele>
        <time>2020-12-26T13:11:22Z</time>
      </trkpt>
      <trkpt lat="46.99233" lon="5.87364">
        <ele>547</ele>
        <time>2020-12-26T13:11:23Z</time>
      </trkpt>
      <trkpt lat="46.99229" lon="5.87367">
        <ele>547.2</ele>
        <time>2020-12-26T13:11:24Z</time>
      </trkpt>
      <trkpt lat="46.99226" lon="5.8737">
        <ele>547.2</ele>
        <time>2020-12-26T13:11:25Z</time>
      </trkpt>
      <trkpt lat="46.99223" lon="5.87373">
        <ele>547.8</ele>
        <time>2020-12-26T13:11:26Z</time>
      </trkpt>
      <trkpt lat="46.99221" lon="5.87378">
        <ele>547.8</ele>
        <time>2020-12-26T13:11:27Z</time>
      </trkpt>
      <trkpt lat="46.99219" lon="5.87381">
        <ele>548</ele>
        <time>2020-12-26T13:11:28Z</time>
      </trkpt>
      <trkpt lat="46.99216" lon="5.87385">
        <ele>548</ele>
        <time>2020-12-26T13:11:29Z</time>
      </trkpt>
      <trkpt lat="46.99214" lon="5.87389">
        <ele>548.4</ele>
        <time>2020-12-26T13:11:30Z</time>
      </trkpt>
      <trkpt lat="46.99211" lon="5.87393">
        <ele>548.6</ele>
        <time>2020-12-26T13:11:31Z</time>
      </trkpt>
      <trkpt lat="46.99209" lon="5.87396">
        <ele>549</ele>
        <time>2020-12-26T13:11:32Z</time>
      </trkpt>
      <trkpt lat="46.99207" lon="5.874">
        <ele>549.2</ele>
        <time>2020-12-26T13:11:33Z</time>
      </trkpt>
      <trkpt lat="46.99205" lon="5.87403">
        <ele>549.4</ele>
        <time>2020-12-26T13:11:34Z</time>
      </trkpt>
      <trkpt lat="46.99203" lon="5.87407">
        <ele>549.8</ele>
        <time>2020-12-26T13:11:35Z</time>
      </trkpt>
      <trkpt lat="46.99201" lon="5.87411">
        <ele>550</ele>
        <time>2020-12-26T13:11:36Z</time>
      </trkpt>
      <trkpt lat="46.99199" lon="5.87414">
        <ele>550.2</ele>
        <time>2020-12-26T13:11:37Z</time>
      </trkpt>
      <trkpt lat="46.99197" lon="5.87418">
        <ele>550.4</ele>
        <time>2020-12-26T13:11:38Z</time>
      </trkpt>
      <trkpt lat="46.99194" lon="5.87423">
        <ele>550.8</ele>
        <time>2020-12-26T13:11:39Z</time>
      </trkpt>
      <trkpt lat="46.99192" lon="5.87427">
        <ele>551</ele>
        <time>2020-12-26T13:11:40Z</time>
      </trkpt>
      <trkpt lat="46.9919" lon="5.87431">
        <ele>551.2</ele>
        <time>2020-12-26T13:11:41Z</time>
      </trkpt>
      <trkpt lat="46.99187" lon="5.87435">
        <ele>551.6</ele>
        <time>2020-12-26T13:11:42Z</time>
      </trkpt>
      <trkpt lat="46.99185" lon="5.87439">
        <ele>551.6</ele>
        <time>2020-12-26T13:11:43Z</time>
      </trkpt>
      <trkpt lat="46.99183" lon="5.87443">
        <ele>552</ele>
        <time>2020-12-26T13:11:44Z</time>
      </trkpt>
      <trkpt lat="46.99181" lon="5.87448">
        <ele>552.2</ele>
        <time>2020-12-26T13:11:45Z</time>
      </trkpt>
      <trkpt lat="46.9918" lon="5.87453">
        <ele>552.6</ele>
        <time>2020-12-26T13:11:46Z</time>
      </trkpt>
      <trkpt lat="46.99179" lon="5.87458">
        <ele>553</ele>
        <time>2020-12-26T13:11:47Z</time>
      </trkpt>
      <trkpt lat="46.99177" lon="5.87463">
        <ele>553.2</ele>
        <time>2020-12-26T13:11:48Z</time>
      </trkpt>
      <trkpt lat="46.99176" lon="5.87469">
        <ele>553.2</ele>
        <time>2020-12-26T13:11:49Z</time>
      </trkpt>
      <trkpt lat="46.99175" lon="5.87474">
        <ele>553.4</ele>
        <time>2020-12-26T13:11:50Z</time>
      </trkpt>
      <trkpt lat="46.99174" lon="5.87479">
        <ele>553.8</ele>
        <time>2020-12-26T13:11:51Z</time>
      </trkpt>
      <trkpt lat="46.99174" lon="5.87483">
        <ele>554</ele>
        <time>2020-12-26T13:11:52Z</time>
      </trkpt>
      <trkpt lat="46.99174" lon="5.87489">
        <ele>554.2</ele>
        <time>2020-12-26T13:11:53Z</time>
      </trkpt>
      <trkpt lat="46.99175" lon="5.87494">
        <ele>554.6</ele>
        <time>2020-12-26T13:11:54Z</time>
      </trkpt>
      <trkpt lat="46.99175" lon="5.87499">
        <ele>554.8</ele>
        <time>2020-12-26T13:11:55Z</time>
      </trkpt>
      <trkpt lat="46.99177" lon="5.87504">
        <ele>555</ele>
        <time>2020-12-26T13:11:56Z</time>
      </trkpt>
      <trkpt lat="46.99178" lon="5.87509">
        <ele>555.2</ele>
        <time>2020-12-26T13:11:57Z</time>
      </trkpt>
      <trkpt lat="46.99179" lon="5.87513">
        <ele>555.4</ele>
        <time>2020-12-26T13:11:58Z</time>
      </trkpt>
      <trkpt lat="46.9918" lon="5.87518">
        <ele>555.6</ele>
        <time>2020-12-26T13:11:59Z</time>
      </trkpt>
      <trkpt lat="46.99181" lon="5.87523">
        <ele>555.6</ele>
        <time>2020-12-26T13:12:00Z</time>
      </trkpt>
      <trkpt lat="46.99182" lon="5.87528">
        <ele>556</ele>
        <time>2020-12-26T13:12:01Z</time>
      </trkpt>
      <trkpt lat="46.99183" lon="5.87532">
        <ele>556</ele>
        <time>2020-12-26T13:12:02Z</time>
      </trkpt>
      <trkpt lat="46.99183" lon="5.87536">
        <ele>556.4</ele>
        <time>2020-12-26T13:12:03Z</time>
      </trkpt>
      <trkpt lat="46.99184" lon="5.8754">
        <ele>556.4</ele>
        <time>2020-12-26T13:12:04Z</time>
      </trkpt>
      <trkpt lat="46.99185" lon="5.87545">
        <ele>556.8</ele>
        <time>2020-12-26T13:12:05Z</time>
      </trkpt>
      <trkpt lat="46.99187" lon="5.8755">
        <ele>557</ele>
        <time>2020-12-26T13:12:06Z</time>
      </trkpt>
      <trkpt lat="46.99188" lon="5.87555">
        <ele>557.2</ele>
        <time>2020-12-26T13:12:07Z</time>
      </trkpt>
      <trkpt lat="46.99188" lon="5.8756">
        <ele>557.6</ele>
        <time>2020-12-26T13:12:08Z</time>
      </trkpt>
      <trkpt lat="46.99189" lon="5.87566">
        <ele>557.8</ele>
        <time>2020-12-26T13:12:09Z</time>
      </trkpt>
      <trkpt lat="46.99189" lon="5.87571">
        <ele>558</ele>
        <time>2020-12-26T13:12:10Z</time>
      </trkpt>
      <trkpt lat="46.99189" lon="5.87576">
        <ele>558.4</ele>
        <time>2020-12-26T13:12:11Z</time>
      </trkpt>
      <trkpt lat="46.99189" lon="5.87581">
        <ele>558.6</ele>
        <time>2020-12-26T13:12:12Z</time>
      </trkpt>
      <trkpt lat="46.99189" lon="5.87586">
        <ele>558.8</ele>
        <time>2020-12-26T13:12:13Z</time>
      </trkpt>
      <trkpt lat="46.9919" lon="5.87591">
        <ele>559</ele>
        <time>2020-12-26T13:12:14Z</time>
      </trkpt>
      <trkpt lat="46.9919" lon="5.87596">
        <ele>559.4</ele>
        <time>2020-12-26T13:12:15Z</time>
      </trkpt>
      <trkpt lat="46.9919" lon="5.87601">
        <ele>559.6</ele>
        <time>2020-12-26T13:12:16Z</time>
      </trkpt>
      <trkpt lat="46.9919" lon="5.87608">
        <ele>560</ele>
        <time>2020-12-26T13:12:17Z</time>
      </trkpt>
      <trkpt lat="46.99189" lon="5.87613">
        <ele>560.4</ele>
        <time>2020-12-26T13:12:18Z</time>
      </trkpt>
      <trkpt lat="46.99189" lon="5.87618">
        <ele>560.6</ele>
        <time>2020-12-26T13:12:19Z</time>
      </trkpt>
      <trkpt lat="46.99189" lon="5.87624">
        <ele>561</ele>
        <time>2020-12-26T13:12:20Z</time>
      </trkpt>
      <trkpt lat="46.99188" lon="5.8763">
        <ele>561.2</ele>
        <time>2020-12-26T13:12:21Z</time>
      </trkpt>
      <trkpt lat="46.99188" lon="5.87636">
        <ele>561.6</ele>
        <time>2020-12-26T13:12:22Z</time>
      </trkpt>
      <trkpt lat="46.99187" lon="5.87642">
        <ele>561.8</ele>
        <time>2020-12-26T13:12:23Z</time>
      </trkpt>
      <trkpt lat="46.99186" lon="5.87648">
        <ele>562</ele>
        <time>2020-12-26T13:12:24Z</time>
      </trkpt>
      <trkpt lat="46.99185" lon="5.87653">
        <ele>562.2</ele>
        <time>2020-12-26T13:12:25Z</time>
      </trkpt>
      <trkpt lat="46.99185" lon="5.87659">
        <ele>562.6</ele>
        <time>2020-12-26T13:12:26Z</time>
      </trkpt>
      <trkpt lat="46.99184" lon="5.87664">
        <ele>562.8</ele>
        <time>2020-12-26T13:12:27Z</time>
      </trkpt>
      <trkpt lat="46.99184" lon="5.87669">
        <ele>563.2</ele>
        <time>2020-12-26T13:12:28Z</time>
      </trkpt>
      <trkpt lat="46.99184" lon="5.87675">
        <ele>563.4</ele>
        <time>2020-12-26T13:12:29Z</time>
      </trkpt>
      <trkpt lat="46.99184" lon="5.8768">
        <ele>563.6</ele>
        <time>2020-12-26T13:12:30Z</time>
      </trkpt>
      <trkpt lat="46.99185" lon="5.87685">
        <ele>564</ele>
        <time>2020-12-26T13:12:31Z</time>
      </trkpt>
      <trkpt lat="46.99186" lon="5.87691">
        <ele>564.2</ele>
        <time>2020-12-26T13:12:32Z</time>
      </trkpt>
      <trkpt lat="46.99187" lon="5.87696">
        <ele>564.4</ele>
        <time>2020-12-26T13:12:33Z</time>
      </trkpt>
      <trkpt lat="46.99188" lon="5.87701">
        <ele>564.6</ele>
        <time>2020-12-26T13:12:34Z</time>
      </trkpt>
      <trkpt lat="46.9919" lon="5.87707">
        <ele>564.8</ele>
        <time>2020-12-26T13:12:35Z</time>
      </trkpt>
      <trkpt lat="46.99191" lon="5.87712">
        <ele>565.2</ele>
        <time>2020-12-26T13:12:36Z</time>
      </trkpt>
      <trkpt lat="46.99193" lon="5.87717">
        <ele>565.2</ele>
        <time>2020-12-26T13:12:37Z</time>
      </trkpt>
      <trkpt lat="46.99194" lon="5.87722">
        <ele>565.4</ele>
        <time>2020-12-26T13:12:38Z</time>
      </trkpt>
      <trkpt lat="46.99195" lon="5.87727">
        <ele>565.4</ele>
        <time>2020-12-26T13:12:39Z</time>
      </trkpt>
      <trkpt lat="46.99196" lon="5.87732">
        <ele>566</ele>
        <time>2020-12-26T13:12:40Z</time>
      </trkpt>
      <trkpt lat="46.99197" lon="5.87737">
        <ele>566.2</ele>
        <time>2020-12-26T13:12:41Z</time>
      </trkpt>
      <trkpt lat="46.99198" lon="5.87743">
        <ele>566.6</ele>
        <time>2020-12-26T13:12:42Z</time>
      </trkpt>
      <trkpt lat="46.99198" lon="5.87748">
        <ele>566.8</ele>
        <time>2020-12-26T13:12:43Z</time>
      </trkpt>
      <trkpt lat="46.99198" lon="5.87753">
        <ele>566.8</ele>
        <time>2020-12-26T13:12:44Z</time>
      </trkpt>
      <trkpt lat="46.99198" lon="5.87759">
        <ele>567.2</ele>
        <time>2020-12-26T13:12:45Z</time>
      </trkpt>
      <trkpt lat="46.99197" lon="5.87764">
        <ele>567.4</ele>
        <time>2020-12-26T13:12:46Z</time>
      </trkpt>
      <trkpt lat="46.99197" lon="5.87769">
        <ele>567.6</ele>
        <time>2020-12-26T13:12:47Z</time>
      </trkpt>
      <trkpt lat="46.99197" lon="5.87774">
        <ele>568</ele>
        <time>2020-12-26T13:12:48Z</time>
      </trkpt>
      <trkpt lat="46.99196" lon="5.87779">
        <ele>568.2</ele>
        <time>2020-12-26T13:12:49Z</time>
      </trkpt>
      <trkpt lat="46.99196" lon="5.87785">
        <ele>568.4</ele>
        <time>2020-12-26T13:12:50Z</time>
      </trkpt>
      <trkpt lat="46.99196" lon="5.8779">
        <ele>568.6</ele>
        <time>2020-12-26T13:12:51Z</time>
      </trkpt>
      <trkpt lat="46.99196" lon="5.87796">
        <ele>569</ele>
        <time>2020-12-26T13:12:52Z</time>
      </trkpt>
      <trkpt lat="46.99197" lon="5.87801">
        <ele>569.2</ele>
        <time>2020-12-26T13:12:53Z</time>
      </trkpt>
      <trkpt lat="46.99197" lon="5.87807">
        <ele>569.4</ele>
        <time>2020-12-26T13:12:54Z</time>
      </trkpt>
      <trkpt lat="46.99197" lon="5.87812">
        <ele>569.6</ele>
        <time>2020-12-26T13:12:55Z</time>
      </trkpt>
      <trkpt lat="46.99197" lon="5.87818">
        <ele>569.8</ele>
        <time>2020-12-26T13:12:56Z</time>
      </trkpt>
      <trkpt lat="46.99197" lon="5.87823">
        <ele>570.2</ele>
        <time>2020-12-26T13:12:57Z</time>
      </trkpt>
      <trkpt lat="46.99197" lon="5.87829">
        <ele>570.4</ele>
        <time>2020-12-26T13:12:58Z</time>
      </trkpt>
      <trkpt lat="46.99197" lon="5.87835">
        <ele>570.6</ele>
        <time>2020-12-26T13:12:59Z</time>
      </trkpt>
      <trkpt lat="46.99198" lon="5.87841">
        <ele>570.8</ele>
        <time>2020-12-26T13:13:00Z</time>
      </trkpt>
      <trkpt lat="46.99198" lon="5.87846">
        <ele>571.2</ele>
        <time>2020-12-26T13:13:01Z</time>
      </trkpt>
      <trkpt lat="46.99198" lon="5.87852">
        <ele>571.4</ele>
        <time>2020-12-26T13:13:02Z</time>
      </trkpt>
      <trkpt lat="46.99199" lon="5.87857">
        <ele>571.4</ele>
        <time>2020-12-26T13:13:03Z</time>
      </trkpt>
      <trkpt lat="46.99199" lon="5.87863">
        <ele>571.8</ele>
        <time>2020-12-26T13:13:04Z</time>
      </trkpt>
      <trkpt lat="46.992" lon="5.87868">
        <ele>572.2</ele>
        <time>2020-12-26T13:13:05Z</time>
      </trkpt>
      <trkpt lat="46.99202" lon="5.87873">
        <ele>572.4</ele>
        <time>2020-12-26T13:13:06Z</time>
      </trkpt>
      <trkpt lat="46.99203" lon="5.87877">
        <ele>572.8</ele>
        <time>2020-12-26T13:13:07Z</time>
      </trkpt>
      <trkpt lat="46.99204" lon="5.87882">
        <ele>573</ele>
        <time>2020-12-26T13:13:08Z</time>
      </trkpt>
      <trkpt lat="46.99206" lon="5.87887">
        <ele>573.4</ele>
        <time>2020-12-26T13:13:09Z</time>
      </trkpt>
      <trkpt lat="46.99208" lon="5.87891">
        <ele>573.6</ele>
        <time>2020-12-26T13:13:10Z</time>
      </trkpt>
      <trkpt lat="46.99211" lon="5.87895">
        <ele>573.6</ele>
        <time>2020-12-26T13:13:11Z</time>
      </trkpt>
      <trkpt lat="46.99213" lon="5.87898">
        <ele>574</ele>
        <time>2020-12-26T13:13:12Z</time>
      </trkpt>
      <trkpt lat="46.99216" lon="5.87902">
        <ele>574.2</ele>
        <time>2020-12-26T13:13:13Z</time>
      </trkpt>
      <trkpt lat="46.99218" lon="5.87905">
        <ele>574.4</ele>
        <time>2020-12-26T13:13:14Z</time>
      </trkpt>
      <trkpt lat="46.99221" lon="5.87908">
        <ele>574.6</ele>
        <time>2020-12-26T13:13:15Z</time>
      </trkpt>
      <trkpt lat="46.99224" lon="5.87912">
        <ele>575</ele>
        <time>2020-12-26T13:13:16Z</time>
      </trkpt>
      <trkpt lat="46.99226" lon="5.87915">
        <ele>575.2</ele>
        <time>2020-12-26T13:13:17Z</time>
      </trkpt>
      <trkpt lat="46.99229" lon="5.87918">
        <ele>575.2</ele>
        <time>2020-12-26T13:13:18Z</time>
      </trkpt>
      <trkpt lat="46.99232" lon="5.87921">
        <ele>575.6</ele>
        <time>2020-12-26T13:13:19Z</time>
      </trkpt>
      <trkpt lat="46.99235" lon="5.87924">
        <ele>575.8</ele>
        <time>2020-12-26T13:13:20Z</time>
      </trkpt>
      <trkpt lat="46.99237" lon="5.87927">
        <ele>576.2</ele>
        <time>2020-12-26T13:13:21Z</time>
      </trkpt>
      <trkpt lat="46.9924" lon="5.8793">
        <ele>576.2</ele>
        <time>2020-12-26T13:13:22Z</time>
      </trkpt>
      <trkpt lat="46.99242" lon="5.87933">
        <ele>576.6</ele>
        <time>2020-12-26T13:13:23Z</time>
      </trkpt>
      <trkpt lat="46.99244" lon="5.87936">
        <ele>576.8</ele>
        <time>2020-12-26T13:13:24Z</time>
      </trkpt>
      <trkpt lat="46.99246" lon="5.87939">
        <ele>577</ele>
        <time>2020-12-26T13:13:25Z</time>
      </trkpt>
      <trkpt lat="46.99249" lon="5.87941">
        <ele>577.2</ele>
        <time>2020-12-26T13:13:26Z</time>
      </trkpt>
      <trkpt lat="46.99251" lon="5.87944">
        <ele>577.6</ele>
        <time>2020-12-26T13:13:27Z</time>
      </trkpt>
      <trkpt lat="46.99253" lon="5.87947">
        <ele>577.8</ele>
        <time>2020-12-26T13:13:28Z</time>
      </trkpt>
      <trkpt lat="46.99255" lon="5.8795">
        <ele>578</ele>
        <time>2020-12-26T13:13:29Z</time>
      </trkpt>
      <trkpt lat="46.99257" lon="5.87953">
        <ele>578.2</ele>
        <time>2020-12-26T13:13:30Z</time>
      </trkpt>
      <trkpt lat="46.99259" lon="5.87958">
        <ele>578.6</ele>
        <time>2020-12-26T13:13:31Z</time>
      </trkpt>
      <trkpt lat="46.99261" lon="5.87962">
        <ele>578.6</ele>
        <time>2020-12-26T13:13:32Z</time>
      </trkpt>
      <trkpt lat="46.99263" lon="5.87967">
        <ele>579</ele>
        <time>2020-12-26T13:13:33Z</time>
      </trkpt>
      <trkpt lat="46.99265" lon="5.87971">
        <ele>579.2</ele>
        <time>2020-12-26T13:13:34Z</time>
      </trkpt>
      <trkpt lat="46.99267" lon="5.87975">
        <ele>579.2</ele>
        <time>2020-12-26T13:13:35Z</time>
      </trkpt>
      <trkpt lat="46.99269" lon="5.87979">
        <ele>579.6</ele>
        <time>2020-12-26T13:13:36Z</time>
      </trkpt>
      <trkpt lat="46.99271" lon="5.87983">
        <ele>579.6</ele>
        <time>2020-12-26T13:13:37Z</time>
      </trkpt>
      <trkpt lat="46.99273" lon="5.87987">
        <ele>580</ele>
        <time>2020-12-26T13:13:38Z</time>
      </trkpt>
      <trkpt lat="46.99275" lon="5.87991">
        <ele>580.2</ele>
        <time>2020-12-26T13:13:39Z</time>
      </trkpt>
      <trkpt lat="46.99277" lon="5.87995">
        <ele>580.4</ele>
        <time>2020-12-26T13:13:40Z</time>
      </trkpt>
      <trkpt lat="46.9928" lon="5.87999">
        <ele>580.8</ele>
        <time>2020-12-26T13:13:41Z</time>
      </trkpt>
      <trkpt lat="46.99282" lon="5.88002">
        <ele>581.2</ele>
        <time>2020-12-26T13:13:42Z</time>
      </trkpt>
      <trkpt lat="46.99285" lon="5.88006">
        <ele>581.4</ele>
        <time>2020-12-26T13:13:43Z</time>
      </trkpt>
      <trkpt lat="46.99287" lon="5.88009">
        <ele>581.6</ele>
        <time>2020-12-26T13:13:44Z</time>
      </trkpt>
      <trkpt lat="46.9929" lon="5.88012">
        <ele>581.8</ele>
        <time>2020-12-26T13:13:45Z</time>
      </trkpt>
      <trkpt lat="46.99292" lon="5.88015">
        <ele>581.8</ele>
        <time>2020-12-26T13:13:46Z</time>
      </trkpt>
      <trkpt lat="46.99295" lon="5.88018">
        <ele>582.2</ele>
        <time>2020-12-26T13:13:47Z</time>
      </trkpt>
      <trkpt lat="46.99297" lon="5.88021">
        <ele>582.6</ele>
        <time>2020-12-26T13:13:48Z</time>
      </trkpt>
      <trkpt lat="46.993" lon="5.88023">
        <ele>582.8</ele>
        <time>2020-12-26T13:13:49Z</time>
      </trkpt>
      <trkpt lat="46.99302" lon="5.88026">
        <ele>583</ele>
        <time>2020-12-26T13:13:50Z</time>
      </trkpt>
      <trkpt lat="46.99304" lon="5.88029">
        <ele>583.4</ele>
        <time>2020-12-26T13:13:51Z</time>
      </trkpt>
      <trkpt lat="46.99306" lon="5.88033">
        <ele>583.6</ele>
        <time>2020-12-26T13:13:52Z</time>
      </trkpt>
      <trkpt lat="46.99308" lon="5.88038">
        <ele>583.8</ele>
        <time>2020-12-26T13:13:53Z</time>
      </trkpt>
      <trkpt lat="46.9931" lon="5.88042">
        <ele>584</ele>
        <time>2020-12-26T13:13:54Z</time>
      </trkpt>
      <trkpt lat="46.99311" lon="5.88047">
        <ele>584</ele>
        <time>2020-12-26T13:13:55Z</time>
      </trkpt>
      <trkpt lat="46.99313" lon="5.88051">
        <ele>584.4</ele>
        <time>2020-12-26T13:13:56Z</time>
      </trkpt>
      <trkpt lat="46.99315" lon="5.88056">
        <ele>584.8</ele>
        <time>2020-12-26T13:13:57Z</time>
      </trkpt>
      <trkpt lat="46.99317" lon="5.8806">
        <ele>585</ele>
        <time>2020-12-26T13:13:58Z</time>
      </trkpt>
      <trkpt lat="46.9932" lon="5.88064">
        <ele>585.2</ele>
        <time>2020-12-26T13:13:59Z</time>
      </trkpt>
      <trkpt lat="46.99323" lon="5.88069">
        <ele>585.4</ele>
        <time>2020-12-26T13:14:00Z</time>
      </trkpt>
      <trkpt lat="46.99326" lon="5.88073">
        <ele>585.4</ele>
        <time>2020-12-26T13:14:01Z</time>
      </trkpt>
      <trkpt lat="46.99328" lon="5.88077">
        <ele>585.8</ele>
        <time>2020-12-26T13:14:02Z</time>
      </trkpt>
      <trkpt lat="46.99331" lon="5.8808">
        <ele>586</ele>
        <time>2020-12-26T13:14:03Z</time>
      </trkpt>
      <trkpt lat="46.99334" lon="5.88083">
        <ele>586.4</ele>
        <time>2020-12-26T13:14:04Z</time>
      </trkpt>
      <trkpt lat="46.99336" lon="5.88086">
        <ele>586.6</ele>
        <time>2020-12-26T13:14:05Z</time>
      </trkpt>
      <trkpt lat="46.99339" lon="5.88089">
        <ele>587</ele>
        <time>2020-12-26T13:14:06Z</time>
      </trkpt>
      <trkpt lat="46.99342" lon="5.8809">
        <ele>587.2</ele>
        <time>2020-12-26T13:14:07Z</time>
      </trkpt>
      <trkpt lat="46.99346" lon="5.88092">
        <ele>587.4</ele>
        <time>2020-12-26T13:14:08Z</time>
      </trkpt>
      <trkpt lat="46.99349" lon="5.88093">
        <ele>587.6</ele>
        <time>2020-12-26T13:14:09Z</time>
      </trkpt>
      <trkpt lat="46.99352" lon="5.88094">
        <ele>587.8</ele>
        <time>2020-12-26T13:14:10Z</time>
      </trkpt>
      <trkpt lat="46.99354" lon="5.88095">
        <ele>588.2</ele>
        <time>2020-12-26T13:14:11Z</time>
      </trkpt>
      <trkpt lat="46.99357" lon="5.88096">
        <ele>588.4</ele>
        <time>2020-12-26T13:14:12Z</time>
      </trkpt>
      <trkpt lat="46.9936" lon="5.88097">
        <ele>588.6</ele>
        <time>2020-12-26T13:14:13Z</time>
      </trkpt>
      <trkpt lat="46.99363" lon="5.88097">
        <ele>588.6</ele>
        <time>2020-12-26T13:14:14Z</time>
      </trkpt>
      <trkpt lat="46.99365" lon="5.88099">
        <ele>589</ele>
        <time>2020-12-26T13:14:15Z</time>
      </trkpt>
      <trkpt lat="46.99369" lon="5.881">
        <ele>589</ele>
        <time>2020-12-26T13:14:16Z</time>
      </trkpt>
      <trkpt lat="46.99372" lon="5.88101">
        <ele>589.4</ele>
        <time>2020-12-26T13:14:17Z</time>
      </trkpt>
      <trkpt lat="46.99375" lon="5.88101">
        <ele>589.6</ele>
        <time>2020-12-26T13:14:18Z</time>
      </trkpt>
      <trkpt lat="46.99378" lon="5.88102">
        <ele>589.8</ele>
        <time>2020-12-26T13:14:19Z</time>
      </trkpt>
      <trkpt lat="46.9938" lon="5.88102">
        <ele>590</ele>
        <time>2020-12-26T13:14:20Z</time>
      </trkpt>
      <trkpt lat="46.99383" lon="5.88103">
        <ele>590.4</ele>
        <time>2020-12-26T13:14:21Z</time>
      </trkpt>
      <trkpt lat="46.99385" lon="5.88104">
        <ele>590.6</ele>
        <time>2020-12-26T13:14:22Z</time>
      </trkpt>
      <trkpt lat="46.99388" lon="5.88105">
        <ele>590.8</ele>
        <time>2020-12-26T13:14:23Z</time>
      </trkpt>
      <trkpt lat="46.99391" lon="5.88106">
        <ele>590.8</ele>
        <time>2020-12-26T13:14:24Z</time>
      </trkpt>
      <trkpt lat="46.99393" lon="5.88107">
        <ele>591.2</ele>
        <time>2020-12-26T13:14:25Z</time>
      </trkpt>
      <trkpt lat="46.99396" lon="5.88109">
        <ele>591.2</ele>
        <time>2020-12-26T13:14:26Z</time>
      </trkpt>
      <trkpt lat="46.99399" lon="5.88111">
        <ele>591.6</ele>
        <time>2020-12-26T13:14:27Z</time>
      </trkpt>
      <trkpt lat="46.99402" lon="5.88115">
        <ele>591.6</ele>
        <time>2020-12-26T13:14:28Z</time>
      </trkpt>
      <trkpt lat="46.99405" lon="5.88119">
        <ele>591.8</ele>
        <time>2020-12-26T13:14:29Z</time>
      </trkpt>
      <trkpt lat="46.99407" lon="5.88124">
        <ele>591.8</ele>
        <time>2020-12-26T13:14:30Z</time>
      </trkpt>
      <trkpt lat="46.99408" lon="5.88129">
        <ele>591.8</ele>
        <time>2020-12-26T13:14:31Z</time>
      </trkpt>
      <trkpt lat="46.99408" lon="5.88136">
        <ele>592.2</ele>
        <time>2020-12-26T13:14:32Z</time>
      </trkpt>
      <trkpt lat="46.99407" lon="5.88141">
        <ele>592.2</ele>
        <time>2020-12-26T13:14:33Z</time>
      </trkpt>
      <trkpt lat="46.99405" lon="5.88144">
        <ele>592.4</ele>
        <time>2020-12-26T13:14:34Z</time>
      </trkpt>
      <trkpt lat="46.99403" lon="5.88147">
        <ele>592.4</ele>
        <time>2020-12-26T13:14:35Z</time>
      </trkpt>
      <trkpt lat="46.994" lon="5.88149">
        <ele>592.6</ele>
        <time>2020-12-26T13:14:36Z</time>
      </trkpt>
      <trkpt lat="46.99398" lon="5.88151">
        <ele>592.6</ele>
        <time>2020-12-26T13:14:37Z</time>
      </trkpt>
      <trkpt lat="46.99395" lon="5.88152">
        <ele>593</ele>
        <time>2020-12-26T13:14:38Z</time>
      </trkpt>
      <trkpt lat="46.99392" lon="5.88153">
        <ele>593.2</ele>
        <time>2020-12-26T13:14:39Z</time>
      </trkpt>
      <trkpt lat="46.99389" lon="5.88155">
        <ele>593.6</ele>
        <time>2020-12-26T13:14:40Z</time>
      </trkpt>
      <trkpt lat="46.99386" lon="5.88156">
        <ele>593.8</ele>
        <time>2020-12-26T13:14:41Z</time>
      </trkpt>
      <trkpt lat="46.99383" lon="5.88158">
        <ele>593.8</ele>
        <time>2020-12-26T13:14:42Z</time>
      </trkpt>
      <trkpt lat="46.9938" lon="5.88159">
        <ele>594.2</ele>
        <time>2020-12-26T13:14:43Z</time>
      </trkpt>
      <trkpt lat="46.99377" lon="5.8816">
        <ele>594.4</ele>
        <time>2020-12-26T13:14:44Z</time>
      </trkpt>
      <trkpt lat="46.99374" lon="5.88162">
        <ele>594.6</ele>
        <time>2020-12-26T13:14:45Z</time>
      </trkpt>
      <trkpt lat="46.99372" lon="5.88162">
        <ele>595</ele>
        <time>2020-12-26T13:14:46Z</time>
      </trkpt>
      <trkpt lat="46.9937" lon="5.88164">
        <ele>595.2</ele>
        <time>2020-12-26T13:14:47Z</time>
      </trkpt>
      <trkpt lat="46.99367" lon="5.88165">
        <ele>595.4</ele>
        <time>2020-12-26T13:14:48Z</time>
      </trkpt>
      <trkpt lat="46.99364" lon="5.88166">
        <ele>595.4</ele>
        <time>2020-12-26T13:14:49Z</time>
      </trkpt>
      <trkpt lat="46.99362" lon="5.88168">
        <ele>595.8</ele>
        <time>2020-12-26T13:14:50Z</time>
      </trkpt>
      <trkpt lat="46.9936" lon="5.88169">
        <ele>596.2</ele>
        <time>2020-12-26T13:14:51Z</time>
      </trkpt>
      <trkpt lat="46.99357" lon="5.88171">
        <ele>596.4</ele>
        <time>2020-12-26T13:14:52Z</time>
      </trkpt>
      <trkpt lat="46.99354" lon="5.88172">
        <ele>596.6</ele>
        <time>2020-12-26T13:14:53Z</time>
      </trkpt>
      <trkpt lat="46.99351" lon="5.88173">
        <ele>596.8</ele>
        <time>2020-12-26T13:14:54Z</time>
      </trkpt>
      <trkpt lat="46.99347" lon="5.88174">
        <ele>597.2</ele>
        <time>2020-12-26T13:14:55Z</time>
      </trkpt>
      <trkpt lat="46.99344" lon="5.88175">
        <ele>597.2</ele>
        <time>2020-12-26T13:14:56Z</time>
      </trkpt>
      <trkpt lat="46.99341" lon="5.88175">
        <ele>597.6</ele>
        <time>2020-12-26T13:14:57Z</time>
      </trkpt>
      <trkpt lat="46.99338" lon="5.88176">
        <ele>597.6</ele>
        <time>2020-12-26T13:14:58Z</time>
      </trkpt>
      <trkpt lat="46.99334" lon="5.88177">
        <ele>597.8</ele>
        <time>2020-12-26T13:14:59Z</time>
      </trkpt>
      <trkpt lat="46.99331" lon="5.88178">
        <ele>598</ele>
        <time>2020-12-26T13:15:00Z</time>
      </trkpt>
      <trkpt lat="46.99327" lon="5.88179">
        <ele>598.4</ele>
        <time>2020-12-26T13:15:01Z</time>
      </trkpt>
      <trkpt lat="46.99324" lon="5.88179">
        <ele>598.6</ele>
        <time>2020-12-26T13:15:02Z</time>
      </trkpt>
      <trkpt lat="46.99321" lon="5.88178">
        <ele>598.8</ele>
        <time>2020-12-26T13:15:03Z</time>
      </trkpt>
      <trkpt lat="46.99317" lon="5.88178">
        <ele>599.2</ele>
        <time>2020-12-26T13:15:04Z</time>
      </trkpt>
      <trkpt lat="46.99314" lon="5.88178">
        <ele>599.2</ele>
        <time>2020-12-26T13:15:05Z</time>
      </trkpt>
      <trkpt lat="46.99311" lon="5.88178">
        <ele>599.4</ele>
        <time>2020-12-26T13:15:06Z</time>
      </trkpt>
      <trkpt lat="46.99308" lon="5.88178">
        <ele>599.4</ele>
        <time>2020-12-26T13:15:07Z</time>
      </trkpt>
      <trkpt lat="46.99305" lon="5.88178">
        <ele>599.8</ele>
        <time>2020-12-26T13:15:08Z</time>
      </trkpt>
      <trkpt lat="46.99302" lon="5.88178">
        <ele>599.8</ele>
        <time>2020-12-26T13:15:09Z</time>
      </trkpt>
      <trkpt lat="46.99298" lon="5.88178">
        <ele>600.2</ele>
        <time>2020-12-26T13:15:10Z</time>
      </trkpt>
      <trkpt lat="46.99295" lon="5.88177">
        <ele>600.4</ele>
        <time>2020-12-26T13:15:11Z</time>
      </trkpt>
      <trkpt lat="46.99292" lon="5.88177">
        <ele>600.4</ele>
        <time>2020-12-26T13:15:12Z</time>
      </trkpt>
      <trkpt lat="46.99289" lon="5.88177">
        <ele>600.8</ele>
        <time>2020-12-26T13:15:13Z</time>
      </trkpt>
      <trkpt lat="46.99286" lon="5.88177">
        <ele>600.8</ele>
        <time>2020-12-26T13:15:14Z</time>
      </trkpt>
      <trkpt lat="46.99283" lon="5.88176">
        <ele>601.2</ele>
        <time>2020-12-26T13:15:15Z</time>
      </trkpt>
      <trkpt lat="46.99281" lon="5.88176">
        <ele>601.4</ele>
        <time>2020-12-26T13:15:16Z</time>
      </trkpt>
      <trkpt lat="46.99278" lon="5.88175">
        <ele>601.4</ele>
        <time>2020-12-26T13:15:17Z</time>
      </trkpt>
      <trkpt lat="46.99275" lon="5.88175">
        <ele>601.8</ele>
        <time>2020-12-26T13:15:18Z</time>
      </trkpt>
      <trkpt lat="46.99272" lon="5.88175">
        <ele>602</ele>
        <time>2020-12-26T13:15:19Z</time>
      </trkpt>
      <trkpt lat="46.99269" lon="5.88175">
        <ele>602</ele>
        <time>2020-12-26T13:15:20Z</time>
      </trkpt>
      <trkpt lat="46.99266" lon="5.88175">
        <ele>602.4</ele>
        <time>2020-12-26T13:15:21Z</time>
      </trkpt>
      <trkpt lat="46.99264" lon="5.88175">
        <ele>602.4</ele>
        <time>2020-12-26T13:15:22Z</time>
      </trkpt>
      <trkpt lat="46.9926" lon="5.88174">
        <ele>602.8</ele>
        <time>2020-12-26T13:15:23Z</time>
      </trkpt>
      <trkpt lat="46.99257" lon="5.88174">
        <ele>602.8</ele>
        <time>2020-12-26T13:15:24Z</time>
      </trkpt>
      <trkpt lat="46.99254" lon="5.88173">
        <ele>603</ele>
        <time>2020-12-26T13:15:25Z</time>
      </trkpt>
      <trkpt lat="46.99251" lon="5.88173">
        <ele>603</ele>
        <time>2020-12-26T13:15:26Z</time>
      </trkpt>
      <trkpt lat="46.99248" lon="5.88172">
        <ele>603.4</ele>
        <time>2020-12-26T13:15:27Z</time>
      </trkpt>
      <trkpt lat="46.99245" lon="5.88171">
        <ele>603.4</ele>
        <time>2020-12-26T13:15:28Z</time>
      </trkpt>
      <trkpt lat="46.99242" lon="5.8817">
        <ele>603.8</ele>
        <time>2020-12-26T13:15:29Z</time>
      </trkpt>
      <trkpt lat="46.99239" lon="5.88169">
        <ele>603.8</ele>
        <time>2020-12-26T13:15:30Z</time>
      </trkpt>
      <trkpt lat="46.99237" lon="5.88168">
        <ele>604.2</ele>
        <time>2020-12-26T13:15:31Z</time>
      </trkpt>
      <trkpt lat="46.99233" lon="5.88166">
        <ele>604.4</ele>
        <time>2020-12-26T13:15:32Z</time>
      </trkpt>
      <trkpt lat="46.9923" lon="5.88165">
        <ele>604.8</ele>
        <time>2020-12-26T13:15:33Z</time>
      </trkpt>
      <trkpt lat="46.99227" lon="5.88164">
        <ele>605</ele>
        <time>2020-12-26T13:15:34Z</time>
      </trkpt>
      <trkpt lat="46.99223" lon="5.88162">
        <ele>605.2</ele>
        <time>2020-12-26T13:15:35Z</time>
      </trkpt>
      <trkpt lat="46.9922" lon="5.8816">
        <ele>605.4</ele>
        <time>2020-12-26T13:15:36Z</time>
      </trkpt>
      <trkpt lat="46.99217" lon="5.88159">
        <ele>605.4</ele>
        <time>2020-12-26T13:15:37Z</time>
      </trkpt>
      <trkpt lat="46.99214" lon="5.88158">
        <ele>605.8</ele>
        <time>2020-12-26T13:15:38Z</time>
      </trkpt>
      <trkpt lat="46.99211" lon="5.88157">
        <ele>605.8</ele>
        <time>2020-12-26T13:15:39Z</time>
      </trkpt>
      <trkpt lat="46.99208" lon="5.88157">
        <ele>606.4</ele>
        <time>2020-12-26T13:15:40Z</time>
      </trkpt>
      <trkpt lat="46.99205" lon="5.88157">
        <ele>606.6</ele>
        <time>2020-12-26T13:15:41Z</time>
      </trkpt>
      <trkpt lat="46.99201" lon="5.88157">
        <ele>606.8</ele>
        <time>2020-12-26T13:15:42Z</time>
      </trkpt>
      <trkpt lat="46.99198" lon="5.88158">
        <ele>607.2</ele>
        <time>2020-12-26T13:15:43Z</time>
      </trkpt>
      <trkpt lat="46.99195" lon="5.88159">
        <ele>607.2</ele>
        <time>2020-12-26T13:15:44Z</time>
      </trkpt>
      <trkpt lat="46.99193" lon="5.8816">
        <ele>607.6</ele>
        <time>2020-12-26T13:15:45Z</time>
      </trkpt>
      <trkpt lat="46.9919" lon="5.88162">
        <ele>607.6</ele>
        <time>2020-12-26T13:15:46Z</time>
      </trkpt>
      <trkpt lat="46.99187" lon="5.88164">
        <ele>607.8</ele>
        <time>2020-12-26T13:15:47Z</time>
      </trkpt>
      <trkpt lat="46.99184" lon="5.88167">
        <ele>607.8</ele>
        <time>2020-12-26T13:15:48Z</time>
      </trkpt>
      <trkpt lat="46.99181" lon="5.88169">
        <ele>608.2</ele>
        <time>2020-12-26T13:15:49Z</time>
      </trkpt>
      <trkpt lat="46.99179" lon="5.88172">
        <ele>608.2</ele>
        <time>2020-12-26T13:15:50Z</time>
      </trkpt>
      <trkpt lat="46.99177" lon="5.88176">
        <ele>608.4</ele>
        <time>2020-12-26T13:15:51Z</time>
      </trkpt>
      <trkpt lat="46.99174" lon="5.88179">
        <ele>608.4</ele>
        <time>2020-12-26T13:15:52Z</time>
      </trkpt>
      <trkpt lat="46.99172" lon="5.88182">
        <ele>608.8</ele>
        <time>2020-12-26T13:15:53Z</time>
      </trkpt>
      <trkpt lat="46.9917" lon="5.88186">
        <ele>608.8</ele>
        <time>2020-12-26T13:15:54Z</time>
      </trkpt>
      <trkpt lat="46.99168" lon="5.88189">
        <ele>609.2</ele>
        <time>2020-12-26T13:15:55Z</time>
      </trkpt>
      <trkpt lat="46.99167" lon="5.88193">
        <ele>609.4</ele>
        <time>2020-12-26T13:15:56Z</time>
      </trkpt>
      <trkpt lat="46.99165" lon="5.88197">
        <ele>609.8</ele>
        <time>2020-12-26T13:15:57Z</time>
      </trkpt>
      <trkpt lat="46.99164" lon="5.88201">
        <ele>610</ele>
        <time>2020-12-26T13:15:58Z</time>
      </trkpt>
      <trkpt lat="46.99162" lon="5.88204">
        <ele>610</ele>
        <time>2020-12-26T13:15:59Z</time>
      </trkpt>
      <trkpt lat="46.99161" lon="5.88208">
        <ele>610.4</ele>
        <time>2020-12-26T13:16:00Z</time>
      </trkpt>
      <trkpt lat="46.9916" lon="5.88212">
        <ele>610.6</ele>
        <time>2020-12-26T13:16:01Z</time>
      </trkpt>
      <trkpt lat="46.99158" lon="5.88215">
        <ele>610.6</ele>
        <time>2020-12-26T13:16:02Z</time>
      </trkpt>
      <trkpt lat="46.99156" lon="5.88219">
        <ele>611</ele>
        <time>2020-12-26T13:16:03Z</time>
      </trkpt>
      <trkpt lat="46.99154" lon="5.88222">
        <ele>611</ele>
        <time>2020-12-26T13:16:04Z</time>
      </trkpt>
      <trkpt lat="46.99153" lon="5.88225">
        <ele>611.4</ele>
        <time>2020-12-26T13:16:05Z</time>
      </trkpt>
      <trkpt lat="46.99151" lon="5.88229">
        <ele>611.6</ele>
        <time>2020-12-26T13:16:06Z</time>
      </trkpt>
      <trkpt lat="46.99149" lon="5.88233">
        <ele>611.8</ele>
        <time>2020-12-26T13:16:07Z</time>
      </trkpt>
      <trkpt lat="46.99147" lon="5.88236">
        <ele>611.8</ele>
        <time>2020-12-26T13:16:08Z</time>
      </trkpt>
      <trkpt lat="46.99145" lon="5.8824">
        <ele>612.2</ele>
        <time>2020-12-26T13:16:09Z</time>
      </trkpt>
      <trkpt lat="46.99143" lon="5.88243">
        <ele>612.6</ele>
        <time>2020-12-26T13:16:10Z</time>
      </trkpt>
      <trkpt lat="46.99141" lon="5.88246">
        <ele>612.8</ele>
        <time>2020-12-26T13:16:11Z</time>
      </trkpt>
      <trkpt lat="46.99139" lon="5.88249">
        <ele>612.8</ele>
        <time>2020-12-26T13:16:12Z</time>
      </trkpt>
      <trkpt lat="46.99137" lon="5.88252">
        <ele>613.2</ele>
        <time>2020-12-26T13:16:13Z</time>
      </trkpt>
      <trkpt lat="46.99134" lon="5.88255">
        <ele>613.4</ele>
        <time>2020-12-26T13:16:14Z</time>
      </trkpt>
      <trkpt lat="46.99132" lon="5.88258">
        <ele>613.8</ele>
        <time>2020-12-26T13:16:15Z</time>
      </trkpt>
      <trkpt lat="46.99129" lon="5.88261">
        <ele>613.8</ele>
        <time>2020-12-26T13:16:16Z</time>
      </trkpt>
      <trkpt lat="46.99127" lon="5.88265">
        <ele>614</ele>
        <time>2020-12-26T13:16:17Z</time>
      </trkpt>
      <trkpt lat="46.99124" lon="5.88268">
        <ele>614.2</ele>
        <time>2020-12-26T13:16:18Z</time>
      </trkpt>
      <trkpt lat="46.99122" lon="5.88272">
        <ele>614.4</ele>
        <time>2020-12-26T13:16:19Z</time>
      </trkpt>
      <trkpt lat="46.99119" lon="5.88276">
        <ele>614.4</ele>
        <time>2020-12-26T13:16:20Z</time>
      </trkpt>
      <trkpt lat="46.99118" lon="5.8828">
        <ele>614.8</ele>
        <time>2020-12-26T13:16:21Z</time>
      </trkpt>
      <trkpt lat="46.99115" lon="5.88283">
        <ele>615</ele>
        <time>2020-12-26T13:16:22Z</time>
      </trkpt>
      <trkpt lat="46.99114" lon="5.88288">
        <ele>615</ele>
        <time>2020-12-26T13:16:23Z</time>
      </trkpt>
      <trkpt lat="46.99112" lon="5.88292">
        <ele>615.4</ele>
        <time>2020-12-26T13:16:24Z</time>
      </trkpt>
      <trkpt lat="46.9911" lon="5.88297">
        <ele>615.4</ele>
        <time>2020-12-26T13:16:25Z</time>
      </trkpt>
      <trkpt lat="46.99109" lon="5.88302">
        <ele>616</ele>
        <time>2020-12-26T13:16:26Z</time>
      </trkpt>
      <trkpt lat="46.99108" lon="5.88307">
        <ele>616.2</ele>
        <time>2020-12-26T13:16:27Z</time>
      </trkpt>
      <trkpt lat="46.99107" lon="5.88311">
        <ele>616.6</ele>
        <time>2020-12-26T13:16:28Z</time>
      </trkpt>
      <trkpt lat="46.99107" lon="5.88316">
        <ele>616.8</ele>
        <time>2020-12-26T13:16:29Z</time>
      </trkpt>
      <trkpt lat="46.99105" lon="5.8832">
        <ele>617</ele>
        <time>2020-12-26T13:16:30Z</time>
      </trkpt>
      <trkpt lat="46.99105" lon="5.88325">
        <ele>617.2</ele>
        <time>2020-12-26T13:16:31Z</time>
      </trkpt>
      <trkpt lat="46.99104" lon="5.88329">
        <ele>617.4</ele>
        <time>2020-12-26T13:16:32Z</time>
      </trkpt>
      <trkpt lat="46.99104" lon="5.88334">
        <ele>617.6</ele>
        <time>2020-12-26T13:16:33Z</time>
      </trkpt>
      <trkpt lat="46.99104" lon="5.88338">
        <ele>617.8</ele>
        <time>2020-12-26T13:16:34Z</time>
      </trkpt>
      <trkpt lat="46.99104" lon="5.88342">
        <ele>618</ele>
        <time>2020-12-26T13:16:35Z</time>
      </trkpt>
      <trkpt lat="46.99104" lon="5.88346">
        <ele>618.2</ele>
        <time>2020-12-26T13:16:36Z</time>
      </trkpt>
      <trkpt lat="46.99105" lon="5.88351">
        <ele>618.2</ele>
        <time>2020-12-26T13:16:37Z</time>
      </trkpt>
      <trkpt lat="46.99105" lon="5.88355">
        <ele>618.8</ele>
        <time>2020-12-26T13:16:38Z</time>
      </trkpt>
      <trkpt lat="46.99106" lon="5.88359">
        <ele>619</ele>
        <time>2020-12-26T13:16:39Z</time>
      </trkpt>
      <trkpt lat="46.99107" lon="5.88364">
        <ele>619.2</ele>
        <time>2020-12-26T13:16:40Z</time>
      </trkpt>
      <trkpt lat="46.99107" lon="5.88369">
        <ele>619.4</ele>
        <time>2020-12-26T13:16:41Z</time>
      </trkpt>
      <trkpt lat="46.99108" lon="5.88374">
        <ele>619.6</ele>
        <time>2020-12-26T13:16:42Z</time>
      </trkpt>
      <trkpt lat="46.99108" lon="5.88379">
        <ele>619.6</ele>
        <time>2020-12-26T13:16:43Z</time>
      </trkpt>
      <trkpt lat="46.99109" lon="5.88383">
        <ele>620</ele>
        <time>2020-12-26T13:16:44Z</time>
      </trkpt>
      <trkpt lat="46.99111" lon="5.88387">
        <ele>620.4</ele>
        <time>2020-12-26T13:16:45Z</time>
      </trkpt>
      <trkpt lat="46.99111" lon="5.88392">
        <ele>620.6</ele>
        <time>2020-12-26T13:16:46Z</time>
      </trkpt>
      <trkpt lat="46.99111" lon="5.88396">
        <ele>620.8</ele>
        <time>2020-12-26T13:16:47Z</time>
      </trkpt>
      <trkpt lat="46.99112" lon="5.884">
        <ele>621</ele>
        <time>2020-12-26T13:16:48Z</time>
      </trkpt>
      <trkpt lat="46.99113" lon="5.88404">
        <ele>621.2</ele>
        <time>2020-12-26T13:16:49Z</time>
      </trkpt>
      <trkpt lat="46.99113" lon="5.88408">
        <ele>621.2</ele>
        <time>2020-12-26T13:16:50Z</time>
      </trkpt>
      <trkpt lat="46.99114" lon="5.88413">
        <ele>621.6</ele>
        <time>2020-12-26T13:16:51Z</time>
      </trkpt>
      <trkpt lat="46.99114" lon="5.88417">
        <ele>621.6</ele>
        <time>2020-12-26T13:16:52Z</time>
      </trkpt>
      <trkpt lat="46.99113" lon="5.88422">
        <ele>622</ele>
        <time>2020-12-26T13:16:53Z</time>
      </trkpt>
      <trkpt lat="46.99113" lon="5.88427">
        <ele>622.2</ele>
        <time>2020-12-26T13:16:54Z</time>
      </trkpt>
      <trkpt lat="46.99111" lon="5.88431">
        <ele>622.4</ele>
        <time>2020-12-26T13:16:55Z</time>
      </trkpt>
      <trkpt lat="46.9911" lon="5.88436">
        <ele>622.4</ele>
        <time>2020-12-26T13:16:56Z</time>
      </trkpt>
      <trkpt lat="46.99107" lon="5.88439">
        <ele>622.8</ele>
        <time>2020-12-26T13:16:57Z</time>
      </trkpt>
      <trkpt lat="46.99105" lon="5.88442">
        <ele>623.2</ele>
        <time>2020-12-26T13:16:58Z</time>
      </trkpt>
      <trkpt lat="46.99103" lon="5.88445">
        <ele>623.2</ele>
        <time>2020-12-26T13:16:59Z</time>
      </trkpt>
      <trkpt lat="46.99101" lon="5.88447">
        <ele>623.4</ele>
        <time>2020-12-26T13:17:00Z</time>
      </trkpt>
      <trkpt lat="46.99099" lon="5.8845">
        <ele>623.8</ele>
        <time>2020-12-26T13:17:01Z</time>
      </trkpt>
      <trkpt lat="46.99097" lon="5.88452">
        <ele>623.8</ele>
        <time>2020-12-26T13:17:02Z</time>
      </trkpt>
      <trkpt lat="46.99095" lon="5.88454">
        <ele>624</ele>
        <time>2020-12-26T13:17:03Z</time>
      </trkpt>
      <trkpt lat="46.99092" lon="5.88455">
        <ele>624</ele>
        <time>2020-12-26T13:17:04Z</time>
      </trkpt>
      <trkpt lat="46.9909" lon="5.88457">
        <ele>624.4</ele>
        <time>2020-12-26T13:17:05Z</time>
      </trkpt>
      <trkpt lat="46.99087" lon="5.88459">
        <ele>624.4</ele>
        <time>2020-12-26T13:17:06Z</time>
      </trkpt>
      <trkpt lat="46.99085" lon="5.88461">
        <ele>624.8</ele>
        <time>2020-12-26T13:17:07Z</time>
      </trkpt>
      <trkpt lat="46.99084" lon="5.88462">
        <ele>624.8</ele>
        <time>2020-12-26T13:17:08Z</time>
      </trkpt>
      <trkpt lat="46.99081" lon="5.88469">
        <ele>625.6</ele>
        <time>2020-12-26T13:19:23Z</time>
      </trkpt>
      <trkpt lat="46.9908" lon="5.88472">
        <ele>625.6</ele>
        <time>2020-12-26T13:19:24Z</time>
      </trkpt>
      <trkpt lat="46.99079" lon="5.88475">
        <ele>625.6</ele>
        <time>2020-12-26T13:19:25Z</time>
      </trkpt>
      <trkpt lat="46.99078" lon="5.88478">
        <ele>625.6</ele>
        <time>2020-12-26T13:19:26Z</time>
      </trkpt>
      <trkpt lat="46.99077" lon="5.88482">
        <ele>625.6</ele>
        <time>2020-12-26T13:19:27Z</time>
      </trkpt>
      <trkpt lat="46.99077" lon="5.88486">
        <ele>626</ele>
        <time>2020-12-26T13:19:28Z</time>
      </trkpt>
      <trkpt lat="46.99076" lon="5.88489">
        <ele>626</ele>
        <time>2020-12-26T13:19:29Z</time>
      </trkpt>
      <trkpt lat="46.99076" lon="5.88493">
        <ele>626</ele>
        <time>2020-12-26T13:19:30Z</time>
      </trkpt>
      <trkpt lat="46.99077" lon="5.88497">
        <ele>626</ele>
        <time>2020-12-26T13:19:31Z</time>
      </trkpt>
      <trkpt lat="46.99077" lon="5.88501">
        <ele>626.2</ele>
        <time>2020-12-26T13:19:32Z</time>
      </trkpt>
      <trkpt lat="46.99078" lon="5.88504">
        <ele>626.2</ele>
        <time>2020-12-26T13:19:33Z</time>
      </trkpt>
      <trkpt lat="46.99078" lon="5.88508">
        <ele>626.2</ele>
        <time>2020-12-26T13:19:34Z</time>
      </trkpt>
      <trkpt lat="46.99079" lon="5.88511">
        <ele>626.4</ele>
        <time>2020-12-26T13:19:35Z</time>
      </trkpt>
      <trkpt lat="46.99079" lon="5.88513">
        <ele>626.4</ele>
        <time>2020-12-26T13:19:36Z</time>
      </trkpt>
      <trkpt lat="46.99079" lon="5.88516">
        <ele>626.6</ele>
        <time>2020-12-26T13:19:37Z</time>
      </trkpt>
      <trkpt lat="46.9908" lon="5.88519">
        <ele>626.6</ele>
        <time>2020-12-26T13:19:38Z</time>
      </trkpt>
      <trkpt lat="46.99081" lon="5.88524">
        <ele>627</ele>
        <time>2020-12-26T13:19:39Z</time>
      </trkpt>
      <trkpt lat="46.99082" lon="5.88529">
        <ele>627</ele>
        <time>2020-12-26T13:19:40Z</time>
      </trkpt>
      <trkpt lat="46.99083" lon="5.88534">
        <ele>627.4</ele>
        <time>2020-12-26T13:19:41Z</time>
      </trkpt>
      <trkpt lat="46.99084" lon="5.8854">
        <ele>627.6</ele>
        <time>2020-12-26T13:19:42Z</time>
      </trkpt>
      <trkpt lat="46.99086" lon="5.88544">
        <ele>627.6</ele>
        <time>2020-12-26T13:19:43Z</time>
      </trkpt>
      <trkpt lat="46.99087" lon="5.88549">
        <ele>628</ele>
        <time>2020-12-26T13:19:44Z</time>
      </trkpt>
      <trkpt lat="46.99088" lon="5.88553">
        <ele>628</ele>
        <time>2020-12-26T13:19:45Z</time>
      </trkpt>
      <trkpt lat="46.99088" lon="5.88557">
        <ele>628.2</ele>
        <time>2020-12-26T13:19:46Z</time>
      </trkpt>
      <trkpt lat="46.99089" lon="5.88561">
        <ele>628.2</ele>
        <time>2020-12-26T13:19:47Z</time>
      </trkpt>
      <trkpt lat="46.9909" lon="5.88566">
        <ele>628.6</ele>
        <time>2020-12-26T13:19:48Z</time>
      </trkpt>
      <trkpt lat="46.99091" lon="5.88571">
        <ele>628.8</ele>
        <time>2020-12-26T13:19:49Z</time>
      </trkpt>
      <trkpt lat="46.99091" lon="5.88575">
        <ele>628.8</ele>
        <time>2020-12-26T13:19:50Z</time>
      </trkpt>
      <trkpt lat="46.99091" lon="5.88578">
        <ele>629.2</ele>
        <time>2020-12-26T13:19:51Z</time>
      </trkpt>
      <trkpt lat="46.99091" lon="5.88582">
        <ele>629.4</ele>
        <time>2020-12-26T13:19:52Z</time>
      </trkpt>
      <trkpt lat="46.9909" lon="5.88586">
        <ele>629.8</ele>
        <time>2020-12-26T13:19:53Z</time>
      </trkpt>
      <trkpt lat="46.99089" lon="5.8859">
        <ele>630</ele>
        <time>2020-12-26T13:19:54Z</time>
      </trkpt>
      <trkpt lat="46.99088" lon="5.88594">
        <ele>630.2</ele>
        <time>2020-12-26T13:19:55Z</time>
      </trkpt>
      <trkpt lat="46.99087" lon="5.88599">
        <ele>630.6</ele>
        <time>2020-12-26T13:19:56Z</time>
      </trkpt>
      <trkpt lat="46.99086" lon="5.88603">
        <ele>630.8</ele>
        <time>2020-12-26T13:19:57Z</time>
      </trkpt>
      <trkpt lat="46.99085" lon="5.88608">
        <ele>631</ele>
        <time>2020-12-26T13:19:58Z</time>
      </trkpt>
      <trkpt lat="46.99085" lon="5.88612">
        <ele>631</ele>
        <time>2020-12-26T13:19:59Z</time>
      </trkpt>
      <trkpt lat="46.99084" lon="5.88616">
        <ele>631.4</ele>
        <time>2020-12-26T13:20:00Z</time>
      </trkpt>
      <trkpt lat="46.99083" lon="5.8862">
        <ele>631.6</ele>
        <time>2020-12-26T13:20:01Z</time>
      </trkpt>
      <trkpt lat="46.99082" lon="5.88625">
        <ele>632</ele>
        <time>2020-12-26T13:20:02Z</time>
      </trkpt>
      <trkpt lat="46.99081" lon="5.88629">
        <ele>632.2</ele>
        <time>2020-12-26T13:20:03Z</time>
      </trkpt>
      <trkpt lat="46.99081" lon="5.88632">
        <ele>632.4</ele>
        <time>2020-12-26T13:20:04Z</time>
      </trkpt>
      <trkpt lat="46.9908" lon="5.88636">
        <ele>632.4</ele>
        <time>2020-12-26T13:20:05Z</time>
      </trkpt>
      <trkpt lat="46.99079" lon="5.8864">
        <ele>632.8</ele>
        <time>2020-12-26T13:20:06Z</time>
      </trkpt>
      <trkpt lat="46.99078" lon="5.88644">
        <ele>632.8</ele>
        <time>2020-12-26T13:20:07Z</time>
      </trkpt>
      <trkpt lat="46.99078" lon="5.88648">
        <ele>633</ele>
        <time>2020-12-26T13:20:08Z</time>
      </trkpt>
      <trkpt lat="46.99077" lon="5.88653">
        <ele>633</ele>
        <time>2020-12-26T13:20:09Z</time>
      </trkpt>
      <trkpt lat="46.99076" lon="5.88657">
        <ele>633.4</ele>
        <time>2020-12-26T13:20:10Z</time>
      </trkpt>
      <trkpt lat="46.99075" lon="5.88661">
        <ele>633.4</ele>
        <time>2020-12-26T13:20:11Z</time>
      </trkpt>
      <trkpt lat="46.99075" lon="5.88666">
        <ele>633.6</ele>
        <time>2020-12-26T13:20:12Z</time>
      </trkpt>
      <trkpt lat="46.99074" lon="5.8867">
        <ele>633.6</ele>
        <time>2020-12-26T13:20:13Z</time>
      </trkpt>
      <trkpt lat="46.99073" lon="5.88674">
        <ele>634</ele>
        <time>2020-12-26T13:20:14Z</time>
      </trkpt>
      <trkpt lat="46.99073" lon="5.88678">
        <ele>634</ele>
        <time>2020-12-26T13:20:15Z</time>
      </trkpt>
      <trkpt lat="46.99072" lon="5.88682">
        <ele>634.4</ele>
        <time>2020-12-26T13:20:16Z</time>
      </trkpt>
      <trkpt lat="46.99071" lon="5.88685">
        <ele>634.6</ele>
        <time>2020-12-26T13:20:17Z</time>
      </trkpt>
      <trkpt lat="46.9907" lon="5.88689">
        <ele>634.6</ele>
        <time>2020-12-26T13:20:18Z</time>
      </trkpt>
      <trkpt lat="46.9907" lon="5.88693">
        <ele>635</ele>
        <time>2020-12-26T13:20:19Z</time>
      </trkpt>
      <trkpt lat="46.9907" lon="5.88696">
        <ele>635</ele>
        <time>2020-12-26T13:20:20Z</time>
      </trkpt>
      <trkpt lat="46.9907" lon="5.88701">
        <ele>635.2</ele>
        <time>2020-12-26T13:20:21Z</time>
      </trkpt>
      <trkpt lat="46.9907" lon="5.88706">
        <ele>635.2</ele>
        <time>2020-12-26T13:20:22Z</time>
      </trkpt>
      <trkpt lat="46.9907" lon="5.88711">
        <ele>635.6</ele>
        <time>2020-12-26T13:20:23Z</time>
      </trkpt>
      <trkpt lat="46.99069" lon="5.88715">
        <ele>635.6</ele>
        <time>2020-12-26T13:20:24Z</time>
      </trkpt>
      <trkpt lat="46.99068" lon="5.8872">
        <ele>636</ele>
        <time>2020-12-26T13:20:25Z</time>
      </trkpt>
      <trkpt lat="46.99067" lon="5.88724">
        <ele>636</ele>
        <time>2020-12-26T13:20:26Z</time>
      </trkpt>
      <trkpt lat="46.99065" lon="5.88729">
        <ele>636.2</ele>
        <time>2020-12-26T13:20:27Z</time>
      </trkpt>
      <trkpt lat="46.99063" lon="5.88733">
        <ele>636.2</ele>
        <time>2020-12-26T13:20:28Z</time>
      </trkpt>
      <trkpt lat="46.99062" lon="5.88736">
        <ele>636.4</ele>
        <time>2020-12-26T13:20:29Z</time>
      </trkpt>
      <trkpt lat="46.9906" lon="5.8874">
        <ele>636.4</ele>
        <time>2020-12-26T13:20:30Z</time>
      </trkpt>
      <trkpt lat="46.99058" lon="5.88743">
        <ele>636.8</ele>
        <time>2020-12-26T13:20:31Z</time>
      </trkpt>
      <trkpt lat="46.99056" lon="5.88747">
        <ele>636.8</ele>
        <time>2020-12-26T13:20:32Z</time>
      </trkpt>
      <trkpt lat="46.99054" lon="5.88751">
        <ele>637.2</ele>
        <time>2020-12-26T13:20:33Z</time>
      </trkpt>
      <trkpt lat="46.99053" lon="5.88755">
        <ele>637.2</ele>
        <time>2020-12-26T13:20:34Z</time>
      </trkpt>
      <trkpt lat="46.99051" lon="5.88758">
        <ele>637.6</ele>
        <time>2020-12-26T13:20:35Z</time>
      </trkpt>
      <trkpt lat="46.99049" lon="5.88761">
        <ele>637.6</ele>
        <time>2020-12-26T13:20:36Z</time>
      </trkpt>
      <trkpt lat="46.99047" lon="5.88765">
        <ele>638</ele>
        <time>2020-12-26T13:20:37Z</time>
      </trkpt>
      <trkpt lat="46.99044" lon="5.88767">
        <ele>638</ele>
        <time>2020-12-26T13:20:38Z</time>
      </trkpt>
      <trkpt lat="46.99042" lon="5.88769">
        <ele>638.2</ele>
        <time>2020-12-26T13:20:39Z</time>
      </trkpt>
      <trkpt lat="46.99039" lon="5.88771">
        <ele>638.2</ele>
        <time>2020-12-26T13:20:40Z</time>
      </trkpt>
      <trkpt lat="46.99036" lon="5.88774">
        <ele>638.6</ele>
        <time>2020-12-26T13:20:41Z</time>
      </trkpt>
      <trkpt lat="46.99034" lon="5.88776">
        <ele>638.6</ele>
        <time>2020-12-26T13:20:42Z</time>
      </trkpt>
      <trkpt lat="46.99031" lon="5.88778">
        <ele>638.8</ele>
        <time>2020-12-26T13:20:43Z</time>
      </trkpt>
      <trkpt lat="46.99029" lon="5.88781">
        <ele>638.8</ele>
        <time>2020-12-26T13:20:44Z</time>
      </trkpt>
      <trkpt lat="46.99027" lon="5.88783">
        <ele>639.2</ele>
        <time>2020-12-26T13:20:45Z</time>
      </trkpt>
      <trkpt lat="46.99025" lon="5.88786">
        <ele>639.4</ele>
        <time>2020-12-26T13:20:46Z</time>
      </trkpt>
      <trkpt lat="46.99022" lon="5.88788">
        <ele>639.4</ele>
        <time>2020-12-26T13:20:47Z</time>
      </trkpt>
      <trkpt lat="46.9902" lon="5.88791">
        <ele>639.6</ele>
        <time>2020-12-26T13:20:48Z</time>
      </trkpt>
      <trkpt lat="46.99017" lon="5.88794">
        <ele>639.6</ele>
        <time>2020-12-26T13:20:49Z</time>
      </trkpt>
      <trkpt lat="46.99014" lon="5.88796">
        <ele>639.6</ele>
        <time>2020-12-26T13:20:50Z</time>
      </trkpt>
      <trkpt lat="46.99011" lon="5.88799">
        <ele>639.8</ele>
        <time>2020-12-26T13:20:51Z</time>
      </trkpt>
      <trkpt lat="46.99009" lon="5.88801">
        <ele>639.8</ele>
        <time>2020-12-26T13:20:52Z</time>
      </trkpt>
      <trkpt lat="46.99006" lon="5.88803">
        <ele>639.8</ele>
        <time>2020-12-26T13:20:53Z</time>
      </trkpt>
      <trkpt lat="46.99003" lon="5.88805">
        <ele>640.2</ele>
        <time>2020-12-26T13:20:54Z</time>
      </trkpt>
      <trkpt lat="46.99002" lon="5.88808">
        <ele>640.2</ele>
        <time>2020-12-26T13:20:55Z</time>
      </trkpt>
      <trkpt lat="46.99" lon="5.88812">
        <ele>640.2</ele>
        <time>2020-12-26T13:20:56Z</time>
      </trkpt>
      <trkpt lat="46.98999" lon="5.88816">
        <ele>640.2</ele>
        <time>2020-12-26T13:20:57Z</time>
      </trkpt>
      <trkpt lat="46.98997" lon="5.88821">
        <ele>640.4</ele>
        <time>2020-12-26T13:20:58Z</time>
      </trkpt>
      <trkpt lat="46.98997" lon="5.88826">
        <ele>640.4</ele>
        <time>2020-12-26T13:20:59Z</time>
      </trkpt>
      <trkpt lat="46.98996" lon="5.88831">
        <ele>640.6</ele>
        <time>2020-12-26T13:21:00Z</time>
      </trkpt>
      <trkpt lat="46.98996" lon="5.88836">
        <ele>640.6</ele>
        <time>2020-12-26T13:21:01Z</time>
      </trkpt>
      <trkpt lat="46.98996" lon="5.8884">
        <ele>640.8</ele>
        <time>2020-12-26T13:21:02Z</time>
      </trkpt>
      <trkpt lat="46.98996" lon="5.88845">
        <ele>640.8</ele>
        <time>2020-12-26T13:21:03Z</time>
      </trkpt>
      <trkpt lat="46.98997" lon="5.8885">
        <ele>641.2</ele>
        <time>2020-12-26T13:21:04Z</time>
      </trkpt>
      <trkpt lat="46.98997" lon="5.88856">
        <ele>641.2</ele>
        <time>2020-12-26T13:21:05Z</time>
      </trkpt>
      <trkpt lat="46.98996" lon="5.88861">
        <ele>641.2</ele>
        <time>2020-12-26T13:21:06Z</time>
      </trkpt>
      <trkpt lat="46.98996" lon="5.88866">
        <ele>641.4</ele>
        <time>2020-12-26T13:21:07Z</time>
      </trkpt>
      <trkpt lat="46.98995" lon="5.88872">
        <ele>641.4</ele>
        <time>2020-12-26T13:21:08Z</time>
      </trkpt>
      <trkpt lat="46.98995" lon="5.88877">
        <ele>641.4</ele>
        <time>2020-12-26T13:21:09Z</time>
      </trkpt>
      <trkpt lat="46.98994" lon="5.88882">
        <ele>641.4</ele>
        <time>2020-12-26T13:21:10Z</time>
      </trkpt>
      <trkpt lat="46.98992" lon="5.88887">
        <ele>641.4</ele>
        <time>2020-12-26T13:21:11Z</time>
      </trkpt>
      <trkpt lat="46.9899" lon="5.88892">
        <ele>641.8</ele>
        <time>2020-12-26T13:21:12Z</time>
      </trkpt>
      <trkpt lat="46.98989" lon="5.88896">
        <ele>642</ele>
        <time>2020-12-26T13:21:13Z</time>
      </trkpt>
      <trkpt lat="46.98987" lon="5.88901">
        <ele>642</ele>
        <time>2020-12-26T13:21:14Z</time>
      </trkpt>
      <trkpt lat="46.98986" lon="5.88905">
        <ele>642.2</ele>
        <time>2020-12-26T13:21:15Z</time>
      </trkpt>
      <trkpt lat="46.98984" lon="5.88909">
        <ele>642.2</ele>
        <time>2020-12-26T13:21:16Z</time>
      </trkpt>
      <trkpt lat="46.98983" lon="5.88913">
        <ele>642.6</ele>
        <time>2020-12-26T13:21:17Z</time>
      </trkpt>
      <trkpt lat="46.98981" lon="5.88917">
        <ele>642.6</ele>
        <time>2020-12-26T13:21:18Z</time>
      </trkpt>
      <trkpt lat="46.98981" lon="5.88922">
        <ele>642.8</ele>
        <time>2020-12-26T13:21:19Z</time>
      </trkpt>
      <trkpt lat="46.98981" lon="5.88926">
        <ele>642.8</ele>
        <time>2020-12-26T13:21:20Z</time>
      </trkpt>
      <trkpt lat="46.98981" lon="5.88931">
        <ele>643</ele>
        <time>2020-12-26T13:21:21Z</time>
      </trkpt>
      <trkpt lat="46.9898" lon="5.88936">
        <ele>643</ele>
        <time>2020-12-26T13:21:22Z</time>
      </trkpt>
      <trkpt lat="46.9898" lon="5.8894">
        <ele>643.2</ele>
        <time>2020-12-26T13:21:23Z</time>
      </trkpt>
      <trkpt lat="46.9898" lon="5.88945">
        <ele>643.2</ele>
        <time>2020-12-26T13:21:24Z</time>
      </trkpt>
      <trkpt lat="46.9898" lon="5.8895">
        <ele>643.4</ele>
        <time>2020-12-26T13:21:25Z</time>
      </trkpt>
      <trkpt lat="46.9898" lon="5.88954">
        <ele>643.4</ele>
        <time>2020-12-26T13:21:26Z</time>
      </trkpt>
      <trkpt lat="46.9898" lon="5.88958">
        <ele>643.6</ele>
        <time>2020-12-26T13:21:27Z</time>
      </trkpt>
      <trkpt lat="46.98981" lon="5.88963">
        <ele>643.6</ele>
        <time>2020-12-26T13:21:28Z</time>
      </trkpt>
      <trkpt lat="46.98981" lon="5.88967">
        <ele>644</ele>
        <time>2020-12-26T13:21:29Z</time>
      </trkpt>
      <trkpt lat="46.98982" lon="5.88971">
        <ele>644</ele>
        <time>2020-12-26T13:21:30Z</time>
      </trkpt>
      <trkpt lat="46.98982" lon="5.88976">
        <ele>644.2</ele>
        <time>2020-12-26T13:21:31Z</time>
      </trkpt>
      <trkpt lat="46.98983" lon="5.8898">
        <ele>644.2</ele>
        <time>2020-12-26T13:21:32Z</time>
      </trkpt>
      <trkpt lat="46.98984" lon="5.88985">
        <ele>644.4</ele>
        <time>2020-12-26T13:21:33Z</time>
      </trkpt>
      <trkpt lat="46.98985" lon="5.88989">
        <ele>644.4</ele>
        <time>2020-12-26T13:21:34Z</time>
      </trkpt>
      <trkpt lat="46.98987" lon="5.88994">
        <ele>644.8</ele>
        <time>2020-12-26T13:21:35Z</time>
      </trkpt>
      <trkpt lat="46.98989" lon="5.88998">
        <ele>644.8</ele>
        <time>2020-12-26T13:21:36Z</time>
      </trkpt>
      <trkpt lat="46.98992" lon="5.89002">
        <ele>644.8</ele>
        <time>2020-12-26T13:21:37Z</time>
      </trkpt>
      <trkpt lat="46.98995" lon="5.89005">
        <ele>645</ele>
        <time>2020-12-26T13:21:38Z</time>
      </trkpt>
      <trkpt lat="46.98998" lon="5.89008">
        <ele>645</ele>
        <time>2020-12-26T13:21:39Z</time>
      </trkpt>
      <trkpt lat="46.99001" lon="5.89011">
        <ele>645</ele>
        <time>2020-12-26T13:21:40Z</time>
      </trkpt>
      <trkpt lat="46.99004" lon="5.89013">
        <ele>645.2</ele>
        <time>2020-12-26T13:21:41Z</time>
      </trkpt>
      <trkpt lat="46.99008" lon="5.89016">
        <ele>645.2</ele>
        <time>2020-12-26T13:21:42Z</time>
      </trkpt>
      <trkpt lat="46.99012" lon="5.89018">
        <ele>645.4</ele>
        <time>2020-12-26T13:21:43Z</time>
      </trkpt>
      <trkpt lat="46.99015" lon="5.89021">
        <ele>645.4</ele>
        <time>2020-12-26T13:21:44Z</time>
      </trkpt>
      <trkpt lat="46.9902" lon="5.89023">
        <ele>645.4</ele>
        <time>2020-12-26T13:21:45Z</time>
      </trkpt>
      <trkpt lat="46.99023" lon="5.89027">
        <ele>645.4</ele>
        <time>2020-12-26T13:21:46Z</time>
      </trkpt>
      <trkpt lat="46.99027" lon="5.89031">
        <ele>645.8</ele>
        <time>2020-12-26T13:21:47Z</time>
      </trkpt>
      <trkpt lat="46.9903" lon="5.89035">
        <ele>645.8</ele>
        <time>2020-12-26T13:21:48Z</time>
      </trkpt>
      <trkpt lat="46.99033" lon="5.8904">
        <ele>645.8</ele>
        <time>2020-12-26T13:21:49Z</time>
      </trkpt>
      <trkpt lat="46.99036" lon="5.89045">
        <ele>646</ele>
        <time>2020-12-26T13:21:50Z</time>
      </trkpt>
      <trkpt lat="46.99038" lon="5.8905">
        <ele>646</ele>
        <time>2020-12-26T13:21:51Z</time>
      </trkpt>
      <trkpt lat="46.9904" lon="5.89056">
        <ele>646.2</ele>
        <time>2020-12-26T13:21:52Z</time>
      </trkpt>
      <trkpt lat="46.99042" lon="5.89061">
        <ele>646.2</ele>
        <time>2020-12-26T13:21:53Z</time>
      </trkpt>
      <trkpt lat="46.99044" lon="5.89066">
        <ele>646.2</ele>
        <time>2020-12-26T13:21:54Z</time>
      </trkpt>
      <trkpt lat="46.99046" lon="5.89072">
        <ele>646.2</ele>
        <time>2020-12-26T13:21:55Z</time>
      </trkpt>
      <trkpt lat="46.99047" lon="5.89077">
        <ele>646.4</ele>
        <time>2020-12-26T13:21:56Z</time>
      </trkpt>
      <trkpt lat="46.99049" lon="5.89083">
        <ele>646.4</ele>
        <time>2020-12-26T13:21:57Z</time>
      </trkpt>
      <trkpt lat="46.99051" lon="5.89088">
        <ele>646.4</ele>
        <time>2020-12-26T13:21:58Z</time>
      </trkpt>
      <trkpt lat="46.99053" lon="5.89094">
        <ele>646.6</ele>
        <time>2020-12-26T13:21:59Z</time>
      </trkpt>
      <trkpt lat="46.99055" lon="5.89099">
        <ele>646.6</ele>
        <time>2020-12-26T13:22:00Z</time>
      </trkpt>
      <trkpt lat="46.99056" lon="5.89105">
        <ele>646.6</ele>
        <time>2020-12-26T13:22:01Z</time>
      </trkpt>
      <trkpt lat="46.99058" lon="5.8911">
        <ele>647</ele>
        <time>2020-12-26T13:22:02Z</time>
      </trkpt>
      <trkpt lat="46.9906" lon="5.89116">
        <ele>647</ele>
        <time>2020-12-26T13:22:03Z</time>
      </trkpt>
      <trkpt lat="46.99061" lon="5.89123">
        <ele>647</ele>
        <time>2020-12-26T13:22:04Z</time>
      </trkpt>
      <trkpt lat="46.99062" lon="5.89129">
        <ele>647</ele>
        <time>2020-12-26T13:22:05Z</time>
      </trkpt>
      <trkpt lat="46.99063" lon="5.89135">
        <ele>647.2</ele>
        <time>2020-12-26T13:22:06Z</time>
      </trkpt>
      <trkpt lat="46.99064" lon="5.89141">
        <ele>647.2</ele>
        <time>2020-12-26T13:22:07Z</time>
      </trkpt>
      <trkpt lat="46.99064" lon="5.89147">
        <ele>647.2</ele>
        <time>2020-12-26T13:22:08Z</time>
      </trkpt>
      <trkpt lat="46.99065" lon="5.89153">
        <ele>647.2</ele>
        <time>2020-12-26T13:22:09Z</time>
      </trkpt>
      <trkpt lat="46.99065" lon="5.89159">
        <ele>647.2</ele>
        <time>2020-12-26T13:22:10Z</time>
      </trkpt>
      <trkpt lat="46.99066" lon="5.89165">
        <ele>647.4</ele>
        <time>2020-12-26T13:22:11Z</time>
      </trkpt>
      <trkpt lat="46.99066" lon="5.89172">
        <ele>647.4</ele>
        <time>2020-12-26T13:22:12Z</time>
      </trkpt>
      <trkpt lat="46.99066" lon="5.89178">
        <ele>647.4</ele>
        <time>2020-12-26T13:22:13Z</time>
      </trkpt>
      <trkpt lat="46.99067" lon="5.89184">
        <ele>647.6</ele>
        <time>2020-12-26T13:22:14Z</time>
      </trkpt>
      <trkpt lat="46.99067" lon="5.8919">
        <ele>647.6</ele>
        <time>2020-12-26T13:22:15Z</time>
      </trkpt>
      <trkpt lat="46.99067" lon="5.89196">
        <ele>647.8</ele>
        <time>2020-12-26T13:22:16Z</time>
      </trkpt>
      <trkpt lat="46.99067" lon="5.89202">
        <ele>647.8</ele>
        <time>2020-12-26T13:22:17Z</time>
      </trkpt>
      <trkpt lat="46.99068" lon="5.89208">
        <ele>648.2</ele>
        <time>2020-12-26T13:22:18Z</time>
      </trkpt>
      <trkpt lat="46.99068" lon="5.89214">
        <ele>648.2</ele>
        <time>2020-12-26T13:22:19Z</time>
      </trkpt>
      <trkpt lat="46.99068" lon="5.8922">
        <ele>648.4</ele>
        <time>2020-12-26T13:22:20Z</time>
      </trkpt>
      <trkpt lat="46.99069" lon="5.89226">
        <ele>648.6</ele>
        <time>2020-12-26T13:22:21Z</time>
      </trkpt>
      <trkpt lat="46.99069" lon="5.89231">
        <ele>648.6</ele>
        <time>2020-12-26T13:22:22Z</time>
      </trkpt>
      <trkpt lat="46.99069" lon="5.89237">
        <ele>648.6</ele>
        <time>2020-12-26T13:22:23Z</time>
      </trkpt>
      <trkpt lat="46.99069" lon="5.89243">
        <ele>649</ele>
        <time>2020-12-26T13:22:24Z</time>
      </trkpt>
      <trkpt lat="46.99069" lon="5.89248">
        <ele>649.2</ele>
        <time>2020-12-26T13:22:25Z</time>
      </trkpt>
      <trkpt lat="46.9907" lon="5.89254">
        <ele>649.2</ele>
        <time>2020-12-26T13:22:26Z</time>
      </trkpt>
      <trkpt lat="46.9907" lon="5.89259">
        <ele>649.6</ele>
        <time>2020-12-26T13:22:27Z</time>
      </trkpt>
      <trkpt lat="46.9907" lon="5.89265">
        <ele>649.6</ele>
        <time>2020-12-26T13:22:28Z</time>
      </trkpt>
      <trkpt lat="46.99071" lon="5.89271">
        <ele>650</ele>
        <time>2020-12-26T13:22:29Z</time>
      </trkpt>
      <trkpt lat="46.99071" lon="5.89276">
        <ele>650</ele>
        <time>2020-12-26T13:22:30Z</time>
      </trkpt>
      <trkpt lat="46.99071" lon="5.89282">
        <ele>650.2</ele>
        <time>2020-12-26T13:22:31Z</time>
      </trkpt>
      <trkpt lat="46.99072" lon="5.89288">
        <ele>650.2</ele>
        <time>2020-12-26T13:22:32Z</time>
      </trkpt>
      <trkpt lat="46.99072" lon="5.89293">
        <ele>650.6</ele>
        <time>2020-12-26T13:22:33Z</time>
      </trkpt>
      <trkpt lat="46.99073" lon="5.89299">
        <ele>650.6</ele>
        <time>2020-12-26T13:22:34Z</time>
      </trkpt>
      <trkpt lat="46.99073" lon="5.89304">
        <ele>651</ele>
        <time>2020-12-26T13:22:35Z</time>
      </trkpt>
      <trkpt lat="46.99073" lon="5.8931">
        <ele>651.2</ele>
        <time>2020-12-26T13:22:36Z</time>
      </trkpt>
      <trkpt lat="46.99073" lon="5.89315">
        <ele>651.4</ele>
        <time>2020-12-26T13:22:37Z</time>
      </trkpt>
      <trkpt lat="46.99073" lon="5.8932">
        <ele>651.4</ele>
        <time>2020-12-26T13:22:38Z</time>
      </trkpt>
      <trkpt lat="46.99074" lon="5.89326">
        <ele>651.8</ele>
        <time>2020-12-26T13:22:39Z</time>
      </trkpt>
      <trkpt lat="46.99074" lon="5.89331">
        <ele>652</ele>
        <time>2020-12-26T13:22:40Z</time>
      </trkpt>
      <trkpt lat="46.99074" lon="5.89336">
        <ele>652.2</ele>
        <time>2020-12-26T13:22:41Z</time>
      </trkpt>
      <trkpt lat="46.99074" lon="5.89342">
        <ele>652.4</ele>
        <time>2020-12-26T13:22:42Z</time>
      </trkpt>
      <trkpt lat="46.99074" lon="5.89347">
        <ele>652.4</ele>
        <time>2020-12-26T13:22:43Z</time>
      </trkpt>
      <trkpt lat="46.99074" lon="5.89352">
        <ele>652.8</ele>
        <time>2020-12-26T13:22:44Z</time>
      </trkpt>
      <trkpt lat="46.99074" lon="5.89357">
        <ele>652.8</ele>
        <time>2020-12-26T13:22:45Z</time>
      </trkpt>
      <trkpt lat="46.99074" lon="5.89362">
        <ele>653</ele>
        <time>2020-12-26T13:22:46Z</time>
      </trkpt>
      <trkpt lat="46.99073" lon="5.89367">
        <ele>653</ele>
        <time>2020-12-26T13:22:47Z</time>
      </trkpt>
      <trkpt lat="46.99073" lon="5.89372">
        <ele>653.6</ele>
        <time>2020-12-26T13:22:48Z</time>
      </trkpt>
      <trkpt lat="46.99073" lon="5.89377">
        <ele>653.8</ele>
        <time>2020-12-26T13:22:49Z</time>
      </trkpt>
      <trkpt lat="46.99072" lon="5.89382">
        <ele>654.2</ele>
        <time>2020-12-26T13:22:50Z</time>
      </trkpt>
      <trkpt lat="46.99072" lon="5.89386">
        <ele>654.4</ele>
        <time>2020-12-26T13:22:51Z</time>
      </trkpt>
      <trkpt lat="46.99072" lon="5.89391">
        <ele>654.6</ele>
        <time>2020-12-26T13:22:52Z</time>
      </trkpt>
      <trkpt lat="46.99072" lon="5.89396">
        <ele>654.6</ele>
        <time>2020-12-26T13:22:53Z</time>
      </trkpt>
      <trkpt lat="46.99072" lon="5.89401">
        <ele>654.8</ele>
        <time>2020-12-26T13:22:54Z</time>
      </trkpt>
      <trkpt lat="46.99072" lon="5.89407">
        <ele>655.2</ele>
        <time>2020-12-26T13:22:55Z</time>
      </trkpt>
      <trkpt lat="46.99072" lon="5.89412">
        <ele>655.4</ele>
        <time>2020-12-26T13:22:56Z</time>
      </trkpt>
      <trkpt lat="46.99072" lon="5.89417">
        <ele>655.6</ele>
        <time>2020-12-26T13:22:57Z</time>
      </trkpt>
      <trkpt lat="46.99072" lon="5.89422">
        <ele>655.8</ele>
        <time>2020-12-26T13:22:58Z</time>
      </trkpt>
      <trkpt lat="46.99072" lon="5.89427">
        <ele>655.8</ele>
        <time>2020-12-26T13:22:59Z</time>
      </trkpt>
      <trkpt lat="46.99073" lon="5.89432">
        <ele>656.2</ele>
        <time>2020-12-26T13:23:00Z</time>
      </trkpt>
      <trkpt lat="46.99073" lon="5.89437">
        <ele>656.2</ele>
        <time>2020-12-26T13:23:01Z</time>
      </trkpt>
      <trkpt lat="46.99074" lon="5.89442">
        <ele>656.4</ele>
        <time>2020-12-26T13:23:02Z</time>
      </trkpt>
      <trkpt lat="46.99074" lon="5.89447">
        <ele>656.4</ele>
        <time>2020-12-26T13:23:03Z</time>
      </trkpt>
      <trkpt lat="46.99075" lon="5.89452">
        <ele>656.4</ele>
        <time>2020-12-26T13:23:04Z</time>
      </trkpt>
      <trkpt lat="46.99075" lon="5.89458">
        <ele>656.4</ele>
        <time>2020-12-26T13:23:05Z</time>
      </trkpt>
      <trkpt lat="46.99075" lon="5.89464">
        <ele>656.4</ele>
        <time>2020-12-26T13:23:06Z</time>
      </trkpt>
      <trkpt lat="46.99075" lon="5.8947">
        <ele>656.4</ele>
        <time>2020-12-26T13:23:07Z</time>
      </trkpt>
      <trkpt lat="46.99074" lon="5.89476">
        <ele>656.4</ele>
        <time>2020-12-26T13:23:08Z</time>
      </trkpt>
      <trkpt lat="46.99073" lon="5.89483">
        <ele>656.4</ele>
        <time>2020-12-26T13:23:09Z</time>
      </trkpt>
      <trkpt lat="46.99071" lon="5.89488">
        <ele>656</ele>
        <time>2020-12-26T13:23:10Z</time>
      </trkpt>
      <trkpt lat="46.99069" lon="5.89495">
        <ele>656</ele>
        <time>2020-12-26T13:23:11Z</time>
      </trkpt>
      <trkpt lat="46.99067" lon="5.89502">
        <ele>655.8</ele>
        <time>2020-12-26T13:23:12Z</time>
      </trkpt>
      <trkpt lat="46.99067" lon="5.8951">
        <ele>655.8</ele>
        <time>2020-12-26T13:23:13Z</time>
      </trkpt>
      <trkpt lat="46.99066" lon="5.89518">
        <ele>655.8</ele>
        <time>2020-12-26T13:23:14Z</time>
      </trkpt>
      <trkpt lat="46.99066" lon="5.89526">
        <ele>655.8</ele>
        <time>2020-12-26T13:23:15Z</time>
      </trkpt>
      <trkpt lat="46.99067" lon="5.89532">
        <ele>655.8</ele>
        <time>2020-12-26T13:23:16Z</time>
      </trkpt>
      <trkpt lat="46.99067" lon="5.89539">
        <ele>655.8</ele>
        <time>2020-12-26T13:23:17Z</time>
      </trkpt>
      <trkpt lat="46.99068" lon="5.89545">
        <ele>656</ele>
        <time>2020-12-26T13:23:18Z</time>
      </trkpt>
      <trkpt lat="46.99068" lon="5.89551">
        <ele>656.4</ele>
        <time>2020-12-26T13:23:19Z</time>
      </trkpt>
      <trkpt lat="46.99069" lon="5.89556">
        <ele>656.4</ele>
        <time>2020-12-26T13:23:20Z</time>
      </trkpt>
      <trkpt lat="46.99069" lon="5.8956">
        <ele>656.8</ele>
        <time>2020-12-26T13:23:21Z</time>
      </trkpt>
      <trkpt lat="46.99071" lon="5.89565">
        <ele>657</ele>
        <time>2020-12-26T13:23:22Z</time>
      </trkpt>
      <trkpt lat="46.99072" lon="5.89569">
        <ele>657</ele>
        <time>2020-12-26T13:23:23Z</time>
      </trkpt>
      <trkpt lat="46.99073" lon="5.89574">
        <ele>657.4</ele>
        <time>2020-12-26T13:23:24Z</time>
      </trkpt>
      <trkpt lat="46.99073" lon="5.89578">
        <ele>657.8</ele>
        <time>2020-12-26T13:23:25Z</time>
      </trkpt>
      <trkpt lat="46.99074" lon="5.89582">
        <ele>658</ele>
        <time>2020-12-26T13:23:26Z</time>
      </trkpt>
      <trkpt lat="46.99076" lon="5.89586">
        <ele>658.2</ele>
        <time>2020-12-26T13:23:27Z</time>
      </trkpt>
      <trkpt lat="46.99076" lon="5.89591">
        <ele>658.4</ele>
        <time>2020-12-26T13:23:28Z</time>
      </trkpt>
      <trkpt lat="46.99077" lon="5.89595">
        <ele>658.8</ele>
        <time>2020-12-26T13:23:29Z</time>
      </trkpt>
      <trkpt lat="46.99078" lon="5.896">
        <ele>659</ele>
        <time>2020-12-26T13:23:30Z</time>
      </trkpt>
      <trkpt lat="46.99078" lon="5.89604">
        <ele>659.4</ele>
        <time>2020-12-26T13:23:31Z</time>
      </trkpt>
      <trkpt lat="46.99079" lon="5.89608">
        <ele>659.8</ele>
        <time>2020-12-26T13:23:32Z</time>
      </trkpt>
      <trkpt lat="46.9908" lon="5.89612">
        <ele>660</ele>
        <time>2020-12-26T13:23:33Z</time>
      </trkpt>
      <trkpt lat="46.9908" lon="5.89616">
        <ele>660.2</ele>
        <time>2020-12-26T13:23:34Z</time>
      </trkpt>
      <trkpt lat="46.99081" lon="5.8962">
        <ele>660.4</ele>
        <time>2020-12-26T13:23:35Z</time>
      </trkpt>
      <trkpt lat="46.99082" lon="5.89624">
        <ele>660.8</ele>
        <time>2020-12-26T13:23:36Z</time>
      </trkpt>
      <trkpt lat="46.99082" lon="5.89628">
        <ele>661</ele>
        <time>2020-12-26T13:23:37Z</time>
      </trkpt>
      <trkpt lat="46.99083" lon="5.89632">
        <ele>661.2</ele>
        <time>2020-12-26T13:23:38Z</time>
      </trkpt>
      <trkpt lat="46.99083" lon="5.89636">
        <ele>661.6</ele>
        <time>2020-12-26T13:23:39Z</time>
      </trkpt>
      <trkpt lat="46.99083" lon="5.89641">
        <ele>661.8</ele>
        <time>2020-12-26T13:23:40Z</time>
      </trkpt>
      <trkpt lat="46.99083" lon="5.89645">
        <ele>662</ele>
        <time>2020-12-26T13:23:41Z</time>
      </trkpt>
      <trkpt lat="46.99084" lon="5.8965">
        <ele>662.2</ele>
        <time>2020-12-26T13:23:42Z</time>
      </trkpt>
      <trkpt lat="46.99084" lon="5.89654">
        <ele>662.4</ele>
        <time>2020-12-26T13:23:43Z</time>
      </trkpt>
      <trkpt lat="46.99085" lon="5.89659">
        <ele>662.4</ele>
        <time>2020-12-26T13:23:44Z</time>
      </trkpt>
      <trkpt lat="46.99085" lon="5.89663">
        <ele>662.8</ele>
        <time>2020-12-26T13:23:45Z</time>
      </trkpt>
      <trkpt lat="46.99086" lon="5.89668">
        <ele>662.8</ele>
        <time>2020-12-26T13:23:46Z</time>
      </trkpt>
      <trkpt lat="46.99086" lon="5.89673">
        <ele>662.8</ele>
        <time>2020-12-26T13:23:47Z</time>
      </trkpt>
      <trkpt lat="46.99086" lon="5.89678">
        <ele>663.2</ele>
        <time>2020-12-26T13:23:48Z</time>
      </trkpt>
      <trkpt lat="46.99087" lon="5.89682">
        <ele>663.2</ele>
        <time>2020-12-26T13:23:49Z</time>
      </trkpt>
      <trkpt lat="46.99087" lon="5.89687">
        <ele>663.6</ele>
        <time>2020-12-26T13:23:50Z</time>
      </trkpt>
      <trkpt lat="46.99087" lon="5.89692">
        <ele>663.6</ele>
        <time>2020-12-26T13:23:51Z</time>
      </trkpt>
      <trkpt lat="46.99087" lon="5.89696">
        <ele>663.6</ele>
        <time>2020-12-26T13:23:52Z</time>
      </trkpt>
      <trkpt lat="46.99086" lon="5.897">
        <ele>663.6</ele>
        <time>2020-12-26T13:23:53Z</time>
      </trkpt>
      <trkpt lat="46.99086" lon="5.89705">
        <ele>663.6</ele>
        <time>2020-12-26T13:23:54Z</time>
      </trkpt>
      <trkpt lat="46.99086" lon="5.89709">
        <ele>663.8</ele>
        <time>2020-12-26T13:23:55Z</time>
      </trkpt>
      <trkpt lat="46.99085" lon="5.89714">
        <ele>663.8</ele>
        <time>2020-12-26T13:23:56Z</time>
      </trkpt>
      <trkpt lat="46.99085" lon="5.89719">
        <ele>663.8</ele>
        <time>2020-12-26T13:23:57Z</time>
      </trkpt>
      <trkpt lat="46.99084" lon="5.89723">
        <ele>663.8</ele>
        <time>2020-12-26T13:23:58Z</time>
      </trkpt>
      <trkpt lat="46.99084" lon="5.89728">
        <ele>663.8</ele>
        <time>2020-12-26T13:23:59Z</time>
      </trkpt>
      <trkpt lat="46.99083" lon="5.89733">
        <ele>664</ele>
        <time>2020-12-26T13:24:00Z</time>
      </trkpt>
      <trkpt lat="46.99082" lon="5.89738">
        <ele>664</ele>
        <time>2020-12-26T13:24:01Z</time>
      </trkpt>
      <trkpt lat="46.99082" lon="5.89743">
        <ele>664</ele>
        <time>2020-12-26T13:24:02Z</time>
      </trkpt>
      <trkpt lat="46.99081" lon="5.89747">
        <ele>664</ele>
        <time>2020-12-26T13:24:03Z</time>
      </trkpt>
      <trkpt lat="46.99081" lon="5.89752">
        <ele>664</ele>
        <time>2020-12-26T13:24:04Z</time>
      </trkpt>
      <trkpt lat="46.99081" lon="5.89756">
        <ele>664.4</ele>
        <time>2020-12-26T13:24:05Z</time>
      </trkpt>
      <trkpt lat="46.99081" lon="5.89761">
        <ele>664.4</ele>
        <time>2020-12-26T13:24:06Z</time>
      </trkpt>
      <trkpt lat="46.9908" lon="5.89766">
        <ele>664.6</ele>
        <time>2020-12-26T13:24:07Z</time>
      </trkpt>
      <trkpt lat="46.9908" lon="5.89771">
        <ele>664.6</ele>
        <time>2020-12-26T13:24:08Z</time>
      </trkpt>
      <trkpt lat="46.99079" lon="5.89776">
        <ele>664.8</ele>
        <time>2020-12-26T13:24:09Z</time>
      </trkpt>
      <trkpt lat="46.99079" lon="5.89781">
        <ele>664.8</ele>
        <time>2020-12-26T13:24:10Z</time>
      </trkpt>
      <trkpt lat="46.99079" lon="5.89785">
        <ele>665</ele>
        <time>2020-12-26T13:24:11Z</time>
      </trkpt>
      <trkpt lat="46.99078" lon="5.89789">
        <ele>665.4</ele>
        <time>2020-12-26T13:24:12Z</time>
      </trkpt>
      <trkpt lat="46.99078" lon="5.89793">
        <ele>665.6</ele>
        <time>2020-12-26T13:24:13Z</time>
      </trkpt>
      <trkpt lat="46.99077" lon="5.89798">
        <ele>665.8</ele>
        <time>2020-12-26T13:24:14Z</time>
      </trkpt>
      <trkpt lat="46.99078" lon="5.89802">
        <ele>665.8</ele>
        <time>2020-12-26T13:24:15Z</time>
      </trkpt>
      <trkpt lat="46.99077" lon="5.89807">
        <ele>666.2</ele>
        <time>2020-12-26T13:24:16Z</time>
      </trkpt>
      <trkpt lat="46.99077" lon="5.89812">
        <ele>666.4</ele>
        <time>2020-12-26T13:24:17Z</time>
      </trkpt>
      <trkpt lat="46.99077" lon="5.89816">
        <ele>666.4</ele>
        <time>2020-12-26T13:24:18Z</time>
      </trkpt>
      <trkpt lat="46.99076" lon="5.8982">
        <ele>667</ele>
        <time>2020-12-26T13:24:19Z</time>
      </trkpt>
      <trkpt lat="46.99075" lon="5.89825">
        <ele>667</ele>
        <time>2020-12-26T13:24:20Z</time>
      </trkpt>
      <trkpt lat="46.99074" lon="5.8983">
        <ele>667.2</ele>
        <time>2020-12-26T13:24:21Z</time>
      </trkpt>
      <trkpt lat="46.99074" lon="5.89834">
        <ele>667.2</ele>
        <time>2020-12-26T13:24:22Z</time>
      </trkpt>
      <trkpt lat="46.99073" lon="5.89839">
        <ele>667.2</ele>
        <time>2020-12-26T13:24:23Z</time>
      </trkpt>
      <trkpt lat="46.99073" lon="5.89843">
        <ele>667.6</ele>
        <time>2020-12-26T13:24:24Z</time>
      </trkpt>
      <trkpt lat="46.99072" lon="5.89848">
        <ele>667.6</ele>
        <time>2020-12-26T13:24:25Z</time>
      </trkpt>
      <trkpt lat="46.99071" lon="5.89853">
        <ele>668</ele>
        <time>2020-12-26T13:24:26Z</time>
      </trkpt>
      <trkpt lat="46.9907" lon="5.89858">
        <ele>668</ele>
        <time>2020-12-26T13:24:27Z</time>
      </trkpt>
      <trkpt lat="46.99069" lon="5.89863">
        <ele>668.2</ele>
        <time>2020-12-26T13:24:28Z</time>
      </trkpt>
      <trkpt lat="46.99068" lon="5.89868">
        <ele>668.2</ele>
        <time>2020-12-26T13:24:29Z</time>
      </trkpt>
      <trkpt lat="46.99067" lon="5.89873">
        <ele>668.2</ele>
        <time>2020-12-26T13:24:30Z</time>
      </trkpt>
      <trkpt lat="46.99066" lon="5.89878">
        <ele>668.2</ele>
        <time>2020-12-26T13:24:31Z</time>
      </trkpt>
      <trkpt lat="46.99064" lon="5.89883">
        <ele>668.2</ele>
        <time>2020-12-26T13:24:32Z</time>
      </trkpt>
      <trkpt lat="46.99063" lon="5.89888">
        <ele>668.2</ele>
        <time>2020-12-26T13:24:33Z</time>
      </trkpt>
      <trkpt lat="46.99061" lon="5.89894">
        <ele>668.4</ele>
        <time>2020-12-26T13:24:34Z</time>
      </trkpt>
      <trkpt lat="46.9906" lon="5.89899">
        <ele>668.4</ele>
        <time>2020-12-26T13:24:35Z</time>
      </trkpt>
      <trkpt lat="46.99059" lon="5.89903">
        <ele>668.6</ele>
        <time>2020-12-26T13:24:36Z</time>
      </trkpt>
      <trkpt lat="46.99058" lon="5.89908">
        <ele>668.6</ele>
        <time>2020-12-26T13:24:37Z</time>
      </trkpt>
      <trkpt lat="46.99057" lon="5.89912">
        <ele>669</ele>
        <time>2020-12-26T13:24:38Z</time>
      </trkpt>
      <trkpt lat="46.99055" lon="5.89916">
        <ele>669</ele>
        <time>2020-12-26T13:24:39Z</time>
      </trkpt>
      <trkpt lat="46.99054" lon="5.89921">
        <ele>669.2</ele>
        <time>2020-12-26T13:24:40Z</time>
      </trkpt>
      <trkpt lat="46.99054" lon="5.89924">
        <ele>669.2</ele>
        <time>2020-12-26T13:24:41Z</time>
      </trkpt>
      <trkpt lat="46.99053" lon="5.89928">
        <ele>669.6</ele>
        <time>2020-12-26T13:24:42Z</time>
      </trkpt>
      <trkpt lat="46.99053" lon="5.89932">
        <ele>670</ele>
        <time>2020-12-26T13:24:43Z</time>
      </trkpt>
      <trkpt lat="46.99054" lon="5.89935">
        <ele>670.2</ele>
        <time>2020-12-26T13:24:44Z</time>
      </trkpt>
      <trkpt lat="46.99055" lon="5.89938">
        <ele>670.6</ele>
        <time>2020-12-26T13:24:45Z</time>
      </trkpt>
      <trkpt lat="46.99057" lon="5.8994">
        <ele>671</ele>
        <time>2020-12-26T13:24:46Z</time>
      </trkpt>
      <trkpt lat="46.99058" lon="5.89941">
        <ele>671.2</ele>
        <time>2020-12-26T13:24:47Z</time>
      </trkpt>
      <trkpt lat="46.9906" lon="5.89943">
        <ele>671.6</ele>
        <time>2020-12-26T13:24:48Z</time>
      </trkpt>
      <trkpt lat="46.99062" lon="5.89943">
        <ele>671.8</ele>
        <time>2020-12-26T13:24:49Z</time>
      </trkpt>
      <trkpt lat="46.99065" lon="5.89943">
        <ele>672.2</ele>
        <time>2020-12-26T13:24:50Z</time>
      </trkpt>
      <trkpt lat="46.99067" lon="5.89942">
        <ele>672.4</ele>
        <time>2020-12-26T13:24:51Z</time>
      </trkpt>
      <trkpt lat="46.99069" lon="5.8994">
        <ele>672.6</ele>
        <time>2020-12-26T13:24:52Z</time>
      </trkpt>
      <trkpt lat="46.99071" lon="5.89938">
        <ele>672.6</ele>
        <time>2020-12-26T13:24:53Z</time>
      </trkpt>
      <trkpt lat="46.99073" lon="5.89936">
        <ele>673</ele>
        <time>2020-12-26T13:24:54Z</time>
      </trkpt>
      <trkpt lat="46.99074" lon="5.89933">
        <ele>673.2</ele>
        <time>2020-12-26T13:24:55Z</time>
      </trkpt>
      <trkpt lat="46.99076" lon="5.8993">
        <ele>673.4</ele>
        <time>2020-12-26T13:24:56Z</time>
      </trkpt>
      <trkpt lat="46.99077" lon="5.89927">
        <ele>673.6</ele>
        <time>2020-12-26T13:24:57Z</time>
      </trkpt>
      <trkpt lat="46.99078" lon="5.89924">
        <ele>673.6</ele>
        <time>2020-12-26T13:24:58Z</time>
      </trkpt>
      <trkpt lat="46.9908" lon="5.89921">
        <ele>673.8</ele>
        <time>2020-12-26T13:24:59Z</time>
      </trkpt>
      <trkpt lat="46.99081" lon="5.89917">
        <ele>673.8</ele>
        <time>2020-12-26T13:25:00Z</time>
      </trkpt>
      <trkpt lat="46.99082" lon="5.89913">
        <ele>674.2</ele>
        <time>2020-12-26T13:25:01Z</time>
      </trkpt>
      <trkpt lat="46.99083" lon="5.89909">
        <ele>674.2</ele>
        <time>2020-12-26T13:25:02Z</time>
      </trkpt>
      <trkpt lat="46.99084" lon="5.89905">
        <ele>674.6</ele>
        <time>2020-12-26T13:25:03Z</time>
      </trkpt>
      <trkpt lat="46.99085" lon="5.89901">
        <ele>674.6</ele>
        <time>2020-12-26T13:25:04Z</time>
      </trkpt>
      <trkpt lat="46.99086" lon="5.89897">
        <ele>674.8</ele>
        <time>2020-12-26T13:25:05Z</time>
      </trkpt>
      <trkpt lat="46.99087" lon="5.89893">
        <ele>674.8</ele>
        <time>2020-12-26T13:25:06Z</time>
      </trkpt>
      <trkpt lat="46.99088" lon="5.89889">
        <ele>675</ele>
        <time>2020-12-26T13:25:07Z</time>
      </trkpt>
      <trkpt lat="46.99088" lon="5.89885">
        <ele>675</ele>
        <time>2020-12-26T13:25:08Z</time>
      </trkpt>
      <trkpt lat="46.99089" lon="5.89882">
        <ele>675.4</ele>
        <time>2020-12-26T13:25:09Z</time>
      </trkpt>
      <trkpt lat="46.9909" lon="5.89878">
        <ele>675.6</ele>
        <time>2020-12-26T13:25:10Z</time>
      </trkpt>
      <trkpt lat="46.99091" lon="5.89874">
        <ele>675.6</ele>
        <time>2020-12-26T13:25:11Z</time>
      </trkpt>
      <trkpt lat="46.99092" lon="5.8987">
        <ele>675.8</ele>
        <time>2020-12-26T13:25:12Z</time>
      </trkpt>
      <trkpt lat="46.99093" lon="5.89866">
        <ele>675.8</ele>
        <time>2020-12-26T13:25:13Z</time>
      </trkpt>
      <trkpt lat="46.99094" lon="5.89862">
        <ele>675.8</ele>
        <time>2020-12-26T13:25:14Z</time>
      </trkpt>
      <trkpt lat="46.99095" lon="5.89858">
        <ele>675.8</ele>
        <time>2020-12-26T13:25:15Z</time>
      </trkpt>
      <trkpt lat="46.99096" lon="5.89854">
        <ele>676.2</ele>
        <time>2020-12-26T13:25:16Z</time>
      </trkpt>
      <trkpt lat="46.99097" lon="5.8985">
        <ele>676.2</ele>
        <time>2020-12-26T13:25:17Z</time>
      </trkpt>
      <trkpt lat="46.99098" lon="5.89846">
        <ele>676.6</ele>
        <time>2020-12-26T13:25:18Z</time>
      </trkpt>
      <trkpt lat="46.99099" lon="5.89843">
        <ele>676.6</ele>
        <time>2020-12-26T13:25:19Z</time>
      </trkpt>
      <trkpt lat="46.99101" lon="5.89839">
        <ele>676.8</ele>
        <time>2020-12-26T13:25:20Z</time>
      </trkpt>
      <trkpt lat="46.99102" lon="5.89836">
        <ele>676.8</ele>
        <time>2020-12-26T13:25:21Z</time>
      </trkpt>
      <trkpt lat="46.99103" lon="5.89832">
        <ele>677</ele>
        <time>2020-12-26T13:25:22Z</time>
      </trkpt>
      <trkpt lat="46.99104" lon="5.89828">
        <ele>677</ele>
        <time>2020-12-26T13:25:23Z</time>
      </trkpt>
      <trkpt lat="46.99105" lon="5.89824">
        <ele>677.4</ele>
        <time>2020-12-26T13:25:24Z</time>
      </trkpt>
      <trkpt lat="46.99107" lon="5.8982">
        <ele>677.6</ele>
        <time>2020-12-26T13:25:25Z</time>
      </trkpt>
      <trkpt lat="46.99108" lon="5.89816">
        <ele>677.6</ele>
        <time>2020-12-26T13:25:26Z</time>
      </trkpt>
      <trkpt lat="46.9911" lon="5.89813">
        <ele>677.8</ele>
        <time>2020-12-26T13:25:27Z</time>
      </trkpt>
      <trkpt lat="46.99111" lon="5.89809">
        <ele>678</ele>
        <time>2020-12-26T13:25:28Z</time>
      </trkpt>
      <trkpt lat="46.99112" lon="5.89805">
        <ele>678</ele>
        <time>2020-12-26T13:25:29Z</time>
      </trkpt>
      <trkpt lat="46.99114" lon="5.89802">
        <ele>678.4</ele>
        <time>2020-12-26T13:25:30Z</time>
      </trkpt>
      <trkpt lat="46.99116" lon="5.89798">
        <ele>678.6</ele>
        <time>2020-12-26T13:25:31Z</time>
      </trkpt>
      <trkpt lat="46.99117" lon="5.89795">
        <ele>678.8</ele>
        <time>2020-12-26T13:25:32Z</time>
      </trkpt>
      <trkpt lat="46.99119" lon="5.89791">
        <ele>679.2</ele>
        <time>2020-12-26T13:25:33Z</time>
      </trkpt>
      <trkpt lat="46.99121" lon="5.89788">
        <ele>679.4</ele>
        <time>2020-12-26T13:25:34Z</time>
      </trkpt>
      <trkpt lat="46.99123" lon="5.89784">
        <ele>679.6</ele>
        <time>2020-12-26T13:25:35Z</time>
      </trkpt>
      <trkpt lat="46.99124" lon="5.89781">
        <ele>679.8</ele>
        <time>2020-12-26T13:25:36Z</time>
      </trkpt>
      <trkpt lat="46.99126" lon="5.89778">
        <ele>680</ele>
        <time>2020-12-26T13:25:37Z</time>
      </trkpt>
      <trkpt lat="46.99127" lon="5.89774">
        <ele>680.4</ele>
        <time>2020-12-26T13:25:38Z</time>
      </trkpt>
      <trkpt lat="46.99129" lon="5.89771">
        <ele>680.6</ele>
        <time>2020-12-26T13:25:39Z</time>
      </trkpt>
      <trkpt lat="46.9913" lon="5.89768">
        <ele>680.6</ele>
        <time>2020-12-26T13:25:40Z</time>
      </trkpt>
      <trkpt lat="46.99132" lon="5.89765">
        <ele>680.8</ele>
        <time>2020-12-26T13:25:41Z</time>
      </trkpt>
      <trkpt lat="46.99133" lon="5.89762">
        <ele>680.8</ele>
        <time>2020-12-26T13:25:42Z</time>
      </trkpt>
      <trkpt lat="46.99135" lon="5.89758">
        <ele>681.2</ele>
        <time>2020-12-26T13:25:43Z</time>
      </trkpt>
      <trkpt lat="46.99137" lon="5.89755">
        <ele>681.2</ele>
        <time>2020-12-26T13:25:44Z</time>
      </trkpt>
      <trkpt lat="46.99139" lon="5.89751">
        <ele>681.4</ele>
        <time>2020-12-26T13:25:45Z</time>
      </trkpt>
      <trkpt lat="46.99141" lon="5.89749">
        <ele>681.8</ele>
        <time>2020-12-26T13:25:46Z</time>
      </trkpt>
      <trkpt lat="46.99142" lon="5.89745">
        <ele>682</ele>
        <time>2020-12-26T13:25:47Z</time>
      </trkpt>
      <trkpt lat="46.99144" lon="5.89742">
        <ele>682.2</ele>
        <time>2020-12-26T13:25:48Z</time>
      </trkpt>
      <trkpt lat="46.99145" lon="5.89739">
        <ele>682.2</ele>
        <time>2020-12-26T13:25:49Z</time>
      </trkpt>
      <trkpt lat="46.99146" lon="5.89736">
        <ele>682.6</ele>
        <time>2020-12-26T13:25:50Z</time>
      </trkpt>
      <trkpt lat="46.99148" lon="5.89732">
        <ele>682.8</ele>
        <time>2020-12-26T13:25:51Z</time>
      </trkpt>
      <trkpt lat="46.9915" lon="5.89729">
        <ele>682.8</ele>
        <time>2020-12-26T13:25:52Z</time>
      </trkpt>
      <trkpt lat="46.99152" lon="5.89726">
        <ele>683.2</ele>
        <time>2020-12-26T13:25:53Z</time>
      </trkpt>
      <trkpt lat="46.99153" lon="5.89723">
        <ele>683.4</ele>
        <time>2020-12-26T13:25:54Z</time>
      </trkpt>
      <trkpt lat="46.99155" lon="5.8972">
        <ele>683.4</ele>
        <time>2020-12-26T13:25:55Z</time>
      </trkpt>
      <trkpt lat="46.99157" lon="5.89717">
        <ele>683.8</ele>
        <time>2020-12-26T13:25:56Z</time>
      </trkpt>
      <trkpt lat="46.99158" lon="5.89714">
        <ele>684.2</ele>
        <time>2020-12-26T13:25:57Z</time>
      </trkpt>
      <trkpt lat="46.9916" lon="5.8971">
        <ele>684.4</ele>
        <time>2020-12-26T13:25:58Z</time>
      </trkpt>
      <trkpt lat="46.99161" lon="5.89707">
        <ele>684.6</ele>
        <time>2020-12-26T13:25:59Z</time>
      </trkpt>
      <trkpt lat="46.99162" lon="5.89704">
        <ele>684.8</ele>
        <time>2020-12-26T13:26:00Z</time>
      </trkpt>
      <trkpt lat="46.99164" lon="5.897">
        <ele>685</ele>
        <time>2020-12-26T13:26:01Z</time>
      </trkpt>
      <trkpt lat="46.99165" lon="5.89697">
        <ele>685</ele>
        <time>2020-12-26T13:26:02Z</time>
      </trkpt>
      <trkpt lat="46.99166" lon="5.89694">
        <ele>685.6</ele>
        <time>2020-12-26T13:26:03Z</time>
      </trkpt>
      <trkpt lat="46.99168" lon="5.89692">
        <ele>685.8</ele>
        <time>2020-12-26T13:26:04Z</time>
      </trkpt>
      <trkpt lat="46.99168" lon="5.89689">
        <ele>685.8</ele>
        <time>2020-12-26T13:26:05Z</time>
      </trkpt>
      <trkpt lat="46.99168" lon="5.89686">
        <ele>686</ele>
        <time>2020-12-26T13:26:06Z</time>
      </trkpt>
      <trkpt lat="46.99169" lon="5.89683">
        <ele>686</ele>
        <time>2020-12-26T13:26:07Z</time>
      </trkpt>
      <trkpt lat="46.9917" lon="5.89679">
        <ele>686.4</ele>
        <time>2020-12-26T13:26:08Z</time>
      </trkpt>
      <trkpt lat="46.99172" lon="5.89676">
        <ele>686.4</ele>
        <time>2020-12-26T13:26:09Z</time>
      </trkpt>
      <trkpt lat="46.99173" lon="5.89673">
        <ele>686.8</ele>
        <time>2020-12-26T13:26:10Z</time>
      </trkpt>
      <trkpt lat="46.99174" lon="5.8967">
        <ele>686.8</ele>
        <time>2020-12-26T13:26:11Z</time>
      </trkpt>
      <trkpt lat="46.99175" lon="5.89667">
        <ele>687</ele>
        <time>2020-12-26T13:26:12Z</time>
      </trkpt>
      <trkpt lat="46.99176" lon="5.89663">
        <ele>687.2</ele>
        <time>2020-12-26T13:26:13Z</time>
      </trkpt>
      <trkpt lat="46.99177" lon="5.8966">
        <ele>687.4</ele>
        <time>2020-12-26T13:26:14Z</time>
      </trkpt>
      <trkpt lat="46.99178" lon="5.89656">
        <ele>687.4</ele>
        <time>2020-12-26T13:26:15Z</time>
      </trkpt>
      <trkpt lat="46.9918" lon="5.89653">
        <ele>687.8</ele>
        <time>2020-12-26T13:26:16Z</time>
      </trkpt>
      <trkpt lat="46.99181" lon="5.8965">
        <ele>688</ele>
        <time>2020-12-26T13:26:17Z</time>
      </trkpt>
      <trkpt lat="46.99182" lon="5.89646">
        <ele>688.4</ele>
        <time>2020-12-26T13:26:18Z</time>
      </trkpt>
      <trkpt lat="46.99183" lon="5.89642">
        <ele>688.4</ele>
        <time>2020-12-26T13:26:19Z</time>
      </trkpt>
      <trkpt lat="46.99184" lon="5.89639">
        <ele>688.8</ele>
        <time>2020-12-26T13:26:20Z</time>
      </trkpt>
      <trkpt lat="46.99185" lon="5.89635">
        <ele>688.8</ele>
        <time>2020-12-26T13:26:21Z</time>
      </trkpt>
      <trkpt lat="46.99186" lon="5.89632">
        <ele>689</ele>
        <time>2020-12-26T13:26:22Z</time>
      </trkpt>
      <trkpt lat="46.99187" lon="5.89628">
        <ele>689</ele>
        <time>2020-12-26T13:26:23Z</time>
      </trkpt>
      <trkpt lat="46.99188" lon="5.89624">
        <ele>689</ele>
        <time>2020-12-26T13:26:24Z</time>
      </trkpt>
      <trkpt lat="46.99189" lon="5.89621">
        <ele>689.4</ele>
        <time>2020-12-26T13:26:25Z</time>
      </trkpt>
      <trkpt lat="46.99189" lon="5.89617">
        <ele>689.6</ele>
        <time>2020-12-26T13:26:26Z</time>
      </trkpt>
      <trkpt lat="46.9919" lon="5.89613">
        <ele>690</ele>
        <time>2020-12-26T13:26:27Z</time>
      </trkpt>
      <trkpt lat="46.99191" lon="5.89609">
        <ele>690</ele>
        <time>2020-12-26T13:26:28Z</time>
      </trkpt>
      <trkpt lat="46.99191" lon="5.89605">
        <ele>690.2</ele>
        <time>2020-12-26T13:26:29Z</time>
      </trkpt>
      <trkpt lat="46.99192" lon="5.89601">
        <ele>690.4</ele>
        <time>2020-12-26T13:26:30Z</time>
      </trkpt>
      <trkpt lat="46.99192" lon="5.89597">
        <ele>690.6</ele>
        <time>2020-12-26T13:26:31Z</time>
      </trkpt>
      <trkpt lat="46.99192" lon="5.89592">
        <ele>690.6</ele>
        <time>2020-12-26T13:26:32Z</time>
      </trkpt>
      <trkpt lat="46.99193" lon="5.89589">
        <ele>691</ele>
        <time>2020-12-26T13:26:33Z</time>
      </trkpt>
      <trkpt lat="46.99193" lon="5.89585">
        <ele>691</ele>
        <time>2020-12-26T13:26:34Z</time>
      </trkpt>
      <trkpt lat="46.99194" lon="5.89581">
        <ele>691.2</ele>
        <time>2020-12-26T13:26:35Z</time>
      </trkpt>
      <trkpt lat="46.99194" lon="5.89577">
        <ele>691.4</ele>
        <time>2020-12-26T13:26:36Z</time>
      </trkpt>
      <trkpt lat="46.99194" lon="5.89573">
        <ele>691.4</ele>
        <time>2020-12-26T13:26:37Z</time>
      </trkpt>
      <trkpt lat="46.99194" lon="5.8957">
        <ele>691.8</ele>
        <time>2020-12-26T13:26:38Z</time>
      </trkpt>
      <trkpt lat="46.99195" lon="5.89566">
        <ele>691.8</ele>
        <time>2020-12-26T13:26:39Z</time>
      </trkpt>
      <trkpt lat="46.99195" lon="5.89562">
        <ele>692.2</ele>
        <time>2020-12-26T13:26:40Z</time>
      </trkpt>
      <trkpt lat="46.99195" lon="5.89558">
        <ele>692.2</ele>
        <time>2020-12-26T13:26:41Z</time>
      </trkpt>
      <trkpt lat="46.99195" lon="5.89554">
        <ele>692.6</ele>
        <time>2020-12-26T13:26:42Z</time>
      </trkpt>
      <trkpt lat="46.99195" lon="5.8955">
        <ele>692.6</ele>
        <time>2020-12-26T13:26:43Z</time>
      </trkpt>
      <trkpt lat="46.99195" lon="5.89546">
        <ele>693</ele>
        <time>2020-12-26T13:26:44Z</time>
      </trkpt>
      <trkpt lat="46.99195" lon="5.89542">
        <ele>693.2</ele>
        <time>2020-12-26T13:26:45Z</time>
      </trkpt>
      <trkpt lat="46.99195" lon="5.89538">
        <ele>693.2</ele>
        <time>2020-12-26T13:26:46Z</time>
      </trkpt>
      <trkpt lat="46.99194" lon="5.89534">
        <ele>693.4</ele>
        <time>2020-12-26T13:26:47Z</time>
      </trkpt>
      <trkpt lat="46.99194" lon="5.8953">
        <ele>693.4</ele>
        <time>2020-12-26T13:26:48Z</time>
      </trkpt>
      <trkpt lat="46.99194" lon="5.89526">
        <ele>693.8</ele>
        <time>2020-12-26T13:26:49Z</time>
      </trkpt>
      <trkpt lat="46.99195" lon="5.89522">
        <ele>693.8</ele>
        <time>2020-12-26T13:26:50Z</time>
      </trkpt>
      <trkpt lat="46.99195" lon="5.89518">
        <ele>694</ele>
        <time>2020-12-26T13:26:51Z</time>
      </trkpt>
      <trkpt lat="46.99195" lon="5.89513">
        <ele>694</ele>
        <time>2020-12-26T13:26:52Z</time>
      </trkpt>
      <trkpt lat="46.99195" lon="5.89509">
        <ele>694.4</ele>
        <time>2020-12-26T13:26:53Z</time>
      </trkpt>
      <trkpt lat="46.99195" lon="5.89504">
        <ele>694.4</ele>
        <time>2020-12-26T13:26:54Z</time>
      </trkpt>
      <trkpt lat="46.99195" lon="5.895">
        <ele>694.4</ele>
        <time>2020-12-26T13:26:55Z</time>
      </trkpt>
      <trkpt lat="46.99196" lon="5.89495">
        <ele>694.6</ele>
        <time>2020-12-26T13:26:56Z</time>
      </trkpt>
      <trkpt lat="46.99196" lon="5.89491">
        <ele>694.6</ele>
        <time>2020-12-26T13:26:57Z</time>
      </trkpt>
      <trkpt lat="46.99196" lon="5.89487">
        <ele>694.8</ele>
        <time>2020-12-26T13:26:58Z</time>
      </trkpt>
      <trkpt lat="46.99196" lon="5.89482">
        <ele>694.8</ele>
        <time>2020-12-26T13:26:59Z</time>
      </trkpt>
      <trkpt lat="46.99196" lon="5.89477">
        <ele>695</ele>
        <time>2020-12-26T13:27:00Z</time>
      </trkpt>
      <trkpt lat="46.99197" lon="5.89473">
        <ele>695</ele>
        <time>2020-12-26T13:27:01Z</time>
      </trkpt>
      <trkpt lat="46.99197" lon="5.89468">
        <ele>695.2</ele>
        <time>2020-12-26T13:27:02Z</time>
      </trkpt>
      <trkpt lat="46.99197" lon="5.89463">
        <ele>695.2</ele>
        <time>2020-12-26T13:27:03Z</time>
      </trkpt>
      <trkpt lat="46.99197" lon="5.89458">
        <ele>695.6</ele>
        <time>2020-12-26T13:27:04Z</time>
      </trkpt>
      <trkpt lat="46.99197" lon="5.89453">
        <ele>695.6</ele>
        <time>2020-12-26T13:27:05Z</time>
      </trkpt>
      <trkpt lat="46.99197" lon="5.89448">
        <ele>695.8</ele>
        <time>2020-12-26T13:27:06Z</time>
      </trkpt>
      <trkpt lat="46.99196" lon="5.89443">
        <ele>696</ele>
        <time>2020-12-26T13:27:07Z</time>
      </trkpt>
      <trkpt lat="46.99196" lon="5.89439">
        <ele>696</ele>
        <time>2020-12-26T13:27:08Z</time>
      </trkpt>
      <trkpt lat="46.99196" lon="5.89434">
        <ele>696.4</ele>
        <time>2020-12-26T13:27:09Z</time>
      </trkpt>
      <trkpt lat="46.99196" lon="5.8943">
        <ele>696.6</ele>
        <time>2020-12-26T13:27:10Z</time>
      </trkpt>
      <trkpt lat="46.99195" lon="5.89425">
        <ele>696.8</ele>
        <time>2020-12-26T13:27:11Z</time>
      </trkpt>
      <trkpt lat="46.99195" lon="5.89421">
        <ele>696.8</ele>
        <time>2020-12-26T13:27:12Z</time>
      </trkpt>
      <trkpt lat="46.99195" lon="5.89417">
        <ele>697.2</ele>
        <time>2020-12-26T13:27:13Z</time>
      </trkpt>
      <trkpt lat="46.99195" lon="5.89413">
        <ele>697.4</ele>
        <time>2020-12-26T13:27:14Z</time>
      </trkpt>
      <trkpt lat="46.99196" lon="5.89409">
        <ele>697.4</ele>
        <time>2020-12-26T13:27:15Z</time>
      </trkpt>
      <trkpt lat="46.99197" lon="5.89405">
        <ele>697.8</ele>
        <time>2020-12-26T13:27:16Z</time>
      </trkpt>
      <trkpt lat="46.99199" lon="5.89402">
        <ele>697.8</ele>
        <time>2020-12-26T13:27:17Z</time>
      </trkpt>
      <trkpt lat="46.99201" lon="5.894">
        <ele>698.2</ele>
        <time>2020-12-26T13:27:18Z</time>
      </trkpt>
      <trkpt lat="46.99203" lon="5.89399">
        <ele>698.4</ele>
        <time>2020-12-26T13:27:19Z</time>
      </trkpt>
      <trkpt lat="46.99205" lon="5.89398">
        <ele>698.4</ele>
        <time>2020-12-26T13:27:20Z</time>
      </trkpt>
      <trkpt lat="46.99207" lon="5.89399">
        <ele>699</ele>
        <time>2020-12-26T13:27:21Z</time>
      </trkpt>
      <trkpt lat="46.99209" lon="5.894">
        <ele>699.2</ele>
        <time>2020-12-26T13:27:22Z</time>
      </trkpt>
      <trkpt lat="46.99211" lon="5.89401">
        <ele>699.4</ele>
        <time>2020-12-26T13:27:23Z</time>
      </trkpt>
      <trkpt lat="46.99213" lon="5.89403">
        <ele>699.8</ele>
        <time>2020-12-26T13:27:24Z</time>
      </trkpt>
      <trkpt lat="46.99214" lon="5.89405">
        <ele>700</ele>
        <time>2020-12-26T13:27:25Z</time>
      </trkpt>
      <trkpt lat="46.99215" lon="5.89408">
        <ele>700.2</ele>
        <time>2020-12-26T13:27:26Z</time>
      </trkpt>
      <trkpt lat="46.99215" lon="5.89412">
        <ele>700.2</ele>
        <time>2020-12-26T13:27:27Z</time>
      </trkpt>
      <trkpt lat="46.99215" lon="5.89416">
        <ele>700.6</ele>
        <time>2020-12-26T13:27:28Z</time>
      </trkpt>
      <trkpt lat="46.99215" lon="5.8942">
        <ele>701</ele>
        <time>2020-12-26T13:27:29Z</time>
      </trkpt>
      <trkpt lat="46.99215" lon="5.89424">
        <ele>701</ele>
        <time>2020-12-26T13:27:30Z</time>
      </trkpt>
      <trkpt lat="46.99215" lon="5.89428">
        <ele>701.4</ele>
        <time>2020-12-26T13:27:31Z</time>
      </trkpt>
      <trkpt lat="46.99216" lon="5.89431">
        <ele>701.6</ele>
        <time>2020-12-26T13:27:32Z</time>
      </trkpt>
      <trkpt lat="46.99216" lon="5.89435">
        <ele>701.6</ele>
        <time>2020-12-26T13:27:33Z</time>
      </trkpt>
      <trkpt lat="46.99216" lon="5.89439">
        <ele>702</ele>
        <time>2020-12-26T13:27:34Z</time>
      </trkpt>
      <trkpt lat="46.99217" lon="5.89443">
        <ele>702</ele>
        <time>2020-12-26T13:27:35Z</time>
      </trkpt>
      <trkpt lat="46.99217" lon="5.89446">
        <ele>702.4</ele>
        <time>2020-12-26T13:27:36Z</time>
      </trkpt>
      <trkpt lat="46.99218" lon="5.8945">
        <ele>702.6</ele>
        <time>2020-12-26T13:27:37Z</time>
      </trkpt>
      <trkpt lat="46.99219" lon="5.89453">
        <ele>702.8</ele>
        <time>2020-12-26T13:27:38Z</time>
      </trkpt>
      <trkpt lat="46.99219" lon="5.89456">
        <ele>703.2</ele>
        <time>2020-12-26T13:27:39Z</time>
      </trkpt>
      <trkpt lat="46.9922" lon="5.8946">
        <ele>703.4</ele>
        <time>2020-12-26T13:27:40Z</time>
      </trkpt>
      <trkpt lat="46.99222" lon="5.89463">
        <ele>703.4</ele>
        <time>2020-12-26T13:27:41Z</time>
      </trkpt>
      <trkpt lat="46.99223" lon="5.89466">
        <ele>703.8</ele>
        <time>2020-12-26T13:27:42Z</time>
      </trkpt>
      <trkpt lat="46.99224" lon="5.8947">
        <ele>704</ele>
        <time>2020-12-26T13:27:43Z</time>
      </trkpt>
      <trkpt lat="46.99225" lon="5.89474">
        <ele>704.2</ele>
        <time>2020-12-26T13:27:44Z</time>
      </trkpt>
      <trkpt lat="46.99226" lon="5.89477">
        <ele>704.2</ele>
        <time>2020-12-26T13:27:45Z</time>
      </trkpt>
      <trkpt lat="46.99227" lon="5.89481">
        <ele>704.6</ele>
        <time>2020-12-26T13:27:46Z</time>
      </trkpt>
      <trkpt lat="46.99228" lon="5.89485">
        <ele>704.8</ele>
        <time>2020-12-26T13:27:47Z</time>
      </trkpt>
      <trkpt lat="46.99229" lon="5.89488">
        <ele>705</ele>
        <time>2020-12-26T13:27:48Z</time>
      </trkpt>
      <trkpt lat="46.9923" lon="5.89492">
        <ele>705.2</ele>
        <time>2020-12-26T13:27:49Z</time>
      </trkpt>
      <trkpt lat="46.99231" lon="5.89496">
        <ele>705.2</ele>
        <time>2020-12-26T13:27:50Z</time>
      </trkpt>
      <trkpt lat="46.99232" lon="5.89499">
        <ele>705.6</ele>
        <time>2020-12-26T13:27:51Z</time>
      </trkpt>
      <trkpt lat="46.99233" lon="5.89503">
        <ele>705.6</ele>
        <time>2020-12-26T13:27:52Z</time>
      </trkpt>
      <trkpt lat="46.99233" lon="5.89507">
        <ele>705.8</ele>
        <time>2020-12-26T13:27:53Z</time>
      </trkpt>
      <trkpt lat="46.99233" lon="5.89511">
        <ele>705.8</ele>
        <time>2020-12-26T13:27:54Z</time>
      </trkpt>
      <trkpt lat="46.99233" lon="5.89514">
        <ele>706.2</ele>
        <time>2020-12-26T13:27:55Z</time>
      </trkpt>
      <trkpt lat="46.99233" lon="5.89518">
        <ele>706.2</ele>
        <time>2020-12-26T13:27:56Z</time>
      </trkpt>
      <trkpt lat="46.99234" lon="5.89522">
        <ele>706.4</ele>
        <time>2020-12-26T13:27:57Z</time>
      </trkpt>
      <trkpt lat="46.99234" lon="5.89525">
        <ele>706.4</ele>
        <time>2020-12-26T13:27:58Z</time>
      </trkpt>
      <trkpt lat="46.99234" lon="5.89529">
        <ele>706.8</ele>
        <time>2020-12-26T13:27:59Z</time>
      </trkpt>
      <trkpt lat="46.99234" lon="5.89533">
        <ele>706.8</ele>
        <time>2020-12-26T13:28:00Z</time>
      </trkpt>
      <trkpt lat="46.99234" lon="5.89537">
        <ele>707</ele>
        <time>2020-12-26T13:28:01Z</time>
      </trkpt>
      <trkpt lat="46.99234" lon="5.89541">
        <ele>707</ele>
        <time>2020-12-26T13:28:02Z</time>
      </trkpt>
      <trkpt lat="46.99234" lon="5.89544">
        <ele>707.4</ele>
        <time>2020-12-26T13:28:03Z</time>
      </trkpt>
      <trkpt lat="46.99235" lon="5.89548">
        <ele>707.4</ele>
        <time>2020-12-26T13:28:04Z</time>
      </trkpt>
      <trkpt lat="46.99235" lon="5.89552">
        <ele>707.8</ele>
        <time>2020-12-26T13:28:05Z</time>
      </trkpt>
      <trkpt lat="46.99235" lon="5.89556">
        <ele>707.8</ele>
        <time>2020-12-26T13:28:06Z</time>
      </trkpt>
      <trkpt lat="46.99236" lon="5.8956">
        <ele>708</ele>
        <time>2020-12-26T13:28:07Z</time>
      </trkpt>
      <trkpt lat="46.99236" lon="5.89564">
        <ele>708</ele>
        <time>2020-12-26T13:28:08Z</time>
      </trkpt>
      <trkpt lat="46.99237" lon="5.89568">
        <ele>708.4</ele>
        <time>2020-12-26T13:28:09Z</time>
      </trkpt>
      <trkpt lat="46.99238" lon="5.89572">
        <ele>708.8</ele>
        <time>2020-12-26T13:28:10Z</time>
      </trkpt>
      <trkpt lat="46.99239" lon="5.89576">
        <ele>709</ele>
        <time>2020-12-26T13:28:11Z</time>
      </trkpt>
      <trkpt lat="46.9924" lon="5.89579">
        <ele>709</ele>
        <time>2020-12-26T13:28:12Z</time>
      </trkpt>
      <trkpt lat="46.99241" lon="5.89583">
        <ele>709.2</ele>
        <time>2020-12-26T13:28:13Z</time>
      </trkpt>
      <trkpt lat="46.99241" lon="5.89587">
        <ele>709.6</ele>
        <time>2020-12-26T13:28:14Z</time>
      </trkpt>
      <trkpt lat="46.99242" lon="5.89591">
        <ele>709.8</ele>
        <time>2020-12-26T13:28:15Z</time>
      </trkpt>
      <trkpt lat="46.99242" lon="5.89596">
        <ele>710</ele>
        <time>2020-12-26T13:28:16Z</time>
      </trkpt>
      <trkpt lat="46.99243" lon="5.896">
        <ele>710</ele>
        <time>2020-12-26T13:28:17Z</time>
      </trkpt>
      <trkpt lat="46.99243" lon="5.89605">
        <ele>710.4</ele>
        <time>2020-12-26T13:28:18Z</time>
      </trkpt>
      <trkpt lat="46.99244" lon="5.89609">
        <ele>710.6</ele>
        <time>2020-12-26T13:28:19Z</time>
      </trkpt>
      <trkpt lat="46.99244" lon="5.89614">
        <ele>710.6</ele>
        <time>2020-12-26T13:28:20Z</time>
      </trkpt>
      <trkpt lat="46.99245" lon="5.89618">
        <ele>711</ele>
        <time>2020-12-26T13:28:21Z</time>
      </trkpt>
      <trkpt lat="46.99245" lon="5.89623">
        <ele>711.2</ele>
        <time>2020-12-26T13:28:22Z</time>
      </trkpt>
      <trkpt lat="46.99245" lon="5.89628">
        <ele>711.6</ele>
        <time>2020-12-26T13:28:23Z</time>
      </trkpt>
      <trkpt lat="46.99245" lon="5.89633">
        <ele>711.6</ele>
        <time>2020-12-26T13:28:24Z</time>
      </trkpt>
      <trkpt lat="46.99245" lon="5.89638">
        <ele>712</ele>
        <time>2020-12-26T13:28:25Z</time>
      </trkpt>
      <trkpt lat="46.99245" lon="5.89643">
        <ele>712.4</ele>
        <time>2020-12-26T13:28:26Z</time>
      </trkpt>
      <trkpt lat="46.99244" lon="5.89648">
        <ele>712.8</ele>
        <time>2020-12-26T13:28:27Z</time>
      </trkpt>
      <trkpt lat="46.99244" lon="5.89652">
        <ele>713.2</ele>
        <time>2020-12-26T13:28:28Z</time>
      </trkpt>
      <trkpt lat="46.99243" lon="5.89656">
        <ele>713.4</ele>
        <time>2020-12-26T13:28:29Z</time>
      </trkpt>
      <trkpt lat="46.99243" lon="5.89661">
        <ele>713.6</ele>
        <time>2020-12-26T13:28:30Z</time>
      </trkpt>
      <trkpt lat="46.99242" lon="5.89665">
        <ele>714</ele>
        <time>2020-12-26T13:28:31Z</time>
      </trkpt>
      <trkpt lat="46.99241" lon="5.8967">
        <ele>714.2</ele>
        <time>2020-12-26T13:28:32Z</time>
      </trkpt>
      <trkpt lat="46.9924" lon="5.89674">
        <ele>714.4</ele>
        <time>2020-12-26T13:28:33Z</time>
      </trkpt>
      <trkpt lat="46.99239" lon="5.89678">
        <ele>714.8</ele>
        <time>2020-12-26T13:28:34Z</time>
      </trkpt>
      <trkpt lat="46.99238" lon="5.89682">
        <ele>715</ele>
        <time>2020-12-26T13:28:35Z</time>
      </trkpt>
      <trkpt lat="46.99237" lon="5.89686">
        <ele>715.2</ele>
        <time>2020-12-26T13:28:36Z</time>
      </trkpt>
      <trkpt lat="46.99235" lon="5.8969">
        <ele>715.2</ele>
        <time>2020-12-26T13:28:37Z</time>
      </trkpt>
      <trkpt lat="46.99234" lon="5.89695">
        <ele>715.8</ele>
        <time>2020-12-26T13:28:38Z</time>
      </trkpt>
      <trkpt lat="46.99233" lon="5.89699">
        <ele>716</ele>
        <time>2020-12-26T13:28:39Z</time>
      </trkpt>
      <trkpt lat="46.99232" lon="5.89704">
        <ele>716.4</ele>
        <time>2020-12-26T13:28:40Z</time>
      </trkpt>
      <trkpt lat="46.99231" lon="5.89708">
        <ele>716.6</ele>
        <time>2020-12-26T13:28:41Z</time>
      </trkpt>
      <trkpt lat="46.99229" lon="5.89713">
        <ele>717</ele>
        <time>2020-12-26T13:28:42Z</time>
      </trkpt>
      <trkpt lat="46.99228" lon="5.89717">
        <ele>717.2</ele>
        <time>2020-12-26T13:28:43Z</time>
      </trkpt>
      <trkpt lat="46.99228" lon="5.89721">
        <ele>717.4</ele>
        <time>2020-12-26T13:28:44Z</time>
      </trkpt>
      <trkpt lat="46.99226" lon="5.89725">
        <ele>717.8</ele>
        <time>2020-12-26T13:28:45Z</time>
      </trkpt>
      <trkpt lat="46.99226" lon="5.8973">
        <ele>718.2</ele>
        <time>2020-12-26T13:28:46Z</time>
      </trkpt>
      <trkpt lat="46.99225" lon="5.89734">
        <ele>718.4</ele>
        <time>2020-12-26T13:28:47Z</time>
      </trkpt>
      <trkpt lat="46.99224" lon="5.89739">
        <ele>718.8</ele>
        <time>2020-12-26T13:28:48Z</time>
      </trkpt>
      <trkpt lat="46.99222" lon="5.89743">
        <ele>719.2</ele>
        <time>2020-12-26T13:28:49Z</time>
      </trkpt>
      <trkpt lat="46.99221" lon="5.89747">
        <ele>719.6</ele>
        <time>2020-12-26T13:28:50Z</time>
      </trkpt>
      <trkpt lat="46.9922" lon="5.89752">
        <ele>719.8</ele>
        <time>2020-12-26T13:28:51Z</time>
      </trkpt>
      <trkpt lat="46.99219" lon="5.89757">
        <ele>720.2</ele>
        <time>2020-12-26T13:28:52Z</time>
      </trkpt>
      <trkpt lat="46.99218" lon="5.89761">
        <ele>720.4</ele>
        <time>2020-12-26T13:28:53Z</time>
      </trkpt>
      <trkpt lat="46.99217" lon="5.89766">
        <ele>720.8</ele>
        <time>2020-12-26T13:28:54Z</time>
      </trkpt>
      <trkpt lat="46.99216" lon="5.8977">
        <ele>721.2</ele>
        <time>2020-12-26T13:28:55Z</time>
      </trkpt>
      <trkpt lat="46.99215" lon="5.89775">
        <ele>721.4</ele>
        <time>2020-12-26T13:28:56Z</time>
      </trkpt>
      <trkpt lat="46.99215" lon="5.89779">
        <ele>721.8</ele>
        <time>2020-12-26T13:28:57Z</time>
      </trkpt>
      <trkpt lat="46.99214" lon="5.89783">
        <ele>722</ele>
        <time>2020-12-26T13:28:58Z</time>
      </trkpt>
      <trkpt lat="46.99213" lon="5.89788">
        <ele>722.4</ele>
        <time>2020-12-26T13:28:59Z</time>
      </trkpt>
      <trkpt lat="46.99212" lon="5.89792">
        <ele>722.8</ele>
        <time>2020-12-26T13:29:00Z</time>
      </trkpt>
      <trkpt lat="46.99211" lon="5.89797">
        <ele>723.2</ele>
        <time>2020-12-26T13:29:01Z</time>
      </trkpt>
      <trkpt lat="46.9921" lon="5.89801">
        <ele>723.4</ele>
        <time>2020-12-26T13:29:02Z</time>
      </trkpt>
      <trkpt lat="46.99209" lon="5.89807">
        <ele>723.8</ele>
        <time>2020-12-26T13:29:03Z</time>
      </trkpt>
      <trkpt lat="46.99208" lon="5.89812">
        <ele>724</ele>
        <time>2020-12-26T13:29:04Z</time>
      </trkpt>
      <trkpt lat="46.99206" lon="5.89816">
        <ele>724.2</ele>
        <time>2020-12-26T13:29:05Z</time>
      </trkpt>
      <trkpt lat="46.99205" lon="5.8982">
        <ele>724.6</ele>
        <time>2020-12-26T13:29:06Z</time>
      </trkpt>
      <trkpt lat="46.99204" lon="5.89824">
        <ele>724.8</ele>
        <time>2020-12-26T13:29:07Z</time>
      </trkpt>
      <trkpt lat="46.99202" lon="5.89829">
        <ele>725.2</ele>
        <time>2020-12-26T13:29:08Z</time>
      </trkpt>
      <trkpt lat="46.99201" lon="5.89834">
        <ele>725.6</ele>
        <time>2020-12-26T13:29:09Z</time>
      </trkpt>
      <trkpt lat="46.992" lon="5.89839">
        <ele>725.8</ele>
        <time>2020-12-26T13:29:10Z</time>
      </trkpt>
      <trkpt lat="46.99198" lon="5.89845">
        <ele>726.2</ele>
        <time>2020-12-26T13:29:11Z</time>
      </trkpt>
      <trkpt lat="46.99197" lon="5.8985">
        <ele>726.4</ele>
        <time>2020-12-26T13:29:12Z</time>
      </trkpt>
      <trkpt lat="46.99197" lon="5.89857">
        <ele>726.8</ele>
        <time>2020-12-26T13:29:13Z</time>
      </trkpt>
      <trkpt lat="46.99196" lon="5.89861">
        <ele>727</ele>
        <time>2020-12-26T13:29:14Z</time>
      </trkpt>
      <trkpt lat="46.99194" lon="5.89866">
        <ele>727.4</ele>
        <time>2020-12-26T13:29:15Z</time>
      </trkpt>
      <trkpt lat="46.99193" lon="5.89871">
        <ele>727.6</ele>
        <time>2020-12-26T13:29:16Z</time>
      </trkpt>
      <trkpt lat="46.99193" lon="5.89875">
        <ele>727.8</ele>
        <time>2020-12-26T13:29:17Z</time>
      </trkpt>
      <trkpt lat="46.99192" lon="5.8988">
        <ele>728</ele>
        <time>2020-12-26T13:29:18Z</time>
      </trkpt>
      <trkpt lat="46.99191" lon="5.89884">
        <ele>728.4</ele>
        <time>2020-12-26T13:29:19Z</time>
      </trkpt>
      <trkpt lat="46.9919" lon="5.89889">
        <ele>728.6</ele>
        <time>2020-12-26T13:29:20Z</time>
      </trkpt>
      <trkpt lat="46.9919" lon="5.89894">
        <ele>728.8</ele>
        <time>2020-12-26T13:29:21Z</time>
      </trkpt>
      <trkpt lat="46.99189" lon="5.89898">
        <ele>729.2</ele>
        <time>2020-12-26T13:29:22Z</time>
      </trkpt>
      <trkpt lat="46.99188" lon="5.89904">
        <ele>729.6</ele>
        <time>2020-12-26T13:29:23Z</time>
      </trkpt>
      <trkpt lat="46.99187" lon="5.8991">
        <ele>729.8</ele>
        <time>2020-12-26T13:29:24Z</time>
      </trkpt>
      <trkpt lat="46.99186" lon="5.89915">
        <ele>730</ele>
        <time>2020-12-26T13:29:25Z</time>
      </trkpt>
      <trkpt lat="46.99186" lon="5.8992">
        <ele>730.4</ele>
        <time>2020-12-26T13:29:26Z</time>
      </trkpt>
      <trkpt lat="46.99185" lon="5.89925">
        <ele>730.6</ele>
        <time>2020-12-26T13:29:27Z</time>
      </trkpt>
      <trkpt lat="46.99185" lon="5.89931">
        <ele>730.6</ele>
        <time>2020-12-26T13:29:28Z</time>
      </trkpt>
      <trkpt lat="46.99185" lon="5.89936">
        <ele>731</ele>
        <time>2020-12-26T13:29:29Z</time>
      </trkpt>
      <trkpt lat="46.99184" lon="5.8994">
        <ele>731.4</ele>
        <time>2020-12-26T13:29:30Z</time>
      </trkpt>
      <trkpt lat="46.99183" lon="5.89945">
        <ele>731.6</ele>
        <time>2020-12-26T13:29:31Z</time>
      </trkpt>
      <trkpt lat="46.99182" lon="5.89949">
        <ele>731.8</ele>
        <time>2020-12-26T13:29:32Z</time>
      </trkpt>
      <trkpt lat="46.9918" lon="5.89953">
        <ele>732.2</ele>
        <time>2020-12-26T13:29:33Z</time>
      </trkpt>
      <trkpt lat="46.99179" lon="5.89958">
        <ele>732.4</ele>
        <time>2020-12-26T13:29:34Z</time>
      </trkpt>
      <trkpt lat="46.99179" lon="5.89962">
        <ele>732.4</ele>
        <time>2020-12-26T13:29:35Z</time>
      </trkpt>
      <trkpt lat="46.99178" lon="5.89969">
        <ele>733</ele>
        <time>2020-12-26T13:29:36Z</time>
      </trkpt>
      <trkpt lat="46.99178" lon="5.89973">
        <ele>733.2</ele>
        <time>2020-12-26T13:29:37Z</time>
      </trkpt>
      <trkpt lat="46.99177" lon="5.89979">
        <ele>733.4</ele>
        <time>2020-12-26T13:29:38Z</time>
      </trkpt>
      <trkpt lat="46.99176" lon="5.89984">
        <ele>733.8</ele>
        <time>2020-12-26T13:29:39Z</time>
      </trkpt>
      <trkpt lat="46.99175" lon="5.89989">
        <ele>734</ele>
        <time>2020-12-26T13:29:40Z</time>
      </trkpt>
      <trkpt lat="46.99174" lon="5.89995">
        <ele>734.4</ele>
        <time>2020-12-26T13:29:41Z</time>
      </trkpt>
      <trkpt lat="46.99174" lon="5.9">
        <ele>734.6</ele>
        <time>2020-12-26T13:29:42Z</time>
      </trkpt>
      <trkpt lat="46.99173" lon="5.90005">
        <ele>735</ele>
        <time>2020-12-26T13:29:43Z</time>
      </trkpt>
      <trkpt lat="46.99172" lon="5.90011">
        <ele>735.2</ele>
        <time>2020-12-26T13:29:44Z</time>
      </trkpt>
      <trkpt lat="46.99172" lon="5.90018">
        <ele>735.6</ele>
        <time>2020-12-26T13:29:45Z</time>
      </trkpt>
      <trkpt lat="46.99171" lon="5.90025">
        <ele>735.8</ele>
        <time>2020-12-26T13:29:46Z</time>
      </trkpt>
      <trkpt lat="46.9917" lon="5.9003">
        <ele>736.2</ele>
        <time>2020-12-26T13:29:47Z</time>
      </trkpt>
      <trkpt lat="46.99169" lon="5.90035">
        <ele>736.6</ele>
        <time>2020-12-26T13:29:48Z</time>
      </trkpt>
      <trkpt lat="46.99168" lon="5.9004">
        <ele>737</ele>
        <time>2020-12-26T13:29:49Z</time>
      </trkpt>
      <trkpt lat="46.99167" lon="5.90045">
        <ele>737.2</ele>
        <time>2020-12-26T13:29:50Z</time>
      </trkpt>
      <trkpt lat="46.99167" lon="5.9005">
        <ele>737.6</ele>
        <time>2020-12-26T13:29:51Z</time>
      </trkpt>
      <trkpt lat="46.99166" lon="5.90056">
        <ele>737.8</ele>
        <time>2020-12-26T13:29:52Z</time>
      </trkpt>
      <trkpt lat="46.99165" lon="5.90061">
        <ele>738</ele>
        <time>2020-12-26T13:29:53Z</time>
      </trkpt>
      <trkpt lat="46.99164" lon="5.90067">
        <ele>738</ele>
        <time>2020-12-26T13:29:54Z</time>
      </trkpt>
      <trkpt lat="46.99163" lon="5.90072">
        <ele>738.6</ele>
        <time>2020-12-26T13:29:55Z</time>
      </trkpt>
      <trkpt lat="46.99163" lon="5.90077">
        <ele>738.8</ele>
        <time>2020-12-26T13:29:56Z</time>
      </trkpt>
      <trkpt lat="46.99163" lon="5.90083">
        <ele>739.2</ele>
        <time>2020-12-26T13:29:57Z</time>
      </trkpt>
      <trkpt lat="46.99162" lon="5.90087">
        <ele>739.6</ele>
        <time>2020-12-26T13:29:58Z</time>
      </trkpt>
      <trkpt lat="46.99162" lon="5.90092">
        <ele>739.8</ele>
        <time>2020-12-26T13:29:59Z</time>
      </trkpt>
      <trkpt lat="46.99161" lon="5.90097">
        <ele>740.2</ele>
        <time>2020-12-26T13:30:00Z</time>
      </trkpt>
      <trkpt lat="46.99161" lon="5.90102">
        <ele>740.4</ele>
        <time>2020-12-26T13:30:01Z</time>
      </trkpt>
      <trkpt lat="46.9916" lon="5.90107">
        <ele>740.6</ele>
        <time>2020-12-26T13:30:02Z</time>
      </trkpt>
      <trkpt lat="46.99159" lon="5.90111">
        <ele>741</ele>
        <time>2020-12-26T13:30:03Z</time>
      </trkpt>
      <trkpt lat="46.99159" lon="5.90116">
        <ele>741.2</ele>
        <time>2020-12-26T13:30:04Z</time>
      </trkpt>
      <trkpt lat="46.99158" lon="5.90121">
        <ele>741.4</ele>
        <time>2020-12-26T13:30:05Z</time>
      </trkpt>
      <trkpt lat="46.99157" lon="5.90127">
        <ele>741.8</ele>
        <time>2020-12-26T13:30:06Z</time>
      </trkpt>
      <trkpt lat="46.99156" lon="5.90132">
        <ele>742</ele>
        <time>2020-12-26T13:30:07Z</time>
      </trkpt>
      <trkpt lat="46.99155" lon="5.90136">
        <ele>742.2</ele>
        <time>2020-12-26T13:30:08Z</time>
      </trkpt>
      <trkpt lat="46.99155" lon="5.9014">
        <ele>742.4</ele>
        <time>2020-12-26T13:30:09Z</time>
      </trkpt>
      <trkpt lat="46.99154" lon="5.90145">
        <ele>742.4</ele>
        <time>2020-12-26T13:30:10Z</time>
      </trkpt>
      <trkpt lat="46.99153" lon="5.90149">
        <ele>742.8</ele>
        <time>2020-12-26T13:30:11Z</time>
      </trkpt>
      <trkpt lat="46.99152" lon="5.90154">
        <ele>743.2</ele>
        <time>2020-12-26T13:30:12Z</time>
      </trkpt>
      <trkpt lat="46.99152" lon="5.90159">
        <ele>743.4</ele>
        <time>2020-12-26T13:30:13Z</time>
      </trkpt>
      <trkpt lat="46.99152" lon="5.90164">
        <ele>743.6</ele>
        <time>2020-12-26T13:30:14Z</time>
      </trkpt>
      <trkpt lat="46.99151" lon="5.90169">
        <ele>744</ele>
        <time>2020-12-26T13:30:15Z</time>
      </trkpt>
      <trkpt lat="46.99151" lon="5.90173">
        <ele>744.2</ele>
        <time>2020-12-26T13:30:16Z</time>
      </trkpt>
      <trkpt lat="46.9915" lon="5.90177">
        <ele>744.6</ele>
        <time>2020-12-26T13:30:17Z</time>
      </trkpt>
      <trkpt lat="46.99149" lon="5.90182">
        <ele>744.8</ele>
        <time>2020-12-26T13:30:18Z</time>
      </trkpt>
      <trkpt lat="46.99148" lon="5.90187">
        <ele>745</ele>
        <time>2020-12-26T13:30:19Z</time>
      </trkpt>
      <trkpt lat="46.99148" lon="5.90191">
        <ele>745.4</ele>
        <time>2020-12-26T13:30:20Z</time>
      </trkpt>
      <trkpt lat="46.99147" lon="5.90196">
        <ele>745.6</ele>
        <time>2020-12-26T13:30:21Z</time>
      </trkpt>
      <trkpt lat="46.99146" lon="5.902">
        <ele>745.8</ele>
        <time>2020-12-26T13:30:22Z</time>
      </trkpt>
      <trkpt lat="46.99145" lon="5.90206">
        <ele>746.2</ele>
        <time>2020-12-26T13:30:23Z</time>
      </trkpt>
      <trkpt lat="46.99145" lon="5.90211">
        <ele>746.4</ele>
        <time>2020-12-26T13:30:24Z</time>
      </trkpt>
      <trkpt lat="46.99144" lon="5.90215">
        <ele>746.8</ele>
        <time>2020-12-26T13:30:25Z</time>
      </trkpt>
      <trkpt lat="46.99143" lon="5.9022">
        <ele>747</ele>
        <time>2020-12-26T13:30:26Z</time>
      </trkpt>
      <trkpt lat="46.99142" lon="5.90225">
        <ele>747</ele>
        <time>2020-12-26T13:30:27Z</time>
      </trkpt>
      <trkpt lat="46.99142" lon="5.90231">
        <ele>747.4</ele>
        <time>2020-12-26T13:30:28Z</time>
      </trkpt>
      <trkpt lat="46.99141" lon="5.90235">
        <ele>747.8</ele>
        <time>2020-12-26T13:30:29Z</time>
      </trkpt>
      <trkpt lat="46.9914" lon="5.9024">
        <ele>748</ele>
        <time>2020-12-26T13:30:30Z</time>
      </trkpt>
      <trkpt lat="46.99139" lon="5.90244">
        <ele>748.4</ele>
        <time>2020-12-26T13:30:31Z</time>
      </trkpt>
      <trkpt lat="46.99138" lon="5.90248">
        <ele>748.6</ele>
        <time>2020-12-26T13:30:32Z</time>
      </trkpt>
      <trkpt lat="46.99138" lon="5.90253">
        <ele>748.8</ele>
        <time>2020-12-26T13:30:33Z</time>
      </trkpt>
      <trkpt lat="46.99137" lon="5.90257">
        <ele>749</ele>
        <time>2020-12-26T13:30:34Z</time>
      </trkpt>
      <trkpt lat="46.99137" lon="5.90262">
        <ele>749.4</ele>
        <time>2020-12-26T13:30:35Z</time>
      </trkpt>
      <trkpt lat="46.99136" lon="5.90266">
        <ele>749.6</ele>
        <time>2020-12-26T13:30:36Z</time>
      </trkpt>
      <trkpt lat="46.99136" lon="5.90271">
        <ele>749.8</ele>
        <time>2020-12-26T13:30:37Z</time>
      </trkpt>
      <trkpt lat="46.99135" lon="5.90276">
        <ele>749.8</ele>
        <time>2020-12-26T13:30:38Z</time>
      </trkpt>
      <trkpt lat="46.99134" lon="5.90281">
        <ele>750.2</ele>
        <time>2020-12-26T13:30:39Z</time>
      </trkpt>
      <trkpt lat="46.99134" lon="5.90286">
        <ele>750.6</ele>
        <time>2020-12-26T13:30:40Z</time>
      </trkpt>
      <trkpt lat="46.99133" lon="5.90291">
        <ele>750.8</ele>
        <time>2020-12-26T13:30:41Z</time>
      </trkpt>
      <trkpt lat="46.99132" lon="5.90296">
        <ele>751</ele>
        <time>2020-12-26T13:30:42Z</time>
      </trkpt>
      <trkpt lat="46.99131" lon="5.90301">
        <ele>751.4</ele>
        <time>2020-12-26T13:30:43Z</time>
      </trkpt>
      <trkpt lat="46.9913" lon="5.90307">
        <ele>751.6</ele>
        <time>2020-12-26T13:30:44Z</time>
      </trkpt>
      <trkpt lat="46.9913" lon="5.90312">
        <ele>752</ele>
        <time>2020-12-26T13:30:45Z</time>
      </trkpt>
      <trkpt lat="46.99129" lon="5.90317">
        <ele>752.2</ele>
        <time>2020-12-26T13:30:46Z</time>
      </trkpt>
      <trkpt lat="46.99129" lon="5.90322">
        <ele>752.6</ele>
        <time>2020-12-26T13:30:47Z</time>
      </trkpt>
      <trkpt lat="46.99128" lon="5.90327">
        <ele>753</ele>
        <time>2020-12-26T13:30:48Z</time>
      </trkpt>
      <trkpt lat="46.99127" lon="5.90332">
        <ele>753.2</ele>
        <time>2020-12-26T13:30:49Z</time>
      </trkpt>
      <trkpt lat="46.99127" lon="5.90336">
        <ele>753.6</ele>
        <time>2020-12-26T13:30:50Z</time>
      </trkpt>
      <trkpt lat="46.99126" lon="5.90341">
        <ele>753.8</ele>
        <time>2020-12-26T13:30:51Z</time>
      </trkpt>
      <trkpt lat="46.99126" lon="5.90346">
        <ele>754</ele>
        <time>2020-12-26T13:30:52Z</time>
      </trkpt>
      <trkpt lat="46.99125" lon="5.9035">
        <ele>754.2</ele>
        <time>2020-12-26T13:30:53Z</time>
      </trkpt>
      <trkpt lat="46.99125" lon="5.90355">
        <ele>754.4</ele>
        <time>2020-12-26T13:30:54Z</time>
      </trkpt>
      <trkpt lat="46.99125" lon="5.90359">
        <ele>754.4</ele>
        <time>2020-12-26T13:30:55Z</time>
      </trkpt>
      <trkpt lat="46.99124" lon="5.90363">
        <ele>754.8</ele>
        <time>2020-12-26T13:30:56Z</time>
      </trkpt>
      <trkpt lat="46.99124" lon="5.90367">
        <ele>754.8</ele>
        <time>2020-12-26T13:30:57Z</time>
      </trkpt>
      <trkpt lat="46.99123" lon="5.90372">
        <ele>755.2</ele>
        <time>2020-12-26T13:30:58Z</time>
      </trkpt>
      <trkpt lat="46.99123" lon="5.90376">
        <ele>755.6</ele>
        <time>2020-12-26T13:30:59Z</time>
      </trkpt>
      <trkpt lat="46.99122" lon="5.9038">
        <ele>755.8</ele>
        <time>2020-12-26T13:31:00Z</time>
      </trkpt>
      <trkpt lat="46.99122" lon="5.90385">
        <ele>756</ele>
        <time>2020-12-26T13:31:01Z</time>
      </trkpt>
      <trkpt lat="46.99121" lon="5.9039">
        <ele>756.4</ele>
        <time>2020-12-26T13:31:02Z</time>
      </trkpt>
      <trkpt lat="46.99121" lon="5.90395">
        <ele>756.8</ele>
        <time>2020-12-26T13:31:03Z</time>
      </trkpt>
      <trkpt lat="46.9912" lon="5.904">
        <ele>757</ele>
        <time>2020-12-26T13:31:04Z</time>
      </trkpt>
      <trkpt lat="46.9912" lon="5.90404">
        <ele>757.2</ele>
        <time>2020-12-26T13:31:05Z</time>
      </trkpt>
      <trkpt lat="46.99119" lon="5.90408">
        <ele>757.6</ele>
        <time>2020-12-26T13:31:06Z</time>
      </trkpt>
      <trkpt lat="46.99119" lon="5.90412">
        <ele>757.8</ele>
        <time>2020-12-26T13:31:07Z</time>
      </trkpt>
      <trkpt lat="46.99119" lon="5.90416">
        <ele>758.2</ele>
        <time>2020-12-26T13:31:08Z</time>
      </trkpt>
      <trkpt lat="46.99118" lon="5.9042">
        <ele>758.4</ele>
        <time>2020-12-26T13:31:09Z</time>
      </trkpt>
      <trkpt lat="46.99118" lon="5.90424">
        <ele>758.8</ele>
        <time>2020-12-26T13:31:10Z</time>
      </trkpt>
      <trkpt lat="46.99117" lon="5.90428">
        <ele>759</ele>
        <time>2020-12-26T13:31:11Z</time>
      </trkpt>
      <trkpt lat="46.99117" lon="5.90432">
        <ele>759.2</ele>
        <time>2020-12-26T13:31:12Z</time>
      </trkpt>
      <trkpt lat="46.99116" lon="5.90436">
        <ele>759.6</ele>
        <time>2020-12-26T13:31:13Z</time>
      </trkpt>
      <trkpt lat="46.99116" lon="5.90441">
        <ele>759.8</ele>
        <time>2020-12-26T13:31:14Z</time>
      </trkpt>
      <trkpt lat="46.99115" lon="5.90446">
        <ele>759.8</ele>
        <time>2020-12-26T13:31:15Z</time>
      </trkpt>
      <trkpt lat="46.99114" lon="5.9045">
        <ele>760</ele>
        <time>2020-12-26T13:31:16Z</time>
      </trkpt>
      <trkpt lat="46.99114" lon="5.90455">
        <ele>760.2</ele>
        <time>2020-12-26T13:31:17Z</time>
      </trkpt>
      <trkpt lat="46.99114" lon="5.9046">
        <ele>760.2</ele>
        <time>2020-12-26T13:31:18Z</time>
      </trkpt>
      <trkpt lat="46.99114" lon="5.90464">
        <ele>760.6</ele>
        <time>2020-12-26T13:31:19Z</time>
      </trkpt>
      <trkpt lat="46.99113" lon="5.90469">
        <ele>760.6</ele>
        <time>2020-12-26T13:31:20Z</time>
      </trkpt>
      <trkpt lat="46.99112" lon="5.90473">
        <ele>761</ele>
        <time>2020-12-26T13:31:21Z</time>
      </trkpt>
      <trkpt lat="46.99112" lon="5.90478">
        <ele>761.4</ele>
        <time>2020-12-26T13:31:22Z</time>
      </trkpt>
      <trkpt lat="46.99111" lon="5.90483">
        <ele>761.6</ele>
        <time>2020-12-26T13:31:23Z</time>
      </trkpt>
      <trkpt lat="46.9911" lon="5.90488">
        <ele>761.8</ele>
        <time>2020-12-26T13:31:24Z</time>
      </trkpt>
      <trkpt lat="46.99109" lon="5.90494">
        <ele>762</ele>
        <time>2020-12-26T13:31:25Z</time>
      </trkpt>
      <trkpt lat="46.99108" lon="5.905">
        <ele>762.2</ele>
        <time>2020-12-26T13:31:26Z</time>
      </trkpt>
      <trkpt lat="46.99107" lon="5.90505">
        <ele>762.2</ele>
        <time>2020-12-26T13:31:27Z</time>
      </trkpt>
      <trkpt lat="46.99106" lon="5.9051">
        <ele>762.8</ele>
        <time>2020-12-26T13:31:28Z</time>
      </trkpt>
      <trkpt lat="46.99105" lon="5.90515">
        <ele>763</ele>
        <time>2020-12-26T13:31:29Z</time>
      </trkpt>
      <trkpt lat="46.99104" lon="5.9052">
        <ele>763.2</ele>
        <time>2020-12-26T13:31:30Z</time>
      </trkpt>
      <trkpt lat="46.99103" lon="5.90524">
        <ele>763.4</ele>
        <time>2020-12-26T13:31:31Z</time>
      </trkpt>
      <trkpt lat="46.99103" lon="5.90528">
        <ele>763.6</ele>
        <time>2020-12-26T13:31:32Z</time>
      </trkpt>
      <trkpt lat="46.99102" lon="5.90533">
        <ele>763.8</ele>
        <time>2020-12-26T13:31:33Z</time>
      </trkpt>
      <trkpt lat="46.99101" lon="5.90537">
        <ele>764</ele>
        <time>2020-12-26T13:31:34Z</time>
      </trkpt>
      <trkpt lat="46.991" lon="5.90541">
        <ele>764.4</ele>
        <time>2020-12-26T13:31:35Z</time>
      </trkpt>
      <trkpt lat="46.99099" lon="5.90546">
        <ele>764.6</ele>
        <time>2020-12-26T13:31:36Z</time>
      </trkpt>
      <trkpt lat="46.99099" lon="5.9055">
        <ele>764.8</ele>
        <time>2020-12-26T13:31:37Z</time>
      </trkpt>
      <trkpt lat="46.99098" lon="5.90554">
        <ele>765</ele>
        <time>2020-12-26T13:31:38Z</time>
      </trkpt>
      <trkpt lat="46.99097" lon="5.90559">
        <ele>765.4</ele>
        <time>2020-12-26T13:31:39Z</time>
      </trkpt>
      <trkpt lat="46.99096" lon="5.90563">
        <ele>765.6</ele>
        <time>2020-12-26T13:31:40Z</time>
      </trkpt>
      <trkpt lat="46.99095" lon="5.90567">
        <ele>765.8</ele>
        <time>2020-12-26T13:31:41Z</time>
      </trkpt>
      <trkpt lat="46.99095" lon="5.90571">
        <ele>766.2</ele>
        <time>2020-12-26T13:31:42Z</time>
      </trkpt>
      <trkpt lat="46.99094" lon="5.90576">
        <ele>766.4</ele>
        <time>2020-12-26T13:31:43Z</time>
      </trkpt>
      <trkpt lat="46.99093" lon="5.9058">
        <ele>766.8</ele>
        <time>2020-12-26T13:31:44Z</time>
      </trkpt>
      <trkpt lat="46.99092" lon="5.90584">
        <ele>767.2</ele>
        <time>2020-12-26T13:31:45Z</time>
      </trkpt>
      <trkpt lat="46.99092" lon="5.90588">
        <ele>767.4</ele>
        <time>2020-12-26T13:31:46Z</time>
      </trkpt>
      <trkpt lat="46.99091" lon="5.90592">
        <ele>767.8</ele>
        <time>2020-12-26T13:31:47Z</time>
      </trkpt>
      <trkpt lat="46.99091" lon="5.90596">
        <ele>768</ele>
        <time>2020-12-26T13:31:48Z</time>
      </trkpt>
      <trkpt lat="46.9909" lon="5.906">
        <ele>768</ele>
        <time>2020-12-26T13:31:49Z</time>
      </trkpt>
      <trkpt lat="46.99089" lon="5.90604">
        <ele>768.4</ele>
        <time>2020-12-26T13:31:50Z</time>
      </trkpt>
      <trkpt lat="46.99088" lon="5.90609">
        <ele>768.6</ele>
        <time>2020-12-26T13:31:51Z</time>
      </trkpt>
      <trkpt lat="46.99087" lon="5.90612">
        <ele>768.8</ele>
        <time>2020-12-26T13:31:52Z</time>
      </trkpt>
      <trkpt lat="46.99086" lon="5.90616">
        <ele>768.8</ele>
        <time>2020-12-26T13:31:53Z</time>
      </trkpt>
      <trkpt lat="46.99086" lon="5.9062">
        <ele>769.4</ele>
        <time>2020-12-26T13:31:54Z</time>
      </trkpt>
      <trkpt lat="46.99086" lon="5.90624">
        <ele>769.6</ele>
        <time>2020-12-26T13:31:55Z</time>
      </trkpt>
      <trkpt lat="46.99085" lon="5.90628">
        <ele>770</ele>
        <time>2020-12-26T13:31:56Z</time>
      </trkpt>
      <trkpt lat="46.99085" lon="5.90633">
        <ele>770.2</ele>
        <time>2020-12-26T13:31:57Z</time>
      </trkpt>
      <trkpt lat="46.99084" lon="5.90638">
        <ele>770.6</ele>
        <time>2020-12-26T13:31:58Z</time>
      </trkpt>
      <trkpt lat="46.99084" lon="5.90642">
        <ele>770.8</ele>
        <time>2020-12-26T13:31:59Z</time>
      </trkpt>
      <trkpt lat="46.99084" lon="5.90646">
        <ele>771.2</ele>
        <time>2020-12-26T13:32:00Z</time>
      </trkpt>
      <trkpt lat="46.99084" lon="5.90651">
        <ele>771.4</ele>
        <time>2020-12-26T13:32:01Z</time>
      </trkpt>
      <trkpt lat="46.99083" lon="5.90655">
        <ele>771.8</ele>
        <time>2020-12-26T13:32:02Z</time>
      </trkpt>
      <trkpt lat="46.99083" lon="5.90659">
        <ele>771.8</ele>
        <time>2020-12-26T13:32:03Z</time>
      </trkpt>
      <trkpt lat="46.99083" lon="5.90663">
        <ele>772.2</ele>
        <time>2020-12-26T13:32:04Z</time>
      </trkpt>
      <trkpt lat="46.99083" lon="5.90667">
        <ele>772.4</ele>
        <time>2020-12-26T13:32:05Z</time>
      </trkpt>
      <trkpt lat="46.99082" lon="5.90671">
        <ele>772.4</ele>
        <time>2020-12-26T13:32:06Z</time>
      </trkpt>
      <trkpt lat="46.99082" lon="5.90676">
        <ele>772.8</ele>
        <time>2020-12-26T13:32:07Z</time>
      </trkpt>
      <trkpt lat="46.99082" lon="5.90681">
        <ele>773</ele>
        <time>2020-12-26T13:32:08Z</time>
      </trkpt>
      <trkpt lat="46.99082" lon="5.90685">
        <ele>773</ele>
        <time>2020-12-26T13:32:09Z</time>
      </trkpt>
      <trkpt lat="46.99081" lon="5.9069">
        <ele>773.4</ele>
        <time>2020-12-26T13:32:10Z</time>
      </trkpt>
      <trkpt lat="46.99081" lon="5.90694">
        <ele>773.4</ele>
        <time>2020-12-26T13:32:11Z</time>
      </trkpt>
      <trkpt lat="46.9908" lon="5.90697">
        <ele>773.8</ele>
        <time>2020-12-26T13:32:12Z</time>
      </trkpt>
      <trkpt lat="46.9908" lon="5.90702">
        <ele>773.8</ele>
        <time>2020-12-26T13:32:13Z</time>
      </trkpt>
      <trkpt lat="46.99079" lon="5.90706">
        <ele>774.2</ele>
        <time>2020-12-26T13:32:14Z</time>
      </trkpt>
      <trkpt lat="46.99078" lon="5.9071">
        <ele>774.2</ele>
        <time>2020-12-26T13:32:15Z</time>
      </trkpt>
      <trkpt lat="46.99077" lon="5.90714">
        <ele>774.4</ele>
        <time>2020-12-26T13:32:16Z</time>
      </trkpt>
      <trkpt lat="46.99077" lon="5.90719">
        <ele>774.6</ele>
        <time>2020-12-26T13:32:17Z</time>
      </trkpt>
      <trkpt lat="46.99076" lon="5.90723">
        <ele>774.8</ele>
        <time>2020-12-26T13:32:18Z</time>
      </trkpt>
      <trkpt lat="46.99075" lon="5.90727">
        <ele>774.8</ele>
        <time>2020-12-26T13:32:19Z</time>
      </trkpt>
      <trkpt lat="46.99074" lon="5.90731">
        <ele>775.4</ele>
        <time>2020-12-26T13:32:20Z</time>
      </trkpt>
      <trkpt lat="46.99073" lon="5.90735">
        <ele>775.6</ele>
        <time>2020-12-26T13:32:21Z</time>
      </trkpt>
      <trkpt lat="46.99072" lon="5.9074">
        <ele>776</ele>
        <time>2020-12-26T13:32:22Z</time>
      </trkpt>
      <trkpt lat="46.99072" lon="5.90745">
        <ele>776.2</ele>
        <time>2020-12-26T13:32:23Z</time>
      </trkpt>
      <trkpt lat="46.9907" lon="5.90749">
        <ele>776.6</ele>
        <time>2020-12-26T13:32:24Z</time>
      </trkpt>
      <trkpt lat="46.99069" lon="5.90754">
        <ele>777</ele>
        <time>2020-12-26T13:32:25Z</time>
      </trkpt>
      <trkpt lat="46.99069" lon="5.90759">
        <ele>777.2</ele>
        <time>2020-12-26T13:32:26Z</time>
      </trkpt>
      <trkpt lat="46.99068" lon="5.90764">
        <ele>777.6</ele>
        <time>2020-12-26T13:32:27Z</time>
      </trkpt>
      <trkpt lat="46.99067" lon="5.90768">
        <ele>777.8</ele>
        <time>2020-12-26T13:32:28Z</time>
      </trkpt>
      <trkpt lat="46.99066" lon="5.90773">
        <ele>778.2</ele>
        <time>2020-12-26T13:32:29Z</time>
      </trkpt>
      <trkpt lat="46.99066" lon="5.90777">
        <ele>778.4</ele>
        <time>2020-12-26T13:32:30Z</time>
      </trkpt>
      <trkpt lat="46.99065" lon="5.90782">
        <ele>778.6</ele>
        <time>2020-12-26T13:32:31Z</time>
      </trkpt>
      <trkpt lat="46.99064" lon="5.90786">
        <ele>778.8</ele>
        <time>2020-12-26T13:32:32Z</time>
      </trkpt>
      <trkpt lat="46.99063" lon="5.9079">
        <ele>779</ele>
        <time>2020-12-26T13:32:33Z</time>
      </trkpt>
      <trkpt lat="46.99063" lon="5.90794">
        <ele>779.4</ele>
        <time>2020-12-26T13:32:34Z</time>
      </trkpt>
      <trkpt lat="46.99062" lon="5.90798">
        <ele>779.4</ele>
        <time>2020-12-26T13:32:35Z</time>
      </trkpt>
      <trkpt lat="46.99061" lon="5.90803">
        <ele>779.8</ele>
        <time>2020-12-26T13:32:36Z</time>
      </trkpt>
      <trkpt lat="46.9906" lon="5.90807">
        <ele>780</ele>
        <time>2020-12-26T13:32:37Z</time>
      </trkpt>
      <trkpt lat="46.99059" lon="5.90812">
        <ele>780.2</ele>
        <time>2020-12-26T13:32:38Z</time>
      </trkpt>
      <trkpt lat="46.99058" lon="5.90816">
        <ele>780.4</ele>
        <time>2020-12-26T13:32:39Z</time>
      </trkpt>
      <trkpt lat="46.99057" lon="5.9082">
        <ele>780.6</ele>
        <time>2020-12-26T13:32:40Z</time>
      </trkpt>
      <trkpt lat="46.99056" lon="5.90825">
        <ele>780.6</ele>
        <time>2020-12-26T13:32:41Z</time>
      </trkpt>
      <trkpt lat="46.99054" lon="5.90829">
        <ele>781</ele>
        <time>2020-12-26T13:32:42Z</time>
      </trkpt>
      <trkpt lat="46.99053" lon="5.90833">
        <ele>781.2</ele>
        <time>2020-12-26T13:32:43Z</time>
      </trkpt>
      <trkpt lat="46.99052" lon="5.90837">
        <ele>781.2</ele>
        <time>2020-12-26T13:32:44Z</time>
      </trkpt>
      <trkpt lat="46.9905" lon="5.90841">
        <ele>781.4</ele>
        <time>2020-12-26T13:32:45Z</time>
      </trkpt>
      <trkpt lat="46.99048" lon="5.90846">
        <ele>781.4</ele>
        <time>2020-12-26T13:32:46Z</time>
      </trkpt>
      <trkpt lat="46.99046" lon="5.9085">
        <ele>781.8</ele>
        <time>2020-12-26T13:32:47Z</time>
      </trkpt>
      <trkpt lat="46.99043" lon="5.90854">
        <ele>781.8</ele>
        <time>2020-12-26T13:32:48Z</time>
      </trkpt>
      <trkpt lat="46.99041" lon="5.90857">
        <ele>782</ele>
        <time>2020-12-26T13:32:49Z</time>
      </trkpt>
      <trkpt lat="46.99038" lon="5.90861">
        <ele>782</ele>
        <time>2020-12-26T13:32:50Z</time>
      </trkpt>
      <trkpt lat="46.99036" lon="5.90864">
        <ele>782.4</ele>
        <time>2020-12-26T13:32:51Z</time>
      </trkpt>
      <trkpt lat="46.99033" lon="5.90867">
        <ele>782.4</ele>
        <time>2020-12-26T13:32:52Z</time>
      </trkpt>
      <trkpt lat="46.9903" lon="5.9087">
        <ele>782.6</ele>
        <time>2020-12-26T13:32:53Z</time>
      </trkpt>
      <trkpt lat="46.99028" lon="5.90873">
        <ele>782.6</ele>
        <time>2020-12-26T13:32:54Z</time>
      </trkpt>
      <trkpt lat="46.99025" lon="5.90876">
        <ele>783</ele>
        <time>2020-12-26T13:32:55Z</time>
      </trkpt>
      <trkpt lat="46.99023" lon="5.90879">
        <ele>783</ele>
        <time>2020-12-26T13:32:56Z</time>
      </trkpt>
      <trkpt lat="46.9902" lon="5.90881">
        <ele>783</ele>
        <time>2020-12-26T13:32:57Z</time>
      </trkpt>
      <trkpt lat="46.99017" lon="5.90884">
        <ele>783.4</ele>
        <time>2020-12-26T13:32:58Z</time>
      </trkpt>
      <trkpt lat="46.99014" lon="5.90887">
        <ele>783.4</ele>
        <time>2020-12-26T13:32:59Z</time>
      </trkpt>
      <trkpt lat="46.99012" lon="5.9089">
        <ele>783.6</ele>
        <time>2020-12-26T13:33:00Z</time>
      </trkpt>
      <trkpt lat="46.99009" lon="5.90893">
        <ele>783.6</ele>
        <time>2020-12-26T13:33:01Z</time>
      </trkpt>
      <trkpt lat="46.99006" lon="5.90896">
        <ele>784</ele>
        <time>2020-12-26T13:33:02Z</time>
      </trkpt>
      <trkpt lat="46.99004" lon="5.90898">
        <ele>784</ele>
        <time>2020-12-26T13:33:03Z</time>
      </trkpt>
      <trkpt lat="46.99001" lon="5.90901">
        <ele>784.6</ele>
        <time>2020-12-26T13:33:04Z</time>
      </trkpt>
      <trkpt lat="46.98999" lon="5.90903">
        <ele>784.8</ele>
        <time>2020-12-26T13:33:05Z</time>
      </trkpt>
      <trkpt lat="46.98996" lon="5.90906">
        <ele>785</ele>
        <time>2020-12-26T13:33:06Z</time>
      </trkpt>
      <trkpt lat="46.98994" lon="5.90909">
        <ele>785</ele>
        <time>2020-12-26T13:33:07Z</time>
      </trkpt>
      <trkpt lat="46.98991" lon="5.90912">
        <ele>785.4</ele>
        <time>2020-12-26T13:33:08Z</time>
      </trkpt>
      <trkpt lat="46.98989" lon="5.90915">
        <ele>785.6</ele>
        <time>2020-12-26T13:33:09Z</time>
      </trkpt>
      <trkpt lat="46.98987" lon="5.90918">
        <ele>786</ele>
        <time>2020-12-26T13:33:10Z</time>
      </trkpt>
      <trkpt lat="46.98984" lon="5.90921">
        <ele>786.2</ele>
        <time>2020-12-26T13:33:11Z</time>
      </trkpt>
      <trkpt lat="46.98982" lon="5.90923">
        <ele>786.4</ele>
        <time>2020-12-26T13:33:12Z</time>
      </trkpt>
      <trkpt lat="46.98979" lon="5.90926">
        <ele>786.4</ele>
        <time>2020-12-26T13:33:13Z</time>
      </trkpt>
      <trkpt lat="46.98977" lon="5.90928">
        <ele>786.8</ele>
        <time>2020-12-26T13:33:14Z</time>
      </trkpt>
      <trkpt lat="46.98974" lon="5.90931">
        <ele>787</ele>
        <time>2020-12-26T13:33:15Z</time>
      </trkpt>
      <trkpt lat="46.98972" lon="5.90934">
        <ele>787.4</ele>
        <time>2020-12-26T13:33:16Z</time>
      </trkpt>
      <trkpt lat="46.98969" lon="5.90936">
        <ele>787.6</ele>
        <time>2020-12-26T13:33:17Z</time>
      </trkpt>
      <trkpt lat="46.98967" lon="5.90939">
        <ele>787.8</ele>
        <time>2020-12-26T13:33:18Z</time>
      </trkpt>
      <trkpt lat="46.98964" lon="5.90942">
        <ele>787.8</ele>
        <time>2020-12-26T13:33:19Z</time>
      </trkpt>
      <trkpt lat="46.98961" lon="5.90944">
        <ele>788</ele>
        <time>2020-12-26T13:33:20Z</time>
      </trkpt>
      <trkpt lat="46.98959" lon="5.90947">
        <ele>788</ele>
        <time>2020-12-26T13:33:21Z</time>
      </trkpt>
      <trkpt lat="46.98956" lon="5.9095">
        <ele>788.4</ele>
        <time>2020-12-26T13:33:22Z</time>
      </trkpt>
      <trkpt lat="46.98954" lon="5.90953">
        <ele>788.4</ele>
        <time>2020-12-26T13:33:23Z</time>
      </trkpt>
      <trkpt lat="46.98951" lon="5.90956">
        <ele>788.8</ele>
        <time>2020-12-26T13:33:24Z</time>
      </trkpt>
      <trkpt lat="46.98949" lon="5.90958">
        <ele>788.8</ele>
        <time>2020-12-26T13:33:25Z</time>
      </trkpt>
      <trkpt lat="46.98946" lon="5.90961">
        <ele>789.2</ele>
        <time>2020-12-26T13:33:26Z</time>
      </trkpt>
      <trkpt lat="46.98944" lon="5.90964">
        <ele>789.2</ele>
        <time>2020-12-26T13:33:27Z</time>
      </trkpt>
      <trkpt lat="46.98942" lon="5.90967">
        <ele>789.6</ele>
        <time>2020-12-26T13:33:28Z</time>
      </trkpt>
      <trkpt lat="46.98939" lon="5.90969">
        <ele>789.8</ele>
        <time>2020-12-26T13:33:29Z</time>
      </trkpt>
      <trkpt lat="46.98937" lon="5.90972">
        <ele>789.8</ele>
        <time>2020-12-26T13:33:30Z</time>
      </trkpt>
      <trkpt lat="46.98934" lon="5.90975">
        <ele>790.2</ele>
        <time>2020-12-26T13:33:31Z</time>
      </trkpt>
      <trkpt lat="46.98932" lon="5.90978">
        <ele>790.4</ele>
        <time>2020-12-26T13:33:32Z</time>
      </trkpt>
      <trkpt lat="46.9893" lon="5.90981">
        <ele>790.4</ele>
        <time>2020-12-26T13:33:33Z</time>
      </trkpt>
      <trkpt lat="46.98927" lon="5.90984">
        <ele>790.6</ele>
        <time>2020-12-26T13:33:34Z</time>
      </trkpt>
      <trkpt lat="46.98925" lon="5.90988">
        <ele>790.8</ele>
        <time>2020-12-26T13:33:35Z</time>
      </trkpt>
      <trkpt lat="46.98923" lon="5.90991">
        <ele>790.8</ele>
        <time>2020-12-26T13:33:36Z</time>
      </trkpt>
      <trkpt lat="46.9892" lon="5.90994">
        <ele>791.2</ele>
        <time>2020-12-26T13:33:37Z</time>
      </trkpt>
      <trkpt lat="46.98918" lon="5.90997">
        <ele>791.4</ele>
        <time>2020-12-26T13:33:38Z</time>
      </trkpt>
      <trkpt lat="46.98916" lon="5.91001">
        <ele>791.4</ele>
        <time>2020-12-26T13:33:39Z</time>
      </trkpt>
      <trkpt lat="46.98913" lon="5.91004">
        <ele>791.8</ele>
        <time>2020-12-26T13:33:40Z</time>
      </trkpt>
      <trkpt lat="46.98911" lon="5.91008">
        <ele>791.8</ele>
        <time>2020-12-26T13:33:41Z</time>
      </trkpt>
      <trkpt lat="46.98909" lon="5.91012">
        <ele>792</ele>
        <time>2020-12-26T13:33:42Z</time>
      </trkpt>
      <trkpt lat="46.98906" lon="5.91016">
        <ele>792</ele>
        <time>2020-12-26T13:33:43Z</time>
      </trkpt>
      <trkpt lat="46.98904" lon="5.91019">
        <ele>792.4</ele>
        <time>2020-12-26T13:33:44Z</time>
      </trkpt>
      <trkpt lat="46.98902" lon="5.91023">
        <ele>792.4</ele>
        <time>2020-12-26T13:33:45Z</time>
      </trkpt>
      <trkpt lat="46.98899" lon="5.91027">
        <ele>792.6</ele>
        <time>2020-12-26T13:33:46Z</time>
      </trkpt>
      <trkpt lat="46.98897" lon="5.91031">
        <ele>792.6</ele>
        <time>2020-12-26T13:33:47Z</time>
      </trkpt>
      <trkpt lat="46.98894" lon="5.91035">
        <ele>792.6</ele>
        <time>2020-12-26T13:33:48Z</time>
      </trkpt>
      <trkpt lat="46.98891" lon="5.91038">
        <ele>792.8</ele>
        <time>2020-12-26T13:33:49Z</time>
      </trkpt>
      <trkpt lat="46.98889" lon="5.91042">
        <ele>792.8</ele>
        <time>2020-12-26T13:33:50Z</time>
      </trkpt>
      <trkpt lat="46.98886" lon="5.91045">
        <ele>793.2</ele>
        <time>2020-12-26T13:33:51Z</time>
      </trkpt>
      <trkpt lat="46.98883" lon="5.91048">
        <ele>793.2</ele>
        <time>2020-12-26T13:33:52Z</time>
      </trkpt>
      <trkpt lat="46.98881" lon="5.91052">
        <ele>793.2</ele>
        <time>2020-12-26T13:33:53Z</time>
      </trkpt>
      <trkpt lat="46.98878" lon="5.91055">
        <ele>793.4</ele>
        <time>2020-12-26T13:33:54Z</time>
      </trkpt>
      <trkpt lat="46.98875" lon="5.91059">
        <ele>793.4</ele>
        <time>2020-12-26T13:33:55Z</time>
      </trkpt>
      <trkpt lat="46.98873" lon="5.91062">
        <ele>793.4</ele>
        <time>2020-12-26T13:33:56Z</time>
      </trkpt>
      <trkpt lat="46.9887" lon="5.91065">
        <ele>793.4</ele>
        <time>2020-12-26T13:33:57Z</time>
      </trkpt>
      <trkpt lat="46.98867" lon="5.91068">
        <ele>793.6</ele>
        <time>2020-12-26T13:33:58Z</time>
      </trkpt>
      <trkpt lat="46.98865" lon="5.9107">
        <ele>793.6</ele>
        <time>2020-12-26T13:33:59Z</time>
      </trkpt>
      <trkpt lat="46.98862" lon="5.91073">
        <ele>794</ele>
        <time>2020-12-26T13:34:00Z</time>
      </trkpt>
      <trkpt lat="46.98859" lon="5.91076">
        <ele>794</ele>
        <time>2020-12-26T13:34:01Z</time>
      </trkpt>
      <trkpt lat="46.98857" lon="5.91078">
        <ele>794</ele>
        <time>2020-12-26T13:34:02Z</time>
      </trkpt>
      <trkpt lat="46.98855" lon="5.9108">
        <ele>794.2</ele>
        <time>2020-12-26T13:34:03Z</time>
      </trkpt>
      <trkpt lat="46.98853" lon="5.91082">
        <ele>794.2</ele>
        <time>2020-12-26T13:34:04Z</time>
      </trkpt>
      <trkpt lat="46.9885" lon="5.91084">
        <ele>794.2</ele>
        <time>2020-12-26T13:34:05Z</time>
      </trkpt>
      <trkpt lat="46.98848" lon="5.91086">
        <ele>794.2</ele>
        <time>2020-12-26T13:34:06Z</time>
      </trkpt>
      <trkpt lat="46.98846" lon="5.91089">
        <ele>794.4</ele>
        <time>2020-12-26T13:34:07Z</time>
      </trkpt>
      <trkpt lat="46.98844" lon="5.91092">
        <ele>794.4</ele>
        <time>2020-12-26T13:34:08Z</time>
      </trkpt>
      <trkpt lat="46.98842" lon="5.91094">
        <ele>794.6</ele>
        <time>2020-12-26T13:34:09Z</time>
      </trkpt>
      <trkpt lat="46.98839" lon="5.91096">
        <ele>794.6</ele>
        <time>2020-12-26T13:34:10Z</time>
      </trkpt>
      <trkpt lat="46.98837" lon="5.91097">
        <ele>794.6</ele>
        <time>2020-12-26T13:34:11Z</time>
      </trkpt>
      <trkpt lat="46.98835" lon="5.91098">
        <ele>794.8</ele>
        <time>2020-12-26T13:34:12Z</time>
      </trkpt>
      <trkpt lat="46.98834" lon="5.91102">
        <ele>795.4</ele>
        <time>2020-12-26T13:38:03Z</time>
      </trkpt>
      <trkpt lat="46.98832" lon="5.91103">
        <ele>795.4</ele>
        <time>2020-12-26T13:38:04Z</time>
      </trkpt>
      <trkpt lat="46.98831" lon="5.91105">
        <ele>795.4</ele>
        <time>2020-12-26T13:38:05Z</time>
      </trkpt>
      <trkpt lat="46.98829" lon="5.91106">
        <ele>795.4</ele>
        <time>2020-12-26T13:38:06Z</time>
      </trkpt>
      <trkpt lat="46.98826" lon="5.91108">
        <ele>795.4</ele>
        <time>2020-12-26T13:38:07Z</time>
      </trkpt>
      <trkpt lat="46.98823" lon="5.91109">
        <ele>795.2</ele>
        <time>2020-12-26T13:38:08Z</time>
      </trkpt>
      <trkpt lat="46.9882" lon="5.9111">
        <ele>795.2</ele>
        <time>2020-12-26T13:38:09Z</time>
      </trkpt>
      <trkpt lat="46.98816" lon="5.91111">
        <ele>795</ele>
        <time>2020-12-26T13:38:10Z</time>
      </trkpt>
      <trkpt lat="46.98811" lon="5.91111">
        <ele>795</ele>
        <time>2020-12-26T13:38:11Z</time>
      </trkpt>
      <trkpt lat="46.98807" lon="5.9111">
        <ele>794.6</ele>
        <time>2020-12-26T13:38:12Z</time>
      </trkpt>
      <trkpt lat="46.98801" lon="5.91107">
        <ele>794.6</ele>
        <time>2020-12-26T13:38:13Z</time>
      </trkpt>
      <trkpt lat="46.98796" lon="5.91105">
        <ele>794.2</ele>
        <time>2020-12-26T13:38:14Z</time>
      </trkpt>
      <trkpt lat="46.9879" lon="5.91102">
        <ele>793.8</ele>
        <time>2020-12-26T13:38:15Z</time>
      </trkpt>
      <trkpt lat="46.98783" lon="5.91099">
        <ele>793.4</ele>
        <time>2020-12-26T13:38:16Z</time>
      </trkpt>
      <trkpt lat="46.98777" lon="5.91096">
        <ele>793</ele>
        <time>2020-12-26T13:38:17Z</time>
      </trkpt>
      <trkpt lat="46.98769" lon="5.91095">
        <ele>792.6</ele>
        <time>2020-12-26T13:38:18Z</time>
      </trkpt>
      <trkpt lat="46.98762" lon="5.91095">
        <ele>792</ele>
        <time>2020-12-26T13:38:19Z</time>
      </trkpt>
      <trkpt lat="46.98755" lon="5.91097">
        <ele>791.6</ele>
        <time>2020-12-26T13:38:20Z</time>
      </trkpt>
      <trkpt lat="46.98749" lon="5.91101">
        <ele>791</ele>
        <time>2020-12-26T13:38:21Z</time>
      </trkpt>
      <trkpt lat="46.98742" lon="5.91106">
        <ele>790.6</ele>
        <time>2020-12-26T13:38:22Z</time>
      </trkpt>
      <trkpt lat="46.98735" lon="5.91113">
        <ele>790</ele>
        <time>2020-12-26T13:38:23Z</time>
      </trkpt>
      <trkpt lat="46.98729" lon="5.91121">
        <ele>789.2</ele>
        <time>2020-12-26T13:38:24Z</time>
      </trkpt>
      <trkpt lat="46.98722" lon="5.91129">
        <ele>788.6</ele>
        <time>2020-12-26T13:38:25Z</time>
      </trkpt>
      <trkpt lat="46.98714" lon="5.91138">
        <ele>787.8</ele>
        <time>2020-12-26T13:38:26Z</time>
      </trkpt>
      <trkpt lat="46.98706" lon="5.91147">
        <ele>787</ele>
        <time>2020-12-26T13:38:27Z</time>
      </trkpt>
      <trkpt lat="46.98697" lon="5.91155">
        <ele>786.2</ele>
        <time>2020-12-26T13:38:28Z</time>
      </trkpt>
      <trkpt lat="46.98687" lon="5.91164">
        <ele>785.4</ele>
        <time>2020-12-26T13:38:29Z</time>
      </trkpt>
      <trkpt lat="46.98675" lon="5.91173">
        <ele>784.4</ele>
        <time>2020-12-26T13:38:30Z</time>
      </trkpt>
      <trkpt lat="46.98664" lon="5.91182">
        <ele>783.6</ele>
        <time>2020-12-26T13:38:31Z</time>
      </trkpt>
      <trkpt lat="46.98653" lon="5.91195">
        <ele>782.6</ele>
        <time>2020-12-26T13:38:32Z</time>
      </trkpt>
      <trkpt lat="46.98643" lon="5.91208">
        <ele>781.6</ele>
        <time>2020-12-26T13:38:33Z</time>
      </trkpt>
      <trkpt lat="46.98634" lon="5.91222">
        <ele>780.6</ele>
        <time>2020-12-26T13:38:34Z</time>
      </trkpt>
      <trkpt lat="46.98626" lon="5.91235">
        <ele>779.6</ele>
        <time>2020-12-26T13:38:35Z</time>
      </trkpt>
      <trkpt lat="46.98618" lon="5.91251">
        <ele>778.8</ele>
        <time>2020-12-26T13:38:36Z</time>
      </trkpt>
      <trkpt lat="46.98609" lon="5.91268">
        <ele>777.8</ele>
        <time>2020-12-26T13:38:37Z</time>
      </trkpt>
      <trkpt lat="46.986" lon="5.91284">
        <ele>777</ele>
        <time>2020-12-26T13:38:38Z</time>
      </trkpt>
      <trkpt lat="46.98592" lon="5.913">
        <ele>776</ele>
        <time>2020-12-26T13:38:39Z</time>
      </trkpt>
      <trkpt lat="46.98585" lon="5.91314">
        <ele>775.2</ele>
        <time>2020-12-26T13:38:40Z</time>
      </trkpt>
      <trkpt lat="46.98578" lon="5.91327">
        <ele>774.2</ele>
        <time>2020-12-26T13:38:41Z</time>
      </trkpt>
      <trkpt lat="46.98571" lon="5.91337">
        <ele>773.4</ele>
        <time>2020-12-26T13:38:42Z</time>
      </trkpt>
      <trkpt lat="46.98563" lon="5.91345">
        <ele>772.4</ele>
        <time>2020-12-26T13:38:43Z</time>
      </trkpt>
      <trkpt lat="46.98554" lon="5.91351">
        <ele>771.6</ele>
        <time>2020-12-26T13:38:44Z</time>
      </trkpt>
      <trkpt lat="46.98545" lon="5.91356">
        <ele>770.6</ele>
        <time>2020-12-26T13:38:45Z</time>
      </trkpt>
      <trkpt lat="46.98535" lon="5.91359">
        <ele>770</ele>
        <time>2020-12-26T13:38:46Z</time>
      </trkpt>
      <trkpt lat="46.98526" lon="5.91362">
        <ele>769.2</ele>
        <time>2020-12-26T13:38:47Z</time>
      </trkpt>
      <trkpt lat="46.98515" lon="5.91365">
        <ele>768.2</ele>
        <time>2020-12-26T13:38:48Z</time>
      </trkpt>
      <trkpt lat="46.98503" lon="5.91367">
        <ele>767.4</ele>
        <time>2020-12-26T13:38:49Z</time>
      </trkpt>
      <trkpt lat="46.98492" lon="5.91369">
        <ele>766.6</ele>
        <time>2020-12-26T13:38:50Z</time>
      </trkpt>
      <trkpt lat="46.9848" lon="5.91371">
        <ele>765.8</ele>
        <time>2020-12-26T13:38:51Z</time>
      </trkpt>
      <trkpt lat="46.98468" lon="5.91374">
        <ele>764.8</ele>
        <time>2020-12-26T13:38:52Z</time>
      </trkpt>
      <trkpt lat="46.98457" lon="5.91375">
        <ele>763.8</ele>
        <time>2020-12-26T13:38:53Z</time>
      </trkpt>
      <trkpt lat="46.98445" lon="5.91376">
        <ele>762.8</ele>
        <time>2020-12-26T13:38:54Z</time>
      </trkpt>
      <trkpt lat="46.98432" lon="5.91376">
        <ele>762</ele>
        <time>2020-12-26T13:38:55Z</time>
      </trkpt>
      <trkpt lat="46.9842" lon="5.91376">
        <ele>761.2</ele>
        <time>2020-12-26T13:38:56Z</time>
      </trkpt>
      <trkpt lat="46.98408" lon="5.91375">
        <ele>760.2</ele>
        <time>2020-12-26T13:38:57Z</time>
      </trkpt>
      <trkpt lat="46.98396" lon="5.91375">
        <ele>759.2</ele>
        <time>2020-12-26T13:38:58Z</time>
      </trkpt>
      <trkpt lat="46.98384" lon="5.91375">
        <ele>758.4</ele>
        <time>2020-12-26T13:38:59Z</time>
      </trkpt>
      <trkpt lat="46.98372" lon="5.91373">
        <ele>757.4</ele>
        <time>2020-12-26T13:39:00Z</time>
      </trkpt>
      <trkpt lat="46.9836" lon="5.91372">
        <ele>756.4</ele>
        <time>2020-12-26T13:39:01Z</time>
      </trkpt>
      <trkpt lat="46.98346" lon="5.91372">
        <ele>755.6</ele>
        <time>2020-12-26T13:39:02Z</time>
      </trkpt>
      <trkpt lat="46.98333" lon="5.91374">
        <ele>754.4</ele>
        <time>2020-12-26T13:39:03Z</time>
      </trkpt>
      <trkpt lat="46.98319" lon="5.91374">
        <ele>753.4</ele>
        <time>2020-12-26T13:39:04Z</time>
      </trkpt>
      <trkpt lat="46.98305" lon="5.91375">
        <ele>752.6</ele>
        <time>2020-12-26T13:39:05Z</time>
      </trkpt>
      <trkpt lat="46.98292" lon="5.91376">
        <ele>751.6</ele>
        <time>2020-12-26T13:39:06Z</time>
      </trkpt>
      <trkpt lat="46.98279" lon="5.91378">
        <ele>750.6</ele>
        <time>2020-12-26T13:39:07Z</time>
      </trkpt>
      <trkpt lat="46.98265" lon="5.91379">
        <ele>749.6</ele>
        <time>2020-12-26T13:39:08Z</time>
      </trkpt>
      <trkpt lat="46.98252" lon="5.91379">
        <ele>748.6</ele>
        <time>2020-12-26T13:39:09Z</time>
      </trkpt>
      <trkpt lat="46.98239" lon="5.9138">
        <ele>747.6</ele>
        <time>2020-12-26T13:39:10Z</time>
      </trkpt>
      <trkpt lat="46.98226" lon="5.91384">
        <ele>746.6</ele>
        <time>2020-12-26T13:39:11Z</time>
      </trkpt>
      <trkpt lat="46.98214" lon="5.91388">
        <ele>745.8</ele>
        <time>2020-12-26T13:39:12Z</time>
      </trkpt>
      <trkpt lat="46.98203" lon="5.91391">
        <ele>745</ele>
        <time>2020-12-26T13:39:13Z</time>
      </trkpt>
      <trkpt lat="46.98192" lon="5.91394">
        <ele>744</ele>
        <time>2020-12-26T13:39:14Z</time>
      </trkpt>
      <trkpt lat="46.98183" lon="5.91397">
        <ele>743.2</ele>
        <time>2020-12-26T13:39:15Z</time>
      </trkpt>
      <trkpt lat="46.98175" lon="5.91398">
        <ele>742.4</ele>
        <time>2020-12-26T13:39:16Z</time>
      </trkpt>
      <trkpt lat="46.98166" lon="5.91397">
        <ele>741.6</ele>
        <time>2020-12-26T13:39:17Z</time>
      </trkpt>
      <trkpt lat="46.98158" lon="5.91394">
        <ele>741</ele>
        <time>2020-12-26T13:39:18Z</time>
      </trkpt>
      <trkpt lat="46.9815" lon="5.91389">
        <ele>740.2</ele>
        <time>2020-12-26T13:39:19Z</time>
      </trkpt>
      <trkpt lat="46.98143" lon="5.91382">
        <ele>739.4</ele>
        <time>2020-12-26T13:39:20Z</time>
      </trkpt>
      <trkpt lat="46.98135" lon="5.91373">
        <ele>738.6</ele>
        <time>2020-12-26T13:39:21Z</time>
      </trkpt>
      <trkpt lat="46.98128" lon="5.91364">
        <ele>737.8</ele>
        <time>2020-12-26T13:39:22Z</time>
      </trkpt>
      <trkpt lat="46.98121" lon="5.91355">
        <ele>736.8</ele>
        <time>2020-12-26T13:39:23Z</time>
      </trkpt>
      <trkpt lat="46.98116" lon="5.91347">
        <ele>736</ele>
        <time>2020-12-26T13:39:24Z</time>
      </trkpt>
      <trkpt lat="46.98111" lon="5.9134">
        <ele>735</ele>
        <time>2020-12-26T13:39:25Z</time>
      </trkpt>
      <trkpt lat="46.98105" lon="5.91331">
        <ele>734</ele>
        <time>2020-12-26T13:39:26Z</time>
      </trkpt>
      <trkpt lat="46.98099" lon="5.91322">
        <ele>733.2</ele>
        <time>2020-12-26T13:39:27Z</time>
      </trkpt>
      <trkpt lat="46.98094" lon="5.91312">
        <ele>732.2</ele>
        <time>2020-12-26T13:39:28Z</time>
      </trkpt>
      <trkpt lat="46.98088" lon="5.91302">
        <ele>731.2</ele>
        <time>2020-12-26T13:39:29Z</time>
      </trkpt>
      <trkpt lat="46.98081" lon="5.91291">
        <ele>730.2</ele>
        <time>2020-12-26T13:39:30Z</time>
      </trkpt>
      <trkpt lat="46.98074" lon="5.9128">
        <ele>729.4</ele>
        <time>2020-12-26T13:39:31Z</time>
      </trkpt>
      <trkpt lat="46.98067" lon="5.91269">
        <ele>728.6</ele>
        <time>2020-12-26T13:39:32Z</time>
      </trkpt>
      <trkpt lat="46.9806" lon="5.91258">
        <ele>727.8</ele>
        <time>2020-12-26T13:39:33Z</time>
      </trkpt>
      <trkpt lat="46.98054" lon="5.91246">
        <ele>727.2</ele>
        <time>2020-12-26T13:39:34Z</time>
      </trkpt>
      <trkpt lat="46.98047" lon="5.91234">
        <ele>726.4</ele>
        <time>2020-12-26T13:39:35Z</time>
      </trkpt>
      <trkpt lat="46.98041" lon="5.91222">
        <ele>725.8</ele>
        <time>2020-12-26T13:39:36Z</time>
      </trkpt>
      <trkpt lat="46.98035" lon="5.9121">
        <ele>725</ele>
        <time>2020-12-26T13:39:37Z</time>
      </trkpt>
      <trkpt lat="46.98028" lon="5.91199">
        <ele>724.2</ele>
        <time>2020-12-26T13:39:38Z</time>
      </trkpt>
      <trkpt lat="46.98021" lon="5.91188">
        <ele>723.4</ele>
        <time>2020-12-26T13:39:39Z</time>
      </trkpt>
      <trkpt lat="46.98014" lon="5.91176">
        <ele>722.4</ele>
        <time>2020-12-26T13:39:40Z</time>
      </trkpt>
      <trkpt lat="46.98005" lon="5.91164">
        <ele>721.4</ele>
        <time>2020-12-26T13:39:41Z</time>
      </trkpt>
      <trkpt lat="46.97997" lon="5.91152">
        <ele>720.4</ele>
        <time>2020-12-26T13:39:42Z</time>
      </trkpt>
      <trkpt lat="46.97988" lon="5.91139">
        <ele>719.4</ele>
        <time>2020-12-26T13:39:43Z</time>
      </trkpt>
      <trkpt lat="46.97979" lon="5.91127">
        <ele>718.2</ele>
        <time>2020-12-26T13:39:44Z</time>
      </trkpt>
      <trkpt lat="46.97969" lon="5.91115">
        <ele>717</ele>
        <time>2020-12-26T13:39:45Z</time>
      </trkpt>
      <trkpt lat="46.9796" lon="5.91105">
        <ele>716</ele>
        <time>2020-12-26T13:39:46Z</time>
      </trkpt>
      <trkpt lat="46.9795" lon="5.91097">
        <ele>715</ele>
        <time>2020-12-26T13:39:47Z</time>
      </trkpt>
      <trkpt lat="46.9794" lon="5.91091">
        <ele>714</ele>
        <time>2020-12-26T13:39:48Z</time>
      </trkpt>
      <trkpt lat="46.97929" lon="5.91085">
        <ele>713</ele>
        <time>2020-12-26T13:39:49Z</time>
      </trkpt>
      <trkpt lat="46.97918" lon="5.91079">
        <ele>712.2</ele>
        <time>2020-12-26T13:39:50Z</time>
      </trkpt>
      <trkpt lat="46.97908" lon="5.91071">
        <ele>711</ele>
        <time>2020-12-26T13:39:51Z</time>
      </trkpt>
      <trkpt lat="46.97898" lon="5.91064">
        <ele>710</ele>
        <time>2020-12-26T13:39:52Z</time>
      </trkpt>
      <trkpt lat="46.97888" lon="5.91055">
        <ele>709</ele>
        <time>2020-12-26T13:39:53Z</time>
      </trkpt>
      <trkpt lat="46.97878" lon="5.91047">
        <ele>708.2</ele>
        <time>2020-12-26T13:39:54Z</time>
      </trkpt>
      <trkpt lat="46.97868" lon="5.91039">
        <ele>707.4</ele>
        <time>2020-12-26T13:39:55Z</time>
      </trkpt>
      <trkpt lat="46.97858" lon="5.91031">
        <ele>706.6</ele>
        <time>2020-12-26T13:39:56Z</time>
      </trkpt>
      <trkpt lat="46.97848" lon="5.91022">
        <ele>705.6</ele>
        <time>2020-12-26T13:39:57Z</time>
      </trkpt>
      <trkpt lat="46.97837" lon="5.91012">
        <ele>704.8</ele>
        <time>2020-12-26T13:39:58Z</time>
      </trkpt>
      <trkpt lat="46.97826" lon="5.91004">
        <ele>704</ele>
        <time>2020-12-26T13:39:59Z</time>
      </trkpt>
      <trkpt lat="46.97816" lon="5.90996">
        <ele>703.2</ele>
        <time>2020-12-26T13:40:00Z</time>
      </trkpt>
      <trkpt lat="46.97805" lon="5.9099">
        <ele>702.4</ele>
        <time>2020-12-26T13:40:01Z</time>
      </trkpt>
      <trkpt lat="46.97795" lon="5.90983">
        <ele>701.6</ele>
        <time>2020-12-26T13:40:02Z</time>
      </trkpt>
      <trkpt lat="46.97785" lon="5.90976">
        <ele>701</ele>
        <time>2020-12-26T13:40:03Z</time>
      </trkpt>
      <trkpt lat="46.97775" lon="5.90971">
        <ele>700.4</ele>
        <time>2020-12-26T13:40:04Z</time>
      </trkpt>
      <trkpt lat="46.97766" lon="5.90966">
        <ele>699.8</ele>
        <time>2020-12-26T13:40:05Z</time>
      </trkpt>
      <trkpt lat="46.97757" lon="5.90959">
        <ele>699</ele>
        <time>2020-12-26T13:40:06Z</time>
      </trkpt>
      <trkpt lat="46.97752" lon="5.90951">
        <ele>698.6</ele>
        <time>2020-12-26T13:40:07Z</time>
      </trkpt>
      <trkpt lat="46.97747" lon="5.90945">
        <ele>698</ele>
        <time>2020-12-26T13:40:08Z</time>
      </trkpt>
      <trkpt lat="46.97743" lon="5.90939">
        <ele>697.4</ele>
        <time>2020-12-26T13:40:09Z</time>
      </trkpt>
      <trkpt lat="46.97739" lon="5.90936">
        <ele>697</ele>
        <time>2020-12-26T13:40:10Z</time>
      </trkpt>
      <trkpt lat="46.97735" lon="5.90935">
        <ele>696.6</ele>
        <time>2020-12-26T13:40:11Z</time>
      </trkpt>
      <trkpt lat="46.97731" lon="5.90936">
        <ele>696.4</ele>
        <time>2020-12-26T13:40:12Z</time>
      </trkpt>
      <trkpt lat="46.97729" lon="5.9094">
        <ele>696</ele>
        <time>2020-12-26T13:40:13Z</time>
      </trkpt>
      <trkpt lat="46.97728" lon="5.90944">
        <ele>695.8</ele>
        <time>2020-12-26T13:40:14Z</time>
      </trkpt>
      <trkpt lat="46.97728" lon="5.90949">
        <ele>695.8</ele>
        <time>2020-12-26T13:40:15Z</time>
      </trkpt>
      <trkpt lat="46.9773" lon="5.90953">
        <ele>695.4</ele>
        <time>2020-12-26T13:40:16Z</time>
      </trkpt>
      <trkpt lat="46.97733" lon="5.90957">
        <ele>695.4</ele>
        <time>2020-12-26T13:40:17Z</time>
      </trkpt>
      <trkpt lat="46.97736" lon="5.90961">
        <ele>695.4</ele>
        <time>2020-12-26T13:40:18Z</time>
      </trkpt>
      <trkpt lat="46.9774" lon="5.90966">
        <ele>695.2</ele>
        <time>2020-12-26T13:40:19Z</time>
      </trkpt>
      <trkpt lat="46.97744" lon="5.90971">
        <ele>695.2</ele>
        <time>2020-12-26T13:40:20Z</time>
      </trkpt>
      <trkpt lat="46.97748" lon="5.90976">
        <ele>695.2</ele>
        <time>2020-12-26T13:40:21Z</time>
      </trkpt>
      <trkpt lat="46.97751" lon="5.90982">
        <ele>695</ele>
        <time>2020-12-26T13:40:22Z</time>
      </trkpt>
      <trkpt lat="46.97755" lon="5.90988">
        <ele>695</ele>
        <time>2020-12-26T13:40:23Z</time>
      </trkpt>
      <trkpt lat="46.97759" lon="5.90995">
        <ele>695</ele>
        <time>2020-12-26T13:40:24Z</time>
      </trkpt>
      <trkpt lat="46.97764" lon="5.91001">
        <ele>694.8</ele>
        <time>2020-12-26T13:40:25Z</time>
      </trkpt>
      <trkpt lat="46.97769" lon="5.91007">
        <ele>694.8</ele>
        <time>2020-12-26T13:40:26Z</time>
      </trkpt>
      <trkpt lat="46.97774" lon="5.91013">
        <ele>694.8</ele>
        <time>2020-12-26T13:40:27Z</time>
      </trkpt>
      <trkpt lat="46.97779" lon="5.91018">
        <ele>694.8</ele>
        <time>2020-12-26T13:40:28Z</time>
      </trkpt>
      <trkpt lat="46.97784" lon="5.91024">
        <ele>694.8</ele>
        <time>2020-12-26T13:40:29Z</time>
      </trkpt>
      <trkpt lat="46.97788" lon="5.91029">
        <ele>694.8</ele>
        <time>2020-12-26T13:40:30Z</time>
      </trkpt>
      <trkpt lat="46.97792" lon="5.91034">
        <ele>694.6</ele>
        <time>2020-12-26T13:40:31Z</time>
      </trkpt>
      <trkpt lat="46.97797" lon="5.91041">
        <ele>694.6</ele>
        <time>2020-12-26T13:40:32Z</time>
      </trkpt>
      <trkpt lat="46.97802" lon="5.91046">
        <ele>694.2</ele>
        <time>2020-12-26T13:40:33Z</time>
      </trkpt>
      <trkpt lat="46.97808" lon="5.91052">
        <ele>694.2</ele>
        <time>2020-12-26T13:40:34Z</time>
      </trkpt>
      <trkpt lat="46.97813" lon="5.91058">
        <ele>694.2</ele>
        <time>2020-12-26T13:40:35Z</time>
      </trkpt>
      <trkpt lat="46.97819" lon="5.91065">
        <ele>694.2</ele>
        <time>2020-12-26T13:40:36Z</time>
      </trkpt>
      <trkpt lat="46.97824" lon="5.91071">
        <ele>694</ele>
        <time>2020-12-26T13:40:37Z</time>
      </trkpt>
      <trkpt lat="46.97831" lon="5.91078">
        <ele>694</ele>
        <time>2020-12-26T13:40:38Z</time>
      </trkpt>
      <trkpt lat="46.97837" lon="5.91085">
        <ele>693.8</ele>
        <time>2020-12-26T13:40:39Z</time>
      </trkpt>
      <trkpt lat="46.97843" lon="5.91092">
        <ele>693.8</ele>
        <time>2020-12-26T13:40:40Z</time>
      </trkpt>
      <trkpt lat="46.97849" lon="5.91099">
        <ele>693.6</ele>
        <time>2020-12-26T13:40:41Z</time>
      </trkpt>
      <trkpt lat="46.97855" lon="5.91106">
        <ele>693.6</ele>
        <time>2020-12-26T13:40:42Z</time>
      </trkpt>
      <trkpt lat="46.97861" lon="5.91113">
        <ele>693.2</ele>
        <time>2020-12-26T13:40:43Z</time>
      </trkpt>
      <trkpt lat="46.97868" lon="5.9112">
        <ele>693.2</ele>
        <time>2020-12-26T13:40:44Z</time>
      </trkpt>
      <trkpt lat="46.97874" lon="5.91127">
        <ele>693</ele>
        <time>2020-12-26T13:40:45Z</time>
      </trkpt>
      <trkpt lat="46.97881" lon="5.91134">
        <ele>693</ele>
        <time>2020-12-26T13:40:46Z</time>
      </trkpt>
      <trkpt lat="46.97887" lon="5.91141">
        <ele>692.8</ele>
        <time>2020-12-26T13:40:47Z</time>
      </trkpt>
      <trkpt lat="46.97893" lon="5.91149">
        <ele>692.6</ele>
        <time>2020-12-26T13:40:48Z</time>
      </trkpt>
      <trkpt lat="46.97898" lon="5.91156">
        <ele>692.4</ele>
        <time>2020-12-26T13:40:49Z</time>
      </trkpt>
      <trkpt lat="46.97903" lon="5.91165">
        <ele>692.4</ele>
        <time>2020-12-26T13:40:50Z</time>
      </trkpt>
      <trkpt lat="46.97908" lon="5.91174">
        <ele>692</ele>
        <time>2020-12-26T13:40:51Z</time>
      </trkpt>
      <trkpt lat="46.97913" lon="5.91183">
        <ele>692</ele>
        <time>2020-12-26T13:40:52Z</time>
      </trkpt>
      <trkpt lat="46.97917" lon="5.91192">
        <ele>691.6</ele>
        <time>2020-12-26T13:40:53Z</time>
      </trkpt>
      <trkpt lat="46.97922" lon="5.91201">
        <ele>691.6</ele>
        <time>2020-12-26T13:40:54Z</time>
      </trkpt>
      <trkpt lat="46.97927" lon="5.9121">
        <ele>691.4</ele>
        <time>2020-12-26T13:40:55Z</time>
      </trkpt>
      <trkpt lat="46.97932" lon="5.9122">
        <ele>691.4</ele>
        <time>2020-12-26T13:40:56Z</time>
      </trkpt>
      <trkpt lat="46.97938" lon="5.91229">
        <ele>691.2</ele>
        <time>2020-12-26T13:40:57Z</time>
      </trkpt>
      <trkpt lat="46.97944" lon="5.91239">
        <ele>691.2</ele>
        <time>2020-12-26T13:40:58Z</time>
      </trkpt>
      <trkpt lat="46.97949" lon="5.91249">
        <ele>690.8</ele>
        <time>2020-12-26T13:40:59Z</time>
      </trkpt>
      <trkpt lat="46.97954" lon="5.91259">
        <ele>690.8</ele>
        <time>2020-12-26T13:41:00Z</time>
      </trkpt>
      <trkpt lat="46.97959" lon="5.91269">
        <ele>690.8</ele>
        <time>2020-12-26T13:41:01Z</time>
      </trkpt>
      <trkpt lat="46.97965" lon="5.91279">
        <ele>690.6</ele>
        <time>2020-12-26T13:41:02Z</time>
      </trkpt>
      <trkpt lat="46.9797" lon="5.91289">
        <ele>690.6</ele>
        <time>2020-12-26T13:41:03Z</time>
      </trkpt>
      <trkpt lat="46.97975" lon="5.91299">
        <ele>690.6</ele>
        <time>2020-12-26T13:41:04Z</time>
      </trkpt>
      <trkpt lat="46.9798" lon="5.91309">
        <ele>690.6</ele>
        <time>2020-12-26T13:41:05Z</time>
      </trkpt>
      <trkpt lat="46.97985" lon="5.91319">
        <ele>690.6</ele>
        <time>2020-12-26T13:41:06Z</time>
      </trkpt>
      <trkpt lat="46.9799" lon="5.91328">
        <ele>690.2</ele>
        <time>2020-12-26T13:41:07Z</time>
      </trkpt>
      <trkpt lat="46.97995" lon="5.91339">
        <ele>690</ele>
        <time>2020-12-26T13:41:08Z</time>
      </trkpt>
      <trkpt lat="46.98" lon="5.9135">
        <ele>690</ele>
        <time>2020-12-26T13:41:09Z</time>
      </trkpt>
      <trkpt lat="46.98004" lon="5.91361">
        <ele>689.8</ele>
        <time>2020-12-26T13:41:10Z</time>
      </trkpt>
      <trkpt lat="46.98009" lon="5.91372">
        <ele>689.8</ele>
        <time>2020-12-26T13:41:11Z</time>
      </trkpt>
      <trkpt lat="46.98014" lon="5.91384">
        <ele>689.4</ele>
        <time>2020-12-26T13:41:12Z</time>
      </trkpt>
      <trkpt lat="46.98018" lon="5.91395">
        <ele>689.2</ele>
        <time>2020-12-26T13:41:13Z</time>
      </trkpt>
      <trkpt lat="46.98023" lon="5.91408">
        <ele>689</ele>
        <time>2020-12-26T13:41:14Z</time>
      </trkpt>
      <trkpt lat="46.98028" lon="5.9142">
        <ele>688.6</ele>
        <time>2020-12-26T13:41:15Z</time>
      </trkpt>
      <trkpt lat="46.98032" lon="5.91432">
        <ele>688.6</ele>
        <time>2020-12-26T13:41:16Z</time>
      </trkpt>
      <trkpt lat="46.98037" lon="5.91445">
        <ele>688.2</ele>
        <time>2020-12-26T13:41:17Z</time>
      </trkpt>
      <trkpt lat="46.98041" lon="5.91457">
        <ele>688.2</ele>
        <time>2020-12-26T13:41:18Z</time>
      </trkpt>
      <trkpt lat="46.98045" lon="5.9147">
        <ele>688</ele>
        <time>2020-12-26T13:41:19Z</time>
      </trkpt>
      <trkpt lat="46.98049" lon="5.91482">
        <ele>688</ele>
        <time>2020-12-26T13:41:20Z</time>
      </trkpt>
      <trkpt lat="46.98053" lon="5.91495">
        <ele>687.4</ele>
        <time>2020-12-26T13:41:21Z</time>
      </trkpt>
      <trkpt lat="46.98058" lon="5.91506">
        <ele>687.2</ele>
        <time>2020-12-26T13:41:22Z</time>
      </trkpt>
      <trkpt lat="46.98063" lon="5.91518">
        <ele>687</ele>
        <time>2020-12-26T13:41:23Z</time>
      </trkpt>
      <trkpt lat="46.98067" lon="5.9153">
        <ele>686.8</ele>
        <time>2020-12-26T13:41:24Z</time>
      </trkpt>
      <trkpt lat="46.98072" lon="5.91542">
        <ele>686.6</ele>
        <time>2020-12-26T13:41:25Z</time>
      </trkpt>
      <trkpt lat="46.98077" lon="5.91553">
        <ele>686.2</ele>
        <time>2020-12-26T13:41:26Z</time>
      </trkpt>
      <trkpt lat="46.98082" lon="5.91565">
        <ele>686.2</ele>
        <time>2020-12-26T13:41:27Z</time>
      </trkpt>
      <trkpt lat="46.98087" lon="5.91576">
        <ele>686</ele>
        <time>2020-12-26T13:41:28Z</time>
      </trkpt>
      <trkpt lat="46.98092" lon="5.91586">
        <ele>686</ele>
        <time>2020-12-26T13:41:29Z</time>
      </trkpt>
      <trkpt lat="46.98098" lon="5.91597">
        <ele>685.4</ele>
        <time>2020-12-26T13:41:30Z</time>
      </trkpt>
      <trkpt lat="46.98104" lon="5.91606">
        <ele>685.2</ele>
        <time>2020-12-26T13:41:31Z</time>
      </trkpt>
      <trkpt lat="46.98111" lon="5.91616">
        <ele>685</ele>
        <time>2020-12-26T13:41:32Z</time>
      </trkpt>
      <trkpt lat="46.98118" lon="5.91625">
        <ele>684.6</ele>
        <time>2020-12-26T13:41:33Z</time>
      </trkpt>
      <trkpt lat="46.98125" lon="5.91634">
        <ele>684.4</ele>
        <time>2020-12-26T13:41:34Z</time>
      </trkpt>
      <trkpt lat="46.98132" lon="5.91643">
        <ele>684.4</ele>
        <time>2020-12-26T13:41:35Z</time>
      </trkpt>
      <trkpt lat="46.98139" lon="5.91652">
        <ele>684.2</ele>
        <time>2020-12-26T13:41:36Z</time>
      </trkpt>
      <trkpt lat="46.98147" lon="5.9166">
        <ele>683.8</ele>
        <time>2020-12-26T13:41:37Z</time>
      </trkpt>
      <trkpt lat="46.98154" lon="5.91669">
        <ele>683.6</ele>
        <time>2020-12-26T13:41:38Z</time>
      </trkpt>
      <trkpt lat="46.98162" lon="5.91677">
        <ele>683.6</ele>
        <time>2020-12-26T13:41:39Z</time>
      </trkpt>
      <trkpt lat="46.98171" lon="5.91684">
        <ele>683.4</ele>
        <time>2020-12-26T13:41:40Z</time>
      </trkpt>
      <trkpt lat="46.98179" lon="5.91691">
        <ele>683</ele>
        <time>2020-12-26T13:41:41Z</time>
      </trkpt>
      <trkpt lat="46.98187" lon="5.91698">
        <ele>682.8</ele>
        <time>2020-12-26T13:41:42Z</time>
      </trkpt>
      <trkpt lat="46.98196" lon="5.91705">
        <ele>682.4</ele>
        <time>2020-12-26T13:41:43Z</time>
      </trkpt>
      <trkpt lat="46.98205" lon="5.91711">
        <ele>682.4</ele>
        <time>2020-12-26T13:41:44Z</time>
      </trkpt>
      <trkpt lat="46.98214" lon="5.91718">
        <ele>682.2</ele>
        <time>2020-12-26T13:41:45Z</time>
      </trkpt>
      <trkpt lat="46.98223" lon="5.91724">
        <ele>682</ele>
        <time>2020-12-26T13:41:46Z</time>
      </trkpt>
      <trkpt lat="46.98231" lon="5.91731">
        <ele>681.6</ele>
        <time>2020-12-26T13:41:47Z</time>
      </trkpt>
      <trkpt lat="46.98239" lon="5.91737">
        <ele>681.4</ele>
        <time>2020-12-26T13:41:48Z</time>
      </trkpt>
      <trkpt lat="46.98248" lon="5.91742">
        <ele>681.4</ele>
        <time>2020-12-26T13:41:49Z</time>
      </trkpt>
      <trkpt lat="46.98257" lon="5.91747">
        <ele>681</ele>
        <time>2020-12-26T13:41:50Z</time>
      </trkpt>
      <trkpt lat="46.98266" lon="5.91752">
        <ele>681</ele>
        <time>2020-12-26T13:41:51Z</time>
      </trkpt>
      <trkpt lat="46.98275" lon="5.91755">
        <ele>680.6</ele>
        <time>2020-12-26T13:41:52Z</time>
      </trkpt>
      <trkpt lat="46.98283" lon="5.91759">
        <ele>680.6</ele>
        <time>2020-12-26T13:41:53Z</time>
      </trkpt>
      <trkpt lat="46.98292" lon="5.91762">
        <ele>680.2</ele>
        <time>2020-12-26T13:41:54Z</time>
      </trkpt>
      <trkpt lat="46.983" lon="5.91764">
        <ele>680.2</ele>
        <time>2020-12-26T13:41:55Z</time>
      </trkpt>
      <trkpt lat="46.98308" lon="5.91767">
        <ele>680.2</ele>
        <time>2020-12-26T13:41:56Z</time>
      </trkpt>
      <trkpt lat="46.98317" lon="5.9177">
        <ele>680.2</ele>
        <time>2020-12-26T13:41:57Z</time>
      </trkpt>
      <trkpt lat="46.98326" lon="5.91773">
        <ele>680</ele>
        <time>2020-12-26T13:41:58Z</time>
      </trkpt>
      <trkpt lat="46.98334" lon="5.91775">
        <ele>680</ele>
        <time>2020-12-26T13:41:59Z</time>
      </trkpt>
      <trkpt lat="46.98343" lon="5.91777">
        <ele>680</ele>
        <time>2020-12-26T13:42:00Z</time>
      </trkpt>
      <trkpt lat="46.98352" lon="5.91779">
        <ele>680</ele>
        <time>2020-12-26T13:42:01Z</time>
      </trkpt>
      <trkpt lat="46.98359" lon="5.91781">
        <ele>680</ele>
        <time>2020-12-26T13:42:02Z</time>
      </trkpt>
      <trkpt lat="46.98367" lon="5.91783">
        <ele>679.8</ele>
        <time>2020-12-26T13:42:03Z</time>
      </trkpt>
      <trkpt lat="46.98375" lon="5.91785">
        <ele>679.8</ele>
        <time>2020-12-26T13:42:04Z</time>
      </trkpt>
      <trkpt lat="46.98383" lon="5.91787">
        <ele>679.8</ele>
        <time>2020-12-26T13:42:05Z</time>
      </trkpt>
      <trkpt lat="46.98392" lon="5.9179">
        <ele>679.8</ele>
        <time>2020-12-26T13:42:06Z</time>
      </trkpt>
      <trkpt lat="46.984" lon="5.91793">
        <ele>679.8</ele>
        <time>2020-12-26T13:42:07Z</time>
      </trkpt>
      <trkpt lat="46.98409" lon="5.91795">
        <ele>679.6</ele>
        <time>2020-12-26T13:42:08Z</time>
      </trkpt>
      <trkpt lat="46.98418" lon="5.91799">
        <ele>679.6</ele>
        <time>2020-12-26T13:42:09Z</time>
      </trkpt>
      <trkpt lat="46.98427" lon="5.91803">
        <ele>679.2</ele>
        <time>2020-12-26T13:42:10Z</time>
      </trkpt>
      <trkpt lat="46.98437" lon="5.91807">
        <ele>679.2</ele>
        <time>2020-12-26T13:42:11Z</time>
      </trkpt>
      <trkpt lat="46.98446" lon="5.91812">
        <ele>679</ele>
        <time>2020-12-26T13:42:12Z</time>
      </trkpt>
      <trkpt lat="46.98454" lon="5.91818">
        <ele>679</ele>
        <time>2020-12-26T13:42:13Z</time>
      </trkpt>
      <trkpt lat="46.98462" lon="5.91823">
        <ele>678.6</ele>
        <time>2020-12-26T13:42:14Z</time>
      </trkpt>
      <trkpt lat="46.98471" lon="5.91828">
        <ele>678.6</ele>
        <time>2020-12-26T13:42:15Z</time>
      </trkpt>
      <trkpt lat="46.9848" lon="5.91833">
        <ele>678.6</ele>
        <time>2020-12-26T13:42:16Z</time>
      </trkpt>
      <trkpt lat="46.98489" lon="5.91838">
        <ele>678.6</ele>
        <time>2020-12-26T13:42:17Z</time>
      </trkpt>
      <trkpt lat="46.98498" lon="5.91843">
        <ele>678.4</ele>
        <time>2020-12-26T13:42:18Z</time>
      </trkpt>
      <trkpt lat="46.98507" lon="5.91848">
        <ele>678.4</ele>
        <time>2020-12-26T13:42:19Z</time>
      </trkpt>
      <trkpt lat="46.98516" lon="5.91853">
        <ele>678.4</ele>
        <time>2020-12-26T13:42:20Z</time>
      </trkpt>
      <trkpt lat="46.98526" lon="5.91858">
        <ele>678.4</ele>
        <time>2020-12-26T13:42:21Z</time>
      </trkpt>
      <trkpt lat="46.98535" lon="5.91863">
        <ele>678.2</ele>
        <time>2020-12-26T13:42:22Z</time>
      </trkpt>
      <trkpt lat="46.98544" lon="5.91869">
        <ele>678.2</ele>
        <time>2020-12-26T13:42:23Z</time>
      </trkpt>
      <trkpt lat="46.98553" lon="5.91874">
        <ele>677.8</ele>
        <time>2020-12-26T13:42:24Z</time>
      </trkpt>
      <trkpt lat="46.98563" lon="5.91878">
        <ele>677.8</ele>
        <time>2020-12-26T13:42:25Z</time>
      </trkpt>
      <trkpt lat="46.98572" lon="5.91882">
        <ele>677.6</ele>
        <time>2020-12-26T13:42:26Z</time>
      </trkpt>
      <trkpt lat="46.98581" lon="5.91886">
        <ele>677.6</ele>
        <time>2020-12-26T13:42:27Z</time>
      </trkpt>
      <trkpt lat="46.9859" lon="5.9189">
        <ele>677.6</ele>
        <time>2020-12-26T13:42:28Z</time>
      </trkpt>
      <trkpt lat="46.98599" lon="5.91895">
        <ele>677.4</ele>
        <time>2020-12-26T13:42:29Z</time>
      </trkpt>
      <trkpt lat="46.98607" lon="5.91899">
        <ele>677.4</ele>
        <time>2020-12-26T13:42:30Z</time>
      </trkpt>
      <trkpt lat="46.98616" lon="5.91903">
        <ele>677.4</ele>
        <time>2020-12-26T13:42:31Z</time>
      </trkpt>
      <trkpt lat="46.98625" lon="5.91907">
        <ele>677.4</ele>
        <time>2020-12-26T13:42:32Z</time>
      </trkpt>
      <trkpt lat="46.98634" lon="5.9191">
        <ele>677.4</ele>
        <time>2020-12-26T13:42:33Z</time>
      </trkpt>
      <trkpt lat="46.98644" lon="5.91913">
        <ele>677</ele>
        <time>2020-12-26T13:42:34Z</time>
      </trkpt>
      <trkpt lat="46.98654" lon="5.91917">
        <ele>677</ele>
        <time>2020-12-26T13:42:35Z</time>
      </trkpt>
      <trkpt lat="46.98663" lon="5.9192">
        <ele>676.8</ele>
        <time>2020-12-26T13:42:36Z</time>
      </trkpt>
      <trkpt lat="46.98672" lon="5.91923">
        <ele>676.8</ele>
        <time>2020-12-26T13:42:37Z</time>
      </trkpt>
      <trkpt lat="46.98681" lon="5.91926">
        <ele>676.4</ele>
        <time>2020-12-26T13:42:38Z</time>
      </trkpt>
      <trkpt lat="46.98689" lon="5.91928">
        <ele>676.4</ele>
        <time>2020-12-26T13:42:39Z</time>
      </trkpt>
      <trkpt lat="46.98697" lon="5.9193">
        <ele>676</ele>
        <time>2020-12-26T13:42:40Z</time>
      </trkpt>
      <trkpt lat="46.98705" lon="5.91931">
        <ele>676</ele>
        <time>2020-12-26T13:42:41Z</time>
      </trkpt>
      <trkpt lat="46.98713" lon="5.91932">
        <ele>675.8</ele>
        <time>2020-12-26T13:42:42Z</time>
      </trkpt>
      <trkpt lat="46.98722" lon="5.91933">
        <ele>675.8</ele>
        <time>2020-12-26T13:42:43Z</time>
      </trkpt>
      <trkpt lat="46.9873" lon="5.91934">
        <ele>675.8</ele>
        <time>2020-12-26T13:42:44Z</time>
      </trkpt>
      <trkpt lat="46.98738" lon="5.91934">
        <ele>675.8</ele>
        <time>2020-12-26T13:42:45Z</time>
      </trkpt>
      <trkpt lat="46.98746" lon="5.91935">
        <ele>675.6</ele>
        <time>2020-12-26T13:42:46Z</time>
      </trkpt>
      <trkpt lat="46.98755" lon="5.91936">
        <ele>675.6</ele>
        <time>2020-12-26T13:42:47Z</time>
      </trkpt>
      <trkpt lat="46.98763" lon="5.91937">
        <ele>675.6</ele>
        <time>2020-12-26T13:42:48Z</time>
      </trkpt>
      <trkpt lat="46.98771" lon="5.91938">
        <ele>675.4</ele>
        <time>2020-12-26T13:42:49Z</time>
      </trkpt>
      <trkpt lat="46.98779" lon="5.91939">
        <ele>675.4</ele>
        <time>2020-12-26T13:42:50Z</time>
      </trkpt>
      <trkpt lat="46.98787" lon="5.91941">
        <ele>675</ele>
        <time>2020-12-26T13:42:51Z</time>
      </trkpt>
      <trkpt lat="46.98796" lon="5.91942">
        <ele>675</ele>
        <time>2020-12-26T13:42:52Z</time>
      </trkpt>
      <trkpt lat="46.98805" lon="5.91943">
        <ele>674.8</ele>
        <time>2020-12-26T13:42:53Z</time>
      </trkpt>
      <trkpt lat="46.98813" lon="5.91944">
        <ele>674.8</ele>
        <time>2020-12-26T13:42:54Z</time>
      </trkpt>
      <trkpt lat="46.98821" lon="5.91946">
        <ele>674.8</ele>
        <time>2020-12-26T13:42:55Z</time>
      </trkpt>
      <trkpt lat="46.98828" lon="5.91947">
        <ele>674.6</ele>
        <time>2020-12-26T13:42:56Z</time>
      </trkpt>
      <trkpt lat="46.98836" lon="5.91949">
        <ele>674.6</ele>
        <time>2020-12-26T13:42:57Z</time>
      </trkpt>
      <trkpt lat="46.98844" lon="5.91952">
        <ele>674.4</ele>
        <time>2020-12-26T13:42:58Z</time>
      </trkpt>
      <trkpt lat="46.98852" lon="5.91954">
        <ele>674.4</ele>
        <time>2020-12-26T13:42:59Z</time>
      </trkpt>
      <trkpt lat="46.9886" lon="5.91957">
        <ele>674.4</ele>
        <time>2020-12-26T13:43:00Z</time>
      </trkpt>
      <trkpt lat="46.98869" lon="5.9196">
        <ele>674.4</ele>
        <time>2020-12-26T13:43:01Z</time>
      </trkpt>
      <trkpt lat="46.98878" lon="5.91964">
        <ele>674.4</ele>
        <time>2020-12-26T13:43:02Z</time>
      </trkpt>
      <trkpt lat="46.98889" lon="5.91967">
        <ele>674.4</ele>
        <time>2020-12-26T13:43:03Z</time>
      </trkpt>
      <trkpt lat="46.98898" lon="5.91969">
        <ele>674.4</ele>
        <time>2020-12-26T13:43:04Z</time>
      </trkpt>
      <trkpt lat="46.98909" lon="5.91972">
        <ele>674</ele>
        <time>2020-12-26T13:43:05Z</time>
      </trkpt>
      <trkpt lat="46.98919" lon="5.91976">
        <ele>674</ele>
        <time>2020-12-26T13:43:06Z</time>
      </trkpt>
      <trkpt lat="46.98928" lon="5.9198">
        <ele>674</ele>
        <time>2020-12-26T13:43:07Z</time>
      </trkpt>
      <trkpt lat="46.98938" lon="5.91984">
        <ele>673.6</ele>
        <time>2020-12-26T13:43:08Z</time>
      </trkpt>
      <trkpt lat="46.98947" lon="5.91989">
        <ele>673.6</ele>
        <time>2020-12-26T13:43:09Z</time>
      </trkpt>
      <trkpt lat="46.98955" lon="5.91993">
        <ele>673.2</ele>
        <time>2020-12-26T13:43:10Z</time>
      </trkpt>
      <trkpt lat="46.98965" lon="5.91996">
        <ele>673.2</ele>
        <time>2020-12-26T13:43:11Z</time>
      </trkpt>
      <trkpt lat="46.98974" lon="5.92">
        <ele>672.8</ele>
        <time>2020-12-26T13:43:12Z</time>
      </trkpt>
      <trkpt lat="46.98983" lon="5.92005">
        <ele>672.8</ele>
        <time>2020-12-26T13:43:13Z</time>
      </trkpt>
      <trkpt lat="46.98993" lon="5.92009">
        <ele>672.8</ele>
        <time>2020-12-26T13:43:14Z</time>
      </trkpt>
      <trkpt lat="46.99003" lon="5.92014">
        <ele>672.8</ele>
        <time>2020-12-26T13:43:15Z</time>
      </trkpt>
      <trkpt lat="46.99016" lon="5.92021">
        <ele>672.6</ele>
        <time>2020-12-26T13:43:16Z</time>
      </trkpt>
      <trkpt lat="46.99027" lon="5.92027">
        <ele>672.6</ele>
        <time>2020-12-26T13:43:17Z</time>
      </trkpt>
      <trkpt lat="46.99038" lon="5.92032">
        <ele>672.4</ele>
        <time>2020-12-26T13:43:18Z</time>
      </trkpt>
      <trkpt lat="46.99049" lon="5.92037">
        <ele>672.4</ele>
        <time>2020-12-26T13:43:19Z</time>
      </trkpt>
      <trkpt lat="46.99059" lon="5.92043">
        <ele>672</ele>
        <time>2020-12-26T13:43:20Z</time>
      </trkpt>
      <trkpt lat="46.99068" lon="5.92048">
        <ele>672</ele>
        <time>2020-12-26T13:43:21Z</time>
      </trkpt>
      <trkpt lat="46.99077" lon="5.92052">
        <ele>671.8</ele>
        <time>2020-12-26T13:43:22Z</time>
      </trkpt>
      <trkpt lat="46.99086" lon="5.92055">
        <ele>671.8</ele>
        <time>2020-12-26T13:43:23Z</time>
      </trkpt>
      <trkpt lat="46.99094" lon="5.92058">
        <ele>671.6</ele>
        <time>2020-12-26T13:43:24Z</time>
      </trkpt>
      <trkpt lat="46.99103" lon="5.9206">
        <ele>671.6</ele>
        <time>2020-12-26T13:43:25Z</time>
      </trkpt>
      <trkpt lat="46.99112" lon="5.92061">
        <ele>671.6</ele>
        <time>2020-12-26T13:43:26Z</time>
      </trkpt>
      <trkpt lat="46.99121" lon="5.92062">
        <ele>671.2</ele>
        <time>2020-12-26T13:43:27Z</time>
      </trkpt>
      <trkpt lat="46.99129" lon="5.92063">
        <ele>671.2</ele>
        <time>2020-12-26T13:43:28Z</time>
      </trkpt>
      <trkpt lat="46.99137" lon="5.92064">
        <ele>671</ele>
        <time>2020-12-26T13:43:29Z</time>
      </trkpt>
      <trkpt lat="46.99146" lon="5.92066">
        <ele>671</ele>
        <time>2020-12-26T13:43:30Z</time>
      </trkpt>
      <trkpt lat="46.99154" lon="5.92069">
        <ele>671</ele>
        <time>2020-12-26T13:43:31Z</time>
      </trkpt>
      <trkpt lat="46.99164" lon="5.92072">
        <ele>671</ele>
        <time>2020-12-26T13:43:32Z</time>
      </trkpt>
      <trkpt lat="46.99172" lon="5.92075">
        <ele>671</ele>
        <time>2020-12-26T13:43:33Z</time>
      </trkpt>
      <trkpt lat="46.99181" lon="5.92078">
        <ele>671</ele>
        <time>2020-12-26T13:43:34Z</time>
      </trkpt>
      <trkpt lat="46.9919" lon="5.92082">
        <ele>670.6</ele>
        <time>2020-12-26T13:43:35Z</time>
      </trkpt>
      <trkpt lat="46.99199" lon="5.92085">
        <ele>670.6</ele>
        <time>2020-12-26T13:43:36Z</time>
      </trkpt>
      <trkpt lat="46.99207" lon="5.92088">
        <ele>670.6</ele>
        <time>2020-12-26T13:43:37Z</time>
      </trkpt>
      <trkpt lat="46.99216" lon="5.9209">
        <ele>670.6</ele>
        <time>2020-12-26T13:43:38Z</time>
      </trkpt>
      <trkpt lat="46.99225" lon="5.92092">
        <ele>670.6</ele>
        <time>2020-12-26T13:43:39Z</time>
      </trkpt>
      <trkpt lat="46.99234" lon="5.92093">
        <ele>670.6</ele>
        <time>2020-12-26T13:43:40Z</time>
      </trkpt>
      <trkpt lat="46.99243" lon="5.92094">
        <ele>670.6</ele>
        <time>2020-12-26T13:43:41Z</time>
      </trkpt>
      <trkpt lat="46.99252" lon="5.92094">
        <ele>670.4</ele>
        <time>2020-12-26T13:43:42Z</time>
      </trkpt>
      <trkpt lat="46.99261" lon="5.92093">
        <ele>670.4</ele>
        <time>2020-12-26T13:43:43Z</time>
      </trkpt>
      <trkpt lat="46.9927" lon="5.92093">
        <ele>670.4</ele>
        <time>2020-12-26T13:43:44Z</time>
      </trkpt>
      <trkpt lat="46.99278" lon="5.92093">
        <ele>670</ele>
        <time>2020-12-26T13:43:45Z</time>
      </trkpt>
      <trkpt lat="46.99287" lon="5.92093">
        <ele>670</ele>
        <time>2020-12-26T13:43:46Z</time>
      </trkpt>
      <trkpt lat="46.99296" lon="5.92093">
        <ele>670</ele>
        <time>2020-12-26T13:43:47Z</time>
      </trkpt>
      <trkpt lat="46.99304" lon="5.92094">
        <ele>669.8</ele>
        <time>2020-12-26T13:43:48Z</time>
      </trkpt>
      <trkpt lat="46.99313" lon="5.92094">
        <ele>669.8</ele>
        <time>2020-12-26T13:43:49Z</time>
      </trkpt>
      <trkpt lat="46.99322" lon="5.92095">
        <ele>669.8</ele>
        <time>2020-12-26T13:43:50Z</time>
      </trkpt>
      <trkpt lat="46.9933" lon="5.92095">
        <ele>669.6</ele>
        <time>2020-12-26T13:43:51Z</time>
      </trkpt>
      <trkpt lat="46.99339" lon="5.92094">
        <ele>669.6</ele>
        <time>2020-12-26T13:43:52Z</time>
      </trkpt>
      <trkpt lat="46.99348" lon="5.92094">
        <ele>669.4</ele>
        <time>2020-12-26T13:43:53Z</time>
      </trkpt>
      <trkpt lat="46.99357" lon="5.92094">
        <ele>669.4</ele>
        <time>2020-12-26T13:43:54Z</time>
      </trkpt>
      <trkpt lat="46.99367" lon="5.92094">
        <ele>669</ele>
        <time>2020-12-26T13:43:55Z</time>
      </trkpt>
      <trkpt lat="46.99375" lon="5.92095">
        <ele>668.8</ele>
        <time>2020-12-26T13:43:56Z</time>
      </trkpt>
      <trkpt lat="46.99384" lon="5.92095">
        <ele>668.6</ele>
        <time>2020-12-26T13:43:57Z</time>
      </trkpt>
      <trkpt lat="46.99392" lon="5.92096">
        <ele>668.4</ele>
        <time>2020-12-26T13:43:58Z</time>
      </trkpt>
      <trkpt lat="46.99401" lon="5.92096">
        <ele>668.4</ele>
        <time>2020-12-26T13:43:59Z</time>
      </trkpt>
      <trkpt lat="46.9941" lon="5.92094">
        <ele>668.4</ele>
        <time>2020-12-26T13:44:00Z</time>
      </trkpt>
      <trkpt lat="46.99418" lon="5.92092">
        <ele>668.4</ele>
        <time>2020-12-26T13:44:01Z</time>
      </trkpt>
      <trkpt lat="46.99426" lon="5.92088">
        <ele>668.4</ele>
        <time>2020-12-26T13:44:02Z</time>
      </trkpt>
      <trkpt lat="46.99435" lon="5.92083">
        <ele>668.2</ele>
        <time>2020-12-26T13:44:03Z</time>
      </trkpt>
      <trkpt lat="46.99443" lon="5.92078">
        <ele>668.2</ele>
        <time>2020-12-26T13:44:04Z</time>
      </trkpt>
      <trkpt lat="46.9945" lon="5.92072">
        <ele>668.2</ele>
        <time>2020-12-26T13:44:05Z</time>
      </trkpt>
      <trkpt lat="46.99457" lon="5.92066">
        <ele>667.8</ele>
        <time>2020-12-26T13:44:06Z</time>
      </trkpt>
      <trkpt lat="46.99465" lon="5.9206">
        <ele>667.8</ele>
        <time>2020-12-26T13:44:07Z</time>
      </trkpt>
      <trkpt lat="46.99473" lon="5.92055">
        <ele>667.6</ele>
        <time>2020-12-26T13:44:08Z</time>
      </trkpt>
      <trkpt lat="46.9948" lon="5.9205">
        <ele>667.4</ele>
        <time>2020-12-26T13:44:09Z</time>
      </trkpt>
      <trkpt lat="46.99489" lon="5.92045">
        <ele>667.2</ele>
        <time>2020-12-26T13:44:10Z</time>
      </trkpt>
      <trkpt lat="46.99497" lon="5.92041">
        <ele>667</ele>
        <time>2020-12-26T13:44:11Z</time>
      </trkpt>
      <trkpt lat="46.99506" lon="5.92037">
        <ele>667</ele>
        <time>2020-12-26T13:44:12Z</time>
      </trkpt>
      <trkpt lat="46.99514" lon="5.92035">
        <ele>666.6</ele>
        <time>2020-12-26T13:44:13Z</time>
      </trkpt>
      <trkpt lat="46.99523" lon="5.92034">
        <ele>666.4</ele>
        <time>2020-12-26T13:44:14Z</time>
      </trkpt>
      <trkpt lat="46.99531" lon="5.92033">
        <ele>666.4</ele>
        <time>2020-12-26T13:44:15Z</time>
      </trkpt>
      <trkpt lat="46.9954" lon="5.92032">
        <ele>666.4</ele>
        <time>2020-12-26T13:44:16Z</time>
      </trkpt>
      <trkpt lat="46.99549" lon="5.92032">
        <ele>666.2</ele>
        <time>2020-12-26T13:44:17Z</time>
      </trkpt>
      <trkpt lat="46.99558" lon="5.92031">
        <ele>666.2</ele>
        <time>2020-12-26T13:44:18Z</time>
      </trkpt>
      <trkpt lat="46.99568" lon="5.92031">
        <ele>665.8</ele>
        <time>2020-12-26T13:44:19Z</time>
      </trkpt>
      <trkpt lat="46.99578" lon="5.92032">
        <ele>665.6</ele>
        <time>2020-12-26T13:44:20Z</time>
      </trkpt>
      <trkpt lat="46.99588" lon="5.92034">
        <ele>665.6</ele>
        <time>2020-12-26T13:44:21Z</time>
      </trkpt>
      <trkpt lat="46.99599" lon="5.92037">
        <ele>665.2</ele>
        <time>2020-12-26T13:44:22Z</time>
      </trkpt>
      <trkpt lat="46.99609" lon="5.92041">
        <ele>664.8</ele>
        <time>2020-12-26T13:44:23Z</time>
      </trkpt>
      <trkpt lat="46.99619" lon="5.92045">
        <ele>664.6</ele>
        <time>2020-12-26T13:44:24Z</time>
      </trkpt>
      <trkpt lat="46.99629" lon="5.92049">
        <ele>664.2</ele>
        <time>2020-12-26T13:44:25Z</time>
      </trkpt>
      <trkpt lat="46.9964" lon="5.92053">
        <ele>664</ele>
        <time>2020-12-26T13:44:26Z</time>
      </trkpt>
      <trkpt lat="46.9965" lon="5.92057">
        <ele>663.6</ele>
        <time>2020-12-26T13:44:27Z</time>
      </trkpt>
      <trkpt lat="46.99662" lon="5.92062">
        <ele>663.2</ele>
        <time>2020-12-26T13:44:28Z</time>
      </trkpt>
      <trkpt lat="46.99672" lon="5.92067">
        <ele>662.8</ele>
        <time>2020-12-26T13:44:29Z</time>
      </trkpt>
      <trkpt lat="46.99683" lon="5.92072">
        <ele>662.4</ele>
        <time>2020-12-26T13:44:30Z</time>
      </trkpt>
      <trkpt lat="46.99694" lon="5.92076">
        <ele>662</ele>
        <time>2020-12-26T13:44:31Z</time>
      </trkpt>
      <trkpt lat="46.99705" lon="5.92083">
        <ele>661.4</ele>
        <time>2020-12-26T13:44:32Z</time>
      </trkpt>
      <trkpt lat="46.99716" lon="5.92089">
        <ele>660.6</ele>
        <time>2020-12-26T13:44:33Z</time>
      </trkpt>
      <trkpt lat="46.99727" lon="5.92093">
        <ele>660.2</ele>
        <time>2020-12-26T13:44:34Z</time>
      </trkpt>
      <trkpt lat="46.9974" lon="5.92096">
        <ele>659.6</ele>
        <time>2020-12-26T13:44:35Z</time>
      </trkpt>
      <trkpt lat="46.99753" lon="5.92098">
        <ele>659</ele>
        <time>2020-12-26T13:44:36Z</time>
      </trkpt>
      <trkpt lat="46.99765" lon="5.92101">
        <ele>658.2</ele>
        <time>2020-12-26T13:44:37Z</time>
      </trkpt>
      <trkpt lat="46.99776" lon="5.92101">
        <ele>657.8</ele>
        <time>2020-12-26T13:44:38Z</time>
      </trkpt>
      <trkpt lat="46.99787" lon="5.92102">
        <ele>657.2</ele>
        <time>2020-12-26T13:44:39Z</time>
      </trkpt>
      <trkpt lat="46.99799" lon="5.92104">
        <ele>656.6</ele>
        <time>2020-12-26T13:44:40Z</time>
      </trkpt>
      <trkpt lat="46.99811" lon="5.92106">
        <ele>656</ele>
        <time>2020-12-26T13:44:41Z</time>
      </trkpt>
      <trkpt lat="46.99822" lon="5.92107">
        <ele>655.4</ele>
        <time>2020-12-26T13:44:42Z</time>
      </trkpt>
      <trkpt lat="46.99833" lon="5.92107">
        <ele>655</ele>
        <time>2020-12-26T13:44:43Z</time>
      </trkpt>
      <trkpt lat="46.99844" lon="5.92107">
        <ele>654.6</ele>
        <time>2020-12-26T13:44:44Z</time>
      </trkpt>
      <trkpt lat="46.99855" lon="5.92105">
        <ele>653.8</ele>
        <time>2020-12-26T13:44:45Z</time>
      </trkpt>
      <trkpt lat="46.99866" lon="5.92101">
        <ele>653.4</ele>
        <time>2020-12-26T13:44:46Z</time>
      </trkpt>
      <trkpt lat="46.99877" lon="5.92095">
        <ele>652.8</ele>
        <time>2020-12-26T13:44:47Z</time>
      </trkpt>
      <trkpt lat="46.99888" lon="5.92086">
        <ele>652.2</ele>
        <time>2020-12-26T13:44:48Z</time>
      </trkpt>
      <trkpt lat="46.99897" lon="5.92076">
        <ele>651.6</ele>
        <time>2020-12-26T13:44:49Z</time>
      </trkpt>
      <trkpt lat="46.99906" lon="5.92066">
        <ele>651</ele>
        <time>2020-12-26T13:44:50Z</time>
      </trkpt>
      <trkpt lat="46.99915" lon="5.92058">
        <ele>650.4</ele>
        <time>2020-12-26T13:44:51Z</time>
      </trkpt>
      <trkpt lat="46.99926" lon="5.92055">
        <ele>649.6</ele>
        <time>2020-12-26T13:44:52Z</time>
      </trkpt>
      <trkpt lat="46.99936" lon="5.92054">
        <ele>649</ele>
        <time>2020-12-26T13:44:53Z</time>
      </trkpt>
      <trkpt lat="46.99947" lon="5.92057">
        <ele>648.2</ele>
        <time>2020-12-26T13:44:54Z</time>
      </trkpt>
      <trkpt lat="46.99957" lon="5.92064">
        <ele>647.6</ele>
        <time>2020-12-26T13:44:55Z</time>
      </trkpt>
      <trkpt lat="46.99967" lon="5.92072">
        <ele>647</ele>
        <time>2020-12-26T13:44:56Z</time>
      </trkpt>
      <trkpt lat="46.99978" lon="5.9208">
        <ele>646.6</ele>
        <time>2020-12-26T13:44:57Z</time>
      </trkpt>
      <trkpt lat="46.99988" lon="5.92086">
        <ele>646</ele>
        <time>2020-12-26T13:44:58Z</time>
      </trkpt>
      <trkpt lat="46.99999" lon="5.92092">
        <ele>645.2</ele>
        <time>2020-12-26T13:44:59Z</time>
      </trkpt>
      <trkpt lat="47.0001" lon="5.92097">
        <ele>644.6</ele>
        <time>2020-12-26T13:45:00Z</time>
      </trkpt>
      <trkpt lat="47.0002" lon="5.92101">
        <ele>643.8</ele>
        <time>2020-12-26T13:45:01Z</time>
      </trkpt>
      <trkpt lat="47.00032" lon="5.92106">
        <ele>643.2</ele>
        <time>2020-12-26T13:45:02Z</time>
      </trkpt>
      <trkpt lat="47.00044" lon="5.92112">
        <ele>642.4</ele>
        <time>2020-12-26T13:45:03Z</time>
      </trkpt>
      <trkpt lat="47.00056" lon="5.92119">
        <ele>641.6</ele>
        <time>2020-12-26T13:45:04Z</time>
      </trkpt>
      <trkpt lat="47.00067" lon="5.92127">
        <ele>641</ele>
        <time>2020-12-26T13:45:05Z</time>
      </trkpt>
      <trkpt lat="47.00078" lon="5.92135">
        <ele>640.4</ele>
        <time>2020-12-26T13:45:06Z</time>
      </trkpt>
      <trkpt lat="47.0009" lon="5.92143">
        <ele>639.6</ele>
        <time>2020-12-26T13:45:07Z</time>
      </trkpt>
      <trkpt lat="47.00101" lon="5.92151">
        <ele>639</ele>
        <time>2020-12-26T13:45:08Z</time>
      </trkpt>
      <trkpt lat="47.00113" lon="5.92159">
        <ele>638.2</ele>
        <time>2020-12-26T13:45:09Z</time>
      </trkpt>
      <trkpt lat="47.00124" lon="5.92166">
        <ele>637.6</ele>
        <time>2020-12-26T13:45:10Z</time>
      </trkpt>
      <trkpt lat="47.00134" lon="5.92174">
        <ele>636.8</ele>
        <time>2020-12-26T13:45:11Z</time>
      </trkpt>
      <trkpt lat="47.00145" lon="5.92182">
        <ele>636</ele>
        <time>2020-12-26T13:45:12Z</time>
      </trkpt>
      <trkpt lat="47.00156" lon="5.92191">
        <ele>635.2</ele>
        <time>2020-12-26T13:45:13Z</time>
      </trkpt>
      <trkpt lat="47.00167" lon="5.92199">
        <ele>634.4</ele>
        <time>2020-12-26T13:45:14Z</time>
      </trkpt>
      <trkpt lat="47.00178" lon="5.92207">
        <ele>633.6</ele>
        <time>2020-12-26T13:45:15Z</time>
      </trkpt>
      <trkpt lat="47.0019" lon="5.92215">
        <ele>633</ele>
        <time>2020-12-26T13:45:16Z</time>
      </trkpt>
      <trkpt lat="47.00201" lon="5.92224">
        <ele>632.2</ele>
        <time>2020-12-26T13:45:17Z</time>
      </trkpt>
      <trkpt lat="47.00213" lon="5.92233">
        <ele>631.4</ele>
        <time>2020-12-26T13:45:18Z</time>
      </trkpt>
      <trkpt lat="47.00225" lon="5.92243">
        <ele>630.6</ele>
        <time>2020-12-26T13:45:19Z</time>
      </trkpt>
      <trkpt lat="47.00235" lon="5.92255">
        <ele>630</ele>
        <time>2020-12-26T13:45:20Z</time>
      </trkpt>
      <trkpt lat="47.00245" lon="5.92268">
        <ele>629.2</ele>
        <time>2020-12-26T13:45:21Z</time>
      </trkpt>
      <trkpt lat="47.00255" lon="5.92281">
        <ele>628.6</ele>
        <time>2020-12-26T13:45:22Z</time>
      </trkpt>
      <trkpt lat="47.00265" lon="5.92294">
        <ele>628</ele>
        <time>2020-12-26T13:45:23Z</time>
      </trkpt>
      <trkpt lat="47.00275" lon="5.92307">
        <ele>627.2</ele>
        <time>2020-12-26T13:45:24Z</time>
      </trkpt>
      <trkpt lat="47.00284" lon="5.92321">
        <ele>626.4</ele>
        <time>2020-12-26T13:45:25Z</time>
      </trkpt>
      <trkpt lat="47.00293" lon="5.92334">
        <ele>625.6</ele>
        <time>2020-12-26T13:45:26Z</time>
      </trkpt>
      <trkpt lat="47.00303" lon="5.92348">
        <ele>624.8</ele>
        <time>2020-12-26T13:45:27Z</time>
      </trkpt>
      <trkpt lat="47.00312" lon="5.92362">
        <ele>624</ele>
        <time>2020-12-26T13:45:28Z</time>
      </trkpt>
      <trkpt lat="47.00321" lon="5.92376">
        <ele>623.2</ele>
        <time>2020-12-26T13:45:29Z</time>
      </trkpt>
      <trkpt lat="47.0033" lon="5.9239">
        <ele>622.4</ele>
        <time>2020-12-26T13:45:30Z</time>
      </trkpt>
      <trkpt lat="47.00339" lon="5.92405">
        <ele>621.8</ele>
        <time>2020-12-26T13:45:31Z</time>
      </trkpt>
      <trkpt lat="47.00347" lon="5.92419">
        <ele>621</ele>
        <time>2020-12-26T13:45:32Z</time>
      </trkpt>
      <trkpt lat="47.00356" lon="5.92433">
        <ele>620.4</ele>
        <time>2020-12-26T13:45:33Z</time>
      </trkpt>
      <trkpt lat="47.00364" lon="5.92447">
        <ele>619.6</ele>
        <time>2020-12-26T13:45:34Z</time>
      </trkpt>
      <trkpt lat="47.00373" lon="5.92461">
        <ele>619</ele>
        <time>2020-12-26T13:45:35Z</time>
      </trkpt>
      <trkpt lat="47.00382" lon="5.92476">
        <ele>618</ele>
        <time>2020-12-26T13:45:36Z</time>
      </trkpt>
      <trkpt lat="47.00391" lon="5.9249">
        <ele>617.4</ele>
        <time>2020-12-26T13:45:37Z</time>
      </trkpt>
      <trkpt lat="47.00399" lon="5.92505">
        <ele>616.8</ele>
        <time>2020-12-26T13:45:38Z</time>
      </trkpt>
      <trkpt lat="47.00406" lon="5.9252">
        <ele>616</ele>
        <time>2020-12-26T13:45:39Z</time>
      </trkpt>
      <trkpt lat="47.00414" lon="5.92535">
        <ele>615.6</ele>
        <time>2020-12-26T13:45:40Z</time>
      </trkpt>
      <trkpt lat="47.00422" lon="5.92549">
        <ele>615</ele>
        <time>2020-12-26T13:45:41Z</time>
      </trkpt>
      <trkpt lat="47.0043" lon="5.92563">
        <ele>614.6</ele>
        <time>2020-12-26T13:45:42Z</time>
      </trkpt>
      <trkpt lat="47.0044" lon="5.92577">
        <ele>613.8</ele>
        <time>2020-12-26T13:45:43Z</time>
      </trkpt>
      <trkpt lat="47.00449" lon="5.92591">
        <ele>613.2</ele>
        <time>2020-12-26T13:45:44Z</time>
      </trkpt>
      <trkpt lat="47.00458" lon="5.92604">
        <ele>612.4</ele>
        <time>2020-12-26T13:45:45Z</time>
      </trkpt>
      <trkpt lat="47.00469" lon="5.92616">
        <ele>611.6</ele>
        <time>2020-12-26T13:45:46Z</time>
      </trkpt>
      <trkpt lat="47.00479" lon="5.9263">
        <ele>610.6</ele>
        <time>2020-12-26T13:45:47Z</time>
      </trkpt>
      <trkpt lat="47.00488" lon="5.92645">
        <ele>610</ele>
        <time>2020-12-26T13:45:48Z</time>
      </trkpt>
      <trkpt lat="47.00498" lon="5.92659">
        <ele>609.4</ele>
        <time>2020-12-26T13:45:49Z</time>
      </trkpt>
      <trkpt lat="47.00509" lon="5.92672">
        <ele>608.6</ele>
        <time>2020-12-26T13:45:50Z</time>
      </trkpt>
      <trkpt lat="47.00518" lon="5.92684">
        <ele>608</ele>
        <time>2020-12-26T13:45:51Z</time>
      </trkpt>
      <trkpt lat="47.00529" lon="5.92697">
        <ele>607.2</ele>
        <time>2020-12-26T13:45:52Z</time>
      </trkpt>
      <trkpt lat="47.00541" lon="5.92708">
        <ele>606.4</ele>
        <time>2020-12-26T13:45:53Z</time>
      </trkpt>
      <trkpt lat="47.00553" lon="5.92717">
        <ele>605.6</ele>
        <time>2020-12-26T13:45:54Z</time>
      </trkpt>
      <trkpt lat="47.00566" lon="5.92726">
        <ele>604.8</ele>
        <time>2020-12-26T13:45:55Z</time>
      </trkpt>
      <trkpt lat="47.00578" lon="5.92733">
        <ele>604.2</ele>
        <time>2020-12-26T13:45:56Z</time>
      </trkpt>
      <trkpt lat="47.00591" lon="5.9274">
        <ele>603.4</ele>
        <time>2020-12-26T13:45:57Z</time>
      </trkpt>
      <trkpt lat="47.00603" lon="5.92746">
        <ele>602.6</ele>
        <time>2020-12-26T13:45:58Z</time>
      </trkpt>
      <trkpt lat="47.00615" lon="5.92753">
        <ele>601.8</ele>
        <time>2020-12-26T13:45:59Z</time>
      </trkpt>
      <trkpt lat="47.00628" lon="5.9276">
        <ele>601.2</ele>
        <time>2020-12-26T13:46:00Z</time>
      </trkpt>
      <trkpt lat="47.00641" lon="5.92767">
        <ele>600.6</ele>
        <time>2020-12-26T13:46:01Z</time>
      </trkpt>
      <trkpt lat="47.00654" lon="5.92775">
        <ele>599.6</ele>
        <time>2020-12-26T13:46:02Z</time>
      </trkpt>
      <trkpt lat="47.00667" lon="5.92783">
        <ele>598.8</ele>
        <time>2020-12-26T13:46:03Z</time>
      </trkpt>
      <trkpt lat="47.00679" lon="5.92791">
        <ele>598</ele>
        <time>2020-12-26T13:46:04Z</time>
      </trkpt>
      <trkpt lat="47.00691" lon="5.928">
        <ele>597.4</ele>
        <time>2020-12-26T13:46:05Z</time>
      </trkpt>
      <trkpt lat="47.00701" lon="5.92809">
        <ele>596.6</ele>
        <time>2020-12-26T13:46:06Z</time>
      </trkpt>
      <trkpt lat="47.00711" lon="5.92815">
        <ele>596</ele>
        <time>2020-12-26T13:46:07Z</time>
      </trkpt>
      <trkpt lat="47.00721" lon="5.9282">
        <ele>595.2</ele>
        <time>2020-12-26T13:46:08Z</time>
      </trkpt>
      <trkpt lat="47.00731" lon="5.92821">
        <ele>594.6</ele>
        <time>2020-12-26T13:46:09Z</time>
      </trkpt>
      <trkpt lat="47.00741" lon="5.92819">
        <ele>594</ele>
        <time>2020-12-26T13:46:10Z</time>
      </trkpt>
      <trkpt lat="47.00751" lon="5.92812">
        <ele>593.4</ele>
        <time>2020-12-26T13:46:11Z</time>
      </trkpt>
      <trkpt lat="47.00759" lon="5.92802">
        <ele>592.6</ele>
        <time>2020-12-26T13:46:12Z</time>
      </trkpt>
      <trkpt lat="47.00769" lon="5.92795">
        <ele>592</ele>
        <time>2020-12-26T13:46:13Z</time>
      </trkpt>
      <trkpt lat="47.0078" lon="5.92794">
        <ele>591.4</ele>
        <time>2020-12-26T13:46:14Z</time>
      </trkpt>
      <trkpt lat="47.0079" lon="5.92796">
        <ele>590.8</ele>
        <time>2020-12-26T13:46:15Z</time>
      </trkpt>
      <trkpt lat="47.008" lon="5.92801">
        <ele>590</ele>
        <time>2020-12-26T13:46:16Z</time>
      </trkpt>
      <trkpt lat="47.00809" lon="5.9281">
        <ele>589.6</ele>
        <time>2020-12-26T13:46:17Z</time>
      </trkpt>
      <trkpt lat="47.00817" lon="5.92821">
        <ele>588.8</ele>
        <time>2020-12-26T13:46:18Z</time>
      </trkpt>
      <trkpt lat="47.00824" lon="5.92833">
        <ele>588</ele>
        <time>2020-12-26T13:46:19Z</time>
      </trkpt>
      <trkpt lat="47.00832" lon="5.92845">
        <ele>587.6</ele>
        <time>2020-12-26T13:46:20Z</time>
      </trkpt>
      <trkpt lat="47.0084" lon="5.92857">
        <ele>587</ele>
        <time>2020-12-26T13:46:21Z</time>
      </trkpt>
      <trkpt lat="47.00848" lon="5.92869">
        <ele>586.6</ele>
        <time>2020-12-26T13:46:22Z</time>
      </trkpt>
      <trkpt lat="47.00857" lon="5.9288">
        <ele>586.2</ele>
        <time>2020-12-26T13:46:23Z</time>
      </trkpt>
      <trkpt lat="47.00866" lon="5.9289">
        <ele>585.6</ele>
        <time>2020-12-26T13:46:24Z</time>
      </trkpt>
      <trkpt lat="47.00876" lon="5.92898">
        <ele>585</ele>
        <time>2020-12-26T13:46:25Z</time>
      </trkpt>
      <trkpt lat="47.00887" lon="5.92906">
        <ele>584.6</ele>
        <time>2020-12-26T13:46:26Z</time>
      </trkpt>
      <trkpt lat="47.00897" lon="5.92912">
        <ele>584</ele>
        <time>2020-12-26T13:46:27Z</time>
      </trkpt>
      <trkpt lat="47.00909" lon="5.92915">
        <ele>583.2</ele>
        <time>2020-12-26T13:46:28Z</time>
      </trkpt>
      <trkpt lat="47.0092" lon="5.92915">
        <ele>582.4</ele>
        <time>2020-12-26T13:46:29Z</time>
      </trkpt>
      <trkpt lat="47.00932" lon="5.92914">
        <ele>581.8</ele>
        <time>2020-12-26T13:46:30Z</time>
      </trkpt>
      <trkpt lat="47.00944" lon="5.92911">
        <ele>581</ele>
        <time>2020-12-26T13:46:31Z</time>
      </trkpt>
      <trkpt lat="47.00956" lon="5.92907">
        <ele>580.2</ele>
        <time>2020-12-26T13:46:32Z</time>
      </trkpt>
      <trkpt lat="47.00967" lon="5.92903">
        <ele>579.4</ele>
        <time>2020-12-26T13:46:33Z</time>
      </trkpt>
      <trkpt lat="47.00977" lon="5.92897">
        <ele>578.8</ele>
        <time>2020-12-26T13:46:34Z</time>
      </trkpt>
      <trkpt lat="47.00987" lon="5.92891">
        <ele>578</ele>
        <time>2020-12-26T13:46:35Z</time>
      </trkpt>
      <trkpt lat="47.00997" lon="5.92884">
        <ele>577.6</ele>
        <time>2020-12-26T13:46:36Z</time>
      </trkpt>
      <trkpt lat="47.01007" lon="5.92878">
        <ele>577</ele>
        <time>2020-12-26T13:46:37Z</time>
      </trkpt>
      <trkpt lat="47.01017" lon="5.92876">
        <ele>576.4</ele>
        <time>2020-12-26T13:46:38Z</time>
      </trkpt>
      <trkpt lat="47.01028" lon="5.92876">
        <ele>575.8</ele>
        <time>2020-12-26T13:46:39Z</time>
      </trkpt>
      <trkpt lat="47.01038" lon="5.9288">
        <ele>575</ele>
        <time>2020-12-26T13:46:40Z</time>
      </trkpt>
      <trkpt lat="47.01048" lon="5.9289">
        <ele>574.2</ele>
        <time>2020-12-26T13:46:41Z</time>
      </trkpt>
      <trkpt lat="47.01056" lon="5.92902">
        <ele>573.4</ele>
        <time>2020-12-26T13:46:42Z</time>
      </trkpt>
      <trkpt lat="47.01063" lon="5.92915">
        <ele>572.6</ele>
        <time>2020-12-26T13:46:43Z</time>
      </trkpt>
      <trkpt lat="47.01069" lon="5.92929">
        <ele>572</ele>
        <time>2020-12-26T13:46:44Z</time>
      </trkpt>
      <trkpt lat="47.01076" lon="5.92942">
        <ele>571.6</ele>
        <time>2020-12-26T13:46:45Z</time>
      </trkpt>
      <trkpt lat="47.01083" lon="5.92956">
        <ele>571.2</ele>
        <time>2020-12-26T13:46:46Z</time>
      </trkpt>
      <trkpt lat="47.0109" lon="5.92969">
        <ele>571.2</ele>
        <time>2020-12-26T13:46:47Z</time>
      </trkpt>
      <trkpt lat="47.01097" lon="5.92982">
        <ele>570.8</ele>
        <time>2020-12-26T13:46:48Z</time>
      </trkpt>
      <trkpt lat="47.01104" lon="5.92995">
        <ele>570.8</ele>
        <time>2020-12-26T13:46:49Z</time>
      </trkpt>
      <trkpt lat="47.0111" lon="5.93008">
        <ele>570.4</ele>
        <time>2020-12-26T13:46:50Z</time>
      </trkpt>
      <trkpt lat="47.01117" lon="5.93023">
        <ele>570.2</ele>
        <time>2020-12-26T13:46:51Z</time>
      </trkpt>
      <trkpt lat="47.01122" lon="5.93038">
        <ele>569.8</ele>
        <time>2020-12-26T13:46:52Z</time>
      </trkpt>
      <trkpt lat="47.01127" lon="5.93053">
        <ele>569.8</ele>
        <time>2020-12-26T13:46:53Z</time>
      </trkpt>
      <trkpt lat="47.01132" lon="5.93068">
        <ele>569.4</ele>
        <time>2020-12-26T13:46:54Z</time>
      </trkpt>
      <trkpt lat="47.01137" lon="5.93081">
        <ele>569.2</ele>
        <time>2020-12-26T13:46:55Z</time>
      </trkpt>
      <trkpt lat="47.01143" lon="5.93095">
        <ele>568.8</ele>
        <time>2020-12-26T13:46:56Z</time>
      </trkpt>
      <trkpt lat="47.01149" lon="5.93108">
        <ele>568.4</ele>
        <time>2020-12-26T13:46:57Z</time>
      </trkpt>
      <trkpt lat="47.01157" lon="5.9312">
        <ele>568.2</ele>
        <time>2020-12-26T13:46:58Z</time>
      </trkpt>
      <trkpt lat="47.01166" lon="5.9313">
        <ele>567.8</ele>
        <time>2020-12-26T13:46:59Z</time>
      </trkpt>
      <trkpt lat="47.01175" lon="5.93139">
        <ele>567.4</ele>
        <time>2020-12-26T13:47:00Z</time>
      </trkpt>
      <trkpt lat="47.01185" lon="5.93147">
        <ele>566.6</ele>
        <time>2020-12-26T13:47:01Z</time>
      </trkpt>
      <trkpt lat="47.01195" lon="5.93155">
        <ele>566</ele>
        <time>2020-12-26T13:47:02Z</time>
      </trkpt>
      <trkpt lat="47.01205" lon="5.93163">
        <ele>565.4</ele>
        <time>2020-12-26T13:47:03Z</time>
      </trkpt>
      <trkpt lat="47.01215" lon="5.93172">
        <ele>565</ele>
        <time>2020-12-26T13:47:04Z</time>
      </trkpt>
      <trkpt lat="47.01225" lon="5.93183">
        <ele>564.4</ele>
        <time>2020-12-26T13:47:05Z</time>
      </trkpt>
      <trkpt lat="47.01233" lon="5.93194">
        <ele>564</ele>
        <time>2020-12-26T13:47:06Z</time>
      </trkpt>
      <trkpt lat="47.01241" lon="5.93206">
        <ele>563.8</ele>
        <time>2020-12-26T13:47:07Z</time>
      </trkpt>
      <trkpt lat="47.01247" lon="5.93219">
        <ele>563.8</ele>
        <time>2020-12-26T13:47:08Z</time>
      </trkpt>
      <trkpt lat="47.01251" lon="5.93232">
        <ele>563.8</ele>
        <time>2020-12-26T13:47:09Z</time>
      </trkpt>
      <trkpt lat="47.01255" lon="5.93247">
        <ele>563.8</ele>
        <time>2020-12-26T13:47:10Z</time>
      </trkpt>
      <trkpt lat="47.01258" lon="5.93262">
        <ele>563.6</ele>
        <time>2020-12-26T13:47:11Z</time>
      </trkpt>
      <trkpt lat="47.0126" lon="5.93277">
        <ele>563.6</ele>
        <time>2020-12-26T13:47:12Z</time>
      </trkpt>
      <trkpt lat="47.01265" lon="5.9329">
        <ele>563.6</ele>
        <time>2020-12-26T13:47:13Z</time>
      </trkpt>
      <trkpt lat="47.0127" lon="5.93302">
        <ele>563.6</ele>
        <time>2020-12-26T13:47:14Z</time>
      </trkpt>
      <trkpt lat="47.01276" lon="5.93314">
        <ele>563.6</ele>
        <time>2020-12-26T13:47:15Z</time>
      </trkpt>
      <trkpt lat="47.01282" lon="5.93326">
        <ele>563.6</ele>
        <time>2020-12-26T13:47:16Z</time>
      </trkpt>
      <trkpt lat="47.01289" lon="5.93335">
        <ele>563.8</ele>
        <time>2020-12-26T13:47:17Z</time>
      </trkpt>
      <trkpt lat="47.01296" lon="5.93345">
        <ele>563.8</ele>
        <time>2020-12-26T13:47:18Z</time>
      </trkpt>
      <trkpt lat="47.01303" lon="5.93353">
        <ele>564</ele>
        <time>2020-12-26T13:47:19Z</time>
      </trkpt>
      <trkpt lat="47.0131" lon="5.93361">
        <ele>564.2</ele>
        <time>2020-12-26T13:47:20Z</time>
      </trkpt>
      <trkpt lat="47.01315" lon="5.93369">
        <ele>564.4</ele>
        <time>2020-12-26T13:47:21Z</time>
      </trkpt>
      <trkpt lat="47.01321" lon="5.93377">
        <ele>564.8</ele>
        <time>2020-12-26T13:47:22Z</time>
      </trkpt>
      <trkpt lat="47.01326" lon="5.93386">
        <ele>565</ele>
        <time>2020-12-26T13:47:23Z</time>
      </trkpt>
      <trkpt lat="47.01331" lon="5.93394">
        <ele>565</ele>
        <time>2020-12-26T13:47:24Z</time>
      </trkpt>
      <trkpt lat="47.01335" lon="5.93402">
        <ele>565.2</ele>
        <time>2020-12-26T13:47:25Z</time>
      </trkpt>
      <trkpt lat="47.0134" lon="5.93411">
        <ele>565.2</ele>
        <time>2020-12-26T13:47:26Z</time>
      </trkpt>
      <trkpt lat="47.01345" lon="5.9342">
        <ele>565.2</ele>
        <time>2020-12-26T13:47:27Z</time>
      </trkpt>
      <trkpt lat="47.01349" lon="5.93429">
        <ele>565.2</ele>
        <time>2020-12-26T13:47:28Z</time>
      </trkpt>
      <trkpt lat="47.01355" lon="5.93438">
        <ele>565.2</ele>
        <time>2020-12-26T13:47:29Z</time>
      </trkpt>
      <trkpt lat="47.0136" lon="5.93446">
        <ele>565.2</ele>
        <time>2020-12-26T13:47:30Z</time>
      </trkpt>
      <trkpt lat="47.01365" lon="5.93455">
        <ele>565.2</ele>
        <time>2020-12-26T13:47:31Z</time>
      </trkpt>
      <trkpt lat="47.01369" lon="5.93464">
        <ele>565.6</ele>
        <time>2020-12-26T13:47:32Z</time>
      </trkpt>
      <trkpt lat="47.01374" lon="5.93473">
        <ele>565.6</ele>
        <time>2020-12-26T13:47:33Z</time>
      </trkpt>
      <trkpt lat="47.01379" lon="5.93481">
        <ele>565.6</ele>
        <time>2020-12-26T13:47:34Z</time>
      </trkpt>
      <trkpt lat="47.01385" lon="5.9349">
        <ele>565.6</ele>
        <time>2020-12-26T13:47:35Z</time>
      </trkpt>
      <trkpt lat="47.0139" lon="5.93498">
        <ele>565.6</ele>
        <time>2020-12-26T13:47:36Z</time>
      </trkpt>
      <trkpt lat="47.01396" lon="5.93506">
        <ele>565.6</ele>
        <time>2020-12-26T13:47:37Z</time>
      </trkpt>
      <trkpt lat="47.01401" lon="5.93514">
        <ele>565.6</ele>
        <time>2020-12-26T13:47:38Z</time>
      </trkpt>
      <trkpt lat="47.01406" lon="5.93522">
        <ele>566</ele>
        <time>2020-12-26T13:47:39Z</time>
      </trkpt>
      <trkpt lat="47.01411" lon="5.93531">
        <ele>566.2</ele>
        <time>2020-12-26T13:47:40Z</time>
      </trkpt>
      <trkpt lat="47.01415" lon="5.93539">
        <ele>566.2</ele>
        <time>2020-12-26T13:47:41Z</time>
      </trkpt>
      <trkpt lat="47.0142" lon="5.93548">
        <ele>566.6</ele>
        <time>2020-12-26T13:47:42Z</time>
      </trkpt>
      <trkpt lat="47.01425" lon="5.93557">
        <ele>566.6</ele>
        <time>2020-12-26T13:47:43Z</time>
      </trkpt>
      <trkpt lat="47.0143" lon="5.93565">
        <ele>567</ele>
        <time>2020-12-26T13:47:44Z</time>
      </trkpt>
      <trkpt lat="47.01434" lon="5.93574">
        <ele>567.2</ele>
        <time>2020-12-26T13:47:45Z</time>
      </trkpt>
      <trkpt lat="47.01439" lon="5.93583">
        <ele>567.2</ele>
        <time>2020-12-26T13:47:46Z</time>
      </trkpt>
      <trkpt lat="47.01443" lon="5.93592">
        <ele>567.4</ele>
        <time>2020-12-26T13:47:47Z</time>
      </trkpt>
      <trkpt lat="47.01449" lon="5.936">
        <ele>567.4</ele>
        <time>2020-12-26T13:47:48Z</time>
      </trkpt>
      <trkpt lat="47.01454" lon="5.93607">
        <ele>567.8</ele>
        <time>2020-12-26T13:47:49Z</time>
      </trkpt>
      <trkpt lat="47.0146" lon="5.93614">
        <ele>568</ele>
        <time>2020-12-26T13:47:50Z</time>
      </trkpt>
      <trkpt lat="47.01466" lon="5.93621">
        <ele>568.4</ele>
        <time>2020-12-26T13:47:51Z</time>
      </trkpt>
      <trkpt lat="47.01472" lon="5.93627">
        <ele>568.6</ele>
        <time>2020-12-26T13:47:52Z</time>
      </trkpt>
      <trkpt lat="47.01478" lon="5.93632">
        <ele>569</ele>
        <time>2020-12-26T13:47:53Z</time>
      </trkpt>
      <trkpt lat="47.01484" lon="5.93637">
        <ele>569.2</ele>
        <time>2020-12-26T13:47:54Z</time>
      </trkpt>
      <trkpt lat="47.0149" lon="5.93642">
        <ele>569.4</ele>
        <time>2020-12-26T13:47:55Z</time>
      </trkpt>
      <trkpt lat="47.01496" lon="5.93648">
        <ele>569.8</ele>
        <time>2020-12-26T13:47:56Z</time>
      </trkpt>
      <trkpt lat="47.01502" lon="5.93653">
        <ele>570.2</ele>
        <time>2020-12-26T13:47:57Z</time>
      </trkpt>
      <trkpt lat="47.01507" lon="5.93659">
        <ele>570.4</ele>
        <time>2020-12-26T13:47:58Z</time>
      </trkpt>
      <trkpt lat="47.01513" lon="5.93665">
        <ele>570.8</ele>
        <time>2020-12-26T13:47:59Z</time>
      </trkpt>
      <trkpt lat="47.01518" lon="5.93671">
        <ele>570.8</ele>
        <time>2020-12-26T13:48:00Z</time>
      </trkpt>
      <trkpt lat="47.01523" lon="5.93678">
        <ele>571.2</ele>
        <time>2020-12-26T13:48:01Z</time>
      </trkpt>
      <trkpt lat="47.01528" lon="5.93684">
        <ele>571.4</ele>
        <time>2020-12-26T13:48:02Z</time>
      </trkpt>
      <trkpt lat="47.01533" lon="5.9369">
        <ele>571.8</ele>
        <time>2020-12-26T13:48:03Z</time>
      </trkpt>
      <trkpt lat="47.01537" lon="5.93697">
        <ele>572</ele>
        <time>2020-12-26T13:48:04Z</time>
      </trkpt>
      <trkpt lat="47.01542" lon="5.93704">
        <ele>572</ele>
        <time>2020-12-26T13:48:05Z</time>
      </trkpt>
      <trkpt lat="47.01546" lon="5.9371">
        <ele>572.4</ele>
        <time>2020-12-26T13:48:06Z</time>
      </trkpt>
      <trkpt lat="47.0155" lon="5.93717">
        <ele>572.4</ele>
        <time>2020-12-26T13:48:07Z</time>
      </trkpt>
      <trkpt lat="47.01555" lon="5.93724">
        <ele>572.8</ele>
        <time>2020-12-26T13:48:08Z</time>
      </trkpt>
      <trkpt lat="47.0156" lon="5.93731">
        <ele>572.8</ele>
        <time>2020-12-26T13:48:09Z</time>
      </trkpt>
      <trkpt lat="47.01564" lon="5.93737">
        <ele>573</ele>
        <time>2020-12-26T13:48:10Z</time>
      </trkpt>
      <trkpt lat="47.01569" lon="5.93743">
        <ele>573</ele>
        <time>2020-12-26T13:48:11Z</time>
      </trkpt>
      <trkpt lat="47.01574" lon="5.9375">
        <ele>573.2</ele>
        <time>2020-12-26T13:48:12Z</time>
      </trkpt>
      <trkpt lat="47.01578" lon="5.93757">
        <ele>573.2</ele>
        <time>2020-12-26T13:48:13Z</time>
      </trkpt>
      <trkpt lat="47.01583" lon="5.93764">
        <ele>573.2</ele>
        <time>2020-12-26T13:48:14Z</time>
      </trkpt>
      <trkpt lat="47.01587" lon="5.93771">
        <ele>573.4</ele>
        <time>2020-12-26T13:48:15Z</time>
      </trkpt>
      <trkpt lat="47.01592" lon="5.93777">
        <ele>573.4</ele>
        <time>2020-12-26T13:48:16Z</time>
      </trkpt>
      <trkpt lat="47.01596" lon="5.93784">
        <ele>573.4</ele>
        <time>2020-12-26T13:48:17Z</time>
      </trkpt>
      <trkpt lat="47.016" lon="5.93791">
        <ele>573.8</ele>
        <time>2020-12-26T13:48:18Z</time>
      </trkpt>
      <trkpt lat="47.01605" lon="5.93797">
        <ele>573.8</ele>
        <time>2020-12-26T13:48:19Z</time>
      </trkpt>
      <trkpt lat="47.01609" lon="5.93802">
        <ele>574</ele>
        <time>2020-12-26T13:48:20Z</time>
      </trkpt>
      <trkpt lat="47.01613" lon="5.93808">
        <ele>574</ele>
        <time>2020-12-26T13:48:21Z</time>
      </trkpt>
      <trkpt lat="47.01618" lon="5.93814">
        <ele>574.4</ele>
        <time>2020-12-26T13:48:22Z</time>
      </trkpt>
      <trkpt lat="47.01622" lon="5.9382">
        <ele>574.6</ele>
        <time>2020-12-26T13:48:23Z</time>
      </trkpt>
      <trkpt lat="47.01626" lon="5.93825">
        <ele>574.6</ele>
        <time>2020-12-26T13:48:24Z</time>
      </trkpt>
      <trkpt lat="47.01631" lon="5.93829">
        <ele>575</ele>
        <time>2020-12-26T13:48:25Z</time>
      </trkpt>
      <trkpt lat="47.01636" lon="5.93834">
        <ele>575</ele>
        <time>2020-12-26T13:48:26Z</time>
      </trkpt>
      <trkpt lat="47.01641" lon="5.93839">
        <ele>575.4</ele>
        <time>2020-12-26T13:48:27Z</time>
      </trkpt>
      <trkpt lat="47.01645" lon="5.93844">
        <ele>575.8</ele>
        <time>2020-12-26T13:48:28Z</time>
      </trkpt>
      <trkpt lat="47.0165" lon="5.93849">
        <ele>576.2</ele>
        <time>2020-12-26T13:48:29Z</time>
      </trkpt>
      <trkpt lat="47.01654" lon="5.93854">
        <ele>576.4</ele>
        <time>2020-12-26T13:48:30Z</time>
      </trkpt>
      <trkpt lat="47.01658" lon="5.93858">
        <ele>576.8</ele>
        <time>2020-12-26T13:48:31Z</time>
      </trkpt>
      <trkpt lat="47.01663" lon="5.93862">
        <ele>577</ele>
        <time>2020-12-26T13:48:32Z</time>
      </trkpt>
      <trkpt lat="47.01667" lon="5.93867">
        <ele>577.2</ele>
        <time>2020-12-26T13:48:33Z</time>
      </trkpt>
      <trkpt lat="47.01671" lon="5.93871">
        <ele>577.6</ele>
        <time>2020-12-26T13:48:34Z</time>
      </trkpt>
      <trkpt lat="47.01675" lon="5.93876">
        <ele>577.6</ele>
        <time>2020-12-26T13:48:35Z</time>
      </trkpt>
      <trkpt lat="47.0168" lon="5.9388">
        <ele>578</ele>
        <time>2020-12-26T13:48:36Z</time>
      </trkpt>
      <trkpt lat="47.01684" lon="5.93885">
        <ele>578</ele>
        <time>2020-12-26T13:48:37Z</time>
      </trkpt>
      <trkpt lat="47.01689" lon="5.93889">
        <ele>578.2</ele>
        <time>2020-12-26T13:48:38Z</time>
      </trkpt>
      <trkpt lat="47.01693" lon="5.93894">
        <ele>578.2</ele>
        <time>2020-12-26T13:48:39Z</time>
      </trkpt>
      <trkpt lat="47.01698" lon="5.93898">
        <ele>578.6</ele>
        <time>2020-12-26T13:48:40Z</time>
      </trkpt>
      <trkpt lat="47.01702" lon="5.93902">
        <ele>578.6</ele>
        <time>2020-12-26T13:48:41Z</time>
      </trkpt>
      <trkpt lat="47.01707" lon="5.93907">
        <ele>578.6</ele>
        <time>2020-12-26T13:48:42Z</time>
      </trkpt>
      <trkpt lat="47.01712" lon="5.93911">
        <ele>578.6</ele>
        <time>2020-12-26T13:48:43Z</time>
      </trkpt>
      <trkpt lat="47.01717" lon="5.93916">
        <ele>578.6</ele>
        <time>2020-12-26T13:48:44Z</time>
      </trkpt>
      <trkpt lat="47.01722" lon="5.9392">
        <ele>578.6</ele>
        <time>2020-12-26T13:48:45Z</time>
      </trkpt>
      <trkpt lat="47.01727" lon="5.93924">
        <ele>578.6</ele>
        <time>2020-12-26T13:48:46Z</time>
      </trkpt>
      <trkpt lat="47.01732" lon="5.93928">
        <ele>578.6</ele>
        <time>2020-12-26T13:48:47Z</time>
      </trkpt>
      <trkpt lat="47.01737" lon="5.93932">
        <ele>578.6</ele>
        <time>2020-12-26T13:48:48Z</time>
      </trkpt>
      <trkpt lat="47.01742" lon="5.93936">
        <ele>578.6</ele>
        <time>2020-12-26T13:48:49Z</time>
      </trkpt>
      <trkpt lat="47.01747" lon="5.9394">
        <ele>578.6</ele>
        <time>2020-12-26T13:48:50Z</time>
      </trkpt>
      <trkpt lat="47.01753" lon="5.93943">
        <ele>578.6</ele>
        <time>2020-12-26T13:48:51Z</time>
      </trkpt>
      <trkpt lat="47.01758" lon="5.93947">
        <ele>578.6</ele>
        <time>2020-12-26T13:48:52Z</time>
      </trkpt>
      <trkpt lat="47.01763" lon="5.9395">
        <ele>578.8</ele>
        <time>2020-12-26T13:48:53Z</time>
      </trkpt>
      <trkpt lat="47.01769" lon="5.93954">
        <ele>578.8</ele>
        <time>2020-12-26T13:48:54Z</time>
      </trkpt>
      <trkpt lat="47.01774" lon="5.93957">
        <ele>578.8</ele>
        <time>2020-12-26T13:48:55Z</time>
      </trkpt>
      <trkpt lat="47.01779" lon="5.9396">
        <ele>578.8</ele>
        <time>2020-12-26T13:48:56Z</time>
      </trkpt>
      <trkpt lat="47.01784" lon="5.93964">
        <ele>578.8</ele>
        <time>2020-12-26T13:48:57Z</time>
      </trkpt>
      <trkpt lat="47.01789" lon="5.93967">
        <ele>579.2</ele>
        <time>2020-12-26T13:48:58Z</time>
      </trkpt>
      <trkpt lat="47.01795" lon="5.93971">
        <ele>579.2</ele>
        <time>2020-12-26T13:48:59Z</time>
      </trkpt>
      <trkpt lat="47.018" lon="5.93974">
        <ele>579.4</ele>
        <time>2020-12-26T13:49:00Z</time>
      </trkpt>
      <trkpt lat="47.01805" lon="5.93977">
        <ele>579.4</ele>
        <time>2020-12-26T13:49:01Z</time>
      </trkpt>
      <trkpt lat="47.0181" lon="5.9398">
        <ele>579.6</ele>
        <time>2020-12-26T13:49:02Z</time>
      </trkpt>
      <trkpt lat="47.01815" lon="5.93984">
        <ele>579.8</ele>
        <time>2020-12-26T13:49:03Z</time>
      </trkpt>
      <trkpt lat="47.0182" lon="5.93987">
        <ele>579.8</ele>
        <time>2020-12-26T13:49:04Z</time>
      </trkpt>
      <trkpt lat="47.01825" lon="5.9399">
        <ele>580</ele>
        <time>2020-12-26T13:49:05Z</time>
      </trkpt>
      <trkpt lat="47.0183" lon="5.93994">
        <ele>580</ele>
        <time>2020-12-26T13:49:06Z</time>
      </trkpt>
      <trkpt lat="47.01835" lon="5.93998">
        <ele>580</ele>
        <time>2020-12-26T13:49:07Z</time>
      </trkpt>
      <trkpt lat="47.0184" lon="5.94003">
        <ele>580.4</ele>
        <time>2020-12-26T13:49:08Z</time>
      </trkpt>
      <trkpt lat="47.01845" lon="5.94007">
        <ele>580.4</ele>
        <time>2020-12-26T13:49:09Z</time>
      </trkpt>
      <trkpt lat="47.0185" lon="5.94011">
        <ele>580.4</ele>
        <time>2020-12-26T13:49:10Z</time>
      </trkpt>
      <trkpt lat="47.01856" lon="5.94016">
        <ele>580.4</ele>
        <time>2020-12-26T13:49:11Z</time>
      </trkpt>
      <trkpt lat="47.01861" lon="5.9402">
        <ele>580.4</ele>
        <time>2020-12-26T13:49:12Z</time>
      </trkpt>
      <trkpt lat="47.01866" lon="5.94024">
        <ele>580.4</ele>
        <time>2020-12-26T13:49:13Z</time>
      </trkpt>
      <trkpt lat="47.01871" lon="5.94028">
        <ele>580.6</ele>
        <time>2020-12-26T13:49:14Z</time>
      </trkpt>
      <trkpt lat="47.01876" lon="5.94031">
        <ele>580.6</ele>
        <time>2020-12-26T13:49:15Z</time>
      </trkpt>
      <trkpt lat="47.01881" lon="5.94035">
        <ele>580.8</ele>
        <time>2020-12-26T13:49:16Z</time>
      </trkpt>
      <trkpt lat="47.01886" lon="5.94038">
        <ele>580.8</ele>
        <time>2020-12-26T13:49:17Z</time>
      </trkpt>
      <trkpt lat="47.01891" lon="5.94041">
        <ele>581.2</ele>
        <time>2020-12-26T13:49:18Z</time>
      </trkpt>
      <trkpt lat="47.01896" lon="5.94044">
        <ele>581.2</ele>
        <time>2020-12-26T13:49:19Z</time>
      </trkpt>
      <trkpt lat="47.019" lon="5.94046">
        <ele>581.4</ele>
        <time>2020-12-26T13:49:20Z</time>
      </trkpt>
      <trkpt lat="47.01905" lon="5.94048">
        <ele>581.4</ele>
        <time>2020-12-26T13:49:21Z</time>
      </trkpt>
      <trkpt lat="47.0191" lon="5.94051">
        <ele>581.6</ele>
        <time>2020-12-26T13:49:22Z</time>
      </trkpt>
      <trkpt lat="47.01914" lon="5.94053">
        <ele>581.6</ele>
        <time>2020-12-26T13:49:23Z</time>
      </trkpt>
      <trkpt lat="47.01918" lon="5.94055">
        <ele>582</ele>
        <time>2020-12-26T13:49:24Z</time>
      </trkpt>
      <trkpt lat="47.01923" lon="5.94056">
        <ele>582</ele>
        <time>2020-12-26T13:49:25Z</time>
      </trkpt>
      <trkpt lat="47.01927" lon="5.94058">
        <ele>582</ele>
        <time>2020-12-26T13:49:26Z</time>
      </trkpt>
      <trkpt lat="47.01932" lon="5.94059">
        <ele>582.2</ele>
        <time>2020-12-26T13:49:27Z</time>
      </trkpt>
      <trkpt lat="47.01937" lon="5.9406">
        <ele>582.2</ele>
        <time>2020-12-26T13:49:28Z</time>
      </trkpt>
      <trkpt lat="47.01942" lon="5.94061">
        <ele>582.2</ele>
        <time>2020-12-26T13:49:29Z</time>
      </trkpt>
      <trkpt lat="47.01947" lon="5.94062">
        <ele>582.2</ele>
        <time>2020-12-26T13:49:30Z</time>
      </trkpt>
      <trkpt lat="47.01952" lon="5.94062">
        <ele>582.2</ele>
        <time>2020-12-26T13:49:31Z</time>
      </trkpt>
      <trkpt lat="47.01957" lon="5.94062">
        <ele>582.2</ele>
        <time>2020-12-26T13:49:32Z</time>
      </trkpt>
      <trkpt lat="47.01962" lon="5.94063">
        <ele>582</ele>
        <time>2020-12-26T13:49:33Z</time>
      </trkpt>
      <trkpt lat="47.01967" lon="5.94063">
        <ele>582</ele>
        <time>2020-12-26T13:49:34Z</time>
      </trkpt>
      <trkpt lat="47.01973" lon="5.94064">
        <ele>581.6</ele>
        <time>2020-12-26T13:49:35Z</time>
      </trkpt>
      <trkpt lat="47.01979" lon="5.94065">
        <ele>581.6</ele>
        <time>2020-12-26T13:49:36Z</time>
      </trkpt>
      <trkpt lat="47.01985" lon="5.94067">
        <ele>581.2</ele>
        <time>2020-12-26T13:49:37Z</time>
      </trkpt>
      <trkpt lat="47.01991" lon="5.9407">
        <ele>581</ele>
        <time>2020-12-26T13:49:38Z</time>
      </trkpt>
      <trkpt lat="47.01997" lon="5.94073">
        <ele>580.8</ele>
        <time>2020-12-26T13:49:39Z</time>
      </trkpt>
      <trkpt lat="47.02003" lon="5.94077">
        <ele>580.6</ele>
        <time>2020-12-26T13:49:40Z</time>
      </trkpt>
      <trkpt lat="47.02009" lon="5.94081">
        <ele>580.2</ele>
        <time>2020-12-26T13:49:41Z</time>
      </trkpt>
      <trkpt lat="47.02015" lon="5.94085">
        <ele>580</ele>
        <time>2020-12-26T13:49:42Z</time>
      </trkpt>
      <trkpt lat="47.02021" lon="5.9409">
        <ele>579.8</ele>
        <time>2020-12-26T13:49:43Z</time>
      </trkpt>
      <trkpt lat="47.02027" lon="5.94095">
        <ele>579.4</ele>
        <time>2020-12-26T13:49:44Z</time>
      </trkpt>
      <trkpt lat="47.02034" lon="5.94099">
        <ele>579</ele>
        <time>2020-12-26T13:49:45Z</time>
      </trkpt>
      <trkpt lat="47.0204" lon="5.94104">
        <ele>578.6</ele>
        <time>2020-12-26T13:49:46Z</time>
      </trkpt>
      <trkpt lat="47.02047" lon="5.94109">
        <ele>578</ele>
        <time>2020-12-26T13:49:47Z</time>
      </trkpt>
      <trkpt lat="47.02055" lon="5.94114">
        <ele>577.8</ele>
        <time>2020-12-26T13:49:48Z</time>
      </trkpt>
      <trkpt lat="47.02062" lon="5.94118">
        <ele>577.4</ele>
        <time>2020-12-26T13:49:49Z</time>
      </trkpt>
      <trkpt lat="47.0207" lon="5.94123">
        <ele>577</ele>
        <time>2020-12-26T13:49:50Z</time>
      </trkpt>
      <trkpt lat="47.02078" lon="5.94126">
        <ele>576.4</ele>
        <time>2020-12-26T13:49:51Z</time>
      </trkpt>
      <trkpt lat="47.02086" lon="5.94129">
        <ele>575.8</ele>
        <time>2020-12-26T13:49:52Z</time>
      </trkpt>
      <trkpt lat="47.02095" lon="5.94131">
        <ele>575.4</ele>
        <time>2020-12-26T13:49:53Z</time>
      </trkpt>
      <trkpt lat="47.02104" lon="5.94132">
        <ele>574.8</ele>
        <time>2020-12-26T13:49:54Z</time>
      </trkpt>
      <trkpt lat="47.02113" lon="5.94133">
        <ele>574.2</ele>
        <time>2020-12-26T13:49:55Z</time>
      </trkpt>
      <trkpt lat="47.02123" lon="5.94132">
        <ele>573.8</ele>
        <time>2020-12-26T13:49:56Z</time>
      </trkpt>
      <trkpt lat="47.02132" lon="5.94132">
        <ele>573.2</ele>
        <time>2020-12-26T13:49:57Z</time>
      </trkpt>
      <trkpt lat="47.02141" lon="5.94132">
        <ele>572.6</ele>
        <time>2020-12-26T13:49:58Z</time>
      </trkpt>
      <trkpt lat="47.0215" lon="5.94131">
        <ele>572</ele>
        <time>2020-12-26T13:49:59Z</time>
      </trkpt>
      <trkpt lat="47.0216" lon="5.9413">
        <ele>571.4</ele>
        <time>2020-12-26T13:50:00Z</time>
      </trkpt>
      <trkpt lat="47.02169" lon="5.9413">
        <ele>570.8</ele>
        <time>2020-12-26T13:50:01Z</time>
      </trkpt>
      <trkpt lat="47.02179" lon="5.9413">
        <ele>570.2</ele>
        <time>2020-12-26T13:50:02Z</time>
      </trkpt>
      <trkpt lat="47.02189" lon="5.94131">
        <ele>569.8</ele>
        <time>2020-12-26T13:50:03Z</time>
      </trkpt>
      <trkpt lat="47.02199" lon="5.94131">
        <ele>569.2</ele>
        <time>2020-12-26T13:50:04Z</time>
      </trkpt>
      <trkpt lat="47.02208" lon="5.94129">
        <ele>568.6</ele>
        <time>2020-12-26T13:50:05Z</time>
      </trkpt>
      <trkpt lat="47.02218" lon="5.94129">
        <ele>568</ele>
        <time>2020-12-26T13:50:06Z</time>
      </trkpt>
      <trkpt lat="47.02228" lon="5.94128">
        <ele>567.4</ele>
        <time>2020-12-26T13:50:07Z</time>
      </trkpt>
      <trkpt lat="47.02238" lon="5.94128">
        <ele>566.6</ele>
        <time>2020-12-26T13:50:08Z</time>
      </trkpt>
      <trkpt lat="47.02248" lon="5.94126">
        <ele>565.8</ele>
        <time>2020-12-26T13:50:09Z</time>
      </trkpt>
      <trkpt lat="47.02257" lon="5.94125">
        <ele>565</ele>
        <time>2020-12-26T13:50:10Z</time>
      </trkpt>
      <trkpt lat="47.02267" lon="5.94124">
        <ele>564</ele>
        <time>2020-12-26T13:50:11Z</time>
      </trkpt>
      <trkpt lat="47.02277" lon="5.94124">
        <ele>563.2</ele>
        <time>2020-12-26T13:50:12Z</time>
      </trkpt>
      <trkpt lat="47.02287" lon="5.94121">
        <ele>562.4</ele>
        <time>2020-12-26T13:50:13Z</time>
      </trkpt>
      <trkpt lat="47.02297" lon="5.94119">
        <ele>561.6</ele>
        <time>2020-12-26T13:50:14Z</time>
      </trkpt>
      <trkpt lat="47.02308" lon="5.94118">
        <ele>560.8</ele>
        <time>2020-12-26T13:50:15Z</time>
      </trkpt>
      <trkpt lat="47.02317" lon="5.94117">
        <ele>560.2</ele>
        <time>2020-12-26T13:50:16Z</time>
      </trkpt>
      <trkpt lat="47.02327" lon="5.94118">
        <ele>559.4</ele>
        <time>2020-12-26T13:50:17Z</time>
      </trkpt>
      <trkpt lat="47.02336" lon="5.94118">
        <ele>558.6</ele>
        <time>2020-12-26T13:50:18Z</time>
      </trkpt>
      <trkpt lat="47.02347" lon="5.94118">
        <ele>557.8</ele>
        <time>2020-12-26T13:50:19Z</time>
      </trkpt>
      <trkpt lat="47.02357" lon="5.94119">
        <ele>557</ele>
        <time>2020-12-26T13:50:20Z</time>
      </trkpt>
      <trkpt lat="47.02366" lon="5.94121">
        <ele>556.4</ele>
        <time>2020-12-26T13:50:21Z</time>
      </trkpt>
      <trkpt lat="47.02374" lon="5.94125">
        <ele>555.6</ele>
        <time>2020-12-26T13:50:22Z</time>
      </trkpt>
      <trkpt lat="47.02381" lon="5.9413">
        <ele>555</ele>
        <time>2020-12-26T13:50:23Z</time>
      </trkpt>
      <trkpt lat="47.02389" lon="5.94135">
        <ele>554.4</ele>
        <time>2020-12-26T13:50:24Z</time>
      </trkpt>
      <trkpt lat="47.02397" lon="5.94141">
        <ele>553.8</ele>
        <time>2020-12-26T13:50:25Z</time>
      </trkpt>
      <trkpt lat="47.02406" lon="5.94146">
        <ele>553.2</ele>
        <time>2020-12-26T13:50:26Z</time>
      </trkpt>
      <trkpt lat="47.02414" lon="5.94152">
        <ele>552.8</ele>
        <time>2020-12-26T13:50:27Z</time>
      </trkpt>
      <trkpt lat="47.02422" lon="5.94158">
        <ele>552.2</ele>
        <time>2020-12-26T13:50:28Z</time>
      </trkpt>
      <trkpt lat="47.0243" lon="5.94163">
        <ele>551.6</ele>
        <time>2020-12-26T13:50:29Z</time>
      </trkpt>
      <trkpt lat="47.02438" lon="5.94168">
        <ele>551</ele>
        <time>2020-12-26T13:50:30Z</time>
      </trkpt>
      <trkpt lat="47.02447" lon="5.94171">
        <ele>550.6</ele>
        <time>2020-12-26T13:50:31Z</time>
      </trkpt>
      <trkpt lat="47.02455" lon="5.94175">
        <ele>550.4</ele>
        <time>2020-12-26T13:50:32Z</time>
      </trkpt>
      <trkpt lat="47.02461" lon="5.94179">
        <ele>550.4</ele>
        <time>2020-12-26T13:50:33Z</time>
      </trkpt>
      <trkpt lat="47.02467" lon="5.94183">
        <ele>550.4</ele>
        <time>2020-12-26T13:50:34Z</time>
      </trkpt>
      <trkpt lat="47.02472" lon="5.94188">
        <ele>550.4</ele>
        <time>2020-12-26T13:50:35Z</time>
      </trkpt>
      <trkpt lat="47.02477" lon="5.94193">
        <ele>550.4</ele>
        <time>2020-12-26T13:50:36Z</time>
      </trkpt>
      <trkpt lat="47.0248" lon="5.94198">
        <ele>550.4</ele>
        <time>2020-12-26T13:50:37Z</time>
      </trkpt>
      <trkpt lat="47.02484" lon="5.94203">
        <ele>550.4</ele>
        <time>2020-12-26T13:50:38Z</time>
      </trkpt>
      <trkpt lat="47.02487" lon="5.94207">
        <ele>550.4</ele>
        <time>2020-12-26T13:50:39Z</time>
      </trkpt>
      <trkpt lat="47.0249" lon="5.94212">
        <ele>550.4</ele>
        <time>2020-12-26T13:50:40Z</time>
      </trkpt>
      <trkpt lat="47.02493" lon="5.94217">
        <ele>550.4</ele>
        <time>2020-12-26T13:50:41Z</time>
      </trkpt>
      <trkpt lat="47.02496" lon="5.94222">
        <ele>550.4</ele>
        <time>2020-12-26T13:50:42Z</time>
      </trkpt>
      <trkpt lat="47.02499" lon="5.94227">
        <ele>550.4</ele>
        <time>2020-12-26T13:50:43Z</time>
      </trkpt>
      <trkpt lat="47.02502" lon="5.94233">
        <ele>550</ele>
        <time>2020-12-26T13:50:44Z</time>
      </trkpt>
      <trkpt lat="47.02505" lon="5.94239">
        <ele>550</ele>
        <time>2020-12-26T13:50:45Z</time>
      </trkpt>
      <trkpt lat="47.02508" lon="5.94245">
        <ele>549.8</ele>
        <time>2020-12-26T13:50:46Z</time>
      </trkpt>
      <trkpt lat="47.02511" lon="5.94251">
        <ele>549.8</ele>
        <time>2020-12-26T13:50:47Z</time>
      </trkpt>
      <trkpt lat="47.02513" lon="5.94257">
        <ele>549.8</ele>
        <time>2020-12-26T13:50:48Z</time>
      </trkpt>
      <trkpt lat="47.02516" lon="5.94263">
        <ele>549.8</ele>
        <time>2020-12-26T13:50:49Z</time>
      </trkpt>
      <trkpt lat="47.02519" lon="5.94269">
        <ele>549.8</ele>
        <time>2020-12-26T13:50:50Z</time>
      </trkpt>
      <trkpt lat="47.02522" lon="5.94275">
        <ele>549.8</ele>
        <time>2020-12-26T13:50:51Z</time>
      </trkpt>
      <trkpt lat="47.02525" lon="5.94281">
        <ele>549.8</ele>
        <time>2020-12-26T13:50:52Z</time>
      </trkpt>
      <trkpt lat="47.02528" lon="5.94288">
        <ele>550.2</ele>
        <time>2020-12-26T13:50:53Z</time>
      </trkpt>
      <trkpt lat="47.02531" lon="5.94295">
        <ele>550.2</ele>
        <time>2020-12-26T13:50:54Z</time>
      </trkpt>
      <trkpt lat="47.02535" lon="5.94302">
        <ele>550.2</ele>
        <time>2020-12-26T13:50:55Z</time>
      </trkpt>
      <trkpt lat="47.0254" lon="5.94308">
        <ele>550.4</ele>
        <time>2020-12-26T13:50:56Z</time>
      </trkpt>
      <trkpt lat="47.02545" lon="5.94312">
        <ele>550.8</ele>
        <time>2020-12-26T13:50:57Z</time>
      </trkpt>
      <trkpt lat="47.02549" lon="5.94316">
        <ele>551</ele>
        <time>2020-12-26T13:50:58Z</time>
      </trkpt>
      <trkpt lat="47.02553" lon="5.94319">
        <ele>551.4</ele>
        <time>2020-12-26T13:50:59Z</time>
      </trkpt>
      <trkpt lat="47.02557" lon="5.94321">
        <ele>551.8</ele>
        <time>2020-12-26T13:51:00Z</time>
      </trkpt>
      <trkpt lat="47.0256" lon="5.94324">
        <ele>552.2</ele>
        <time>2020-12-26T13:51:01Z</time>
      </trkpt>
      <trkpt lat="47.02563" lon="5.94326">
        <ele>552.4</ele>
        <time>2020-12-26T13:51:02Z</time>
      </trkpt>
      <trkpt lat="47.02565" lon="5.94328">
        <ele>552.4</ele>
        <time>2020-12-26T13:51:03Z</time>
      </trkpt>
      <trkpt lat="47.02566" lon="5.94329">
        <ele>552.4</ele>
        <time>2020-12-26T13:51:04Z</time>
      </trkpt>
      <trkpt lat="47.02567" lon="5.94332">
        <ele>552.4</ele>
        <time>2020-12-26T13:51:05Z</time>
      </trkpt>
      <trkpt lat="47.02567" lon="5.94334">
        <ele>552.6</ele>
        <time>2020-12-26T13:51:06Z</time>
      </trkpt>
      <trkpt lat="47.02567" lon="5.94336">
        <ele>552.6</ele>
        <time>2020-12-26T13:51:07Z</time>
      </trkpt>
      <trkpt lat="47.02567" lon="5.94339">
        <ele>552.6</ele>
        <time>2020-12-26T13:51:08Z</time>
      </trkpt>
      <trkpt lat="47.02567" lon="5.94342">
        <ele>552.6</ele>
        <time>2020-12-26T13:51:09Z</time>
      </trkpt>
      <trkpt lat="47.02567" lon="5.94345">
        <ele>552.2</ele>
        <time>2020-12-26T13:51:10Z</time>
      </trkpt>
      <trkpt lat="47.02568" lon="5.94348">
        <ele>552.2</ele>
        <time>2020-12-26T13:51:11Z</time>
      </trkpt>
      <trkpt lat="47.02569" lon="5.9435">
        <ele>551.8</ele>
        <time>2020-12-26T13:51:12Z</time>
      </trkpt>
      <trkpt lat="47.02569" lon="5.94353">
        <ele>551.8</ele>
        <time>2020-12-26T13:51:13Z</time>
      </trkpt>
      <trkpt lat="47.0257" lon="5.94356">
        <ele>551.6</ele>
        <time>2020-12-26T13:51:14Z</time>
      </trkpt>
      <trkpt lat="47.02571" lon="5.9436">
        <ele>551.4</ele>
        <time>2020-12-26T13:51:15Z</time>
      </trkpt>
      <trkpt lat="47.02571" lon="5.94363">
        <ele>551.4</ele>
        <time>2020-12-26T13:51:16Z</time>
      </trkpt>
      <trkpt lat="47.02572" lon="5.94367">
        <ele>551</ele>
        <time>2020-12-26T13:51:17Z</time>
      </trkpt>
      <trkpt lat="47.02573" lon="5.94371">
        <ele>551</ele>
        <time>2020-12-26T13:51:18Z</time>
      </trkpt>
      <trkpt lat="47.02574" lon="5.94377">
        <ele>550.6</ele>
        <time>2020-12-26T13:51:19Z</time>
      </trkpt>
      <trkpt lat="47.02575" lon="5.94383">
        <ele>550.2</ele>
        <time>2020-12-26T13:51:20Z</time>
      </trkpt>
      <trkpt lat="47.02576" lon="5.9439">
        <ele>550</ele>
        <time>2020-12-26T13:51:21Z</time>
      </trkpt>
      <trkpt lat="47.02578" lon="5.94397">
        <ele>549.6</ele>
        <time>2020-12-26T13:51:22Z</time>
      </trkpt>
      <trkpt lat="47.0258" lon="5.94405">
        <ele>549.4</ele>
        <time>2020-12-26T13:51:23Z</time>
      </trkpt>
      <trkpt lat="47.02582" lon="5.94414">
        <ele>549</ele>
        <time>2020-12-26T13:51:24Z</time>
      </trkpt>
      <trkpt lat="47.02584" lon="5.94423">
        <ele>548.4</ele>
        <time>2020-12-26T13:51:25Z</time>
      </trkpt>
      <trkpt lat="47.02587" lon="5.94432">
        <ele>548</ele>
        <time>2020-12-26T13:51:26Z</time>
      </trkpt>
      <trkpt lat="47.02589" lon="5.94442">
        <ele>547.6</ele>
        <time>2020-12-26T13:51:27Z</time>
      </trkpt>
      <trkpt lat="47.02591" lon="5.94453">
        <ele>547.2</ele>
        <time>2020-12-26T13:51:28Z</time>
      </trkpt>
      <trkpt lat="47.02593" lon="5.94464">
        <ele>546.8</ele>
        <time>2020-12-26T13:51:29Z</time>
      </trkpt>
      <trkpt lat="47.02595" lon="5.94475">
        <ele>546.4</ele>
        <time>2020-12-26T13:51:30Z</time>
      </trkpt>
      <trkpt lat="47.02598" lon="5.94487">
        <ele>545.8</ele>
        <time>2020-12-26T13:51:31Z</time>
      </trkpt>
      <trkpt lat="47.026" lon="5.94499">
        <ele>545.2</ele>
        <time>2020-12-26T13:51:32Z</time>
      </trkpt>
      <trkpt lat="47.02602" lon="5.94512">
        <ele>544.8</ele>
        <time>2020-12-26T13:51:33Z</time>
      </trkpt>
      <trkpt lat="47.02605" lon="5.94524">
        <ele>544.2</ele>
        <time>2020-12-26T13:51:34Z</time>
      </trkpt>
      <trkpt lat="47.02608" lon="5.94537">
        <ele>543.8</ele>
        <time>2020-12-26T13:51:35Z</time>
      </trkpt>
      <trkpt lat="47.02611" lon="5.9455">
        <ele>543.2</ele>
        <time>2020-12-26T13:51:36Z</time>
      </trkpt>
      <trkpt lat="47.02612" lon="5.94564">
        <ele>542.8</ele>
        <time>2020-12-26T13:51:37Z</time>
      </trkpt>
      <trkpt lat="47.02615" lon="5.94579">
        <ele>542.4</ele>
        <time>2020-12-26T13:51:38Z</time>
      </trkpt>
      <trkpt lat="47.02618" lon="5.94594">
        <ele>541.8</ele>
        <time>2020-12-26T13:51:39Z</time>
      </trkpt>
      <trkpt lat="47.02621" lon="5.94608">
        <ele>541.2</ele>
        <time>2020-12-26T13:51:40Z</time>
      </trkpt>
      <trkpt lat="47.02624" lon="5.94623">
        <ele>540.4</ele>
        <time>2020-12-26T13:51:41Z</time>
      </trkpt>
      <trkpt lat="47.02628" lon="5.94638">
        <ele>539.8</ele>
        <time>2020-12-26T13:51:42Z</time>
      </trkpt>
      <trkpt lat="47.02631" lon="5.94652">
        <ele>539</ele>
        <time>2020-12-26T13:51:43Z</time>
      </trkpt>
      <trkpt lat="47.02634" lon="5.94668">
        <ele>538.4</ele>
        <time>2020-12-26T13:51:44Z</time>
      </trkpt>
      <trkpt lat="47.02637" lon="5.94685">
        <ele>537.6</ele>
        <time>2020-12-26T13:51:45Z</time>
      </trkpt>
      <trkpt lat="47.02641" lon="5.94701">
        <ele>536.6</ele>
        <time>2020-12-26T13:51:46Z</time>
      </trkpt>
      <trkpt lat="47.02646" lon="5.94718">
        <ele>536.2</ele>
        <time>2020-12-26T13:51:47Z</time>
      </trkpt>
      <trkpt lat="47.0265" lon="5.94735">
        <ele>535.6</ele>
        <time>2020-12-26T13:51:48Z</time>
      </trkpt>
      <trkpt lat="47.02652" lon="5.94751">
        <ele>534.8</ele>
        <time>2020-12-26T13:51:49Z</time>
      </trkpt>
      <trkpt lat="47.02656" lon="5.94766">
        <ele>534</ele>
        <time>2020-12-26T13:51:50Z</time>
      </trkpt>
      <trkpt lat="47.02659" lon="5.94783">
        <ele>533.2</ele>
        <time>2020-12-26T13:51:51Z</time>
      </trkpt>
      <trkpt lat="47.02663" lon="5.94799">
        <ele>532.6</ele>
        <time>2020-12-26T13:51:52Z</time>
      </trkpt>
      <trkpt lat="47.02666" lon="5.94813">
        <ele>532</ele>
        <time>2020-12-26T13:51:53Z</time>
      </trkpt>
      <trkpt lat="47.02669" lon="5.94826">
        <ele>531.6</ele>
        <time>2020-12-26T13:51:54Z</time>
      </trkpt>
      <trkpt lat="47.02673" lon="5.94839">
        <ele>531.6</ele>
        <time>2020-12-26T13:51:55Z</time>
      </trkpt>
      <trkpt lat="47.02676" lon="5.94852">
        <ele>531.2</ele>
        <time>2020-12-26T13:51:56Z</time>
      </trkpt>
      <trkpt lat="47.02679" lon="5.94863">
        <ele>531.2</ele>
        <time>2020-12-26T13:51:57Z</time>
      </trkpt>
      <trkpt lat="47.0268" lon="5.94874">
        <ele>531</ele>
        <time>2020-12-26T13:51:58Z</time>
      </trkpt>
      <trkpt lat="47.02683" lon="5.94884">
        <ele>531</ele>
        <time>2020-12-26T13:51:59Z</time>
      </trkpt>
      <trkpt lat="47.02687" lon="5.94895">
        <ele>531</ele>
        <time>2020-12-26T13:52:00Z</time>
      </trkpt>
      <trkpt lat="47.02693" lon="5.94904">
        <ele>531</ele>
        <time>2020-12-26T13:52:01Z</time>
      </trkpt>
      <trkpt lat="47.02698" lon="5.94913">
        <ele>530.8</ele>
        <time>2020-12-26T13:52:02Z</time>
      </trkpt>
      <trkpt lat="47.02703" lon="5.94922">
        <ele>530.8</ele>
        <time>2020-12-26T13:52:03Z</time>
      </trkpt>
      <trkpt lat="47.02707" lon="5.94933">
        <ele>530.8</ele>
        <time>2020-12-26T13:52:04Z</time>
      </trkpt>
      <trkpt lat="47.02711" lon="5.94944">
        <ele>530.8</ele>
        <time>2020-12-26T13:52:05Z</time>
      </trkpt>
      <trkpt lat="47.02715" lon="5.94955">
        <ele>530.6</ele>
        <time>2020-12-26T13:52:06Z</time>
      </trkpt>
      <trkpt lat="47.02718" lon="5.94967">
        <ele>530.6</ele>
        <time>2020-12-26T13:52:07Z</time>
      </trkpt>
      <trkpt lat="47.0272" lon="5.9498">
        <ele>530.2</ele>
        <time>2020-12-26T13:52:08Z</time>
      </trkpt>
      <trkpt lat="47.02723" lon="5.94992">
        <ele>530.2</ele>
        <time>2020-12-26T13:52:09Z</time>
      </trkpt>
      <trkpt lat="47.02726" lon="5.95005">
        <ele>530</ele>
        <time>2020-12-26T13:52:10Z</time>
      </trkpt>
      <trkpt lat="47.02729" lon="5.95018">
        <ele>530</ele>
        <time>2020-12-26T13:52:11Z</time>
      </trkpt>
      <trkpt lat="47.02732" lon="5.95031">
        <ele>530</ele>
        <time>2020-12-26T13:52:12Z</time>
      </trkpt>
      <trkpt lat="47.02734" lon="5.95045">
        <ele>530</ele>
        <time>2020-12-26T13:52:13Z</time>
      </trkpt>
      <trkpt lat="47.02736" lon="5.95058">
        <ele>529.6</ele>
        <time>2020-12-26T13:52:14Z</time>
      </trkpt>
      <trkpt lat="47.02737" lon="5.95072">
        <ele>529.6</ele>
        <time>2020-12-26T13:52:15Z</time>
      </trkpt>
      <trkpt lat="47.02739" lon="5.95086">
        <ele>529.6</ele>
        <time>2020-12-26T13:52:16Z</time>
      </trkpt>
      <trkpt lat="47.0274" lon="5.95099">
        <ele>529.6</ele>
        <time>2020-12-26T13:52:17Z</time>
      </trkpt>
      <trkpt lat="47.02742" lon="5.95113">
        <ele>530</ele>
        <time>2020-12-26T13:52:18Z</time>
      </trkpt>
      <trkpt lat="47.02744" lon="5.95126">
        <ele>530</ele>
        <time>2020-12-26T13:52:19Z</time>
      </trkpt>
      <trkpt lat="47.02747" lon="5.95139">
        <ele>530.2</ele>
        <time>2020-12-26T13:52:20Z</time>
      </trkpt>
      <trkpt lat="47.02751" lon="5.95151">
        <ele>530.2</ele>
        <time>2020-12-26T13:52:21Z</time>
      </trkpt>
      <trkpt lat="47.02756" lon="5.95163">
        <ele>530.6</ele>
        <time>2020-12-26T13:52:22Z</time>
      </trkpt>
      <trkpt lat="47.02761" lon="5.95174">
        <ele>530.6</ele>
        <time>2020-12-26T13:52:23Z</time>
      </trkpt>
      <trkpt lat="47.02766" lon="5.95184">
        <ele>530.8</ele>
        <time>2020-12-26T13:52:24Z</time>
      </trkpt>
      <trkpt lat="47.0277" lon="5.95194">
        <ele>530.8</ele>
        <time>2020-12-26T13:52:25Z</time>
      </trkpt>
      <trkpt lat="47.02774" lon="5.95202">
        <ele>531</ele>
        <time>2020-12-26T13:52:26Z</time>
      </trkpt>
      <trkpt lat="47.02777" lon="5.95209">
        <ele>531</ele>
        <time>2020-12-26T13:52:27Z</time>
      </trkpt>
      <trkpt lat="47.02779" lon="5.95215">
        <ele>531</ele>
        <time>2020-12-26T13:52:28Z</time>
      </trkpt>
      <trkpt lat="47.02781" lon="5.95218">
        <ele>531.4</ele>
        <time>2020-12-26T13:52:29Z</time>
      </trkpt>
      <trkpt lat="47.02781" lon="5.9522">
        <ele>531.4</ele>
        <time>2020-12-26T13:52:30Z</time>
      </trkpt>
      <trkpt lat="47.02782" lon="5.9522">
        <ele>531.4</ele>
        <time>2020-12-26T13:52:31Z</time>
      </trkpt>
      <trkpt lat="47.02781" lon="5.95212">
        <ele>531.6</ele>
        <time>2020-12-26T13:52:40Z</time>
      </trkpt>
      <trkpt lat="47.0278" lon="5.9521">
        <ele>531.6</ele>
        <time>2020-12-26T13:52:41Z</time>
      </trkpt>
      <trkpt lat="47.02778" lon="5.95207">
        <ele>531.8</ele>
        <time>2020-12-26T13:52:42Z</time>
      </trkpt>
      <trkpt lat="47.02776" lon="5.95205">
        <ele>531.8</ele>
        <time>2020-12-26T13:52:43Z</time>
      </trkpt>
      <trkpt lat="47.02774" lon="5.95202">
        <ele>531.8</ele>
        <time>2020-12-26T13:52:44Z</time>
      </trkpt>
      <trkpt lat="47.02772" lon="5.95198">
        <ele>531.8</ele>
        <time>2020-12-26T13:52:45Z</time>
      </trkpt>
      <trkpt lat="47.0277" lon="5.95195">
        <ele>531.8</ele>
        <time>2020-12-26T13:52:46Z</time>
      </trkpt>
      <trkpt lat="47.02768" lon="5.95191">
        <ele>531.8</ele>
        <time>2020-12-26T13:52:47Z</time>
      </trkpt>
      <trkpt lat="47.02766" lon="5.95186">
        <ele>531.8</ele>
        <time>2020-12-26T13:52:48Z</time>
      </trkpt>
      <trkpt lat="47.02764" lon="5.95181">
        <ele>531.8</ele>
        <time>2020-12-26T13:52:49Z</time>
      </trkpt>
      <trkpt lat="47.02761" lon="5.95176">
        <ele>531.8</ele>
        <time>2020-12-26T13:52:50Z</time>
      </trkpt>
      <trkpt lat="47.02758" lon="5.95171">
        <ele>531.8</ele>
        <time>2020-12-26T13:52:51Z</time>
      </trkpt>
      <trkpt lat="47.02756" lon="5.95165">
        <ele>531.4</ele>
        <time>2020-12-26T13:52:52Z</time>
      </trkpt>
      <trkpt lat="47.02754" lon="5.95158">
        <ele>531.4</ele>
        <time>2020-12-26T13:52:53Z</time>
      </trkpt>
      <trkpt lat="47.02752" lon="5.9515">
        <ele>531.2</ele>
        <time>2020-12-26T13:52:54Z</time>
      </trkpt>
      <trkpt lat="47.0275" lon="5.95142">
        <ele>531.2</ele>
        <time>2020-12-26T13:52:55Z</time>
      </trkpt>
      <trkpt lat="47.02748" lon="5.95134">
        <ele>531</ele>
        <time>2020-12-26T13:52:56Z</time>
      </trkpt>
      <trkpt lat="47.02746" lon="5.95126">
        <ele>531</ele>
        <time>2020-12-26T13:52:57Z</time>
      </trkpt>
      <trkpt lat="47.02744" lon="5.95117">
        <ele>531</ele>
        <time>2020-12-26T13:52:58Z</time>
      </trkpt>
      <trkpt lat="47.02743" lon="5.95107">
        <ele>530.6</ele>
        <time>2020-12-26T13:52:59Z</time>
      </trkpt>
      <trkpt lat="47.02741" lon="5.95097">
        <ele>530.6</ele>
        <time>2020-12-26T13:53:00Z</time>
      </trkpt>
      <trkpt lat="47.0274" lon="5.95087">
        <ele>530.6</ele>
        <time>2020-12-26T13:53:01Z</time>
      </trkpt>
      <trkpt lat="47.02739" lon="5.95076">
        <ele>530.6</ele>
        <time>2020-12-26T13:53:02Z</time>
      </trkpt>
      <trkpt lat="47.02737" lon="5.95065">
        <ele>530.6</ele>
        <time>2020-12-26T13:53:03Z</time>
      </trkpt>
      <trkpt lat="47.02736" lon="5.95054">
        <ele>530.6</ele>
        <time>2020-12-26T13:53:04Z</time>
      </trkpt>
      <trkpt lat="47.02735" lon="5.95044">
        <ele>531</ele>
        <time>2020-12-26T13:53:05Z</time>
      </trkpt>
      <trkpt lat="47.02733" lon="5.95033">
        <ele>531</ele>
        <time>2020-12-26T13:53:06Z</time>
      </trkpt>
      <trkpt lat="47.02731" lon="5.95023">
        <ele>531</ele>
        <time>2020-12-26T13:53:07Z</time>
      </trkpt>
      <trkpt lat="47.02729" lon="5.95013">
        <ele>531</ele>
        <time>2020-12-26T13:53:08Z</time>
      </trkpt>
      <trkpt lat="47.02727" lon="5.95003">
        <ele>531</ele>
        <time>2020-12-26T13:53:09Z</time>
      </trkpt>
      <trkpt lat="47.02725" lon="5.94993">
        <ele>531</ele>
        <time>2020-12-26T13:53:10Z</time>
      </trkpt>
      <trkpt lat="47.02722" lon="5.94983">
        <ele>531</ele>
        <time>2020-12-26T13:53:11Z</time>
      </trkpt>
      <trkpt lat="47.0272" lon="5.94973">
        <ele>531</ele>
        <time>2020-12-26T13:53:12Z</time>
      </trkpt>
      <trkpt lat="47.02717" lon="5.94963">
        <ele>531</ele>
        <time>2020-12-26T13:53:13Z</time>
      </trkpt>
      <trkpt lat="47.02715" lon="5.94953">
        <ele>531</ele>
        <time>2020-12-26T13:53:14Z</time>
      </trkpt>
      <trkpt lat="47.02712" lon="5.94944">
        <ele>531</ele>
        <time>2020-12-26T13:53:15Z</time>
      </trkpt>
      <trkpt lat="47.0271" lon="5.94936">
        <ele>531</ele>
        <time>2020-12-26T13:53:16Z</time>
      </trkpt>
      <trkpt lat="47.02707" lon="5.94928">
        <ele>531.2</ele>
        <time>2020-12-26T13:53:17Z</time>
      </trkpt>
      <trkpt lat="47.02703" lon="5.94921">
        <ele>531.2</ele>
        <time>2020-12-26T13:53:18Z</time>
      </trkpt>
      <trkpt lat="47.027" lon="5.94914">
        <ele>531.6</ele>
        <time>2020-12-26T13:53:19Z</time>
      </trkpt>
      <trkpt lat="47.02697" lon="5.94908">
        <ele>531.6</ele>
        <time>2020-12-26T13:53:20Z</time>
      </trkpt>
      <trkpt lat="47.02693" lon="5.94903">
        <ele>531.6</ele>
        <time>2020-12-26T13:53:21Z</time>
      </trkpt>
      <trkpt lat="47.0269" lon="5.94898">
        <ele>531.6</ele>
        <time>2020-12-26T13:53:22Z</time>
      </trkpt>
      <trkpt lat="47.02686" lon="5.94894">
        <ele>531.6</ele>
        <time>2020-12-26T13:53:23Z</time>
      </trkpt>
      <trkpt lat="47.02681" lon="5.94892">
        <ele>531.6</ele>
        <time>2020-12-26T13:53:24Z</time>
      </trkpt>
      <trkpt lat="47.02676" lon="5.94892">
        <ele>531.6</ele>
        <time>2020-12-26T13:53:25Z</time>
      </trkpt>
      <trkpt lat="47.02671" lon="5.94893">
        <ele>531.6</ele>
        <time>2020-12-26T13:53:26Z</time>
      </trkpt>
      <trkpt lat="47.02665" lon="5.94893">
        <ele>531.6</ele>
        <time>2020-12-26T13:53:27Z</time>
      </trkpt>
      <trkpt lat="47.0266" lon="5.94894">
        <ele>531.6</ele>
        <time>2020-12-26T13:53:28Z</time>
      </trkpt>
      <trkpt lat="47.02655" lon="5.94896">
        <ele>531.8</ele>
        <time>2020-12-26T13:53:29Z</time>
      </trkpt>
      <trkpt lat="47.0265" lon="5.94899">
        <ele>531.8</ele>
        <time>2020-12-26T13:53:30Z</time>
      </trkpt>
      <trkpt lat="47.02646" lon="5.94901">
        <ele>532.2</ele>
        <time>2020-12-26T13:53:31Z</time>
      </trkpt>
      <trkpt lat="47.02642" lon="5.94903">
        <ele>532.2</ele>
        <time>2020-12-26T13:53:32Z</time>
      </trkpt>
      <trkpt lat="47.02638" lon="5.94906">
        <ele>532.6</ele>
        <time>2020-12-26T13:53:33Z</time>
      </trkpt>
      <trkpt lat="47.02635" lon="5.9491">
        <ele>533</ele>
        <time>2020-12-26T13:53:34Z</time>
      </trkpt>
      <trkpt lat="47.02631" lon="5.94913">
        <ele>533.4</ele>
        <time>2020-12-26T13:53:35Z</time>
      </trkpt>
      <trkpt lat="47.02628" lon="5.94916">
        <ele>533.6</ele>
        <time>2020-12-26T13:53:36Z</time>
      </trkpt>
      <trkpt lat="47.02625" lon="5.94919">
        <ele>534</ele>
        <time>2020-12-26T13:53:37Z</time>
      </trkpt>
      <trkpt lat="47.02623" lon="5.94922">
        <ele>534.4</ele>
        <time>2020-12-26T13:53:38Z</time>
      </trkpt>
      <trkpt lat="47.0262" lon="5.94925">
        <ele>534.8</ele>
        <time>2020-12-26T13:53:39Z</time>
      </trkpt>
      <trkpt lat="47.02617" lon="5.94927">
        <ele>535.2</ele>
        <time>2020-12-26T13:53:40Z</time>
      </trkpt>
      <trkpt lat="47.02615" lon="5.9493">
        <ele>535.4</ele>
        <time>2020-12-26T13:53:41Z</time>
      </trkpt>
      <trkpt lat="47.02612" lon="5.94933">
        <ele>535.8</ele>
        <time>2020-12-26T13:53:42Z</time>
      </trkpt>
      <trkpt lat="47.02609" lon="5.94935">
        <ele>536.2</ele>
        <time>2020-12-26T13:53:43Z</time>
      </trkpt>
      <trkpt lat="47.02607" lon="5.94937">
        <ele>536.6</ele>
        <time>2020-12-26T13:53:44Z</time>
      </trkpt>
      <trkpt lat="47.02604" lon="5.94939">
        <ele>536.8</ele>
        <time>2020-12-26T13:53:45Z</time>
      </trkpt>
      <trkpt lat="47.02602" lon="5.94941">
        <ele>537.2</ele>
        <time>2020-12-26T13:53:46Z</time>
      </trkpt>
      <trkpt lat="47.02599" lon="5.94943">
        <ele>537.4</ele>
        <time>2020-12-26T13:53:47Z</time>
      </trkpt>
      <trkpt lat="47.02597" lon="5.94945">
        <ele>537.8</ele>
        <time>2020-12-26T13:53:48Z</time>
      </trkpt>
      <trkpt lat="47.02595" lon="5.94948">
        <ele>538.2</ele>
        <time>2020-12-26T13:53:49Z</time>
      </trkpt>
      <trkpt lat="47.02593" lon="5.9495">
        <ele>538.6</ele>
        <time>2020-12-26T13:53:50Z</time>
      </trkpt>
      <trkpt lat="47.0259" lon="5.94952">
        <ele>539</ele>
        <time>2020-12-26T13:53:51Z</time>
      </trkpt>
      <trkpt lat="47.02588" lon="5.94955">
        <ele>539.2</ele>
        <time>2020-12-26T13:53:52Z</time>
      </trkpt>
      <trkpt lat="47.02586" lon="5.94957">
        <ele>539.6</ele>
        <time>2020-12-26T13:53:53Z</time>
      </trkpt>
      <trkpt lat="47.02583" lon="5.94959">
        <ele>539.8</ele>
        <time>2020-12-26T13:53:54Z</time>
      </trkpt>
      <trkpt lat="47.0258" lon="5.94962">
        <ele>540.2</ele>
        <time>2020-12-26T13:53:55Z</time>
      </trkpt>
      <trkpt lat="47.02577" lon="5.94964">
        <ele>540.4</ele>
        <time>2020-12-26T13:53:56Z</time>
      </trkpt>
      <trkpt lat="47.02575" lon="5.94966">
        <ele>540.6</ele>
        <time>2020-12-26T13:53:57Z</time>
      </trkpt>
      <trkpt lat="47.02572" lon="5.94968">
        <ele>541</ele>
        <time>2020-12-26T13:53:58Z</time>
      </trkpt>
      <trkpt lat="47.02569" lon="5.9497">
        <ele>541.2</ele>
        <time>2020-12-26T13:53:59Z</time>
      </trkpt>
      <trkpt lat="47.02566" lon="5.94971">
        <ele>541.4</ele>
        <time>2020-12-26T13:54:00Z</time>
      </trkpt>
      <trkpt lat="47.02563" lon="5.94972">
        <ele>541.4</ele>
        <time>2020-12-26T13:54:01Z</time>
      </trkpt>
      <trkpt lat="47.0256" lon="5.94973">
        <ele>541.8</ele>
        <time>2020-12-26T13:54:02Z</time>
      </trkpt>
      <trkpt lat="47.02557" lon="5.94975">
        <ele>541.8</ele>
        <time>2020-12-26T13:54:03Z</time>
      </trkpt>
      <trkpt lat="47.02555" lon="5.94976">
        <ele>542.2</ele>
        <time>2020-12-26T13:54:04Z</time>
      </trkpt>
      <trkpt lat="47.02552" lon="5.94976">
        <ele>542.2</ele>
        <time>2020-12-26T13:54:05Z</time>
      </trkpt>
      <trkpt lat="47.02549" lon="5.94977">
        <ele>542.4</ele>
        <time>2020-12-26T13:54:06Z</time>
      </trkpt>
      <trkpt lat="47.02547" lon="5.94977">
        <ele>542.4</ele>
        <time>2020-12-26T13:54:07Z</time>
      </trkpt>
      <trkpt lat="47.02544" lon="5.94978">
        <ele>542.6</ele>
        <time>2020-12-26T13:54:08Z</time>
      </trkpt>
      <trkpt lat="47.02541" lon="5.94979">
        <ele>542.6</ele>
        <time>2020-12-26T13:54:09Z</time>
      </trkpt>
      <trkpt lat="47.02539" lon="5.9498">
        <ele>543</ele>
        <time>2020-12-26T13:54:10Z</time>
      </trkpt>
      <trkpt lat="47.02536" lon="5.94982">
        <ele>543</ele>
        <time>2020-12-26T13:54:11Z</time>
      </trkpt>
      <trkpt lat="47.02533" lon="5.94983">
        <ele>543.2</ele>
        <time>2020-12-26T13:54:12Z</time>
      </trkpt>
      <trkpt lat="47.0253" lon="5.94984">
        <ele>543.4</ele>
        <time>2020-12-26T13:54:13Z</time>
      </trkpt>
      <trkpt lat="47.02528" lon="5.94984">
        <ele>543.4</ele>
        <time>2020-12-26T13:54:14Z</time>
      </trkpt>
      <trkpt lat="47.02525" lon="5.94986">
        <ele>544</ele>
        <time>2020-12-26T13:54:15Z</time>
      </trkpt>
      <trkpt lat="47.02523" lon="5.94987">
        <ele>544</ele>
        <time>2020-12-26T13:54:16Z</time>
      </trkpt>
      <trkpt lat="47.02521" lon="5.94989">
        <ele>544.2</ele>
        <time>2020-12-26T13:54:17Z</time>
      </trkpt>
      <trkpt lat="47.02519" lon="5.9499">
        <ele>544.6</ele>
        <time>2020-12-26T13:54:18Z</time>
      </trkpt>
      <trkpt lat="47.02517" lon="5.94991">
        <ele>544.6</ele>
        <time>2020-12-26T13:54:19Z</time>
      </trkpt>
      <trkpt lat="47.02514" lon="5.94992">
        <ele>545</ele>
        <time>2020-12-26T13:54:20Z</time>
      </trkpt>
      <trkpt lat="47.02512" lon="5.94993">
        <ele>545.2</ele>
        <time>2020-12-26T13:54:21Z</time>
      </trkpt>
      <trkpt lat="47.0251" lon="5.94994">
        <ele>545.6</ele>
        <time>2020-12-26T13:54:22Z</time>
      </trkpt>
      <trkpt lat="47.02509" lon="5.94996">
        <ele>545.8</ele>
        <time>2020-12-26T13:54:23Z</time>
      </trkpt>
      <trkpt lat="47.02507" lon="5.94996">
        <ele>546.2</ele>
        <time>2020-12-26T13:54:24Z</time>
      </trkpt>
      <trkpt lat="47.02504" lon="5.94997">
        <ele>546.4</ele>
        <time>2020-12-26T13:54:25Z</time>
      </trkpt>
      <trkpt lat="47.02502" lon="5.94998">
        <ele>546.6</ele>
        <time>2020-12-26T13:54:26Z</time>
      </trkpt>
      <trkpt lat="47.025" lon="5.94999">
        <ele>547</ele>
        <time>2020-12-26T13:54:27Z</time>
      </trkpt>
      <trkpt lat="47.02498" lon="5.95">
        <ele>547.2</ele>
        <time>2020-12-26T13:54:28Z</time>
      </trkpt>
      <trkpt lat="47.02496" lon="5.95001">
        <ele>547.4</ele>
        <time>2020-12-26T13:54:29Z</time>
      </trkpt>
      <trkpt lat="47.02495" lon="5.95001">
        <ele>547.6</ele>
        <time>2020-12-26T13:54:30Z</time>
      </trkpt>
      <trkpt lat="47.02493" lon="5.95002">
        <ele>547.6</ele>
        <time>2020-12-26T13:54:31Z</time>
      </trkpt>
      <trkpt lat="47.02491" lon="5.95003">
        <ele>547.8</ele>
        <time>2020-12-26T13:54:32Z</time>
      </trkpt>
      <trkpt lat="47.0249" lon="5.95004">
        <ele>548</ele>
        <time>2020-12-26T13:54:33Z</time>
      </trkpt>
      <trkpt lat="47.02488" lon="5.95005">
        <ele>548.2</ele>
        <time>2020-12-26T13:54:34Z</time>
      </trkpt>
      <trkpt lat="47.02486" lon="5.95006">
        <ele>548.2</ele>
        <time>2020-12-26T13:54:35Z</time>
      </trkpt>
      <trkpt lat="47.02485" lon="5.95007">
        <ele>548.6</ele>
        <time>2020-12-26T13:54:36Z</time>
      </trkpt>
      <trkpt lat="47.02483" lon="5.95007">
        <ele>548.6</ele>
        <time>2020-12-26T13:54:37Z</time>
      </trkpt>
      <trkpt lat="47.02481" lon="5.95008">
        <ele>549</ele>
        <time>2020-12-26T13:54:38Z</time>
      </trkpt>
      <trkpt lat="47.02478" lon="5.95009">
        <ele>549</ele>
        <time>2020-12-26T13:54:39Z</time>
      </trkpt>
      <trkpt lat="47.02476" lon="5.9501">
        <ele>549.2</ele>
        <time>2020-12-26T13:54:40Z</time>
      </trkpt>
      <trkpt lat="47.02474" lon="5.95011">
        <ele>549.2</ele>
        <time>2020-12-26T13:54:41Z</time>
      </trkpt>
      <trkpt lat="47.02472" lon="5.95012">
        <ele>549.6</ele>
        <time>2020-12-26T13:54:42Z</time>
      </trkpt>
      <trkpt lat="47.02469" lon="5.95012">
        <ele>549.6</ele>
        <time>2020-12-26T13:54:43Z</time>
      </trkpt>
      <trkpt lat="47.02467" lon="5.95014">
        <ele>550</ele>
        <time>2020-12-26T13:54:44Z</time>
      </trkpt>
      <trkpt lat="47.02464" lon="5.95014">
        <ele>550</ele>
        <time>2020-12-26T13:54:45Z</time>
      </trkpt>
      <trkpt lat="47.02462" lon="5.95015">
        <ele>550</ele>
        <time>2020-12-26T13:54:46Z</time>
      </trkpt>
      <trkpt lat="47.02459" lon="5.95016">
        <ele>550.2</ele>
        <time>2020-12-26T13:54:47Z</time>
      </trkpt>
      <trkpt lat="47.02457" lon="5.95017">
        <ele>550.2</ele>
        <time>2020-12-26T13:54:48Z</time>
      </trkpt>
      <trkpt lat="47.02455" lon="5.95017">
        <ele>550.6</ele>
        <time>2020-12-26T13:54:49Z</time>
      </trkpt>
      <trkpt lat="47.02452" lon="5.95018">
        <ele>550.8</ele>
        <time>2020-12-26T13:54:50Z</time>
      </trkpt>
      <trkpt lat="47.0245" lon="5.95018">
        <ele>550.8</ele>
        <time>2020-12-26T13:54:51Z</time>
      </trkpt>
      <trkpt lat="47.02448" lon="5.9502">
        <ele>551.2</ele>
        <time>2020-12-26T13:54:52Z</time>
      </trkpt>
      <trkpt lat="47.02445" lon="5.9502">
        <ele>551.2</ele>
        <time>2020-12-26T13:54:53Z</time>
      </trkpt>
      <trkpt lat="47.02443" lon="5.95021">
        <ele>551.4</ele>
        <time>2020-12-26T13:54:54Z</time>
      </trkpt>
      <trkpt lat="47.02441" lon="5.95022">
        <ele>551.4</ele>
        <time>2020-12-26T13:54:55Z</time>
      </trkpt>
      <trkpt lat="47.02439" lon="5.95022">
        <ele>551.8</ele>
        <time>2020-12-26T13:54:56Z</time>
      </trkpt>
      <trkpt lat="47.02437" lon="5.95023">
        <ele>551.8</ele>
        <time>2020-12-26T13:54:57Z</time>
      </trkpt>
      <trkpt lat="47.02434" lon="5.95023">
        <ele>552.2</ele>
        <time>2020-12-26T13:54:58Z</time>
      </trkpt>
      <trkpt lat="47.02431" lon="5.95024">
        <ele>552.2</ele>
        <time>2020-12-26T13:54:59Z</time>
      </trkpt>
      <trkpt lat="47.02429" lon="5.95024">
        <ele>552.6</ele>
        <time>2020-12-26T13:55:00Z</time>
      </trkpt>
      <trkpt lat="47.02426" lon="5.95025">
        <ele>552.6</ele>
        <time>2020-12-26T13:55:01Z</time>
      </trkpt>
      <trkpt lat="47.02424" lon="5.95025">
        <ele>553</ele>
        <time>2020-12-26T13:55:02Z</time>
      </trkpt>
      <trkpt lat="47.02421" lon="5.95026">
        <ele>553</ele>
        <time>2020-12-26T13:55:03Z</time>
      </trkpt>
      <trkpt lat="47.02419" lon="5.95027">
        <ele>553.4</ele>
        <time>2020-12-26T13:55:04Z</time>
      </trkpt>
      <trkpt lat="47.02417" lon="5.95028">
        <ele>553.6</ele>
        <time>2020-12-26T13:55:05Z</time>
      </trkpt>
      <trkpt lat="47.02415" lon="5.95029">
        <ele>553.6</ele>
        <time>2020-12-26T13:55:06Z</time>
      </trkpt>
      <trkpt lat="47.02412" lon="5.95029">
        <ele>554</ele>
        <time>2020-12-26T13:55:07Z</time>
      </trkpt>
      <trkpt lat="47.0241" lon="5.9503">
        <ele>554.2</ele>
        <time>2020-12-26T13:55:08Z</time>
      </trkpt>
      <trkpt lat="47.02408" lon="5.95031">
        <ele>554.4</ele>
        <time>2020-12-26T13:55:09Z</time>
      </trkpt>
      <trkpt lat="47.02406" lon="5.95032">
        <ele>554.6</ele>
        <time>2020-12-26T13:55:10Z</time>
      </trkpt>
      <trkpt lat="47.02403" lon="5.95034">
        <ele>554.8</ele>
        <time>2020-12-26T13:55:11Z</time>
      </trkpt>
      <trkpt lat="47.02401" lon="5.95035">
        <ele>554.8</ele>
        <time>2020-12-26T13:55:12Z</time>
      </trkpt>
      <trkpt lat="47.02398" lon="5.95036">
        <ele>555.2</ele>
        <time>2020-12-26T13:55:13Z</time>
      </trkpt>
      <trkpt lat="47.02396" lon="5.95037">
        <ele>555.2</ele>
        <time>2020-12-26T13:55:14Z</time>
      </trkpt>
      <trkpt lat="47.02394" lon="5.95038">
        <ele>555.6</ele>
        <time>2020-12-26T13:55:15Z</time>
      </trkpt>
      <trkpt lat="47.02392" lon="5.9504">
        <ele>555.6</ele>
        <time>2020-12-26T13:55:16Z</time>
      </trkpt>
      <trkpt lat="47.02389" lon="5.95041">
        <ele>556</ele>
        <time>2020-12-26T13:55:17Z</time>
      </trkpt>
      <trkpt lat="47.02387" lon="5.95042">
        <ele>556</ele>
        <time>2020-12-26T13:55:18Z</time>
      </trkpt>
      <trkpt lat="47.02385" lon="5.95043">
        <ele>556.4</ele>
        <time>2020-12-26T13:55:19Z</time>
      </trkpt>
      <trkpt lat="47.02382" lon="5.95044">
        <ele>556.4</ele>
        <time>2020-12-26T13:55:20Z</time>
      </trkpt>
      <trkpt lat="47.0238" lon="5.95046">
        <ele>556.8</ele>
        <time>2020-12-26T13:55:21Z</time>
      </trkpt>
      <trkpt lat="47.02378" lon="5.95047">
        <ele>557</ele>
        <time>2020-12-26T13:55:22Z</time>
      </trkpt>
      <trkpt lat="47.02375" lon="5.95049">
        <ele>557</ele>
        <time>2020-12-26T13:55:23Z</time>
      </trkpt>
      <trkpt lat="47.02373" lon="5.9505">
        <ele>557.4</ele>
        <time>2020-12-26T13:55:24Z</time>
      </trkpt>
      <trkpt lat="47.0237" lon="5.95052">
        <ele>557.4</ele>
        <time>2020-12-26T13:55:25Z</time>
      </trkpt>
      <trkpt lat="47.02368" lon="5.95053">
        <ele>557.8</ele>
        <time>2020-12-26T13:55:26Z</time>
      </trkpt>
      <trkpt lat="47.02365" lon="5.95055">
        <ele>557.8</ele>
        <time>2020-12-26T13:55:27Z</time>
      </trkpt>
      <trkpt lat="47.02363" lon="5.95056">
        <ele>558</ele>
        <time>2020-12-26T13:55:28Z</time>
      </trkpt>
      <trkpt lat="47.02361" lon="5.95058">
        <ele>558</ele>
        <time>2020-12-26T13:55:29Z</time>
      </trkpt>
      <trkpt lat="47.02358" lon="5.95059">
        <ele>558.4</ele>
        <time>2020-12-26T13:55:30Z</time>
      </trkpt>
      <trkpt lat="47.02356" lon="5.9506">
        <ele>558.4</ele>
        <time>2020-12-26T13:55:31Z</time>
      </trkpt>
      <trkpt lat="47.02353" lon="5.95062">
        <ele>558.8</ele>
        <time>2020-12-26T13:55:32Z</time>
      </trkpt>
      <trkpt lat="47.0235" lon="5.95063">
        <ele>559</ele>
        <time>2020-12-26T13:55:33Z</time>
      </trkpt>
      <trkpt lat="47.02348" lon="5.95065">
        <ele>559.2</ele>
        <time>2020-12-26T13:55:34Z</time>
      </trkpt>
      <trkpt lat="47.02345" lon="5.95066">
        <ele>559.4</ele>
        <time>2020-12-26T13:55:35Z</time>
      </trkpt>
      <trkpt lat="47.02343" lon="5.95067">
        <ele>559.6</ele>
        <time>2020-12-26T13:55:36Z</time>
      </trkpt>
      <trkpt lat="47.0234" lon="5.95068">
        <ele>559.8</ele>
        <time>2020-12-26T13:55:37Z</time>
      </trkpt>
      <trkpt lat="47.02337" lon="5.95069">
        <ele>560.2</ele>
        <time>2020-12-26T13:55:38Z</time>
      </trkpt>
      <trkpt lat="47.02334" lon="5.9507">
        <ele>560.4</ele>
        <time>2020-12-26T13:55:39Z</time>
      </trkpt>
      <trkpt lat="47.02332" lon="5.95072">
        <ele>560.4</ele>
        <time>2020-12-26T13:55:40Z</time>
      </trkpt>
      <trkpt lat="47.02329" lon="5.95073">
        <ele>560.8</ele>
        <time>2020-12-26T13:55:41Z</time>
      </trkpt>
      <trkpt lat="47.02327" lon="5.95074">
        <ele>560.8</ele>
        <time>2020-12-26T13:55:42Z</time>
      </trkpt>
      <trkpt lat="47.02324" lon="5.95075">
        <ele>561</ele>
        <time>2020-12-26T13:55:43Z</time>
      </trkpt>
      <trkpt lat="47.02321" lon="5.95076">
        <ele>561</ele>
        <time>2020-12-26T13:55:44Z</time>
      </trkpt>
      <trkpt lat="47.02318" lon="5.95078">
        <ele>561.4</ele>
        <time>2020-12-26T13:55:45Z</time>
      </trkpt>
      <trkpt lat="47.02315" lon="5.95079">
        <ele>561.4</ele>
        <time>2020-12-26T13:55:46Z</time>
      </trkpt>
      <trkpt lat="47.02312" lon="5.95081">
        <ele>561.6</ele>
        <time>2020-12-26T13:55:47Z</time>
      </trkpt>
      <trkpt lat="47.02309" lon="5.95082">
        <ele>561.6</ele>
        <time>2020-12-26T13:55:48Z</time>
      </trkpt>
      <trkpt lat="47.02306" lon="5.95083">
        <ele>562</ele>
        <time>2020-12-26T13:55:49Z</time>
      </trkpt>
      <trkpt lat="47.02304" lon="5.95084">
        <ele>562</ele>
        <time>2020-12-26T13:55:50Z</time>
      </trkpt>
      <trkpt lat="47.023" lon="5.95085">
        <ele>562.2</ele>
        <time>2020-12-26T13:55:51Z</time>
      </trkpt>
      <trkpt lat="47.02298" lon="5.95086">
        <ele>562.2</ele>
        <time>2020-12-26T13:55:52Z</time>
      </trkpt>
      <trkpt lat="47.02295" lon="5.95088">
        <ele>562.4</ele>
        <time>2020-12-26T13:55:53Z</time>
      </trkpt>
      <trkpt lat="47.02292" lon="5.95089">
        <ele>562.4</ele>
        <time>2020-12-26T13:55:54Z</time>
      </trkpt>
      <trkpt lat="47.02289" lon="5.9509">
        <ele>562.8</ele>
        <time>2020-12-26T13:55:55Z</time>
      </trkpt>
      <trkpt lat="47.02285" lon="5.95091">
        <ele>563</ele>
        <time>2020-12-26T13:55:56Z</time>
      </trkpt>
      <trkpt lat="47.02282" lon="5.95093">
        <ele>563</ele>
        <time>2020-12-26T13:55:57Z</time>
      </trkpt>
      <trkpt lat="47.02279" lon="5.95094">
        <ele>563.2</ele>
        <time>2020-12-26T13:55:58Z</time>
      </trkpt>
      <trkpt lat="47.02276" lon="5.95095">
        <ele>563.2</ele>
        <time>2020-12-26T13:55:59Z</time>
      </trkpt>
      <trkpt lat="47.02274" lon="5.95097">
        <ele>563.6</ele>
        <time>2020-12-26T13:56:00Z</time>
      </trkpt>
      <trkpt lat="47.02271" lon="5.95098">
        <ele>563.6</ele>
        <time>2020-12-26T13:56:01Z</time>
      </trkpt>
      <trkpt lat="47.02268" lon="5.95099">
        <ele>564</ele>
        <time>2020-12-26T13:56:02Z</time>
      </trkpt>
      <trkpt lat="47.02265" lon="5.951">
        <ele>564.2</ele>
        <time>2020-12-26T13:56:03Z</time>
      </trkpt>
      <trkpt lat="47.02261" lon="5.95101">
        <ele>564.2</ele>
        <time>2020-12-26T13:56:04Z</time>
      </trkpt>
      <trkpt lat="47.02258" lon="5.95101">
        <ele>564.4</ele>
        <time>2020-12-26T13:56:05Z</time>
      </trkpt>
      <trkpt lat="47.02254" lon="5.95102">
        <ele>564.4</ele>
        <time>2020-12-26T13:56:06Z</time>
      </trkpt>
      <trkpt lat="47.02251" lon="5.95105">
        <ele>564.6</ele>
        <time>2020-12-26T13:56:07Z</time>
      </trkpt>
      <trkpt lat="47.02247" lon="5.95107">
        <ele>564.6</ele>
        <time>2020-12-26T13:56:08Z</time>
      </trkpt>
      <trkpt lat="47.02244" lon="5.95108">
        <ele>565</ele>
        <time>2020-12-26T13:56:09Z</time>
      </trkpt>
      <trkpt lat="47.02241" lon="5.9511">
        <ele>565</ele>
        <time>2020-12-26T13:56:10Z</time>
      </trkpt>
      <trkpt lat="47.02237" lon="5.95112">
        <ele>565.4</ele>
        <time>2020-12-26T13:56:11Z</time>
      </trkpt>
      <trkpt lat="47.02234" lon="5.95114">
        <ele>565.6</ele>
        <time>2020-12-26T13:56:12Z</time>
      </trkpt>
      <trkpt lat="47.0223" lon="5.95116">
        <ele>565.8</ele>
        <time>2020-12-26T13:56:13Z</time>
      </trkpt>
      <trkpt lat="47.02227" lon="5.95119">
        <ele>566.2</ele>
        <time>2020-12-26T13:56:14Z</time>
      </trkpt>
      <trkpt lat="47.02223" lon="5.9512">
        <ele>566.4</ele>
        <time>2020-12-26T13:56:15Z</time>
      </trkpt>
      <trkpt lat="47.02219" lon="5.95122">
        <ele>566.4</ele>
        <time>2020-12-26T13:56:16Z</time>
      </trkpt>
      <trkpt lat="47.02216" lon="5.95124">
        <ele>566.8</ele>
        <time>2020-12-26T13:56:17Z</time>
      </trkpt>
      <trkpt lat="47.02212" lon="5.95126">
        <ele>567.2</ele>
        <time>2020-12-26T13:56:18Z</time>
      </trkpt>
      <trkpt lat="47.02209" lon="5.95128">
        <ele>567.4</ele>
        <time>2020-12-26T13:56:19Z</time>
      </trkpt>
      <trkpt lat="47.02205" lon="5.9513">
        <ele>567.6</ele>
        <time>2020-12-26T13:56:20Z</time>
      </trkpt>
      <trkpt lat="47.02201" lon="5.95131">
        <ele>567.6</ele>
        <time>2020-12-26T13:56:21Z</time>
      </trkpt>
      <trkpt lat="47.02198" lon="5.95132">
        <ele>568</ele>
        <time>2020-12-26T13:56:22Z</time>
      </trkpt>
      <trkpt lat="47.02194" lon="5.95133">
        <ele>568.2</ele>
        <time>2020-12-26T13:56:23Z</time>
      </trkpt>
      <trkpt lat="47.0219" lon="5.95135">
        <ele>568.2</ele>
        <time>2020-12-26T13:56:24Z</time>
      </trkpt>
      <trkpt lat="47.02186" lon="5.95135">
        <ele>568.8</ele>
        <time>2020-12-26T13:56:25Z</time>
      </trkpt>
      <trkpt lat="47.02183" lon="5.95136">
        <ele>569</ele>
        <time>2020-12-26T13:56:26Z</time>
      </trkpt>
      <trkpt lat="47.02179" lon="5.95137">
        <ele>569.2</ele>
        <time>2020-12-26T13:56:27Z</time>
      </trkpt>
      <trkpt lat="47.02175" lon="5.95138">
        <ele>569.4</ele>
        <time>2020-12-26T13:56:28Z</time>
      </trkpt>
      <trkpt lat="47.02172" lon="5.95139">
        <ele>569.6</ele>
        <time>2020-12-26T13:56:29Z</time>
      </trkpt>
      <trkpt lat="47.02168" lon="5.95139">
        <ele>569.8</ele>
        <time>2020-12-26T13:56:30Z</time>
      </trkpt>
      <trkpt lat="47.02164" lon="5.95139">
        <ele>569.8</ele>
        <time>2020-12-26T13:56:31Z</time>
      </trkpt>
      <trkpt lat="47.0216" lon="5.95139">
        <ele>570.2</ele>
        <time>2020-12-26T13:56:32Z</time>
      </trkpt>
      <trkpt lat="47.02156" lon="5.95138">
        <ele>570.2</ele>
        <time>2020-12-26T13:56:33Z</time>
      </trkpt>
      <trkpt lat="47.02152" lon="5.95138">
        <ele>570.6</ele>
        <time>2020-12-26T13:56:34Z</time>
      </trkpt>
      <trkpt lat="47.02148" lon="5.95136">
        <ele>570.8</ele>
        <time>2020-12-26T13:56:35Z</time>
      </trkpt>
      <trkpt lat="47.02144" lon="5.95135">
        <ele>570.8</ele>
        <time>2020-12-26T13:56:36Z</time>
      </trkpt>
      <trkpt lat="47.0214" lon="5.95134">
        <ele>571.2</ele>
        <time>2020-12-26T13:56:37Z</time>
      </trkpt>
      <trkpt lat="47.02136" lon="5.95132">
        <ele>571.4</ele>
        <time>2020-12-26T13:56:38Z</time>
      </trkpt>
      <trkpt lat="47.02132" lon="5.9513">
        <ele>571.8</ele>
        <time>2020-12-26T13:56:39Z</time>
      </trkpt>
      <trkpt lat="47.02128" lon="5.95128">
        <ele>572.2</ele>
        <time>2020-12-26T13:56:40Z</time>
      </trkpt>
      <trkpt lat="47.02124" lon="5.95127">
        <ele>572.6</ele>
        <time>2020-12-26T13:56:41Z</time>
      </trkpt>
      <trkpt lat="47.0212" lon="5.95125">
        <ele>572.8</ele>
        <time>2020-12-26T13:56:42Z</time>
      </trkpt>
      <trkpt lat="47.02116" lon="5.95124">
        <ele>573</ele>
        <time>2020-12-26T13:56:43Z</time>
      </trkpt>
      <trkpt lat="47.02112" lon="5.95122">
        <ele>573.2</ele>
        <time>2020-12-26T13:56:44Z</time>
      </trkpt>
      <trkpt lat="47.02108" lon="5.95121">
        <ele>573.4</ele>
        <time>2020-12-26T13:56:45Z</time>
      </trkpt>
      <trkpt lat="47.02104" lon="5.9512">
        <ele>573.6</ele>
        <time>2020-12-26T13:56:46Z</time>
      </trkpt>
      <trkpt lat="47.021" lon="5.95118">
        <ele>573.6</ele>
        <time>2020-12-26T13:56:47Z</time>
      </trkpt>
      <trkpt lat="47.02096" lon="5.95117">
        <ele>574</ele>
        <time>2020-12-26T13:56:48Z</time>
      </trkpt>
      <trkpt lat="47.02092" lon="5.95116">
        <ele>574.2</ele>
        <time>2020-12-26T13:56:49Z</time>
      </trkpt>
      <trkpt lat="47.02088" lon="5.95114">
        <ele>574.2</ele>
        <time>2020-12-26T13:56:50Z</time>
      </trkpt>
      <trkpt lat="47.02084" lon="5.95113">
        <ele>574.6</ele>
        <time>2020-12-26T13:56:51Z</time>
      </trkpt>
      <trkpt lat="47.0208" lon="5.95112">
        <ele>574.6</ele>
        <time>2020-12-26T13:56:52Z</time>
      </trkpt>
      <trkpt lat="47.02076" lon="5.9511">
        <ele>575</ele>
        <time>2020-12-26T13:56:53Z</time>
      </trkpt>
      <trkpt lat="47.02073" lon="5.95109">
        <ele>575</ele>
        <time>2020-12-26T13:56:54Z</time>
      </trkpt>
      <trkpt lat="47.02069" lon="5.95107">
        <ele>575.4</ele>
        <time>2020-12-26T13:56:55Z</time>
      </trkpt>
      <trkpt lat="47.02065" lon="5.95106">
        <ele>575.4</ele>
        <time>2020-12-26T13:56:56Z</time>
      </trkpt>
      <trkpt lat="47.02061" lon="5.95105">
        <ele>575.6</ele>
        <time>2020-12-26T13:56:57Z</time>
      </trkpt>
      <trkpt lat="47.02057" lon="5.95104">
        <ele>576</ele>
        <time>2020-12-26T13:56:58Z</time>
      </trkpt>
      <trkpt lat="47.02053" lon="5.95103">
        <ele>576</ele>
        <time>2020-12-26T13:56:59Z</time>
      </trkpt>
      <trkpt lat="47.02049" lon="5.95101">
        <ele>576.2</ele>
        <time>2020-12-26T13:57:00Z</time>
      </trkpt>
      <trkpt lat="47.02046" lon="5.951">
        <ele>576.2</ele>
        <time>2020-12-26T13:57:01Z</time>
      </trkpt>
      <trkpt lat="47.02042" lon="5.95099">
        <ele>576.6</ele>
        <time>2020-12-26T13:57:02Z</time>
      </trkpt>
      <trkpt lat="47.02038" lon="5.95098">
        <ele>576.6</ele>
        <time>2020-12-26T13:57:03Z</time>
      </trkpt>
      <trkpt lat="47.02034" lon="5.95097">
        <ele>577</ele>
        <time>2020-12-26T13:57:04Z</time>
      </trkpt>
      <trkpt lat="47.0203" lon="5.95096">
        <ele>577</ele>
        <time>2020-12-26T13:57:05Z</time>
      </trkpt>
      <trkpt lat="47.02026" lon="5.95094">
        <ele>577.4</ele>
        <time>2020-12-26T13:57:06Z</time>
      </trkpt>
      <trkpt lat="47.02023" lon="5.95093">
        <ele>577.4</ele>
        <time>2020-12-26T13:57:07Z</time>
      </trkpt>
      <trkpt lat="47.02019" lon="5.95092">
        <ele>577.8</ele>
        <time>2020-12-26T13:57:08Z</time>
      </trkpt>
      <trkpt lat="47.02015" lon="5.9509">
        <ele>578</ele>
        <time>2020-12-26T13:57:09Z</time>
      </trkpt>
      <trkpt lat="47.02011" lon="5.95089">
        <ele>578.2</ele>
        <time>2020-12-26T13:57:10Z</time>
      </trkpt>
      <trkpt lat="47.02007" lon="5.95088">
        <ele>578.2</ele>
        <time>2020-12-26T13:57:11Z</time>
      </trkpt>
      <trkpt lat="47.02003" lon="5.95087">
        <ele>578.6</ele>
        <time>2020-12-26T13:57:12Z</time>
      </trkpt>
      <trkpt lat="47.02" lon="5.95085">
        <ele>578.6</ele>
        <time>2020-12-26T13:57:13Z</time>
      </trkpt>
      <trkpt lat="47.01996" lon="5.95084">
        <ele>579.2</ele>
        <time>2020-12-26T13:57:14Z</time>
      </trkpt>
      <trkpt lat="47.01992" lon="5.95083">
        <ele>579.4</ele>
        <time>2020-12-26T13:57:15Z</time>
      </trkpt>
      <trkpt lat="47.01988" lon="5.95082">
        <ele>579.4</ele>
        <time>2020-12-26T13:57:16Z</time>
      </trkpt>
      <trkpt lat="47.01984" lon="5.9508">
        <ele>579.6</ele>
        <time>2020-12-26T13:57:17Z</time>
      </trkpt>
      <trkpt lat="47.0198" lon="5.95079">
        <ele>579.8</ele>
        <time>2020-12-26T13:57:18Z</time>
      </trkpt>
      <trkpt lat="47.01976" lon="5.95078">
        <ele>580</ele>
        <time>2020-12-26T13:57:19Z</time>
      </trkpt>
      <trkpt lat="47.01972" lon="5.95077">
        <ele>580.4</ele>
        <time>2020-12-26T13:57:20Z</time>
      </trkpt>
      <trkpt lat="47.01968" lon="5.95075">
        <ele>580.4</ele>
        <time>2020-12-26T13:57:21Z</time>
      </trkpt>
      <trkpt lat="47.01963" lon="5.95074">
        <ele>580.8</ele>
        <time>2020-12-26T13:57:22Z</time>
      </trkpt>
      <trkpt lat="47.01959" lon="5.95073">
        <ele>581</ele>
        <time>2020-12-26T13:57:23Z</time>
      </trkpt>
      <trkpt lat="47.01956" lon="5.95071">
        <ele>581.4</ele>
        <time>2020-12-26T13:57:24Z</time>
      </trkpt>
      <trkpt lat="47.01952" lon="5.9507">
        <ele>581.6</ele>
        <time>2020-12-26T13:57:25Z</time>
      </trkpt>
      <trkpt lat="47.01948" lon="5.95069">
        <ele>581.8</ele>
        <time>2020-12-26T13:57:26Z</time>
      </trkpt>
      <trkpt lat="47.01944" lon="5.95068">
        <ele>582</ele>
        <time>2020-12-26T13:57:27Z</time>
      </trkpt>
      <trkpt lat="47.0194" lon="5.95067">
        <ele>582.2</ele>
        <time>2020-12-26T13:57:28Z</time>
      </trkpt>
      <trkpt lat="47.01936" lon="5.95066">
        <ele>582.2</ele>
        <time>2020-12-26T13:57:29Z</time>
      </trkpt>
      <trkpt lat="47.01932" lon="5.95065">
        <ele>582.6</ele>
        <time>2020-12-26T13:57:30Z</time>
      </trkpt>
      <trkpt lat="47.01928" lon="5.95065">
        <ele>582.8</ele>
        <time>2020-12-26T13:57:31Z</time>
      </trkpt>
      <trkpt lat="47.01924" lon="5.95064">
        <ele>582.8</ele>
        <time>2020-12-26T13:57:32Z</time>
      </trkpt>
      <trkpt lat="47.0192" lon="5.95064">
        <ele>583.4</ele>
        <time>2020-12-26T13:57:33Z</time>
      </trkpt>
      <trkpt lat="47.01916" lon="5.95064">
        <ele>583.6</ele>
        <time>2020-12-26T13:57:34Z</time>
      </trkpt>
      <trkpt lat="47.01912" lon="5.95064">
        <ele>583.8</ele>
        <time>2020-12-26T13:57:35Z</time>
      </trkpt>
      <trkpt lat="47.01908" lon="5.95064">
        <ele>583.8</ele>
        <time>2020-12-26T13:57:36Z</time>
      </trkpt>
      <trkpt lat="47.01904" lon="5.95064">
        <ele>584.2</ele>
        <time>2020-12-26T13:57:37Z</time>
      </trkpt>
      <trkpt lat="47.01901" lon="5.95064">
        <ele>584.2</ele>
        <time>2020-12-26T13:57:38Z</time>
      </trkpt>
      <trkpt lat="47.01897" lon="5.95064">
        <ele>584.6</ele>
        <time>2020-12-26T13:57:39Z</time>
      </trkpt>
      <trkpt lat="47.01894" lon="5.95065">
        <ele>584.6</ele>
        <time>2020-12-26T13:57:40Z</time>
      </trkpt>
      <trkpt lat="47.0189" lon="5.95065">
        <ele>585</ele>
        <time>2020-12-26T13:57:41Z</time>
      </trkpt>
      <trkpt lat="47.01886" lon="5.95065">
        <ele>585</ele>
        <time>2020-12-26T13:57:42Z</time>
      </trkpt>
      <trkpt lat="47.01883" lon="5.95065">
        <ele>585.4</ele>
        <time>2020-12-26T13:57:43Z</time>
      </trkpt>
      <trkpt lat="47.01879" lon="5.95065">
        <ele>585.4</ele>
        <time>2020-12-26T13:57:44Z</time>
      </trkpt>
      <trkpt lat="47.01875" lon="5.95065">
        <ele>585.8</ele>
        <time>2020-12-26T13:57:45Z</time>
      </trkpt>
      <trkpt lat="47.01871" lon="5.95064">
        <ele>585.8</ele>
        <time>2020-12-26T13:57:46Z</time>
      </trkpt>
      <trkpt lat="47.01868" lon="5.95064">
        <ele>586</ele>
        <time>2020-12-26T13:57:47Z</time>
      </trkpt>
      <trkpt lat="47.01864" lon="5.95063">
        <ele>586.2</ele>
        <time>2020-12-26T13:57:48Z</time>
      </trkpt>
      <trkpt lat="47.0186" lon="5.95063">
        <ele>586.6</ele>
        <time>2020-12-26T13:57:49Z</time>
      </trkpt>
      <trkpt lat="47.01856" lon="5.95062">
        <ele>586.8</ele>
        <time>2020-12-26T13:57:50Z</time>
      </trkpt>
      <trkpt lat="47.01853" lon="5.95062">
        <ele>587</ele>
        <time>2020-12-26T13:57:51Z</time>
      </trkpt>
      <trkpt lat="47.01849" lon="5.95061">
        <ele>587</ele>
        <time>2020-12-26T13:57:52Z</time>
      </trkpt>
      <trkpt lat="47.01845" lon="5.9506">
        <ele>587.2</ele>
        <time>2020-12-26T13:57:53Z</time>
      </trkpt>
      <trkpt lat="47.01841" lon="5.9506">
        <ele>587.4</ele>
        <time>2020-12-26T13:57:54Z</time>
      </trkpt>
      <trkpt lat="47.01837" lon="5.95059">
        <ele>587.4</ele>
        <time>2020-12-26T13:57:55Z</time>
      </trkpt>
      <trkpt lat="47.01833" lon="5.95059">
        <ele>587.8</ele>
        <time>2020-12-26T13:57:56Z</time>
      </trkpt>
      <trkpt lat="47.01829" lon="5.95058">
        <ele>587.8</ele>
        <time>2020-12-26T13:57:57Z</time>
      </trkpt>
      <trkpt lat="47.01825" lon="5.95058">
        <ele>588.2</ele>
        <time>2020-12-26T13:57:58Z</time>
      </trkpt>
      <trkpt lat="47.01822" lon="5.95057">
        <ele>588.2</ele>
        <time>2020-12-26T13:57:59Z</time>
      </trkpt>
      <trkpt lat="47.01818" lon="5.95056">
        <ele>588.4</ele>
        <time>2020-12-26T13:58:00Z</time>
      </trkpt>
      <trkpt lat="47.01815" lon="5.95055">
        <ele>588.8</ele>
        <time>2020-12-26T13:58:01Z</time>
      </trkpt>
      <trkpt lat="47.01811" lon="5.95054">
        <ele>589</ele>
        <time>2020-12-26T13:58:02Z</time>
      </trkpt>
      <trkpt lat="47.01807" lon="5.95053">
        <ele>589.2</ele>
        <time>2020-12-26T13:58:03Z</time>
      </trkpt>
      <trkpt lat="47.01804" lon="5.95053">
        <ele>589.2</ele>
        <time>2020-12-26T13:58:04Z</time>
      </trkpt>
      <trkpt lat="47.018" lon="5.95052">
        <ele>589.6</ele>
        <time>2020-12-26T13:58:05Z</time>
      </trkpt>
      <trkpt lat="47.01796" lon="5.95052">
        <ele>589.8</ele>
        <time>2020-12-26T13:58:06Z</time>
      </trkpt>
      <trkpt lat="47.01793" lon="5.95051">
        <ele>589.8</ele>
        <time>2020-12-26T13:58:07Z</time>
      </trkpt>
      <trkpt lat="47.01789" lon="5.95051">
        <ele>590.4</ele>
        <time>2020-12-26T13:58:08Z</time>
      </trkpt>
      <trkpt lat="47.01785" lon="5.9505">
        <ele>590.6</ele>
        <time>2020-12-26T13:58:09Z</time>
      </trkpt>
      <trkpt lat="47.01781" lon="5.9505">
        <ele>590.8</ele>
        <time>2020-12-26T13:58:10Z</time>
      </trkpt>
      <trkpt lat="47.01778" lon="5.95049">
        <ele>591</ele>
        <time>2020-12-26T13:58:11Z</time>
      </trkpt>
      <trkpt lat="47.01774" lon="5.95049">
        <ele>591</ele>
        <time>2020-12-26T13:58:12Z</time>
      </trkpt>
      <trkpt lat="47.0177" lon="5.95048">
        <ele>591.4</ele>
        <time>2020-12-26T13:58:13Z</time>
      </trkpt>
      <trkpt lat="47.01767" lon="5.95048">
        <ele>591.6</ele>
        <time>2020-12-26T13:58:14Z</time>
      </trkpt>
      <trkpt lat="47.01763" lon="5.95048">
        <ele>591.6</ele>
        <time>2020-12-26T13:58:15Z</time>
      </trkpt>
      <trkpt lat="47.01759" lon="5.95047">
        <ele>592.2</ele>
        <time>2020-12-26T13:58:16Z</time>
      </trkpt>
      <trkpt lat="47.01756" lon="5.95047">
        <ele>592.2</ele>
        <time>2020-12-26T13:58:17Z</time>
      </trkpt>
      <trkpt lat="47.01752" lon="5.95048">
        <ele>592.4</ele>
        <time>2020-12-26T13:58:18Z</time>
      </trkpt>
      <trkpt lat="47.01748" lon="5.95048">
        <ele>592.6</ele>
        <time>2020-12-26T13:58:19Z</time>
      </trkpt>
      <trkpt lat="47.01744" lon="5.95048">
        <ele>592.8</ele>
        <time>2020-12-26T13:58:20Z</time>
      </trkpt>
      <trkpt lat="47.01741" lon="5.95048">
        <ele>593.2</ele>
        <time>2020-12-26T13:58:21Z</time>
      </trkpt>
      <trkpt lat="47.01737" lon="5.95048">
        <ele>593.4</ele>
        <time>2020-12-26T13:58:22Z</time>
      </trkpt>
      <trkpt lat="47.01734" lon="5.95048">
        <ele>593.4</ele>
        <time>2020-12-26T13:58:23Z</time>
      </trkpt>
      <trkpt lat="47.0173" lon="5.95048">
        <ele>593.6</ele>
        <time>2020-12-26T13:58:24Z</time>
      </trkpt>
      <trkpt lat="47.01727" lon="5.95048">
        <ele>593.8</ele>
        <time>2020-12-26T13:58:25Z</time>
      </trkpt>
      <trkpt lat="47.01723" lon="5.95048">
        <ele>594</ele>
        <time>2020-12-26T13:58:26Z</time>
      </trkpt>
      <trkpt lat="47.01719" lon="5.95048">
        <ele>594.4</ele>
        <time>2020-12-26T13:58:27Z</time>
      </trkpt>
      <trkpt lat="47.01715" lon="5.95047">
        <ele>594.6</ele>
        <time>2020-12-26T13:58:28Z</time>
      </trkpt>
      <trkpt lat="47.01711" lon="5.95047">
        <ele>594.6</ele>
        <time>2020-12-26T13:58:29Z</time>
      </trkpt>
      <trkpt lat="47.01708" lon="5.95046">
        <ele>594.8</ele>
        <time>2020-12-26T13:58:30Z</time>
      </trkpt>
      <trkpt lat="47.01703" lon="5.95046">
        <ele>594.8</ele>
        <time>2020-12-26T13:58:31Z</time>
      </trkpt>
      <trkpt lat="47.01699" lon="5.95046">
        <ele>595.2</ele>
        <time>2020-12-26T13:58:32Z</time>
      </trkpt>
      <trkpt lat="47.01695" lon="5.95045">
        <ele>595.2</ele>
        <time>2020-12-26T13:58:33Z</time>
      </trkpt>
      <trkpt lat="47.01691" lon="5.95044">
        <ele>595.6</ele>
        <time>2020-12-26T13:58:34Z</time>
      </trkpt>
      <trkpt lat="47.01688" lon="5.95043">
        <ele>595.8</ele>
        <time>2020-12-26T13:58:35Z</time>
      </trkpt>
      <trkpt lat="47.01684" lon="5.95041">
        <ele>596</ele>
        <time>2020-12-26T13:58:36Z</time>
      </trkpt>
      <trkpt lat="47.0168" lon="5.9504">
        <ele>596</ele>
        <time>2020-12-26T13:58:37Z</time>
      </trkpt>
      <trkpt lat="47.01676" lon="5.95039">
        <ele>596.4</ele>
        <time>2020-12-26T13:58:38Z</time>
      </trkpt>
      <trkpt lat="47.01672" lon="5.95038">
        <ele>596.6</ele>
        <time>2020-12-26T13:58:39Z</time>
      </trkpt>
      <trkpt lat="47.01669" lon="5.95036">
        <ele>596.6</ele>
        <time>2020-12-26T13:58:40Z</time>
      </trkpt>
      <trkpt lat="47.01665" lon="5.95035">
        <ele>596.8</ele>
        <time>2020-12-26T13:58:41Z</time>
      </trkpt>
      <trkpt lat="47.01662" lon="5.95034">
        <ele>597.2</ele>
        <time>2020-12-26T13:58:42Z</time>
      </trkpt>
      <trkpt lat="47.0166" lon="5.95033">
        <ele>597.2</ele>
        <time>2020-12-26T13:58:43Z</time>
      </trkpt>
      <trkpt lat="47.01657" lon="5.95032">
        <ele>597.6</ele>
        <time>2020-12-26T13:58:44Z</time>
      </trkpt>
      <trkpt lat="47.01655" lon="5.95031">
        <ele>597.8</ele>
        <time>2020-12-26T13:58:45Z</time>
      </trkpt>
      <trkpt lat="47.01652" lon="5.9503">
        <ele>597.8</ele>
        <time>2020-12-26T13:58:46Z</time>
      </trkpt>
      <trkpt lat="47.0165" lon="5.95029">
        <ele>598.2</ele>
        <time>2020-12-26T13:58:47Z</time>
      </trkpt>
      <trkpt lat="47.01648" lon="5.95028">
        <ele>598.2</ele>
        <time>2020-12-26T13:58:48Z</time>
      </trkpt>
      <trkpt lat="47.01647" lon="5.95026">
        <ele>598.4</ele>
        <time>2020-12-26T13:58:49Z</time>
      </trkpt>
      <trkpt lat="47.01645" lon="5.95025">
        <ele>598.4</ele>
        <time>2020-12-26T13:58:50Z</time>
      </trkpt>
      <trkpt lat="47.01643" lon="5.95024">
        <ele>598.4</ele>
        <time>2020-12-26T13:58:51Z</time>
      </trkpt>
      <trkpt lat="47.01642" lon="5.95023">
        <ele>598.6</ele>
        <time>2020-12-26T13:58:52Z</time>
      </trkpt>
      <trkpt lat="47.0164" lon="5.95023">
        <ele>598.6</ele>
        <time>2020-12-26T13:58:53Z</time>
      </trkpt>
      <trkpt lat="47.01638" lon="5.95021">
        <ele>599</ele>
        <time>2020-12-26T13:58:54Z</time>
      </trkpt>
      <trkpt lat="47.01636" lon="5.9502">
        <ele>599</ele>
        <time>2020-12-26T13:58:55Z</time>
      </trkpt>
      <trkpt lat="47.01634" lon="5.95019">
        <ele>599.2</ele>
        <time>2020-12-26T13:58:56Z</time>
      </trkpt>
      <trkpt lat="47.01632" lon="5.95018">
        <ele>599.2</ele>
        <time>2020-12-26T13:58:57Z</time>
      </trkpt>
      <trkpt lat="47.0163" lon="5.95017">
        <ele>599.6</ele>
        <time>2020-12-26T13:58:58Z</time>
      </trkpt>
      <trkpt lat="47.01628" lon="5.95017">
        <ele>599.8</ele>
        <time>2020-12-26T13:58:59Z</time>
      </trkpt>
      <trkpt lat="47.01626" lon="5.95016">
        <ele>599.8</ele>
        <time>2020-12-26T13:59:00Z</time>
      </trkpt>
      <trkpt lat="47.01625" lon="5.95015">
        <ele>600</ele>
        <time>2020-12-26T13:59:01Z</time>
      </trkpt>
      <trkpt lat="47.01623" lon="5.95015">
        <ele>600</ele>
        <time>2020-12-26T13:59:02Z</time>
      </trkpt>
      <trkpt lat="47.01621" lon="5.95015">
        <ele>600.4</ele>
        <time>2020-12-26T13:59:03Z</time>
      </trkpt>
      <trkpt lat="47.01619" lon="5.95015">
        <ele>600.4</ele>
        <time>2020-12-26T13:59:04Z</time>
      </trkpt>
      <trkpt lat="47.01617" lon="5.95015">
        <ele>600.6</ele>
        <time>2020-12-26T13:59:05Z</time>
      </trkpt>
      <trkpt lat="47.01615" lon="5.95014">
        <ele>600.6</ele>
        <time>2020-12-26T13:59:06Z</time>
      </trkpt>
      <trkpt lat="47.01613" lon="5.95012">
        <ele>601</ele>
        <time>2020-12-26T13:59:07Z</time>
      </trkpt>
      <trkpt lat="47.0161" lon="5.95011">
        <ele>601.2</ele>
        <time>2020-12-26T13:59:08Z</time>
      </trkpt>
      <trkpt lat="47.01608" lon="5.95009">
        <ele>601.6</ele>
        <time>2020-12-26T13:59:09Z</time>
      </trkpt>
      <trkpt lat="47.01605" lon="5.95008">
        <ele>601.8</ele>
        <time>2020-12-26T13:59:10Z</time>
      </trkpt>
      <trkpt lat="47.01603" lon="5.95007">
        <ele>602</ele>
        <time>2020-12-26T13:59:11Z</time>
      </trkpt>
      <trkpt lat="47.016" lon="5.95006">
        <ele>602.2</ele>
        <time>2020-12-26T13:59:12Z</time>
      </trkpt>
      <trkpt lat="47.01597" lon="5.95006">
        <ele>602.6</ele>
        <time>2020-12-26T13:59:13Z</time>
      </trkpt>
      <trkpt lat="47.01594" lon="5.95005">
        <ele>602.8</ele>
        <time>2020-12-26T13:59:14Z</time>
      </trkpt>
      <trkpt lat="47.0159" lon="5.95005">
        <ele>603</ele>
        <time>2020-12-26T13:59:15Z</time>
      </trkpt>
      <trkpt lat="47.01587" lon="5.95004">
        <ele>603.4</ele>
        <time>2020-12-26T13:59:16Z</time>
      </trkpt>
      <trkpt lat="47.01584" lon="5.95004">
        <ele>603.6</ele>
        <time>2020-12-26T13:59:17Z</time>
      </trkpt>
      <trkpt lat="47.01581" lon="5.95004">
        <ele>604</ele>
        <time>2020-12-26T13:59:18Z</time>
      </trkpt>
      <trkpt lat="47.01578" lon="5.95004">
        <ele>604.2</ele>
        <time>2020-12-26T13:59:19Z</time>
      </trkpt>
      <trkpt lat="47.01575" lon="5.95003">
        <ele>604.6</ele>
        <time>2020-12-26T13:59:20Z</time>
      </trkpt>
      <trkpt lat="47.01572" lon="5.95003">
        <ele>604.8</ele>
        <time>2020-12-26T13:59:21Z</time>
      </trkpt>
      <trkpt lat="47.01569" lon="5.95003">
        <ele>605.2</ele>
        <time>2020-12-26T13:59:22Z</time>
      </trkpt>
      <trkpt lat="47.01566" lon="5.95004">
        <ele>605.4</ele>
        <time>2020-12-26T13:59:23Z</time>
      </trkpt>
      <trkpt lat="47.01563" lon="5.95004">
        <ele>605.6</ele>
        <time>2020-12-26T13:59:24Z</time>
      </trkpt>
      <trkpt lat="47.0156" lon="5.95005">
        <ele>606</ele>
        <time>2020-12-26T13:59:25Z</time>
      </trkpt>
      <trkpt lat="47.01558" lon="5.95005">
        <ele>606</ele>
        <time>2020-12-26T13:59:26Z</time>
      </trkpt>
      <trkpt lat="47.01555" lon="5.95006">
        <ele>606.2</ele>
        <time>2020-12-26T13:59:27Z</time>
      </trkpt>
      <trkpt lat="47.01552" lon="5.95007">
        <ele>606.2</ele>
        <time>2020-12-26T13:59:28Z</time>
      </trkpt>
      <trkpt lat="47.01549" lon="5.95008">
        <ele>606.6</ele>
        <time>2020-12-26T13:59:29Z</time>
      </trkpt>
      <trkpt lat="47.01546" lon="5.95009">
        <ele>606.8</ele>
        <time>2020-12-26T13:59:30Z</time>
      </trkpt>
      <trkpt lat="47.01544" lon="5.95011">
        <ele>607.2</ele>
        <time>2020-12-26T13:59:31Z</time>
      </trkpt>
      <trkpt lat="47.01541" lon="5.95013">
        <ele>607.4</ele>
        <time>2020-12-26T13:59:32Z</time>
      </trkpt>
      <trkpt lat="47.01539" lon="5.95015">
        <ele>607.8</ele>
        <time>2020-12-26T13:59:33Z</time>
      </trkpt>
      <trkpt lat="47.01536" lon="5.95017">
        <ele>608</ele>
        <time>2020-12-26T13:59:34Z</time>
      </trkpt>
      <trkpt lat="47.01533" lon="5.95019">
        <ele>608.4</ele>
        <time>2020-12-26T13:59:35Z</time>
      </trkpt>
      <trkpt lat="47.0153" lon="5.95022">
        <ele>608.6</ele>
        <time>2020-12-26T13:59:36Z</time>
      </trkpt>
      <trkpt lat="47.01527" lon="5.95024">
        <ele>609</ele>
        <time>2020-12-26T13:59:37Z</time>
      </trkpt>
      <trkpt lat="47.01524" lon="5.95027">
        <ele>609.2</ele>
        <time>2020-12-26T13:59:38Z</time>
      </trkpt>
      <trkpt lat="47.01521" lon="5.9503">
        <ele>609.4</ele>
        <time>2020-12-26T13:59:39Z</time>
      </trkpt>
      <trkpt lat="47.01519" lon="5.95034">
        <ele>609.8</ele>
        <time>2020-12-26T13:59:40Z</time>
      </trkpt>
      <trkpt lat="47.01517" lon="5.95038">
        <ele>610.2</ele>
        <time>2020-12-26T13:59:41Z</time>
      </trkpt>
      <trkpt lat="47.01515" lon="5.95041">
        <ele>610.4</ele>
        <time>2020-12-26T13:59:42Z</time>
      </trkpt>
      <trkpt lat="47.01512" lon="5.95044">
        <ele>610.6</ele>
        <time>2020-12-26T13:59:43Z</time>
      </trkpt>
      <trkpt lat="47.0151" lon="5.95047">
        <ele>610.8</ele>
        <time>2020-12-26T13:59:44Z</time>
      </trkpt>
      <trkpt lat="47.01508" lon="5.95051">
        <ele>611</ele>
        <time>2020-12-26T13:59:45Z</time>
      </trkpt>
      <trkpt lat="47.01506" lon="5.95054">
        <ele>611.4</ele>
        <time>2020-12-26T13:59:46Z</time>
      </trkpt>
      <trkpt lat="47.01504" lon="5.95057">
        <ele>611.4</ele>
        <time>2020-12-26T13:59:47Z</time>
      </trkpt>
      <trkpt lat="47.01501" lon="5.9506">
        <ele>611.6</ele>
        <time>2020-12-26T13:59:48Z</time>
      </trkpt>
      <trkpt lat="47.01499" lon="5.95064">
        <ele>612</ele>
        <time>2020-12-26T13:59:49Z</time>
      </trkpt>
      <trkpt lat="47.01497" lon="5.95067">
        <ele>612.2</ele>
        <time>2020-12-26T13:59:50Z</time>
      </trkpt>
      <trkpt lat="47.01495" lon="5.95071">
        <ele>612.2</ele>
        <time>2020-12-26T13:59:51Z</time>
      </trkpt>
      <trkpt lat="47.01492" lon="5.95075">
        <ele>612.6</ele>
        <time>2020-12-26T13:59:52Z</time>
      </trkpt>
      <trkpt lat="47.0149" lon="5.95079">
        <ele>612.8</ele>
        <time>2020-12-26T13:59:53Z</time>
      </trkpt>
      <trkpt lat="47.01487" lon="5.95082">
        <ele>613.2</ele>
        <time>2020-12-26T13:59:54Z</time>
      </trkpt>
      <trkpt lat="47.01485" lon="5.95086">
        <ele>613.4</ele>
        <time>2020-12-26T13:59:55Z</time>
      </trkpt>
      <trkpt lat="47.01482" lon="5.9509">
        <ele>613.6</ele>
        <time>2020-12-26T13:59:56Z</time>
      </trkpt>
      <trkpt lat="47.0148" lon="5.95094">
        <ele>614</ele>
        <time>2020-12-26T13:59:57Z</time>
      </trkpt>
      <trkpt lat="47.01478" lon="5.95097">
        <ele>614.2</ele>
        <time>2020-12-26T13:59:58Z</time>
      </trkpt>
      <trkpt lat="47.01476" lon="5.95101">
        <ele>614.4</ele>
        <time>2020-12-26T13:59:59Z</time>
      </trkpt>
      <trkpt lat="47.01474" lon="5.95104">
        <ele>614.8</ele>
        <time>2020-12-26T14:00:00Z</time>
      </trkpt>
      <trkpt lat="47.01472" lon="5.95108">
        <ele>615</ele>
        <time>2020-12-26T14:00:01Z</time>
      </trkpt>
      <trkpt lat="47.0147" lon="5.95111">
        <ele>615.2</ele>
        <time>2020-12-26T14:00:02Z</time>
      </trkpt>
      <trkpt lat="47.01468" lon="5.95115">
        <ele>615.4</ele>
        <time>2020-12-26T14:00:03Z</time>
      </trkpt>
      <trkpt lat="47.01467" lon="5.95119">
        <ele>615.8</ele>
        <time>2020-12-26T14:00:04Z</time>
      </trkpt>
      <trkpt lat="47.01465" lon="5.95123">
        <ele>616.2</ele>
        <time>2020-12-26T14:00:05Z</time>
      </trkpt>
      <trkpt lat="47.01464" lon="5.95128">
        <ele>616.4</ele>
        <time>2020-12-26T14:00:06Z</time>
      </trkpt>
      <trkpt lat="47.01463" lon="5.95132">
        <ele>616.4</ele>
        <time>2020-12-26T14:00:07Z</time>
      </trkpt>
      <trkpt lat="47.01462" lon="5.95136">
        <ele>616.8</ele>
        <time>2020-12-26T14:00:08Z</time>
      </trkpt>
      <trkpt lat="47.01461" lon="5.95141">
        <ele>617</ele>
        <time>2020-12-26T14:00:09Z</time>
      </trkpt>
      <trkpt lat="47.0146" lon="5.95145">
        <ele>617</ele>
        <time>2020-12-26T14:00:10Z</time>
      </trkpt>
      <trkpt lat="47.01459" lon="5.95149">
        <ele>617.4</ele>
        <time>2020-12-26T14:00:11Z</time>
      </trkpt>
      <trkpt lat="47.01458" lon="5.95154">
        <ele>617.4</ele>
        <time>2020-12-26T14:00:12Z</time>
      </trkpt>
      <trkpt lat="47.01458" lon="5.95159">
        <ele>617.4</ele>
        <time>2020-12-26T14:00:13Z</time>
      </trkpt>
      <trkpt lat="47.01457" lon="5.95164">
        <ele>617.4</ele>
        <time>2020-12-26T14:00:14Z</time>
      </trkpt>
      <trkpt lat="47.01456" lon="5.95169">
        <ele>617.4</ele>
        <time>2020-12-26T14:00:15Z</time>
      </trkpt>
      <trkpt lat="47.01455" lon="5.95174">
        <ele>617.4</ele>
        <time>2020-12-26T14:00:16Z</time>
      </trkpt>
      <trkpt lat="47.01454" lon="5.95179">
        <ele>617.4</ele>
        <time>2020-12-26T14:00:17Z</time>
      </trkpt>
      <trkpt lat="47.01452" lon="5.95184">
        <ele>617.4</ele>
        <time>2020-12-26T14:00:18Z</time>
      </trkpt>
      <trkpt lat="47.0145" lon="5.9519">
        <ele>617.4</ele>
        <time>2020-12-26T14:00:19Z</time>
      </trkpt>
      <trkpt lat="47.01448" lon="5.95195">
        <ele>617.4</ele>
        <time>2020-12-26T14:00:20Z</time>
      </trkpt>
      <trkpt lat="47.01444" lon="5.952">
        <ele>617</ele>
        <time>2020-12-26T14:00:21Z</time>
      </trkpt>
      <trkpt lat="47.0144" lon="5.95205">
        <ele>617</ele>
        <time>2020-12-26T14:00:22Z</time>
      </trkpt>
      <trkpt lat="47.01435" lon="5.95209">
        <ele>616.8</ele>
        <time>2020-12-26T14:00:23Z</time>
      </trkpt>
      <trkpt lat="47.01429" lon="5.95212">
        <ele>616.8</ele>
        <time>2020-12-26T14:00:24Z</time>
      </trkpt>
      <trkpt lat="47.01424" lon="5.95215">
        <ele>616.4</ele>
        <time>2020-12-26T14:00:25Z</time>
      </trkpt>
      <trkpt lat="47.01418" lon="5.95216">
        <ele>616.4</ele>
        <time>2020-12-26T14:00:26Z</time>
      </trkpt>
      <trkpt lat="47.01412" lon="5.95218">
        <ele>616.4</ele>
        <time>2020-12-26T14:00:27Z</time>
      </trkpt>
      <trkpt lat="47.01406" lon="5.95218">
        <ele>616.2</ele>
        <time>2020-12-26T14:00:28Z</time>
      </trkpt>
      <trkpt lat="47.014" lon="5.95218">
        <ele>616.2</ele>
        <time>2020-12-26T14:00:29Z</time>
      </trkpt>
      <trkpt lat="47.01395" lon="5.95218">
        <ele>616.2</ele>
        <time>2020-12-26T14:00:30Z</time>
      </trkpt>
      <trkpt lat="47.01389" lon="5.95217">
        <ele>616.2</ele>
        <time>2020-12-26T14:00:31Z</time>
      </trkpt>
      <trkpt lat="47.01383" lon="5.95217">
        <ele>616.2</ele>
        <time>2020-12-26T14:00:32Z</time>
      </trkpt>
      <trkpt lat="47.01378" lon="5.95217">
        <ele>616.6</ele>
        <time>2020-12-26T14:00:33Z</time>
      </trkpt>
      <trkpt lat="47.01372" lon="5.95216">
        <ele>616.6</ele>
        <time>2020-12-26T14:00:34Z</time>
      </trkpt>
      <trkpt lat="47.01367" lon="5.95216">
        <ele>617</ele>
        <time>2020-12-26T14:00:35Z</time>
      </trkpt>
      <trkpt lat="47.01361" lon="5.95216">
        <ele>617</ele>
        <time>2020-12-26T14:00:36Z</time>
      </trkpt>
      <trkpt lat="47.01356" lon="5.95215">
        <ele>617.4</ele>
        <time>2020-12-26T14:00:37Z</time>
      </trkpt>
      <trkpt lat="47.0135" lon="5.95216">
        <ele>617.4</ele>
        <time>2020-12-26T14:00:38Z</time>
      </trkpt>
      <trkpt lat="47.01345" lon="5.95216">
        <ele>617.8</ele>
        <time>2020-12-26T14:00:39Z</time>
      </trkpt>
      <trkpt lat="47.01339" lon="5.95218">
        <ele>617.8</ele>
        <time>2020-12-26T14:00:40Z</time>
      </trkpt>
      <trkpt lat="47.01334" lon="5.9522">
        <ele>618</ele>
        <time>2020-12-26T14:00:41Z</time>
      </trkpt>
      <trkpt lat="47.01329" lon="5.95222">
        <ele>618</ele>
        <time>2020-12-26T14:00:42Z</time>
      </trkpt>
      <trkpt lat="47.01324" lon="5.95225">
        <ele>618.2</ele>
        <time>2020-12-26T14:00:43Z</time>
      </trkpt>
      <trkpt lat="47.01319" lon="5.95229">
        <ele>618.2</ele>
        <time>2020-12-26T14:00:44Z</time>
      </trkpt>
      <trkpt lat="47.01314" lon="5.95232">
        <ele>618.2</ele>
        <time>2020-12-26T14:00:45Z</time>
      </trkpt>
      <trkpt lat="47.01309" lon="5.95236">
        <ele>618.2</ele>
        <time>2020-12-26T14:00:46Z</time>
      </trkpt>
      <trkpt lat="47.01304" lon="5.9524">
        <ele>618.2</ele>
        <time>2020-12-26T14:00:47Z</time>
      </trkpt>
      <trkpt lat="47.01299" lon="5.95244">
        <ele>618.2</ele>
        <time>2020-12-26T14:00:48Z</time>
      </trkpt>
      <trkpt lat="47.01294" lon="5.95247">
        <ele>618.2</ele>
        <time>2020-12-26T14:00:49Z</time>
      </trkpt>
      <trkpt lat="47.0129" lon="5.95251">
        <ele>618.2</ele>
        <time>2020-12-26T14:00:50Z</time>
      </trkpt>
      <trkpt lat="47.01285" lon="5.95255">
        <ele>618.2</ele>
        <time>2020-12-26T14:00:51Z</time>
      </trkpt>
      <trkpt lat="47.0128" lon="5.95258">
        <ele>618.2</ele>
        <time>2020-12-26T14:00:52Z</time>
      </trkpt>
      <trkpt lat="47.01275" lon="5.95262">
        <ele>618.2</ele>
        <time>2020-12-26T14:00:53Z</time>
      </trkpt>
      <trkpt lat="47.0127" lon="5.95265">
        <ele>618.4</ele>
        <time>2020-12-26T14:00:54Z</time>
      </trkpt>
      <trkpt lat="47.01266" lon="5.95268">
        <ele>618.4</ele>
        <time>2020-12-26T14:00:55Z</time>
      </trkpt>
      <trkpt lat="47.01261" lon="5.95272">
        <ele>618.8</ele>
        <time>2020-12-26T14:00:56Z</time>
      </trkpt>
      <trkpt lat="47.01257" lon="5.95275">
        <ele>618.8</ele>
        <time>2020-12-26T14:00:57Z</time>
      </trkpt>
      <trkpt lat="47.01252" lon="5.95279">
        <ele>619</ele>
        <time>2020-12-26T14:00:58Z</time>
      </trkpt>
      <trkpt lat="47.01248" lon="5.95282">
        <ele>619</ele>
        <time>2020-12-26T14:00:59Z</time>
      </trkpt>
      <trkpt lat="47.01243" lon="5.95285">
        <ele>619.4</ele>
        <time>2020-12-26T14:01:00Z</time>
      </trkpt>
      <trkpt lat="47.01239" lon="5.95288">
        <ele>619.4</ele>
        <time>2020-12-26T14:01:01Z</time>
      </trkpt>
      <trkpt lat="47.01235" lon="5.95291">
        <ele>619.6</ele>
        <time>2020-12-26T14:01:02Z</time>
      </trkpt>
      <trkpt lat="47.0123" lon="5.95294">
        <ele>619.6</ele>
        <time>2020-12-26T14:01:03Z</time>
      </trkpt>
      <trkpt lat="47.01226" lon="5.95296">
        <ele>620</ele>
        <time>2020-12-26T14:01:04Z</time>
      </trkpt>
      <trkpt lat="47.01222" lon="5.95299">
        <ele>620.2</ele>
        <time>2020-12-26T14:01:05Z</time>
      </trkpt>
      <trkpt lat="47.01219" lon="5.95301">
        <ele>620.4</ele>
        <time>2020-12-26T14:01:06Z</time>
      </trkpt>
      <trkpt lat="47.01215" lon="5.95303">
        <ele>620.4</ele>
        <time>2020-12-26T14:01:07Z</time>
      </trkpt>
      <trkpt lat="47.01211" lon="5.95305">
        <ele>621</ele>
        <time>2020-12-26T14:01:08Z</time>
      </trkpt>
      <trkpt lat="47.01208" lon="5.95307">
        <ele>621.2</ele>
        <time>2020-12-26T14:01:09Z</time>
      </trkpt>
      <trkpt lat="47.01204" lon="5.95309">
        <ele>621.4</ele>
        <time>2020-12-26T14:01:10Z</time>
      </trkpt>
      <trkpt lat="47.012" lon="5.95311">
        <ele>621.8</ele>
        <time>2020-12-26T14:01:11Z</time>
      </trkpt>
      <trkpt lat="47.01196" lon="5.95312">
        <ele>622.2</ele>
        <time>2020-12-26T14:01:12Z</time>
      </trkpt>
      <trkpt lat="47.01193" lon="5.95314">
        <ele>622.4</ele>
        <time>2020-12-26T14:01:13Z</time>
      </trkpt>
      <trkpt lat="47.01189" lon="5.95315">
        <ele>622.4</ele>
        <time>2020-12-26T14:01:14Z</time>
      </trkpt>
      <trkpt lat="47.01186" lon="5.95317">
        <ele>622.6</ele>
        <time>2020-12-26T14:01:15Z</time>
      </trkpt>
      <trkpt lat="47.01182" lon="5.95319">
        <ele>622.8</ele>
        <time>2020-12-26T14:01:16Z</time>
      </trkpt>
      <trkpt lat="47.01179" lon="5.9532">
        <ele>622.8</ele>
        <time>2020-12-26T14:01:17Z</time>
      </trkpt>
      <trkpt lat="47.01175" lon="5.95322">
        <ele>623</ele>
        <time>2020-12-26T14:01:18Z</time>
      </trkpt>
      <trkpt lat="47.01172" lon="5.95324">
        <ele>623</ele>
        <time>2020-12-26T14:01:19Z</time>
      </trkpt>
      <trkpt lat="47.01168" lon="5.95325">
        <ele>623</ele>
        <time>2020-12-26T14:01:20Z</time>
      </trkpt>
      <trkpt lat="47.01165" lon="5.95327">
        <ele>623.4</ele>
        <time>2020-12-26T14:01:21Z</time>
      </trkpt>
      <trkpt lat="47.01161" lon="5.95329">
        <ele>623.4</ele>
        <time>2020-12-26T14:01:22Z</time>
      </trkpt>
      <trkpt lat="47.01157" lon="5.95331">
        <ele>623.8</ele>
        <time>2020-12-26T14:01:23Z</time>
      </trkpt>
      <trkpt lat="47.01154" lon="5.95333">
        <ele>623.8</ele>
        <time>2020-12-26T14:01:24Z</time>
      </trkpt>
      <trkpt lat="47.0115" lon="5.95334">
        <ele>624</ele>
        <time>2020-12-26T14:01:25Z</time>
      </trkpt>
      <trkpt lat="47.01146" lon="5.95336">
        <ele>624</ele>
        <time>2020-12-26T14:01:26Z</time>
      </trkpt>
      <trkpt lat="47.01142" lon="5.95338">
        <ele>624.4</ele>
        <time>2020-12-26T14:01:27Z</time>
      </trkpt>
      <trkpt lat="47.01138" lon="5.9534">
        <ele>624.4</ele>
        <time>2020-12-26T14:01:28Z</time>
      </trkpt>
      <trkpt lat="47.01135" lon="5.95341">
        <ele>624.6</ele>
        <time>2020-12-26T14:01:29Z</time>
      </trkpt>
      <trkpt lat="47.01131" lon="5.95343">
        <ele>624.6</ele>
        <time>2020-12-26T14:01:30Z</time>
      </trkpt>
      <trkpt lat="47.01127" lon="5.95345">
        <ele>624.6</ele>
        <time>2020-12-26T14:01:31Z</time>
      </trkpt>
      <trkpt lat="47.01123" lon="5.95347">
        <ele>624.8</ele>
        <time>2020-12-26T14:01:32Z</time>
      </trkpt>
      <trkpt lat="47.01119" lon="5.95349">
        <ele>624.8</ele>
        <time>2020-12-26T14:01:33Z</time>
      </trkpt>
      <trkpt lat="47.01115" lon="5.95351">
        <ele>624.8</ele>
        <time>2020-12-26T14:01:34Z</time>
      </trkpt>
      <trkpt lat="47.01111" lon="5.95352">
        <ele>625.2</ele>
        <time>2020-12-26T14:01:35Z</time>
      </trkpt>
      <trkpt lat="47.01107" lon="5.95354">
        <ele>625.2</ele>
        <time>2020-12-26T14:01:36Z</time>
      </trkpt>
      <trkpt lat="47.01104" lon="5.95356">
        <ele>625.4</ele>
        <time>2020-12-26T14:01:37Z</time>
      </trkpt>
      <trkpt lat="47.011" lon="5.95358">
        <ele>625.4</ele>
        <time>2020-12-26T14:01:38Z</time>
      </trkpt>
      <trkpt lat="47.01096" lon="5.95359">
        <ele>625.6</ele>
        <time>2020-12-26T14:01:39Z</time>
      </trkpt>
      <trkpt lat="47.01093" lon="5.95361">
        <ele>625.6</ele>
        <time>2020-12-26T14:01:40Z</time>
      </trkpt>
      <trkpt lat="47.01089" lon="5.95363">
        <ele>626</ele>
        <time>2020-12-26T14:01:41Z</time>
      </trkpt>
      <trkpt lat="47.01086" lon="5.95364">
        <ele>626</ele>
        <time>2020-12-26T14:01:42Z</time>
      </trkpt>
      <trkpt lat="47.01082" lon="5.95366">
        <ele>626.4</ele>
        <time>2020-12-26T14:01:43Z</time>
      </trkpt>
      <trkpt lat="47.01079" lon="5.95368">
        <ele>626.4</ele>
        <time>2020-12-26T14:01:44Z</time>
      </trkpt>
      <trkpt lat="47.01076" lon="5.95369">
        <ele>626.6</ele>
        <time>2020-12-26T14:01:45Z</time>
      </trkpt>
      <trkpt lat="47.01072" lon="5.95371">
        <ele>626.6</ele>
        <time>2020-12-26T14:01:46Z</time>
      </trkpt>
      <trkpt lat="47.01069" lon="5.95372">
        <ele>626.8</ele>
        <time>2020-12-26T14:01:47Z</time>
      </trkpt>
      <trkpt lat="47.01066" lon="5.95374">
        <ele>626.8</ele>
        <time>2020-12-26T14:01:48Z</time>
      </trkpt>
      <trkpt lat="47.01063" lon="5.95375">
        <ele>626.8</ele>
        <time>2020-12-26T14:01:49Z</time>
      </trkpt>
      <trkpt lat="47.01059" lon="5.95377">
        <ele>626.8</ele>
        <time>2020-12-26T14:01:50Z</time>
      </trkpt>
      <trkpt lat="47.01056" lon="5.95378">
        <ele>627.2</ele>
        <time>2020-12-26T14:01:51Z</time>
      </trkpt>
      <trkpt lat="47.01052" lon="5.9538">
        <ele>627.2</ele>
        <time>2020-12-26T14:01:52Z</time>
      </trkpt>
      <trkpt lat="47.01049" lon="5.95382">
        <ele>627.4</ele>
        <time>2020-12-26T14:01:53Z</time>
      </trkpt>
      <trkpt lat="47.01046" lon="5.95384">
        <ele>627.4</ele>
        <time>2020-12-26T14:01:54Z</time>
      </trkpt>
      <trkpt lat="47.01042" lon="5.95385">
        <ele>627.6</ele>
        <time>2020-12-26T14:01:55Z</time>
      </trkpt>
      <trkpt lat="47.01039" lon="5.95387">
        <ele>627.6</ele>
        <time>2020-12-26T14:01:56Z</time>
      </trkpt>
      <trkpt lat="47.01035" lon="5.95388">
        <ele>627.8</ele>
        <time>2020-12-26T14:01:57Z</time>
      </trkpt>
      <trkpt lat="47.01032" lon="5.9539">
        <ele>627.8</ele>
        <time>2020-12-26T14:01:58Z</time>
      </trkpt>
      <trkpt lat="47.01028" lon="5.95392">
        <ele>628.2</ele>
        <time>2020-12-26T14:01:59Z</time>
      </trkpt>
      <trkpt lat="47.01025" lon="5.95394">
        <ele>628.2</ele>
        <time>2020-12-26T14:02:00Z</time>
      </trkpt>
      <trkpt lat="47.01021" lon="5.95395">
        <ele>628.4</ele>
        <time>2020-12-26T14:02:01Z</time>
      </trkpt>
      <trkpt lat="47.01018" lon="5.95397">
        <ele>628.4</ele>
        <time>2020-12-26T14:02:02Z</time>
      </trkpt>
      <trkpt lat="47.01014" lon="5.95399">
        <ele>628.6</ele>
        <time>2020-12-26T14:02:03Z</time>
      </trkpt>
      <trkpt lat="47.01011" lon="5.954">
        <ele>628.6</ele>
        <time>2020-12-26T14:02:04Z</time>
      </trkpt>
      <trkpt lat="47.01007" lon="5.95402">
        <ele>629</ele>
        <time>2020-12-26T14:02:05Z</time>
      </trkpt>
      <trkpt lat="47.01004" lon="5.95404">
        <ele>629</ele>
        <time>2020-12-26T14:02:06Z</time>
      </trkpt>
      <trkpt lat="47.01" lon="5.95406">
        <ele>629.2</ele>
        <time>2020-12-26T14:02:07Z</time>
      </trkpt>
      <trkpt lat="47.00997" lon="5.95408">
        <ele>629.2</ele>
        <time>2020-12-26T14:02:08Z</time>
      </trkpt>
      <trkpt lat="47.00993" lon="5.9541">
        <ele>629.6</ele>
        <time>2020-12-26T14:02:09Z</time>
      </trkpt>
      <trkpt lat="47.0099" lon="5.95411">
        <ele>629.6</ele>
        <time>2020-12-26T14:02:10Z</time>
      </trkpt>
      <trkpt lat="47.00986" lon="5.95413">
        <ele>629.6</ele>
        <time>2020-12-26T14:02:11Z</time>
      </trkpt>
      <trkpt lat="47.00982" lon="5.95414">
        <ele>629.8</ele>
        <time>2020-12-26T14:02:12Z</time>
      </trkpt>
      <trkpt lat="47.00978" lon="5.95415">
        <ele>629.8</ele>
        <time>2020-12-26T14:02:13Z</time>
      </trkpt>
      <trkpt lat="47.00974" lon="5.95415">
        <ele>629.8</ele>
        <time>2020-12-26T14:02:14Z</time>
      </trkpt>
      <trkpt lat="47.0097" lon="5.95416">
        <ele>629.8</ele>
        <time>2020-12-26T14:02:15Z</time>
      </trkpt>
      <trkpt lat="47.00967" lon="5.95416">
        <ele>630</ele>
        <time>2020-12-26T14:02:16Z</time>
      </trkpt>
      <trkpt lat="47.00963" lon="5.95415">
        <ele>630</ele>
        <time>2020-12-26T14:02:17Z</time>
      </trkpt>
      <trkpt lat="47.00959" lon="5.95415">
        <ele>630</ele>
        <time>2020-12-26T14:02:18Z</time>
      </trkpt>
      <trkpt lat="47.00956" lon="5.95414">
        <ele>630.4</ele>
        <time>2020-12-26T14:02:19Z</time>
      </trkpt>
      <trkpt lat="47.00953" lon="5.95413">
        <ele>630.4</ele>
        <time>2020-12-26T14:02:20Z</time>
      </trkpt>
      <trkpt lat="47.0095" lon="5.95412">
        <ele>630.8</ele>
        <time>2020-12-26T14:02:21Z</time>
      </trkpt>
      <trkpt lat="47.00947" lon="5.95411">
        <ele>630.8</ele>
        <time>2020-12-26T14:02:22Z</time>
      </trkpt>
      <trkpt lat="47.00944" lon="5.9541">
        <ele>631</ele>
        <time>2020-12-26T14:02:23Z</time>
      </trkpt>
      <trkpt lat="47.00941" lon="5.95409">
        <ele>631</ele>
        <time>2020-12-26T14:02:24Z</time>
      </trkpt>
      <trkpt lat="47.00938" lon="5.95408">
        <ele>631.4</ele>
        <time>2020-12-26T14:02:25Z</time>
      </trkpt>
      <trkpt lat="47.00935" lon="5.95407">
        <ele>631.8</ele>
        <time>2020-12-26T14:02:26Z</time>
      </trkpt>
      <trkpt lat="47.00932" lon="5.95406">
        <ele>632</ele>
        <time>2020-12-26T14:02:27Z</time>
      </trkpt>
      <trkpt lat="47.00929" lon="5.95405">
        <ele>632.4</ele>
        <time>2020-12-26T14:02:28Z</time>
      </trkpt>
      <trkpt lat="47.00926" lon="5.95405">
        <ele>632.6</ele>
        <time>2020-12-26T14:02:29Z</time>
      </trkpt>
      <trkpt lat="47.00923" lon="5.95404">
        <ele>633</ele>
        <time>2020-12-26T14:02:30Z</time>
      </trkpt>
      <trkpt lat="47.0092" lon="5.95403">
        <ele>633.2</ele>
        <time>2020-12-26T14:02:31Z</time>
      </trkpt>
      <trkpt lat="47.00918" lon="5.95402">
        <ele>633.4</ele>
        <time>2020-12-26T14:02:32Z</time>
      </trkpt>
      <trkpt lat="47.00914" lon="5.95401">
        <ele>633.8</ele>
        <time>2020-12-26T14:02:33Z</time>
      </trkpt>
      <trkpt lat="47.00911" lon="5.954">
        <ele>634</ele>
        <time>2020-12-26T14:02:34Z</time>
      </trkpt>
      <trkpt lat="47.00908" lon="5.95399">
        <ele>634.4</ele>
        <time>2020-12-26T14:02:35Z</time>
      </trkpt>
      <trkpt lat="47.00904" lon="5.95398">
        <ele>634.6</ele>
        <time>2020-12-26T14:02:36Z</time>
      </trkpt>
      <trkpt lat="47.00901" lon="5.95397">
        <ele>634.6</ele>
        <time>2020-12-26T14:02:37Z</time>
      </trkpt>
      <trkpt lat="47.00898" lon="5.95396">
        <ele>635</ele>
        <time>2020-12-26T14:02:38Z</time>
      </trkpt>
      <trkpt lat="47.00895" lon="5.95396">
        <ele>635.2</ele>
        <time>2020-12-26T14:02:39Z</time>
      </trkpt>
      <trkpt lat="47.00892" lon="5.95395">
        <ele>635.6</ele>
        <time>2020-12-26T14:02:40Z</time>
      </trkpt>
      <trkpt lat="47.0089" lon="5.95395">
        <ele>635.8</ele>
        <time>2020-12-26T14:02:41Z</time>
      </trkpt>
      <trkpt lat="47.00888" lon="5.95395">
        <ele>636</ele>
        <time>2020-12-26T14:02:42Z</time>
      </trkpt>
      <trkpt lat="47.00885" lon="5.95394">
        <ele>636.2</ele>
        <time>2020-12-26T14:02:43Z</time>
      </trkpt>
      <trkpt lat="47.00883" lon="5.95394">
        <ele>636.4</ele>
        <time>2020-12-26T14:02:44Z</time>
      </trkpt>
      <trkpt lat="47.00882" lon="5.95395">
        <ele>636.6</ele>
        <time>2020-12-26T14:02:45Z</time>
      </trkpt>
      <trkpt lat="47.0088" lon="5.95396">
        <ele>636.6</ele>
        <time>2020-12-26T14:02:46Z</time>
      </trkpt>
      <trkpt lat="47.00879" lon="5.95397">
        <ele>637</ele>
        <time>2020-12-26T14:02:47Z</time>
      </trkpt>
      <trkpt lat="47.00877" lon="5.95399">
        <ele>637.2</ele>
        <time>2020-12-26T14:02:48Z</time>
      </trkpt>
      <trkpt lat="47.00876" lon="5.95401">
        <ele>637.4</ele>
        <time>2020-12-26T14:02:49Z</time>
      </trkpt>
      <trkpt lat="47.00874" lon="5.95403">
        <ele>637.8</ele>
        <time>2020-12-26T14:02:50Z</time>
      </trkpt>
      <trkpt lat="47.00873" lon="5.95406">
        <ele>638</ele>
        <time>2020-12-26T14:02:51Z</time>
      </trkpt>
      <trkpt lat="47.00872" lon="5.95409">
        <ele>638.2</ele>
        <time>2020-12-26T14:02:52Z</time>
      </trkpt>
      <trkpt lat="47.00872" lon="5.95413">
        <ele>638.6</ele>
        <time>2020-12-26T14:02:53Z</time>
      </trkpt>
      <trkpt lat="47.00871" lon="5.95416">
        <ele>638.8</ele>
        <time>2020-12-26T14:02:54Z</time>
      </trkpt>
      <trkpt lat="47.00871" lon="5.95419">
        <ele>639.2</ele>
        <time>2020-12-26T14:02:55Z</time>
      </trkpt>
      <trkpt lat="47.0087" lon="5.95422">
        <ele>639.4</ele>
        <time>2020-12-26T14:02:56Z</time>
      </trkpt>
      <trkpt lat="47.0087" lon="5.95425">
        <ele>639.8</ele>
        <time>2020-12-26T14:02:57Z</time>
      </trkpt>
      <trkpt lat="47.00871" lon="5.95428">
        <ele>640.2</ele>
        <time>2020-12-26T14:02:58Z</time>
      </trkpt>
      <trkpt lat="47.00872" lon="5.95432">
        <ele>640.4</ele>
        <time>2020-12-26T14:02:59Z</time>
      </trkpt>
      <trkpt lat="47.00872" lon="5.95435">
        <ele>640.8</ele>
        <time>2020-12-26T14:03:00Z</time>
      </trkpt>
      <trkpt lat="47.00873" lon="5.95438">
        <ele>641</ele>
        <time>2020-12-26T14:03:01Z</time>
      </trkpt>
      <trkpt lat="47.00874" lon="5.95441">
        <ele>641.4</ele>
        <time>2020-12-26T14:03:02Z</time>
      </trkpt>
      <trkpt lat="47.00875" lon="5.95444">
        <ele>641.8</ele>
        <time>2020-12-26T14:03:03Z</time>
      </trkpt>
      <trkpt lat="47.00876" lon="5.95447">
        <ele>642.2</ele>
        <time>2020-12-26T14:03:04Z</time>
      </trkpt>
      <trkpt lat="47.00876" lon="5.9545">
        <ele>642.6</ele>
        <time>2020-12-26T14:03:05Z</time>
      </trkpt>
      <trkpt lat="47.00877" lon="5.95453">
        <ele>642.8</ele>
        <time>2020-12-26T14:03:06Z</time>
      </trkpt>
      <trkpt lat="47.00877" lon="5.95456">
        <ele>643.2</ele>
        <time>2020-12-26T14:03:07Z</time>
      </trkpt>
      <trkpt lat="47.00878" lon="5.9546">
        <ele>643.4</ele>
        <time>2020-12-26T14:03:08Z</time>
      </trkpt>
      <trkpt lat="47.00878" lon="5.95463">
        <ele>643.6</ele>
        <time>2020-12-26T14:03:09Z</time>
      </trkpt>
      <trkpt lat="47.00879" lon="5.95466">
        <ele>644</ele>
        <time>2020-12-26T14:03:10Z</time>
      </trkpt>
      <trkpt lat="47.0088" lon="5.95469">
        <ele>644.4</ele>
        <time>2020-12-26T14:03:11Z</time>
      </trkpt>
      <trkpt lat="47.0088" lon="5.95472">
        <ele>644.6</ele>
        <time>2020-12-26T14:03:12Z</time>
      </trkpt>
      <trkpt lat="47.00881" lon="5.95475">
        <ele>644.8</ele>
        <time>2020-12-26T14:03:13Z</time>
      </trkpt>
      <trkpt lat="47.00882" lon="5.95478">
        <ele>645.2</ele>
        <time>2020-12-26T14:03:14Z</time>
      </trkpt>
      <trkpt lat="47.00883" lon="5.95481">
        <ele>645.4</ele>
        <time>2020-12-26T14:03:15Z</time>
      </trkpt>
      <trkpt lat="47.00884" lon="5.95484">
        <ele>645.6</ele>
        <time>2020-12-26T14:03:16Z</time>
      </trkpt>
      <trkpt lat="47.00885" lon="5.95487">
        <ele>646</ele>
        <time>2020-12-26T14:03:17Z</time>
      </trkpt>
      <trkpt lat="47.00885" lon="5.9549">
        <ele>646.2</ele>
        <time>2020-12-26T14:03:18Z</time>
      </trkpt>
      <trkpt lat="47.00886" lon="5.95494">
        <ele>646.6</ele>
        <time>2020-12-26T14:03:19Z</time>
      </trkpt>
      <trkpt lat="47.00887" lon="5.95497">
        <ele>646.8</ele>
        <time>2020-12-26T14:03:20Z</time>
      </trkpt>
      <trkpt lat="47.00888" lon="5.955">
        <ele>647.2</ele>
        <time>2020-12-26T14:03:21Z</time>
      </trkpt>
      <trkpt lat="47.00889" lon="5.95503">
        <ele>647.4</ele>
        <time>2020-12-26T14:03:22Z</time>
      </trkpt>
      <trkpt lat="47.0089" lon="5.95506">
        <ele>647.6</ele>
        <time>2020-12-26T14:03:23Z</time>
      </trkpt>
      <trkpt lat="47.00891" lon="5.95509">
        <ele>648</ele>
        <time>2020-12-26T14:03:24Z</time>
      </trkpt>
      <trkpt lat="47.00892" lon="5.95512">
        <ele>648.2</ele>
        <time>2020-12-26T14:03:25Z</time>
      </trkpt>
      <trkpt lat="47.00892" lon="5.95516">
        <ele>648.4</ele>
        <time>2020-12-26T14:03:26Z</time>
      </trkpt>
      <trkpt lat="47.00893" lon="5.95519">
        <ele>648.8</ele>
        <time>2020-12-26T14:03:27Z</time>
      </trkpt>
      <trkpt lat="47.00894" lon="5.95523">
        <ele>649</ele>
        <time>2020-12-26T14:03:28Z</time>
      </trkpt>
      <trkpt lat="47.00895" lon="5.95526">
        <ele>649.2</ele>
        <time>2020-12-26T14:03:29Z</time>
      </trkpt>
      <trkpt lat="47.00896" lon="5.95529">
        <ele>649.2</ele>
        <time>2020-12-26T14:03:30Z</time>
      </trkpt>
      <trkpt lat="47.00897" lon="5.95533">
        <ele>649.6</ele>
        <time>2020-12-26T14:03:31Z</time>
      </trkpt>
      <trkpt lat="47.00898" lon="5.95536">
        <ele>649.8</ele>
        <time>2020-12-26T14:03:32Z</time>
      </trkpt>
      <trkpt lat="47.009" lon="5.9554">
        <ele>650.2</ele>
        <time>2020-12-26T14:03:33Z</time>
      </trkpt>
      <trkpt lat="47.009" lon="5.95544">
        <ele>650.4</ele>
        <time>2020-12-26T14:03:34Z</time>
      </trkpt>
      <trkpt lat="47.00901" lon="5.95547">
        <ele>650.6</ele>
        <time>2020-12-26T14:03:35Z</time>
      </trkpt>
      <trkpt lat="47.00902" lon="5.95551">
        <ele>651</ele>
        <time>2020-12-26T14:03:36Z</time>
      </trkpt>
      <trkpt lat="47.00902" lon="5.95554">
        <ele>651.2</ele>
        <time>2020-12-26T14:03:37Z</time>
      </trkpt>
      <trkpt lat="47.00903" lon="5.95557">
        <ele>651.4</ele>
        <time>2020-12-26T14:03:38Z</time>
      </trkpt>
      <trkpt lat="47.00903" lon="5.9556">
        <ele>651.4</ele>
        <time>2020-12-26T14:03:39Z</time>
      </trkpt>
      <trkpt lat="47.00904" lon="5.95563">
        <ele>651.8</ele>
        <time>2020-12-26T14:03:40Z</time>
      </trkpt>
      <trkpt lat="47.00905" lon="5.95566">
        <ele>651.8</ele>
        <time>2020-12-26T14:03:41Z</time>
      </trkpt>
      <trkpt lat="47.00905" lon="5.9557">
        <ele>652</ele>
        <time>2020-12-26T14:03:42Z</time>
      </trkpt>
      <trkpt lat="47.00906" lon="5.95574">
        <ele>652</ele>
        <time>2020-12-26T14:03:43Z</time>
      </trkpt>
      <trkpt lat="47.00907" lon="5.95578">
        <ele>652</ele>
        <time>2020-12-26T14:03:44Z</time>
      </trkpt>
      <trkpt lat="47.00907" lon="5.95583">
        <ele>652.2</ele>
        <time>2020-12-26T14:03:45Z</time>
      </trkpt>
      <trkpt lat="47.00908" lon="5.95587">
        <ele>652.2</ele>
        <time>2020-12-26T14:03:46Z</time>
      </trkpt>
      <trkpt lat="47.00909" lon="5.95592">
        <ele>652.2</ele>
        <time>2020-12-26T14:03:47Z</time>
      </trkpt>
      <trkpt lat="47.00909" lon="5.95597">
        <ele>652.2</ele>
        <time>2020-12-26T14:03:48Z</time>
      </trkpt>
      <trkpt lat="47.0091" lon="5.95603">
        <ele>652.2</ele>
        <time>2020-12-26T14:03:49Z</time>
      </trkpt>
      <trkpt lat="47.00911" lon="5.95609">
        <ele>652</ele>
        <time>2020-12-26T14:03:50Z</time>
      </trkpt>
      <trkpt lat="47.00912" lon="5.95615">
        <ele>652</ele>
        <time>2020-12-26T14:03:51Z</time>
      </trkpt>
      <trkpt lat="47.00913" lon="5.95621">
        <ele>651.6</ele>
        <time>2020-12-26T14:03:52Z</time>
      </trkpt>
      <trkpt lat="47.00913" lon="5.95627">
        <ele>651.6</ele>
        <time>2020-12-26T14:03:53Z</time>
      </trkpt>
      <trkpt lat="47.00914" lon="5.95633">
        <ele>651.6</ele>
        <time>2020-12-26T14:03:54Z</time>
      </trkpt>
      <trkpt lat="47.00914" lon="5.95638">
        <ele>651.6</ele>
        <time>2020-12-26T14:03:55Z</time>
      </trkpt>
      <trkpt lat="47.00915" lon="5.95644">
        <ele>651.6</ele>
        <time>2020-12-26T14:03:56Z</time>
      </trkpt>
      <trkpt lat="47.00915" lon="5.95648">
        <ele>652</ele>
        <time>2020-12-26T14:03:57Z</time>
      </trkpt>
      <trkpt lat="47.00915" lon="5.95653">
        <ele>652</ele>
        <time>2020-12-26T14:03:58Z</time>
      </trkpt>
      <trkpt lat="47.00916" lon="5.95657">
        <ele>652.2</ele>
        <time>2020-12-26T14:03:59Z</time>
      </trkpt>
      <trkpt lat="47.00916" lon="5.95661">
        <ele>652.4</ele>
        <time>2020-12-26T14:04:00Z</time>
      </trkpt>
      <trkpt lat="47.00916" lon="5.95665">
        <ele>652.8</ele>
        <time>2020-12-26T14:04:01Z</time>
      </trkpt>
      <trkpt lat="47.00916" lon="5.95669">
        <ele>653</ele>
        <time>2020-12-26T14:04:02Z</time>
      </trkpt>
      <trkpt lat="47.00916" lon="5.95673">
        <ele>653.2</ele>
        <time>2020-12-26T14:04:03Z</time>
      </trkpt>
      <trkpt lat="47.00916" lon="5.95677">
        <ele>653.4</ele>
        <time>2020-12-26T14:04:04Z</time>
      </trkpt>
      <trkpt lat="47.00917" lon="5.95681">
        <ele>653.8</ele>
        <time>2020-12-26T14:04:05Z</time>
      </trkpt>
      <trkpt lat="47.00918" lon="5.95686">
        <ele>654</ele>
        <time>2020-12-26T14:04:06Z</time>
      </trkpt>
      <trkpt lat="47.00919" lon="5.9569">
        <ele>654.4</ele>
        <time>2020-12-26T14:04:07Z</time>
      </trkpt>
      <trkpt lat="47.0092" lon="5.95695">
        <ele>654.8</ele>
        <time>2020-12-26T14:04:08Z</time>
      </trkpt>
      <trkpt lat="47.00922" lon="5.957">
        <ele>655</ele>
        <time>2020-12-26T14:04:09Z</time>
      </trkpt>
      <trkpt lat="47.00923" lon="5.95705">
        <ele>655.2</ele>
        <time>2020-12-26T14:04:10Z</time>
      </trkpt>
      <trkpt lat="47.00924" lon="5.95709">
        <ele>655.4</ele>
        <time>2020-12-26T14:04:11Z</time>
      </trkpt>
      <trkpt lat="47.00925" lon="5.95713">
        <ele>655.8</ele>
        <time>2020-12-26T14:04:12Z</time>
      </trkpt>
      <trkpt lat="47.00926" lon="5.95716">
        <ele>656</ele>
        <time>2020-12-26T14:04:13Z</time>
      </trkpt>
      <trkpt lat="47.00928" lon="5.9572">
        <ele>656.2</ele>
        <time>2020-12-26T14:04:14Z</time>
      </trkpt>
      <trkpt lat="47.0093" lon="5.95723">
        <ele>656.6</ele>
        <time>2020-12-26T14:04:15Z</time>
      </trkpt>
      <trkpt lat="47.00932" lon="5.95726">
        <ele>656.6</ele>
        <time>2020-12-26T14:04:16Z</time>
      </trkpt>
      <trkpt lat="47.00933" lon="5.9573">
        <ele>657</ele>
        <time>2020-12-26T14:04:17Z</time>
      </trkpt>
      <trkpt lat="47.00935" lon="5.95733">
        <ele>657.2</ele>
        <time>2020-12-26T14:04:18Z</time>
      </trkpt>
      <trkpt lat="47.00936" lon="5.95735">
        <ele>657.6</ele>
        <time>2020-12-26T14:04:19Z</time>
      </trkpt>
      <trkpt lat="47.00938" lon="5.95738">
        <ele>657.8</ele>
        <time>2020-12-26T14:04:20Z</time>
      </trkpt>
      <trkpt lat="47.0094" lon="5.95741">
        <ele>657.8</ele>
        <time>2020-12-26T14:04:21Z</time>
      </trkpt>
      <trkpt lat="47.00942" lon="5.95743">
        <ele>658</ele>
        <time>2020-12-26T14:04:22Z</time>
      </trkpt>
      <trkpt lat="47.00944" lon="5.95745">
        <ele>658</ele>
        <time>2020-12-26T14:04:23Z</time>
      </trkpt>
      <trkpt lat="47.00945" lon="5.95746">
        <ele>658.4</ele>
        <time>2020-12-26T14:04:24Z</time>
      </trkpt>
      <trkpt lat="47.00947" lon="5.95747">
        <ele>658.8</ele>
        <time>2020-12-26T14:04:25Z</time>
      </trkpt>
      <trkpt lat="47.00949" lon="5.95748">
        <ele>659</ele>
        <time>2020-12-26T14:04:26Z</time>
      </trkpt>
      <trkpt lat="47.0095" lon="5.95749">
        <ele>659.2</ele>
        <time>2020-12-26T14:04:27Z</time>
      </trkpt>
      <trkpt lat="47.00952" lon="5.9575">
        <ele>659.6</ele>
        <time>2020-12-26T14:04:28Z</time>
      </trkpt>
      <trkpt lat="47.00953" lon="5.95752">
        <ele>659.8</ele>
        <time>2020-12-26T14:04:29Z</time>
      </trkpt>
      <trkpt lat="47.00955" lon="5.95753">
        <ele>660</ele>
        <time>2020-12-26T14:04:30Z</time>
      </trkpt>
      <trkpt lat="47.00956" lon="5.95754">
        <ele>660.4</ele>
        <time>2020-12-26T14:04:31Z</time>
      </trkpt>
      <trkpt lat="47.00957" lon="5.95755">
        <ele>660.6</ele>
        <time>2020-12-26T14:04:32Z</time>
      </trkpt>
      <trkpt lat="47.00959" lon="5.95756">
        <ele>661</ele>
        <time>2020-12-26T14:04:33Z</time>
      </trkpt>
      <trkpt lat="47.0096" lon="5.95756">
        <ele>661.2</ele>
        <time>2020-12-26T14:04:34Z</time>
      </trkpt>
      <trkpt lat="47.00962" lon="5.95757">
        <ele>661.4</ele>
        <time>2020-12-26T14:04:35Z</time>
      </trkpt>
      <trkpt lat="47.00964" lon="5.95759">
        <ele>661.6</ele>
        <time>2020-12-26T14:04:36Z</time>
      </trkpt>
      <trkpt lat="47.00966" lon="5.9576">
        <ele>661.8</ele>
        <time>2020-12-26T14:04:37Z</time>
      </trkpt>
      <trkpt lat="47.00969" lon="5.95761">
        <ele>662</ele>
        <time>2020-12-26T14:04:38Z</time>
      </trkpt>
      <trkpt lat="47.00971" lon="5.95763">
        <ele>662.4</ele>
        <time>2020-12-26T14:04:39Z</time>
      </trkpt>
      <trkpt lat="47.00973" lon="5.95765">
        <ele>662.6</ele>
        <time>2020-12-26T14:04:40Z</time>
      </trkpt>
      <trkpt lat="47.00976" lon="5.95767">
        <ele>662.8</ele>
        <time>2020-12-26T14:04:41Z</time>
      </trkpt>
      <trkpt lat="47.00978" lon="5.95768">
        <ele>663</ele>
        <time>2020-12-26T14:04:42Z</time>
      </trkpt>
      <trkpt lat="47.0098" lon="5.95769">
        <ele>663</ele>
        <time>2020-12-26T14:04:43Z</time>
      </trkpt>
      <trkpt lat="47.00983" lon="5.95772">
        <ele>663.4</ele>
        <time>2020-12-26T14:04:44Z</time>
      </trkpt>
      <trkpt lat="47.00985" lon="5.95773">
        <ele>663.6</ele>
        <time>2020-12-26T14:04:45Z</time>
      </trkpt>
      <trkpt lat="47.00988" lon="5.95776">
        <ele>663.6</ele>
        <time>2020-12-26T14:04:46Z</time>
      </trkpt>
      <trkpt lat="47.00991" lon="5.95778">
        <ele>663.6</ele>
        <time>2020-12-26T14:04:47Z</time>
      </trkpt>
      <trkpt lat="47.00994" lon="5.9578">
        <ele>664</ele>
        <time>2020-12-26T14:04:48Z</time>
      </trkpt>
      <trkpt lat="47.00997" lon="5.95783">
        <ele>664</ele>
        <time>2020-12-26T14:04:49Z</time>
      </trkpt>
      <trkpt lat="47.00999" lon="5.95785">
        <ele>664.2</ele>
        <time>2020-12-26T14:04:50Z</time>
      </trkpt>
      <trkpt lat="47.01002" lon="5.95787">
        <ele>664.2</ele>
        <time>2020-12-26T14:04:51Z</time>
      </trkpt>
      <trkpt lat="47.01005" lon="5.95789">
        <ele>664.2</ele>
        <time>2020-12-26T14:04:52Z</time>
      </trkpt>
      <trkpt lat="47.01007" lon="5.9579">
        <ele>664.6</ele>
        <time>2020-12-26T14:04:53Z</time>
      </trkpt>
      <trkpt lat="47.01009" lon="5.95793">
        <ele>664.6</ele>
        <time>2020-12-26T14:04:54Z</time>
      </trkpt>
      <trkpt lat="47.01012" lon="5.95795">
        <ele>664.6</ele>
        <time>2020-12-26T14:04:55Z</time>
      </trkpt>
      <trkpt lat="47.01014" lon="5.95798">
        <ele>664.6</ele>
        <time>2020-12-26T14:04:56Z</time>
      </trkpt>
      <trkpt lat="47.01018" lon="5.95801">
        <ele>664.6</ele>
        <time>2020-12-26T14:04:57Z</time>
      </trkpt>
      <trkpt lat="47.01021" lon="5.95806">
        <ele>664.6</ele>
        <time>2020-12-26T14:04:58Z</time>
      </trkpt>
      <trkpt lat="47.01024" lon="5.9581">
        <ele>664.6</ele>
        <time>2020-12-26T14:04:59Z</time>
      </trkpt>
      <trkpt lat="47.01028" lon="5.95813">
        <ele>664.6</ele>
        <time>2020-12-26T14:05:00Z</time>
      </trkpt>
      <trkpt lat="47.01031" lon="5.95816">
        <ele>664.6</ele>
        <time>2020-12-26T14:05:01Z</time>
      </trkpt>
      <trkpt lat="47.01034" lon="5.9582">
        <ele>664.6</ele>
        <time>2020-12-26T14:05:02Z</time>
      </trkpt>
      <trkpt lat="47.01038" lon="5.95824">
        <ele>664.8</ele>
        <time>2020-12-26T14:05:03Z</time>
      </trkpt>
      <trkpt lat="47.01041" lon="5.95828">
        <ele>664.8</ele>
        <time>2020-12-26T14:05:04Z</time>
      </trkpt>
      <trkpt lat="47.01044" lon="5.95832">
        <ele>665</ele>
        <time>2020-12-26T14:05:05Z</time>
      </trkpt>
      <trkpt lat="47.01047" lon="5.95836">
        <ele>665</ele>
        <time>2020-12-26T14:05:06Z</time>
      </trkpt>
      <trkpt lat="47.0105" lon="5.95839">
        <ele>665.4</ele>
        <time>2020-12-26T14:05:07Z</time>
      </trkpt>
      <trkpt lat="47.01052" lon="5.95842">
        <ele>665.4</ele>
        <time>2020-12-26T14:05:08Z</time>
      </trkpt>
      <trkpt lat="47.01054" lon="5.95846">
        <ele>665.6</ele>
        <time>2020-12-26T14:05:09Z</time>
      </trkpt>
      <trkpt lat="47.01056" lon="5.95849">
        <ele>665.8</ele>
        <time>2020-12-26T14:05:10Z</time>
      </trkpt>
      <trkpt lat="47.01058" lon="5.95852">
        <ele>665.8</ele>
        <time>2020-12-26T14:05:11Z</time>
      </trkpt>
      <trkpt lat="47.0106" lon="5.95856">
        <ele>666.2</ele>
        <time>2020-12-26T14:05:12Z</time>
      </trkpt>
      <trkpt lat="47.01062" lon="5.95859">
        <ele>666.2</ele>
        <time>2020-12-26T14:05:13Z</time>
      </trkpt>
      <trkpt lat="47.01065" lon="5.95863">
        <ele>666.4</ele>
        <time>2020-12-26T14:05:14Z</time>
      </trkpt>
      <trkpt lat="47.01067" lon="5.95867">
        <ele>666.6</ele>
        <time>2020-12-26T14:05:15Z</time>
      </trkpt>
      <trkpt lat="47.01069" lon="5.95871">
        <ele>666.8</ele>
        <time>2020-12-26T14:05:16Z</time>
      </trkpt>
      <trkpt lat="47.01071" lon="5.95875">
        <ele>667</ele>
        <time>2020-12-26T14:05:17Z</time>
      </trkpt>
      <trkpt lat="47.01074" lon="5.95879">
        <ele>667.4</ele>
        <time>2020-12-26T14:05:18Z</time>
      </trkpt>
      <trkpt lat="47.01076" lon="5.95883">
        <ele>667.6</ele>
        <time>2020-12-26T14:05:19Z</time>
      </trkpt>
      <trkpt lat="47.01078" lon="5.95887">
        <ele>667.8</ele>
        <time>2020-12-26T14:05:20Z</time>
      </trkpt>
      <trkpt lat="47.0108" lon="5.95891">
        <ele>668.2</ele>
        <time>2020-12-26T14:05:21Z</time>
      </trkpt>
      <trkpt lat="47.01082" lon="5.95895">
        <ele>668.6</ele>
        <time>2020-12-26T14:05:22Z</time>
      </trkpt>
      <trkpt lat="47.01083" lon="5.95899">
        <ele>668.8</ele>
        <time>2020-12-26T14:05:23Z</time>
      </trkpt>
      <trkpt lat="47.01085" lon="5.95902">
        <ele>669.2</ele>
        <time>2020-12-26T14:05:24Z</time>
      </trkpt>
      <trkpt lat="47.01087" lon="5.95905">
        <ele>669.4</ele>
        <time>2020-12-26T14:05:25Z</time>
      </trkpt>
      <trkpt lat="47.01089" lon="5.95907">
        <ele>669.8</ele>
        <time>2020-12-26T14:05:26Z</time>
      </trkpt>
      <trkpt lat="47.0109" lon="5.95909">
        <ele>670</ele>
        <time>2020-12-26T14:05:27Z</time>
      </trkpt>
      <trkpt lat="47.01092" lon="5.95912">
        <ele>670.2</ele>
        <time>2020-12-26T14:05:28Z</time>
      </trkpt>
      <trkpt lat="47.01094" lon="5.95915">
        <ele>670.6</ele>
        <time>2020-12-26T14:05:29Z</time>
      </trkpt>
      <trkpt lat="47.01097" lon="5.95917">
        <ele>670.8</ele>
        <time>2020-12-26T14:05:30Z</time>
      </trkpt>
      <trkpt lat="47.01099" lon="5.9592">
        <ele>670.8</ele>
        <time>2020-12-26T14:05:31Z</time>
      </trkpt>
      <trkpt lat="47.01101" lon="5.95922">
        <ele>671</ele>
        <time>2020-12-26T14:05:32Z</time>
      </trkpt>
      <trkpt lat="47.01104" lon="5.95925">
        <ele>671</ele>
        <time>2020-12-26T14:05:33Z</time>
      </trkpt>
      <trkpt lat="47.01107" lon="5.95927">
        <ele>671.4</ele>
        <time>2020-12-26T14:05:34Z</time>
      </trkpt>
      <trkpt lat="47.0111" lon="5.95929">
        <ele>671.4</ele>
        <time>2020-12-26T14:05:35Z</time>
      </trkpt>
      <trkpt lat="47.01113" lon="5.9593">
        <ele>671.4</ele>
        <time>2020-12-26T14:05:36Z</time>
      </trkpt>
      <trkpt lat="47.01116" lon="5.95931">
        <ele>671.4</ele>
        <time>2020-12-26T14:05:37Z</time>
      </trkpt>
      <trkpt lat="47.0112" lon="5.95933">
        <ele>671.4</ele>
        <time>2020-12-26T14:05:38Z</time>
      </trkpt>
      <trkpt lat="47.01124" lon="5.95935">
        <ele>671.4</ele>
        <time>2020-12-26T14:05:39Z</time>
      </trkpt>
      <trkpt lat="47.01127" lon="5.95937">
        <ele>671.4</ele>
        <time>2020-12-26T14:05:40Z</time>
      </trkpt>
      <trkpt lat="47.01131" lon="5.95939">
        <ele>671.4</ele>
        <time>2020-12-26T14:05:41Z</time>
      </trkpt>
      <trkpt lat="47.01134" lon="5.9594">
        <ele>671.4</ele>
        <time>2020-12-26T14:05:42Z</time>
      </trkpt>
      <trkpt lat="47.01138" lon="5.95941">
        <ele>671.4</ele>
        <time>2020-12-26T14:05:43Z</time>
      </trkpt>
      <trkpt lat="47.01141" lon="5.95942">
        <ele>671.6</ele>
        <time>2020-12-26T14:05:44Z</time>
      </trkpt>
      <trkpt lat="47.01144" lon="5.95943">
        <ele>671.6</ele>
        <time>2020-12-26T14:05:45Z</time>
      </trkpt>
      <trkpt lat="47.01146" lon="5.95944">
        <ele>671.8</ele>
        <time>2020-12-26T14:05:46Z</time>
      </trkpt>
      <trkpt lat="47.01149" lon="5.95945">
        <ele>671.8</ele>
        <time>2020-12-26T14:05:47Z</time>
      </trkpt>
      <trkpt lat="47.01152" lon="5.95946">
        <ele>672.2</ele>
        <time>2020-12-26T14:05:48Z</time>
      </trkpt>
      <trkpt lat="47.01154" lon="5.95948">
        <ele>672.2</ele>
        <time>2020-12-26T14:05:49Z</time>
      </trkpt>
      <trkpt lat="47.01156" lon="5.95949">
        <ele>672.2</ele>
        <time>2020-12-26T14:05:50Z</time>
      </trkpt>
      <trkpt lat="47.01159" lon="5.9595">
        <ele>672.4</ele>
        <time>2020-12-26T14:05:51Z</time>
      </trkpt>
      <trkpt lat="47.01162" lon="5.95951">
        <ele>672.4</ele>
        <time>2020-12-26T14:05:52Z</time>
      </trkpt>
      <trkpt lat="47.01164" lon="5.95953">
        <ele>672.8</ele>
        <time>2020-12-26T14:05:53Z</time>
      </trkpt>
      <trkpt lat="47.01167" lon="5.95955">
        <ele>672.8</ele>
        <time>2020-12-26T14:05:54Z</time>
      </trkpt>
      <trkpt lat="47.0117" lon="5.95958">
        <ele>673</ele>
        <time>2020-12-26T14:05:55Z</time>
      </trkpt>
      <trkpt lat="47.01173" lon="5.9596">
        <ele>673</ele>
        <time>2020-12-26T14:05:56Z</time>
      </trkpt>
      <trkpt lat="47.01176" lon="5.95962">
        <ele>673.4</ele>
        <time>2020-12-26T14:05:57Z</time>
      </trkpt>
      <trkpt lat="47.01179" lon="5.95965">
        <ele>673.4</ele>
        <time>2020-12-26T14:05:58Z</time>
      </trkpt>
      <trkpt lat="47.01183" lon="5.95967">
        <ele>673.6</ele>
        <time>2020-12-26T14:05:59Z</time>
      </trkpt>
      <trkpt lat="47.01186" lon="5.95969">
        <ele>673.6</ele>
        <time>2020-12-26T14:06:00Z</time>
      </trkpt>
      <trkpt lat="47.01189" lon="5.95972">
        <ele>674</ele>
        <time>2020-12-26T14:06:01Z</time>
      </trkpt>
      <trkpt lat="47.01193" lon="5.95974">
        <ele>674.4</ele>
        <time>2020-12-26T14:06:02Z</time>
      </trkpt>
      <trkpt lat="47.01196" lon="5.95977">
        <ele>674.6</ele>
        <time>2020-12-26T14:06:03Z</time>
      </trkpt>
      <trkpt lat="47.01199" lon="5.95979">
        <ele>674.8</ele>
        <time>2020-12-26T14:06:04Z</time>
      </trkpt>
      <trkpt lat="47.01202" lon="5.95981">
        <ele>675.2</ele>
        <time>2020-12-26T14:06:05Z</time>
      </trkpt>
      <trkpt lat="47.01205" lon="5.95984">
        <ele>675.4</ele>
        <time>2020-12-26T14:06:06Z</time>
      </trkpt>
      <trkpt lat="47.01208" lon="5.95986">
        <ele>675.8</ele>
        <time>2020-12-26T14:06:07Z</time>
      </trkpt>
      <trkpt lat="47.01211" lon="5.95988">
        <ele>676</ele>
        <time>2020-12-26T14:06:08Z</time>
      </trkpt>
      <trkpt lat="47.01213" lon="5.95991">
        <ele>676.2</ele>
        <time>2020-12-26T14:06:09Z</time>
      </trkpt>
      <trkpt lat="47.01217" lon="5.95993">
        <ele>676.4</ele>
        <time>2020-12-26T14:06:10Z</time>
      </trkpt>
      <trkpt lat="47.01219" lon="5.95995">
        <ele>676.4</ele>
        <time>2020-12-26T14:06:11Z</time>
      </trkpt>
      <trkpt lat="47.01222" lon="5.95998">
        <ele>676.8</ele>
        <time>2020-12-26T14:06:12Z</time>
      </trkpt>
      <trkpt lat="47.01225" lon="5.96">
        <ele>676.8</ele>
        <time>2020-12-26T14:06:13Z</time>
      </trkpt>
      <trkpt lat="47.01227" lon="5.96002">
        <ele>677.2</ele>
        <time>2020-12-26T14:06:14Z</time>
      </trkpt>
      <trkpt lat="47.0123" lon="5.96004">
        <ele>677.2</ele>
        <time>2020-12-26T14:06:15Z</time>
      </trkpt>
      <trkpt lat="47.01232" lon="5.96006">
        <ele>677.4</ele>
        <time>2020-12-26T14:06:16Z</time>
      </trkpt>
      <trkpt lat="47.01235" lon="5.96007">
        <ele>677.4</ele>
        <time>2020-12-26T14:06:17Z</time>
      </trkpt>
      <trkpt lat="47.01238" lon="5.96009">
        <ele>677.6</ele>
        <time>2020-12-26T14:06:18Z</time>
      </trkpt>
      <trkpt lat="47.0124" lon="5.9601">
        <ele>677.6</ele>
        <time>2020-12-26T14:06:19Z</time>
      </trkpt>
      <trkpt lat="47.01243" lon="5.96011">
        <ele>677.6</ele>
        <time>2020-12-26T14:06:20Z</time>
      </trkpt>
      <trkpt lat="47.01245" lon="5.96012">
        <ele>677.8</ele>
        <time>2020-12-26T14:06:21Z</time>
      </trkpt>
      <trkpt lat="47.01248" lon="5.96013">
        <ele>677.8</ele>
        <time>2020-12-26T14:06:22Z</time>
      </trkpt>
      <trkpt lat="47.01252" lon="5.96014">
        <ele>677.8</ele>
        <time>2020-12-26T14:06:23Z</time>
      </trkpt>
      <trkpt lat="47.01256" lon="5.96015">
        <ele>678.2</ele>
        <time>2020-12-26T14:06:24Z</time>
      </trkpt>
      <trkpt lat="47.01259" lon="5.96015">
        <ele>678.2</ele>
        <time>2020-12-26T14:06:25Z</time>
      </trkpt>
      <trkpt lat="47.01263" lon="5.96016">
        <ele>678.2</ele>
        <time>2020-12-26T14:06:26Z</time>
      </trkpt>
      <trkpt lat="47.01266" lon="5.96018">
        <ele>678.2</ele>
        <time>2020-12-26T14:06:27Z</time>
      </trkpt>
      <trkpt lat="47.0127" lon="5.96018">
        <ele>678.2</ele>
        <time>2020-12-26T14:06:28Z</time>
      </trkpt>
      <trkpt lat="47.01274" lon="5.96019">
        <ele>678.2</ele>
        <time>2020-12-26T14:06:29Z</time>
      </trkpt>
      <trkpt lat="47.01278" lon="5.9602">
        <ele>678.4</ele>
        <time>2020-12-26T14:06:30Z</time>
      </trkpt>
      <trkpt lat="47.01282" lon="5.96021">
        <ele>678.4</ele>
        <time>2020-12-26T14:06:31Z</time>
      </trkpt>
      <trkpt lat="47.01286" lon="5.96022">
        <ele>678.4</ele>
        <time>2020-12-26T14:06:32Z</time>
      </trkpt>
      <trkpt lat="47.0129" lon="5.96022">
        <ele>678.4</ele>
        <time>2020-12-26T14:06:33Z</time>
      </trkpt>
      <trkpt lat="47.01294" lon="5.96022">
        <ele>678</ele>
        <time>2020-12-26T14:06:34Z</time>
      </trkpt>
      <trkpt lat="47.01298" lon="5.96023">
        <ele>678</ele>
        <time>2020-12-26T14:06:35Z</time>
      </trkpt>
      <trkpt lat="47.01302" lon="5.96023">
        <ele>678</ele>
        <time>2020-12-26T14:06:36Z</time>
      </trkpt>
      <trkpt lat="47.01306" lon="5.96023">
        <ele>678</ele>
        <time>2020-12-26T14:06:37Z</time>
      </trkpt>
      <trkpt lat="47.0131" lon="5.96023">
        <ele>678.4</ele>
        <time>2020-12-26T14:06:38Z</time>
      </trkpt>
      <trkpt lat="47.01314" lon="5.96023">
        <ele>678.4</ele>
        <time>2020-12-26T14:06:39Z</time>
      </trkpt>
      <trkpt lat="47.01318" lon="5.96024">
        <ele>678.4</ele>
        <time>2020-12-26T14:06:40Z</time>
      </trkpt>
      <trkpt lat="47.01322" lon="5.96025">
        <ele>678.4</ele>
        <time>2020-12-26T14:06:41Z</time>
      </trkpt>
      <trkpt lat="47.01326" lon="5.96026">
        <ele>678.6</ele>
        <time>2020-12-26T14:06:42Z</time>
      </trkpt>
      <trkpt lat="47.01329" lon="5.96026">
        <ele>678.6</ele>
        <time>2020-12-26T14:06:43Z</time>
      </trkpt>
      <trkpt lat="47.01332" lon="5.96027">
        <ele>678.6</ele>
        <time>2020-12-26T14:06:44Z</time>
      </trkpt>
      <trkpt lat="47.01335" lon="5.96028">
        <ele>678.8</ele>
        <time>2020-12-26T14:06:45Z</time>
      </trkpt>
      <trkpt lat="47.01338" lon="5.96029">
        <ele>678.8</ele>
        <time>2020-12-26T14:06:46Z</time>
      </trkpt>
      <trkpt lat="47.01342" lon="5.9603">
        <ele>679.2</ele>
        <time>2020-12-26T14:06:47Z</time>
      </trkpt>
      <trkpt lat="47.01344" lon="5.96031">
        <ele>679.4</ele>
        <time>2020-12-26T14:06:48Z</time>
      </trkpt>
      <trkpt lat="47.01347" lon="5.96032">
        <ele>679.6</ele>
        <time>2020-12-26T14:06:49Z</time>
      </trkpt>
      <trkpt lat="47.01349" lon="5.96033">
        <ele>680</ele>
        <time>2020-12-26T14:06:50Z</time>
      </trkpt>
      <trkpt lat="47.01353" lon="5.96035">
        <ele>680.2</ele>
        <time>2020-12-26T14:06:51Z</time>
      </trkpt>
      <trkpt lat="47.01356" lon="5.96037">
        <ele>680.6</ele>
        <time>2020-12-26T14:06:52Z</time>
      </trkpt>
      <trkpt lat="47.01358" lon="5.96039">
        <ele>680.8</ele>
        <time>2020-12-26T14:06:53Z</time>
      </trkpt>
      <trkpt lat="47.01361" lon="5.96042">
        <ele>681.2</ele>
        <time>2020-12-26T14:06:54Z</time>
      </trkpt>
      <trkpt lat="47.01364" lon="5.96044">
        <ele>681.4</ele>
        <time>2020-12-26T14:06:55Z</time>
      </trkpt>
      <trkpt lat="47.01366" lon="5.96046">
        <ele>681.6</ele>
        <time>2020-12-26T14:06:56Z</time>
      </trkpt>
      <trkpt lat="47.01369" lon="5.96049">
        <ele>681.8</ele>
        <time>2020-12-26T14:06:57Z</time>
      </trkpt>
      <trkpt lat="47.01371" lon="5.96052">
        <ele>682.2</ele>
        <time>2020-12-26T14:06:58Z</time>
      </trkpt>
      <trkpt lat="47.01374" lon="5.96055">
        <ele>682.4</ele>
        <time>2020-12-26T14:06:59Z</time>
      </trkpt>
      <trkpt lat="47.01376" lon="5.96057">
        <ele>682.4</ele>
        <time>2020-12-26T14:07:00Z</time>
      </trkpt>
      <trkpt lat="47.01379" lon="5.9606">
        <ele>682.6</ele>
        <time>2020-12-26T14:07:01Z</time>
      </trkpt>
      <trkpt lat="47.01381" lon="5.96063">
        <ele>682.6</ele>
        <time>2020-12-26T14:07:02Z</time>
      </trkpt>
      <trkpt lat="47.01383" lon="5.96065">
        <ele>683</ele>
        <time>2020-12-26T14:07:03Z</time>
      </trkpt>
      <trkpt lat="47.01385" lon="5.96068">
        <ele>683</ele>
        <time>2020-12-26T14:07:04Z</time>
      </trkpt>
      <trkpt lat="47.01387" lon="5.96071">
        <ele>683.4</ele>
        <time>2020-12-26T14:07:05Z</time>
      </trkpt>
      <trkpt lat="47.0139" lon="5.96074">
        <ele>683.4</ele>
        <time>2020-12-26T14:07:06Z</time>
      </trkpt>
      <trkpt lat="47.01392" lon="5.96077">
        <ele>683.6</ele>
        <time>2020-12-26T14:07:07Z</time>
      </trkpt>
      <trkpt lat="47.01394" lon="5.9608">
        <ele>683.6</ele>
        <time>2020-12-26T14:07:08Z</time>
      </trkpt>
      <trkpt lat="47.01395" lon="5.96082">
        <ele>683.8</ele>
        <time>2020-12-26T14:07:09Z</time>
      </trkpt>
      <trkpt lat="47.01397" lon="5.96085">
        <ele>683.8</ele>
        <time>2020-12-26T14:07:10Z</time>
      </trkpt>
      <trkpt lat="47.01398" lon="5.96088">
        <ele>684.2</ele>
        <time>2020-12-26T14:07:11Z</time>
      </trkpt>
      <trkpt lat="47.014" lon="5.96091">
        <ele>684.2</ele>
        <time>2020-12-26T14:07:12Z</time>
      </trkpt>
      <trkpt lat="47.01401" lon="5.96094">
        <ele>684.4</ele>
        <time>2020-12-26T14:07:13Z</time>
      </trkpt>
      <trkpt lat="47.01403" lon="5.96097">
        <ele>684.4</ele>
        <time>2020-12-26T14:07:14Z</time>
      </trkpt>
      <trkpt lat="47.01404" lon="5.961">
        <ele>684.4</ele>
        <time>2020-12-26T14:07:15Z</time>
      </trkpt>
      <trkpt lat="47.01405" lon="5.96102">
        <ele>684.6</ele>
        <time>2020-12-26T14:07:16Z</time>
      </trkpt>
      <trkpt lat="47.01406" lon="5.96105">
        <ele>684.6</ele>
        <time>2020-12-26T14:07:17Z</time>
      </trkpt>
      <trkpt lat="47.01406" lon="5.96108">
        <ele>684.6</ele>
        <time>2020-12-26T14:07:18Z</time>
      </trkpt>
      <trkpt lat="47.01407" lon="5.96111">
        <ele>684.8</ele>
        <time>2020-12-26T14:07:19Z</time>
      </trkpt>
      <trkpt lat="47.01408" lon="5.96113">
        <ele>684.8</ele>
        <time>2020-12-26T14:07:20Z</time>
      </trkpt>
      <trkpt lat="47.01409" lon="5.96116">
        <ele>684.8</ele>
        <time>2020-12-26T14:07:21Z</time>
      </trkpt>
      <trkpt lat="47.01411" lon="5.96119">
        <ele>685</ele>
        <time>2020-12-26T14:07:22Z</time>
      </trkpt>
      <trkpt lat="47.01412" lon="5.96122">
        <ele>685</ele>
        <time>2020-12-26T14:07:23Z</time>
      </trkpt>
      <trkpt lat="47.01412" lon="5.96126">
        <ele>685</ele>
        <time>2020-12-26T14:07:24Z</time>
      </trkpt>
      <trkpt lat="47.01413" lon="5.96129">
        <ele>685</ele>
        <time>2020-12-26T14:07:25Z</time>
      </trkpt>
      <trkpt lat="47.01415" lon="5.96132">
        <ele>685</ele>
        <time>2020-12-26T14:07:26Z</time>
      </trkpt>
      <trkpt lat="47.01415" lon="5.96136">
        <ele>685.2</ele>
        <time>2020-12-26T14:07:27Z</time>
      </trkpt>
      <trkpt lat="47.01417" lon="5.96139">
        <ele>685.2</ele>
        <time>2020-12-26T14:07:28Z</time>
      </trkpt>
      <trkpt lat="47.01418" lon="5.96143">
        <ele>685.2</ele>
        <time>2020-12-26T14:07:29Z</time>
      </trkpt>
      <trkpt lat="47.01419" lon="5.96147">
        <ele>685.2</ele>
        <time>2020-12-26T14:07:30Z</time>
      </trkpt>
      <trkpt lat="47.0142" lon="5.96151">
        <ele>685.4</ele>
        <time>2020-12-26T14:07:31Z</time>
      </trkpt>
      <trkpt lat="47.01422" lon="5.96154">
        <ele>685.4</ele>
        <time>2020-12-26T14:07:32Z</time>
      </trkpt>
      <trkpt lat="47.01423" lon="5.96158">
        <ele>685.8</ele>
        <time>2020-12-26T14:07:33Z</time>
      </trkpt>
      <trkpt lat="47.01423" lon="5.96162">
        <ele>685.8</ele>
        <time>2020-12-26T14:07:34Z</time>
      </trkpt>
      <trkpt lat="47.01425" lon="5.96165">
        <ele>685.8</ele>
        <time>2020-12-26T14:07:35Z</time>
      </trkpt>
      <trkpt lat="47.01426" lon="5.96168">
        <ele>685.8</ele>
        <time>2020-12-26T14:07:36Z</time>
      </trkpt>
      <trkpt lat="47.01428" lon="5.96171">
        <ele>685.8</ele>
        <time>2020-12-26T14:07:37Z</time>
      </trkpt>
      <trkpt lat="47.01429" lon="5.96174">
        <ele>686</ele>
        <time>2020-12-26T14:07:38Z</time>
      </trkpt>
      <trkpt lat="47.0143" lon="5.96177">
        <ele>686</ele>
        <time>2020-12-26T14:07:39Z</time>
      </trkpt>
      <trkpt lat="47.01431" lon="5.9618">
        <ele>686</ele>
        <time>2020-12-26T14:07:40Z</time>
      </trkpt>
      <trkpt lat="47.01432" lon="5.96183">
        <ele>686</ele>
        <time>2020-12-26T14:07:41Z</time>
      </trkpt>
      <trkpt lat="47.01433" lon="5.96186">
        <ele>686</ele>
        <time>2020-12-26T14:07:42Z</time>
      </trkpt>
      <trkpt lat="47.01435" lon="5.96189">
        <ele>686</ele>
        <time>2020-12-26T14:07:43Z</time>
      </trkpt>
      <trkpt lat="47.01436" lon="5.96192">
        <ele>686</ele>
        <time>2020-12-26T14:07:44Z</time>
      </trkpt>
      <trkpt lat="47.01437" lon="5.96194">
        <ele>686</ele>
        <time>2020-12-26T14:07:45Z</time>
      </trkpt>
      <trkpt lat="47.01438" lon="5.96197">
        <ele>686</ele>
        <time>2020-12-26T14:07:46Z</time>
      </trkpt>
      <trkpt lat="47.01439" lon="5.962">
        <ele>686</ele>
        <time>2020-12-26T14:07:47Z</time>
      </trkpt>
      <trkpt lat="47.0144" lon="5.96202">
        <ele>686</ele>
        <time>2020-12-26T14:07:48Z</time>
      </trkpt>
      <trkpt lat="47.01441" lon="5.96205">
        <ele>686</ele>
        <time>2020-12-26T14:07:49Z</time>
      </trkpt>
      <trkpt lat="47.01442" lon="5.96209">
        <ele>686</ele>
        <time>2020-12-26T14:07:50Z</time>
      </trkpt>
      <trkpt lat="47.01443" lon="5.96212">
        <ele>686</ele>
        <time>2020-12-26T14:07:51Z</time>
      </trkpt>
      <trkpt lat="47.01444" lon="5.96215">
        <ele>686</ele>
        <time>2020-12-26T14:07:52Z</time>
      </trkpt>
      <trkpt lat="47.01445" lon="5.96218">
        <ele>686</ele>
        <time>2020-12-26T14:07:53Z</time>
      </trkpt>
      <trkpt lat="47.01446" lon="5.96221">
        <ele>686</ele>
        <time>2020-12-26T14:07:54Z</time>
      </trkpt>
      <trkpt lat="47.01447" lon="5.96224">
        <ele>686</ele>
        <time>2020-12-26T14:07:55Z</time>
      </trkpt>
      <trkpt lat="47.01448" lon="5.96227">
        <ele>686</ele>
        <time>2020-12-26T14:07:56Z</time>
      </trkpt>
      <trkpt lat="47.01449" lon="5.9623">
        <ele>686</ele>
        <time>2020-12-26T14:07:57Z</time>
      </trkpt>
      <trkpt lat="47.0145" lon="5.96233">
        <ele>686</ele>
        <time>2020-12-26T14:07:58Z</time>
      </trkpt>
      <trkpt lat="47.01451" lon="5.96236">
        <ele>686</ele>
        <time>2020-12-26T14:07:59Z</time>
      </trkpt>
      <trkpt lat="47.01452" lon="5.96239">
        <ele>686.2</ele>
        <time>2020-12-26T14:08:00Z</time>
      </trkpt>
      <trkpt lat="47.01454" lon="5.96241">
        <ele>686.2</ele>
        <time>2020-12-26T14:08:01Z</time>
      </trkpt>
      <trkpt lat="47.01456" lon="5.96244">
        <ele>686.2</ele>
        <time>2020-12-26T14:08:02Z</time>
      </trkpt>
      <trkpt lat="47.01456" lon="5.96247">
        <ele>686.4</ele>
        <time>2020-12-26T14:08:03Z</time>
      </trkpt>
      <trkpt lat="47.01457" lon="5.9625">
        <ele>686.4</ele>
        <time>2020-12-26T14:08:04Z</time>
      </trkpt>
      <trkpt lat="47.01458" lon="5.96253">
        <ele>686.4</ele>
        <time>2020-12-26T14:08:05Z</time>
      </trkpt>
      <trkpt lat="47.01459" lon="5.96256">
        <ele>686.4</ele>
        <time>2020-12-26T14:08:06Z</time>
      </trkpt>
      <trkpt lat="47.01461" lon="5.96259">
        <ele>686.4</ele>
        <time>2020-12-26T14:08:07Z</time>
      </trkpt>
      <trkpt lat="47.01462" lon="5.96262">
        <ele>686.4</ele>
        <time>2020-12-26T14:08:08Z</time>
      </trkpt>
      <trkpt lat="47.01463" lon="5.96265">
        <ele>686.4</ele>
        <time>2020-12-26T14:08:09Z</time>
      </trkpt>
      <trkpt lat="47.01463" lon="5.96268">
        <ele>686.4</ele>
        <time>2020-12-26T14:08:10Z</time>
      </trkpt>
      <trkpt lat="47.01463" lon="5.96272">
        <ele>686.4</ele>
        <time>2020-12-26T14:08:11Z</time>
      </trkpt>
      <trkpt lat="47.01464" lon="5.96276">
        <ele>686.4</ele>
        <time>2020-12-26T14:08:12Z</time>
      </trkpt>
      <trkpt lat="47.01464" lon="5.9628">
        <ele>686.4</ele>
        <time>2020-12-26T14:08:13Z</time>
      </trkpt>
      <trkpt lat="47.01463" lon="5.96285">
        <ele>686.4</ele>
        <time>2020-12-26T14:08:14Z</time>
      </trkpt>
      <trkpt lat="47.01463" lon="5.9629">
        <ele>686.4</ele>
        <time>2020-12-26T14:08:15Z</time>
      </trkpt>
      <trkpt lat="47.01462" lon="5.96295">
        <ele>686.2</ele>
        <time>2020-12-26T14:08:16Z</time>
      </trkpt>
      <trkpt lat="47.01462" lon="5.96301">
        <ele>686</ele>
        <time>2020-12-26T14:08:17Z</time>
      </trkpt>
      <trkpt lat="47.01461" lon="5.96307">
        <ele>685.6</ele>
        <time>2020-12-26T14:08:18Z</time>
      </trkpt>
      <trkpt lat="47.01458" lon="5.96312">
        <ele>685.4</ele>
        <time>2020-12-26T14:08:19Z</time>
      </trkpt>
      <trkpt lat="47.01455" lon="5.96317">
        <ele>685.4</ele>
        <time>2020-12-26T14:08:20Z</time>
      </trkpt>
      <trkpt lat="47.01452" lon="5.96322">
        <ele>685</ele>
        <time>2020-12-26T14:08:21Z</time>
      </trkpt>
      <trkpt lat="47.01447" lon="5.96326">
        <ele>684.8</ele>
        <time>2020-12-26T14:08:22Z</time>
      </trkpt>
      <trkpt lat="47.01443" lon="5.96329">
        <ele>684.8</ele>
        <time>2020-12-26T14:08:23Z</time>
      </trkpt>
      <trkpt lat="47.01438" lon="5.96331">
        <ele>684.2</ele>
        <time>2020-12-26T14:08:24Z</time>
      </trkpt>
      <trkpt lat="47.01433" lon="5.96332">
        <ele>684</ele>
        <time>2020-12-26T14:08:25Z</time>
      </trkpt>
      <trkpt lat="47.01427" lon="5.96333">
        <ele>683.8</ele>
        <time>2020-12-26T14:08:26Z</time>
      </trkpt>
      <trkpt lat="47.01421" lon="5.96333">
        <ele>683.8</ele>
        <time>2020-12-26T14:08:27Z</time>
      </trkpt>
      <trkpt lat="47.01414" lon="5.96333">
        <ele>683.4</ele>
        <time>2020-12-26T14:08:28Z</time>
      </trkpt>
      <trkpt lat="47.01407" lon="5.96332">
        <ele>683</ele>
        <time>2020-12-26T14:08:29Z</time>
      </trkpt>
      <trkpt lat="47.014" lon="5.96332">
        <ele>682.6</ele>
        <time>2020-12-26T14:08:30Z</time>
      </trkpt>
      <trkpt lat="47.01393" lon="5.96332">
        <ele>682.2</ele>
        <time>2020-12-26T14:08:31Z</time>
      </trkpt>
      <trkpt lat="47.01385" lon="5.96333">
        <ele>681.8</ele>
        <time>2020-12-26T14:08:32Z</time>
      </trkpt>
      <trkpt lat="47.01378" lon="5.96333">
        <ele>681.4</ele>
        <time>2020-12-26T14:08:33Z</time>
      </trkpt>
      <trkpt lat="47.0137" lon="5.96332">
        <ele>681</ele>
        <time>2020-12-26T14:08:34Z</time>
      </trkpt>
      <trkpt lat="47.01362" lon="5.96331">
        <ele>680.6</ele>
        <time>2020-12-26T14:08:35Z</time>
      </trkpt>
      <trkpt lat="47.01353" lon="5.96331">
        <ele>680</ele>
        <time>2020-12-26T14:08:36Z</time>
      </trkpt>
      <trkpt lat="47.01345" lon="5.96331">
        <ele>679.4</ele>
        <time>2020-12-26T14:08:37Z</time>
      </trkpt>
      <trkpt lat="47.01336" lon="5.9633">
        <ele>678.8</ele>
        <time>2020-12-26T14:08:38Z</time>
      </trkpt>
      <trkpt lat="47.01327" lon="5.9633">
        <ele>678.4</ele>
        <time>2020-12-26T14:08:39Z</time>
      </trkpt>
      <trkpt lat="47.01318" lon="5.9633">
        <ele>678</ele>
        <time>2020-12-26T14:08:40Z</time>
      </trkpt>
      <trkpt lat="47.01309" lon="5.9633">
        <ele>677.6</ele>
        <time>2020-12-26T14:08:41Z</time>
      </trkpt>
      <trkpt lat="47.01301" lon="5.96329">
        <ele>677</ele>
        <time>2020-12-26T14:08:42Z</time>
      </trkpt>
      <trkpt lat="47.01292" lon="5.96329">
        <ele>676.6</ele>
        <time>2020-12-26T14:08:43Z</time>
      </trkpt>
      <trkpt lat="47.01283" lon="5.96328">
        <ele>676</ele>
        <time>2020-12-26T14:08:44Z</time>
      </trkpt>
      <trkpt lat="47.01273" lon="5.96329">
        <ele>675.6</ele>
        <time>2020-12-26T14:08:45Z</time>
      </trkpt>
      <trkpt lat="47.01264" lon="5.96329">
        <ele>675.2</ele>
        <time>2020-12-26T14:08:46Z</time>
      </trkpt>
      <trkpt lat="47.01256" lon="5.9633">
        <ele>674.6</ele>
        <time>2020-12-26T14:08:47Z</time>
      </trkpt>
      <trkpt lat="47.01247" lon="5.96331">
        <ele>674.2</ele>
        <time>2020-12-26T14:08:48Z</time>
      </trkpt>
      <trkpt lat="47.01238" lon="5.96332">
        <ele>673.8</ele>
        <time>2020-12-26T14:08:49Z</time>
      </trkpt>
      <trkpt lat="47.0123" lon="5.96335">
        <ele>673.2</ele>
        <time>2020-12-26T14:08:50Z</time>
      </trkpt>
      <trkpt lat="47.01222" lon="5.96339">
        <ele>672.8</ele>
        <time>2020-12-26T14:08:51Z</time>
      </trkpt>
      <trkpt lat="47.01213" lon="5.96343">
        <ele>672.4</ele>
        <time>2020-12-26T14:08:52Z</time>
      </trkpt>
      <trkpt lat="47.01205" lon="5.96347">
        <ele>672</ele>
        <time>2020-12-26T14:08:53Z</time>
      </trkpt>
      <trkpt lat="47.01197" lon="5.96351">
        <ele>671.6</ele>
        <time>2020-12-26T14:08:54Z</time>
      </trkpt>
      <trkpt lat="47.01189" lon="5.96356">
        <ele>671.2</ele>
        <time>2020-12-26T14:08:55Z</time>
      </trkpt>
      <trkpt lat="47.01181" lon="5.9636">
        <ele>670.6</ele>
        <time>2020-12-26T14:08:56Z</time>
      </trkpt>
      <trkpt lat="47.01173" lon="5.96365">
        <ele>670.4</ele>
        <time>2020-12-26T14:08:57Z</time>
      </trkpt>
      <trkpt lat="47.01164" lon="5.96369">
        <ele>670</ele>
        <time>2020-12-26T14:08:58Z</time>
      </trkpt>
      <trkpt lat="47.01156" lon="5.96373">
        <ele>669.8</ele>
        <time>2020-12-26T14:08:59Z</time>
      </trkpt>
      <trkpt lat="47.01148" lon="5.96378">
        <ele>669.6</ele>
        <time>2020-12-26T14:09:00Z</time>
      </trkpt>
      <trkpt lat="47.01141" lon="5.96382">
        <ele>669.2</ele>
        <time>2020-12-26T14:09:01Z</time>
      </trkpt>
      <trkpt lat="47.01133" lon="5.96386">
        <ele>669</ele>
        <time>2020-12-26T14:09:02Z</time>
      </trkpt>
      <trkpt lat="47.01127" lon="5.96389">
        <ele>668.8</ele>
        <time>2020-12-26T14:09:03Z</time>
      </trkpt>
      <trkpt lat="47.0112" lon="5.96393">
        <ele>668.4</ele>
        <time>2020-12-26T14:09:04Z</time>
      </trkpt>
      <trkpt lat="47.01113" lon="5.96399">
        <ele>668.2</ele>
        <time>2020-12-26T14:09:05Z</time>
      </trkpt>
      <trkpt lat="47.01108" lon="5.96405">
        <ele>668</ele>
        <time>2020-12-26T14:09:06Z</time>
      </trkpt>
      <trkpt lat="47.01104" lon="5.96412">
        <ele>668</ele>
        <time>2020-12-26T14:09:07Z</time>
      </trkpt>
      <trkpt lat="47.01101" lon="5.96419">
        <ele>668</ele>
        <time>2020-12-26T14:09:08Z</time>
      </trkpt>
      <trkpt lat="47.01099" lon="5.96427">
        <ele>667.8</ele>
        <time>2020-12-26T14:09:09Z</time>
      </trkpt>
      <trkpt lat="47.01099" lon="5.96436">
        <ele>667.8</ele>
        <time>2020-12-26T14:09:10Z</time>
      </trkpt>
      <trkpt lat="47.01099" lon="5.96445">
        <ele>667.8</ele>
        <time>2020-12-26T14:09:11Z</time>
      </trkpt>
      <trkpt lat="47.01101" lon="5.96453">
        <ele>667.8</ele>
        <time>2020-12-26T14:09:12Z</time>
      </trkpt>
      <trkpt lat="47.01103" lon="5.9646">
        <ele>668</ele>
        <time>2020-12-26T14:09:13Z</time>
      </trkpt>
      <trkpt lat="47.01105" lon="5.96467">
        <ele>668</ele>
        <time>2020-12-26T14:09:14Z</time>
      </trkpt>
      <trkpt lat="47.01107" lon="5.96473">
        <ele>668.4</ele>
        <time>2020-12-26T14:09:15Z</time>
      </trkpt>
      <trkpt lat="47.01109" lon="5.96479">
        <ele>668.4</ele>
        <time>2020-12-26T14:09:16Z</time>
      </trkpt>
      <trkpt lat="47.01111" lon="5.96485">
        <ele>668.8</ele>
        <time>2020-12-26T14:09:17Z</time>
      </trkpt>
      <trkpt lat="47.01114" lon="5.9649">
        <ele>668.8</ele>
        <time>2020-12-26T14:09:18Z</time>
      </trkpt>
      <trkpt lat="47.01116" lon="5.96496">
        <ele>669.2</ele>
        <time>2020-12-26T14:09:19Z</time>
      </trkpt>
      <trkpt lat="47.01118" lon="5.96502">
        <ele>669.4</ele>
        <time>2020-12-26T14:09:20Z</time>
      </trkpt>
      <trkpt lat="47.01121" lon="5.96507">
        <ele>669.8</ele>
        <time>2020-12-26T14:09:21Z</time>
      </trkpt>
      <trkpt lat="47.01123" lon="5.96512">
        <ele>669.8</ele>
        <time>2020-12-26T14:09:22Z</time>
      </trkpt>
      <trkpt lat="47.01125" lon="5.96517">
        <ele>669.8</ele>
        <time>2020-12-26T14:09:23Z</time>
      </trkpt>
      <trkpt lat="47.01127" lon="5.96521">
        <ele>669.8</ele>
        <time>2020-12-26T14:09:24Z</time>
      </trkpt>
      <trkpt lat="47.01129" lon="5.96526">
        <ele>669.8</ele>
        <time>2020-12-26T14:09:25Z</time>
      </trkpt>
      <trkpt lat="47.01131" lon="5.96531">
        <ele>670</ele>
        <time>2020-12-26T14:09:26Z</time>
      </trkpt>
      <trkpt lat="47.01133" lon="5.96535">
        <ele>670</ele>
        <time>2020-12-26T14:09:27Z</time>
      </trkpt>
      <trkpt lat="47.01135" lon="5.96539">
        <ele>670.2</ele>
        <time>2020-12-26T14:09:28Z</time>
      </trkpt>
      <trkpt lat="47.01136" lon="5.96544">
        <ele>670.2</ele>
        <time>2020-12-26T14:09:29Z</time>
      </trkpt>
      <trkpt lat="47.01138" lon="5.96549">
        <ele>670.6</ele>
        <time>2020-12-26T14:09:30Z</time>
      </trkpt>
      <trkpt lat="47.0114" lon="5.96553">
        <ele>670.6</ele>
        <time>2020-12-26T14:09:31Z</time>
      </trkpt>
      <trkpt lat="47.01142" lon="5.96558">
        <ele>670.8</ele>
        <time>2020-12-26T14:09:32Z</time>
      </trkpt>
      <trkpt lat="47.01144" lon="5.96562">
        <ele>670.8</ele>
        <time>2020-12-26T14:09:33Z</time>
      </trkpt>
      <trkpt lat="47.01146" lon="5.96566">
        <ele>671.2</ele>
        <time>2020-12-26T14:09:34Z</time>
      </trkpt>
      <trkpt lat="47.01147" lon="5.96571">
        <ele>671.4</ele>
        <time>2020-12-26T14:09:35Z</time>
      </trkpt>
      <trkpt lat="47.01149" lon="5.96575">
        <ele>671.4</ele>
        <time>2020-12-26T14:09:36Z</time>
      </trkpt>
      <trkpt lat="47.01151" lon="5.96579">
        <ele>671.8</ele>
        <time>2020-12-26T14:09:37Z</time>
      </trkpt>
      <trkpt lat="47.01153" lon="5.96583">
        <ele>671.8</ele>
        <time>2020-12-26T14:09:38Z</time>
      </trkpt>
      <trkpt lat="47.01154" lon="5.96587">
        <ele>672.2</ele>
        <time>2020-12-26T14:09:39Z</time>
      </trkpt>
      <trkpt lat="47.01156" lon="5.96591">
        <ele>672.2</ele>
        <time>2020-12-26T14:09:40Z</time>
      </trkpt>
      <trkpt lat="47.01158" lon="5.96595">
        <ele>672.2</ele>
        <time>2020-12-26T14:09:41Z</time>
      </trkpt>
      <trkpt lat="47.0116" lon="5.96599">
        <ele>672.4</ele>
        <time>2020-12-26T14:09:42Z</time>
      </trkpt>
      <trkpt lat="47.01162" lon="5.96604">
        <ele>672.4</ele>
        <time>2020-12-26T14:09:43Z</time>
      </trkpt>
      <trkpt lat="47.01164" lon="5.96608">
        <ele>672.8</ele>
        <time>2020-12-26T14:09:44Z</time>
      </trkpt>
      <trkpt lat="47.01166" lon="5.96613">
        <ele>672.8</ele>
        <time>2020-12-26T14:09:45Z</time>
      </trkpt>
      <trkpt lat="47.01168" lon="5.96617">
        <ele>672.8</ele>
        <time>2020-12-26T14:09:46Z</time>
      </trkpt>
      <trkpt lat="47.0117" lon="5.96621">
        <ele>673.2</ele>
        <time>2020-12-26T14:09:47Z</time>
      </trkpt>
      <trkpt lat="47.01172" lon="5.96626">
        <ele>673.2</ele>
        <time>2020-12-26T14:09:48Z</time>
      </trkpt>
      <trkpt lat="47.01174" lon="5.9663">
        <ele>673.4</ele>
        <time>2020-12-26T14:09:49Z</time>
      </trkpt>
      <trkpt lat="47.01176" lon="5.96635">
        <ele>673.4</ele>
        <time>2020-12-26T14:09:50Z</time>
      </trkpt>
      <trkpt lat="47.01178" lon="5.96639">
        <ele>673.8</ele>
        <time>2020-12-26T14:09:51Z</time>
      </trkpt>
      <trkpt lat="47.0118" lon="5.96643">
        <ele>673.8</ele>
        <time>2020-12-26T14:09:52Z</time>
      </trkpt>
      <trkpt lat="47.01182" lon="5.96647">
        <ele>674</ele>
        <time>2020-12-26T14:09:53Z</time>
      </trkpt>
      <trkpt lat="47.01184" lon="5.96651">
        <ele>674.4</ele>
        <time>2020-12-26T14:09:54Z</time>
      </trkpt>
      <trkpt lat="47.01186" lon="5.96656">
        <ele>674.4</ele>
        <time>2020-12-26T14:09:55Z</time>
      </trkpt>
      <trkpt lat="47.01188" lon="5.9666">
        <ele>674.6</ele>
        <time>2020-12-26T14:09:56Z</time>
      </trkpt>
      <trkpt lat="47.0119" lon="5.96665">
        <ele>674.6</ele>
        <time>2020-12-26T14:09:57Z</time>
      </trkpt>
      <trkpt lat="47.01192" lon="5.96669">
        <ele>674.8</ele>
        <time>2020-12-26T14:09:58Z</time>
      </trkpt>
      <trkpt lat="47.01194" lon="5.96674">
        <ele>674.8</ele>
        <time>2020-12-26T14:09:59Z</time>
      </trkpt>
      <trkpt lat="47.01197" lon="5.96679">
        <ele>674.8</ele>
        <time>2020-12-26T14:10:00Z</time>
      </trkpt>
      <trkpt lat="47.01199" lon="5.96684">
        <ele>675.2</ele>
        <time>2020-12-26T14:10:01Z</time>
      </trkpt>
      <trkpt lat="47.01202" lon="5.96689">
        <ele>675.2</ele>
        <time>2020-12-26T14:10:02Z</time>
      </trkpt>
      <trkpt lat="47.01205" lon="5.96694">
        <ele>675.4</ele>
        <time>2020-12-26T14:10:03Z</time>
      </trkpt>
      <trkpt lat="47.01207" lon="5.967">
        <ele>675.4</ele>
        <time>2020-12-26T14:10:04Z</time>
      </trkpt>
      <trkpt lat="47.0121" lon="5.96705">
        <ele>675.4</ele>
        <time>2020-12-26T14:10:05Z</time>
      </trkpt>
      <trkpt lat="47.01213" lon="5.96711">
        <ele>675.4</ele>
        <time>2020-12-26T14:10:06Z</time>
      </trkpt>
      <trkpt lat="47.01215" lon="5.96716">
        <ele>675.6</ele>
        <time>2020-12-26T14:10:07Z</time>
      </trkpt>
      <trkpt lat="47.01218" lon="5.96722">
        <ele>675.6</ele>
        <time>2020-12-26T14:10:08Z</time>
      </trkpt>
      <trkpt lat="47.01221" lon="5.96728">
        <ele>675.6</ele>
        <time>2020-12-26T14:10:09Z</time>
      </trkpt>
      <trkpt lat="47.01223" lon="5.96735">
        <ele>675.8</ele>
        <time>2020-12-26T14:10:10Z</time>
      </trkpt>
      <trkpt lat="47.01226" lon="5.96741">
        <ele>675.8</ele>
        <time>2020-12-26T14:10:11Z</time>
      </trkpt>
      <trkpt lat="47.01229" lon="5.96747">
        <ele>675.8</ele>
        <time>2020-12-26T14:10:12Z</time>
      </trkpt>
      <trkpt lat="47.01232" lon="5.96753">
        <ele>675.8</ele>
        <time>2020-12-26T14:10:13Z</time>
      </trkpt>
      <trkpt lat="47.01235" lon="5.9676">
        <ele>675.8</ele>
        <time>2020-12-26T14:10:14Z</time>
      </trkpt>
      <trkpt lat="47.01238" lon="5.96767">
        <ele>675.8</ele>
        <time>2020-12-26T14:10:15Z</time>
      </trkpt>
      <trkpt lat="47.01241" lon="5.96774">
        <ele>675.8</ele>
        <time>2020-12-26T14:10:16Z</time>
      </trkpt>
      <trkpt lat="47.01245" lon="5.96781">
        <ele>675.8</ele>
        <time>2020-12-26T14:10:17Z</time>
      </trkpt>
      <trkpt lat="47.01248" lon="5.96788">
        <ele>675.8</ele>
        <time>2020-12-26T14:10:18Z</time>
      </trkpt>
      <trkpt lat="47.01251" lon="5.96795">
        <ele>675.8</ele>
        <time>2020-12-26T14:10:19Z</time>
      </trkpt>
      <trkpt lat="47.01255" lon="5.96802">
        <ele>675.6</ele>
        <time>2020-12-26T14:10:20Z</time>
      </trkpt>
      <trkpt lat="47.01258" lon="5.96809">
        <ele>675.6</ele>
        <time>2020-12-26T14:10:21Z</time>
      </trkpt>
      <trkpt lat="47.01262" lon="5.96816">
        <ele>675.6</ele>
        <time>2020-12-26T14:10:22Z</time>
      </trkpt>
      <trkpt lat="47.01265" lon="5.96823">
        <ele>675.6</ele>
        <time>2020-12-26T14:10:23Z</time>
      </trkpt>
      <trkpt lat="47.01268" lon="5.96829">
        <ele>675.4</ele>
        <time>2020-12-26T14:10:24Z</time>
      </trkpt>
      <trkpt lat="47.01271" lon="5.96836">
        <ele>675.4</ele>
        <time>2020-12-26T14:10:25Z</time>
      </trkpt>
      <trkpt lat="47.01273" lon="5.96843">
        <ele>675.4</ele>
        <time>2020-12-26T14:10:26Z</time>
      </trkpt>
      <trkpt lat="47.01276" lon="5.96849">
        <ele>675.4</ele>
        <time>2020-12-26T14:10:27Z</time>
      </trkpt>
      <trkpt lat="47.01279" lon="5.96856">
        <ele>675.4</ele>
        <time>2020-12-26T14:10:28Z</time>
      </trkpt>
      <trkpt lat="47.01282" lon="5.96862">
        <ele>675</ele>
        <time>2020-12-26T14:10:29Z</time>
      </trkpt>
      <trkpt lat="47.01284" lon="5.96869">
        <ele>675</ele>
        <time>2020-12-26T14:10:30Z</time>
      </trkpt>
      <trkpt lat="47.01287" lon="5.96875">
        <ele>675</ele>
        <time>2020-12-26T14:10:31Z</time>
      </trkpt>
      <trkpt lat="47.01289" lon="5.96881">
        <ele>674.8</ele>
        <time>2020-12-26T14:10:32Z</time>
      </trkpt>
      <trkpt lat="47.01291" lon="5.96887">
        <ele>674.8</ele>
        <time>2020-12-26T14:10:33Z</time>
      </trkpt>
      <trkpt lat="47.01292" lon="5.96894">
        <ele>674.4</ele>
        <time>2020-12-26T14:10:34Z</time>
      </trkpt>
      <trkpt lat="47.01293" lon="5.969">
        <ele>674.4</ele>
        <time>2020-12-26T14:10:35Z</time>
      </trkpt>
      <trkpt lat="47.01293" lon="5.96907">
        <ele>674.4</ele>
        <time>2020-12-26T14:10:36Z</time>
      </trkpt>
      <trkpt lat="47.01293" lon="5.96914">
        <ele>674.4</ele>
        <time>2020-12-26T14:10:37Z</time>
      </trkpt>
      <trkpt lat="47.01291" lon="5.96921">
        <ele>674.4</ele>
        <time>2020-12-26T14:10:38Z</time>
      </trkpt>
      <trkpt lat="47.0129" lon="5.96928">
        <ele>674.4</ele>
        <time>2020-12-26T14:10:39Z</time>
      </trkpt>
      <trkpt lat="47.01288" lon="5.96935">
        <ele>674.2</ele>
        <time>2020-12-26T14:10:40Z</time>
      </trkpt>
      <trkpt lat="47.01285" lon="5.96942">
        <ele>674.2</ele>
        <time>2020-12-26T14:10:41Z</time>
      </trkpt>
      <trkpt lat="47.01283" lon="5.96949">
        <ele>674.2</ele>
        <time>2020-12-26T14:10:42Z</time>
      </trkpt>
      <trkpt lat="47.01282" lon="5.96956">
        <ele>674.2</ele>
        <time>2020-12-26T14:10:43Z</time>
      </trkpt>
      <trkpt lat="47.01281" lon="5.96963">
        <ele>674.6</ele>
        <time>2020-12-26T14:10:44Z</time>
      </trkpt>
      <trkpt lat="47.01281" lon="5.96969">
        <ele>674.8</ele>
        <time>2020-12-26T14:10:45Z</time>
      </trkpt>
      <trkpt lat="47.01281" lon="5.96976">
        <ele>675.2</ele>
        <time>2020-12-26T14:10:46Z</time>
      </trkpt>
      <trkpt lat="47.01282" lon="5.96982">
        <ele>675.4</ele>
        <time>2020-12-26T14:10:47Z</time>
      </trkpt>
      <trkpt lat="47.01284" lon="5.96988">
        <ele>675.6</ele>
        <time>2020-12-26T14:10:48Z</time>
      </trkpt>
      <trkpt lat="47.01285" lon="5.96994">
        <ele>675.6</ele>
        <time>2020-12-26T14:10:49Z</time>
      </trkpt>
      <trkpt lat="47.01288" lon="5.97">
        <ele>676</ele>
        <time>2020-12-26T14:10:50Z</time>
      </trkpt>
      <trkpt lat="47.0129" lon="5.97005">
        <ele>676.4</ele>
        <time>2020-12-26T14:10:51Z</time>
      </trkpt>
      <trkpt lat="47.01293" lon="5.97009">
        <ele>676.6</ele>
        <time>2020-12-26T14:10:52Z</time>
      </trkpt>
      <trkpt lat="47.01296" lon="5.97013">
        <ele>676.6</ele>
        <time>2020-12-26T14:10:53Z</time>
      </trkpt>
      <trkpt lat="47.013" lon="5.97016">
        <ele>677</ele>
        <time>2020-12-26T14:10:54Z</time>
      </trkpt>
      <trkpt lat="47.01303" lon="5.97018">
        <ele>677</ele>
        <time>2020-12-26T14:10:55Z</time>
      </trkpt>
      <trkpt lat="47.01307" lon="5.97021">
        <ele>677.4</ele>
        <time>2020-12-26T14:10:56Z</time>
      </trkpt>
      <trkpt lat="47.01312" lon="5.97024">
        <ele>677.6</ele>
        <time>2020-12-26T14:10:57Z</time>
      </trkpt>
      <trkpt lat="47.01316" lon="5.97026">
        <ele>677.8</ele>
        <time>2020-12-26T14:10:58Z</time>
      </trkpt>
      <trkpt lat="47.01321" lon="5.97028">
        <ele>678</ele>
        <time>2020-12-26T14:10:59Z</time>
      </trkpt>
      <trkpt lat="47.01325" lon="5.9703">
        <ele>678</ele>
        <time>2020-12-26T14:11:00Z</time>
      </trkpt>
      <trkpt lat="47.0133" lon="5.97031">
        <ele>678.6</ele>
        <time>2020-12-26T14:11:01Z</time>
      </trkpt>
      <trkpt lat="47.01334" lon="5.97032">
        <ele>678.6</ele>
        <time>2020-12-26T14:11:02Z</time>
      </trkpt>
      <trkpt lat="47.01338" lon="5.97033">
        <ele>678.8</ele>
        <time>2020-12-26T14:11:03Z</time>
      </trkpt>
      <trkpt lat="47.01342" lon="5.97035">
        <ele>678.8</ele>
        <time>2020-12-26T14:11:04Z</time>
      </trkpt>
      <trkpt lat="47.01347" lon="5.97037">
        <ele>679</ele>
        <time>2020-12-26T14:11:05Z</time>
      </trkpt>
      <trkpt lat="47.01351" lon="5.97039">
        <ele>679</ele>
        <time>2020-12-26T14:11:06Z</time>
      </trkpt>
      <trkpt lat="47.01355" lon="5.97041">
        <ele>679.4</ele>
        <time>2020-12-26T14:11:07Z</time>
      </trkpt>
      <trkpt lat="47.01358" lon="5.97043">
        <ele>679.4</ele>
        <time>2020-12-26T14:11:08Z</time>
      </trkpt>
      <trkpt lat="47.01362" lon="5.97046">
        <ele>679.6</ele>
        <time>2020-12-26T14:11:09Z</time>
      </trkpt>
      <trkpt lat="47.01366" lon="5.97048">
        <ele>679.6</ele>
        <time>2020-12-26T14:11:10Z</time>
      </trkpt>
      <trkpt lat="47.01369" lon="5.97051">
        <ele>679.8</ele>
        <time>2020-12-26T14:11:11Z</time>
      </trkpt>
      <trkpt lat="47.01373" lon="5.97053">
        <ele>679.8</ele>
        <time>2020-12-26T14:11:12Z</time>
      </trkpt>
      <trkpt lat="47.01376" lon="5.97056">
        <ele>679.8</ele>
        <time>2020-12-26T14:11:13Z</time>
      </trkpt>
      <trkpt lat="47.0138" lon="5.9706">
        <ele>680.4</ele>
        <time>2020-12-26T14:11:14Z</time>
      </trkpt>
      <trkpt lat="47.01383" lon="5.97064">
        <ele>680.4</ele>
        <time>2020-12-26T14:11:15Z</time>
      </trkpt>
      <trkpt lat="47.01386" lon="5.97067">
        <ele>680.6</ele>
        <time>2020-12-26T14:11:16Z</time>
      </trkpt>
      <trkpt lat="47.01389" lon="5.97071">
        <ele>680.6</ele>
        <time>2020-12-26T14:11:17Z</time>
      </trkpt>
      <trkpt lat="47.01393" lon="5.97074">
        <ele>680.8</ele>
        <time>2020-12-26T14:11:18Z</time>
      </trkpt>
      <trkpt lat="47.01396" lon="5.97078">
        <ele>681</ele>
        <time>2020-12-26T14:11:19Z</time>
      </trkpt>
      <trkpt lat="47.01399" lon="5.97081">
        <ele>681</ele>
        <time>2020-12-26T14:11:20Z</time>
      </trkpt>
      <trkpt lat="47.01402" lon="5.97085">
        <ele>681.4</ele>
        <time>2020-12-26T14:11:21Z</time>
      </trkpt>
      <trkpt lat="47.01405" lon="5.97089">
        <ele>681.4</ele>
        <time>2020-12-26T14:11:22Z</time>
      </trkpt>
      <trkpt lat="47.01408" lon="5.97092">
        <ele>681.6</ele>
        <time>2020-12-26T14:11:23Z</time>
      </trkpt>
      <trkpt lat="47.01411" lon="5.97096">
        <ele>681.6</ele>
        <time>2020-12-26T14:11:24Z</time>
      </trkpt>
      <trkpt lat="47.01415" lon="5.971">
        <ele>681.6</ele>
        <time>2020-12-26T14:11:25Z</time>
      </trkpt>
      <trkpt lat="47.01418" lon="5.97104">
        <ele>681.8</ele>
        <time>2020-12-26T14:11:26Z</time>
      </trkpt>
      <trkpt lat="47.01421" lon="5.97108">
        <ele>681.8</ele>
        <time>2020-12-26T14:11:27Z</time>
      </trkpt>
      <trkpt lat="47.01424" lon="5.97111">
        <ele>682.2</ele>
        <time>2020-12-26T14:11:28Z</time>
      </trkpt>
      <trkpt lat="47.01428" lon="5.97115">
        <ele>682.2</ele>
        <time>2020-12-26T14:11:29Z</time>
      </trkpt>
      <trkpt lat="47.01431" lon="5.97118">
        <ele>682.4</ele>
        <time>2020-12-26T14:11:30Z</time>
      </trkpt>
      <trkpt lat="47.01434" lon="5.97122">
        <ele>682.4</ele>
        <time>2020-12-26T14:11:31Z</time>
      </trkpt>
      <trkpt lat="47.01437" lon="5.97125">
        <ele>682.4</ele>
        <time>2020-12-26T14:11:32Z</time>
      </trkpt>
      <trkpt lat="47.0144" lon="5.97129">
        <ele>682.8</ele>
        <time>2020-12-26T14:11:33Z</time>
      </trkpt>
      <trkpt lat="47.01442" lon="5.97132">
        <ele>683</ele>
        <time>2020-12-26T14:11:34Z</time>
      </trkpt>
      <trkpt lat="47.01444" lon="5.97136">
        <ele>683.2</ele>
        <time>2020-12-26T14:11:35Z</time>
      </trkpt>
      <trkpt lat="47.01447" lon="5.97139">
        <ele>683.4</ele>
        <time>2020-12-26T14:11:36Z</time>
      </trkpt>
      <trkpt lat="47.01449" lon="5.97143">
        <ele>683.4</ele>
        <time>2020-12-26T14:11:37Z</time>
      </trkpt>
      <trkpt lat="47.0145" lon="5.97147">
        <ele>683.6</ele>
        <time>2020-12-26T14:11:38Z</time>
      </trkpt>
      <trkpt lat="47.01451" lon="5.97152">
        <ele>683.6</ele>
        <time>2020-12-26T14:11:39Z</time>
      </trkpt>
      <trkpt lat="47.01452" lon="5.97156">
        <ele>684</ele>
        <time>2020-12-26T14:11:40Z</time>
      </trkpt>
      <trkpt lat="47.01452" lon="5.9716">
        <ele>684</ele>
        <time>2020-12-26T14:11:41Z</time>
      </trkpt>
      <trkpt lat="47.01452" lon="5.97164">
        <ele>684.2</ele>
        <time>2020-12-26T14:11:42Z</time>
      </trkpt>
      <trkpt lat="47.01452" lon="5.97169">
        <ele>684.2</ele>
        <time>2020-12-26T14:11:43Z</time>
      </trkpt>
      <trkpt lat="47.01451" lon="5.97174">
        <ele>684.2</ele>
        <time>2020-12-26T14:11:44Z</time>
      </trkpt>
      <trkpt lat="47.0145" lon="5.97179">
        <ele>684.2</ele>
        <time>2020-12-26T14:11:45Z</time>
      </trkpt>
      <trkpt lat="47.01449" lon="5.97184">
        <ele>684.2</ele>
        <time>2020-12-26T14:11:46Z</time>
      </trkpt>
      <trkpt lat="47.01448" lon="5.9719">
        <ele>684.2</ele>
        <time>2020-12-26T14:11:47Z</time>
      </trkpt>
      <trkpt lat="47.01445" lon="5.97194">
        <ele>683.8</ele>
        <time>2020-12-26T14:11:48Z</time>
      </trkpt>
      <trkpt lat="47.01441" lon="5.97199">
        <ele>683.8</ele>
        <time>2020-12-26T14:11:49Z</time>
      </trkpt>
      <trkpt lat="47.01437" lon="5.97203">
        <ele>683.4</ele>
        <time>2020-12-26T14:11:50Z</time>
      </trkpt>
      <trkpt lat="47.01432" lon="5.97208">
        <ele>683.4</ele>
        <time>2020-12-26T14:11:51Z</time>
      </trkpt>
      <trkpt lat="47.01427" lon="5.97213">
        <ele>683</ele>
        <time>2020-12-26T14:11:52Z</time>
      </trkpt>
      <trkpt lat="47.01422" lon="5.97217">
        <ele>682.8</ele>
        <time>2020-12-26T14:11:53Z</time>
      </trkpt>
      <trkpt lat="47.01417" lon="5.97221">
        <ele>682.4</ele>
        <time>2020-12-26T14:11:54Z</time>
      </trkpt>
      <trkpt lat="47.01411" lon="5.97226">
        <ele>682.2</ele>
        <time>2020-12-26T14:11:55Z</time>
      </trkpt>
      <trkpt lat="47.01406" lon="5.97232">
        <ele>681.8</ele>
        <time>2020-12-26T14:11:56Z</time>
      </trkpt>
      <trkpt lat="47.01401" lon="5.97238">
        <ele>681.6</ele>
        <time>2020-12-26T14:11:57Z</time>
      </trkpt>
      <trkpt lat="47.01396" lon="5.97246">
        <ele>681.2</ele>
        <time>2020-12-26T14:11:58Z</time>
      </trkpt>
      <trkpt lat="47.01392" lon="5.97254">
        <ele>680.8</ele>
        <time>2020-12-26T14:11:59Z</time>
      </trkpt>
      <trkpt lat="47.01389" lon="5.97264">
        <ele>680.6</ele>
        <time>2020-12-26T14:12:00Z</time>
      </trkpt>
      <trkpt lat="47.01387" lon="5.97274">
        <ele>680.2</ele>
        <time>2020-12-26T14:12:01Z</time>
      </trkpt>
      <trkpt lat="47.01386" lon="5.97285">
        <ele>680</ele>
        <time>2020-12-26T14:12:02Z</time>
      </trkpt>
      <trkpt lat="47.01386" lon="5.97295">
        <ele>680</ele>
        <time>2020-12-26T14:12:03Z</time>
      </trkpt>
      <trkpt lat="47.01386" lon="5.97305">
        <ele>679.8</ele>
        <time>2020-12-26T14:12:04Z</time>
      </trkpt>
      <trkpt lat="47.01387" lon="5.97316">
        <ele>679.8</ele>
        <time>2020-12-26T14:12:05Z</time>
      </trkpt>
      <trkpt lat="47.01388" lon="5.97326">
        <ele>679.8</ele>
        <time>2020-12-26T14:12:06Z</time>
      </trkpt>
      <trkpt lat="47.01389" lon="5.97334">
        <ele>679.8</ele>
        <time>2020-12-26T14:12:07Z</time>
      </trkpt>
      <trkpt lat="47.0139" lon="5.97342">
        <ele>679.8</ele>
        <time>2020-12-26T14:12:08Z</time>
      </trkpt>
      <trkpt lat="47.01391" lon="5.97348">
        <ele>680.2</ele>
        <time>2020-12-26T14:12:09Z</time>
      </trkpt>
      <trkpt lat="47.01392" lon="5.97354">
        <ele>680.4</ele>
        <time>2020-12-26T14:12:10Z</time>
      </trkpt>
      <trkpt lat="47.01391" lon="5.97359">
        <ele>680.4</ele>
        <time>2020-12-26T14:12:11Z</time>
      </trkpt>
      <trkpt lat="47.0139" lon="5.97364">
        <ele>680.6</ele>
        <time>2020-12-26T14:12:12Z</time>
      </trkpt>
      <trkpt lat="47.01389" lon="5.97367">
        <ele>680.6</ele>
        <time>2020-12-26T14:12:13Z</time>
      </trkpt>
      <trkpt lat="47.01386" lon="5.97369">
        <ele>680.8</ele>
        <time>2020-12-26T14:12:14Z</time>
      </trkpt>
      <trkpt lat="47.01383" lon="5.9737">
        <ele>680.8</ele>
        <time>2020-12-26T14:12:15Z</time>
      </trkpt>
      <trkpt lat="47.0138" lon="5.97371">
        <ele>681.2</ele>
        <time>2020-12-26T14:12:16Z</time>
      </trkpt>
      <trkpt lat="47.01378" lon="5.97371">
        <ele>681.4</ele>
        <time>2020-12-26T14:12:17Z</time>
      </trkpt>
      <trkpt lat="47.01376" lon="5.97371">
        <ele>681.4</ele>
        <time>2020-12-26T14:12:18Z</time>
      </trkpt>
      <trkpt lat="47.01373" lon="5.9737">
        <ele>681.6</ele>
        <time>2020-12-26T14:12:19Z</time>
      </trkpt>
      <trkpt lat="47.01371" lon="5.9737">
        <ele>681.6</ele>
        <time>2020-12-26T14:12:20Z</time>
      </trkpt>
      <trkpt lat="47.01369" lon="5.9737">
        <ele>682</ele>
        <time>2020-12-26T14:12:21Z</time>
      </trkpt>
      <trkpt lat="47.01365" lon="5.9737">
        <ele>682</ele>
        <time>2020-12-26T14:12:22Z</time>
      </trkpt>
      <trkpt lat="47.01362" lon="5.97371">
        <ele>682</ele>
        <time>2020-12-26T14:12:23Z</time>
      </trkpt>
      <trkpt lat="47.01358" lon="5.97371">
        <ele>682.4</ele>
        <time>2020-12-26T14:12:24Z</time>
      </trkpt>
      <trkpt lat="47.01355" lon="5.97372">
        <ele>682.4</ele>
        <time>2020-12-26T14:12:25Z</time>
      </trkpt>
      <trkpt lat="47.01351" lon="5.97373">
        <ele>682.8</ele>
        <time>2020-12-26T14:12:26Z</time>
      </trkpt>
      <trkpt lat="47.01348" lon="5.97374">
        <ele>682.8</ele>
        <time>2020-12-26T14:12:27Z</time>
      </trkpt>
      <trkpt lat="47.01345" lon="5.97374">
        <ele>683.2</ele>
        <time>2020-12-26T14:12:28Z</time>
      </trkpt>
      <trkpt lat="47.01342" lon="5.97375">
        <ele>683.4</ele>
        <time>2020-12-26T14:12:29Z</time>
      </trkpt>
      <trkpt lat="47.01339" lon="5.97376">
        <ele>683.6</ele>
        <time>2020-12-26T14:12:30Z</time>
      </trkpt>
      <trkpt lat="47.01336" lon="5.97376">
        <ele>683.8</ele>
        <time>2020-12-26T14:12:31Z</time>
      </trkpt>
      <trkpt lat="47.01333" lon="5.97377">
        <ele>683.8</ele>
        <time>2020-12-26T14:12:32Z</time>
      </trkpt>
      <trkpt lat="47.01331" lon="5.97377">
        <ele>684.2</ele>
        <time>2020-12-26T14:12:33Z</time>
      </trkpt>
      <trkpt lat="47.01328" lon="5.97378">
        <ele>684.4</ele>
        <time>2020-12-26T14:12:34Z</time>
      </trkpt>
      <trkpt lat="47.01326" lon="5.97378">
        <ele>684.4</ele>
        <time>2020-12-26T14:12:35Z</time>
      </trkpt>
      <trkpt lat="47.01323" lon="5.97378">
        <ele>684.8</ele>
        <time>2020-12-26T14:12:36Z</time>
      </trkpt>
      <trkpt lat="47.01321" lon="5.97379">
        <ele>684.8</ele>
        <time>2020-12-26T14:12:37Z</time>
      </trkpt>
      <trkpt lat="47.01318" lon="5.97379">
        <ele>685.2</ele>
        <time>2020-12-26T14:12:38Z</time>
      </trkpt>
      <trkpt lat="47.01316" lon="5.9738">
        <ele>685.2</ele>
        <time>2020-12-26T14:12:39Z</time>
      </trkpt>
      <trkpt lat="47.01313" lon="5.9738">
        <ele>685.4</ele>
        <time>2020-12-26T14:12:40Z</time>
      </trkpt>
      <trkpt lat="47.01311" lon="5.9738">
        <ele>685.6</ele>
        <time>2020-12-26T14:12:41Z</time>
      </trkpt>
      <trkpt lat="47.01308" lon="5.97381">
        <ele>685.6</ele>
        <time>2020-12-26T14:12:42Z</time>
      </trkpt>
      <trkpt lat="47.01306" lon="5.97381">
        <ele>686</ele>
        <time>2020-12-26T14:12:43Z</time>
      </trkpt>
      <trkpt lat="47.01304" lon="5.97382">
        <ele>686</ele>
        <time>2020-12-26T14:12:44Z</time>
      </trkpt>
      <trkpt lat="47.01302" lon="5.97382">
        <ele>686.2</ele>
        <time>2020-12-26T14:12:45Z</time>
      </trkpt>
      <trkpt lat="47.013" lon="5.97383">
        <ele>686.2</ele>
        <time>2020-12-26T14:12:46Z</time>
      </trkpt>
      <trkpt lat="47.01298" lon="5.97383">
        <ele>686.6</ele>
        <time>2020-12-26T14:12:47Z</time>
      </trkpt>
      <trkpt lat="47.01296" lon="5.97384">
        <ele>686.8</ele>
        <time>2020-12-26T14:12:48Z</time>
      </trkpt>
      <trkpt lat="47.01294" lon="5.97386">
        <ele>687</ele>
        <time>2020-12-26T14:12:49Z</time>
      </trkpt>
      <trkpt lat="47.01292" lon="5.97388">
        <ele>687.2</ele>
        <time>2020-12-26T14:12:50Z</time>
      </trkpt>
      <trkpt lat="47.01289" lon="5.9739">
        <ele>687.6</ele>
        <time>2020-12-26T14:12:51Z</time>
      </trkpt>
      <trkpt lat="47.01287" lon="5.97392">
        <ele>687.8</ele>
        <time>2020-12-26T14:12:52Z</time>
      </trkpt>
      <trkpt lat="47.01285" lon="5.97395">
        <ele>688.2</ele>
        <time>2020-12-26T14:12:53Z</time>
      </trkpt>
      <trkpt lat="47.01284" lon="5.97398">
        <ele>688.4</ele>
        <time>2020-12-26T14:12:54Z</time>
      </trkpt>
      <trkpt lat="47.01282" lon="5.97401">
        <ele>688.8</ele>
        <time>2020-12-26T14:12:55Z</time>
      </trkpt>
      <trkpt lat="47.01281" lon="5.97404">
        <ele>689</ele>
        <time>2020-12-26T14:12:56Z</time>
      </trkpt>
      <trkpt lat="47.0128" lon="5.97407">
        <ele>689.2</ele>
        <time>2020-12-26T14:12:57Z</time>
      </trkpt>
      <trkpt lat="47.01279" lon="5.97411">
        <ele>689.6</ele>
        <time>2020-12-26T14:12:58Z</time>
      </trkpt>
      <trkpt lat="47.01278" lon="5.97414">
        <ele>689.8</ele>
        <time>2020-12-26T14:12:59Z</time>
      </trkpt>
      <trkpt lat="47.01278" lon="5.97418">
        <ele>689.8</ele>
        <time>2020-12-26T14:13:00Z</time>
      </trkpt>
      <trkpt lat="47.01277" lon="5.97421">
        <ele>690.4</ele>
        <time>2020-12-26T14:13:01Z</time>
      </trkpt>
      <trkpt lat="47.01277" lon="5.97425">
        <ele>690.6</ele>
        <time>2020-12-26T14:13:02Z</time>
      </trkpt>
      <trkpt lat="47.01276" lon="5.97428">
        <ele>690.6</ele>
        <time>2020-12-26T14:13:03Z</time>
      </trkpt>
      <trkpt lat="47.01276" lon="5.97432">
        <ele>690.8</ele>
        <time>2020-12-26T14:13:04Z</time>
      </trkpt>
      <trkpt lat="47.01276" lon="5.97436">
        <ele>690.8</ele>
        <time>2020-12-26T14:13:05Z</time>
      </trkpt>
      <trkpt lat="47.01276" lon="5.97439">
        <ele>691</ele>
        <time>2020-12-26T14:13:06Z</time>
      </trkpt>
      <trkpt lat="47.01276" lon="5.97444">
        <ele>691</ele>
        <time>2020-12-26T14:13:07Z</time>
      </trkpt>
      <trkpt lat="47.01276" lon="5.97448">
        <ele>691.4</ele>
        <time>2020-12-26T14:13:08Z</time>
      </trkpt>
      <trkpt lat="47.01276" lon="5.97453">
        <ele>691.6</ele>
        <time>2020-12-26T14:13:09Z</time>
      </trkpt>
      <trkpt lat="47.01276" lon="5.97457">
        <ele>691.8</ele>
        <time>2020-12-26T14:13:10Z</time>
      </trkpt>
      <trkpt lat="47.01276" lon="5.97462">
        <ele>691.8</ele>
        <time>2020-12-26T14:13:11Z</time>
      </trkpt>
      <trkpt lat="47.01276" lon="5.97466">
        <ele>692.2</ele>
        <time>2020-12-26T14:13:12Z</time>
      </trkpt>
      <trkpt lat="47.01276" lon="5.9747">
        <ele>692.4</ele>
        <time>2020-12-26T14:13:13Z</time>
      </trkpt>
      <trkpt lat="47.01275" lon="5.97474">
        <ele>692.8</ele>
        <time>2020-12-26T14:13:14Z</time>
      </trkpt>
      <trkpt lat="47.01276" lon="5.97478">
        <ele>693</ele>
        <time>2020-12-26T14:13:15Z</time>
      </trkpt>
      <trkpt lat="47.01276" lon="5.97482">
        <ele>693.2</ele>
        <time>2020-12-26T14:13:16Z</time>
      </trkpt>
      <trkpt lat="47.01276" lon="5.97486">
        <ele>693.2</ele>
        <time>2020-12-26T14:13:17Z</time>
      </trkpt>
      <trkpt lat="47.01276" lon="5.9749">
        <ele>693.6</ele>
        <time>2020-12-26T14:13:18Z</time>
      </trkpt>
      <trkpt lat="47.01276" lon="5.97494">
        <ele>693.6</ele>
        <time>2020-12-26T14:13:19Z</time>
      </trkpt>
      <trkpt lat="47.01275" lon="5.97498">
        <ele>694.2</ele>
        <time>2020-12-26T14:13:20Z</time>
      </trkpt>
      <trkpt lat="47.01275" lon="5.97502">
        <ele>694.4</ele>
        <time>2020-12-26T14:13:21Z</time>
      </trkpt>
      <trkpt lat="47.01275" lon="5.97506">
        <ele>694.6</ele>
        <time>2020-12-26T14:13:22Z</time>
      </trkpt>
      <trkpt lat="47.01274" lon="5.9751">
        <ele>695</ele>
        <time>2020-12-26T14:13:23Z</time>
      </trkpt>
      <trkpt lat="47.01274" lon="5.97514">
        <ele>695.4</ele>
        <time>2020-12-26T14:13:24Z</time>
      </trkpt>
      <trkpt lat="47.01273" lon="5.97518">
        <ele>695.6</ele>
        <time>2020-12-26T14:13:25Z</time>
      </trkpt>
      <trkpt lat="47.01273" lon="5.97522">
        <ele>695.8</ele>
        <time>2020-12-26T14:13:26Z</time>
      </trkpt>
      <trkpt lat="47.01272" lon="5.97526">
        <ele>696.2</ele>
        <time>2020-12-26T14:13:27Z</time>
      </trkpt>
      <trkpt lat="47.01272" lon="5.97529">
        <ele>696.4</ele>
        <time>2020-12-26T14:13:28Z</time>
      </trkpt>
      <trkpt lat="47.01271" lon="5.97533">
        <ele>696.8</ele>
        <time>2020-12-26T14:13:29Z</time>
      </trkpt>
      <trkpt lat="47.01271" lon="5.97538">
        <ele>697</ele>
        <time>2020-12-26T14:13:30Z</time>
      </trkpt>
      <trkpt lat="47.0127" lon="5.97542">
        <ele>697.4</ele>
        <time>2020-12-26T14:13:31Z</time>
      </trkpt>
      <trkpt lat="47.0127" lon="5.97546">
        <ele>697.6</ele>
        <time>2020-12-26T14:13:32Z</time>
      </trkpt>
      <trkpt lat="47.01269" lon="5.9755">
        <ele>698</ele>
        <time>2020-12-26T14:13:33Z</time>
      </trkpt>
      <trkpt lat="47.01268" lon="5.97554">
        <ele>698.2</ele>
        <time>2020-12-26T14:13:34Z</time>
      </trkpt>
      <trkpt lat="47.01268" lon="5.97558">
        <ele>698.6</ele>
        <time>2020-12-26T14:13:35Z</time>
      </trkpt>
      <trkpt lat="47.01267" lon="5.97563">
        <ele>698.8</ele>
        <time>2020-12-26T14:13:36Z</time>
      </trkpt>
      <trkpt lat="47.01266" lon="5.97567">
        <ele>698.8</ele>
        <time>2020-12-26T14:13:37Z</time>
      </trkpt>
      <trkpt lat="47.01265" lon="5.97571">
        <ele>699.2</ele>
        <time>2020-12-26T14:13:38Z</time>
      </trkpt>
      <trkpt lat="47.01264" lon="5.97575">
        <ele>699.2</ele>
        <time>2020-12-26T14:13:39Z</time>
      </trkpt>
      <trkpt lat="47.01263" lon="5.97578">
        <ele>699.8</ele>
        <time>2020-12-26T14:13:40Z</time>
      </trkpt>
      <trkpt lat="47.01262" lon="5.97582">
        <ele>700</ele>
        <time>2020-12-26T14:13:41Z</time>
      </trkpt>
      <trkpt lat="47.0126" lon="5.97585">
        <ele>700.2</ele>
        <time>2020-12-26T14:13:42Z</time>
      </trkpt>
      <trkpt lat="47.01259" lon="5.97588">
        <ele>700.4</ele>
        <time>2020-12-26T14:13:43Z</time>
      </trkpt>
      <trkpt lat="47.01258" lon="5.97591">
        <ele>700.6</ele>
        <time>2020-12-26T14:13:44Z</time>
      </trkpt>
      <trkpt lat="47.01256" lon="5.97594">
        <ele>701</ele>
        <time>2020-12-26T14:13:45Z</time>
      </trkpt>
      <trkpt lat="47.01255" lon="5.97597">
        <ele>701.2</ele>
        <time>2020-12-26T14:13:46Z</time>
      </trkpt>
      <trkpt lat="47.01253" lon="5.976">
        <ele>701.4</ele>
        <time>2020-12-26T14:13:47Z</time>
      </trkpt>
      <trkpt lat="47.01251" lon="5.97603">
        <ele>701.6</ele>
        <time>2020-12-26T14:13:48Z</time>
      </trkpt>
      <trkpt lat="47.0125" lon="5.97607">
        <ele>702</ele>
        <time>2020-12-26T14:13:49Z</time>
      </trkpt>
      <trkpt lat="47.01249" lon="5.9761">
        <ele>702.2</ele>
        <time>2020-12-26T14:13:50Z</time>
      </trkpt>
      <trkpt lat="47.01247" lon="5.97613">
        <ele>702.6</ele>
        <time>2020-12-26T14:13:51Z</time>
      </trkpt>
      <trkpt lat="47.01246" lon="5.97616">
        <ele>702.8</ele>
        <time>2020-12-26T14:13:52Z</time>
      </trkpt>
      <trkpt lat="47.01244" lon="5.97619">
        <ele>703.2</ele>
        <time>2020-12-26T14:13:53Z</time>
      </trkpt>
      <trkpt lat="47.01243" lon="5.97622">
        <ele>703.4</ele>
        <time>2020-12-26T14:13:54Z</time>
      </trkpt>
      <trkpt lat="47.01241" lon="5.97625">
        <ele>703.4</ele>
        <time>2020-12-26T14:13:55Z</time>
      </trkpt>
      <trkpt lat="47.01239" lon="5.97628">
        <ele>703.8</ele>
        <time>2020-12-26T14:13:56Z</time>
      </trkpt>
      <trkpt lat="47.01238" lon="5.97632">
        <ele>703.8</ele>
        <time>2020-12-26T14:13:57Z</time>
      </trkpt>
      <trkpt lat="47.01236" lon="5.97635">
        <ele>704.2</ele>
        <time>2020-12-26T14:13:58Z</time>
      </trkpt>
      <trkpt lat="47.01234" lon="5.97638">
        <ele>704.6</ele>
        <time>2020-12-26T14:13:59Z</time>
      </trkpt>
      <trkpt lat="47.01232" lon="5.97641">
        <ele>704.8</ele>
        <time>2020-12-26T14:14:00Z</time>
      </trkpt>
      <trkpt lat="47.01231" lon="5.97644">
        <ele>705</ele>
        <time>2020-12-26T14:14:01Z</time>
      </trkpt>
      <trkpt lat="47.01229" lon="5.97647">
        <ele>705.4</ele>
        <time>2020-12-26T14:14:02Z</time>
      </trkpt>
      <trkpt lat="47.01229" lon="5.9765">
        <ele>705.6</ele>
        <time>2020-12-26T14:14:03Z</time>
      </trkpt>
      <trkpt lat="47.01228" lon="5.97654">
        <ele>705.8</ele>
        <time>2020-12-26T14:14:04Z</time>
      </trkpt>
      <trkpt lat="47.01228" lon="5.97658">
        <ele>706</ele>
        <time>2020-12-26T14:14:05Z</time>
      </trkpt>
      <trkpt lat="47.01228" lon="5.97663">
        <ele>706.4</ele>
        <time>2020-12-26T14:14:06Z</time>
      </trkpt>
      <trkpt lat="47.01229" lon="5.97667">
        <ele>706.6</ele>
        <time>2020-12-26T14:14:07Z</time>
      </trkpt>
      <trkpt lat="47.01229" lon="5.97672">
        <ele>706.8</ele>
        <time>2020-12-26T14:14:08Z</time>
      </trkpt>
      <trkpt lat="47.0123" lon="5.97676">
        <ele>707</ele>
        <time>2020-12-26T14:14:09Z</time>
      </trkpt>
      <trkpt lat="47.01231" lon="5.97679">
        <ele>707.2</ele>
        <time>2020-12-26T14:14:10Z</time>
      </trkpt>
      <trkpt lat="47.01232" lon="5.97683">
        <ele>707.2</ele>
        <time>2020-12-26T14:14:11Z</time>
      </trkpt>
      <trkpt lat="47.01233" lon="5.97687">
        <ele>707.6</ele>
        <time>2020-12-26T14:14:12Z</time>
      </trkpt>
      <trkpt lat="47.01234" lon="5.9769">
        <ele>707.8</ele>
        <time>2020-12-26T14:14:13Z</time>
      </trkpt>
      <trkpt lat="47.01235" lon="5.97694">
        <ele>708</ele>
        <time>2020-12-26T14:14:14Z</time>
      </trkpt>
      <trkpt lat="47.01236" lon="5.97698">
        <ele>708.4</ele>
        <time>2020-12-26T14:14:15Z</time>
      </trkpt>
      <trkpt lat="47.01237" lon="5.97702">
        <ele>708.4</ele>
        <time>2020-12-26T14:14:16Z</time>
      </trkpt>
      <trkpt lat="47.01238" lon="5.97707">
        <ele>708.6</ele>
        <time>2020-12-26T14:14:17Z</time>
      </trkpt>
      <trkpt lat="47.01238" lon="5.97711">
        <ele>709</ele>
        <time>2020-12-26T14:14:18Z</time>
      </trkpt>
      <trkpt lat="47.01239" lon="5.97716">
        <ele>709.2</ele>
        <time>2020-12-26T14:14:19Z</time>
      </trkpt>
      <trkpt lat="47.0124" lon="5.9772">
        <ele>709.4</ele>
        <time>2020-12-26T14:14:20Z</time>
      </trkpt>
      <trkpt lat="47.01241" lon="5.97724">
        <ele>709.6</ele>
        <time>2020-12-26T14:14:21Z</time>
      </trkpt>
      <trkpt lat="47.01241" lon="5.97728">
        <ele>709.6</ele>
        <time>2020-12-26T14:14:22Z</time>
      </trkpt>
      <trkpt lat="47.01241" lon="5.97732">
        <ele>710</ele>
        <time>2020-12-26T14:14:23Z</time>
      </trkpt>
      <trkpt lat="47.01242" lon="5.97737">
        <ele>710</ele>
        <time>2020-12-26T14:14:24Z</time>
      </trkpt>
      <trkpt lat="47.01242" lon="5.97742">
        <ele>710.4</ele>
        <time>2020-12-26T14:14:25Z</time>
      </trkpt>
      <trkpt lat="47.01242" lon="5.97746">
        <ele>710.6</ele>
        <time>2020-12-26T14:14:26Z</time>
      </trkpt>
      <trkpt lat="47.01242" lon="5.97751">
        <ele>710.8</ele>
        <time>2020-12-26T14:14:27Z</time>
      </trkpt>
      <trkpt lat="47.01242" lon="5.97755">
        <ele>710.8</ele>
        <time>2020-12-26T14:14:28Z</time>
      </trkpt>
      <trkpt lat="47.01242" lon="5.9776">
        <ele>711.2</ele>
        <time>2020-12-26T14:14:29Z</time>
      </trkpt>
      <trkpt lat="47.01242" lon="5.97765">
        <ele>711.2</ele>
        <time>2020-12-26T14:14:30Z</time>
      </trkpt>
      <trkpt lat="47.01242" lon="5.97769">
        <ele>711.8</ele>
        <time>2020-12-26T14:14:31Z</time>
      </trkpt>
      <trkpt lat="47.01242" lon="5.97774">
        <ele>712</ele>
        <time>2020-12-26T14:14:32Z</time>
      </trkpt>
      <trkpt lat="47.01242" lon="5.97779">
        <ele>712.2</ele>
        <time>2020-12-26T14:14:33Z</time>
      </trkpt>
      <trkpt lat="47.01242" lon="5.97783">
        <ele>712.2</ele>
        <time>2020-12-26T14:14:34Z</time>
      </trkpt>
      <trkpt lat="47.01241" lon="5.97787">
        <ele>712.6</ele>
        <time>2020-12-26T14:14:35Z</time>
      </trkpt>
      <trkpt lat="47.01241" lon="5.97791">
        <ele>712.6</ele>
        <time>2020-12-26T14:14:36Z</time>
      </trkpt>
      <trkpt lat="47.0124" lon="5.97795">
        <ele>713</ele>
        <time>2020-12-26T14:14:37Z</time>
      </trkpt>
      <trkpt lat="47.0124" lon="5.978">
        <ele>713</ele>
        <time>2020-12-26T14:14:38Z</time>
      </trkpt>
      <trkpt lat="47.0124" lon="5.97804">
        <ele>713.4</ele>
        <time>2020-12-26T14:14:39Z</time>
      </trkpt>
      <trkpt lat="47.0124" lon="5.97808">
        <ele>713.4</ele>
        <time>2020-12-26T14:14:40Z</time>
      </trkpt>
      <trkpt lat="47.0124" lon="5.97812">
        <ele>713.8</ele>
        <time>2020-12-26T14:14:41Z</time>
      </trkpt>
      <trkpt lat="47.0124" lon="5.97817">
        <ele>714</ele>
        <time>2020-12-26T14:14:42Z</time>
      </trkpt>
      <trkpt lat="47.0124" lon="5.97821">
        <ele>714.4</ele>
        <time>2020-12-26T14:14:43Z</time>
      </trkpt>
      <trkpt lat="47.01239" lon="5.97826">
        <ele>714.6</ele>
        <time>2020-12-26T14:14:44Z</time>
      </trkpt>
      <trkpt lat="47.01239" lon="5.9783">
        <ele>714.6</ele>
        <time>2020-12-26T14:14:45Z</time>
      </trkpt>
      <trkpt lat="47.01238" lon="5.97834">
        <ele>715</ele>
        <time>2020-12-26T14:14:46Z</time>
      </trkpt>
      <trkpt lat="47.01237" lon="5.97838">
        <ele>715.2</ele>
        <time>2020-12-26T14:14:47Z</time>
      </trkpt>
      <trkpt lat="47.01235" lon="5.97842">
        <ele>715.6</ele>
        <time>2020-12-26T14:14:48Z</time>
      </trkpt>
      <trkpt lat="47.01233" lon="5.97845">
        <ele>715.8</ele>
        <time>2020-12-26T14:14:49Z</time>
      </trkpt>
      <trkpt lat="47.01231" lon="5.97847">
        <ele>716</ele>
        <time>2020-12-26T14:14:50Z</time>
      </trkpt>
      <trkpt lat="47.0123" lon="5.9785">
        <ele>716.4</ele>
        <time>2020-12-26T14:14:51Z</time>
      </trkpt>
      <trkpt lat="47.01227" lon="5.97853">
        <ele>716.6</ele>
        <time>2020-12-26T14:14:52Z</time>
      </trkpt>
      <trkpt lat="47.01225" lon="5.97855">
        <ele>717</ele>
        <time>2020-12-26T14:14:53Z</time>
      </trkpt>
      <trkpt lat="47.01222" lon="5.97856">
        <ele>717.2</ele>
        <time>2020-12-26T14:14:54Z</time>
      </trkpt>
      <trkpt lat="47.01219" lon="5.97857">
        <ele>717.4</ele>
        <time>2020-12-26T14:14:55Z</time>
      </trkpt>
      <trkpt lat="47.01216" lon="5.97857">
        <ele>717.8</ele>
        <time>2020-12-26T14:14:56Z</time>
      </trkpt>
      <trkpt lat="47.01214" lon="5.97857">
        <ele>718</ele>
        <time>2020-12-26T14:14:57Z</time>
      </trkpt>
      <trkpt lat="47.01211" lon="5.97857">
        <ele>718.2</ele>
        <time>2020-12-26T14:14:58Z</time>
      </trkpt>
      <trkpt lat="47.01209" lon="5.97858">
        <ele>718.6</ele>
        <time>2020-12-26T14:14:59Z</time>
      </trkpt>
      <trkpt lat="47.01206" lon="5.97858">
        <ele>718.8</ele>
        <time>2020-12-26T14:15:00Z</time>
      </trkpt>
      <trkpt lat="47.01203" lon="5.97858">
        <ele>719</ele>
        <time>2020-12-26T14:15:01Z</time>
      </trkpt>
      <trkpt lat="47.01201" lon="5.97858">
        <ele>719.2</ele>
        <time>2020-12-26T14:15:02Z</time>
      </trkpt>
      <trkpt lat="47.01198" lon="5.97857">
        <ele>719.4</ele>
        <time>2020-12-26T14:15:03Z</time>
      </trkpt>
      <trkpt lat="47.01196" lon="5.97857">
        <ele>719.4</ele>
        <time>2020-12-26T14:15:04Z</time>
      </trkpt>
      <trkpt lat="47.01194" lon="5.97857">
        <ele>719.8</ele>
        <time>2020-12-26T14:15:05Z</time>
      </trkpt>
      <trkpt lat="47.01191" lon="5.97857">
        <ele>720.2</ele>
        <time>2020-12-26T14:15:06Z</time>
      </trkpt>
      <trkpt lat="47.01189" lon="5.97857">
        <ele>720.4</ele>
        <time>2020-12-26T14:15:07Z</time>
      </trkpt>
      <trkpt lat="47.01187" lon="5.97857">
        <ele>720.6</ele>
        <time>2020-12-26T14:15:08Z</time>
      </trkpt>
      <trkpt lat="47.01185" lon="5.97857">
        <ele>720.6</ele>
        <time>2020-12-26T14:15:09Z</time>
      </trkpt>
      <trkpt lat="47.01183" lon="5.97857">
        <ele>721</ele>
        <time>2020-12-26T14:15:10Z</time>
      </trkpt>
      <trkpt lat="47.01181" lon="5.97856">
        <ele>721</ele>
        <time>2020-12-26T14:15:11Z</time>
      </trkpt>
      <trkpt lat="47.01178" lon="5.97855">
        <ele>721.4</ele>
        <time>2020-12-26T14:15:12Z</time>
      </trkpt>
      <trkpt lat="47.01175" lon="5.97854">
        <ele>721.4</ele>
        <time>2020-12-26T14:15:13Z</time>
      </trkpt>
      <trkpt lat="47.01173" lon="5.97854">
        <ele>721.8</ele>
        <time>2020-12-26T14:15:14Z</time>
      </trkpt>
      <trkpt lat="47.0117" lon="5.97853">
        <ele>722</ele>
        <time>2020-12-26T14:15:15Z</time>
      </trkpt>
      <trkpt lat="47.01168" lon="5.97853">
        <ele>722.2</ele>
        <time>2020-12-26T14:15:16Z</time>
      </trkpt>
      <trkpt lat="47.01165" lon="5.97853">
        <ele>722.4</ele>
        <time>2020-12-26T14:15:17Z</time>
      </trkpt>
      <trkpt lat="47.01162" lon="5.97853">
        <ele>722.8</ele>
        <time>2020-12-26T14:15:18Z</time>
      </trkpt>
      <trkpt lat="47.0116" lon="5.97852">
        <ele>723</ele>
        <time>2020-12-26T14:15:19Z</time>
      </trkpt>
      <trkpt lat="47.01157" lon="5.97852">
        <ele>723</ele>
        <time>2020-12-26T14:15:20Z</time>
      </trkpt>
      <trkpt lat="47.01155" lon="5.97851">
        <ele>723.4</ele>
        <time>2020-12-26T14:15:21Z</time>
      </trkpt>
      <trkpt lat="47.01152" lon="5.97851">
        <ele>723.6</ele>
        <time>2020-12-26T14:15:22Z</time>
      </trkpt>
      <trkpt lat="47.01149" lon="5.97851">
        <ele>723.6</ele>
        <time>2020-12-26T14:15:23Z</time>
      </trkpt>
      <trkpt lat="47.01147" lon="5.97852">
        <ele>723.8</ele>
        <time>2020-12-26T14:15:24Z</time>
      </trkpt>
      <trkpt lat="47.01144" lon="5.97853">
        <ele>724.2</ele>
        <time>2020-12-26T14:15:25Z</time>
      </trkpt>
      <trkpt lat="47.01142" lon="5.97853">
        <ele>724.4</ele>
        <time>2020-12-26T14:15:26Z</time>
      </trkpt>
      <trkpt lat="47.01139" lon="5.97854">
        <ele>724.6</ele>
        <time>2020-12-26T14:15:27Z</time>
      </trkpt>
      <trkpt lat="47.01136" lon="5.97854">
        <ele>724.8</ele>
        <time>2020-12-26T14:15:28Z</time>
      </trkpt>
      <trkpt lat="47.01133" lon="5.97854">
        <ele>725</ele>
        <time>2020-12-26T14:15:29Z</time>
      </trkpt>
      <trkpt lat="47.01131" lon="5.97854">
        <ele>725</ele>
        <time>2020-12-26T14:15:30Z</time>
      </trkpt>
      <trkpt lat="47.01128" lon="5.97854">
        <ele>725.4</ele>
        <time>2020-12-26T14:15:31Z</time>
      </trkpt>
      <trkpt lat="47.01125" lon="5.97856">
        <ele>725.4</ele>
        <time>2020-12-26T14:15:32Z</time>
      </trkpt>
      <trkpt lat="47.01122" lon="5.97857">
        <ele>725.6</ele>
        <time>2020-12-26T14:15:33Z</time>
      </trkpt>
      <trkpt lat="47.01119" lon="5.97857">
        <ele>725.6</ele>
        <time>2020-12-26T14:15:34Z</time>
      </trkpt>
      <trkpt lat="47.01116" lon="5.97858">
        <ele>726</ele>
        <time>2020-12-26T14:15:35Z</time>
      </trkpt>
      <trkpt lat="47.01114" lon="5.97858">
        <ele>726.2</ele>
        <time>2020-12-26T14:15:36Z</time>
      </trkpt>
      <trkpt lat="47.0111" lon="5.97859">
        <ele>726.2</ele>
        <time>2020-12-26T14:15:37Z</time>
      </trkpt>
      <trkpt lat="47.01107" lon="5.97859">
        <ele>726.6</ele>
        <time>2020-12-26T14:15:38Z</time>
      </trkpt>
      <trkpt lat="47.01104" lon="5.9786">
        <ele>727</ele>
        <time>2020-12-26T14:15:39Z</time>
      </trkpt>
      <trkpt lat="47.01101" lon="5.9786">
        <ele>727.4</ele>
        <time>2020-12-26T14:15:40Z</time>
      </trkpt>
      <trkpt lat="47.01098" lon="5.9786">
        <ele>727.8</ele>
        <time>2020-12-26T14:15:41Z</time>
      </trkpt>
      <trkpt lat="47.01095" lon="5.9786">
        <ele>728</ele>
        <time>2020-12-26T14:15:42Z</time>
      </trkpt>
      <trkpt lat="47.01092" lon="5.9786">
        <ele>728.4</ele>
        <time>2020-12-26T14:15:43Z</time>
      </trkpt>
      <trkpt lat="47.01089" lon="5.9786">
        <ele>728.6</ele>
        <time>2020-12-26T14:15:44Z</time>
      </trkpt>
      <trkpt lat="47.01086" lon="5.97861">
        <ele>728.6</ele>
        <time>2020-12-26T14:15:45Z</time>
      </trkpt>
      <trkpt lat="47.01083" lon="5.97861">
        <ele>729</ele>
        <time>2020-12-26T14:15:46Z</time>
      </trkpt>
      <trkpt lat="47.0108" lon="5.97862">
        <ele>729.2</ele>
        <time>2020-12-26T14:15:47Z</time>
      </trkpt>
      <trkpt lat="47.01077" lon="5.97863">
        <ele>729.2</ele>
        <time>2020-12-26T14:15:48Z</time>
      </trkpt>
      <trkpt lat="47.01074" lon="5.97863">
        <ele>729.6</ele>
        <time>2020-12-26T14:15:49Z</time>
      </trkpt>
      <trkpt lat="47.01071" lon="5.97864">
        <ele>729.8</ele>
        <time>2020-12-26T14:15:50Z</time>
      </trkpt>
      <trkpt lat="47.01068" lon="5.97865">
        <ele>730</ele>
        <time>2020-12-26T14:15:51Z</time>
      </trkpt>
      <trkpt lat="47.01065" lon="5.97868">
        <ele>730.2</ele>
        <time>2020-12-26T14:15:52Z</time>
      </trkpt>
      <trkpt lat="47.01061" lon="5.97869">
        <ele>730.6</ele>
        <time>2020-12-26T14:15:53Z</time>
      </trkpt>
      <trkpt lat="47.01057" lon="5.97869">
        <ele>730.8</ele>
        <time>2020-12-26T14:15:54Z</time>
      </trkpt>
      <trkpt lat="47.01054" lon="5.97871">
        <ele>731</ele>
        <time>2020-12-26T14:15:55Z</time>
      </trkpt>
      <trkpt lat="47.01051" lon="5.97872">
        <ele>731.4</ele>
        <time>2020-12-26T14:15:56Z</time>
      </trkpt>
      <trkpt lat="47.01049" lon="5.97872">
        <ele>731.6</ele>
        <time>2020-12-26T14:15:57Z</time>
      </trkpt>
      <trkpt lat="47.01046" lon="5.97873">
        <ele>731.8</ele>
        <time>2020-12-26T14:15:58Z</time>
      </trkpt>
      <trkpt lat="47.01044" lon="5.97873">
        <ele>731.8</ele>
        <time>2020-12-26T14:15:59Z</time>
      </trkpt>
      <trkpt lat="47.01041" lon="5.97874">
        <ele>732.2</ele>
        <time>2020-12-26T14:16:00Z</time>
      </trkpt>
      <trkpt lat="47.01038" lon="5.97875">
        <ele>732.6</ele>
        <time>2020-12-26T14:16:01Z</time>
      </trkpt>
      <trkpt lat="47.01036" lon="5.97876">
        <ele>732.6</ele>
        <time>2020-12-26T14:16:02Z</time>
      </trkpt>
      <trkpt lat="47.01033" lon="5.97876">
        <ele>732.8</ele>
        <time>2020-12-26T14:16:03Z</time>
      </trkpt>
      <trkpt lat="47.01031" lon="5.97877">
        <ele>733</ele>
        <time>2020-12-26T14:16:04Z</time>
      </trkpt>
      <trkpt lat="47.01028" lon="5.97878">
        <ele>733.4</ele>
        <time>2020-12-26T14:16:05Z</time>
      </trkpt>
      <trkpt lat="47.01026" lon="5.97879">
        <ele>733.6</ele>
        <time>2020-12-26T14:16:06Z</time>
      </trkpt>
      <trkpt lat="47.01023" lon="5.9788">
        <ele>733.8</ele>
        <time>2020-12-26T14:16:07Z</time>
      </trkpt>
      <trkpt lat="47.0102" lon="5.97881">
        <ele>734</ele>
        <time>2020-12-26T14:16:08Z</time>
      </trkpt>
      <trkpt lat="47.01018" lon="5.97881">
        <ele>734.4</ele>
        <time>2020-12-26T14:16:09Z</time>
      </trkpt>
      <trkpt lat="47.01013" lon="5.97881">
        <ele>734.6</ele>
        <time>2020-12-26T14:16:10Z</time>
      </trkpt>
      <trkpt lat="47.0101" lon="5.97882">
        <ele>734.8</ele>
        <time>2020-12-26T14:16:11Z</time>
      </trkpt>
      <trkpt lat="47.01008" lon="5.97883">
        <ele>735.2</ele>
        <time>2020-12-26T14:16:12Z</time>
      </trkpt>
      <trkpt lat="47.01004" lon="5.97883">
        <ele>735.4</ele>
        <time>2020-12-26T14:16:13Z</time>
      </trkpt>
      <trkpt lat="47.01" lon="5.97882">
        <ele>735.4</ele>
        <time>2020-12-26T14:16:14Z</time>
      </trkpt>
      <trkpt lat="47.00997" lon="5.97882">
        <ele>735.8</ele>
        <time>2020-12-26T14:16:15Z</time>
      </trkpt>
      <trkpt lat="47.00994" lon="5.97882">
        <ele>736.2</ele>
        <time>2020-12-26T14:16:16Z</time>
      </trkpt>
      <trkpt lat="47.00992" lon="5.97882">
        <ele>736.4</ele>
        <time>2020-12-26T14:16:17Z</time>
      </trkpt>
      <trkpt lat="47.00988" lon="5.97882">
        <ele>736.4</ele>
        <time>2020-12-26T14:16:18Z</time>
      </trkpt>
      <trkpt lat="47.00986" lon="5.97883">
        <ele>736.8</ele>
        <time>2020-12-26T14:16:19Z</time>
      </trkpt>
      <trkpt lat="47.00983" lon="5.97884">
        <ele>736.8</ele>
        <time>2020-12-26T14:16:20Z</time>
      </trkpt>
      <trkpt lat="47.00981" lon="5.97884">
        <ele>736.8</ele>
        <time>2020-12-26T14:16:21Z</time>
      </trkpt>
      <trkpt lat="47.00978" lon="5.97884">
        <ele>737</ele>
        <time>2020-12-26T14:16:22Z</time>
      </trkpt>
      <trkpt lat="47.00975" lon="5.97884">
        <ele>737</ele>
        <time>2020-12-26T14:16:23Z</time>
      </trkpt>
      <trkpt lat="47.00972" lon="5.97885">
        <ele>737.2</ele>
        <time>2020-12-26T14:16:24Z</time>
      </trkpt>
      <trkpt lat="47.00968" lon="5.97885">
        <ele>737.2</ele>
        <time>2020-12-26T14:16:25Z</time>
      </trkpt>
      <trkpt lat="47.00966" lon="5.97885">
        <ele>737.2</ele>
        <time>2020-12-26T14:16:26Z</time>
      </trkpt>
      <trkpt lat="47.00961" lon="5.97885">
        <ele>737.2</ele>
        <time>2020-12-26T14:16:27Z</time>
      </trkpt>
      <trkpt lat="47.00958" lon="5.97885">
        <ele>737.2</ele>
        <time>2020-12-26T14:16:28Z</time>
      </trkpt>
      <trkpt lat="47.00955" lon="5.97885">
        <ele>737.6</ele>
        <time>2020-12-26T14:16:29Z</time>
      </trkpt>
      <trkpt lat="47.00951" lon="5.97884">
        <ele>737.6</ele>
        <time>2020-12-26T14:16:30Z</time>
      </trkpt>
      <trkpt lat="47.00947" lon="5.97885">
        <ele>737.6</ele>
        <time>2020-12-26T14:16:31Z</time>
      </trkpt>
      <trkpt lat="47.00943" lon="5.97884">
        <ele>737.6</ele>
        <time>2020-12-26T14:16:32Z</time>
      </trkpt>
      <trkpt lat="47.00939" lon="5.97884">
        <ele>737.6</ele>
        <time>2020-12-26T14:16:33Z</time>
      </trkpt>
      <trkpt lat="47.00935" lon="5.97883">
        <ele>737.6</ele>
        <time>2020-12-26T14:16:34Z</time>
      </trkpt>
      <trkpt lat="47.00931" lon="5.97883">
        <ele>737.6</ele>
        <time>2020-12-26T14:16:35Z</time>
      </trkpt>
      <trkpt lat="47.00926" lon="5.97882">
        <ele>737.8</ele>
        <time>2020-12-26T14:16:36Z</time>
      </trkpt>
      <trkpt lat="47.00922" lon="5.97881">
        <ele>737.8</ele>
        <time>2020-12-26T14:16:37Z</time>
      </trkpt>
      <trkpt lat="47.00918" lon="5.9788">
        <ele>737.8</ele>
        <time>2020-12-26T14:16:38Z</time>
      </trkpt>
      <trkpt lat="47.00913" lon="5.9788">
        <ele>737.8</ele>
        <time>2020-12-26T14:16:39Z</time>
      </trkpt>
      <trkpt lat="47.00909" lon="5.9788">
        <ele>737.8</ele>
        <time>2020-12-26T14:16:40Z</time>
      </trkpt>
      <trkpt lat="47.00905" lon="5.9788">
        <ele>738.2</ele>
        <time>2020-12-26T14:16:41Z</time>
      </trkpt>
      <trkpt lat="47.00901" lon="5.97879">
        <ele>738.2</ele>
        <time>2020-12-26T14:16:42Z</time>
      </trkpt>
      <trkpt lat="47.00897" lon="5.97879">
        <ele>738.2</ele>
        <time>2020-12-26T14:16:43Z</time>
      </trkpt>
      <trkpt lat="47.00892" lon="5.9788">
        <ele>738.2</ele>
        <time>2020-12-26T14:16:44Z</time>
      </trkpt>
      <trkpt lat="47.00888" lon="5.9788">
        <ele>738.2</ele>
        <time>2020-12-26T14:16:45Z</time>
      </trkpt>
      <trkpt lat="47.00882" lon="5.9788">
        <ele>737.8</ele>
        <time>2020-12-26T14:16:46Z</time>
      </trkpt>
      <trkpt lat="47.00877" lon="5.97879">
        <ele>737.8</ele>
        <time>2020-12-26T14:16:47Z</time>
      </trkpt>
      <trkpt lat="47.00872" lon="5.97879">
        <ele>737.8</ele>
        <time>2020-12-26T14:16:48Z</time>
      </trkpt>
      <trkpt lat="47.00867" lon="5.97879">
        <ele>737.8</ele>
        <time>2020-12-26T14:16:49Z</time>
      </trkpt>
      <trkpt lat="47.00862" lon="5.97879">
        <ele>737.6</ele>
        <time>2020-12-26T14:16:50Z</time>
      </trkpt>
      <trkpt lat="47.00857" lon="5.97879">
        <ele>737.6</ele>
        <time>2020-12-26T14:16:51Z</time>
      </trkpt>
      <trkpt lat="47.00852" lon="5.97879">
        <ele>737.6</ele>
        <time>2020-12-26T14:16:52Z</time>
      </trkpt>
      <trkpt lat="47.00848" lon="5.97879">
        <ele>737.6</ele>
        <time>2020-12-26T14:16:53Z</time>
      </trkpt>
      <trkpt lat="47.00843" lon="5.97879">
        <ele>737.6</ele>
        <time>2020-12-26T14:16:54Z</time>
      </trkpt>
      <trkpt lat="47.00839" lon="5.97878">
        <ele>738</ele>
        <time>2020-12-26T14:16:55Z</time>
      </trkpt>
      <trkpt lat="47.00835" lon="5.97878">
        <ele>738</ele>
        <time>2020-12-26T14:16:56Z</time>
      </trkpt>
      <trkpt lat="47.00831" lon="5.97878">
        <ele>738.2</ele>
        <time>2020-12-26T14:16:57Z</time>
      </trkpt>
      <trkpt lat="47.00826" lon="5.97878">
        <ele>738.4</ele>
        <time>2020-12-26T14:16:58Z</time>
      </trkpt>
      <trkpt lat="47.0082" lon="5.97877">
        <ele>738.4</ele>
        <time>2020-12-26T14:16:59Z</time>
      </trkpt>
      <trkpt lat="47.00816" lon="5.97876">
        <ele>738.8</ele>
        <time>2020-12-26T14:17:00Z</time>
      </trkpt>
      <trkpt lat="47.00812" lon="5.97875">
        <ele>738.8</ele>
        <time>2020-12-26T14:17:01Z</time>
      </trkpt>
      <trkpt lat="47.00808" lon="5.97874">
        <ele>739.2</ele>
        <time>2020-12-26T14:17:02Z</time>
      </trkpt>
      <trkpt lat="47.00804" lon="5.97873">
        <ele>739.4</ele>
        <time>2020-12-26T14:17:03Z</time>
      </trkpt>
      <trkpt lat="47.008" lon="5.97872">
        <ele>739.4</ele>
        <time>2020-12-26T14:17:04Z</time>
      </trkpt>
      <trkpt lat="47.00796" lon="5.9787">
        <ele>739.8</ele>
        <time>2020-12-26T14:17:05Z</time>
      </trkpt>
      <trkpt lat="47.00793" lon="5.97869">
        <ele>739.8</ele>
        <time>2020-12-26T14:17:06Z</time>
      </trkpt>
      <trkpt lat="47.0079" lon="5.97868">
        <ele>740.2</ele>
        <time>2020-12-26T14:17:07Z</time>
      </trkpt>
      <trkpt lat="47.00786" lon="5.97867">
        <ele>740.2</ele>
        <time>2020-12-26T14:17:08Z</time>
      </trkpt>
      <trkpt lat="47.00782" lon="5.97865">
        <ele>740.6</ele>
        <time>2020-12-26T14:17:09Z</time>
      </trkpt>
      <trkpt lat="47.00779" lon="5.97864">
        <ele>740.8</ele>
        <time>2020-12-26T14:17:10Z</time>
      </trkpt>
      <trkpt lat="47.00776" lon="5.97863">
        <ele>740.8</ele>
        <time>2020-12-26T14:17:11Z</time>
      </trkpt>
      <trkpt lat="47.00772" lon="5.97861">
        <ele>741.2</ele>
        <time>2020-12-26T14:17:12Z</time>
      </trkpt>
      <trkpt lat="47.00769" lon="5.9786">
        <ele>741.2</ele>
        <time>2020-12-26T14:17:13Z</time>
      </trkpt>
      <trkpt lat="47.00765" lon="5.97859">
        <ele>741.4</ele>
        <time>2020-12-26T14:17:14Z</time>
      </trkpt>
      <trkpt lat="47.00761" lon="5.97858">
        <ele>741.4</ele>
        <time>2020-12-26T14:17:15Z</time>
      </trkpt>
      <trkpt lat="47.00758" lon="5.97856">
        <ele>741.8</ele>
        <time>2020-12-26T14:17:16Z</time>
      </trkpt>
      <trkpt lat="47.00754" lon="5.97855">
        <ele>741.8</ele>
        <time>2020-12-26T14:17:17Z</time>
      </trkpt>
      <trkpt lat="47.0075" lon="5.97854">
        <ele>742.2</ele>
        <time>2020-12-26T14:17:18Z</time>
      </trkpt>
      <trkpt lat="47.00747" lon="5.97852">
        <ele>742.2</ele>
        <time>2020-12-26T14:17:19Z</time>
      </trkpt>
      <trkpt lat="47.00743" lon="5.9785">
        <ele>742.4</ele>
        <time>2020-12-26T14:17:20Z</time>
      </trkpt>
      <trkpt lat="47.0074" lon="5.97849">
        <ele>742.4</ele>
        <time>2020-12-26T14:17:21Z</time>
      </trkpt>
      <trkpt lat="47.00737" lon="5.97848">
        <ele>742.8</ele>
        <time>2020-12-26T14:17:22Z</time>
      </trkpt>
      <trkpt lat="47.00734" lon="5.97847">
        <ele>743</ele>
        <time>2020-12-26T14:17:23Z</time>
      </trkpt>
      <trkpt lat="47.00731" lon="5.97845">
        <ele>743</ele>
        <time>2020-12-26T14:17:24Z</time>
      </trkpt>
      <trkpt lat="47.00728" lon="5.97844">
        <ele>743.4</ele>
        <time>2020-12-26T14:17:25Z</time>
      </trkpt>
      <trkpt lat="47.00724" lon="5.97843">
        <ele>743.4</ele>
        <time>2020-12-26T14:17:26Z</time>
      </trkpt>
      <trkpt lat="47.00721" lon="5.97842">
        <ele>743.6</ele>
        <time>2020-12-26T14:17:27Z</time>
      </trkpt>
      <trkpt lat="47.00718" lon="5.9784">
        <ele>743.6</ele>
        <time>2020-12-26T14:17:28Z</time>
      </trkpt>
      <trkpt lat="47.00715" lon="5.97839">
        <ele>744</ele>
        <time>2020-12-26T14:17:29Z</time>
      </trkpt>
      <trkpt lat="47.00711" lon="5.97837">
        <ele>744</ele>
        <time>2020-12-26T14:17:30Z</time>
      </trkpt>
      <trkpt lat="47.00708" lon="5.97836">
        <ele>744.2</ele>
        <time>2020-12-26T14:17:31Z</time>
      </trkpt>
      <trkpt lat="47.00706" lon="5.97836">
        <ele>744.2</ele>
        <time>2020-12-26T14:17:32Z</time>
      </trkpt>
      <trkpt lat="47.00703" lon="5.97835">
        <ele>744.6</ele>
        <time>2020-12-26T14:17:33Z</time>
      </trkpt>
      <trkpt lat="47.00701" lon="5.97834">
        <ele>744.6</ele>
        <time>2020-12-26T14:17:34Z</time>
      </trkpt>
      <trkpt lat="47.00698" lon="5.97833">
        <ele>744.8</ele>
        <time>2020-12-26T14:17:35Z</time>
      </trkpt>
      <trkpt lat="47.00695" lon="5.97832">
        <ele>745.2</ele>
        <time>2020-12-26T14:17:36Z</time>
      </trkpt>
      <trkpt lat="47.00693" lon="5.97832">
        <ele>745.4</ele>
        <time>2020-12-26T14:17:37Z</time>
      </trkpt>
      <trkpt lat="47.00691" lon="5.97831">
        <ele>745.6</ele>
        <time>2020-12-26T14:17:38Z</time>
      </trkpt>
      <trkpt lat="47.00688" lon="5.9783">
        <ele>745.6</ele>
        <time>2020-12-26T14:17:39Z</time>
      </trkpt>
      <trkpt lat="47.00685" lon="5.97829">
        <ele>746</ele>
        <time>2020-12-26T14:17:40Z</time>
      </trkpt>
      <trkpt lat="47.00682" lon="5.97828">
        <ele>746.2</ele>
        <time>2020-12-26T14:17:41Z</time>
      </trkpt>
      <trkpt lat="47.00679" lon="5.97828">
        <ele>746.6</ele>
        <time>2020-12-26T14:17:42Z</time>
      </trkpt>
      <trkpt lat="47.00677" lon="5.97827">
        <ele>746.8</ele>
        <time>2020-12-26T14:17:43Z</time>
      </trkpt>
      <trkpt lat="47.00674" lon="5.97826">
        <ele>747</ele>
        <time>2020-12-26T14:17:44Z</time>
      </trkpt>
      <trkpt lat="47.00671" lon="5.97825">
        <ele>747.2</ele>
        <time>2020-12-26T14:17:45Z</time>
      </trkpt>
      <trkpt lat="47.00668" lon="5.97824">
        <ele>747.4</ele>
        <time>2020-12-26T14:17:46Z</time>
      </trkpt>
      <trkpt lat="47.00666" lon="5.97824">
        <ele>747.4</ele>
        <time>2020-12-26T14:17:47Z</time>
      </trkpt>
      <trkpt lat="47.00663" lon="5.97823">
        <ele>747.8</ele>
        <time>2020-12-26T14:17:48Z</time>
      </trkpt>
      <trkpt lat="47.00661" lon="5.97823">
        <ele>747.8</ele>
        <time>2020-12-26T14:17:49Z</time>
      </trkpt>
      <trkpt lat="47.00658" lon="5.97823">
        <ele>748.2</ele>
        <time>2020-12-26T14:17:50Z</time>
      </trkpt>
      <trkpt lat="47.00656" lon="5.97823">
        <ele>748.2</ele>
        <time>2020-12-26T14:17:51Z</time>
      </trkpt>
      <trkpt lat="47.00654" lon="5.97822">
        <ele>748.6</ele>
        <time>2020-12-26T14:17:52Z</time>
      </trkpt>
      <trkpt lat="47.00651" lon="5.97822">
        <ele>748.8</ele>
        <time>2020-12-26T14:17:53Z</time>
      </trkpt>
      <trkpt lat="47.00648" lon="5.97822">
        <ele>748.8</ele>
        <time>2020-12-26T14:17:54Z</time>
      </trkpt>
      <trkpt lat="47.00645" lon="5.97822">
        <ele>749.2</ele>
        <time>2020-12-26T14:17:55Z</time>
      </trkpt>
      <trkpt lat="47.00641" lon="5.97821">
        <ele>749.4</ele>
        <time>2020-12-26T14:17:56Z</time>
      </trkpt>
      <trkpt lat="47.00637" lon="5.97819">
        <ele>749.6</ele>
        <time>2020-12-26T14:17:57Z</time>
      </trkpt>
      <trkpt lat="47.00632" lon="5.97818">
        <ele>749.8</ele>
        <time>2020-12-26T14:17:58Z</time>
      </trkpt>
      <trkpt lat="47.00629" lon="5.97818">
        <ele>750</ele>
        <time>2020-12-26T14:17:59Z</time>
      </trkpt>
      <trkpt lat="47.00624" lon="5.97817">
        <ele>750.4</ele>
        <time>2020-12-26T14:18:00Z</time>
      </trkpt>
      <trkpt lat="47.0062" lon="5.97817">
        <ele>750.4</ele>
        <time>2020-12-26T14:18:01Z</time>
      </trkpt>
      <trkpt lat="47.00616" lon="5.97817">
        <ele>750.8</ele>
        <time>2020-12-26T14:18:02Z</time>
      </trkpt>
      <trkpt lat="47.00613" lon="5.97816">
        <ele>750.8</ele>
        <time>2020-12-26T14:18:03Z</time>
      </trkpt>
      <trkpt lat="47.00609" lon="5.97815">
        <ele>751</ele>
        <time>2020-12-26T14:18:04Z</time>
      </trkpt>
      <trkpt lat="47.00605" lon="5.97814">
        <ele>751</ele>
        <time>2020-12-26T14:18:05Z</time>
      </trkpt>
      <trkpt lat="47.00602" lon="5.97813">
        <ele>751.4</ele>
        <time>2020-12-26T14:18:06Z</time>
      </trkpt>
      <trkpt lat="47.00598" lon="5.97812">
        <ele>751.4</ele>
        <time>2020-12-26T14:18:07Z</time>
      </trkpt>
      <trkpt lat="47.00594" lon="5.97812">
        <ele>751.6</ele>
        <time>2020-12-26T14:18:08Z</time>
      </trkpt>
      <trkpt lat="47.00591" lon="5.97811">
        <ele>751.6</ele>
        <time>2020-12-26T14:18:09Z</time>
      </trkpt>
      <trkpt lat="47.00587" lon="5.97811">
        <ele>751.8</ele>
        <time>2020-12-26T14:18:10Z</time>
      </trkpt>
      <trkpt lat="47.00583" lon="5.9781">
        <ele>751.8</ele>
        <time>2020-12-26T14:18:11Z</time>
      </trkpt>
      <trkpt lat="47.0058" lon="5.97809">
        <ele>752</ele>
        <time>2020-12-26T14:18:12Z</time>
      </trkpt>
      <trkpt lat="47.00576" lon="5.97808">
        <ele>752</ele>
        <time>2020-12-26T14:18:13Z</time>
      </trkpt>
      <trkpt lat="47.00573" lon="5.97808">
        <ele>752.4</ele>
        <time>2020-12-26T14:18:14Z</time>
      </trkpt>
      <trkpt lat="47.00569" lon="5.97807">
        <ele>752.4</ele>
        <time>2020-12-26T14:18:15Z</time>
      </trkpt>
      <trkpt lat="47.00565" lon="5.97806">
        <ele>752.4</ele>
        <time>2020-12-26T14:18:16Z</time>
      </trkpt>
      <trkpt lat="47.00562" lon="5.97805">
        <ele>752.6</ele>
        <time>2020-12-26T14:18:17Z</time>
      </trkpt>
      <trkpt lat="47.00557" lon="5.97804">
        <ele>752.6</ele>
        <time>2020-12-26T14:18:18Z</time>
      </trkpt>
      <trkpt lat="47.00554" lon="5.97803">
        <ele>752.8</ele>
        <time>2020-12-26T14:18:19Z</time>
      </trkpt>
      <trkpt lat="47.0055" lon="5.97803">
        <ele>752.8</ele>
        <time>2020-12-26T14:18:20Z</time>
      </trkpt>
      <trkpt lat="47.00546" lon="5.97802">
        <ele>752.8</ele>
        <time>2020-12-26T14:18:21Z</time>
      </trkpt>
      <trkpt lat="47.00542" lon="5.97802">
        <ele>752.8</ele>
        <time>2020-12-26T14:18:22Z</time>
      </trkpt>
      <trkpt lat="47.00538" lon="5.97802">
        <ele>753.2</ele>
        <time>2020-12-26T14:18:23Z</time>
      </trkpt>
      <trkpt lat="47.00534" lon="5.97801">
        <ele>753.2</ele>
        <time>2020-12-26T14:18:24Z</time>
      </trkpt>
      <trkpt lat="47.0053" lon="5.97801">
        <ele>753.4</ele>
        <time>2020-12-26T14:18:25Z</time>
      </trkpt>
      <trkpt lat="47.00526" lon="5.978">
        <ele>753.4</ele>
        <time>2020-12-26T14:18:26Z</time>
      </trkpt>
      <trkpt lat="47.00522" lon="5.978">
        <ele>753.6</ele>
        <time>2020-12-26T14:18:27Z</time>
      </trkpt>
      <trkpt lat="47.00519" lon="5.978">
        <ele>753.6</ele>
        <time>2020-12-26T14:18:28Z</time>
      </trkpt>
      <trkpt lat="47.00516" lon="5.97801">
        <ele>754</ele>
        <time>2020-12-26T14:18:29Z</time>
      </trkpt>
      <trkpt lat="47.00513" lon="5.97801">
        <ele>754</ele>
        <time>2020-12-26T14:18:30Z</time>
      </trkpt>
      <trkpt lat="47.00509" lon="5.97802">
        <ele>754.2</ele>
        <time>2020-12-26T14:18:31Z</time>
      </trkpt>
      <trkpt lat="47.00506" lon="5.97802">
        <ele>754.2</ele>
        <time>2020-12-26T14:18:32Z</time>
      </trkpt>
      <trkpt lat="47.00502" lon="5.97802">
        <ele>754.6</ele>
        <time>2020-12-26T14:18:33Z</time>
      </trkpt>
      <trkpt lat="47.00498" lon="5.97802">
        <ele>754.6</ele>
        <time>2020-12-26T14:18:34Z</time>
      </trkpt>
      <trkpt lat="47.00495" lon="5.97803">
        <ele>754.8</ele>
        <time>2020-12-26T14:18:35Z</time>
      </trkpt>
      <trkpt lat="47.00491" lon="5.97803">
        <ele>754.8</ele>
        <time>2020-12-26T14:18:36Z</time>
      </trkpt>
      <trkpt lat="47.00487" lon="5.97803">
        <ele>754.8</ele>
        <time>2020-12-26T14:18:37Z</time>
      </trkpt>
      <trkpt lat="47.00482" lon="5.97803">
        <ele>754.8</ele>
        <time>2020-12-26T14:18:38Z</time>
      </trkpt>
      <trkpt lat="47.00478" lon="5.97803">
        <ele>755.2</ele>
        <time>2020-12-26T14:18:39Z</time>
      </trkpt>
      <trkpt lat="47.00474" lon="5.97804">
        <ele>755.2</ele>
        <time>2020-12-26T14:18:40Z</time>
      </trkpt>
      <trkpt lat="47.00469" lon="5.97804">
        <ele>755.2</ele>
        <time>2020-12-26T14:18:41Z</time>
      </trkpt>
      <trkpt lat="47.00465" lon="5.97805">
        <ele>755.2</ele>
        <time>2020-12-26T14:18:42Z</time>
      </trkpt>
      <trkpt lat="47.00461" lon="5.97804">
        <ele>755.2</ele>
        <time>2020-12-26T14:18:43Z</time>
      </trkpt>
      <trkpt lat="47.00456" lon="5.97804">
        <ele>755.2</ele>
        <time>2020-12-26T14:18:44Z</time>
      </trkpt>
      <trkpt lat="47.00452" lon="5.97804">
        <ele>755.2</ele>
        <time>2020-12-26T14:18:45Z</time>
      </trkpt>
      <trkpt lat="47.00447" lon="5.97804">
        <ele>755.2</ele>
        <time>2020-12-26T14:18:46Z</time>
      </trkpt>
      <trkpt lat="47.00442" lon="5.97804">
        <ele>755.2</ele>
        <time>2020-12-26T14:18:47Z</time>
      </trkpt>
      <trkpt lat="47.00438" lon="5.97804">
        <ele>755.2</ele>
        <time>2020-12-26T14:18:48Z</time>
      </trkpt>
      <trkpt lat="47.00434" lon="5.97804">
        <ele>755.2</ele>
        <time>2020-12-26T14:18:49Z</time>
      </trkpt>
      <trkpt lat="47.0043" lon="5.97804">
        <ele>755.4</ele>
        <time>2020-12-26T14:18:50Z</time>
      </trkpt>
      <trkpt lat="47.00426" lon="5.97803">
        <ele>755.4</ele>
        <time>2020-12-26T14:18:51Z</time>
      </trkpt>
      <trkpt lat="47.00422" lon="5.97804">
        <ele>755.4</ele>
        <time>2020-12-26T14:18:52Z</time>
      </trkpt>
      <trkpt lat="47.00418" lon="5.97804">
        <ele>755.6</ele>
        <time>2020-12-26T14:18:53Z</time>
      </trkpt>
      <trkpt lat="47.00415" lon="5.97805">
        <ele>755.6</ele>
        <time>2020-12-26T14:18:54Z</time>
      </trkpt>
      <trkpt lat="47.00411" lon="5.97805">
        <ele>756</ele>
        <time>2020-12-26T14:18:55Z</time>
      </trkpt>
      <trkpt lat="47.00407" lon="5.97806">
        <ele>756</ele>
        <time>2020-12-26T14:18:56Z</time>
      </trkpt>
      <trkpt lat="47.00403" lon="5.97806">
        <ele>756.2</ele>
        <time>2020-12-26T14:18:57Z</time>
      </trkpt>
      <trkpt lat="47.004" lon="5.97807">
        <ele>756.2</ele>
        <time>2020-12-26T14:18:58Z</time>
      </trkpt>
      <trkpt lat="47.00396" lon="5.97808">
        <ele>756.4</ele>
        <time>2020-12-26T14:18:59Z</time>
      </trkpt>
      <trkpt lat="47.00392" lon="5.97808">
        <ele>756.4</ele>
        <time>2020-12-26T14:19:00Z</time>
      </trkpt>
      <trkpt lat="47.00389" lon="5.97809">
        <ele>756.6</ele>
        <time>2020-12-26T14:19:01Z</time>
      </trkpt>
      <trkpt lat="47.00385" lon="5.9781">
        <ele>756.6</ele>
        <time>2020-12-26T14:19:02Z</time>
      </trkpt>
      <trkpt lat="47.00382" lon="5.97811">
        <ele>757</ele>
        <time>2020-12-26T14:19:03Z</time>
      </trkpt>
      <trkpt lat="47.00378" lon="5.97812">
        <ele>757</ele>
        <time>2020-12-26T14:19:04Z</time>
      </trkpt>
      <trkpt lat="47.00375" lon="5.97813">
        <ele>757</ele>
        <time>2020-12-26T14:19:05Z</time>
      </trkpt>
      <trkpt lat="47.00371" lon="5.97814">
        <ele>757.4</ele>
        <time>2020-12-26T14:19:06Z</time>
      </trkpt>
      <trkpt lat="47.00368" lon="5.97815">
        <ele>757.4</ele>
        <time>2020-12-26T14:19:07Z</time>
      </trkpt>
      <trkpt lat="47.00365" lon="5.97816">
        <ele>757.6</ele>
        <time>2020-12-26T14:19:08Z</time>
      </trkpt>
      <trkpt lat="47.00362" lon="5.97817">
        <ele>757.6</ele>
        <time>2020-12-26T14:19:09Z</time>
      </trkpt>
      <trkpt lat="47.00359" lon="5.97818">
        <ele>757.8</ele>
        <time>2020-12-26T14:19:10Z</time>
      </trkpt>
      <trkpt lat="47.00357" lon="5.97818">
        <ele>757.8</ele>
        <time>2020-12-26T14:19:11Z</time>
      </trkpt>
      <trkpt lat="47.00355" lon="5.97818">
        <ele>757.8</ele>
        <time>2020-12-26T14:19:12Z</time>
      </trkpt>
      <trkpt lat="47.00353" lon="5.97819">
        <ele>758.2</ele>
        <time>2020-12-26T14:19:13Z</time>
      </trkpt>
      <trkpt lat="47.0035" lon="5.97819">
        <ele>758.2</ele>
        <time>2020-12-26T14:19:14Z</time>
      </trkpt>
      <trkpt lat="47.00349" lon="5.9782">
        <ele>758.2</ele>
        <time>2020-12-26T14:19:15Z</time>
      </trkpt>
      <trkpt lat="47.00347" lon="5.97821">
        <ele>758.6</ele>
        <time>2020-12-26T14:19:16Z</time>
      </trkpt>
      <trkpt lat="47.00344" lon="5.97821">
        <ele>758.6</ele>
        <time>2020-12-26T14:19:17Z</time>
      </trkpt>
      <trkpt lat="47.00343" lon="5.97821">
        <ele>758.6</ele>
        <time>2020-12-26T14:19:18Z</time>
      </trkpt>
      <trkpt lat="47.0034" lon="5.9782">
        <ele>758.8</ele>
        <time>2020-12-26T14:21:25Z</time>
      </trkpt>
      <trkpt lat="47.00339" lon="5.9782">
        <ele>759</ele>
        <time>2020-12-26T14:21:26Z</time>
      </trkpt>
      <trkpt lat="47.00338" lon="5.97821">
        <ele>759</ele>
        <time>2020-12-26T14:21:27Z</time>
      </trkpt>
      <trkpt lat="47.00334" lon="5.97821">
        <ele>759</ele>
        <time>2020-12-26T14:21:35Z</time>
      </trkpt>
      <trkpt lat="47.00333" lon="5.97821">
        <ele>759</ele>
        <time>2020-12-26T14:21:36Z</time>
      </trkpt>
      <trkpt lat="47.0033" lon="5.97821">
        <ele>759</ele>
        <time>2020-12-26T14:21:37Z</time>
      </trkpt>
      <trkpt lat="47.00327" lon="5.97821">
        <ele>759</ele>
        <time>2020-12-26T14:21:38Z</time>
      </trkpt>
      <trkpt lat="47.00323" lon="5.97822">
        <ele>759</ele>
        <time>2020-12-26T14:21:39Z</time>
      </trkpt>
      <trkpt lat="47.00319" lon="5.97823">
        <ele>759</ele>
        <time>2020-12-26T14:21:40Z</time>
      </trkpt>
      <trkpt lat="47.00315" lon="5.97824">
        <ele>759</ele>
        <time>2020-12-26T14:21:41Z</time>
      </trkpt>
      <trkpt lat="47.0031" lon="5.97825">
        <ele>759</ele>
        <time>2020-12-26T14:21:42Z</time>
      </trkpt>
      <trkpt lat="47.00304" lon="5.97826">
        <ele>759</ele>
        <time>2020-12-26T14:21:43Z</time>
      </trkpt>
      <trkpt lat="47.00299" lon="5.97827">
        <ele>759</ele>
        <time>2020-12-26T14:21:44Z</time>
      </trkpt>
      <trkpt lat="47.00293" lon="5.97827">
        <ele>758.6</ele>
        <time>2020-12-26T14:21:45Z</time>
      </trkpt>
      <trkpt lat="47.00288" lon="5.97828">
        <ele>758.6</ele>
        <time>2020-12-26T14:21:46Z</time>
      </trkpt>
      <trkpt lat="47.00282" lon="5.97829">
        <ele>758.6</ele>
        <time>2020-12-26T14:21:47Z</time>
      </trkpt>
      <trkpt lat="47.00275" lon="5.97829">
        <ele>758.4</ele>
        <time>2020-12-26T14:21:48Z</time>
      </trkpt>
      <trkpt lat="47.00269" lon="5.9783">
        <ele>758.4</ele>
        <time>2020-12-26T14:21:49Z</time>
      </trkpt>
      <trkpt lat="47.00262" lon="5.97832">
        <ele>758.4</ele>
        <time>2020-12-26T14:21:50Z</time>
      </trkpt>
      <trkpt lat="47.00256" lon="5.97833">
        <ele>758.2</ele>
        <time>2020-12-26T14:21:51Z</time>
      </trkpt>
      <trkpt lat="47.00249" lon="5.97833">
        <ele>758.2</ele>
        <time>2020-12-26T14:21:52Z</time>
      </trkpt>
      <trkpt lat="47.00243" lon="5.97834">
        <ele>758.2</ele>
        <time>2020-12-26T14:21:53Z</time>
      </trkpt>
      <trkpt lat="47.00236" lon="5.97834">
        <ele>758</ele>
        <time>2020-12-26T14:21:54Z</time>
      </trkpt>
      <trkpt lat="47.00229" lon="5.97835">
        <ele>758</ele>
        <time>2020-12-26T14:21:55Z</time>
      </trkpt>
      <trkpt lat="47.00222" lon="5.97836">
        <ele>758</ele>
        <time>2020-12-26T14:21:56Z</time>
      </trkpt>
      <trkpt lat="47.00215" lon="5.97837">
        <ele>757.8</ele>
        <time>2020-12-26T14:21:57Z</time>
      </trkpt>
      <trkpt lat="47.00208" lon="5.97838">
        <ele>757.8</ele>
        <time>2020-12-26T14:21:58Z</time>
      </trkpt>
      <trkpt lat="47.002" lon="5.97838">
        <ele>757.4</ele>
        <time>2020-12-26T14:21:59Z</time>
      </trkpt>
      <trkpt lat="47.00192" lon="5.97839">
        <ele>757.4</ele>
        <time>2020-12-26T14:22:00Z</time>
      </trkpt>
      <trkpt lat="47.00184" lon="5.97839">
        <ele>757</ele>
        <time>2020-12-26T14:22:01Z</time>
      </trkpt>
      <trkpt lat="47.00176" lon="5.9784">
        <ele>756.6</ele>
        <time>2020-12-26T14:22:02Z</time>
      </trkpt>
      <trkpt lat="47.00168" lon="5.9784">
        <ele>756.2</ele>
        <time>2020-12-26T14:22:03Z</time>
      </trkpt>
      <trkpt lat="47.0016" lon="5.97841">
        <ele>755.8</ele>
        <time>2020-12-26T14:22:04Z</time>
      </trkpt>
      <trkpt lat="47.00152" lon="5.97841">
        <ele>755.4</ele>
        <time>2020-12-26T14:22:05Z</time>
      </trkpt>
      <trkpt lat="47.00144" lon="5.97841">
        <ele>755</ele>
        <time>2020-12-26T14:22:06Z</time>
      </trkpt>
      <trkpt lat="47.00135" lon="5.97842">
        <ele>754.4</ele>
        <time>2020-12-26T14:22:07Z</time>
      </trkpt>
      <trkpt lat="47.00127" lon="5.97844">
        <ele>754</ele>
        <time>2020-12-26T14:22:08Z</time>
      </trkpt>
      <trkpt lat="47.00118" lon="5.97845">
        <ele>753.4</ele>
        <time>2020-12-26T14:22:09Z</time>
      </trkpt>
      <trkpt lat="47.00109" lon="5.97847">
        <ele>753</ele>
        <time>2020-12-26T14:22:10Z</time>
      </trkpt>
      <trkpt lat="47.00099" lon="5.9785">
        <ele>752.6</ele>
        <time>2020-12-26T14:22:11Z</time>
      </trkpt>
      <trkpt lat="47.00091" lon="5.97853">
        <ele>752.2</ele>
        <time>2020-12-26T14:22:12Z</time>
      </trkpt>
      <trkpt lat="47.00082" lon="5.97855">
        <ele>752</ele>
        <time>2020-12-26T14:22:13Z</time>
      </trkpt>
      <trkpt lat="47.00074" lon="5.97858">
        <ele>752</ele>
        <time>2020-12-26T14:22:14Z</time>
      </trkpt>
      <trkpt lat="47.00067" lon="5.9786">
        <ele>751.6</ele>
        <time>2020-12-26T14:22:15Z</time>
      </trkpt>
      <trkpt lat="47.00059" lon="5.97865">
        <ele>751.2</ele>
        <time>2020-12-26T14:22:16Z</time>
      </trkpt>
      <trkpt lat="47.00052" lon="5.97871">
        <ele>750.8</ele>
        <time>2020-12-26T14:22:17Z</time>
      </trkpt>
      <trkpt lat="47.00044" lon="5.97878">
        <ele>750.2</ele>
        <time>2020-12-26T14:22:18Z</time>
      </trkpt>
      <trkpt lat="47.00037" lon="5.97886">
        <ele>749.6</ele>
        <time>2020-12-26T14:22:19Z</time>
      </trkpt>
      <trkpt lat="47.00029" lon="5.97893">
        <ele>749</ele>
        <time>2020-12-26T14:22:20Z</time>
      </trkpt>
      <trkpt lat="47.00019" lon="5.97901">
        <ele>748.4</ele>
        <time>2020-12-26T14:22:21Z</time>
      </trkpt>
      <trkpt lat="47.00009" lon="5.97908">
        <ele>747.8</ele>
        <time>2020-12-26T14:22:22Z</time>
      </trkpt>
      <trkpt lat="47" lon="5.97913">
        <ele>747.2</ele>
        <time>2020-12-26T14:22:23Z</time>
      </trkpt>
      <trkpt lat="46.9999" lon="5.97919">
        <ele>746.6</ele>
        <time>2020-12-26T14:22:24Z</time>
      </trkpt>
      <trkpt lat="46.9998" lon="5.97927">
        <ele>745.8</ele>
        <time>2020-12-26T14:22:25Z</time>
      </trkpt>
      <trkpt lat="46.99971" lon="5.97934">
        <ele>745</ele>
        <time>2020-12-26T14:22:26Z</time>
      </trkpt>
      <trkpt lat="46.99961" lon="5.97942">
        <ele>744.2</ele>
        <time>2020-12-26T14:22:27Z</time>
      </trkpt>
      <trkpt lat="46.99952" lon="5.97949">
        <ele>743.6</ele>
        <time>2020-12-26T14:22:28Z</time>
      </trkpt>
      <trkpt lat="46.99943" lon="5.97954">
        <ele>743</ele>
        <time>2020-12-26T14:22:29Z</time>
      </trkpt>
      <trkpt lat="46.99934" lon="5.9796">
        <ele>742.6</ele>
        <time>2020-12-26T14:22:30Z</time>
      </trkpt>
      <trkpt lat="46.99926" lon="5.97966">
        <ele>742.2</ele>
        <time>2020-12-26T14:22:31Z</time>
      </trkpt>
      <trkpt lat="46.99918" lon="5.97974">
        <ele>741.6</ele>
        <time>2020-12-26T14:22:32Z</time>
      </trkpt>
      <trkpt lat="46.99912" lon="5.97983">
        <ele>741.2</ele>
        <time>2020-12-26T14:22:33Z</time>
      </trkpt>
      <trkpt lat="46.99906" lon="5.97994">
        <ele>740.6</ele>
        <time>2020-12-26T14:22:34Z</time>
      </trkpt>
      <trkpt lat="46.99901" lon="5.98006">
        <ele>740</ele>
        <time>2020-12-26T14:22:35Z</time>
      </trkpt>
      <trkpt lat="46.99896" lon="5.98019">
        <ele>739.6</ele>
        <time>2020-12-26T14:22:36Z</time>
      </trkpt>
      <trkpt lat="46.99891" lon="5.98032">
        <ele>738.8</ele>
        <time>2020-12-26T14:22:37Z</time>
      </trkpt>
      <trkpt lat="46.99885" lon="5.98045">
        <ele>738.2</ele>
        <time>2020-12-26T14:22:38Z</time>
      </trkpt>
      <trkpt lat="46.99879" lon="5.98058">
        <ele>737.6</ele>
        <time>2020-12-26T14:22:39Z</time>
      </trkpt>
      <trkpt lat="46.99872" lon="5.9807">
        <ele>737</ele>
        <time>2020-12-26T14:22:40Z</time>
      </trkpt>
      <trkpt lat="46.99866" lon="5.98081">
        <ele>736.4</ele>
        <time>2020-12-26T14:22:41Z</time>
      </trkpt>
      <trkpt lat="46.99859" lon="5.98091">
        <ele>735.8</ele>
        <time>2020-12-26T14:22:42Z</time>
      </trkpt>
      <trkpt lat="46.9985" lon="5.981">
        <ele>735</ele>
        <time>2020-12-26T14:22:43Z</time>
      </trkpt>
      <trkpt lat="46.99842" lon="5.98109">
        <ele>734.6</ele>
        <time>2020-12-26T14:22:44Z</time>
      </trkpt>
      <trkpt lat="46.99833" lon="5.98117">
        <ele>734.2</ele>
        <time>2020-12-26T14:22:45Z</time>
      </trkpt>
      <trkpt lat="46.99824" lon="5.98124">
        <ele>734</ele>
        <time>2020-12-26T14:22:46Z</time>
      </trkpt>
      <trkpt lat="46.99815" lon="5.98128">
        <ele>734</ele>
        <time>2020-12-26T14:22:47Z</time>
      </trkpt>
      <trkpt lat="46.99807" lon="5.9813">
        <ele>734</ele>
        <time>2020-12-26T14:22:48Z</time>
      </trkpt>
      <trkpt lat="46.99798" lon="5.98132">
        <ele>734</ele>
        <time>2020-12-26T14:22:49Z</time>
      </trkpt>
      <trkpt lat="46.9979" lon="5.98134">
        <ele>734</ele>
        <time>2020-12-26T14:22:50Z</time>
      </trkpt>
      <trkpt lat="46.99783" lon="5.98137">
        <ele>734.4</ele>
        <time>2020-12-26T14:22:51Z</time>
      </trkpt>
      <trkpt lat="46.99776" lon="5.9814">
        <ele>734.4</ele>
        <time>2020-12-26T14:22:52Z</time>
      </trkpt>
      <trkpt lat="46.99768" lon="5.98143">
        <ele>734.4</ele>
        <time>2020-12-26T14:22:53Z</time>
      </trkpt>
      <trkpt lat="46.99761" lon="5.98147">
        <ele>734.6</ele>
        <time>2020-12-26T14:22:54Z</time>
      </trkpt>
      <trkpt lat="46.99755" lon="5.98151">
        <ele>734.6</ele>
        <time>2020-12-26T14:22:55Z</time>
      </trkpt>
      <trkpt lat="46.99748" lon="5.98155">
        <ele>734.6</ele>
        <time>2020-12-26T14:22:56Z</time>
      </trkpt>
      <trkpt lat="46.99741" lon="5.98158">
        <ele>734.6</ele>
        <time>2020-12-26T14:22:57Z</time>
      </trkpt>
      <trkpt lat="46.99734" lon="5.98162">
        <ele>734.6</ele>
        <time>2020-12-26T14:22:58Z</time>
      </trkpt>
      <trkpt lat="46.99727" lon="5.98166">
        <ele>734.6</ele>
        <time>2020-12-26T14:22:59Z</time>
      </trkpt>
      <trkpt lat="46.9972" lon="5.98168">
        <ele>734.6</ele>
        <time>2020-12-26T14:23:00Z</time>
      </trkpt>
      <trkpt lat="46.99715" lon="5.9817">
        <ele>734.6</ele>
        <time>2020-12-26T14:23:01Z</time>
      </trkpt>
      <trkpt lat="46.9971" lon="5.98171">
        <ele>734.6</ele>
        <time>2020-12-26T14:23:02Z</time>
      </trkpt>
      <trkpt lat="46.99704" lon="5.98171">
        <ele>734.6</ele>
        <time>2020-12-26T14:23:03Z</time>
      </trkpt>
      <trkpt lat="46.997" lon="5.98172">
        <ele>734.6</ele>
        <time>2020-12-26T14:23:04Z</time>
      </trkpt>
      <trkpt lat="46.99696" lon="5.98174">
        <ele>734.6</ele>
        <time>2020-12-26T14:23:05Z</time>
      </trkpt>
      <trkpt lat="46.99692" lon="5.98177">
        <ele>734.6</ele>
        <time>2020-12-26T14:23:06Z</time>
      </trkpt>
      <trkpt lat="46.99688" lon="5.98183">
        <ele>734.6</ele>
        <time>2020-12-26T14:23:07Z</time>
      </trkpt>
      <trkpt lat="46.99685" lon="5.98191">
        <ele>734</ele>
        <time>2020-12-26T14:23:08Z</time>
      </trkpt>
      <trkpt lat="46.99682" lon="5.982">
        <ele>734</ele>
        <time>2020-12-26T14:23:09Z</time>
      </trkpt>
      <trkpt lat="46.9968" lon="5.9821">
        <ele>733.8</ele>
        <time>2020-12-26T14:23:10Z</time>
      </trkpt>
      <trkpt lat="46.99677" lon="5.98219">
        <ele>733.4</ele>
        <time>2020-12-26T14:23:11Z</time>
      </trkpt>
      <trkpt lat="46.99674" lon="5.98228">
        <ele>733.2</ele>
        <time>2020-12-26T14:23:12Z</time>
      </trkpt>
      <trkpt lat="46.99671" lon="5.98237">
        <ele>733.2</ele>
        <time>2020-12-26T14:23:13Z</time>
      </trkpt>
      <trkpt lat="46.99668" lon="5.98246">
        <ele>733</ele>
        <time>2020-12-26T14:23:14Z</time>
      </trkpt>
      <trkpt lat="46.99665" lon="5.98254">
        <ele>733</ele>
        <time>2020-12-26T14:23:15Z</time>
      </trkpt>
      <trkpt lat="46.99661" lon="5.98261">
        <ele>732.6</ele>
        <time>2020-12-26T14:23:16Z</time>
      </trkpt>
      <trkpt lat="46.99654" lon="5.98266">
        <ele>732.2</ele>
        <time>2020-12-26T14:23:17Z</time>
      </trkpt>
      <trkpt lat="46.99647" lon="5.9827">
        <ele>732</ele>
        <time>2020-12-26T14:23:18Z</time>
      </trkpt>
      <trkpt lat="46.99639" lon="5.98273">
        <ele>732</ele>
        <time>2020-12-26T14:23:19Z</time>
      </trkpt>
      <trkpt lat="46.99631" lon="5.98276">
        <ele>731.6</ele>
        <time>2020-12-26T14:23:20Z</time>
      </trkpt>
      <trkpt lat="46.99624" lon="5.98279">
        <ele>731.6</ele>
        <time>2020-12-26T14:23:21Z</time>
      </trkpt>
      <trkpt lat="46.99616" lon="5.98282">
        <ele>731.2</ele>
        <time>2020-12-26T14:23:22Z</time>
      </trkpt>
      <trkpt lat="46.99608" lon="5.98285">
        <ele>731.2</ele>
        <time>2020-12-26T14:23:23Z</time>
      </trkpt>
      <trkpt lat="46.996" lon="5.98288">
        <ele>731.2</ele>
        <time>2020-12-26T14:23:24Z</time>
      </trkpt>
      <trkpt lat="46.99592" lon="5.98291">
        <ele>731.2</ele>
        <time>2020-12-26T14:23:25Z</time>
      </trkpt>
      <trkpt lat="46.99584" lon="5.98294">
        <ele>731</ele>
        <time>2020-12-26T14:23:26Z</time>
      </trkpt>
      <trkpt lat="46.99577" lon="5.98297">
        <ele>731</ele>
        <time>2020-12-26T14:23:27Z</time>
      </trkpt>
      <trkpt lat="46.99569" lon="5.983">
        <ele>731</ele>
        <time>2020-12-26T14:23:28Z</time>
      </trkpt>
      <trkpt lat="46.99562" lon="5.98303">
        <ele>731</ele>
        <time>2020-12-26T14:23:29Z</time>
      </trkpt>
      <trkpt lat="46.99554" lon="5.98306">
        <ele>731</ele>
        <time>2020-12-26T14:23:30Z</time>
      </trkpt>
      <trkpt lat="46.99547" lon="5.98309">
        <ele>731.4</ele>
        <time>2020-12-26T14:23:31Z</time>
      </trkpt>
      <trkpt lat="46.9954" lon="5.98312">
        <ele>731.6</ele>
        <time>2020-12-26T14:23:32Z</time>
      </trkpt>
      <trkpt lat="46.99533" lon="5.98317">
        <ele>731.8</ele>
        <time>2020-12-26T14:23:33Z</time>
      </trkpt>
      <trkpt lat="46.99528" lon="5.98323">
        <ele>732.2</ele>
        <time>2020-12-26T14:23:34Z</time>
      </trkpt>
      <trkpt lat="46.99523" lon="5.98331">
        <ele>732.4</ele>
        <time>2020-12-26T14:23:35Z</time>
      </trkpt>
      <trkpt lat="46.9952" lon="5.98339">
        <ele>732.4</ele>
        <time>2020-12-26T14:23:36Z</time>
      </trkpt>
      <trkpt lat="46.99519" lon="5.98348">
        <ele>732.8</ele>
        <time>2020-12-26T14:23:37Z</time>
      </trkpt>
      <trkpt lat="46.99519" lon="5.98357">
        <ele>732.8</ele>
        <time>2020-12-26T14:23:38Z</time>
      </trkpt>
      <trkpt lat="46.99521" lon="5.98366">
        <ele>733</ele>
        <time>2020-12-26T14:23:39Z</time>
      </trkpt>
      <trkpt lat="46.99523" lon="5.98374">
        <ele>733</ele>
        <time>2020-12-26T14:23:40Z</time>
      </trkpt>
      <trkpt lat="46.99525" lon="5.98382">
        <ele>733.4</ele>
        <time>2020-12-26T14:23:41Z</time>
      </trkpt>
      <trkpt lat="46.99527" lon="5.9839">
        <ele>733.4</ele>
        <time>2020-12-26T14:23:42Z</time>
      </trkpt>
      <trkpt lat="46.99528" lon="5.98398">
        <ele>733.4</ele>
        <time>2020-12-26T14:23:43Z</time>
      </trkpt>
      <trkpt lat="46.9953" lon="5.98405">
        <ele>733.4</ele>
        <time>2020-12-26T14:23:44Z</time>
      </trkpt>
      <trkpt lat="46.99531" lon="5.98413">
        <ele>733.4</ele>
        <time>2020-12-26T14:23:45Z</time>
      </trkpt>
      <trkpt lat="46.99532" lon="5.9842">
        <ele>733.4</ele>
        <time>2020-12-26T14:23:46Z</time>
      </trkpt>
      <trkpt lat="46.99533" lon="5.98428">
        <ele>733.6</ele>
        <time>2020-12-26T14:23:47Z</time>
      </trkpt>
      <trkpt lat="46.99534" lon="5.98436">
        <ele>733.6</ele>
        <time>2020-12-26T14:23:48Z</time>
      </trkpt>
      <trkpt lat="46.99534" lon="5.98444">
        <ele>733.6</ele>
        <time>2020-12-26T14:23:49Z</time>
      </trkpt>
      <trkpt lat="46.99535" lon="5.98452">
        <ele>733.6</ele>
        <time>2020-12-26T14:23:50Z</time>
      </trkpt>
      <trkpt lat="46.99535" lon="5.98461">
        <ele>733.6</ele>
        <time>2020-12-26T14:23:51Z</time>
      </trkpt>
      <trkpt lat="46.99536" lon="5.9847">
        <ele>733.6</ele>
        <time>2020-12-26T14:23:52Z</time>
      </trkpt>
      <trkpt lat="46.99536" lon="5.98479">
        <ele>733.6</ele>
        <time>2020-12-26T14:23:53Z</time>
      </trkpt>
      <trkpt lat="46.99537" lon="5.98488">
        <ele>733.6</ele>
        <time>2020-12-26T14:23:54Z</time>
      </trkpt>
      <trkpt lat="46.99538" lon="5.98496">
        <ele>733.6</ele>
        <time>2020-12-26T14:23:55Z</time>
      </trkpt>
      <trkpt lat="46.9954" lon="5.98505">
        <ele>733.6</ele>
        <time>2020-12-26T14:23:56Z</time>
      </trkpt>
      <trkpt lat="46.99541" lon="5.98513">
        <ele>733.8</ele>
        <time>2020-12-26T14:23:57Z</time>
      </trkpt>
      <trkpt lat="46.99543" lon="5.98521">
        <ele>733.8</ele>
        <time>2020-12-26T14:23:58Z</time>
      </trkpt>
      <trkpt lat="46.99544" lon="5.98528">
        <ele>734.2</ele>
        <time>2020-12-26T14:23:59Z</time>
      </trkpt>
      <trkpt lat="46.99546" lon="5.98535">
        <ele>734.2</ele>
        <time>2020-12-26T14:24:00Z</time>
      </trkpt>
      <trkpt lat="46.99548" lon="5.98542">
        <ele>734.4</ele>
        <time>2020-12-26T14:24:01Z</time>
      </trkpt>
      <trkpt lat="46.99549" lon="5.98549">
        <ele>734.8</ele>
        <time>2020-12-26T14:24:02Z</time>
      </trkpt>
      <trkpt lat="46.99551" lon="5.98556">
        <ele>734.8</ele>
        <time>2020-12-26T14:24:03Z</time>
      </trkpt>
      <trkpt lat="46.99553" lon="5.98563">
        <ele>735</ele>
        <time>2020-12-26T14:24:04Z</time>
      </trkpt>
      <trkpt lat="46.99554" lon="5.98569">
        <ele>735</ele>
        <time>2020-12-26T14:24:05Z</time>
      </trkpt>
      <trkpt lat="46.99556" lon="5.98577">
        <ele>735.4</ele>
        <time>2020-12-26T14:24:06Z</time>
      </trkpt>
      <trkpt lat="46.99557" lon="5.98584">
        <ele>735.6</ele>
        <time>2020-12-26T14:24:07Z</time>
      </trkpt>
      <trkpt lat="46.99558" lon="5.98591">
        <ele>735.8</ele>
        <time>2020-12-26T14:24:08Z</time>
      </trkpt>
      <trkpt lat="46.99559" lon="5.98597">
        <ele>735.8</ele>
        <time>2020-12-26T14:24:09Z</time>
      </trkpt>
      <trkpt lat="46.9956" lon="5.98603">
        <ele>736.2</ele>
        <time>2020-12-26T14:24:10Z</time>
      </trkpt>
      <trkpt lat="46.99561" lon="5.98609">
        <ele>736.2</ele>
        <time>2020-12-26T14:24:11Z</time>
      </trkpt>
      <trkpt lat="46.99562" lon="5.98615">
        <ele>736.6</ele>
        <time>2020-12-26T14:24:12Z</time>
      </trkpt>
      <trkpt lat="46.99563" lon="5.98621">
        <ele>736.8</ele>
        <time>2020-12-26T14:24:13Z</time>
      </trkpt>
      <trkpt lat="46.99563" lon="5.98627">
        <ele>737</ele>
        <time>2020-12-26T14:24:14Z</time>
      </trkpt>
      <trkpt lat="46.99564" lon="5.98632">
        <ele>737.2</ele>
        <time>2020-12-26T14:24:15Z</time>
      </trkpt>
      <trkpt lat="46.99564" lon="5.98638">
        <ele>737.4</ele>
        <time>2020-12-26T14:24:16Z</time>
      </trkpt>
      <trkpt lat="46.99565" lon="5.98643">
        <ele>737.8</ele>
        <time>2020-12-26T14:24:17Z</time>
      </trkpt>
      <trkpt lat="46.99565" lon="5.98648">
        <ele>737.8</ele>
        <time>2020-12-26T14:24:18Z</time>
      </trkpt>
      <trkpt lat="46.99564" lon="5.98654">
        <ele>738.2</ele>
        <time>2020-12-26T14:24:19Z</time>
      </trkpt>
      <trkpt lat="46.99563" lon="5.9866">
        <ele>738.4</ele>
        <time>2020-12-26T14:24:20Z</time>
      </trkpt>
      <trkpt lat="46.99562" lon="5.98665">
        <ele>738.8</ele>
        <time>2020-12-26T14:24:21Z</time>
      </trkpt>
      <trkpt lat="46.99561" lon="5.9867">
        <ele>739</ele>
        <time>2020-12-26T14:24:22Z</time>
      </trkpt>
      <trkpt lat="46.99559" lon="5.98675">
        <ele>739.4</ele>
        <time>2020-12-26T14:24:23Z</time>
      </trkpt>
      <trkpt lat="46.99558" lon="5.9868">
        <ele>739.6</ele>
        <time>2020-12-26T14:24:24Z</time>
      </trkpt>
      <trkpt lat="46.99556" lon="5.98685">
        <ele>739.8</ele>
        <time>2020-12-26T14:24:25Z</time>
      </trkpt>
      <trkpt lat="46.99554" lon="5.9869">
        <ele>740</ele>
        <time>2020-12-26T14:24:26Z</time>
      </trkpt>
      <trkpt lat="46.99553" lon="5.98694">
        <ele>740.4</ele>
        <time>2020-12-26T14:24:27Z</time>
      </trkpt>
      <trkpt lat="46.99551" lon="5.98698">
        <ele>740.6</ele>
        <time>2020-12-26T14:24:28Z</time>
      </trkpt>
      <trkpt lat="46.99549" lon="5.98702">
        <ele>740.6</ele>
        <time>2020-12-26T14:24:29Z</time>
      </trkpt>
      <trkpt lat="46.99548" lon="5.98706">
        <ele>740.8</ele>
        <time>2020-12-26T14:24:30Z</time>
      </trkpt>
      <trkpt lat="46.99546" lon="5.9871">
        <ele>741.2</ele>
        <time>2020-12-26T14:24:31Z</time>
      </trkpt>
      <trkpt lat="46.99544" lon="5.98715">
        <ele>741.2</ele>
        <time>2020-12-26T14:24:32Z</time>
      </trkpt>
      <trkpt lat="46.99542" lon="5.98719">
        <ele>741.6</ele>
        <time>2020-12-26T14:24:33Z</time>
      </trkpt>
      <trkpt lat="46.9954" lon="5.98724">
        <ele>741.6</ele>
        <time>2020-12-26T14:24:34Z</time>
      </trkpt>
      <trkpt lat="46.99538" lon="5.98728">
        <ele>742</ele>
        <time>2020-12-26T14:24:35Z</time>
      </trkpt>
      <trkpt lat="46.99536" lon="5.98733">
        <ele>742.2</ele>
        <time>2020-12-26T14:24:36Z</time>
      </trkpt>
      <trkpt lat="46.99535" lon="5.98737">
        <ele>742.2</ele>
        <time>2020-12-26T14:24:37Z</time>
      </trkpt>
      <trkpt lat="46.99533" lon="5.98742">
        <ele>742.4</ele>
        <time>2020-12-26T14:24:38Z</time>
      </trkpt>
      <trkpt lat="46.99532" lon="5.98746">
        <ele>742.8</ele>
        <time>2020-12-26T14:24:39Z</time>
      </trkpt>
      <trkpt lat="46.99531" lon="5.98751">
        <ele>742.8</ele>
        <time>2020-12-26T14:24:40Z</time>
      </trkpt>
      <trkpt lat="46.9953" lon="5.98755">
        <ele>743</ele>
        <time>2020-12-26T14:24:41Z</time>
      </trkpt>
      <trkpt lat="46.99529" lon="5.9876">
        <ele>743.4</ele>
        <time>2020-12-26T14:24:42Z</time>
      </trkpt>
      <trkpt lat="46.99529" lon="5.98764">
        <ele>743.4</ele>
        <time>2020-12-26T14:24:43Z</time>
      </trkpt>
      <trkpt lat="46.99528" lon="5.98768">
        <ele>743.8</ele>
        <time>2020-12-26T14:24:44Z</time>
      </trkpt>
      <trkpt lat="46.99528" lon="5.98773">
        <ele>744</ele>
        <time>2020-12-26T14:24:45Z</time>
      </trkpt>
      <trkpt lat="46.99528" lon="5.98777">
        <ele>744</ele>
        <time>2020-12-26T14:24:46Z</time>
      </trkpt>
      <trkpt lat="46.99528" lon="5.98782">
        <ele>744.4</ele>
        <time>2020-12-26T14:24:47Z</time>
      </trkpt>
      <trkpt lat="46.99528" lon="5.98786">
        <ele>744.6</ele>
        <time>2020-12-26T14:24:48Z</time>
      </trkpt>
      <trkpt lat="46.99528" lon="5.98791">
        <ele>744.8</ele>
        <time>2020-12-26T14:24:49Z</time>
      </trkpt>
      <trkpt lat="46.99528" lon="5.98796">
        <ele>745</ele>
        <time>2020-12-26T14:24:50Z</time>
      </trkpt>
      <trkpt lat="46.99528" lon="5.988">
        <ele>745.4</ele>
        <time>2020-12-26T14:24:51Z</time>
      </trkpt>
      <trkpt lat="46.99528" lon="5.98805">
        <ele>745.6</ele>
        <time>2020-12-26T14:24:52Z</time>
      </trkpt>
      <trkpt lat="46.99528" lon="5.9881">
        <ele>745.6</ele>
        <time>2020-12-26T14:24:53Z</time>
      </trkpt>
      <trkpt lat="46.99529" lon="5.98815">
        <ele>745.8</ele>
        <time>2020-12-26T14:24:54Z</time>
      </trkpt>
      <trkpt lat="46.99529" lon="5.9882">
        <ele>745.8</ele>
        <time>2020-12-26T14:24:55Z</time>
      </trkpt>
      <trkpt lat="46.99529" lon="5.98825">
        <ele>746.2</ele>
        <time>2020-12-26T14:24:56Z</time>
      </trkpt>
      <trkpt lat="46.99529" lon="5.98831">
        <ele>746.4</ele>
        <time>2020-12-26T14:24:57Z</time>
      </trkpt>
      <trkpt lat="46.99529" lon="5.98836">
        <ele>746.8</ele>
        <time>2020-12-26T14:24:58Z</time>
      </trkpt>
      <trkpt lat="46.99529" lon="5.98842">
        <ele>747</ele>
        <time>2020-12-26T14:24:59Z</time>
      </trkpt>
      <trkpt lat="46.99529" lon="5.98847">
        <ele>747</ele>
        <time>2020-12-26T14:25:00Z</time>
      </trkpt>
      <trkpt lat="46.99529" lon="5.98852">
        <ele>747.4</ele>
        <time>2020-12-26T14:25:01Z</time>
      </trkpt>
      <trkpt lat="46.99529" lon="5.98857">
        <ele>747.4</ele>
        <time>2020-12-26T14:25:02Z</time>
      </trkpt>
      <trkpt lat="46.9953" lon="5.98863">
        <ele>747.8</ele>
        <time>2020-12-26T14:25:03Z</time>
      </trkpt>
      <trkpt lat="46.9953" lon="5.98868">
        <ele>747.8</ele>
        <time>2020-12-26T14:25:04Z</time>
      </trkpt>
      <trkpt lat="46.9953" lon="5.98874">
        <ele>748</ele>
        <time>2020-12-26T14:25:05Z</time>
      </trkpt>
      <trkpt lat="46.9953" lon="5.98879">
        <ele>748</ele>
        <time>2020-12-26T14:25:06Z</time>
      </trkpt>
      <trkpt lat="46.9953" lon="5.98885">
        <ele>748.2</ele>
        <time>2020-12-26T14:25:07Z</time>
      </trkpt>
      <trkpt lat="46.9953" lon="5.9889">
        <ele>748.6</ele>
        <time>2020-12-26T14:25:08Z</time>
      </trkpt>
      <trkpt lat="46.9953" lon="5.98896">
        <ele>748.6</ele>
        <time>2020-12-26T14:25:09Z</time>
      </trkpt>
      <trkpt lat="46.9953" lon="5.98902">
        <ele>748.8</ele>
        <time>2020-12-26T14:25:10Z</time>
      </trkpt>
      <trkpt lat="46.9953" lon="5.98907">
        <ele>748.8</ele>
        <time>2020-12-26T14:25:11Z</time>
      </trkpt>
      <trkpt lat="46.99531" lon="5.98913">
        <ele>749</ele>
        <time>2020-12-26T14:25:12Z</time>
      </trkpt>
      <trkpt lat="46.99531" lon="5.98919">
        <ele>749</ele>
        <time>2020-12-26T14:25:13Z</time>
      </trkpt>
      <trkpt lat="46.99531" lon="5.98925">
        <ele>749.2</ele>
        <time>2020-12-26T14:25:14Z</time>
      </trkpt>
      <trkpt lat="46.99531" lon="5.98932">
        <ele>749.2</ele>
        <time>2020-12-26T14:25:15Z</time>
      </trkpt>
      <trkpt lat="46.99531" lon="5.98938">
        <ele>749.2</ele>
        <time>2020-12-26T14:25:16Z</time>
      </trkpt>
      <trkpt lat="46.99531" lon="5.98944">
        <ele>749.6</ele>
        <time>2020-12-26T14:25:17Z</time>
      </trkpt>
      <trkpt lat="46.99531" lon="5.9895">
        <ele>749.6</ele>
        <time>2020-12-26T14:25:18Z</time>
      </trkpt>
      <trkpt lat="46.99532" lon="5.98956">
        <ele>749.6</ele>
        <time>2020-12-26T14:25:19Z</time>
      </trkpt>
      <trkpt lat="46.99532" lon="5.98962">
        <ele>749.8</ele>
        <time>2020-12-26T14:25:20Z</time>
      </trkpt>
      <trkpt lat="46.99532" lon="5.98969">
        <ele>749.8</ele>
        <time>2020-12-26T14:25:21Z</time>
      </trkpt>
      <trkpt lat="46.99532" lon="5.98975">
        <ele>749.8</ele>
        <time>2020-12-26T14:25:22Z</time>
      </trkpt>
      <trkpt lat="46.99532" lon="5.98982">
        <ele>750</ele>
        <time>2020-12-26T14:25:23Z</time>
      </trkpt>
      <trkpt lat="46.99532" lon="5.98989">
        <ele>750</ele>
        <time>2020-12-26T14:25:24Z</time>
      </trkpt>
      <trkpt lat="46.99532" lon="5.98995">
        <ele>750</ele>
        <time>2020-12-26T14:25:25Z</time>
      </trkpt>
      <trkpt lat="46.99532" lon="5.99002">
        <ele>750.4</ele>
        <time>2020-12-26T14:25:26Z</time>
      </trkpt>
      <trkpt lat="46.99532" lon="5.99009">
        <ele>750.4</ele>
        <time>2020-12-26T14:25:27Z</time>
      </trkpt>
      <trkpt lat="46.99532" lon="5.99016">
        <ele>750.4</ele>
        <time>2020-12-26T14:25:28Z</time>
      </trkpt>
      <trkpt lat="46.99532" lon="5.99022">
        <ele>750.6</ele>
        <time>2020-12-26T14:25:29Z</time>
      </trkpt>
      <trkpt lat="46.99532" lon="5.99029">
        <ele>750.6</ele>
        <time>2020-12-26T14:25:30Z</time>
      </trkpt>
      <trkpt lat="46.99532" lon="5.99036">
        <ele>750.6</ele>
        <time>2020-12-26T14:25:31Z</time>
      </trkpt>
      <trkpt lat="46.99532" lon="5.99042">
        <ele>750.6</ele>
        <time>2020-12-26T14:25:32Z</time>
      </trkpt>
      <trkpt lat="46.99532" lon="5.99049">
        <ele>750.8</ele>
        <time>2020-12-26T14:25:33Z</time>
      </trkpt>
      <trkpt lat="46.99532" lon="5.99056">
        <ele>750.8</ele>
        <time>2020-12-26T14:25:34Z</time>
      </trkpt>
      <trkpt lat="46.99532" lon="5.99063">
        <ele>751</ele>
        <time>2020-12-26T14:25:35Z</time>
      </trkpt>
      <trkpt lat="46.99532" lon="5.9907">
        <ele>751</ele>
        <time>2020-12-26T14:25:36Z</time>
      </trkpt>
      <trkpt lat="46.99533" lon="5.99077">
        <ele>751</ele>
        <time>2020-12-26T14:25:37Z</time>
      </trkpt>
      <trkpt lat="46.99533" lon="5.99084">
        <ele>751</ele>
        <time>2020-12-26T14:25:38Z</time>
      </trkpt>
      <trkpt lat="46.99533" lon="5.99091">
        <ele>751</ele>
        <time>2020-12-26T14:25:39Z</time>
      </trkpt>
      <trkpt lat="46.99533" lon="5.99098">
        <ele>751.4</ele>
        <time>2020-12-26T14:25:40Z</time>
      </trkpt>
      <trkpt lat="46.99533" lon="5.99105">
        <ele>751.4</ele>
        <time>2020-12-26T14:25:41Z</time>
      </trkpt>
      <trkpt lat="46.99533" lon="5.99112">
        <ele>751.4</ele>
        <time>2020-12-26T14:25:42Z</time>
      </trkpt>
      <trkpt lat="46.99534" lon="5.99119">
        <ele>751.6</ele>
        <time>2020-12-26T14:25:43Z</time>
      </trkpt>
      <trkpt lat="46.99533" lon="5.99126">
        <ele>751.6</ele>
        <time>2020-12-26T14:25:44Z</time>
      </trkpt>
      <trkpt lat="46.99533" lon="5.99133">
        <ele>751.8</ele>
        <time>2020-12-26T14:25:45Z</time>
      </trkpt>
      <trkpt lat="46.99533" lon="5.9914">
        <ele>752</ele>
        <time>2020-12-26T14:25:46Z</time>
      </trkpt>
      <trkpt lat="46.99533" lon="5.99147">
        <ele>752</ele>
        <time>2020-12-26T14:25:47Z</time>
      </trkpt>
      <trkpt lat="46.99532" lon="5.99153">
        <ele>752.4</ele>
        <time>2020-12-26T14:25:48Z</time>
      </trkpt>
      <trkpt lat="46.99531" lon="5.9916">
        <ele>752.4</ele>
        <time>2020-12-26T14:25:49Z</time>
      </trkpt>
      <trkpt lat="46.99529" lon="5.99167">
        <ele>752.6</ele>
        <time>2020-12-26T14:25:50Z</time>
      </trkpt>
      <trkpt lat="46.99527" lon="5.99173">
        <ele>752.6</ele>
        <time>2020-12-26T14:25:51Z</time>
      </trkpt>
      <trkpt lat="46.99525" lon="5.9918">
        <ele>752.6</ele>
        <time>2020-12-26T14:25:52Z</time>
      </trkpt>
      <trkpt lat="46.99523" lon="5.99187">
        <ele>752.6</ele>
        <time>2020-12-26T14:25:53Z</time>
      </trkpt>
      <trkpt lat="46.9952" lon="5.99193">
        <ele>752.6</ele>
        <time>2020-12-26T14:25:54Z</time>
      </trkpt>
      <trkpt lat="46.99517" lon="5.99199">
        <ele>752.6</ele>
        <time>2020-12-26T14:25:55Z</time>
      </trkpt>
      <trkpt lat="46.99515" lon="5.99206">
        <ele>752.6</ele>
        <time>2020-12-26T14:25:56Z</time>
      </trkpt>
      <trkpt lat="46.99513" lon="5.99213">
        <ele>752</ele>
        <time>2020-12-26T14:25:57Z</time>
      </trkpt>
      <trkpt lat="46.99512" lon="5.99221">
        <ele>751.6</ele>
        <time>2020-12-26T14:25:58Z</time>
      </trkpt>
      <trkpt lat="46.99512" lon="5.9923">
        <ele>751.4</ele>
        <time>2020-12-26T14:25:59Z</time>
      </trkpt>
      <trkpt lat="46.99513" lon="5.99238">
        <ele>751</ele>
        <time>2020-12-26T14:26:00Z</time>
      </trkpt>
      <trkpt lat="46.99515" lon="5.99247">
        <ele>750.8</ele>
        <time>2020-12-26T14:26:01Z</time>
      </trkpt>
      <trkpt lat="46.99519" lon="5.99255">
        <ele>750.8</ele>
        <time>2020-12-26T14:26:02Z</time>
      </trkpt>
      <trkpt lat="46.99523" lon="5.99262">
        <ele>750.4</ele>
        <time>2020-12-26T14:26:03Z</time>
      </trkpt>
      <trkpt lat="46.99528" lon="5.9927">
        <ele>750</ele>
        <time>2020-12-26T14:26:04Z</time>
      </trkpt>
      <trkpt lat="46.99534" lon="5.99277">
        <ele>749.6</ele>
        <time>2020-12-26T14:26:05Z</time>
      </trkpt>
      <trkpt lat="46.99539" lon="5.99284">
        <ele>749.2</ele>
        <time>2020-12-26T14:26:06Z</time>
      </trkpt>
      <trkpt lat="46.99545" lon="5.99291">
        <ele>749</ele>
        <time>2020-12-26T14:26:07Z</time>
      </trkpt>
      <trkpt lat="46.99552" lon="5.99299">
        <ele>748.6</ele>
        <time>2020-12-26T14:26:08Z</time>
      </trkpt>
      <trkpt lat="46.99558" lon="5.99307">
        <ele>748.4</ele>
        <time>2020-12-26T14:26:09Z</time>
      </trkpt>
      <trkpt lat="46.99565" lon="5.99315">
        <ele>748</ele>
        <time>2020-12-26T14:26:10Z</time>
      </trkpt>
      <trkpt lat="46.99571" lon="5.99323">
        <ele>747.8</ele>
        <time>2020-12-26T14:26:11Z</time>
      </trkpt>
      <trkpt lat="46.99578" lon="5.99331">
        <ele>747.6</ele>
        <time>2020-12-26T14:26:12Z</time>
      </trkpt>
      <trkpt lat="46.99585" lon="5.9934">
        <ele>747.2</ele>
        <time>2020-12-26T14:26:13Z</time>
      </trkpt>
      <trkpt lat="46.99592" lon="5.99349">
        <ele>746.8</ele>
        <time>2020-12-26T14:26:14Z</time>
      </trkpt>
      <trkpt lat="46.99598" lon="5.99358">
        <ele>746.6</ele>
        <time>2020-12-26T14:26:15Z</time>
      </trkpt>
      <trkpt lat="46.99603" lon="5.99368">
        <ele>746.4</ele>
        <time>2020-12-26T14:26:16Z</time>
      </trkpt>
      <trkpt lat="46.99608" lon="5.99379">
        <ele>746</ele>
        <time>2020-12-26T14:26:17Z</time>
      </trkpt>
      <trkpt lat="46.99611" lon="5.9939">
        <ele>745.8</ele>
        <time>2020-12-26T14:26:18Z</time>
      </trkpt>
      <trkpt lat="46.99613" lon="5.99402">
        <ele>745.4</ele>
        <time>2020-12-26T14:26:19Z</time>
      </trkpt>
      <trkpt lat="46.99614" lon="5.99415">
        <ele>745.2</ele>
        <time>2020-12-26T14:26:20Z</time>
      </trkpt>
      <trkpt lat="46.99614" lon="5.99429">
        <ele>744.8</ele>
        <time>2020-12-26T14:26:21Z</time>
      </trkpt>
      <trkpt lat="46.99613" lon="5.99442">
        <ele>744.4</ele>
        <time>2020-12-26T14:26:22Z</time>
      </trkpt>
      <trkpt lat="46.99612" lon="5.99455">
        <ele>744</ele>
        <time>2020-12-26T14:26:23Z</time>
      </trkpt>
      <trkpt lat="46.9961" lon="5.99468">
        <ele>743.8</ele>
        <time>2020-12-26T14:26:24Z</time>
      </trkpt>
      <trkpt lat="46.99608" lon="5.99483">
        <ele>743.4</ele>
        <time>2020-12-26T14:26:25Z</time>
      </trkpt>
      <trkpt lat="46.99606" lon="5.99497">
        <ele>743</ele>
        <time>2020-12-26T14:26:26Z</time>
      </trkpt>
      <trkpt lat="46.99604" lon="5.99512">
        <ele>742.6</ele>
        <time>2020-12-26T14:26:27Z</time>
      </trkpt>
      <trkpt lat="46.99602" lon="5.99527">
        <ele>742.2</ele>
        <time>2020-12-26T14:26:28Z</time>
      </trkpt>
      <trkpt lat="46.99603" lon="5.99539">
        <ele>741.6</ele>
        <time>2020-12-26T14:26:29Z</time>
      </trkpt>
      <trkpt lat="46.99601" lon="5.99552">
        <ele>741</ele>
        <time>2020-12-26T14:26:30Z</time>
      </trkpt>
      <trkpt lat="46.99599" lon="5.99566">
        <ele>740.4</ele>
        <time>2020-12-26T14:26:31Z</time>
      </trkpt>
      <trkpt lat="46.99597" lon="5.9958">
        <ele>739.6</ele>
        <time>2020-12-26T14:26:32Z</time>
      </trkpt>
      <trkpt lat="46.99594" lon="5.99595">
        <ele>739</ele>
        <time>2020-12-26T14:26:33Z</time>
      </trkpt>
      <trkpt lat="46.99589" lon="5.9961">
        <ele>738.2</ele>
        <time>2020-12-26T14:26:34Z</time>
      </trkpt>
      <trkpt lat="46.99586" lon="5.99626">
        <ele>737.4</ele>
        <time>2020-12-26T14:26:35Z</time>
      </trkpt>
      <trkpt lat="46.99586" lon="5.9964">
        <ele>736.6</ele>
        <time>2020-12-26T14:26:36Z</time>
      </trkpt>
      <trkpt lat="46.99587" lon="5.99656">
        <ele>736</ele>
        <time>2020-12-26T14:26:37Z</time>
      </trkpt>
      <trkpt lat="46.99589" lon="5.99671">
        <ele>735.2</ele>
        <time>2020-12-26T14:26:38Z</time>
      </trkpt>
      <trkpt lat="46.99592" lon="5.99686">
        <ele>734.6</ele>
        <time>2020-12-26T14:26:39Z</time>
      </trkpt>
      <trkpt lat="46.99594" lon="5.99698">
        <ele>734</ele>
        <time>2020-12-26T14:26:40Z</time>
      </trkpt>
      <trkpt lat="46.99598" lon="5.99707">
        <ele>733.4</ele>
        <time>2020-12-26T14:26:41Z</time>
      </trkpt>
      <trkpt lat="46.99601" lon="5.99716">
        <ele>732.8</ele>
        <time>2020-12-26T14:26:42Z</time>
      </trkpt>
      <trkpt lat="46.99602" lon="5.99724">
        <ele>732.2</ele>
        <time>2020-12-26T14:26:43Z</time>
      </trkpt>
      <trkpt lat="46.99601" lon="5.99732">
        <ele>731.8</ele>
        <time>2020-12-26T14:26:44Z</time>
      </trkpt>
      <trkpt lat="46.99599" lon="5.99738">
        <ele>731.2</ele>
        <time>2020-12-26T14:26:45Z</time>
      </trkpt>
      <trkpt lat="46.99595" lon="5.99743">
        <ele>730.8</ele>
        <time>2020-12-26T14:26:46Z</time>
      </trkpt>
      <trkpt lat="46.9959" lon="5.99744">
        <ele>730.4</ele>
        <time>2020-12-26T14:26:47Z</time>
      </trkpt>
      <trkpt lat="46.99584" lon="5.99743">
        <ele>730</ele>
        <time>2020-12-26T14:26:48Z</time>
      </trkpt>
      <trkpt lat="46.99578" lon="5.99742">
        <ele>729.4</ele>
        <time>2020-12-26T14:26:49Z</time>
      </trkpt>
      <trkpt lat="46.99573" lon="5.99739">
        <ele>729</ele>
        <time>2020-12-26T14:26:50Z</time>
      </trkpt>
      <trkpt lat="46.99567" lon="5.99736">
        <ele>728.6</ele>
        <time>2020-12-26T14:26:51Z</time>
      </trkpt>
      <trkpt lat="46.99561" lon="5.99732">
        <ele>728.2</ele>
        <time>2020-12-26T14:26:52Z</time>
      </trkpt>
      <trkpt lat="46.99555" lon="5.99727">
        <ele>727.6</ele>
        <time>2020-12-26T14:26:53Z</time>
      </trkpt>
      <trkpt lat="46.99547" lon="5.9972">
        <ele>727.2</ele>
        <time>2020-12-26T14:26:54Z</time>
      </trkpt>
      <trkpt lat="46.99539" lon="5.99713">
        <ele>726.6</ele>
        <time>2020-12-26T14:26:55Z</time>
      </trkpt>
      <trkpt lat="46.99531" lon="5.99705">
        <ele>726</ele>
        <time>2020-12-26T14:26:56Z</time>
      </trkpt>
      <trkpt lat="46.99523" lon="5.99696">
        <ele>725.4</ele>
        <time>2020-12-26T14:26:57Z</time>
      </trkpt>
      <trkpt lat="46.99517" lon="5.99687">
        <ele>724.8</ele>
        <time>2020-12-26T14:26:58Z</time>
      </trkpt>
      <trkpt lat="46.9951" lon="5.99676">
        <ele>724</ele>
        <time>2020-12-26T14:26:59Z</time>
      </trkpt>
      <trkpt lat="46.99505" lon="5.99665">
        <ele>723.4</ele>
        <time>2020-12-26T14:27:00Z</time>
      </trkpt>
      <trkpt lat="46.99501" lon="5.99652">
        <ele>723</ele>
        <time>2020-12-26T14:27:01Z</time>
      </trkpt>
      <trkpt lat="46.99498" lon="5.99639">
        <ele>722.2</ele>
        <time>2020-12-26T14:27:02Z</time>
      </trkpt>
      <trkpt lat="46.99498" lon="5.99625">
        <ele>721.6</ele>
        <time>2020-12-26T14:27:03Z</time>
      </trkpt>
      <trkpt lat="46.99498" lon="5.99611">
        <ele>721.2</ele>
        <time>2020-12-26T14:27:04Z</time>
      </trkpt>
      <trkpt lat="46.995" lon="5.996">
        <ele>720.6</ele>
        <time>2020-12-26T14:27:05Z</time>
      </trkpt>
      <trkpt lat="46.99501" lon="5.99589">
        <ele>720</ele>
        <time>2020-12-26T14:27:06Z</time>
      </trkpt>
      <trkpt lat="46.99501" lon="5.9958">
        <ele>719.6</ele>
        <time>2020-12-26T14:27:07Z</time>
      </trkpt>
      <trkpt lat="46.99499" lon="5.99575">
        <ele>719</ele>
        <time>2020-12-26T14:27:08Z</time>
      </trkpt>
      <trkpt lat="46.99497" lon="5.9957">
        <ele>718.6</ele>
        <time>2020-12-26T14:27:09Z</time>
      </trkpt>
      <trkpt lat="46.99491" lon="5.99566">
        <ele>718</ele>
        <time>2020-12-26T14:27:10Z</time>
      </trkpt>
      <trkpt lat="46.99485" lon="5.99569">
        <ele>717.4</ele>
        <time>2020-12-26T14:27:11Z</time>
      </trkpt>
      <trkpt lat="46.9948" lon="5.99575">
        <ele>716.8</ele>
        <time>2020-12-26T14:27:12Z</time>
      </trkpt>
      <trkpt lat="46.99476" lon="5.99584">
        <ele>716.6</ele>
        <time>2020-12-26T14:27:13Z</time>
      </trkpt>
      <trkpt lat="46.99473" lon="5.99593">
        <ele>716.2</ele>
        <time>2020-12-26T14:27:14Z</time>
      </trkpt>
      <trkpt lat="46.9947" lon="5.99604">
        <ele>715.8</ele>
        <time>2020-12-26T14:27:15Z</time>
      </trkpt>
      <trkpt lat="46.99467" lon="5.99615">
        <ele>715.2</ele>
        <time>2020-12-26T14:27:16Z</time>
      </trkpt>
      <trkpt lat="46.99464" lon="5.99627">
        <ele>714.8</ele>
        <time>2020-12-26T14:27:17Z</time>
      </trkpt>
      <trkpt lat="46.9946" lon="5.99641">
        <ele>714</ele>
        <time>2020-12-26T14:27:18Z</time>
      </trkpt>
      <trkpt lat="46.99458" lon="5.99654">
        <ele>713.4</ele>
        <time>2020-12-26T14:27:19Z</time>
      </trkpt>
      <trkpt lat="46.99455" lon="5.99669">
        <ele>712.8</ele>
        <time>2020-12-26T14:27:20Z</time>
      </trkpt>
      <trkpt lat="46.99452" lon="5.99683">
        <ele>712</ele>
        <time>2020-12-26T14:27:21Z</time>
      </trkpt>
      <trkpt lat="46.9945" lon="5.99698">
        <ele>711.4</ele>
        <time>2020-12-26T14:27:22Z</time>
      </trkpt>
      <trkpt lat="46.99448" lon="5.99713">
        <ele>710.8</ele>
        <time>2020-12-26T14:27:23Z</time>
      </trkpt>
      <trkpt lat="46.99445" lon="5.99729">
        <ele>710</ele>
        <time>2020-12-26T14:27:24Z</time>
      </trkpt>
      <trkpt lat="46.99443" lon="5.99744">
        <ele>709.4</ele>
        <time>2020-12-26T14:27:25Z</time>
      </trkpt>
      <trkpt lat="46.99443" lon="5.99759">
        <ele>708.6</ele>
        <time>2020-12-26T14:27:26Z</time>
      </trkpt>
      <trkpt lat="46.99442" lon="5.99774">
        <ele>708</ele>
        <time>2020-12-26T14:27:27Z</time>
      </trkpt>
      <trkpt lat="46.99442" lon="5.9979">
        <ele>707.4</ele>
        <time>2020-12-26T14:27:28Z</time>
      </trkpt>
      <trkpt lat="46.99443" lon="5.99807">
        <ele>706.6</ele>
        <time>2020-12-26T14:27:29Z</time>
      </trkpt>
      <trkpt lat="46.99443" lon="5.99823">
        <ele>705.8</ele>
        <time>2020-12-26T14:27:30Z</time>
      </trkpt>
      <trkpt lat="46.99444" lon="5.99839">
        <ele>705.2</ele>
        <time>2020-12-26T14:27:31Z</time>
      </trkpt>
      <trkpt lat="46.99446" lon="5.99856">
        <ele>704.4</ele>
        <time>2020-12-26T14:27:32Z</time>
      </trkpt>
      <trkpt lat="46.99448" lon="5.99872">
        <ele>703.4</ele>
        <time>2020-12-26T14:27:33Z</time>
      </trkpt>
      <trkpt lat="46.99452" lon="5.99888">
        <ele>702.6</ele>
        <time>2020-12-26T14:27:34Z</time>
      </trkpt>
      <trkpt lat="46.99456" lon="5.99905">
        <ele>702</ele>
        <time>2020-12-26T14:27:35Z</time>
      </trkpt>
      <trkpt lat="46.9946" lon="5.99921">
        <ele>701.2</ele>
        <time>2020-12-26T14:27:36Z</time>
      </trkpt>
      <trkpt lat="46.99464" lon="5.99937">
        <ele>700.4</ele>
        <time>2020-12-26T14:27:37Z</time>
      </trkpt>
      <trkpt lat="46.99468" lon="5.99954">
        <ele>699.6</ele>
        <time>2020-12-26T14:27:38Z</time>
      </trkpt>
      <trkpt lat="46.99472" lon="5.9997">
        <ele>698.8</ele>
        <time>2020-12-26T14:27:39Z</time>
      </trkpt>
      <trkpt lat="46.99476" lon="5.99986">
        <ele>698.2</ele>
        <time>2020-12-26T14:27:40Z</time>
      </trkpt>
      <trkpt lat="46.9948" lon="5.99999">
        <ele>697.4</ele>
        <time>2020-12-26T14:27:41Z</time>
      </trkpt>
      <trkpt lat="46.99485" lon="6.00012">
        <ele>696.8</ele>
        <time>2020-12-26T14:27:42Z</time>
      </trkpt>
      <trkpt lat="46.9949" lon="6.00023">
        <ele>696.2</ele>
        <time>2020-12-26T14:27:43Z</time>
      </trkpt>
      <trkpt lat="46.99497" lon="6.00032">
        <ele>695.4</ele>
        <time>2020-12-26T14:27:44Z</time>
      </trkpt>
      <trkpt lat="46.99504" lon="6.00041">
        <ele>695</ele>
        <time>2020-12-26T14:27:45Z</time>
      </trkpt>
      <trkpt lat="46.99511" lon="6.00047">
        <ele>694.4</ele>
        <time>2020-12-26T14:27:46Z</time>
      </trkpt>
      <trkpt lat="46.99517" lon="6.00053">
        <ele>694</ele>
        <time>2020-12-26T14:27:47Z</time>
      </trkpt>
      <trkpt lat="46.99521" lon="6.0006">
        <ele>693.6</ele>
        <time>2020-12-26T14:27:48Z</time>
      </trkpt>
      <trkpt lat="46.99524" lon="6.00066">
        <ele>693.2</ele>
        <time>2020-12-26T14:27:49Z</time>
      </trkpt>
      <trkpt lat="46.99524" lon="6.00074">
        <ele>692.8</ele>
        <time>2020-12-26T14:27:50Z</time>
      </trkpt>
      <trkpt lat="46.99523" lon="6.00081">
        <ele>692.4</ele>
        <time>2020-12-26T14:27:51Z</time>
      </trkpt>
      <trkpt lat="46.9952" lon="6.00086">
        <ele>691.8</ele>
        <time>2020-12-26T14:27:52Z</time>
      </trkpt>
      <trkpt lat="46.99516" lon="6.00087">
        <ele>691.4</ele>
        <time>2020-12-26T14:27:53Z</time>
      </trkpt>
      <trkpt lat="46.99511" lon="6.00083">
        <ele>691</ele>
        <time>2020-12-26T14:27:54Z</time>
      </trkpt>
      <trkpt lat="46.99505" lon="6.00077">
        <ele>690.8</ele>
        <time>2020-12-26T14:27:55Z</time>
      </trkpt>
      <trkpt lat="46.99499" lon="6.0007">
        <ele>690.2</ele>
        <time>2020-12-26T14:27:56Z</time>
      </trkpt>
      <trkpt lat="46.99493" lon="6.00063">
        <ele>689.8</ele>
        <time>2020-12-26T14:27:57Z</time>
      </trkpt>
      <trkpt lat="46.99486" lon="6.00055">
        <ele>689.2</ele>
        <time>2020-12-26T14:27:58Z</time>
      </trkpt>
      <trkpt lat="46.9948" lon="6.00047">
        <ele>688.8</ele>
        <time>2020-12-26T14:27:59Z</time>
      </trkpt>
      <trkpt lat="46.99473" lon="6.00039">
        <ele>688.2</ele>
        <time>2020-12-26T14:28:00Z</time>
      </trkpt>
      <trkpt lat="46.99466" lon="6.00031">
        <ele>687.8</ele>
        <time>2020-12-26T14:28:01Z</time>
      </trkpt>
      <trkpt lat="46.99457" lon="6.00024">
        <ele>687.2</ele>
        <time>2020-12-26T14:28:02Z</time>
      </trkpt>
      <trkpt lat="46.99449" lon="6.00016">
        <ele>686.4</ele>
        <time>2020-12-26T14:28:03Z</time>
      </trkpt>
      <trkpt lat="46.9944" lon="6.00008">
        <ele>685.8</ele>
        <time>2020-12-26T14:28:04Z</time>
      </trkpt>
      <trkpt lat="46.99431" lon="6.00001">
        <ele>685.2</ele>
        <time>2020-12-26T14:28:05Z</time>
      </trkpt>
      <trkpt lat="46.99421" lon="5.99994">
        <ele>684.6</ele>
        <time>2020-12-26T14:28:06Z</time>
      </trkpt>
      <trkpt lat="46.99412" lon="5.99987">
        <ele>683.8</ele>
        <time>2020-12-26T14:28:07Z</time>
      </trkpt>
      <trkpt lat="46.99402" lon="5.9998">
        <ele>683</ele>
        <time>2020-12-26T14:28:08Z</time>
      </trkpt>
      <trkpt lat="46.99391" lon="5.99974">
        <ele>682.2</ele>
        <time>2020-12-26T14:28:09Z</time>
      </trkpt>
      <trkpt lat="46.99381" lon="5.99966">
        <ele>681.4</ele>
        <time>2020-12-26T14:28:10Z</time>
      </trkpt>
      <trkpt lat="46.99371" lon="5.99958">
        <ele>680.6</ele>
        <time>2020-12-26T14:28:11Z</time>
      </trkpt>
      <trkpt lat="46.99362" lon="5.99949">
        <ele>679.8</ele>
        <time>2020-12-26T14:28:12Z</time>
      </trkpt>
      <trkpt lat="46.99352" lon="5.99939">
        <ele>679</ele>
        <time>2020-12-26T14:28:13Z</time>
      </trkpt>
      <trkpt lat="46.99344" lon="5.99927">
        <ele>678.2</ele>
        <time>2020-12-26T14:28:14Z</time>
      </trkpt>
      <trkpt lat="46.99336" lon="5.99915">
        <ele>677.4</ele>
        <time>2020-12-26T14:28:15Z</time>
      </trkpt>
      <trkpt lat="46.99328" lon="5.99901">
        <ele>676.6</ele>
        <time>2020-12-26T14:28:16Z</time>
      </trkpt>
      <trkpt lat="46.99322" lon="5.99888">
        <ele>676</ele>
        <time>2020-12-26T14:28:17Z</time>
      </trkpt>
      <trkpt lat="46.99316" lon="5.99874">
        <ele>675.2</ele>
        <time>2020-12-26T14:28:18Z</time>
      </trkpt>
      <trkpt lat="46.9931" lon="5.99858">
        <ele>674.2</ele>
        <time>2020-12-26T14:28:19Z</time>
      </trkpt>
      <trkpt lat="46.99306" lon="5.99843">
        <ele>673.6</ele>
        <time>2020-12-26T14:28:20Z</time>
      </trkpt>
      <trkpt lat="46.99303" lon="5.99828">
        <ele>672.8</ele>
        <time>2020-12-26T14:28:21Z</time>
      </trkpt>
      <trkpt lat="46.99301" lon="5.99814">
        <ele>672.2</ele>
        <time>2020-12-26T14:28:22Z</time>
      </trkpt>
      <trkpt lat="46.993" lon="5.99801">
        <ele>671.4</ele>
        <time>2020-12-26T14:28:23Z</time>
      </trkpt>
      <trkpt lat="46.99299" lon="5.99791">
        <ele>670.8</ele>
        <time>2020-12-26T14:28:24Z</time>
      </trkpt>
      <trkpt lat="46.99296" lon="5.99782">
        <ele>670.4</ele>
        <time>2020-12-26T14:28:25Z</time>
      </trkpt>
      <trkpt lat="46.99291" lon="5.99775">
        <ele>669.8</ele>
        <time>2020-12-26T14:28:26Z</time>
      </trkpt>
      <trkpt lat="46.99285" lon="5.99769">
        <ele>669.4</ele>
        <time>2020-12-26T14:28:27Z</time>
      </trkpt>
      <trkpt lat="46.99279" lon="5.99764">
        <ele>668.8</ele>
        <time>2020-12-26T14:28:28Z</time>
      </trkpt>
      <trkpt lat="46.99271" lon="5.99761">
        <ele>668.4</ele>
        <time>2020-12-26T14:28:29Z</time>
      </trkpt>
      <trkpt lat="46.99262" lon="5.99761">
        <ele>667.6</ele>
        <time>2020-12-26T14:28:30Z</time>
      </trkpt>
      <trkpt lat="46.99253" lon="5.99763">
        <ele>667</ele>
        <time>2020-12-26T14:28:31Z</time>
      </trkpt>
      <trkpt lat="46.99245" lon="5.99766">
        <ele>666.2</ele>
        <time>2020-12-26T14:28:32Z</time>
      </trkpt>
      <trkpt lat="46.99237" lon="5.99771">
        <ele>665.6</ele>
        <time>2020-12-26T14:28:33Z</time>
      </trkpt>
      <trkpt lat="46.99228" lon="5.99776">
        <ele>664.8</ele>
        <time>2020-12-26T14:28:34Z</time>
      </trkpt>
      <trkpt lat="46.99219" lon="5.99782">
        <ele>664</ele>
        <time>2020-12-26T14:28:35Z</time>
      </trkpt>
      <trkpt lat="46.9921" lon="5.99789">
        <ele>663.2</ele>
        <time>2020-12-26T14:28:36Z</time>
      </trkpt>
      <trkpt lat="46.99201" lon="5.99796">
        <ele>662.6</ele>
        <time>2020-12-26T14:28:37Z</time>
      </trkpt>
      <trkpt lat="46.99191" lon="5.99803">
        <ele>661.8</ele>
        <time>2020-12-26T14:28:38Z</time>
      </trkpt>
      <trkpt lat="46.99181" lon="5.99809">
        <ele>661</ele>
        <time>2020-12-26T14:28:39Z</time>
      </trkpt>
      <trkpt lat="46.99172" lon="5.99813">
        <ele>660.2</ele>
        <time>2020-12-26T14:28:40Z</time>
      </trkpt>
      <trkpt lat="46.99162" lon="5.99816">
        <ele>659.6</ele>
        <time>2020-12-26T14:28:41Z</time>
      </trkpt>
      <trkpt lat="46.99153" lon="5.99819">
        <ele>659</ele>
        <time>2020-12-26T14:28:42Z</time>
      </trkpt>
      <trkpt lat="46.99142" lon="5.99822">
        <ele>658.2</ele>
        <time>2020-12-26T14:28:43Z</time>
      </trkpt>
      <trkpt lat="46.99133" lon="5.99823">
        <ele>657.6</ele>
        <time>2020-12-26T14:28:44Z</time>
      </trkpt>
      <trkpt lat="46.99124" lon="5.99823">
        <ele>656.8</ele>
        <time>2020-12-26T14:28:45Z</time>
      </trkpt>
      <trkpt lat="46.99115" lon="5.9982">
        <ele>656.2</ele>
        <time>2020-12-26T14:28:46Z</time>
      </trkpt>
      <trkpt lat="46.99107" lon="5.99817">
        <ele>655.6</ele>
        <time>2020-12-26T14:28:47Z</time>
      </trkpt>
      <trkpt lat="46.99099" lon="5.99812">
        <ele>654.8</ele>
        <time>2020-12-26T14:28:48Z</time>
      </trkpt>
      <trkpt lat="46.99091" lon="5.99803">
        <ele>654</ele>
        <time>2020-12-26T14:28:49Z</time>
      </trkpt>
      <trkpt lat="46.99083" lon="5.99793">
        <ele>653.4</ele>
        <time>2020-12-26T14:28:50Z</time>
      </trkpt>
      <trkpt lat="46.99074" lon="5.99784">
        <ele>652.6</ele>
        <time>2020-12-26T14:28:51Z</time>
      </trkpt>
      <trkpt lat="46.99065" lon="5.99777">
        <ele>651.8</ele>
        <time>2020-12-26T14:28:52Z</time>
      </trkpt>
      <trkpt lat="46.99055" lon="5.9977">
        <ele>651</ele>
        <time>2020-12-26T14:28:53Z</time>
      </trkpt>
      <trkpt lat="46.99045" lon="5.99764">
        <ele>650.4</ele>
        <time>2020-12-26T14:28:54Z</time>
      </trkpt>
      <trkpt lat="46.99035" lon="5.99758">
        <ele>649.8</ele>
        <time>2020-12-26T14:28:55Z</time>
      </trkpt>
      <trkpt lat="46.99024" lon="5.99754">
        <ele>649</ele>
        <time>2020-12-26T14:28:56Z</time>
      </trkpt>
      <trkpt lat="46.99012" lon="5.99749">
        <ele>648.4</ele>
        <time>2020-12-26T14:28:57Z</time>
      </trkpt>
      <trkpt lat="46.99001" lon="5.99746">
        <ele>647.8</ele>
        <time>2020-12-26T14:28:58Z</time>
      </trkpt>
      <trkpt lat="46.9899" lon="5.99745">
        <ele>647</ele>
        <time>2020-12-26T14:28:59Z</time>
      </trkpt>
      <trkpt lat="46.98979" lon="5.99744">
        <ele>646.2</ele>
        <time>2020-12-26T14:29:00Z</time>
      </trkpt>
      <trkpt lat="46.98967" lon="5.99743">
        <ele>645.2</ele>
        <time>2020-12-26T14:29:01Z</time>
      </trkpt>
      <trkpt lat="46.98956" lon="5.99742">
        <ele>644.4</ele>
        <time>2020-12-26T14:29:02Z</time>
      </trkpt>
      <trkpt lat="46.98944" lon="5.99742">
        <ele>643.4</ele>
        <time>2020-12-26T14:29:03Z</time>
      </trkpt>
      <trkpt lat="46.98933" lon="5.99741">
        <ele>642.4</ele>
        <time>2020-12-26T14:29:04Z</time>
      </trkpt>
      <trkpt lat="46.98923" lon="5.99739">
        <ele>641.6</ele>
        <time>2020-12-26T14:29:05Z</time>
      </trkpt>
      <trkpt lat="46.98912" lon="5.99735">
        <ele>640.6</ele>
        <time>2020-12-26T14:29:06Z</time>
      </trkpt>
      <trkpt lat="46.98903" lon="5.99732">
        <ele>639.8</ele>
        <time>2020-12-26T14:29:07Z</time>
      </trkpt>
      <trkpt lat="46.98896" lon="5.99727">
        <ele>639</ele>
        <time>2020-12-26T14:29:08Z</time>
      </trkpt>
      <trkpt lat="46.98889" lon="5.99719">
        <ele>638.4</ele>
        <time>2020-12-26T14:29:09Z</time>
      </trkpt>
      <trkpt lat="46.98883" lon="5.9971">
        <ele>638</ele>
        <time>2020-12-26T14:29:10Z</time>
      </trkpt>
      <trkpt lat="46.98879" lon="5.99702">
        <ele>637.4</ele>
        <time>2020-12-26T14:29:11Z</time>
      </trkpt>
      <trkpt lat="46.98874" lon="5.99694">
        <ele>636.8</ele>
        <time>2020-12-26T14:29:12Z</time>
      </trkpt>
      <trkpt lat="46.98868" lon="5.99688">
        <ele>636.4</ele>
        <time>2020-12-26T14:29:13Z</time>
      </trkpt>
      <trkpt lat="46.98862" lon="5.99683">
        <ele>635.8</ele>
        <time>2020-12-26T14:29:14Z</time>
      </trkpt>
      <trkpt lat="46.98857" lon="5.99681">
        <ele>635.4</ele>
        <time>2020-12-26T14:29:15Z</time>
      </trkpt>
      <trkpt lat="46.98852" lon="5.99683">
        <ele>634.8</ele>
        <time>2020-12-26T14:29:16Z</time>
      </trkpt>
      <trkpt lat="46.98847" lon="5.99688">
        <ele>634.4</ele>
        <time>2020-12-26T14:29:17Z</time>
      </trkpt>
      <trkpt lat="46.98844" lon="5.99697">
        <ele>634</ele>
        <time>2020-12-26T14:29:18Z</time>
      </trkpt>
      <trkpt lat="46.98844" lon="5.99705">
        <ele>633.6</ele>
        <time>2020-12-26T14:29:19Z</time>
      </trkpt>
      <trkpt lat="46.98846" lon="5.99713">
        <ele>633.4</ele>
        <time>2020-12-26T14:29:20Z</time>
      </trkpt>
      <trkpt lat="46.98848" lon="5.99719">
        <ele>633.4</ele>
        <time>2020-12-26T14:29:21Z</time>
      </trkpt>
      <trkpt lat="46.98851" lon="5.99725">
        <ele>633.4</ele>
        <time>2020-12-26T14:29:22Z</time>
      </trkpt>
      <trkpt lat="46.98856" lon="5.9973">
        <ele>633.4</ele>
        <time>2020-12-26T14:29:23Z</time>
      </trkpt>
      <trkpt lat="46.98861" lon="5.99736">
        <ele>633</ele>
        <time>2020-12-26T14:29:24Z</time>
      </trkpt>
      <trkpt lat="46.98867" lon="5.99741">
        <ele>633</ele>
        <time>2020-12-26T14:29:25Z</time>
      </trkpt>
      <trkpt lat="46.98873" lon="5.99747">
        <ele>632.6</ele>
        <time>2020-12-26T14:29:26Z</time>
      </trkpt>
      <trkpt lat="46.98879" lon="5.99752">
        <ele>632.4</ele>
        <time>2020-12-26T14:29:27Z</time>
      </trkpt>
      <trkpt lat="46.98886" lon="5.99757">
        <ele>632.2</ele>
        <time>2020-12-26T14:29:28Z</time>
      </trkpt>
      <trkpt lat="46.98892" lon="5.99763">
        <ele>631.8</ele>
        <time>2020-12-26T14:29:29Z</time>
      </trkpt>
      <trkpt lat="46.98899" lon="5.99768">
        <ele>631.6</ele>
        <time>2020-12-26T14:29:30Z</time>
      </trkpt>
      <trkpt lat="46.98906" lon="5.99773">
        <ele>631.2</ele>
        <time>2020-12-26T14:29:31Z</time>
      </trkpt>
      <trkpt lat="46.98913" lon="5.99778">
        <ele>630.6</ele>
        <time>2020-12-26T14:29:32Z</time>
      </trkpt>
      <trkpt lat="46.9892" lon="5.99783">
        <ele>630.2</ele>
        <time>2020-12-26T14:29:33Z</time>
      </trkpt>
      <trkpt lat="46.98927" lon="5.9979">
        <ele>629.6</ele>
        <time>2020-12-26T14:29:34Z</time>
      </trkpt>
      <trkpt lat="46.98933" lon="5.99797">
        <ele>628.8</ele>
        <time>2020-12-26T14:29:35Z</time>
      </trkpt>
      <trkpt lat="46.98938" lon="5.99805">
        <ele>628.2</ele>
        <time>2020-12-26T14:29:36Z</time>
      </trkpt>
      <trkpt lat="46.98943" lon="5.99814">
        <ele>627.6</ele>
        <time>2020-12-26T14:29:37Z</time>
      </trkpt>
      <trkpt lat="46.98946" lon="5.99824">
        <ele>627</ele>
        <time>2020-12-26T14:29:38Z</time>
      </trkpt>
      <trkpt lat="46.98948" lon="5.99835">
        <ele>626.2</ele>
        <time>2020-12-26T14:29:39Z</time>
      </trkpt>
      <trkpt lat="46.9895" lon="5.99846">
        <ele>625.4</ele>
        <time>2020-12-26T14:29:40Z</time>
      </trkpt>
      <trkpt lat="46.98952" lon="5.99857">
        <ele>624.8</ele>
        <time>2020-12-26T14:29:41Z</time>
      </trkpt>
      <trkpt lat="46.98954" lon="5.9987">
        <ele>624.2</ele>
        <time>2020-12-26T14:29:42Z</time>
      </trkpt>
      <trkpt lat="46.98958" lon="5.99884">
        <ele>623.6</ele>
        <time>2020-12-26T14:29:43Z</time>
      </trkpt>
      <trkpt lat="46.98962" lon="5.99896">
        <ele>623</ele>
        <time>2020-12-26T14:29:44Z</time>
      </trkpt>
      <trkpt lat="46.98968" lon="5.99909">
        <ele>622.4</ele>
        <time>2020-12-26T14:29:45Z</time>
      </trkpt>
      <trkpt lat="46.98975" lon="5.99924">
        <ele>621.8</ele>
        <time>2020-12-26T14:29:46Z</time>
      </trkpt>
      <trkpt lat="46.98982" lon="5.99935">
        <ele>621.2</ele>
        <time>2020-12-26T14:29:47Z</time>
      </trkpt>
      <trkpt lat="46.9899" lon="5.99943">
        <ele>620.4</ele>
        <time>2020-12-26T14:29:48Z</time>
      </trkpt>
      <trkpt lat="46.99" lon="5.9995">
        <ele>619.8</ele>
        <time>2020-12-26T14:29:49Z</time>
      </trkpt>
      <trkpt lat="46.99009" lon="5.99957">
        <ele>619.2</ele>
        <time>2020-12-26T14:29:50Z</time>
      </trkpt>
      <trkpt lat="46.9902" lon="5.99962">
        <ele>618.6</ele>
        <time>2020-12-26T14:29:51Z</time>
      </trkpt>
      <trkpt lat="46.9903" lon="5.99966">
        <ele>617.8</ele>
        <time>2020-12-26T14:29:52Z</time>
      </trkpt>
      <trkpt lat="46.99041" lon="5.99971">
        <ele>617</ele>
        <time>2020-12-26T14:29:53Z</time>
      </trkpt>
      <trkpt lat="46.99052" lon="5.99976">
        <ele>616.2</ele>
        <time>2020-12-26T14:29:54Z</time>
      </trkpt>
      <trkpt lat="46.99062" lon="5.99982">
        <ele>615.4</ele>
        <time>2020-12-26T14:29:55Z</time>
      </trkpt>
      <trkpt lat="46.99074" lon="5.99989">
        <ele>614.8</ele>
        <time>2020-12-26T14:29:56Z</time>
      </trkpt>
      <trkpt lat="46.99086" lon="5.99995">
        <ele>614.2</ele>
        <time>2020-12-26T14:29:57Z</time>
      </trkpt>
      <trkpt lat="46.99097" lon="5.99999">
        <ele>613.8</ele>
        <time>2020-12-26T14:29:58Z</time>
      </trkpt>
      <trkpt lat="46.99106" lon="6.00003">
        <ele>613.2</ele>
        <time>2020-12-26T14:29:59Z</time>
      </trkpt>
      <trkpt lat="46.99113" lon="6.00005">
        <ele>612.8</ele>
        <time>2020-12-26T14:30:00Z</time>
      </trkpt>
      <trkpt lat="46.99119" lon="6.0001">
        <ele>612.4</ele>
        <time>2020-12-26T14:30:01Z</time>
      </trkpt>
      <trkpt lat="46.99123" lon="6.00015">
        <ele>612</ele>
        <time>2020-12-26T14:30:02Z</time>
      </trkpt>
      <trkpt lat="46.99125" lon="6.0002">
        <ele>611.6</ele>
        <time>2020-12-26T14:30:03Z</time>
      </trkpt>
      <trkpt lat="46.99122" lon="6.00027">
        <ele>611</ele>
        <time>2020-12-26T14:30:04Z</time>
      </trkpt>
      <trkpt lat="46.99118" lon="6.00032">
        <ele>610.6</ele>
        <time>2020-12-26T14:30:05Z</time>
      </trkpt>
      <trkpt lat="46.99112" lon="6.00034">
        <ele>610.2</ele>
        <time>2020-12-26T14:30:06Z</time>
      </trkpt>
      <trkpt lat="46.99104" lon="6.00034">
        <ele>609.6</ele>
        <time>2020-12-26T14:30:07Z</time>
      </trkpt>
      <trkpt lat="46.99097" lon="6.00032">
        <ele>609.4</ele>
        <time>2020-12-26T14:30:08Z</time>
      </trkpt>
      <trkpt lat="46.99089" lon="6.0003">
        <ele>608.8</ele>
        <time>2020-12-26T14:30:09Z</time>
      </trkpt>
      <trkpt lat="46.99082" lon="6.00028">
        <ele>608.4</ele>
        <time>2020-12-26T14:30:10Z</time>
      </trkpt>
      <trkpt lat="46.99075" lon="6.00025">
        <ele>607.8</ele>
        <time>2020-12-26T14:30:11Z</time>
      </trkpt>
      <trkpt lat="46.99066" lon="6.00023">
        <ele>607.4</ele>
        <time>2020-12-26T14:30:12Z</time>
      </trkpt>
      <trkpt lat="46.99058" lon="6.0002">
        <ele>606.8</ele>
        <time>2020-12-26T14:30:13Z</time>
      </trkpt>
      <trkpt lat="46.99049" lon="6.00016">
        <ele>606.2</ele>
        <time>2020-12-26T14:30:14Z</time>
      </trkpt>
      <trkpt lat="46.9904" lon="6.00011">
        <ele>605.8</ele>
        <time>2020-12-26T14:30:15Z</time>
      </trkpt>
      <trkpt lat="46.99032" lon="6.00005">
        <ele>605</ele>
        <time>2020-12-26T14:30:16Z</time>
      </trkpt>
      <trkpt lat="46.99023" lon="6.00001">
        <ele>604.4</ele>
        <time>2020-12-26T14:30:17Z</time>
      </trkpt>
      <trkpt lat="46.99013" lon="5.99998">
        <ele>603.6</ele>
        <time>2020-12-26T14:30:18Z</time>
      </trkpt>
      <trkpt lat="46.99002" lon="5.99996">
        <ele>602.8</ele>
        <time>2020-12-26T14:30:19Z</time>
      </trkpt>
      <trkpt lat="46.98992" lon="5.99993">
        <ele>602</ele>
        <time>2020-12-26T14:30:20Z</time>
      </trkpt>
      <trkpt lat="46.98981" lon="5.9999">
        <ele>601</ele>
        <time>2020-12-26T14:30:21Z</time>
      </trkpt>
      <trkpt lat="46.98969" lon="5.99988">
        <ele>600</ele>
        <time>2020-12-26T14:30:22Z</time>
      </trkpt>
      <trkpt lat="46.98958" lon="5.99984">
        <ele>599.2</ele>
        <time>2020-12-26T14:30:23Z</time>
      </trkpt>
      <trkpt lat="46.98946" lon="5.99981">
        <ele>598.2</ele>
        <time>2020-12-26T14:30:24Z</time>
      </trkpt>
      <trkpt lat="46.98934" lon="5.99979">
        <ele>597.4</ele>
        <time>2020-12-26T14:30:25Z</time>
      </trkpt>
      <trkpt lat="46.98921" lon="5.99976">
        <ele>596.4</ele>
        <time>2020-12-26T14:30:26Z</time>
      </trkpt>
      <trkpt lat="46.98908" lon="5.99972">
        <ele>595.6</ele>
        <time>2020-12-26T14:30:27Z</time>
      </trkpt>
      <trkpt lat="46.98894" lon="5.9997">
        <ele>594.8</ele>
        <time>2020-12-26T14:30:28Z</time>
      </trkpt>
      <trkpt lat="46.98881" lon="5.99965">
        <ele>594</ele>
        <time>2020-12-26T14:30:29Z</time>
      </trkpt>
      <trkpt lat="46.98868" lon="5.99959">
        <ele>593</ele>
        <time>2020-12-26T14:30:30Z</time>
      </trkpt>
      <trkpt lat="46.98856" lon="5.99952">
        <ele>592.2</ele>
        <time>2020-12-26T14:30:31Z</time>
      </trkpt>
      <trkpt lat="46.98843" lon="5.99945">
        <ele>591.4</ele>
        <time>2020-12-26T14:30:32Z</time>
      </trkpt>
      <trkpt lat="46.98831" lon="5.99939">
        <ele>590.4</ele>
        <time>2020-12-26T14:30:33Z</time>
      </trkpt>
      <trkpt lat="46.98819" lon="5.99932">
        <ele>589.6</ele>
        <time>2020-12-26T14:30:34Z</time>
      </trkpt>
      <trkpt lat="46.98808" lon="5.99926">
        <ele>588.8</ele>
        <time>2020-12-26T14:30:35Z</time>
      </trkpt>
      <trkpt lat="46.98797" lon="5.99919">
        <ele>588</ele>
        <time>2020-12-26T14:30:36Z</time>
      </trkpt>
      <trkpt lat="46.98786" lon="5.99911">
        <ele>587.2</ele>
        <time>2020-12-26T14:30:37Z</time>
      </trkpt>
      <trkpt lat="46.98776" lon="5.99903">
        <ele>586.4</ele>
        <time>2020-12-26T14:30:38Z</time>
      </trkpt>
      <trkpt lat="46.98766" lon="5.99893">
        <ele>585.4</ele>
        <time>2020-12-26T14:30:39Z</time>
      </trkpt>
      <trkpt lat="46.98756" lon="5.99883">
        <ele>584.8</ele>
        <time>2020-12-26T14:30:40Z</time>
      </trkpt>
      <trkpt lat="46.98746" lon="5.99872">
        <ele>584</ele>
        <time>2020-12-26T14:30:41Z</time>
      </trkpt>
      <trkpt lat="46.98737" lon="5.99863">
        <ele>583.4</ele>
        <time>2020-12-26T14:30:42Z</time>
      </trkpt>
      <trkpt lat="46.98729" lon="5.99854">
        <ele>582.6</ele>
        <time>2020-12-26T14:30:43Z</time>
      </trkpt>
      <trkpt lat="46.98721" lon="5.99846">
        <ele>581.8</ele>
        <time>2020-12-26T14:30:44Z</time>
      </trkpt>
      <trkpt lat="46.98714" lon="5.99839">
        <ele>581.2</ele>
        <time>2020-12-26T14:30:45Z</time>
      </trkpt>
      <trkpt lat="46.98708" lon="5.99833">
        <ele>580.8</ele>
        <time>2020-12-26T14:30:46Z</time>
      </trkpt>
      <trkpt lat="46.98702" lon="5.9983">
        <ele>580.2</ele>
        <time>2020-12-26T14:30:47Z</time>
      </trkpt>
      <trkpt lat="46.98695" lon="5.99828">
        <ele>579.8</ele>
        <time>2020-12-26T14:30:48Z</time>
      </trkpt>
      <trkpt lat="46.98688" lon="5.99828">
        <ele>579.4</ele>
        <time>2020-12-26T14:30:49Z</time>
      </trkpt>
      <trkpt lat="46.98682" lon="5.99831">
        <ele>579</ele>
        <time>2020-12-26T14:30:50Z</time>
      </trkpt>
      <trkpt lat="46.98674" lon="5.99836">
        <ele>578.8</ele>
        <time>2020-12-26T14:30:51Z</time>
      </trkpt>
      <trkpt lat="46.98667" lon="5.99841">
        <ele>578.8</ele>
        <time>2020-12-26T14:30:52Z</time>
      </trkpt>
      <trkpt lat="46.9866" lon="5.99847">
        <ele>578.4</ele>
        <time>2020-12-26T14:30:53Z</time>
      </trkpt>
      <trkpt lat="46.98654" lon="5.99851">
        <ele>578.4</ele>
        <time>2020-12-26T14:30:54Z</time>
      </trkpt>
      <trkpt lat="46.98647" lon="5.99853">
        <ele>578.4</ele>
        <time>2020-12-26T14:30:55Z</time>
      </trkpt>
      <trkpt lat="46.9864" lon="5.99852">
        <ele>578.4</ele>
        <time>2020-12-26T14:30:56Z</time>
      </trkpt>
      <trkpt lat="46.98633" lon="5.99849">
        <ele>578.4</ele>
        <time>2020-12-26T14:30:57Z</time>
      </trkpt>
      <trkpt lat="46.98628" lon="5.99844">
        <ele>578.4</ele>
        <time>2020-12-26T14:30:58Z</time>
      </trkpt>
      <trkpt lat="46.98622" lon="5.9984">
        <ele>578.4</ele>
        <time>2020-12-26T14:30:59Z</time>
      </trkpt>
      <trkpt lat="46.98619" lon="5.99835">
        <ele>578.8</ele>
        <time>2020-12-26T14:31:00Z</time>
      </trkpt>
      <trkpt lat="46.98615" lon="5.9983">
        <ele>579.2</ele>
        <time>2020-12-26T14:31:01Z</time>
      </trkpt>
      <trkpt lat="46.98611" lon="5.99824">
        <ele>579.6</ele>
        <time>2020-12-26T14:31:02Z</time>
      </trkpt>
      <trkpt lat="46.98607" lon="5.99819">
        <ele>580</ele>
        <time>2020-12-26T14:31:03Z</time>
      </trkpt>
      <trkpt lat="46.98604" lon="5.99814">
        <ele>580.6</ele>
        <time>2020-12-26T14:31:04Z</time>
      </trkpt>
      <trkpt lat="46.986" lon="5.9981">
        <ele>581</ele>
        <time>2020-12-26T14:31:05Z</time>
      </trkpt>
      <trkpt lat="46.98596" lon="5.99806">
        <ele>581.4</ele>
        <time>2020-12-26T14:31:06Z</time>
      </trkpt>
      <trkpt lat="46.98592" lon="5.99803">
        <ele>581.8</ele>
        <time>2020-12-26T14:31:07Z</time>
      </trkpt>
      <trkpt lat="46.98588" lon="5.998">
        <ele>582</ele>
        <time>2020-12-26T14:31:08Z</time>
      </trkpt>
      <trkpt lat="46.98583" lon="5.99797">
        <ele>582.4</ele>
        <time>2020-12-26T14:31:09Z</time>
      </trkpt>
      <trkpt lat="46.98579" lon="5.99794">
        <ele>582.8</ele>
        <time>2020-12-26T14:31:10Z</time>
      </trkpt>
      <trkpt lat="46.98575" lon="5.99791">
        <ele>583</ele>
        <time>2020-12-26T14:31:11Z</time>
      </trkpt>
      <trkpt lat="46.9857" lon="5.9979">
        <ele>583.4</ele>
        <time>2020-12-26T14:31:12Z</time>
      </trkpt>
      <trkpt lat="46.98565" lon="5.99788">
        <ele>584</ele>
        <time>2020-12-26T14:31:13Z</time>
      </trkpt>
      <trkpt lat="46.9856" lon="5.99786">
        <ele>584.4</ele>
        <time>2020-12-26T14:31:14Z</time>
      </trkpt>
      <trkpt lat="46.98556" lon="5.99784">
        <ele>584.8</ele>
        <time>2020-12-26T14:31:15Z</time>
      </trkpt>
      <trkpt lat="46.98551" lon="5.99783">
        <ele>585</ele>
        <time>2020-12-26T14:31:16Z</time>
      </trkpt>
      <trkpt lat="46.98546" lon="5.99782">
        <ele>585.4</ele>
        <time>2020-12-26T14:31:17Z</time>
      </trkpt>
      <trkpt lat="46.98542" lon="5.99781">
        <ele>585.6</ele>
        <time>2020-12-26T14:31:18Z</time>
      </trkpt>
      <trkpt lat="46.98537" lon="5.99779">
        <ele>586</ele>
        <time>2020-12-26T14:31:19Z</time>
      </trkpt>
      <trkpt lat="46.98532" lon="5.99778">
        <ele>586.2</ele>
        <time>2020-12-26T14:31:20Z</time>
      </trkpt>
      <trkpt lat="46.98527" lon="5.99777">
        <ele>586.6</ele>
        <time>2020-12-26T14:31:21Z</time>
      </trkpt>
      <trkpt lat="46.98522" lon="5.99776">
        <ele>587</ele>
        <time>2020-12-26T14:31:22Z</time>
      </trkpt>
      <trkpt lat="46.98517" lon="5.99775">
        <ele>587.4</ele>
        <time>2020-12-26T14:31:23Z</time>
      </trkpt>
      <trkpt lat="46.98512" lon="5.99773">
        <ele>587.8</ele>
        <time>2020-12-26T14:31:24Z</time>
      </trkpt>
      <trkpt lat="46.98507" lon="5.99773">
        <ele>588</ele>
        <time>2020-12-26T14:31:25Z</time>
      </trkpt>
      <trkpt lat="46.98502" lon="5.99769">
        <ele>588.4</ele>
        <time>2020-12-26T14:31:26Z</time>
      </trkpt>
      <trkpt lat="46.98498" lon="5.99768">
        <ele>588.8</ele>
        <time>2020-12-26T14:31:27Z</time>
      </trkpt>
      <trkpt lat="46.98494" lon="5.99766">
        <ele>589</ele>
        <time>2020-12-26T14:31:28Z</time>
      </trkpt>
      <trkpt lat="46.9849" lon="5.99764">
        <ele>589</ele>
        <time>2020-12-26T14:31:29Z</time>
      </trkpt>
      <trkpt lat="46.98488" lon="5.99763">
        <ele>589.2</ele>
        <time>2020-12-26T14:31:30Z</time>
      </trkpt>
      <trkpt lat="46.98485" lon="5.99762">
        <ele>589.2</ele>
        <time>2020-12-26T14:31:31Z</time>
      </trkpt>
      <trkpt lat="46.98481" lon="5.9976">
        <ele>589.4</ele>
        <time>2020-12-26T14:31:32Z</time>
      </trkpt>
      <trkpt lat="46.98478" lon="5.99758">
        <ele>589.4</ele>
        <time>2020-12-26T14:31:33Z</time>
      </trkpt>
      <trkpt lat="46.98474" lon="5.99755">
        <ele>589.4</ele>
        <time>2020-12-26T14:31:34Z</time>
      </trkpt>
      <trkpt lat="46.98469" lon="5.99753">
        <ele>589.4</ele>
        <time>2020-12-26T14:31:35Z</time>
      </trkpt>
      <trkpt lat="46.98465" lon="5.99751">
        <ele>589.4</ele>
        <time>2020-12-26T14:31:36Z</time>
      </trkpt>
      <trkpt lat="46.98461" lon="5.99747">
        <ele>589.2</ele>
        <time>2020-12-26T14:31:37Z</time>
      </trkpt>
      <trkpt lat="46.98456" lon="5.99745">
        <ele>589.2</ele>
        <time>2020-12-26T14:31:38Z</time>
      </trkpt>
      <trkpt lat="46.98452" lon="5.99742">
        <ele>588.8</ele>
        <time>2020-12-26T14:31:39Z</time>
      </trkpt>
      <trkpt lat="46.98447" lon="5.99739">
        <ele>588.8</ele>
        <time>2020-12-26T14:31:40Z</time>
      </trkpt>
      <trkpt lat="46.98441" lon="5.99737">
        <ele>588.6</ele>
        <time>2020-12-26T14:31:41Z</time>
      </trkpt>
      <trkpt lat="46.98436" lon="5.99735">
        <ele>588.4</ele>
        <time>2020-12-26T14:31:42Z</time>
      </trkpt>
      <trkpt lat="46.98431" lon="5.99734">
        <ele>588.2</ele>
        <time>2020-12-26T14:31:43Z</time>
      </trkpt>
      <trkpt lat="46.98425" lon="5.99733">
        <ele>587.8</ele>
        <time>2020-12-26T14:31:44Z</time>
      </trkpt>
      <trkpt lat="46.98419" lon="5.9973">
        <ele>587.6</ele>
        <time>2020-12-26T14:31:45Z</time>
      </trkpt>
      <trkpt lat="46.98413" lon="5.99729">
        <ele>587.2</ele>
        <time>2020-12-26T14:31:46Z</time>
      </trkpt>
      <trkpt lat="46.98407" lon="5.99727">
        <ele>586.8</ele>
        <time>2020-12-26T14:31:47Z</time>
      </trkpt>
      <trkpt lat="46.98401" lon="5.99726">
        <ele>586.6</ele>
        <time>2020-12-26T14:31:48Z</time>
      </trkpt>
      <trkpt lat="46.98393" lon="5.99723">
        <ele>586.2</ele>
        <time>2020-12-26T14:31:49Z</time>
      </trkpt>
      <trkpt lat="46.98385" lon="5.99721">
        <ele>585.6</ele>
        <time>2020-12-26T14:31:50Z</time>
      </trkpt>
      <trkpt lat="46.98376" lon="5.9972">
        <ele>585.2</ele>
        <time>2020-12-26T14:31:51Z</time>
      </trkpt>
      <trkpt lat="46.98367" lon="5.99717">
        <ele>584.6</ele>
        <time>2020-12-26T14:31:52Z</time>
      </trkpt>
      <trkpt lat="46.98358" lon="5.99715">
        <ele>583.6</ele>
        <time>2020-12-26T14:31:53Z</time>
      </trkpt>
      <trkpt lat="46.98348" lon="5.99711">
        <ele>582.8</ele>
        <time>2020-12-26T14:31:54Z</time>
      </trkpt>
      <trkpt lat="46.98339" lon="5.99709">
        <ele>582</ele>
        <time>2020-12-26T14:31:55Z</time>
      </trkpt>
      <trkpt lat="46.98329" lon="5.99706">
        <ele>581.4</ele>
        <time>2020-12-26T14:31:56Z</time>
      </trkpt>
      <trkpt lat="46.98319" lon="5.99704">
        <ele>580.8</ele>
        <time>2020-12-26T14:31:57Z</time>
      </trkpt>
      <trkpt lat="46.98309" lon="5.99702">
        <ele>580.2</ele>
        <time>2020-12-26T14:31:58Z</time>
      </trkpt>
      <trkpt lat="46.983" lon="5.99701">
        <ele>580</ele>
        <time>2020-12-26T14:31:59Z</time>
      </trkpt>
      <trkpt lat="46.98291" lon="5.99703">
        <ele>579.8</ele>
        <time>2020-12-26T14:32:00Z</time>
      </trkpt>
      <trkpt lat="46.98282" lon="5.99705">
        <ele>579.8</ele>
        <time>2020-12-26T14:32:01Z</time>
      </trkpt>
      <trkpt lat="46.98275" lon="5.99709">
        <ele>579.8</ele>
        <time>2020-12-26T14:32:02Z</time>
      </trkpt>
      <trkpt lat="46.98267" lon="5.99711">
        <ele>579.8</ele>
        <time>2020-12-26T14:32:03Z</time>
      </trkpt>
      <trkpt lat="46.9826" lon="5.99713">
        <ele>579.8</ele>
        <time>2020-12-26T14:32:04Z</time>
      </trkpt>
      <trkpt lat="46.98253" lon="5.99715">
        <ele>579.8</ele>
        <time>2020-12-26T14:32:05Z</time>
      </trkpt>
      <trkpt lat="46.98245" lon="5.99717">
        <ele>579.8</ele>
        <time>2020-12-26T14:32:06Z</time>
      </trkpt>
      <trkpt lat="46.98239" lon="5.99721">
        <ele>579.8</ele>
        <time>2020-12-26T14:32:07Z</time>
      </trkpt>
      <trkpt lat="46.98232" lon="5.99723">
        <ele>579.8</ele>
        <time>2020-12-26T14:32:08Z</time>
      </trkpt>
      <trkpt lat="46.98225" lon="5.99725">
        <ele>579.8</ele>
        <time>2020-12-26T14:32:09Z</time>
      </trkpt>
      <trkpt lat="46.98218" lon="5.99727">
        <ele>579.8</ele>
        <time>2020-12-26T14:32:10Z</time>
      </trkpt>
      <trkpt lat="46.98211" lon="5.9973">
        <ele>580</ele>
        <time>2020-12-26T14:32:11Z</time>
      </trkpt>
      <trkpt lat="46.98205" lon="5.99731">
        <ele>580</ele>
        <time>2020-12-26T14:32:12Z</time>
      </trkpt>
      <trkpt lat="46.98198" lon="5.99732">
        <ele>580</ele>
        <time>2020-12-26T14:32:13Z</time>
      </trkpt>
      <trkpt lat="46.98191" lon="5.99734">
        <ele>580.2</ele>
        <time>2020-12-26T14:32:14Z</time>
      </trkpt>
      <trkpt lat="46.98183" lon="5.99734">
        <ele>580.2</ele>
        <time>2020-12-26T14:32:15Z</time>
      </trkpt>
      <trkpt lat="46.98175" lon="5.99735">
        <ele>580.2</ele>
        <time>2020-12-26T14:32:16Z</time>
      </trkpt>
      <trkpt lat="46.98168" lon="5.99736">
        <ele>580.2</ele>
        <time>2020-12-26T14:32:17Z</time>
      </trkpt>
      <trkpt lat="46.9816" lon="5.99736">
        <ele>580.2</ele>
        <time>2020-12-26T14:32:18Z</time>
      </trkpt>
      <trkpt lat="46.98152" lon="5.99739">
        <ele>580.2</ele>
        <time>2020-12-26T14:32:19Z</time>
      </trkpt>
      <trkpt lat="46.98146" lon="5.99741">
        <ele>580.2</ele>
        <time>2020-12-26T14:32:20Z</time>
      </trkpt>
      <trkpt lat="46.98138" lon="5.99743">
        <ele>580.2</ele>
        <time>2020-12-26T14:32:21Z</time>
      </trkpt>
      <trkpt lat="46.9813" lon="5.99744">
        <ele>580.2</ele>
        <time>2020-12-26T14:32:22Z</time>
      </trkpt>
      <trkpt lat="46.98123" lon="5.99747">
        <ele>580.2</ele>
        <time>2020-12-26T14:32:23Z</time>
      </trkpt>
      <trkpt lat="46.98115" lon="5.99743">
        <ele>580.2</ele>
        <time>2020-12-26T14:32:24Z</time>
      </trkpt>
      <trkpt lat="46.98107" lon="5.99746">
        <ele>580.2</ele>
        <time>2020-12-26T14:32:25Z</time>
      </trkpt>
      <trkpt lat="46.981" lon="5.99749">
        <ele>580.2</ele>
        <time>2020-12-26T14:32:26Z</time>
      </trkpt>
      <trkpt lat="46.98091" lon="5.99752">
        <ele>580.2</ele>
        <time>2020-12-26T14:32:27Z</time>
      </trkpt>
      <trkpt lat="46.98084" lon="5.99755">
        <ele>580.2</ele>
        <time>2020-12-26T14:32:28Z</time>
      </trkpt>
      <trkpt lat="46.98076" lon="5.99759">
        <ele>580.2</ele>
        <time>2020-12-26T14:32:29Z</time>
      </trkpt>
      <trkpt lat="46.98069" lon="5.99762">
        <ele>580.2</ele>
        <time>2020-12-26T14:32:30Z</time>
      </trkpt>
      <trkpt lat="46.98061" lon="5.99767">
        <ele>580.4</ele>
        <time>2020-12-26T14:32:31Z</time>
      </trkpt>
      <trkpt lat="46.98054" lon="5.99771">
        <ele>580.4</ele>
        <time>2020-12-26T14:32:32Z</time>
      </trkpt>
      <trkpt lat="46.98047" lon="5.99775">
        <ele>580.4</ele>
        <time>2020-12-26T14:32:33Z</time>
      </trkpt>
      <trkpt lat="46.9804" lon="5.99779">
        <ele>580.4</ele>
        <time>2020-12-26T14:32:34Z</time>
      </trkpt>
      <trkpt lat="46.98034" lon="5.99784">
        <ele>580.4</ele>
        <time>2020-12-26T14:32:35Z</time>
      </trkpt>
      <trkpt lat="46.98027" lon="5.99788">
        <ele>580.8</ele>
        <time>2020-12-26T14:32:36Z</time>
      </trkpt>
      <trkpt lat="46.98021" lon="5.99791">
        <ele>580.8</ele>
        <time>2020-12-26T14:32:37Z</time>
      </trkpt>
      <trkpt lat="46.98014" lon="5.99795">
        <ele>581.2</ele>
        <time>2020-12-26T14:32:38Z</time>
      </trkpt>
      <trkpt lat="46.98007" lon="5.99798">
        <ele>581.2</ele>
        <time>2020-12-26T14:32:39Z</time>
      </trkpt>
      <trkpt lat="46.98001" lon="5.99802">
        <ele>581.2</ele>
        <time>2020-12-26T14:32:40Z</time>
      </trkpt>
      <trkpt lat="46.97995" lon="5.99805">
        <ele>581.4</ele>
        <time>2020-12-26T14:32:41Z</time>
      </trkpt>
      <trkpt lat="46.9799" lon="5.99808">
        <ele>581.4</ele>
        <time>2020-12-26T14:32:42Z</time>
      </trkpt>
      <trkpt lat="46.97984" lon="5.99811">
        <ele>581.4</ele>
        <time>2020-12-26T14:32:43Z</time>
      </trkpt>
      <trkpt lat="46.97978" lon="5.99815">
        <ele>581.4</ele>
        <time>2020-12-26T14:32:44Z</time>
      </trkpt>
      <trkpt lat="46.97973" lon="5.99818">
        <ele>581.6</ele>
        <time>2020-12-26T14:32:45Z</time>
      </trkpt>
      <trkpt lat="46.97967" lon="5.99821">
        <ele>581.6</ele>
        <time>2020-12-26T14:32:46Z</time>
      </trkpt>
      <trkpt lat="46.97961" lon="5.99825">
        <ele>582</ele>
        <time>2020-12-26T14:32:47Z</time>
      </trkpt>
      <trkpt lat="46.97955" lon="5.99828">
        <ele>582</ele>
        <time>2020-12-26T14:32:48Z</time>
      </trkpt>
      <trkpt lat="46.97949" lon="5.99832">
        <ele>582.4</ele>
        <time>2020-12-26T14:32:49Z</time>
      </trkpt>
      <trkpt lat="46.97944" lon="5.99835">
        <ele>582.4</ele>
        <time>2020-12-26T14:32:50Z</time>
      </trkpt>
      <trkpt lat="46.97939" lon="5.99838">
        <ele>582.4</ele>
        <time>2020-12-26T14:32:51Z</time>
      </trkpt>
      <trkpt lat="46.97933" lon="5.99841">
        <ele>582.6</ele>
        <time>2020-12-26T14:32:52Z</time>
      </trkpt>
      <trkpt lat="46.97928" lon="5.99845">
        <ele>582.6</ele>
        <time>2020-12-26T14:32:53Z</time>
      </trkpt>
      <trkpt lat="46.97923" lon="5.99848">
        <ele>583</ele>
        <time>2020-12-26T14:32:54Z</time>
      </trkpt>
      <trkpt lat="46.97919" lon="5.99852">
        <ele>583</ele>
        <time>2020-12-26T14:32:55Z</time>
      </trkpt>
      <trkpt lat="46.97914" lon="5.99856">
        <ele>583</ele>
        <time>2020-12-26T14:32:56Z</time>
      </trkpt>
      <trkpt lat="46.9791" lon="5.99861">
        <ele>583.4</ele>
        <time>2020-12-26T14:32:57Z</time>
      </trkpt>
      <trkpt lat="46.97906" lon="5.99865">
        <ele>583.4</ele>
        <time>2020-12-26T14:32:58Z</time>
      </trkpt>
      <trkpt lat="46.97902" lon="5.99869">
        <ele>583.6</ele>
        <time>2020-12-26T14:32:59Z</time>
      </trkpt>
      <trkpt lat="46.97899" lon="5.99873">
        <ele>583.6</ele>
        <time>2020-12-26T14:33:00Z</time>
      </trkpt>
      <trkpt lat="46.97897" lon="5.99876">
        <ele>584</ele>
        <time>2020-12-26T14:33:01Z</time>
      </trkpt>
      <trkpt lat="46.97895" lon="5.99879">
        <ele>584</ele>
        <time>2020-12-26T14:33:02Z</time>
      </trkpt>
      <trkpt lat="46.97893" lon="5.99882">
        <ele>584.2</ele>
        <time>2020-12-26T14:33:03Z</time>
      </trkpt>
      <trkpt lat="46.97891" lon="5.99885">
        <ele>584.2</ele>
        <time>2020-12-26T14:33:04Z</time>
      </trkpt>
      <trkpt lat="46.97889" lon="5.99889">
        <ele>584.6</ele>
        <time>2020-12-26T14:33:05Z</time>
      </trkpt>
      <trkpt lat="46.97886" lon="5.99893">
        <ele>584.6</ele>
        <time>2020-12-26T14:33:06Z</time>
      </trkpt>
      <trkpt lat="46.97882" lon="5.99897">
        <ele>584.6</ele>
        <time>2020-12-26T14:33:07Z</time>
      </trkpt>
      <trkpt lat="46.97879" lon="5.99901">
        <ele>584.4</ele>
        <time>2020-12-26T14:33:08Z</time>
      </trkpt>
      <trkpt lat="46.97875" lon="5.99905">
        <ele>584.4</ele>
        <time>2020-12-26T14:33:09Z</time>
      </trkpt>
      <trkpt lat="46.97871" lon="5.99909">
        <ele>584</ele>
        <time>2020-12-26T14:33:10Z</time>
      </trkpt>
      <trkpt lat="46.97866" lon="5.99914">
        <ele>584</ele>
        <time>2020-12-26T14:33:11Z</time>
      </trkpt>
      <trkpt lat="46.97862" lon="5.99919">
        <ele>583.6</ele>
        <time>2020-12-26T14:33:12Z</time>
      </trkpt>
      <trkpt lat="46.97857" lon="5.99924">
        <ele>583.6</ele>
        <time>2020-12-26T14:33:13Z</time>
      </trkpt>
      <trkpt lat="46.97852" lon="5.99929">
        <ele>583.2</ele>
        <time>2020-12-26T14:33:14Z</time>
      </trkpt>
      <trkpt lat="46.97847" lon="5.99933">
        <ele>583</ele>
        <time>2020-12-26T14:33:15Z</time>
      </trkpt>
      <trkpt lat="46.97842" lon="5.99938">
        <ele>582.6</ele>
        <time>2020-12-26T14:33:16Z</time>
      </trkpt>
      <trkpt lat="46.97836" lon="5.99943">
        <ele>582.6</ele>
        <time>2020-12-26T14:33:17Z</time>
      </trkpt>
      <trkpt lat="46.97831" lon="5.99948">
        <ele>582.2</ele>
        <time>2020-12-26T14:33:18Z</time>
      </trkpt>
      <trkpt lat="46.97826" lon="5.99954">
        <ele>582</ele>
        <time>2020-12-26T14:33:19Z</time>
      </trkpt>
      <trkpt lat="46.9782" lon="5.99959">
        <ele>581.8</ele>
        <time>2020-12-26T14:33:20Z</time>
      </trkpt>
      <trkpt lat="46.97815" lon="5.99964">
        <ele>581.6</ele>
        <time>2020-12-26T14:33:21Z</time>
      </trkpt>
      <trkpt lat="46.9781" lon="5.99969">
        <ele>581.6</ele>
        <time>2020-12-26T14:33:22Z</time>
      </trkpt>
      <trkpt lat="46.97805" lon="5.99974">
        <ele>581.4</ele>
        <time>2020-12-26T14:33:23Z</time>
      </trkpt>
      <trkpt lat="46.97801" lon="5.9998">
        <ele>581.4</ele>
        <time>2020-12-26T14:33:24Z</time>
      </trkpt>
      <trkpt lat="46.97796" lon="5.99986">
        <ele>581.2</ele>
        <time>2020-12-26T14:33:25Z</time>
      </trkpt>
      <trkpt lat="46.97791" lon="5.9999">
        <ele>581.2</ele>
        <time>2020-12-26T14:33:26Z</time>
      </trkpt>
      <trkpt lat="46.97787" lon="5.99994">
        <ele>581.2</ele>
        <time>2020-12-26T14:33:27Z</time>
      </trkpt>
      <trkpt lat="46.97783" lon="5.99997">
        <ele>580.8</ele>
        <time>2020-12-26T14:33:28Z</time>
      </trkpt>
      <trkpt lat="46.9778" lon="6">
        <ele>580.8</ele>
        <time>2020-12-26T14:33:29Z</time>
      </trkpt>
      <trkpt lat="46.97776" lon="6.00002">
        <ele>580.8</ele>
        <time>2020-12-26T14:33:30Z</time>
      </trkpt>
      <trkpt lat="46.97773" lon="6.00004">
        <ele>580.6</ele>
        <time>2020-12-26T14:33:31Z</time>
      </trkpt>
      <trkpt lat="46.9777" lon="6.00007">
        <ele>580.6</ele>
        <time>2020-12-26T14:33:32Z</time>
      </trkpt>
      <trkpt lat="46.97768" lon="6.00012">
        <ele>580.6</ele>
        <time>2020-12-26T14:33:33Z</time>
      </trkpt>
      <trkpt lat="46.97766" lon="6.00019">
        <ele>580.6</ele>
        <time>2020-12-26T14:33:34Z</time>
      </trkpt>
      <trkpt lat="46.97764" lon="6.00025">
        <ele>580.6</ele>
        <time>2020-12-26T14:33:35Z</time>
      </trkpt>
      <trkpt lat="46.97763" lon="6.00033">
        <ele>580.6</ele>
        <time>2020-12-26T14:33:36Z</time>
      </trkpt>
      <trkpt lat="46.97762" lon="6.00039">
        <ele>580.6</ele>
        <time>2020-12-26T14:33:37Z</time>
      </trkpt>
      <trkpt lat="46.97761" lon="6.00046">
        <ele>580.8</ele>
        <time>2020-12-26T14:33:38Z</time>
      </trkpt>
      <trkpt lat="46.97759" lon="6.00053">
        <ele>580.8</ele>
        <time>2020-12-26T14:33:39Z</time>
      </trkpt>
      <trkpt lat="46.97757" lon="6.0006">
        <ele>581.2</ele>
        <time>2020-12-26T14:33:40Z</time>
      </trkpt>
      <trkpt lat="46.97755" lon="6.00066">
        <ele>581.2</ele>
        <time>2020-12-26T14:33:41Z</time>
      </trkpt>
      <trkpt lat="46.97753" lon="6.00071">
        <ele>581.2</ele>
        <time>2020-12-26T14:33:42Z</time>
      </trkpt>
      <trkpt lat="46.97752" lon="6.00077">
        <ele>581.2</ele>
        <time>2020-12-26T14:33:43Z</time>
      </trkpt>
      <trkpt lat="46.9775" lon="6.00083">
        <ele>581.2</ele>
        <time>2020-12-26T14:33:44Z</time>
      </trkpt>
      <trkpt lat="46.97749" lon="6.00089">
        <ele>581.4</ele>
        <time>2020-12-26T14:33:45Z</time>
      </trkpt>
      <trkpt lat="46.97748" lon="6.00095">
        <ele>581.4</ele>
        <time>2020-12-26T14:33:46Z</time>
      </trkpt>
      <trkpt lat="46.97746" lon="6.001">
        <ele>581.4</ele>
        <time>2020-12-26T14:33:47Z</time>
      </trkpt>
      <trkpt lat="46.97744" lon="6.00106">
        <ele>581.8</ele>
        <time>2020-12-26T14:33:48Z</time>
      </trkpt>
      <trkpt lat="46.97743" lon="6.00111">
        <ele>581.8</ele>
        <time>2020-12-26T14:33:49Z</time>
      </trkpt>
      <trkpt lat="46.97741" lon="6.00116">
        <ele>582.2</ele>
        <time>2020-12-26T14:33:50Z</time>
      </trkpt>
      <trkpt lat="46.9774" lon="6.0012">
        <ele>582.4</ele>
        <time>2020-12-26T14:33:51Z</time>
      </trkpt>
      <trkpt lat="46.97737" lon="6.00125">
        <ele>582.6</ele>
        <time>2020-12-26T14:33:52Z</time>
      </trkpt>
      <trkpt lat="46.97735" lon="6.00129">
        <ele>582.8</ele>
        <time>2020-12-26T14:33:53Z</time>
      </trkpt>
      <trkpt lat="46.97733" lon="6.00133">
        <ele>583</ele>
        <time>2020-12-26T14:33:54Z</time>
      </trkpt>
      <trkpt lat="46.97731" lon="6.00138">
        <ele>583</ele>
        <time>2020-12-26T14:33:55Z</time>
      </trkpt>
      <trkpt lat="46.97729" lon="6.00142">
        <ele>583.4</ele>
        <time>2020-12-26T14:33:56Z</time>
      </trkpt>
      <trkpt lat="46.97726" lon="6.00146">
        <ele>583.6</ele>
        <time>2020-12-26T14:33:57Z</time>
      </trkpt>
      <trkpt lat="46.97724" lon="6.0015">
        <ele>584</ele>
        <time>2020-12-26T14:33:58Z</time>
      </trkpt>
      <trkpt lat="46.97721" lon="6.00153">
        <ele>584.2</ele>
        <time>2020-12-26T14:33:59Z</time>
      </trkpt>
      <trkpt lat="46.97719" lon="6.00157">
        <ele>584.4</ele>
        <time>2020-12-26T14:34:00Z</time>
      </trkpt>
      <trkpt lat="46.97716" lon="6.00161">
        <ele>584.6</ele>
        <time>2020-12-26T14:34:01Z</time>
      </trkpt>
      <trkpt lat="46.97714" lon="6.00164">
        <ele>584.6</ele>
        <time>2020-12-26T14:34:02Z</time>
      </trkpt>
      <trkpt lat="46.97711" lon="6.00168">
        <ele>585</ele>
        <time>2020-12-26T14:34:03Z</time>
      </trkpt>
      <trkpt lat="46.97708" lon="6.00171">
        <ele>585.2</ele>
        <time>2020-12-26T14:34:04Z</time>
      </trkpt>
      <trkpt lat="46.97705" lon="6.00173">
        <ele>585.4</ele>
        <time>2020-12-26T14:34:05Z</time>
      </trkpt>
      <trkpt lat="46.97703" lon="6.00176">
        <ele>585.6</ele>
        <time>2020-12-26T14:34:06Z</time>
      </trkpt>
      <trkpt lat="46.977" lon="6.00179">
        <ele>585.6</ele>
        <time>2020-12-26T14:34:07Z</time>
      </trkpt>
      <trkpt lat="46.97698" lon="6.00182">
        <ele>586.2</ele>
        <time>2020-12-26T14:34:08Z</time>
      </trkpt>
      <trkpt lat="46.97695" lon="6.00184">
        <ele>586.2</ele>
        <time>2020-12-26T14:34:09Z</time>
      </trkpt>
      <trkpt lat="46.97693" lon="6.00187">
        <ele>586.4</ele>
        <time>2020-12-26T14:34:10Z</time>
      </trkpt>
      <trkpt lat="46.9769" lon="6.0019">
        <ele>586.6</ele>
        <time>2020-12-26T14:34:11Z</time>
      </trkpt>
      <trkpt lat="46.97687" lon="6.00193">
        <ele>587</ele>
        <time>2020-12-26T14:34:12Z</time>
      </trkpt>
      <trkpt lat="46.97684" lon="6.00196">
        <ele>587.2</ele>
        <time>2020-12-26T14:34:13Z</time>
      </trkpt>
      <trkpt lat="46.97681" lon="6.00198">
        <ele>587.4</ele>
        <time>2020-12-26T14:34:14Z</time>
      </trkpt>
      <trkpt lat="46.97678" lon="6.00201">
        <ele>587.8</ele>
        <time>2020-12-26T14:34:15Z</time>
      </trkpt>
      <trkpt lat="46.97676" lon="6.00203">
        <ele>588</ele>
        <time>2020-12-26T14:34:16Z</time>
      </trkpt>
      <trkpt lat="46.97673" lon="6.00205">
        <ele>588.2</ele>
        <time>2020-12-26T14:34:17Z</time>
      </trkpt>
      <trkpt lat="46.97671" lon="6.00207">
        <ele>588.2</ele>
        <time>2020-12-26T14:34:18Z</time>
      </trkpt>
      <trkpt lat="46.97668" lon="6.00209">
        <ele>588.6</ele>
        <time>2020-12-26T14:34:19Z</time>
      </trkpt>
      <trkpt lat="46.97666" lon="6.00211">
        <ele>588.8</ele>
        <time>2020-12-26T14:34:20Z</time>
      </trkpt>
      <trkpt lat="46.97663" lon="6.00213">
        <ele>589.2</ele>
        <time>2020-12-26T14:34:21Z</time>
      </trkpt>
      <trkpt lat="46.9766" lon="6.00214">
        <ele>589.4</ele>
        <time>2020-12-26T14:34:22Z</time>
      </trkpt>
      <trkpt lat="46.97658" lon="6.00216">
        <ele>589.4</ele>
        <time>2020-12-26T14:34:23Z</time>
      </trkpt>
      <trkpt lat="46.97655" lon="6.00217">
        <ele>589.8</ele>
        <time>2020-12-26T14:34:24Z</time>
      </trkpt>
      <trkpt lat="46.97653" lon="6.00218">
        <ele>590</ele>
        <time>2020-12-26T14:34:25Z</time>
      </trkpt>
      <trkpt lat="46.9765" lon="6.0022">
        <ele>590.2</ele>
        <time>2020-12-26T14:34:26Z</time>
      </trkpt>
      <trkpt lat="46.97647" lon="6.00221">
        <ele>590.4</ele>
        <time>2020-12-26T14:34:27Z</time>
      </trkpt>
      <trkpt lat="46.97644" lon="6.00222">
        <ele>590.6</ele>
        <time>2020-12-26T14:34:28Z</time>
      </trkpt>
      <trkpt lat="46.97642" lon="6.00222">
        <ele>590.6</ele>
        <time>2020-12-26T14:34:29Z</time>
      </trkpt>
      <trkpt lat="46.97639" lon="6.00223">
        <ele>591.2</ele>
        <time>2020-12-26T14:34:30Z</time>
      </trkpt>
      <trkpt lat="46.97636" lon="6.00223">
        <ele>591.2</ele>
        <time>2020-12-26T14:34:31Z</time>
      </trkpt>
      <trkpt lat="46.97634" lon="6.00224">
        <ele>591.6</ele>
        <time>2020-12-26T14:34:32Z</time>
      </trkpt>
      <trkpt lat="46.97631" lon="6.00224">
        <ele>591.6</ele>
        <time>2020-12-26T14:34:33Z</time>
      </trkpt>
      <trkpt lat="46.97629" lon="6.00224">
        <ele>592</ele>
        <time>2020-12-26T14:34:34Z</time>
      </trkpt>
      <trkpt lat="46.97627" lon="6.00224">
        <ele>592</ele>
        <time>2020-12-26T14:34:35Z</time>
      </trkpt>
      <trkpt lat="46.97624" lon="6.00224">
        <ele>592.2</ele>
        <time>2020-12-26T14:34:36Z</time>
      </trkpt>
      <trkpt lat="46.97622" lon="6.00224">
        <ele>592.2</ele>
        <time>2020-12-26T14:34:37Z</time>
      </trkpt>
      <trkpt lat="46.97619" lon="6.00224">
        <ele>592.6</ele>
        <time>2020-12-26T14:34:38Z</time>
      </trkpt>
      <trkpt lat="46.97616" lon="6.00224">
        <ele>592.6</ele>
        <time>2020-12-26T14:34:39Z</time>
      </trkpt>
      <trkpt lat="46.97614" lon="6.00225">
        <ele>592.8</ele>
        <time>2020-12-26T14:34:40Z</time>
      </trkpt>
      <trkpt lat="46.97612" lon="6.00225">
        <ele>592.8</ele>
        <time>2020-12-26T14:34:41Z</time>
      </trkpt>
      <trkpt lat="46.9761" lon="6.00226">
        <ele>593</ele>
        <time>2020-12-26T14:34:42Z</time>
      </trkpt>
      <trkpt lat="46.97608" lon="6.00227">
        <ele>593</ele>
        <time>2020-12-26T14:34:43Z</time>
      </trkpt>
      <trkpt lat="46.97605" lon="6.00227">
        <ele>593.4</ele>
        <time>2020-12-26T14:34:44Z</time>
      </trkpt>
      <trkpt lat="46.97603" lon="6.00229">
        <ele>593.4</ele>
        <time>2020-12-26T14:34:45Z</time>
      </trkpt>
      <trkpt lat="46.976" lon="6.0023">
        <ele>593.6</ele>
        <time>2020-12-26T14:34:46Z</time>
      </trkpt>
      <trkpt lat="46.97598" lon="6.00231">
        <ele>594</ele>
        <time>2020-12-26T14:34:47Z</time>
      </trkpt>
      <trkpt lat="46.97595" lon="6.00233">
        <ele>594</ele>
        <time>2020-12-26T14:34:48Z</time>
      </trkpt>
      <trkpt lat="46.97592" lon="6.00234">
        <ele>594.4</ele>
        <time>2020-12-26T14:34:49Z</time>
      </trkpt>
      <trkpt lat="46.97589" lon="6.00235">
        <ele>594.4</ele>
        <time>2020-12-26T14:34:50Z</time>
      </trkpt>
      <trkpt lat="46.97587" lon="6.00237">
        <ele>594.6</ele>
        <time>2020-12-26T14:34:51Z</time>
      </trkpt>
      <trkpt lat="46.97584" lon="6.00238">
        <ele>595</ele>
        <time>2020-12-26T14:34:52Z</time>
      </trkpt>
      <trkpt lat="46.97582" lon="6.0024">
        <ele>595.2</ele>
        <time>2020-12-26T14:34:53Z</time>
      </trkpt>
      <trkpt lat="46.9758" lon="6.00241">
        <ele>595.4</ele>
        <time>2020-12-26T14:34:54Z</time>
      </trkpt>
      <trkpt lat="46.97577" lon="6.00243">
        <ele>595.4</ele>
        <time>2020-12-26T14:34:55Z</time>
      </trkpt>
      <trkpt lat="46.97575" lon="6.00245">
        <ele>595.8</ele>
        <time>2020-12-26T14:34:56Z</time>
      </trkpt>
      <trkpt lat="46.97573" lon="6.00247">
        <ele>596</ele>
        <time>2020-12-26T14:34:57Z</time>
      </trkpt>
      <trkpt lat="46.97571" lon="6.00248">
        <ele>596</ele>
        <time>2020-12-26T14:34:58Z</time>
      </trkpt>
      <trkpt lat="46.97569" lon="6.0025">
        <ele>596.2</ele>
        <time>2020-12-26T14:34:59Z</time>
      </trkpt>
      <trkpt lat="46.97567" lon="6.00252">
        <ele>596.2</ele>
        <time>2020-12-26T14:35:00Z</time>
      </trkpt>
      <trkpt lat="46.97565" lon="6.00254">
        <ele>596.6</ele>
        <time>2020-12-26T14:35:01Z</time>
      </trkpt>
      <trkpt lat="46.97563" lon="6.00256">
        <ele>596.6</ele>
        <time>2020-12-26T14:35:02Z</time>
      </trkpt>
      <trkpt lat="46.97561" lon="6.00258">
        <ele>597</ele>
        <time>2020-12-26T14:35:03Z</time>
      </trkpt>
      <trkpt lat="46.9756" lon="6.00261">
        <ele>597</ele>
        <time>2020-12-26T14:35:04Z</time>
      </trkpt>
      <trkpt lat="46.97558" lon="6.00263">
        <ele>597.2</ele>
        <time>2020-12-26T14:35:05Z</time>
      </trkpt>
      <trkpt lat="46.97556" lon="6.00265">
        <ele>597.6</ele>
        <time>2020-12-26T14:35:06Z</time>
      </trkpt>
      <trkpt lat="46.97554" lon="6.00267">
        <ele>597.8</ele>
        <time>2020-12-26T14:35:07Z</time>
      </trkpt>
      <trkpt lat="46.97552" lon="6.00268">
        <ele>597.8</ele>
        <time>2020-12-26T14:35:08Z</time>
      </trkpt>
      <trkpt lat="46.9755" lon="6.00271">
        <ele>598</ele>
        <time>2020-12-26T14:35:09Z</time>
      </trkpt>
      <trkpt lat="46.97548" lon="6.00273">
        <ele>598</ele>
        <time>2020-12-26T14:35:10Z</time>
      </trkpt>
      <trkpt lat="46.97546" lon="6.00275">
        <ele>598.4</ele>
        <time>2020-12-26T14:35:11Z</time>
      </trkpt>
      <trkpt lat="46.97544" lon="6.00277">
        <ele>598.4</ele>
        <time>2020-12-26T14:35:12Z</time>
      </trkpt>
      <trkpt lat="46.97541" lon="6.00278">
        <ele>598.6</ele>
        <time>2020-12-26T14:35:13Z</time>
      </trkpt>
      <trkpt lat="46.97539" lon="6.00279">
        <ele>598.6</ele>
        <time>2020-12-26T14:35:14Z</time>
      </trkpt>
      <trkpt lat="46.97536" lon="6.0028">
        <ele>598.8</ele>
        <time>2020-12-26T14:35:15Z</time>
      </trkpt>
      <trkpt lat="46.97534" lon="6.00282">
        <ele>598.8</ele>
        <time>2020-12-26T14:35:16Z</time>
      </trkpt>
      <trkpt lat="46.97531" lon="6.00283">
        <ele>599.2</ele>
        <time>2020-12-26T14:35:17Z</time>
      </trkpt>
      <trkpt lat="46.97528" lon="6.00284">
        <ele>599.2</ele>
        <time>2020-12-26T14:35:18Z</time>
      </trkpt>
      <trkpt lat="46.97526" lon="6.00285">
        <ele>599.6</ele>
        <time>2020-12-26T14:35:19Z</time>
      </trkpt>
      <trkpt lat="46.97524" lon="6.00285">
        <ele>599.6</ele>
        <time>2020-12-26T14:35:20Z</time>
      </trkpt>
      <trkpt lat="46.97521" lon="6.00285">
        <ele>600</ele>
        <time>2020-12-26T14:35:21Z</time>
      </trkpt>
      <trkpt lat="46.97519" lon="6.00284">
        <ele>600.2</ele>
        <time>2020-12-26T14:35:22Z</time>
      </trkpt>
      <trkpt lat="46.97517" lon="6.00284">
        <ele>600.2</ele>
        <time>2020-12-26T14:35:23Z</time>
      </trkpt>
      <trkpt lat="46.97515" lon="6.00284">
        <ele>600.6</ele>
        <time>2020-12-26T14:35:24Z</time>
      </trkpt>
      <trkpt lat="46.97512" lon="6.00283">
        <ele>600.8</ele>
        <time>2020-12-26T14:35:25Z</time>
      </trkpt>
      <trkpt lat="46.9751" lon="6.00282">
        <ele>601</ele>
        <time>2020-12-26T14:35:26Z</time>
      </trkpt>
      <trkpt lat="46.97507" lon="6.00281">
        <ele>601</ele>
        <time>2020-12-26T14:35:27Z</time>
      </trkpt>
      <trkpt lat="46.97505" lon="6.0028">
        <ele>601.4</ele>
        <time>2020-12-26T14:35:28Z</time>
      </trkpt>
      <trkpt lat="46.97503" lon="6.00279">
        <ele>601.6</ele>
        <time>2020-12-26T14:35:29Z</time>
      </trkpt>
      <trkpt lat="46.97501" lon="6.00278">
        <ele>601.8</ele>
        <time>2020-12-26T14:35:30Z</time>
      </trkpt>
      <trkpt lat="46.97498" lon="6.00277">
        <ele>601.8</ele>
        <time>2020-12-26T14:35:31Z</time>
      </trkpt>
      <trkpt lat="46.97496" lon="6.00276">
        <ele>602.2</ele>
        <time>2020-12-26T14:35:32Z</time>
      </trkpt>
      <trkpt lat="46.97494" lon="6.00275">
        <ele>602.2</ele>
        <time>2020-12-26T14:35:33Z</time>
      </trkpt>
      <trkpt lat="46.97492" lon="6.00274">
        <ele>602.2</ele>
        <time>2020-12-26T14:35:34Z</time>
      </trkpt>
      <trkpt lat="46.97489" lon="6.00272">
        <ele>602.6</ele>
        <time>2020-12-26T14:35:35Z</time>
      </trkpt>
      <trkpt lat="46.97487" lon="6.00271">
        <ele>602.6</ele>
        <time>2020-12-26T14:35:36Z</time>
      </trkpt>
      <trkpt lat="46.97485" lon="6.0027">
        <ele>602.8</ele>
        <time>2020-12-26T14:35:37Z</time>
      </trkpt>
      <trkpt lat="46.97483" lon="6.0027">
        <ele>602.8</ele>
        <time>2020-12-26T14:35:38Z</time>
      </trkpt>
      <trkpt lat="46.9748" lon="6.00269">
        <ele>603.2</ele>
        <time>2020-12-26T14:35:39Z</time>
      </trkpt>
      <trkpt lat="46.97478" lon="6.00268">
        <ele>603.2</ele>
        <time>2020-12-26T14:35:40Z</time>
      </trkpt>
      <trkpt lat="46.97476" lon="6.00268">
        <ele>603.6</ele>
        <time>2020-12-26T14:35:41Z</time>
      </trkpt>
      <trkpt lat="46.97473" lon="6.00267">
        <ele>603.6</ele>
        <time>2020-12-26T14:35:42Z</time>
      </trkpt>
      <trkpt lat="46.97471" lon="6.00266">
        <ele>604</ele>
        <time>2020-12-26T14:35:43Z</time>
      </trkpt>
      <trkpt lat="46.97469" lon="6.00265">
        <ele>604.4</ele>
        <time>2020-12-26T14:35:44Z</time>
      </trkpt>
      <trkpt lat="46.97467" lon="6.00264">
        <ele>604.4</ele>
        <time>2020-12-26T14:35:45Z</time>
      </trkpt>
      <trkpt lat="46.97465" lon="6.00263">
        <ele>604.6</ele>
        <time>2020-12-26T14:35:46Z</time>
      </trkpt>
      <trkpt lat="46.97462" lon="6.00262">
        <ele>604.6</ele>
        <time>2020-12-26T14:35:47Z</time>
      </trkpt>
      <trkpt lat="46.9746" lon="6.00261">
        <ele>604.8</ele>
        <time>2020-12-26T14:35:48Z</time>
      </trkpt>
      <trkpt lat="46.97457" lon="6.00261">
        <ele>604.8</ele>
        <time>2020-12-26T14:35:49Z</time>
      </trkpt>
      <trkpt lat="46.97455" lon="6.0026">
        <ele>605.2</ele>
        <time>2020-12-26T14:35:50Z</time>
      </trkpt>
      <trkpt lat="46.97453" lon="6.00259">
        <ele>605.2</ele>
        <time>2020-12-26T14:35:51Z</time>
      </trkpt>
      <trkpt lat="46.97451" lon="6.00258">
        <ele>605.6</ele>
        <time>2020-12-26T14:35:52Z</time>
      </trkpt>
      <trkpt lat="46.97448" lon="6.00257">
        <ele>605.6</ele>
        <time>2020-12-26T14:35:53Z</time>
      </trkpt>
      <trkpt lat="46.97445" lon="6.00257">
        <ele>606</ele>
        <time>2020-12-26T14:35:54Z</time>
      </trkpt>
      <trkpt lat="46.97443" lon="6.00256">
        <ele>606</ele>
        <time>2020-12-26T14:35:55Z</time>
      </trkpt>
      <trkpt lat="46.9744" lon="6.00256">
        <ele>606.2</ele>
        <time>2020-12-26T14:35:56Z</time>
      </trkpt>
      <trkpt lat="46.97438" lon="6.00255">
        <ele>606.4</ele>
        <time>2020-12-26T14:35:57Z</time>
      </trkpt>
      <trkpt lat="46.97435" lon="6.00255">
        <ele>606.4</ele>
        <time>2020-12-26T14:35:58Z</time>
      </trkpt>
      <trkpt lat="46.97432" lon="6.00255">
        <ele>606.6</ele>
        <time>2020-12-26T14:35:59Z</time>
      </trkpt>
      <trkpt lat="46.9743" lon="6.00255">
        <ele>606.6</ele>
        <time>2020-12-26T14:36:00Z</time>
      </trkpt>
      <trkpt lat="46.97427" lon="6.00256">
        <ele>607</ele>
        <time>2020-12-26T14:36:01Z</time>
      </trkpt>
      <trkpt lat="46.97425" lon="6.00256">
        <ele>607.2</ele>
        <time>2020-12-26T14:36:02Z</time>
      </trkpt>
      <trkpt lat="46.97422" lon="6.00257">
        <ele>607.2</ele>
        <time>2020-12-26T14:36:03Z</time>
      </trkpt>
      <trkpt lat="46.9742" lon="6.00258">
        <ele>607.4</ele>
        <time>2020-12-26T14:36:04Z</time>
      </trkpt>
      <trkpt lat="46.97418" lon="6.00259">
        <ele>607.4</ele>
        <time>2020-12-26T14:36:05Z</time>
      </trkpt>
      <trkpt lat="46.97415" lon="6.0026">
        <ele>607.8</ele>
        <time>2020-12-26T14:36:06Z</time>
      </trkpt>
      <trkpt lat="46.97413" lon="6.00261">
        <ele>607.8</ele>
        <time>2020-12-26T14:36:07Z</time>
      </trkpt>
      <trkpt lat="46.97411" lon="6.00263">
        <ele>608</ele>
        <time>2020-12-26T14:36:08Z</time>
      </trkpt>
      <trkpt lat="46.97408" lon="6.00265">
        <ele>608</ele>
        <time>2020-12-26T14:36:09Z</time>
      </trkpt>
      <trkpt lat="46.97406" lon="6.00266">
        <ele>608.4</ele>
        <time>2020-12-26T14:36:10Z</time>
      </trkpt>
      <trkpt lat="46.97404" lon="6.00268">
        <ele>608.6</ele>
        <time>2020-12-26T14:36:11Z</time>
      </trkpt>
      <trkpt lat="46.97402" lon="6.0027">
        <ele>608.8</ele>
        <time>2020-12-26T14:36:12Z</time>
      </trkpt>
      <trkpt lat="46.974" lon="6.00272">
        <ele>609.2</ele>
        <time>2020-12-26T14:36:13Z</time>
      </trkpt>
      <trkpt lat="46.97398" lon="6.00275">
        <ele>609.4</ele>
        <time>2020-12-26T14:36:14Z</time>
      </trkpt>
      <trkpt lat="46.97396" lon="6.00277">
        <ele>609.6</ele>
        <time>2020-12-26T14:36:15Z</time>
      </trkpt>
      <trkpt lat="46.97394" lon="6.0028">
        <ele>609.6</ele>
        <time>2020-12-26T14:36:16Z</time>
      </trkpt>
      <trkpt lat="46.97392" lon="6.00282">
        <ele>610</ele>
        <time>2020-12-26T14:36:17Z</time>
      </trkpt>
      <trkpt lat="46.9739" lon="6.00285">
        <ele>610.4</ele>
        <time>2020-12-26T14:36:18Z</time>
      </trkpt>
      <trkpt lat="46.97387" lon="6.00288">
        <ele>610.6</ele>
        <time>2020-12-26T14:36:19Z</time>
      </trkpt>
      <trkpt lat="46.97385" lon="6.00291">
        <ele>610.8</ele>
        <time>2020-12-26T14:36:20Z</time>
      </trkpt>
      <trkpt lat="46.97382" lon="6.00294">
        <ele>610.8</ele>
        <time>2020-12-26T14:36:21Z</time>
      </trkpt>
      <trkpt lat="46.97381" lon="6.00298">
        <ele>611.2</ele>
        <time>2020-12-26T14:36:22Z</time>
      </trkpt>
      <trkpt lat="46.97379" lon="6.00301">
        <ele>611.6</ele>
        <time>2020-12-26T14:36:23Z</time>
      </trkpt>
      <trkpt lat="46.97378" lon="6.00305">
        <ele>611.6</ele>
        <time>2020-12-26T14:36:24Z</time>
      </trkpt>
      <trkpt lat="46.97377" lon="6.00309">
        <ele>611.8</ele>
        <time>2020-12-26T14:36:25Z</time>
      </trkpt>
      <trkpt lat="46.97376" lon="6.00312">
        <ele>611.8</ele>
        <time>2020-12-26T14:36:26Z</time>
      </trkpt>
      <trkpt lat="46.97376" lon="6.00316">
        <ele>612.2</ele>
        <time>2020-12-26T14:36:27Z</time>
      </trkpt>
      <trkpt lat="46.97375" lon="6.00319">
        <ele>612.2</ele>
        <time>2020-12-26T14:36:28Z</time>
      </trkpt>
      <trkpt lat="46.97374" lon="6.00323">
        <ele>612.6</ele>
        <time>2020-12-26T14:36:29Z</time>
      </trkpt>
      <trkpt lat="46.97373" lon="6.00327">
        <ele>612.8</ele>
        <time>2020-12-26T14:36:30Z</time>
      </trkpt>
      <trkpt lat="46.97372" lon="6.0033">
        <ele>613</ele>
        <time>2020-12-26T14:36:31Z</time>
      </trkpt>
      <trkpt lat="46.97372" lon="6.00334">
        <ele>613</ele>
        <time>2020-12-26T14:36:32Z</time>
      </trkpt>
      <trkpt lat="46.97371" lon="6.00337">
        <ele>613.4</ele>
        <time>2020-12-26T14:36:33Z</time>
      </trkpt>
      <trkpt lat="46.9737" lon="6.00341">
        <ele>613.6</ele>
        <time>2020-12-26T14:36:34Z</time>
      </trkpt>
      <trkpt lat="46.9737" lon="6.00345">
        <ele>613.8</ele>
        <time>2020-12-26T14:36:35Z</time>
      </trkpt>
      <trkpt lat="46.97369" lon="6.00348">
        <ele>613.8</ele>
        <time>2020-12-26T14:36:36Z</time>
      </trkpt>
      <trkpt lat="46.97369" lon="6.00351">
        <ele>614</ele>
        <time>2020-12-26T14:36:37Z</time>
      </trkpt>
      <trkpt lat="46.97368" lon="6.00355">
        <ele>614</ele>
        <time>2020-12-26T14:36:38Z</time>
      </trkpt>
      <trkpt lat="46.97368" lon="6.00359">
        <ele>614.4</ele>
        <time>2020-12-26T14:36:39Z</time>
      </trkpt>
      <trkpt lat="46.97367" lon="6.00362">
        <ele>614.6</ele>
        <time>2020-12-26T14:36:40Z</time>
      </trkpt>
      <trkpt lat="46.97366" lon="6.00366">
        <ele>614.8</ele>
        <time>2020-12-26T14:36:41Z</time>
      </trkpt>
      <trkpt lat="46.97366" lon="6.00369">
        <ele>614.8</ele>
        <time>2020-12-26T14:36:42Z</time>
      </trkpt>
      <trkpt lat="46.97365" lon="6.00373">
        <ele>615.2</ele>
        <time>2020-12-26T14:36:43Z</time>
      </trkpt>
      <trkpt lat="46.97364" lon="6.00377">
        <ele>615.2</ele>
        <time>2020-12-26T14:36:44Z</time>
      </trkpt>
      <trkpt lat="46.97364" lon="6.00381">
        <ele>615.6</ele>
        <time>2020-12-26T14:36:45Z</time>
      </trkpt>
      <trkpt lat="46.97363" lon="6.00385">
        <ele>615.8</ele>
        <time>2020-12-26T14:36:46Z</time>
      </trkpt>
      <trkpt lat="46.97362" lon="6.00389">
        <ele>615.8</ele>
        <time>2020-12-26T14:36:47Z</time>
      </trkpt>
      <trkpt lat="46.97362" lon="6.00393">
        <ele>616.2</ele>
        <time>2020-12-26T14:36:48Z</time>
      </trkpt>
      <trkpt lat="46.97361" lon="6.00397">
        <ele>616.2</ele>
        <time>2020-12-26T14:36:49Z</time>
      </trkpt>
      <trkpt lat="46.97361" lon="6.00401">
        <ele>616.4</ele>
        <time>2020-12-26T14:36:50Z</time>
      </trkpt>
      <trkpt lat="46.9736" lon="6.00405">
        <ele>616.4</ele>
        <time>2020-12-26T14:36:51Z</time>
      </trkpt>
      <trkpt lat="46.97359" lon="6.00409">
        <ele>616.8</ele>
        <time>2020-12-26T14:36:52Z</time>
      </trkpt>
      <trkpt lat="46.97358" lon="6.00413">
        <ele>616.8</ele>
        <time>2020-12-26T14:36:53Z</time>
      </trkpt>
      <trkpt lat="46.97358" lon="6.00417">
        <ele>617.2</ele>
        <time>2020-12-26T14:36:54Z</time>
      </trkpt>
      <trkpt lat="46.97357" lon="6.00422">
        <ele>617.4</ele>
        <time>2020-12-26T14:36:55Z</time>
      </trkpt>
      <trkpt lat="46.97356" lon="6.00426">
        <ele>617.4</ele>
        <time>2020-12-26T14:36:56Z</time>
      </trkpt>
      <trkpt lat="46.97356" lon="6.0043">
        <ele>617.8</ele>
        <time>2020-12-26T14:36:57Z</time>
      </trkpt>
      <trkpt lat="46.97355" lon="6.00434">
        <ele>618</ele>
        <time>2020-12-26T14:36:58Z</time>
      </trkpt>
      <trkpt lat="46.97354" lon="6.00439">
        <ele>618.2</ele>
        <time>2020-12-26T14:36:59Z</time>
      </trkpt>
      <trkpt lat="46.97353" lon="6.00443">
        <ele>618.6</ele>
        <time>2020-12-26T14:37:00Z</time>
      </trkpt>
      <trkpt lat="46.97353" lon="6.00447">
        <ele>618.6</ele>
        <time>2020-12-26T14:37:01Z</time>
      </trkpt>
      <trkpt lat="46.97352" lon="6.00451">
        <ele>619</ele>
        <time>2020-12-26T14:37:02Z</time>
      </trkpt>
      <trkpt lat="46.97352" lon="6.00456">
        <ele>619</ele>
        <time>2020-12-26T14:37:03Z</time>
      </trkpt>
      <trkpt lat="46.97351" lon="6.0046">
        <ele>619.4</ele>
        <time>2020-12-26T14:37:04Z</time>
      </trkpt>
      <trkpt lat="46.9735" lon="6.00465">
        <ele>619.6</ele>
        <time>2020-12-26T14:37:05Z</time>
      </trkpt>
      <trkpt lat="46.9735" lon="6.00469">
        <ele>619.8</ele>
        <time>2020-12-26T14:37:06Z</time>
      </trkpt>
      <trkpt lat="46.97349" lon="6.00474">
        <ele>620</ele>
        <time>2020-12-26T14:37:07Z</time>
      </trkpt>
      <trkpt lat="46.97349" lon="6.00478">
        <ele>620</ele>
        <time>2020-12-26T14:37:08Z</time>
      </trkpt>
      <trkpt lat="46.97349" lon="6.00483">
        <ele>620.4</ele>
        <time>2020-12-26T14:37:09Z</time>
      </trkpt>
      <trkpt lat="46.97349" lon="6.00488">
        <ele>620.8</ele>
        <time>2020-12-26T14:37:10Z</time>
      </trkpt>
      <trkpt lat="46.97349" lon="6.00492">
        <ele>620.8</ele>
        <time>2020-12-26T14:37:11Z</time>
      </trkpt>
      <trkpt lat="46.9735" lon="6.00497">
        <ele>621.2</ele>
        <time>2020-12-26T14:37:12Z</time>
      </trkpt>
      <trkpt lat="46.97351" lon="6.00501">
        <ele>621.2</ele>
        <time>2020-12-26T14:37:13Z</time>
      </trkpt>
      <trkpt lat="46.97351" lon="6.00505">
        <ele>621.6</ele>
        <time>2020-12-26T14:37:14Z</time>
      </trkpt>
      <trkpt lat="46.97352" lon="6.0051">
        <ele>621.8</ele>
        <time>2020-12-26T14:37:15Z</time>
      </trkpt>
      <trkpt lat="46.97353" lon="6.00514">
        <ele>621.8</ele>
        <time>2020-12-26T14:37:16Z</time>
      </trkpt>
      <trkpt lat="46.97355" lon="6.00518">
        <ele>622.2</ele>
        <time>2020-12-26T14:37:17Z</time>
      </trkpt>
      <trkpt lat="46.97357" lon="6.00523">
        <ele>622.4</ele>
        <time>2020-12-26T14:37:18Z</time>
      </trkpt>
      <trkpt lat="46.97358" lon="6.00527">
        <ele>622.6</ele>
        <time>2020-12-26T14:37:19Z</time>
      </trkpt>
      <trkpt lat="46.9736" lon="6.00531">
        <ele>622.8</ele>
        <time>2020-12-26T14:37:20Z</time>
      </trkpt>
      <trkpt lat="46.97363" lon="6.00535">
        <ele>623.2</ele>
        <time>2020-12-26T14:37:21Z</time>
      </trkpt>
      <trkpt lat="46.97365" lon="6.00539">
        <ele>623.4</ele>
        <time>2020-12-26T14:37:22Z</time>
      </trkpt>
      <trkpt lat="46.97367" lon="6.00543">
        <ele>623.6</ele>
        <time>2020-12-26T14:37:23Z</time>
      </trkpt>
      <trkpt lat="46.9737" lon="6.00547">
        <ele>623.6</ele>
        <time>2020-12-26T14:37:24Z</time>
      </trkpt>
      <trkpt lat="46.97372" lon="6.0055">
        <ele>624</ele>
        <time>2020-12-26T14:37:25Z</time>
      </trkpt>
      <trkpt lat="46.97375" lon="6.00554">
        <ele>624.4</ele>
        <time>2020-12-26T14:37:26Z</time>
      </trkpt>
      <trkpt lat="46.97377" lon="6.00558">
        <ele>624.6</ele>
        <time>2020-12-26T14:37:27Z</time>
      </trkpt>
      <trkpt lat="46.9738" lon="6.00562">
        <ele>624.6</ele>
        <time>2020-12-26T14:37:28Z</time>
      </trkpt>
      <trkpt lat="46.97382" lon="6.00565">
        <ele>625</ele>
        <time>2020-12-26T14:37:29Z</time>
      </trkpt>
      <trkpt lat="46.97385" lon="6.00569">
        <ele>625.4</ele>
        <time>2020-12-26T14:37:30Z</time>
      </trkpt>
      <trkpt lat="46.97387" lon="6.00573">
        <ele>625.6</ele>
        <time>2020-12-26T14:37:31Z</time>
      </trkpt>
      <trkpt lat="46.9739" lon="6.00577">
        <ele>625.8</ele>
        <time>2020-12-26T14:37:32Z</time>
      </trkpt>
      <trkpt lat="46.97392" lon="6.00581">
        <ele>626</ele>
        <time>2020-12-26T14:37:33Z</time>
      </trkpt>
      <trkpt lat="46.97394" lon="6.00585">
        <ele>626</ele>
        <time>2020-12-26T14:37:34Z</time>
      </trkpt>
      <trkpt lat="46.97396" lon="6.00589">
        <ele>626.4</ele>
        <time>2020-12-26T14:37:35Z</time>
      </trkpt>
      <trkpt lat="46.97398" lon="6.00593">
        <ele>626.4</ele>
        <time>2020-12-26T14:37:36Z</time>
      </trkpt>
      <trkpt lat="46.974" lon="6.00597">
        <ele>626.8</ele>
        <time>2020-12-26T14:37:37Z</time>
      </trkpt>
      <trkpt lat="46.97402" lon="6.00601">
        <ele>626.8</ele>
        <time>2020-12-26T14:37:38Z</time>
      </trkpt>
      <trkpt lat="46.97404" lon="6.00605">
        <ele>627.2</ele>
        <time>2020-12-26T14:37:39Z</time>
      </trkpt>
      <trkpt lat="46.97406" lon="6.00609">
        <ele>627.2</ele>
        <time>2020-12-26T14:37:40Z</time>
      </trkpt>
      <trkpt lat="46.97408" lon="6.00613">
        <ele>627.6</ele>
        <time>2020-12-26T14:37:41Z</time>
      </trkpt>
      <trkpt lat="46.97409" lon="6.00617">
        <ele>628</ele>
        <time>2020-12-26T14:37:42Z</time>
      </trkpt>
      <trkpt lat="46.97411" lon="6.00621">
        <ele>628</ele>
        <time>2020-12-26T14:37:43Z</time>
      </trkpt>
      <trkpt lat="46.97413" lon="6.00625">
        <ele>628.4</ele>
        <time>2020-12-26T14:37:44Z</time>
      </trkpt>
      <trkpt lat="46.97414" lon="6.00629">
        <ele>628.6</ele>
        <time>2020-12-26T14:37:45Z</time>
      </trkpt>
      <trkpt lat="46.97415" lon="6.00634">
        <ele>629</ele>
        <time>2020-12-26T14:37:46Z</time>
      </trkpt>
      <trkpt lat="46.97417" lon="6.00638">
        <ele>629.2</ele>
        <time>2020-12-26T14:37:47Z</time>
      </trkpt>
      <trkpt lat="46.97418" lon="6.00643">
        <ele>629.2</ele>
        <time>2020-12-26T14:37:48Z</time>
      </trkpt>
      <trkpt lat="46.97419" lon="6.00647">
        <ele>629.4</ele>
        <time>2020-12-26T14:37:49Z</time>
      </trkpt>
      <trkpt lat="46.9742" lon="6.00652">
        <ele>629.8</ele>
        <time>2020-12-26T14:37:50Z</time>
      </trkpt>
      <trkpt lat="46.97421" lon="6.00656">
        <ele>630</ele>
        <time>2020-12-26T14:37:51Z</time>
      </trkpt>
      <trkpt lat="46.97422" lon="6.00661">
        <ele>630.2</ele>
        <time>2020-12-26T14:37:52Z</time>
      </trkpt>
      <trkpt lat="46.97424" lon="6.00665">
        <ele>630.4</ele>
        <time>2020-12-26T14:37:53Z</time>
      </trkpt>
      <trkpt lat="46.97425" lon="6.0067">
        <ele>630.8</ele>
        <time>2020-12-26T14:37:54Z</time>
      </trkpt>
      <trkpt lat="46.97426" lon="6.00674">
        <ele>631</ele>
        <time>2020-12-26T14:37:55Z</time>
      </trkpt>
      <trkpt lat="46.97428" lon="6.00678">
        <ele>631.2</ele>
        <time>2020-12-26T14:37:56Z</time>
      </trkpt>
      <trkpt lat="46.97429" lon="6.00683">
        <ele>631.4</ele>
        <time>2020-12-26T14:37:57Z</time>
      </trkpt>
      <trkpt lat="46.9743" lon="6.00687">
        <ele>631.6</ele>
        <time>2020-12-26T14:37:58Z</time>
      </trkpt>
      <trkpt lat="46.97431" lon="6.00692">
        <ele>632</ele>
        <time>2020-12-26T14:37:59Z</time>
      </trkpt>
      <trkpt lat="46.97432" lon="6.00696">
        <ele>632.2</ele>
        <time>2020-12-26T14:38:00Z</time>
      </trkpt>
      <trkpt lat="46.97433" lon="6.00701">
        <ele>632.4</ele>
        <time>2020-12-26T14:38:01Z</time>
      </trkpt>
      <trkpt lat="46.97435" lon="6.00705">
        <ele>632.4</ele>
        <time>2020-12-26T14:38:02Z</time>
      </trkpt>
      <trkpt lat="46.97436" lon="6.0071">
        <ele>632.8</ele>
        <time>2020-12-26T14:38:03Z</time>
      </trkpt>
      <trkpt lat="46.97437" lon="6.00714">
        <ele>632.8</ele>
        <time>2020-12-26T14:38:04Z</time>
      </trkpt>
      <trkpt lat="46.97438" lon="6.00718">
        <ele>633.2</ele>
        <time>2020-12-26T14:38:05Z</time>
      </trkpt>
      <trkpt lat="46.97439" lon="6.00722">
        <ele>633.4</ele>
        <time>2020-12-26T14:38:06Z</time>
      </trkpt>
      <trkpt lat="46.9744" lon="6.00727">
        <ele>633.6</ele>
        <time>2020-12-26T14:38:07Z</time>
      </trkpt>
      <trkpt lat="46.97441" lon="6.00731">
        <ele>633.8</ele>
        <time>2020-12-26T14:38:08Z</time>
      </trkpt>
      <trkpt lat="46.97442" lon="6.00735">
        <ele>634</ele>
        <time>2020-12-26T14:38:09Z</time>
      </trkpt>
      <trkpt lat="46.97444" lon="6.0074">
        <ele>634</ele>
        <time>2020-12-26T14:38:10Z</time>
      </trkpt>
      <trkpt lat="46.97445" lon="6.00744">
        <ele>634.4</ele>
        <time>2020-12-26T14:38:11Z</time>
      </trkpt>
      <trkpt lat="46.97446" lon="6.00749">
        <ele>634.4</ele>
        <time>2020-12-26T14:38:12Z</time>
      </trkpt>
      <trkpt lat="46.97447" lon="6.00754">
        <ele>634.8</ele>
        <time>2020-12-26T14:38:13Z</time>
      </trkpt>
      <trkpt lat="46.97448" lon="6.00758">
        <ele>635</ele>
        <time>2020-12-26T14:38:14Z</time>
      </trkpt>
      <trkpt lat="46.97448" lon="6.00763">
        <ele>635.4</ele>
        <time>2020-12-26T14:38:15Z</time>
      </trkpt>
      <trkpt lat="46.9745" lon="6.00767">
        <ele>635.6</ele>
        <time>2020-12-26T14:38:16Z</time>
      </trkpt>
      <trkpt lat="46.97451" lon="6.00772">
        <ele>635.8</ele>
        <time>2020-12-26T14:38:17Z</time>
      </trkpt>
      <trkpt lat="46.97451" lon="6.00777">
        <ele>635.8</ele>
        <time>2020-12-26T14:38:18Z</time>
      </trkpt>
      <trkpt lat="46.97452" lon="6.00781">
        <ele>636.2</ele>
        <time>2020-12-26T14:38:19Z</time>
      </trkpt>
      <trkpt lat="46.97453" lon="6.00786">
        <ele>636.4</ele>
        <time>2020-12-26T14:38:20Z</time>
      </trkpt>
      <trkpt lat="46.97454" lon="6.00791">
        <ele>636.6</ele>
        <time>2020-12-26T14:38:21Z</time>
      </trkpt>
      <trkpt lat="46.97455" lon="6.00795">
        <ele>636.8</ele>
        <time>2020-12-26T14:38:22Z</time>
      </trkpt>
      <trkpt lat="46.97456" lon="6.008">
        <ele>637.2</ele>
        <time>2020-12-26T14:38:23Z</time>
      </trkpt>
      <trkpt lat="46.97457" lon="6.00805">
        <ele>637.6</ele>
        <time>2020-12-26T14:38:24Z</time>
      </trkpt>
      <trkpt lat="46.97458" lon="6.0081">
        <ele>637.8</ele>
        <time>2020-12-26T14:38:25Z</time>
      </trkpt>
      <trkpt lat="46.97459" lon="6.00814">
        <ele>638.2</ele>
        <time>2020-12-26T14:38:26Z</time>
      </trkpt>
      <trkpt lat="46.9746" lon="6.00819">
        <ele>638.4</ele>
        <time>2020-12-26T14:38:27Z</time>
      </trkpt>
      <trkpt lat="46.97461" lon="6.00824">
        <ele>638.6</ele>
        <time>2020-12-26T14:38:28Z</time>
      </trkpt>
      <trkpt lat="46.97462" lon="6.00829">
        <ele>638.6</ele>
        <time>2020-12-26T14:38:29Z</time>
      </trkpt>
      <trkpt lat="46.97463" lon="6.00834">
        <ele>638.8</ele>
        <time>2020-12-26T14:38:30Z</time>
      </trkpt>
      <trkpt lat="46.97464" lon="6.00839">
        <ele>639.2</ele>
        <time>2020-12-26T14:38:31Z</time>
      </trkpt>
      <trkpt lat="46.97465" lon="6.00843">
        <ele>639.4</ele>
        <time>2020-12-26T14:38:32Z</time>
      </trkpt>
      <trkpt lat="46.97466" lon="6.00848">
        <ele>639.6</ele>
        <time>2020-12-26T14:38:33Z</time>
      </trkpt>
      <trkpt lat="46.97467" lon="6.00853">
        <ele>640</ele>
        <time>2020-12-26T14:38:34Z</time>
      </trkpt>
      <trkpt lat="46.97468" lon="6.00857">
        <ele>640</ele>
        <time>2020-12-26T14:38:35Z</time>
      </trkpt>
      <trkpt lat="46.97468" lon="6.00862">
        <ele>640.2</ele>
        <time>2020-12-26T14:38:36Z</time>
      </trkpt>
      <trkpt lat="46.97469" lon="6.00867">
        <ele>640.6</ele>
        <time>2020-12-26T14:38:37Z</time>
      </trkpt>
      <trkpt lat="46.9747" lon="6.00871">
        <ele>640.8</ele>
        <time>2020-12-26T14:38:38Z</time>
      </trkpt>
      <trkpt lat="46.97471" lon="6.00876">
        <ele>641.2</ele>
        <time>2020-12-26T14:38:39Z</time>
      </trkpt>
      <trkpt lat="46.97471" lon="6.0088">
        <ele>641.4</ele>
        <time>2020-12-26T14:38:40Z</time>
      </trkpt>
      <trkpt lat="46.97472" lon="6.00885">
        <ele>641.6</ele>
        <time>2020-12-26T14:38:41Z</time>
      </trkpt>
      <trkpt lat="46.97473" lon="6.00889">
        <ele>642</ele>
        <time>2020-12-26T14:38:42Z</time>
      </trkpt>
      <trkpt lat="46.97474" lon="6.00894">
        <ele>642.4</ele>
        <time>2020-12-26T14:38:43Z</time>
      </trkpt>
      <trkpt lat="46.97475" lon="6.00899">
        <ele>642.6</ele>
        <time>2020-12-26T14:38:44Z</time>
      </trkpt>
      <trkpt lat="46.97476" lon="6.00903">
        <ele>642.8</ele>
        <time>2020-12-26T14:38:45Z</time>
      </trkpt>
      <trkpt lat="46.97477" lon="6.00908">
        <ele>643.2</ele>
        <time>2020-12-26T14:38:46Z</time>
      </trkpt>
      <trkpt lat="46.97478" lon="6.00912">
        <ele>643.4</ele>
        <time>2020-12-26T14:38:47Z</time>
      </trkpt>
      <trkpt lat="46.97478" lon="6.00917">
        <ele>643.6</ele>
        <time>2020-12-26T14:38:48Z</time>
      </trkpt>
      <trkpt lat="46.97479" lon="6.00921">
        <ele>643.8</ele>
        <time>2020-12-26T14:38:49Z</time>
      </trkpt>
      <trkpt lat="46.9748" lon="6.00926">
        <ele>644</ele>
        <time>2020-12-26T14:38:50Z</time>
      </trkpt>
      <trkpt lat="46.97481" lon="6.0093">
        <ele>644.4</ele>
        <time>2020-12-26T14:38:51Z</time>
      </trkpt>
      <trkpt lat="46.97481" lon="6.00934">
        <ele>644.6</ele>
        <time>2020-12-26T14:38:52Z</time>
      </trkpt>
      <trkpt lat="46.97482" lon="6.00938">
        <ele>644.8</ele>
        <time>2020-12-26T14:38:53Z</time>
      </trkpt>
      <trkpt lat="46.97483" lon="6.00943">
        <ele>644.8</ele>
        <time>2020-12-26T14:38:54Z</time>
      </trkpt>
      <trkpt lat="46.97484" lon="6.00947">
        <ele>645</ele>
        <time>2020-12-26T14:38:55Z</time>
      </trkpt>
      <trkpt lat="46.97485" lon="6.00952">
        <ele>645</ele>
        <time>2020-12-26T14:38:56Z</time>
      </trkpt>
      <trkpt lat="46.97486" lon="6.00956">
        <ele>645.6</ele>
        <time>2020-12-26T14:38:57Z</time>
      </trkpt>
      <trkpt lat="46.97487" lon="6.0096">
        <ele>645.8</ele>
        <time>2020-12-26T14:38:58Z</time>
      </trkpt>
      <trkpt lat="46.97488" lon="6.00964">
        <ele>646</ele>
        <time>2020-12-26T14:38:59Z</time>
      </trkpt>
      <trkpt lat="46.97489" lon="6.00968">
        <ele>646.4</ele>
        <time>2020-12-26T14:39:00Z</time>
      </trkpt>
      <trkpt lat="46.9749" lon="6.00973">
        <ele>646.6</ele>
        <time>2020-12-26T14:39:01Z</time>
      </trkpt>
      <trkpt lat="46.97491" lon="6.00977">
        <ele>646.8</ele>
        <time>2020-12-26T14:39:02Z</time>
      </trkpt>
      <trkpt lat="46.97491" lon="6.00981">
        <ele>647</ele>
        <time>2020-12-26T14:39:03Z</time>
      </trkpt>
      <trkpt lat="46.97492" lon="6.00986">
        <ele>647.4</ele>
        <time>2020-12-26T14:39:04Z</time>
      </trkpt>
      <trkpt lat="46.97493" lon="6.0099">
        <ele>647.6</ele>
        <time>2020-12-26T14:39:05Z</time>
      </trkpt>
      <trkpt lat="46.97494" lon="6.00994">
        <ele>647.8</ele>
        <time>2020-12-26T14:39:06Z</time>
      </trkpt>
      <trkpt lat="46.97495" lon="6.00999">
        <ele>648</ele>
        <time>2020-12-26T14:39:07Z</time>
      </trkpt>
      <trkpt lat="46.97496" lon="6.01004">
        <ele>648.2</ele>
        <time>2020-12-26T14:39:08Z</time>
      </trkpt>
      <trkpt lat="46.97496" lon="6.01009">
        <ele>648.4</ele>
        <time>2020-12-26T14:39:09Z</time>
      </trkpt>
      <trkpt lat="46.97497" lon="6.01014">
        <ele>648.6</ele>
        <time>2020-12-26T14:39:10Z</time>
      </trkpt>
      <trkpt lat="46.97497" lon="6.01018">
        <ele>649</ele>
        <time>2020-12-26T14:39:11Z</time>
      </trkpt>
      <trkpt lat="46.97497" lon="6.01023">
        <ele>649.2</ele>
        <time>2020-12-26T14:39:12Z</time>
      </trkpt>
      <trkpt lat="46.97498" lon="6.01028">
        <ele>649.4</ele>
        <time>2020-12-26T14:39:13Z</time>
      </trkpt>
      <trkpt lat="46.97497" lon="6.01033">
        <ele>649.6</ele>
        <time>2020-12-26T14:39:14Z</time>
      </trkpt>
      <trkpt lat="46.97497" lon="6.01038">
        <ele>649.6</ele>
        <time>2020-12-26T14:39:15Z</time>
      </trkpt>
      <trkpt lat="46.97496" lon="6.01043">
        <ele>650</ele>
        <time>2020-12-26T14:39:16Z</time>
      </trkpt>
      <trkpt lat="46.97495" lon="6.01047">
        <ele>650.4</ele>
        <time>2020-12-26T14:39:17Z</time>
      </trkpt>
      <trkpt lat="46.97493" lon="6.01051">
        <ele>650.6</ele>
        <time>2020-12-26T14:39:18Z</time>
      </trkpt>
      <trkpt lat="46.97491" lon="6.01055">
        <ele>650.8</ele>
        <time>2020-12-26T14:39:19Z</time>
      </trkpt>
      <trkpt lat="46.97489" lon="6.01058">
        <ele>651.2</ele>
        <time>2020-12-26T14:39:20Z</time>
      </trkpt>
      <trkpt lat="46.97487" lon="6.01061">
        <ele>651.4</ele>
        <time>2020-12-26T14:39:21Z</time>
      </trkpt>
      <trkpt lat="46.97485" lon="6.01064">
        <ele>651.8</ele>
        <time>2020-12-26T14:39:22Z</time>
      </trkpt>
      <trkpt lat="46.97483" lon="6.01067">
        <ele>652</ele>
        <time>2020-12-26T14:39:23Z</time>
      </trkpt>
      <trkpt lat="46.97481" lon="6.01069">
        <ele>652.2</ele>
        <time>2020-12-26T14:39:24Z</time>
      </trkpt>
      <trkpt lat="46.97478" lon="6.0107">
        <ele>652.6</ele>
        <time>2020-12-26T14:39:25Z</time>
      </trkpt>
      <trkpt lat="46.97476" lon="6.01072">
        <ele>652.8</ele>
        <time>2020-12-26T14:39:26Z</time>
      </trkpt>
      <trkpt lat="46.97473" lon="6.01073">
        <ele>653</ele>
        <time>2020-12-26T14:39:27Z</time>
      </trkpt>
      <trkpt lat="46.97471" lon="6.01075">
        <ele>653.2</ele>
        <time>2020-12-26T14:39:28Z</time>
      </trkpt>
      <trkpt lat="46.97468" lon="6.01076">
        <ele>653.6</ele>
        <time>2020-12-26T14:39:29Z</time>
      </trkpt>
      <trkpt lat="46.97466" lon="6.01076">
        <ele>653.8</ele>
        <time>2020-12-26T14:39:30Z</time>
      </trkpt>
      <trkpt lat="46.97464" lon="6.01078">
        <ele>654</ele>
        <time>2020-12-26T14:39:31Z</time>
      </trkpt>
      <trkpt lat="46.97462" lon="6.01079">
        <ele>654.2</ele>
        <time>2020-12-26T14:39:32Z</time>
      </trkpt>
      <trkpt lat="46.97459" lon="6.01079">
        <ele>654.6</ele>
        <time>2020-12-26T14:39:33Z</time>
      </trkpt>
      <trkpt lat="46.97457" lon="6.0108">
        <ele>654.6</ele>
        <time>2020-12-26T14:39:34Z</time>
      </trkpt>
      <trkpt lat="46.97454" lon="6.01081">
        <ele>655</ele>
        <time>2020-12-26T14:39:35Z</time>
      </trkpt>
      <trkpt lat="46.97452" lon="6.01081">
        <ele>655</ele>
        <time>2020-12-26T14:39:36Z</time>
      </trkpt>
      <trkpt lat="46.97449" lon="6.01082">
        <ele>655.4</ele>
        <time>2020-12-26T14:39:37Z</time>
      </trkpt>
      <trkpt lat="46.97446" lon="6.01083">
        <ele>655.4</ele>
        <time>2020-12-26T14:39:38Z</time>
      </trkpt>
      <trkpt lat="46.97443" lon="6.01084">
        <ele>655.8</ele>
        <time>2020-12-26T14:39:39Z</time>
      </trkpt>
      <trkpt lat="46.97439" lon="6.01085">
        <ele>656</ele>
        <time>2020-12-26T14:39:40Z</time>
      </trkpt>
      <trkpt lat="46.97436" lon="6.01085">
        <ele>656.2</ele>
        <time>2020-12-26T14:39:41Z</time>
      </trkpt>
      <trkpt lat="46.97433" lon="6.01085">
        <ele>656.4</ele>
        <time>2020-12-26T14:39:42Z</time>
      </trkpt>
      <trkpt lat="46.9743" lon="6.01085">
        <ele>656.6</ele>
        <time>2020-12-26T14:39:43Z</time>
      </trkpt>
      <trkpt lat="46.97426" lon="6.01084">
        <ele>656.6</ele>
        <time>2020-12-26T14:39:44Z</time>
      </trkpt>
      <trkpt lat="46.97423" lon="6.01083">
        <ele>657</ele>
        <time>2020-12-26T14:39:45Z</time>
      </trkpt>
      <trkpt lat="46.9742" lon="6.01082">
        <ele>657.2</ele>
        <time>2020-12-26T14:39:46Z</time>
      </trkpt>
      <trkpt lat="46.97417" lon="6.01082">
        <ele>657.2</ele>
        <time>2020-12-26T14:39:47Z</time>
      </trkpt>
      <trkpt lat="46.97414" lon="6.01081">
        <ele>657.6</ele>
        <time>2020-12-26T14:39:48Z</time>
      </trkpt>
      <trkpt lat="46.97411" lon="6.01079">
        <ele>657.8</ele>
        <time>2020-12-26T14:39:49Z</time>
      </trkpt>
      <trkpt lat="46.97409" lon="6.01077">
        <ele>657.8</ele>
        <time>2020-12-26T14:39:50Z</time>
      </trkpt>
      <trkpt lat="46.97406" lon="6.01075">
        <ele>658.2</ele>
        <time>2020-12-26T14:39:51Z</time>
      </trkpt>
      <trkpt lat="46.97403" lon="6.01073">
        <ele>658.4</ele>
        <time>2020-12-26T14:39:52Z</time>
      </trkpt>
      <trkpt lat="46.97401" lon="6.0107">
        <ele>658.4</ele>
        <time>2020-12-26T14:39:53Z</time>
      </trkpt>
      <trkpt lat="46.97398" lon="6.01068">
        <ele>658.8</ele>
        <time>2020-12-26T14:39:54Z</time>
      </trkpt>
      <trkpt lat="46.97396" lon="6.01065">
        <ele>658.8</ele>
        <time>2020-12-26T14:39:55Z</time>
      </trkpt>
      <trkpt lat="46.97393" lon="6.01063">
        <ele>659.2</ele>
        <time>2020-12-26T14:39:56Z</time>
      </trkpt>
      <trkpt lat="46.97391" lon="6.0106">
        <ele>659.4</ele>
        <time>2020-12-26T14:39:57Z</time>
      </trkpt>
      <trkpt lat="46.97389" lon="6.01057">
        <ele>659.4</ele>
        <time>2020-12-26T14:39:58Z</time>
      </trkpt>
      <trkpt lat="46.97386" lon="6.01054">
        <ele>659.8</ele>
        <time>2020-12-26T14:39:59Z</time>
      </trkpt>
      <trkpt lat="46.97384" lon="6.01052">
        <ele>660</ele>
        <time>2020-12-26T14:40:00Z</time>
      </trkpt>
      <trkpt lat="46.97383" lon="6.01049">
        <ele>660</ele>
        <time>2020-12-26T14:40:01Z</time>
      </trkpt>
      <trkpt lat="46.97381" lon="6.01046">
        <ele>660.4</ele>
        <time>2020-12-26T14:40:02Z</time>
      </trkpt>
      <trkpt lat="46.97379" lon="6.01043">
        <ele>660.6</ele>
        <time>2020-12-26T14:40:03Z</time>
      </trkpt>
      <trkpt lat="46.97377" lon="6.0104">
        <ele>660.8</ele>
        <time>2020-12-26T14:40:04Z</time>
      </trkpt>
      <trkpt lat="46.97374" lon="6.01038">
        <ele>660.8</ele>
        <time>2020-12-26T14:40:05Z</time>
      </trkpt>
      <trkpt lat="46.97372" lon="6.01035">
        <ele>661.2</ele>
        <time>2020-12-26T14:40:06Z</time>
      </trkpt>
      <trkpt lat="46.9737" lon="6.01032">
        <ele>661.2</ele>
        <time>2020-12-26T14:40:07Z</time>
      </trkpt>
      <trkpt lat="46.97368" lon="6.01029">
        <ele>661.6</ele>
        <time>2020-12-26T14:40:08Z</time>
      </trkpt>
      <trkpt lat="46.97366" lon="6.01026">
        <ele>661.8</ele>
        <time>2020-12-26T14:40:09Z</time>
      </trkpt>
      <trkpt lat="46.97363" lon="6.01023">
        <ele>662</ele>
        <time>2020-12-26T14:40:10Z</time>
      </trkpt>
      <trkpt lat="46.97361" lon="6.0102">
        <ele>662</ele>
        <time>2020-12-26T14:40:11Z</time>
      </trkpt>
      <trkpt lat="46.97359" lon="6.01017">
        <ele>662.4</ele>
        <time>2020-12-26T14:40:12Z</time>
      </trkpt>
      <trkpt lat="46.97357" lon="6.01014">
        <ele>662.4</ele>
        <time>2020-12-26T14:40:13Z</time>
      </trkpt>
      <trkpt lat="46.97354" lon="6.01011">
        <ele>662.8</ele>
        <time>2020-12-26T14:40:14Z</time>
      </trkpt>
      <trkpt lat="46.97352" lon="6.01008">
        <ele>663</ele>
        <time>2020-12-26T14:40:15Z</time>
      </trkpt>
      <trkpt lat="46.9735" lon="6.01005">
        <ele>663.4</ele>
        <time>2020-12-26T14:40:16Z</time>
      </trkpt>
      <trkpt lat="46.97347" lon="6.01002">
        <ele>663.6</ele>
        <time>2020-12-26T14:40:17Z</time>
      </trkpt>
      <trkpt lat="46.97345" lon="6.00999">
        <ele>663.6</ele>
        <time>2020-12-26T14:40:18Z</time>
      </trkpt>
      <trkpt lat="46.97343" lon="6.00996">
        <ele>664</ele>
        <time>2020-12-26T14:40:19Z</time>
      </trkpt>
      <trkpt lat="46.97341" lon="6.00993">
        <ele>664.2</ele>
        <time>2020-12-26T14:40:20Z</time>
      </trkpt>
      <trkpt lat="46.97339" lon="6.0099">
        <ele>664.4</ele>
        <time>2020-12-26T14:40:21Z</time>
      </trkpt>
      <trkpt lat="46.97337" lon="6.00987">
        <ele>664.8</ele>
        <time>2020-12-26T14:40:22Z</time>
      </trkpt>
      <trkpt lat="46.97335" lon="6.00984">
        <ele>665</ele>
        <time>2020-12-26T14:40:23Z</time>
      </trkpt>
      <trkpt lat="46.97333" lon="6.00981">
        <ele>665.4</ele>
        <time>2020-12-26T14:40:24Z</time>
      </trkpt>
      <trkpt lat="46.97331" lon="6.00978">
        <ele>665.6</ele>
        <time>2020-12-26T14:40:25Z</time>
      </trkpt>
      <trkpt lat="46.97329" lon="6.00976">
        <ele>665.8</ele>
        <time>2020-12-26T14:40:26Z</time>
      </trkpt>
      <trkpt lat="46.97327" lon="6.00973">
        <ele>666.2</ele>
        <time>2020-12-26T14:40:27Z</time>
      </trkpt>
      <trkpt lat="46.97325" lon="6.0097">
        <ele>666.4</ele>
        <time>2020-12-26T14:40:28Z</time>
      </trkpt>
      <trkpt lat="46.97322" lon="6.00969">
        <ele>666.8</ele>
        <time>2020-12-26T14:40:29Z</time>
      </trkpt>
      <trkpt lat="46.97319" lon="6.00969">
        <ele>667</ele>
        <time>2020-12-26T14:40:30Z</time>
      </trkpt>
      <trkpt lat="46.97316" lon="6.0097">
        <ele>667</ele>
        <time>2020-12-26T14:40:31Z</time>
      </trkpt>
      <trkpt lat="46.97313" lon="6.00971">
        <ele>667.4</ele>
        <time>2020-12-26T14:40:32Z</time>
      </trkpt>
      <trkpt lat="46.9731" lon="6.00973">
        <ele>667.4</ele>
        <time>2020-12-26T14:40:33Z</time>
      </trkpt>
      <trkpt lat="46.97308" lon="6.00975">
        <ele>667.8</ele>
        <time>2020-12-26T14:40:34Z</time>
      </trkpt>
      <trkpt lat="46.97306" lon="6.00977">
        <ele>667.8</ele>
        <time>2020-12-26T14:40:35Z</time>
      </trkpt>
      <trkpt lat="46.97304" lon="6.0098">
        <ele>668.2</ele>
        <time>2020-12-26T14:40:36Z</time>
      </trkpt>
      <trkpt lat="46.97303" lon="6.00984">
        <ele>668.4</ele>
        <time>2020-12-26T14:40:37Z</time>
      </trkpt>
      <trkpt lat="46.97302" lon="6.00988">
        <ele>668.4</ele>
        <time>2020-12-26T14:40:38Z</time>
      </trkpt>
      <trkpt lat="46.97301" lon="6.00992">
        <ele>668.8</ele>
        <time>2020-12-26T14:40:39Z</time>
      </trkpt>
      <trkpt lat="46.973" lon="6.00997">
        <ele>668.8</ele>
        <time>2020-12-26T14:40:40Z</time>
      </trkpt>
      <trkpt lat="46.97299" lon="6.01001">
        <ele>669</ele>
        <time>2020-12-26T14:40:41Z</time>
      </trkpt>
      <trkpt lat="46.97298" lon="6.01005">
        <ele>669</ele>
        <time>2020-12-26T14:40:42Z</time>
      </trkpt>
      <trkpt lat="46.97297" lon="6.0101">
        <ele>669.4</ele>
        <time>2020-12-26T14:40:43Z</time>
      </trkpt>
      <trkpt lat="46.97296" lon="6.01014">
        <ele>669.4</ele>
        <time>2020-12-26T14:40:44Z</time>
      </trkpt>
      <trkpt lat="46.97296" lon="6.01019">
        <ele>669.6</ele>
        <time>2020-12-26T14:40:45Z</time>
      </trkpt>
      <trkpt lat="46.97295" lon="6.01023">
        <ele>669.6</ele>
        <time>2020-12-26T14:40:46Z</time>
      </trkpt>
      <trkpt lat="46.97294" lon="6.01027">
        <ele>670</ele>
        <time>2020-12-26T14:40:47Z</time>
      </trkpt>
      <trkpt lat="46.97294" lon="6.01032">
        <ele>670.2</ele>
        <time>2020-12-26T14:40:48Z</time>
      </trkpt>
      <trkpt lat="46.97293" lon="6.01037">
        <ele>670.4</ele>
        <time>2020-12-26T14:40:49Z</time>
      </trkpt>
      <trkpt lat="46.97293" lon="6.01041">
        <ele>670.6</ele>
        <time>2020-12-26T14:40:50Z</time>
      </trkpt>
      <trkpt lat="46.97292" lon="6.01045">
        <ele>670.8</ele>
        <time>2020-12-26T14:40:51Z</time>
      </trkpt>
      <trkpt lat="46.97291" lon="6.01049">
        <ele>671</ele>
        <time>2020-12-26T14:40:52Z</time>
      </trkpt>
      <trkpt lat="46.97291" lon="6.01054">
        <ele>671</ele>
        <time>2020-12-26T14:40:53Z</time>
      </trkpt>
      <trkpt lat="46.97289" lon="6.01057">
        <ele>671.4</ele>
        <time>2020-12-26T14:40:54Z</time>
      </trkpt>
      <trkpt lat="46.97288" lon="6.01061">
        <ele>671.8</ele>
        <time>2020-12-26T14:40:55Z</time>
      </trkpt>
      <trkpt lat="46.97287" lon="6.01065">
        <ele>672</ele>
        <time>2020-12-26T14:40:56Z</time>
      </trkpt>
      <trkpt lat="46.97285" lon="6.01069">
        <ele>672.4</ele>
        <time>2020-12-26T14:40:57Z</time>
      </trkpt>
      <trkpt lat="46.97283" lon="6.01072">
        <ele>672.6</ele>
        <time>2020-12-26T14:40:58Z</time>
      </trkpt>
      <trkpt lat="46.97281" lon="6.01075">
        <ele>672.8</ele>
        <time>2020-12-26T14:40:59Z</time>
      </trkpt>
      <trkpt lat="46.97279" lon="6.01078">
        <ele>672.8</ele>
        <time>2020-12-26T14:41:00Z</time>
      </trkpt>
      <trkpt lat="46.97277" lon="6.01081">
        <ele>673.2</ele>
        <time>2020-12-26T14:41:01Z</time>
      </trkpt>
      <trkpt lat="46.97274" lon="6.01083">
        <ele>673.2</ele>
        <time>2020-12-26T14:41:02Z</time>
      </trkpt>
      <trkpt lat="46.97272" lon="6.01085">
        <ele>673.6</ele>
        <time>2020-12-26T14:41:03Z</time>
      </trkpt>
      <trkpt lat="46.9727" lon="6.01087">
        <ele>674</ele>
        <time>2020-12-26T14:41:04Z</time>
      </trkpt>
      <trkpt lat="46.97267" lon="6.01089">
        <ele>674</ele>
        <time>2020-12-26T14:41:05Z</time>
      </trkpt>
      <trkpt lat="46.97264" lon="6.01091">
        <ele>674.2</ele>
        <time>2020-12-26T14:41:06Z</time>
      </trkpt>
      <trkpt lat="46.97261" lon="6.01092">
        <ele>674.4</ele>
        <time>2020-12-26T14:41:07Z</time>
      </trkpt>
      <trkpt lat="46.97258" lon="6.01092">
        <ele>674.8</ele>
        <time>2020-12-26T14:41:08Z</time>
      </trkpt>
      <trkpt lat="46.97255" lon="6.01093">
        <ele>675</ele>
        <time>2020-12-26T14:41:09Z</time>
      </trkpt>
      <trkpt lat="46.97252" lon="6.01093">
        <ele>675.2</ele>
        <time>2020-12-26T14:41:10Z</time>
      </trkpt>
      <trkpt lat="46.97249" lon="6.01093">
        <ele>675.6</ele>
        <time>2020-12-26T14:41:11Z</time>
      </trkpt>
      <trkpt lat="46.97246" lon="6.01092">
        <ele>675.8</ele>
        <time>2020-12-26T14:41:12Z</time>
      </trkpt>
      <trkpt lat="46.97244" lon="6.01092">
        <ele>676</ele>
        <time>2020-12-26T14:41:13Z</time>
      </trkpt>
      <trkpt lat="46.9724" lon="6.01091">
        <ele>676.2</ele>
        <time>2020-12-26T14:41:14Z</time>
      </trkpt>
      <trkpt lat="46.97237" lon="6.01089">
        <ele>676.6</ele>
        <time>2020-12-26T14:41:15Z</time>
      </trkpt>
      <trkpt lat="46.97234" lon="6.01088">
        <ele>677</ele>
        <time>2020-12-26T14:41:16Z</time>
      </trkpt>
      <trkpt lat="46.97231" lon="6.01087">
        <ele>677.4</ele>
        <time>2020-12-26T14:41:17Z</time>
      </trkpt>
      <trkpt lat="46.97229" lon="6.01086">
        <ele>677.8</ele>
        <time>2020-12-26T14:41:18Z</time>
      </trkpt>
      <trkpt lat="46.97226" lon="6.01084">
        <ele>678</ele>
        <time>2020-12-26T14:41:19Z</time>
      </trkpt>
      <trkpt lat="46.97224" lon="6.01083">
        <ele>678.4</ele>
        <time>2020-12-26T14:41:20Z</time>
      </trkpt>
      <trkpt lat="46.97222" lon="6.0108">
        <ele>678.8</ele>
        <time>2020-12-26T14:41:21Z</time>
      </trkpt>
      <trkpt lat="46.97219" lon="6.01078">
        <ele>679</ele>
        <time>2020-12-26T14:41:22Z</time>
      </trkpt>
      <trkpt lat="46.97217" lon="6.01076">
        <ele>679.2</ele>
        <time>2020-12-26T14:41:23Z</time>
      </trkpt>
      <trkpt lat="46.97216" lon="6.01073">
        <ele>679.6</ele>
        <time>2020-12-26T14:41:24Z</time>
      </trkpt>
      <trkpt lat="46.97214" lon="6.0107">
        <ele>679.6</ele>
        <time>2020-12-26T14:41:25Z</time>
      </trkpt>
      <trkpt lat="46.97211" lon="6.01068">
        <ele>680</ele>
        <time>2020-12-26T14:41:26Z</time>
      </trkpt>
      <trkpt lat="46.97209" lon="6.01065">
        <ele>680.2</ele>
        <time>2020-12-26T14:41:27Z</time>
      </trkpt>
      <trkpt lat="46.97206" lon="6.01063">
        <ele>680.2</ele>
        <time>2020-12-26T14:41:28Z</time>
      </trkpt>
      <trkpt lat="46.97204" lon="6.01061">
        <ele>680.6</ele>
        <time>2020-12-26T14:41:29Z</time>
      </trkpt>
      <trkpt lat="46.97201" lon="6.01059">
        <ele>680.8</ele>
        <time>2020-12-26T14:41:30Z</time>
      </trkpt>
      <trkpt lat="46.97198" lon="6.01057">
        <ele>681</ele>
        <time>2020-12-26T14:41:31Z</time>
      </trkpt>
      <trkpt lat="46.97196" lon="6.01057">
        <ele>681</ele>
        <time>2020-12-26T14:41:32Z</time>
      </trkpt>
      <trkpt lat="46.97192" lon="6.01056">
        <ele>681.4</ele>
        <time>2020-12-26T14:41:33Z</time>
      </trkpt>
      <trkpt lat="46.9719" lon="6.01057">
        <ele>681.6</ele>
        <time>2020-12-26T14:41:34Z</time>
      </trkpt>
      <trkpt lat="46.97187" lon="6.01058">
        <ele>681.6</ele>
        <time>2020-12-26T14:41:35Z</time>
      </trkpt>
      <trkpt lat="46.97184" lon="6.01059">
        <ele>682</ele>
        <time>2020-12-26T14:41:36Z</time>
      </trkpt>
      <trkpt lat="46.97181" lon="6.0106">
        <ele>682</ele>
        <time>2020-12-26T14:41:37Z</time>
      </trkpt>
      <trkpt lat="46.97178" lon="6.01062">
        <ele>682.4</ele>
        <time>2020-12-26T14:41:38Z</time>
      </trkpt>
      <trkpt lat="46.97174" lon="6.01063">
        <ele>682.4</ele>
        <time>2020-12-26T14:41:39Z</time>
      </trkpt>
      <trkpt lat="46.97171" lon="6.01064">
        <ele>682.6</ele>
        <time>2020-12-26T14:41:40Z</time>
      </trkpt>
      <trkpt lat="46.97169" lon="6.01065">
        <ele>682.8</ele>
        <time>2020-12-26T14:41:41Z</time>
      </trkpt>
      <trkpt lat="46.97166" lon="6.01067">
        <ele>683.2</ele>
        <time>2020-12-26T14:41:42Z</time>
      </trkpt>
      <trkpt lat="46.97164" lon="6.01069">
        <ele>683.4</ele>
        <time>2020-12-26T14:41:43Z</time>
      </trkpt>
      <trkpt lat="46.97161" lon="6.0107">
        <ele>683.6</ele>
        <time>2020-12-26T14:41:44Z</time>
      </trkpt>
      <trkpt lat="46.97158" lon="6.01072">
        <ele>683.8</ele>
        <time>2020-12-26T14:41:45Z</time>
      </trkpt>
      <trkpt lat="46.97156" lon="6.01074">
        <ele>684</ele>
        <time>2020-12-26T14:41:46Z</time>
      </trkpt>
      <trkpt lat="46.97153" lon="6.01076">
        <ele>684.4</ele>
        <time>2020-12-26T14:41:47Z</time>
      </trkpt>
      <trkpt lat="46.9715" lon="6.01078">
        <ele>684.6</ele>
        <time>2020-12-26T14:41:48Z</time>
      </trkpt>
      <trkpt lat="46.97148" lon="6.0108">
        <ele>684.8</ele>
        <time>2020-12-26T14:41:49Z</time>
      </trkpt>
      <trkpt lat="46.97145" lon="6.01083">
        <ele>685</ele>
        <time>2020-12-26T14:41:50Z</time>
      </trkpt>
      <trkpt lat="46.97143" lon="6.01086">
        <ele>685</ele>
        <time>2020-12-26T14:41:51Z</time>
      </trkpt>
      <trkpt lat="46.97141" lon="6.01088">
        <ele>685.4</ele>
        <time>2020-12-26T14:41:52Z</time>
      </trkpt>
      <trkpt lat="46.97138" lon="6.01091">
        <ele>685.6</ele>
        <time>2020-12-26T14:41:53Z</time>
      </trkpt>
      <trkpt lat="46.97135" lon="6.01093">
        <ele>685.6</ele>
        <time>2020-12-26T14:41:54Z</time>
      </trkpt>
      <trkpt lat="46.97133" lon="6.01095">
        <ele>686</ele>
        <time>2020-12-26T14:41:55Z</time>
      </trkpt>
      <trkpt lat="46.9713" lon="6.01097">
        <ele>686.2</ele>
        <time>2020-12-26T14:41:56Z</time>
      </trkpt>
      <trkpt lat="46.97128" lon="6.011">
        <ele>686.2</ele>
        <time>2020-12-26T14:41:57Z</time>
      </trkpt>
      <trkpt lat="46.97125" lon="6.01102">
        <ele>686.6</ele>
        <time>2020-12-26T14:41:58Z</time>
      </trkpt>
      <trkpt lat="46.97123" lon="6.01104">
        <ele>686.8</ele>
        <time>2020-12-26T14:41:59Z</time>
      </trkpt>
      <trkpt lat="46.9712" lon="6.01106">
        <ele>687.2</ele>
        <time>2020-12-26T14:42:00Z</time>
      </trkpt>
      <trkpt lat="46.97118" lon="6.01108">
        <ele>687.4</ele>
        <time>2020-12-26T14:42:01Z</time>
      </trkpt>
      <trkpt lat="46.97116" lon="6.0111">
        <ele>687.6</ele>
        <time>2020-12-26T14:42:02Z</time>
      </trkpt>
      <trkpt lat="46.97113" lon="6.01112">
        <ele>687.8</ele>
        <time>2020-12-26T14:42:03Z</time>
      </trkpt>
      <trkpt lat="46.97111" lon="6.01114">
        <ele>687.8</ele>
        <time>2020-12-26T14:42:04Z</time>
      </trkpt>
      <trkpt lat="46.97109" lon="6.01116">
        <ele>688.2</ele>
        <time>2020-12-26T14:42:05Z</time>
      </trkpt>
      <trkpt lat="46.97106" lon="6.01117">
        <ele>688.2</ele>
        <time>2020-12-26T14:42:06Z</time>
      </trkpt>
      <trkpt lat="46.97104" lon="6.01119">
        <ele>688.6</ele>
        <time>2020-12-26T14:42:07Z</time>
      </trkpt>
      <trkpt lat="46.97101" lon="6.0112">
        <ele>688.6</ele>
        <time>2020-12-26T14:42:08Z</time>
      </trkpt>
      <trkpt lat="46.97099" lon="6.01122">
        <ele>689</ele>
        <time>2020-12-26T14:42:09Z</time>
      </trkpt>
      <trkpt lat="46.97097" lon="6.01124">
        <ele>689.2</ele>
        <time>2020-12-26T14:42:10Z</time>
      </trkpt>
      <trkpt lat="46.97094" lon="6.01126">
        <ele>689.6</ele>
        <time>2020-12-26T14:42:11Z</time>
      </trkpt>
      <trkpt lat="46.97092" lon="6.01128">
        <ele>689.8</ele>
        <time>2020-12-26T14:42:12Z</time>
      </trkpt>
      <trkpt lat="46.97089" lon="6.01129">
        <ele>690</ele>
        <time>2020-12-26T14:42:13Z</time>
      </trkpt>
      <trkpt lat="46.97086" lon="6.01131">
        <ele>690.2</ele>
        <time>2020-12-26T14:42:14Z</time>
      </trkpt>
      <trkpt lat="46.97084" lon="6.01132">
        <ele>690.6</ele>
        <time>2020-12-26T14:42:15Z</time>
      </trkpt>
      <trkpt lat="46.97081" lon="6.01133">
        <ele>690.6</ele>
        <time>2020-12-26T14:42:16Z</time>
      </trkpt>
      <trkpt lat="46.97078" lon="6.01133">
        <ele>691</ele>
        <time>2020-12-26T14:42:17Z</time>
      </trkpt>
      <trkpt lat="46.97076" lon="6.01135">
        <ele>691</ele>
        <time>2020-12-26T14:42:18Z</time>
      </trkpt>
      <trkpt lat="46.97073" lon="6.01136">
        <ele>691.4</ele>
        <time>2020-12-26T14:42:19Z</time>
      </trkpt>
      <trkpt lat="46.9707" lon="6.01137">
        <ele>691.6</ele>
        <time>2020-12-26T14:42:20Z</time>
      </trkpt>
      <trkpt lat="46.97067" lon="6.01139">
        <ele>691.6</ele>
        <time>2020-12-26T14:42:21Z</time>
      </trkpt>
      <trkpt lat="46.97064" lon="6.0114">
        <ele>692</ele>
        <time>2020-12-26T14:42:22Z</time>
      </trkpt>
      <trkpt lat="46.97061" lon="6.01142">
        <ele>692</ele>
        <time>2020-12-26T14:42:23Z</time>
      </trkpt>
      <trkpt lat="46.97058" lon="6.01144">
        <ele>692.2</ele>
        <time>2020-12-26T14:42:24Z</time>
      </trkpt>
      <trkpt lat="46.97055" lon="6.01145">
        <ele>692.2</ele>
        <time>2020-12-26T14:42:25Z</time>
      </trkpt>
      <trkpt lat="46.97051" lon="6.01146">
        <ele>692.6</ele>
        <time>2020-12-26T14:42:26Z</time>
      </trkpt>
      <trkpt lat="46.97048" lon="6.01147">
        <ele>692.8</ele>
        <time>2020-12-26T14:42:27Z</time>
      </trkpt>
      <trkpt lat="46.97045" lon="6.01148">
        <ele>692.8</ele>
        <time>2020-12-26T14:42:28Z</time>
      </trkpt>
      <trkpt lat="46.97041" lon="6.01149">
        <ele>693.2</ele>
        <time>2020-12-26T14:42:29Z</time>
      </trkpt>
      <trkpt lat="46.97038" lon="6.0115">
        <ele>693.2</ele>
        <time>2020-12-26T14:42:30Z</time>
      </trkpt>
      <trkpt lat="46.97035" lon="6.01152">
        <ele>693.6</ele>
        <time>2020-12-26T14:42:31Z</time>
      </trkpt>
      <trkpt lat="46.97033" lon="6.01153">
        <ele>694</ele>
        <time>2020-12-26T14:42:32Z</time>
      </trkpt>
      <trkpt lat="46.97029" lon="6.01154">
        <ele>694.2</ele>
        <time>2020-12-26T14:42:33Z</time>
      </trkpt>
      <trkpt lat="46.97027" lon="6.01155">
        <ele>694.4</ele>
        <time>2020-12-26T14:42:34Z</time>
      </trkpt>
      <trkpt lat="46.97024" lon="6.01156">
        <ele>694.6</ele>
        <time>2020-12-26T14:42:35Z</time>
      </trkpt>
      <trkpt lat="46.97021" lon="6.01157">
        <ele>694.8</ele>
        <time>2020-12-26T14:42:36Z</time>
      </trkpt>
      <trkpt lat="46.97019" lon="6.01159">
        <ele>694.8</ele>
        <time>2020-12-26T14:42:37Z</time>
      </trkpt>
      <trkpt lat="46.97017" lon="6.0116">
        <ele>695.2</ele>
        <time>2020-12-26T14:42:38Z</time>
      </trkpt>
      <trkpt lat="46.97015" lon="6.01162">
        <ele>695.2</ele>
        <time>2020-12-26T14:42:39Z</time>
      </trkpt>
      <trkpt lat="46.97013" lon="6.01163">
        <ele>695.6</ele>
        <time>2020-12-26T14:42:40Z</time>
      </trkpt>
      <trkpt lat="46.9701" lon="6.01165">
        <ele>695.6</ele>
        <time>2020-12-26T14:42:41Z</time>
      </trkpt>
      <trkpt lat="46.97008" lon="6.01167">
        <ele>696</ele>
        <time>2020-12-26T14:42:42Z</time>
      </trkpt>
      <trkpt lat="46.97006" lon="6.01168">
        <ele>696</ele>
        <time>2020-12-26T14:42:43Z</time>
      </trkpt>
      <trkpt lat="46.97004" lon="6.01169">
        <ele>696.4</ele>
        <time>2020-12-26T14:42:44Z</time>
      </trkpt>
      <trkpt lat="46.97002" lon="6.01171">
        <ele>696.6</ele>
        <time>2020-12-26T14:42:45Z</time>
      </trkpt>
      <trkpt lat="46.97" lon="6.01173">
        <ele>697</ele>
        <time>2020-12-26T14:42:46Z</time>
      </trkpt>
      <trkpt lat="46.96998" lon="6.01175">
        <ele>697.2</ele>
        <time>2020-12-26T14:42:47Z</time>
      </trkpt>
      <trkpt lat="46.96995" lon="6.01176">
        <ele>697.4</ele>
        <time>2020-12-26T14:42:48Z</time>
      </trkpt>
      <trkpt lat="46.96993" lon="6.01178">
        <ele>697.6</ele>
        <time>2020-12-26T14:42:49Z</time>
      </trkpt>
      <trkpt lat="46.9699" lon="6.01181">
        <ele>697.8</ele>
        <time>2020-12-26T14:42:50Z</time>
      </trkpt>
      <trkpt lat="46.96988" lon="6.01184">
        <ele>698</ele>
        <time>2020-12-26T14:42:51Z</time>
      </trkpt>
      <trkpt lat="46.96985" lon="6.01187">
        <ele>698</ele>
        <time>2020-12-26T14:42:52Z</time>
      </trkpt>
      <trkpt lat="46.96983" lon="6.01191">
        <ele>698.4</ele>
        <time>2020-12-26T14:42:53Z</time>
      </trkpt>
      <trkpt lat="46.96981" lon="6.01195">
        <ele>698.4</ele>
        <time>2020-12-26T14:42:54Z</time>
      </trkpt>
      <trkpt lat="46.9698" lon="6.01198">
        <ele>698.6</ele>
        <time>2020-12-26T14:42:55Z</time>
      </trkpt>
      <trkpt lat="46.96979" lon="6.01201">
        <ele>699</ele>
        <time>2020-12-26T14:42:56Z</time>
      </trkpt>
      <trkpt lat="46.96976" lon="6.01204">
        <ele>699.2</ele>
        <time>2020-12-26T14:42:57Z</time>
      </trkpt>
      <trkpt lat="46.96974" lon="6.01207">
        <ele>699.4</ele>
        <time>2020-12-26T14:42:58Z</time>
      </trkpt>
      <trkpt lat="46.96971" lon="6.0121">
        <ele>699.6</ele>
        <time>2020-12-26T14:42:59Z</time>
      </trkpt>
      <trkpt lat="46.96968" lon="6.01213">
        <ele>700</ele>
        <time>2020-12-26T14:43:00Z</time>
      </trkpt>
      <trkpt lat="46.96966" lon="6.01216">
        <ele>700.2</ele>
        <time>2020-12-26T14:43:01Z</time>
      </trkpt>
      <trkpt lat="46.96964" lon="6.01218">
        <ele>700.4</ele>
        <time>2020-12-26T14:43:02Z</time>
      </trkpt>
      <trkpt lat="46.96961" lon="6.0122">
        <ele>700.6</ele>
        <time>2020-12-26T14:43:03Z</time>
      </trkpt>
      <trkpt lat="46.96958" lon="6.01223">
        <ele>700.8</ele>
        <time>2020-12-26T14:43:04Z</time>
      </trkpt>
      <trkpt lat="46.96956" lon="6.01225">
        <ele>700.8</ele>
        <time>2020-12-26T14:43:05Z</time>
      </trkpt>
      <trkpt lat="46.96954" lon="6.01227">
        <ele>701.4</ele>
        <time>2020-12-26T14:43:06Z</time>
      </trkpt>
      <trkpt lat="46.96952" lon="6.01229">
        <ele>701.4</ele>
        <time>2020-12-26T14:43:07Z</time>
      </trkpt>
      <trkpt lat="46.96949" lon="6.01232">
        <ele>701.8</ele>
        <time>2020-12-26T14:43:08Z</time>
      </trkpt>
      <trkpt lat="46.96947" lon="6.01234">
        <ele>702</ele>
        <time>2020-12-26T14:43:09Z</time>
      </trkpt>
      <trkpt lat="46.96945" lon="6.01236">
        <ele>702.4</ele>
        <time>2020-12-26T14:43:10Z</time>
      </trkpt>
      <trkpt lat="46.96943" lon="6.01238">
        <ele>702.4</ele>
        <time>2020-12-26T14:43:11Z</time>
      </trkpt>
      <trkpt lat="46.9694" lon="6.01241">
        <ele>702.6</ele>
        <time>2020-12-26T14:43:12Z</time>
      </trkpt>
      <trkpt lat="46.96937" lon="6.01243">
        <ele>702.8</ele>
        <time>2020-12-26T14:43:13Z</time>
      </trkpt>
      <trkpt lat="46.96933" lon="6.01245">
        <ele>702.8</ele>
        <time>2020-12-26T14:43:14Z</time>
      </trkpt>
      <trkpt lat="46.9693" lon="6.01247">
        <ele>703.2</ele>
        <time>2020-12-26T14:43:15Z</time>
      </trkpt>
      <trkpt lat="46.96926" lon="6.01249">
        <ele>703.6</ele>
        <time>2020-12-26T14:43:16Z</time>
      </trkpt>
      <trkpt lat="46.96923" lon="6.01252">
        <ele>703.8</ele>
        <time>2020-12-26T14:43:17Z</time>
      </trkpt>
      <trkpt lat="46.9692" lon="6.01255">
        <ele>704</ele>
        <time>2020-12-26T14:43:18Z</time>
      </trkpt>
      <trkpt lat="46.96917" lon="6.01257">
        <ele>704.4</ele>
        <time>2020-12-26T14:43:19Z</time>
      </trkpt>
      <trkpt lat="46.96914" lon="6.01259">
        <ele>704.6</ele>
        <time>2020-12-26T14:43:20Z</time>
      </trkpt>
      <trkpt lat="46.96911" lon="6.01261">
        <ele>705</ele>
        <time>2020-12-26T14:43:21Z</time>
      </trkpt>
      <trkpt lat="46.96908" lon="6.01263">
        <ele>705.2</ele>
        <time>2020-12-26T14:43:22Z</time>
      </trkpt>
      <trkpt lat="46.96905" lon="6.01264">
        <ele>705.6</ele>
        <time>2020-12-26T14:43:23Z</time>
      </trkpt>
      <trkpt lat="46.96902" lon="6.01266">
        <ele>705.8</ele>
        <time>2020-12-26T14:43:24Z</time>
      </trkpt>
      <trkpt lat="46.96899" lon="6.01268">
        <ele>706</ele>
        <time>2020-12-26T14:43:25Z</time>
      </trkpt>
      <trkpt lat="46.96896" lon="6.0127">
        <ele>706.4</ele>
        <time>2020-12-26T14:43:26Z</time>
      </trkpt>
      <trkpt lat="46.96893" lon="6.01273">
        <ele>706.6</ele>
        <time>2020-12-26T14:43:27Z</time>
      </trkpt>
      <trkpt lat="46.9689" lon="6.01275">
        <ele>706.8</ele>
        <time>2020-12-26T14:43:28Z</time>
      </trkpt>
      <trkpt lat="46.96887" lon="6.01279">
        <ele>707.2</ele>
        <time>2020-12-26T14:43:29Z</time>
      </trkpt>
      <trkpt lat="46.96884" lon="6.01283">
        <ele>707.4</ele>
        <time>2020-12-26T14:43:30Z</time>
      </trkpt>
      <trkpt lat="46.96881" lon="6.01287">
        <ele>707.6</ele>
        <time>2020-12-26T14:43:31Z</time>
      </trkpt>
      <trkpt lat="46.96878" lon="6.01291">
        <ele>707.6</ele>
        <time>2020-12-26T14:43:32Z</time>
      </trkpt>
      <trkpt lat="46.96876" lon="6.01297">
        <ele>707.8</ele>
        <time>2020-12-26T14:43:33Z</time>
      </trkpt>
      <trkpt lat="46.96873" lon="6.01302">
        <ele>708.2</ele>
        <time>2020-12-26T14:43:34Z</time>
      </trkpt>
      <trkpt lat="46.9687" lon="6.01306">
        <ele>708.2</ele>
        <time>2020-12-26T14:43:35Z</time>
      </trkpt>
      <trkpt lat="46.96868" lon="6.01311">
        <ele>708.6</ele>
        <time>2020-12-26T14:43:36Z</time>
      </trkpt>
      <trkpt lat="46.96866" lon="6.01315">
        <ele>708.8</ele>
        <time>2020-12-26T14:43:37Z</time>
      </trkpt>
      <trkpt lat="46.96864" lon="6.01319">
        <ele>709.2</ele>
        <time>2020-12-26T14:43:38Z</time>
      </trkpt>
      <trkpt lat="46.96863" lon="6.01324">
        <ele>709.4</ele>
        <time>2020-12-26T14:43:39Z</time>
      </trkpt>
      <trkpt lat="46.96862" lon="6.01329">
        <ele>709.4</ele>
        <time>2020-12-26T14:43:40Z</time>
      </trkpt>
      <trkpt lat="46.9686" lon="6.01333">
        <ele>709.8</ele>
        <time>2020-12-26T14:43:41Z</time>
      </trkpt>
      <trkpt lat="46.96859" lon="6.01339">
        <ele>709.8</ele>
        <time>2020-12-26T14:43:42Z</time>
      </trkpt>
      <trkpt lat="46.96858" lon="6.01343">
        <ele>710.2</ele>
        <time>2020-12-26T14:43:43Z</time>
      </trkpt>
      <trkpt lat="46.96857" lon="6.01348">
        <ele>710.4</ele>
        <time>2020-12-26T14:43:44Z</time>
      </trkpt>
      <trkpt lat="46.96856" lon="6.01352">
        <ele>710.6</ele>
        <time>2020-12-26T14:43:45Z</time>
      </trkpt>
      <trkpt lat="46.96855" lon="6.01357">
        <ele>710.8</ele>
        <time>2020-12-26T14:43:46Z</time>
      </trkpt>
      <trkpt lat="46.96853" lon="6.01361">
        <ele>711.2</ele>
        <time>2020-12-26T14:43:47Z</time>
      </trkpt>
      <trkpt lat="46.96852" lon="6.01365">
        <ele>711.4</ele>
        <time>2020-12-26T14:43:48Z</time>
      </trkpt>
      <trkpt lat="46.9685" lon="6.0137">
        <ele>711.6</ele>
        <time>2020-12-26T14:43:49Z</time>
      </trkpt>
      <trkpt lat="46.96848" lon="6.01374">
        <ele>711.8</ele>
        <time>2020-12-26T14:43:50Z</time>
      </trkpt>
      <trkpt lat="46.96846" lon="6.01378">
        <ele>712.2</ele>
        <time>2020-12-26T14:43:51Z</time>
      </trkpt>
      <trkpt lat="46.96845" lon="6.01382">
        <ele>712.2</ele>
        <time>2020-12-26T14:43:52Z</time>
      </trkpt>
      <trkpt lat="46.96844" lon="6.01387">
        <ele>712.6</ele>
        <time>2020-12-26T14:43:53Z</time>
      </trkpt>
      <trkpt lat="46.96843" lon="6.01391">
        <ele>712.8</ele>
        <time>2020-12-26T14:43:54Z</time>
      </trkpt>
      <trkpt lat="46.96842" lon="6.01395">
        <ele>713</ele>
        <time>2020-12-26T14:43:55Z</time>
      </trkpt>
      <trkpt lat="46.9684" lon="6.01399">
        <ele>713.2</ele>
        <time>2020-12-26T14:43:56Z</time>
      </trkpt>
      <trkpt lat="46.96839" lon="6.01403">
        <ele>713.2</ele>
        <time>2020-12-26T14:43:57Z</time>
      </trkpt>
      <trkpt lat="46.96837" lon="6.01407">
        <ele>713.6</ele>
        <time>2020-12-26T14:43:58Z</time>
      </trkpt>
      <trkpt lat="46.96836" lon="6.01411">
        <ele>713.8</ele>
        <time>2020-12-26T14:43:59Z</time>
      </trkpt>
      <trkpt lat="46.96834" lon="6.01415">
        <ele>713.8</ele>
        <time>2020-12-26T14:44:00Z</time>
      </trkpt>
      <trkpt lat="46.96832" lon="6.01419">
        <ele>714</ele>
        <time>2020-12-26T14:44:01Z</time>
      </trkpt>
      <trkpt lat="46.9683" lon="6.01422">
        <ele>714</ele>
        <time>2020-12-26T14:44:02Z</time>
      </trkpt>
      <trkpt lat="46.96828" lon="6.01425">
        <ele>714.4</ele>
        <time>2020-12-26T14:44:03Z</time>
      </trkpt>
      <trkpt lat="46.96826" lon="6.01429">
        <ele>714.8</ele>
        <time>2020-12-26T14:44:04Z</time>
      </trkpt>
      <trkpt lat="46.96824" lon="6.01432">
        <ele>715</ele>
        <time>2020-12-26T14:44:05Z</time>
      </trkpt>
      <trkpt lat="46.96822" lon="6.01436">
        <ele>715.2</ele>
        <time>2020-12-26T14:44:06Z</time>
      </trkpt>
      <trkpt lat="46.96821" lon="6.01439">
        <ele>715.6</ele>
        <time>2020-12-26T14:44:07Z</time>
      </trkpt>
      <trkpt lat="46.96818" lon="6.01442">
        <ele>715.8</ele>
        <time>2020-12-26T14:44:08Z</time>
      </trkpt>
      <trkpt lat="46.96817" lon="6.01446">
        <ele>715.8</ele>
        <time>2020-12-26T14:44:09Z</time>
      </trkpt>
      <trkpt lat="46.96815" lon="6.01449">
        <ele>716.2</ele>
        <time>2020-12-26T14:44:10Z</time>
      </trkpt>
      <trkpt lat="46.96813" lon="6.01453">
        <ele>716.4</ele>
        <time>2020-12-26T14:44:11Z</time>
      </trkpt>
      <trkpt lat="46.96811" lon="6.01456">
        <ele>716.4</ele>
        <time>2020-12-26T14:44:12Z</time>
      </trkpt>
      <trkpt lat="46.9681" lon="6.01461">
        <ele>716.8</ele>
        <time>2020-12-26T14:44:13Z</time>
      </trkpt>
      <trkpt lat="46.96808" lon="6.01464">
        <ele>717.2</ele>
        <time>2020-12-26T14:44:14Z</time>
      </trkpt>
      <trkpt lat="46.96806" lon="6.01468">
        <ele>717.4</ele>
        <time>2020-12-26T14:44:15Z</time>
      </trkpt>
      <trkpt lat="46.96804" lon="6.01471">
        <ele>717.6</ele>
        <time>2020-12-26T14:44:16Z</time>
      </trkpt>
      <trkpt lat="46.96803" lon="6.01475">
        <ele>717.8</ele>
        <time>2020-12-26T14:44:17Z</time>
      </trkpt>
      <trkpt lat="46.96801" lon="6.01479">
        <ele>718</ele>
        <time>2020-12-26T14:44:18Z</time>
      </trkpt>
      <trkpt lat="46.968" lon="6.01483">
        <ele>718.2</ele>
        <time>2020-12-26T14:44:19Z</time>
      </trkpt>
      <trkpt lat="46.96798" lon="6.01487">
        <ele>718.2</ele>
        <time>2020-12-26T14:44:20Z</time>
      </trkpt>
      <trkpt lat="46.96796" lon="6.01491">
        <ele>718.6</ele>
        <time>2020-12-26T14:44:21Z</time>
      </trkpt>
      <trkpt lat="46.96794" lon="6.01495">
        <ele>719</ele>
        <time>2020-12-26T14:44:22Z</time>
      </trkpt>
      <trkpt lat="46.96792" lon="6.01499">
        <ele>719.2</ele>
        <time>2020-12-26T14:44:23Z</time>
      </trkpt>
      <trkpt lat="46.9679" lon="6.01503">
        <ele>719.2</ele>
        <time>2020-12-26T14:44:24Z</time>
      </trkpt>
      <trkpt lat="46.96788" lon="6.01507">
        <ele>719.6</ele>
        <time>2020-12-26T14:44:25Z</time>
      </trkpt>
      <trkpt lat="46.96786" lon="6.0151">
        <ele>719.8</ele>
        <time>2020-12-26T14:44:26Z</time>
      </trkpt>
      <trkpt lat="46.96783" lon="6.01513">
        <ele>719.8</ele>
        <time>2020-12-26T14:44:27Z</time>
      </trkpt>
      <trkpt lat="46.96781" lon="6.01515">
        <ele>720.2</ele>
        <time>2020-12-26T14:44:28Z</time>
      </trkpt>
      <trkpt lat="46.96778" lon="6.01518">
        <ele>720.2</ele>
        <time>2020-12-26T14:44:29Z</time>
      </trkpt>
      <trkpt lat="46.96774" lon="6.0152">
        <ele>720.6</ele>
        <time>2020-12-26T14:44:30Z</time>
      </trkpt>
      <trkpt lat="46.96771" lon="6.01521">
        <ele>720.8</ele>
        <time>2020-12-26T14:44:31Z</time>
      </trkpt>
      <trkpt lat="46.96767" lon="6.01521">
        <ele>721</ele>
        <time>2020-12-26T14:44:32Z</time>
      </trkpt>
      <trkpt lat="46.96765" lon="6.01522">
        <ele>721.2</ele>
        <time>2020-12-26T14:44:33Z</time>
      </trkpt>
      <trkpt lat="46.96762" lon="6.01522">
        <ele>721.6</ele>
        <time>2020-12-26T14:44:34Z</time>
      </trkpt>
      <trkpt lat="46.96759" lon="6.01521">
        <ele>721.8</ele>
        <time>2020-12-26T14:44:35Z</time>
      </trkpt>
      <trkpt lat="46.96756" lon="6.0152">
        <ele>722.2</ele>
        <time>2020-12-26T14:44:36Z</time>
      </trkpt>
      <trkpt lat="46.96753" lon="6.01518">
        <ele>722.6</ele>
        <time>2020-12-26T14:44:37Z</time>
      </trkpt>
      <trkpt lat="46.96751" lon="6.01517">
        <ele>722.8</ele>
        <time>2020-12-26T14:44:38Z</time>
      </trkpt>
      <trkpt lat="46.96748" lon="6.01516">
        <ele>723</ele>
        <time>2020-12-26T14:44:39Z</time>
      </trkpt>
      <trkpt lat="46.96746" lon="6.01515">
        <ele>723.4</ele>
        <time>2020-12-26T14:44:40Z</time>
      </trkpt>
      <trkpt lat="46.96743" lon="6.01513">
        <ele>723.6</ele>
        <time>2020-12-26T14:44:41Z</time>
      </trkpt>
      <trkpt lat="46.96741" lon="6.01512">
        <ele>724</ele>
        <time>2020-12-26T14:44:42Z</time>
      </trkpt>
      <trkpt lat="46.96738" lon="6.0151">
        <ele>724.2</ele>
        <time>2020-12-26T14:44:43Z</time>
      </trkpt>
      <trkpt lat="46.96736" lon="6.01508">
        <ele>724.2</ele>
        <time>2020-12-26T14:44:44Z</time>
      </trkpt>
      <trkpt lat="46.96733" lon="6.01505">
        <ele>724.6</ele>
        <time>2020-12-26T14:44:45Z</time>
      </trkpt>
      <trkpt lat="46.96731" lon="6.01503">
        <ele>724.6</ele>
        <time>2020-12-26T14:44:46Z</time>
      </trkpt>
      <trkpt lat="46.96728" lon="6.01501">
        <ele>725</ele>
        <time>2020-12-26T14:44:47Z</time>
      </trkpt>
      <trkpt lat="46.96725" lon="6.01499">
        <ele>725.2</ele>
        <time>2020-12-26T14:44:48Z</time>
      </trkpt>
      <trkpt lat="46.96723" lon="6.01496">
        <ele>725.4</ele>
        <time>2020-12-26T14:44:49Z</time>
      </trkpt>
      <trkpt lat="46.9672" lon="6.01494">
        <ele>725.8</ele>
        <time>2020-12-26T14:44:50Z</time>
      </trkpt>
      <trkpt lat="46.96717" lon="6.01491">
        <ele>726</ele>
        <time>2020-12-26T14:44:51Z</time>
      </trkpt>
      <trkpt lat="46.96715" lon="6.01489">
        <ele>726</ele>
        <time>2020-12-26T14:44:52Z</time>
      </trkpt>
      <trkpt lat="46.96712" lon="6.01487">
        <ele>726.4</ele>
        <time>2020-12-26T14:44:53Z</time>
      </trkpt>
      <trkpt lat="46.96709" lon="6.01484">
        <ele>726.6</ele>
        <time>2020-12-26T14:44:54Z</time>
      </trkpt>
      <trkpt lat="46.96707" lon="6.01482">
        <ele>726.6</ele>
        <time>2020-12-26T14:44:55Z</time>
      </trkpt>
      <trkpt lat="46.96704" lon="6.0148">
        <ele>727</ele>
        <time>2020-12-26T14:44:56Z</time>
      </trkpt>
      <trkpt lat="46.96702" lon="6.01478">
        <ele>727.2</ele>
        <time>2020-12-26T14:44:57Z</time>
      </trkpt>
      <trkpt lat="46.96699" lon="6.01475">
        <ele>727.2</ele>
        <time>2020-12-26T14:44:58Z</time>
      </trkpt>
      <trkpt lat="46.96697" lon="6.01473">
        <ele>727.6</ele>
        <time>2020-12-26T14:44:59Z</time>
      </trkpt>
      <trkpt lat="46.96695" lon="6.01471">
        <ele>727.6</ele>
        <time>2020-12-26T14:45:00Z</time>
      </trkpt>
      <trkpt lat="46.96692" lon="6.01468">
        <ele>728</ele>
        <time>2020-12-26T14:45:01Z</time>
      </trkpt>
      <trkpt lat="46.9669" lon="6.01466">
        <ele>728</ele>
        <time>2020-12-26T14:45:02Z</time>
      </trkpt>
      <trkpt lat="46.96688" lon="6.01464">
        <ele>728.4</ele>
        <time>2020-12-26T14:45:03Z</time>
      </trkpt>
      <trkpt lat="46.96685" lon="6.01461">
        <ele>728.6</ele>
        <time>2020-12-26T14:45:04Z</time>
      </trkpt>
      <trkpt lat="46.96683" lon="6.01459">
        <ele>729</ele>
        <time>2020-12-26T14:45:05Z</time>
      </trkpt>
      <trkpt lat="46.96681" lon="6.01457">
        <ele>729</ele>
        <time>2020-12-26T14:45:06Z</time>
      </trkpt>
      <trkpt lat="46.96679" lon="6.01454">
        <ele>729.4</ele>
        <time>2020-12-26T14:45:07Z</time>
      </trkpt>
      <trkpt lat="46.96677" lon="6.01452">
        <ele>729.6</ele>
        <time>2020-12-26T14:45:08Z</time>
      </trkpt>
      <trkpt lat="46.96674" lon="6.0145">
        <ele>729.6</ele>
        <time>2020-12-26T14:45:09Z</time>
      </trkpt>
      <trkpt lat="46.96672" lon="6.01448">
        <ele>730</ele>
        <time>2020-12-26T14:45:10Z</time>
      </trkpt>
      <trkpt lat="46.96669" lon="6.01446">
        <ele>730</ele>
        <time>2020-12-26T14:45:11Z</time>
      </trkpt>
      <trkpt lat="46.96667" lon="6.01444">
        <ele>730.2</ele>
        <time>2020-12-26T14:45:12Z</time>
      </trkpt>
      <trkpt lat="46.96664" lon="6.01443">
        <ele>730.2</ele>
        <time>2020-12-26T14:45:13Z</time>
      </trkpt>
      <trkpt lat="46.96661" lon="6.01442">
        <ele>730.6</ele>
        <time>2020-12-26T14:45:14Z</time>
      </trkpt>
      <trkpt lat="46.96658" lon="6.0144">
        <ele>730.8</ele>
        <time>2020-12-26T14:45:15Z</time>
      </trkpt>
      <trkpt lat="46.96656" lon="6.01439">
        <ele>730.8</ele>
        <time>2020-12-26T14:45:16Z</time>
      </trkpt>
      <trkpt lat="46.96653" lon="6.01438">
        <ele>731.2</ele>
        <time>2020-12-26T14:45:17Z</time>
      </trkpt>
      <trkpt lat="46.9665" lon="6.01437">
        <ele>731.2</ele>
        <time>2020-12-26T14:45:18Z</time>
      </trkpt>
      <trkpt lat="46.96647" lon="6.01435">
        <ele>731.6</ele>
        <time>2020-12-26T14:45:19Z</time>
      </trkpt>
      <trkpt lat="46.96644" lon="6.01434">
        <ele>731.8</ele>
        <time>2020-12-26T14:45:20Z</time>
      </trkpt>
      <trkpt lat="46.96642" lon="6.01433">
        <ele>731.8</ele>
        <time>2020-12-26T14:45:21Z</time>
      </trkpt>
      <trkpt lat="46.96639" lon="6.01432">
        <ele>732.2</ele>
        <time>2020-12-26T14:45:22Z</time>
      </trkpt>
      <trkpt lat="46.96636" lon="6.01431">
        <ele>732.4</ele>
        <time>2020-12-26T14:45:23Z</time>
      </trkpt>
      <trkpt lat="46.96634" lon="6.0143">
        <ele>732.4</ele>
        <time>2020-12-26T14:45:24Z</time>
      </trkpt>
      <trkpt lat="46.96631" lon="6.01429">
        <ele>732.8</ele>
        <time>2020-12-26T14:45:25Z</time>
      </trkpt>
      <trkpt lat="46.96628" lon="6.01428">
        <ele>732.8</ele>
        <time>2020-12-26T14:45:26Z</time>
      </trkpt>
      <trkpt lat="46.96625" lon="6.01427">
        <ele>733.2</ele>
        <time>2020-12-26T14:45:27Z</time>
      </trkpt>
      <trkpt lat="46.96622" lon="6.01426">
        <ele>733.4</ele>
        <time>2020-12-26T14:45:28Z</time>
      </trkpt>
      <trkpt lat="46.9662" lon="6.01426">
        <ele>733.6</ele>
        <time>2020-12-26T14:45:29Z</time>
      </trkpt>
      <trkpt lat="46.96617" lon="6.01425">
        <ele>733.8</ele>
        <time>2020-12-26T14:45:30Z</time>
      </trkpt>
      <trkpt lat="46.96614" lon="6.01424">
        <ele>734</ele>
        <time>2020-12-26T14:45:31Z</time>
      </trkpt>
      <trkpt lat="46.96612" lon="6.01424">
        <ele>734.2</ele>
        <time>2020-12-26T14:45:32Z</time>
      </trkpt>
      <trkpt lat="46.96609" lon="6.01423">
        <ele>734.6</ele>
        <time>2020-12-26T14:45:33Z</time>
      </trkpt>
      <trkpt lat="46.96606" lon="6.01422">
        <ele>734.8</ele>
        <time>2020-12-26T14:45:34Z</time>
      </trkpt>
      <trkpt lat="46.96604" lon="6.01422">
        <ele>734.8</ele>
        <time>2020-12-26T14:45:35Z</time>
      </trkpt>
      <trkpt lat="46.96601" lon="6.01421">
        <ele>735.2</ele>
        <time>2020-12-26T14:45:36Z</time>
      </trkpt>
      <trkpt lat="46.96598" lon="6.0142">
        <ele>735.2</ele>
        <time>2020-12-26T14:45:37Z</time>
      </trkpt>
      <trkpt lat="46.96596" lon="6.0142">
        <ele>735.6</ele>
        <time>2020-12-26T14:45:38Z</time>
      </trkpt>
      <trkpt lat="46.96593" lon="6.0142">
        <ele>735.6</ele>
        <time>2020-12-26T14:45:39Z</time>
      </trkpt>
      <trkpt lat="46.9659" lon="6.0142">
        <ele>736.2</ele>
        <time>2020-12-26T14:45:40Z</time>
      </trkpt>
      <trkpt lat="46.96587" lon="6.01419">
        <ele>736.4</ele>
        <time>2020-12-26T14:45:41Z</time>
      </trkpt>
      <trkpt lat="46.96584" lon="6.01419">
        <ele>736.4</ele>
        <time>2020-12-26T14:45:42Z</time>
      </trkpt>
      <trkpt lat="46.96582" lon="6.01419">
        <ele>736.8</ele>
        <time>2020-12-26T14:45:43Z</time>
      </trkpt>
      <trkpt lat="46.96579" lon="6.01418">
        <ele>737</ele>
        <time>2020-12-26T14:45:44Z</time>
      </trkpt>
      <trkpt lat="46.96576" lon="6.01418">
        <ele>737</ele>
        <time>2020-12-26T14:45:45Z</time>
      </trkpt>
      <trkpt lat="46.96573" lon="6.01418">
        <ele>737.4</ele>
        <time>2020-12-26T14:45:46Z</time>
      </trkpt>
      <trkpt lat="46.9657" lon="6.01418">
        <ele>737.6</ele>
        <time>2020-12-26T14:45:47Z</time>
      </trkpt>
      <trkpt lat="46.96567" lon="6.01417">
        <ele>737.8</ele>
        <time>2020-12-26T14:45:48Z</time>
      </trkpt>
      <trkpt lat="46.96565" lon="6.01417">
        <ele>738</ele>
        <time>2020-12-26T14:45:49Z</time>
      </trkpt>
      <trkpt lat="46.96562" lon="6.01416">
        <ele>738.2</ele>
        <time>2020-12-26T14:45:50Z</time>
      </trkpt>
      <trkpt lat="46.96559" lon="6.01415">
        <ele>738.6</ele>
        <time>2020-12-26T14:45:51Z</time>
      </trkpt>
      <trkpt lat="46.96556" lon="6.01414">
        <ele>738.8</ele>
        <time>2020-12-26T14:45:52Z</time>
      </trkpt>
      <trkpt lat="46.96553" lon="6.01413">
        <ele>739</ele>
        <time>2020-12-26T14:45:53Z</time>
      </trkpt>
      <trkpt lat="46.9655" lon="6.01412">
        <ele>739</ele>
        <time>2020-12-26T14:45:54Z</time>
      </trkpt>
      <trkpt lat="46.96547" lon="6.01412">
        <ele>739.2</ele>
        <time>2020-12-26T14:45:55Z</time>
      </trkpt>
      <trkpt lat="46.96544" lon="6.01412">
        <ele>739.4</ele>
        <time>2020-12-26T14:45:56Z</time>
      </trkpt>
      <trkpt lat="46.96541" lon="6.01412">
        <ele>739.8</ele>
        <time>2020-12-26T14:45:57Z</time>
      </trkpt>
      <trkpt lat="46.96538" lon="6.01411">
        <ele>740</ele>
        <time>2020-12-26T14:45:58Z</time>
      </trkpt>
      <trkpt lat="46.96536" lon="6.0141">
        <ele>740.2</ele>
        <time>2020-12-26T14:45:59Z</time>
      </trkpt>
      <trkpt lat="46.96533" lon="6.0141">
        <ele>740.6</ele>
        <time>2020-12-26T14:46:00Z</time>
      </trkpt>
      <trkpt lat="46.9653" lon="6.0141">
        <ele>740.8</ele>
        <time>2020-12-26T14:46:01Z</time>
      </trkpt>
      <trkpt lat="46.96528" lon="6.01411">
        <ele>740.8</ele>
        <time>2020-12-26T14:46:02Z</time>
      </trkpt>
      <trkpt lat="46.96526" lon="6.01412">
        <ele>741.2</ele>
        <time>2020-12-26T14:46:03Z</time>
      </trkpt>
      <trkpt lat="46.96524" lon="6.01415">
        <ele>741.4</ele>
        <time>2020-12-26T14:46:04Z</time>
      </trkpt>
      <trkpt lat="46.96522" lon="6.01417">
        <ele>741.4</ele>
        <time>2020-12-26T14:46:05Z</time>
      </trkpt>
      <trkpt lat="46.96521" lon="6.0142">
        <ele>741.6</ele>
        <time>2020-12-26T14:46:06Z</time>
      </trkpt>
      <trkpt lat="46.96519" lon="6.01423">
        <ele>741.8</ele>
        <time>2020-12-26T14:46:07Z</time>
      </trkpt>
      <trkpt lat="46.96517" lon="6.01426">
        <ele>741.8</ele>
        <time>2020-12-26T14:46:08Z</time>
      </trkpt>
      <trkpt lat="46.96514" lon="6.01429">
        <ele>742.2</ele>
        <time>2020-12-26T14:46:09Z</time>
      </trkpt>
      <trkpt lat="46.96512" lon="6.01432">
        <ele>742.2</ele>
        <time>2020-12-26T14:46:10Z</time>
      </trkpt>
      <trkpt lat="46.96511" lon="6.01435">
        <ele>742.6</ele>
        <time>2020-12-26T14:46:11Z</time>
      </trkpt>
      <trkpt lat="46.96509" lon="6.01438">
        <ele>742.8</ele>
        <time>2020-12-26T14:46:12Z</time>
      </trkpt>
      <trkpt lat="46.96508" lon="6.01442">
        <ele>742.8</ele>
        <time>2020-12-26T14:46:13Z</time>
      </trkpt>
      <trkpt lat="46.96506" lon="6.01445">
        <ele>743</ele>
        <time>2020-12-26T14:46:14Z</time>
      </trkpt>
      <trkpt lat="46.96505" lon="6.01449">
        <ele>743.2</ele>
        <time>2020-12-26T14:46:15Z</time>
      </trkpt>
      <trkpt lat="46.96504" lon="6.01452">
        <ele>743.2</ele>
        <time>2020-12-26T14:46:16Z</time>
      </trkpt>
      <trkpt lat="46.96502" lon="6.01456">
        <ele>743.2</ele>
        <time>2020-12-26T14:46:17Z</time>
      </trkpt>
      <trkpt lat="46.96501" lon="6.0146">
        <ele>743.6</ele>
        <time>2020-12-26T14:46:18Z</time>
      </trkpt>
      <trkpt lat="46.965" lon="6.01464">
        <ele>743.6</ele>
        <time>2020-12-26T14:46:19Z</time>
      </trkpt>
      <trkpt lat="46.965" lon="6.01468">
        <ele>743.8</ele>
        <time>2020-12-26T14:46:20Z</time>
      </trkpt>
      <trkpt lat="46.96499" lon="6.01471">
        <ele>743.8</ele>
        <time>2020-12-26T14:46:21Z</time>
      </trkpt>
      <trkpt lat="46.96498" lon="6.01475">
        <ele>744.2</ele>
        <time>2020-12-26T14:46:22Z</time>
      </trkpt>
      <trkpt lat="46.96497" lon="6.01478">
        <ele>744.2</ele>
        <time>2020-12-26T14:46:23Z</time>
      </trkpt>
      <trkpt lat="46.96496" lon="6.01481">
        <ele>744.6</ele>
        <time>2020-12-26T14:46:24Z</time>
      </trkpt>
      <trkpt lat="46.96495" lon="6.01484">
        <ele>744.6</ele>
        <time>2020-12-26T14:46:25Z</time>
      </trkpt>
      <trkpt lat="46.96493" lon="6.01487">
        <ele>745</ele>
        <time>2020-12-26T14:46:26Z</time>
      </trkpt>
      <trkpt lat="46.96492" lon="6.01489">
        <ele>745</ele>
        <time>2020-12-26T14:46:27Z</time>
      </trkpt>
      <trkpt lat="46.9649" lon="6.01492">
        <ele>745.4</ele>
        <time>2020-12-26T14:46:28Z</time>
      </trkpt>
      <trkpt lat="46.96489" lon="6.01494">
        <ele>745.6</ele>
        <time>2020-12-26T14:46:29Z</time>
      </trkpt>
      <trkpt lat="46.96487" lon="6.01497">
        <ele>745.6</ele>
        <time>2020-12-26T14:46:30Z</time>
      </trkpt>
      <trkpt lat="46.96485" lon="6.01499">
        <ele>746</ele>
        <time>2020-12-26T14:46:31Z</time>
      </trkpt>
      <trkpt lat="46.96483" lon="6.01501">
        <ele>746.4</ele>
        <time>2020-12-26T14:46:32Z</time>
      </trkpt>
      <trkpt lat="46.96481" lon="6.01503">
        <ele>746.6</ele>
        <time>2020-12-26T14:46:33Z</time>
      </trkpt>
      <trkpt lat="46.96479" lon="6.01505">
        <ele>747</ele>
        <time>2020-12-26T14:46:34Z</time>
      </trkpt>
      <trkpt lat="46.96477" lon="6.01508">
        <ele>747.2</ele>
        <time>2020-12-26T14:46:35Z</time>
      </trkpt>
      <trkpt lat="46.96474" lon="6.0151">
        <ele>747.4</ele>
        <time>2020-12-26T14:46:36Z</time>
      </trkpt>
      <trkpt lat="46.96471" lon="6.01512">
        <ele>747.6</ele>
        <time>2020-12-26T14:46:37Z</time>
      </trkpt>
      <trkpt lat="46.96468" lon="6.01514">
        <ele>747.6</ele>
        <time>2020-12-26T14:46:38Z</time>
      </trkpt>
      <trkpt lat="46.96466" lon="6.01516">
        <ele>748</ele>
        <time>2020-12-26T14:46:39Z</time>
      </trkpt>
      <trkpt lat="46.96463" lon="6.01518">
        <ele>748.4</ele>
        <time>2020-12-26T14:46:40Z</time>
      </trkpt>
      <trkpt lat="46.96461" lon="6.01519">
        <ele>748.6</ele>
        <time>2020-12-26T14:46:41Z</time>
      </trkpt>
      <trkpt lat="46.96458" lon="6.01521">
        <ele>748.6</ele>
        <time>2020-12-26T14:46:42Z</time>
      </trkpt>
      <trkpt lat="46.96456" lon="6.01522">
        <ele>749</ele>
        <time>2020-12-26T14:46:43Z</time>
      </trkpt>
      <trkpt lat="46.96453" lon="6.01523">
        <ele>749</ele>
        <time>2020-12-26T14:46:44Z</time>
      </trkpt>
      <trkpt lat="46.9645" lon="6.01524">
        <ele>749.2</ele>
        <time>2020-12-26T14:46:45Z</time>
      </trkpt>
      <trkpt lat="46.96447" lon="6.01526">
        <ele>749.2</ele>
        <time>2020-12-26T14:46:46Z</time>
      </trkpt>
      <trkpt lat="46.96445" lon="6.01527">
        <ele>749.6</ele>
        <time>2020-12-26T14:46:47Z</time>
      </trkpt>
      <trkpt lat="46.96443" lon="6.01528">
        <ele>749.6</ele>
        <time>2020-12-26T14:46:48Z</time>
      </trkpt>
      <trkpt lat="46.9644" lon="6.01529">
        <ele>749.8</ele>
        <time>2020-12-26T14:46:49Z</time>
      </trkpt>
      <trkpt lat="46.96437" lon="6.01529">
        <ele>749.8</ele>
        <time>2020-12-26T14:46:50Z</time>
      </trkpt>
      <trkpt lat="46.96434" lon="6.01529">
        <ele>750.2</ele>
        <time>2020-12-26T14:46:51Z</time>
      </trkpt>
      <trkpt lat="46.96432" lon="6.01529">
        <ele>750.2</ele>
        <time>2020-12-26T14:46:52Z</time>
      </trkpt>
      <trkpt lat="46.96429" lon="6.01528">
        <ele>750.6</ele>
        <time>2020-12-26T14:46:53Z</time>
      </trkpt>
      <trkpt lat="46.96427" lon="6.01527">
        <ele>750.8</ele>
        <time>2020-12-26T14:46:54Z</time>
      </trkpt>
      <trkpt lat="46.96424" lon="6.01526">
        <ele>751</ele>
        <time>2020-12-26T14:46:55Z</time>
      </trkpt>
      <trkpt lat="46.96422" lon="6.01524">
        <ele>751</ele>
        <time>2020-12-26T14:46:56Z</time>
      </trkpt>
      <trkpt lat="46.9642" lon="6.01523">
        <ele>751.4</ele>
        <time>2020-12-26T14:46:57Z</time>
      </trkpt>
      <trkpt lat="46.96418" lon="6.01521">
        <ele>751.8</ele>
        <time>2020-12-26T14:46:58Z</time>
      </trkpt>
      <trkpt lat="46.96416" lon="6.0152">
        <ele>752</ele>
        <time>2020-12-26T14:46:59Z</time>
      </trkpt>
      <trkpt lat="46.96414" lon="6.01518">
        <ele>752.4</ele>
        <time>2020-12-26T14:47:00Z</time>
      </trkpt>
      <trkpt lat="46.96411" lon="6.01516">
        <ele>752.6</ele>
        <time>2020-12-26T14:47:01Z</time>
      </trkpt>
      <trkpt lat="46.96409" lon="6.01514">
        <ele>752.8</ele>
        <time>2020-12-26T14:47:02Z</time>
      </trkpt>
      <trkpt lat="46.96406" lon="6.01512">
        <ele>753</ele>
        <time>2020-12-26T14:47:03Z</time>
      </trkpt>
      <trkpt lat="46.96404" lon="6.01511">
        <ele>753</ele>
        <time>2020-12-26T14:47:04Z</time>
      </trkpt>
      <trkpt lat="46.96401" lon="6.0151">
        <ele>753.2</ele>
        <time>2020-12-26T14:47:05Z</time>
      </trkpt>
      <trkpt lat="46.96399" lon="6.0151">
        <ele>753.2</ele>
        <time>2020-12-26T14:47:06Z</time>
      </trkpt>
      <trkpt lat="46.96396" lon="6.0151">
        <ele>753.6</ele>
        <time>2020-12-26T14:47:07Z</time>
      </trkpt>
      <trkpt lat="46.96394" lon="6.0151">
        <ele>753.6</ele>
        <time>2020-12-26T14:47:08Z</time>
      </trkpt>
      <trkpt lat="46.96391" lon="6.0151">
        <ele>754</ele>
        <time>2020-12-26T14:47:09Z</time>
      </trkpt>
      <trkpt lat="46.96388" lon="6.01511">
        <ele>754</ele>
        <time>2020-12-26T14:47:10Z</time>
      </trkpt>
      <trkpt lat="46.96385" lon="6.01512">
        <ele>754.6</ele>
        <time>2020-12-26T14:47:11Z</time>
      </trkpt>
      <trkpt lat="46.96383" lon="6.01514">
        <ele>754.8</ele>
        <time>2020-12-26T14:47:12Z</time>
      </trkpt>
      <trkpt lat="46.96381" lon="6.01515">
        <ele>755</ele>
        <time>2020-12-26T14:47:13Z</time>
      </trkpt>
      <trkpt lat="46.96379" lon="6.01518">
        <ele>755.2</ele>
        <time>2020-12-26T14:47:14Z</time>
      </trkpt>
      <trkpt lat="46.96376" lon="6.01521">
        <ele>755.2</ele>
        <time>2020-12-26T14:47:15Z</time>
      </trkpt>
      <trkpt lat="46.96374" lon="6.01525">
        <ele>755.6</ele>
        <time>2020-12-26T14:47:16Z</time>
      </trkpt>
      <trkpt lat="46.96372" lon="6.01528">
        <ele>755.6</ele>
        <time>2020-12-26T14:47:17Z</time>
      </trkpt>
      <trkpt lat="46.9637" lon="6.01531">
        <ele>756</ele>
        <time>2020-12-26T14:47:18Z</time>
      </trkpt>
      <trkpt lat="46.96369" lon="6.01535">
        <ele>756</ele>
        <time>2020-12-26T14:47:19Z</time>
      </trkpt>
      <trkpt lat="46.96368" lon="6.01538">
        <ele>756.4</ele>
        <time>2020-12-26T14:47:20Z</time>
      </trkpt>
      <trkpt lat="46.96367" lon="6.01542">
        <ele>756.6</ele>
        <time>2020-12-26T14:47:21Z</time>
      </trkpt>
      <trkpt lat="46.96366" lon="6.01545">
        <ele>756.8</ele>
        <time>2020-12-26T14:47:22Z</time>
      </trkpt>
      <trkpt lat="46.96365" lon="6.01548">
        <ele>756.8</ele>
        <time>2020-12-26T14:47:23Z</time>
      </trkpt>
      <trkpt lat="46.96365" lon="6.01552">
        <ele>757.2</ele>
        <time>2020-12-26T14:47:24Z</time>
      </trkpt>
      <trkpt lat="46.96365" lon="6.01556">
        <ele>757.2</ele>
        <time>2020-12-26T14:47:25Z</time>
      </trkpt>
      <trkpt lat="46.96366" lon="6.0156">
        <ele>757.6</ele>
        <time>2020-12-26T14:47:26Z</time>
      </trkpt>
      <trkpt lat="46.96366" lon="6.01564">
        <ele>757.6</ele>
        <time>2020-12-26T14:47:27Z</time>
      </trkpt>
      <trkpt lat="46.96368" lon="6.01567">
        <ele>758</ele>
        <time>2020-12-26T14:47:28Z</time>
      </trkpt>
      <trkpt lat="46.9637" lon="6.01569">
        <ele>758</ele>
        <time>2020-12-26T14:47:29Z</time>
      </trkpt>
      <trkpt lat="46.96371" lon="6.0157">
        <ele>758.4</ele>
        <time>2020-12-26T14:47:30Z</time>
      </trkpt>
      <trkpt lat="46.96373" lon="6.01571">
        <ele>758.4</ele>
        <time>2020-12-26T14:47:31Z</time>
      </trkpt>
      <trkpt lat="46.96374" lon="6.01573">
        <ele>758.8</ele>
        <time>2020-12-26T14:47:32Z</time>
      </trkpt>
      <trkpt lat="46.96376" lon="6.01574">
        <ele>759</ele>
        <time>2020-12-26T14:47:33Z</time>
      </trkpt>
      <trkpt lat="46.96378" lon="6.01575">
        <ele>759.2</ele>
        <time>2020-12-26T14:47:34Z</time>
      </trkpt>
      <trkpt lat="46.9638" lon="6.01575">
        <ele>759.2</ele>
        <time>2020-12-26T14:47:35Z</time>
      </trkpt>
      <trkpt lat="46.96382" lon="6.01576">
        <ele>759.6</ele>
        <time>2020-12-26T14:47:36Z</time>
      </trkpt>
      <trkpt lat="46.96384" lon="6.01577">
        <ele>759.8</ele>
        <time>2020-12-26T14:47:37Z</time>
      </trkpt>
      <trkpt lat="46.96386" lon="6.01577">
        <ele>760.2</ele>
        <time>2020-12-26T14:47:38Z</time>
      </trkpt>
      <trkpt lat="46.96388" lon="6.01577">
        <ele>760.4</ele>
        <time>2020-12-26T14:47:39Z</time>
      </trkpt>
      <trkpt lat="46.96391" lon="6.01577">
        <ele>760.6</ele>
        <time>2020-12-26T14:47:40Z</time>
      </trkpt>
      <trkpt lat="46.96393" lon="6.01577">
        <ele>760.8</ele>
        <time>2020-12-26T14:47:41Z</time>
      </trkpt>
      <trkpt lat="46.96396" lon="6.01577">
        <ele>760.8</ele>
        <time>2020-12-26T14:47:42Z</time>
      </trkpt>
      <trkpt lat="46.96398" lon="6.01577">
        <ele>761.2</ele>
        <time>2020-12-26T14:47:43Z</time>
      </trkpt>
      <trkpt lat="46.96401" lon="6.01577">
        <ele>761.2</ele>
        <time>2020-12-26T14:47:44Z</time>
      </trkpt>
      <trkpt lat="46.96403" lon="6.01577">
        <ele>761.6</ele>
        <time>2020-12-26T14:47:45Z</time>
      </trkpt>
      <trkpt lat="46.96407" lon="6.01577">
        <ele>761.6</ele>
        <time>2020-12-26T14:47:46Z</time>
      </trkpt>
      <trkpt lat="46.96409" lon="6.01577">
        <ele>762</ele>
        <time>2020-12-26T14:47:47Z</time>
      </trkpt>
      <trkpt lat="46.96412" lon="6.01577">
        <ele>762</ele>
        <time>2020-12-26T14:47:48Z</time>
      </trkpt>
      <trkpt lat="46.96415" lon="6.01577">
        <ele>762</ele>
        <time>2020-12-26T14:47:49Z</time>
      </trkpt>
      <trkpt lat="46.96418" lon="6.01578">
        <ele>762.2</ele>
        <time>2020-12-26T14:47:50Z</time>
      </trkpt>
      <trkpt lat="46.96421" lon="6.01579">
        <ele>762.2</ele>
        <time>2020-12-26T14:47:51Z</time>
      </trkpt>
      <trkpt lat="46.96424" lon="6.01579">
        <ele>762.6</ele>
        <time>2020-12-26T14:47:52Z</time>
      </trkpt>
      <trkpt lat="46.96428" lon="6.01578">
        <ele>762.6</ele>
        <time>2020-12-26T14:47:53Z</time>
      </trkpt>
      <trkpt lat="46.96431" lon="6.01578">
        <ele>762.8</ele>
        <time>2020-12-26T14:47:54Z</time>
      </trkpt>
      <trkpt lat="46.96434" lon="6.01578">
        <ele>763</ele>
        <time>2020-12-26T14:47:55Z</time>
      </trkpt>
      <trkpt lat="46.96437" lon="6.01578">
        <ele>763</ele>
        <time>2020-12-26T14:47:56Z</time>
      </trkpt>
      <trkpt lat="46.9644" lon="6.01577">
        <ele>763.4</ele>
        <time>2020-12-26T14:47:57Z</time>
      </trkpt>
      <trkpt lat="46.96443" lon="6.01577">
        <ele>763.4</ele>
        <time>2020-12-26T14:47:58Z</time>
      </trkpt>
      <trkpt lat="46.96446" lon="6.01577">
        <ele>763.6</ele>
        <time>2020-12-26T14:47:59Z</time>
      </trkpt>
      <trkpt lat="46.96449" lon="6.01577">
        <ele>763.6</ele>
        <time>2020-12-26T14:48:00Z</time>
      </trkpt>
      <trkpt lat="46.96452" lon="6.01578">
        <ele>764</ele>
        <time>2020-12-26T14:48:01Z</time>
      </trkpt>
      <trkpt lat="46.96455" lon="6.01577">
        <ele>764.2</ele>
        <time>2020-12-26T14:48:02Z</time>
      </trkpt>
      <trkpt lat="46.96458" lon="6.01578">
        <ele>764.4</ele>
        <time>2020-12-26T14:48:03Z</time>
      </trkpt>
      <trkpt lat="46.96461" lon="6.01578">
        <ele>764.6</ele>
        <time>2020-12-26T14:48:04Z</time>
      </trkpt>
      <trkpt lat="46.96464" lon="6.01578">
        <ele>765</ele>
        <time>2020-12-26T14:48:05Z</time>
      </trkpt>
      <trkpt lat="46.96467" lon="6.01578">
        <ele>765.2</ele>
        <time>2020-12-26T14:48:06Z</time>
      </trkpt>
      <trkpt lat="46.9647" lon="6.01578">
        <ele>765.2</ele>
        <time>2020-12-26T14:48:07Z</time>
      </trkpt>
      <trkpt lat="46.96473" lon="6.01577">
        <ele>765.6</ele>
        <time>2020-12-26T14:48:08Z</time>
      </trkpt>
      <trkpt lat="46.96476" lon="6.01577">
        <ele>765.8</ele>
        <time>2020-12-26T14:48:09Z</time>
      </trkpt>
      <trkpt lat="46.96479" lon="6.01577">
        <ele>766.2</ele>
        <time>2020-12-26T14:48:10Z</time>
      </trkpt>
      <trkpt lat="46.96482" lon="6.01576">
        <ele>766.4</ele>
        <time>2020-12-26T14:48:11Z</time>
      </trkpt>
      <trkpt lat="46.96485" lon="6.01576">
        <ele>766.4</ele>
        <time>2020-12-26T14:48:12Z</time>
      </trkpt>
      <trkpt lat="46.96488" lon="6.01575">
        <ele>766.6</ele>
        <time>2020-12-26T14:48:13Z</time>
      </trkpt>
      <trkpt lat="46.96491" lon="6.01574">
        <ele>766.6</ele>
        <time>2020-12-26T14:48:14Z</time>
      </trkpt>
      <trkpt lat="46.96494" lon="6.01573">
        <ele>767</ele>
        <time>2020-12-26T14:48:15Z</time>
      </trkpt>
      <trkpt lat="46.96497" lon="6.01572">
        <ele>767.2</ele>
        <time>2020-12-26T14:48:16Z</time>
      </trkpt>
      <trkpt lat="46.965" lon="6.01571">
        <ele>767.2</ele>
        <time>2020-12-26T14:48:17Z</time>
      </trkpt>
      <trkpt lat="46.96503" lon="6.01569">
        <ele>767.6</ele>
        <time>2020-12-26T14:48:18Z</time>
      </trkpt>
      <trkpt lat="46.96505" lon="6.01567">
        <ele>767.6</ele>
        <time>2020-12-26T14:48:19Z</time>
      </trkpt>
      <trkpt lat="46.96508" lon="6.01566">
        <ele>767.8</ele>
        <time>2020-12-26T14:48:20Z</time>
      </trkpt>
      <trkpt lat="46.96511" lon="6.01563">
        <ele>767.8</ele>
        <time>2020-12-26T14:48:21Z</time>
      </trkpt>
      <trkpt lat="46.96513" lon="6.01561">
        <ele>768.2</ele>
        <time>2020-12-26T14:48:22Z</time>
      </trkpt>
      <trkpt lat="46.96516" lon="6.01559">
        <ele>768.6</ele>
        <time>2020-12-26T14:48:23Z</time>
      </trkpt>
      <trkpt lat="46.96518" lon="6.01557">
        <ele>768.6</ele>
        <time>2020-12-26T14:48:24Z</time>
      </trkpt>
      <trkpt lat="46.96521" lon="6.01555">
        <ele>769</ele>
        <time>2020-12-26T14:48:25Z</time>
      </trkpt>
      <trkpt lat="46.96524" lon="6.01553">
        <ele>769.2</ele>
        <time>2020-12-26T14:48:26Z</time>
      </trkpt>
      <trkpt lat="46.96526" lon="6.0155">
        <ele>769.4</ele>
        <time>2020-12-26T14:48:27Z</time>
      </trkpt>
      <trkpt lat="46.96529" lon="6.01548">
        <ele>769.4</ele>
        <time>2020-12-26T14:48:28Z</time>
      </trkpt>
      <trkpt lat="46.96531" lon="6.01546">
        <ele>770</ele>
        <time>2020-12-26T14:48:29Z</time>
      </trkpt>
      <trkpt lat="46.96534" lon="6.01543">
        <ele>770</ele>
        <time>2020-12-26T14:48:30Z</time>
      </trkpt>
      <trkpt lat="46.96536" lon="6.01541">
        <ele>770.2</ele>
        <time>2020-12-26T14:48:31Z</time>
      </trkpt>
      <trkpt lat="46.96539" lon="6.0154">
        <ele>770.4</ele>
        <time>2020-12-26T14:48:32Z</time>
      </trkpt>
      <trkpt lat="46.96542" lon="6.01539">
        <ele>770.4</ele>
        <time>2020-12-26T14:48:33Z</time>
      </trkpt>
      <trkpt lat="46.96544" lon="6.01539">
        <ele>771</ele>
        <time>2020-12-26T14:48:34Z</time>
      </trkpt>
      <trkpt lat="46.96547" lon="6.01538">
        <ele>771.4</ele>
        <time>2020-12-26T14:48:35Z</time>
      </trkpt>
      <trkpt lat="46.9655" lon="6.01539">
        <ele>771.6</ele>
        <time>2020-12-26T14:48:36Z</time>
      </trkpt>
      <trkpt lat="46.96553" lon="6.01541">
        <ele>771.8</ele>
        <time>2020-12-26T14:48:37Z</time>
      </trkpt>
      <trkpt lat="46.96556" lon="6.01543">
        <ele>772</ele>
        <time>2020-12-26T14:48:38Z</time>
      </trkpt>
      <trkpt lat="46.96558" lon="6.01545">
        <ele>772.4</ele>
        <time>2020-12-26T14:48:39Z</time>
      </trkpt>
      <trkpt lat="46.9656" lon="6.01548">
        <ele>772.4</ele>
        <time>2020-12-26T14:48:40Z</time>
      </trkpt>
      <trkpt lat="46.96561" lon="6.01551">
        <ele>772.8</ele>
        <time>2020-12-26T14:48:41Z</time>
      </trkpt>
      <trkpt lat="46.96563" lon="6.01554">
        <ele>773</ele>
        <time>2020-12-26T14:48:42Z</time>
      </trkpt>
      <trkpt lat="46.96564" lon="6.01558">
        <ele>773.2</ele>
        <time>2020-12-26T14:48:43Z</time>
      </trkpt>
      <trkpt lat="46.96564" lon="6.01562">
        <ele>773.6</ele>
        <time>2020-12-26T14:48:44Z</time>
      </trkpt>
      <trkpt lat="46.96564" lon="6.01566">
        <ele>773.8</ele>
        <time>2020-12-26T14:48:45Z</time>
      </trkpt>
      <trkpt lat="46.96563" lon="6.01569">
        <ele>773.8</ele>
        <time>2020-12-26T14:48:46Z</time>
      </trkpt>
      <trkpt lat="46.96562" lon="6.01573">
        <ele>774.2</ele>
        <time>2020-12-26T14:48:47Z</time>
      </trkpt>
      <trkpt lat="46.96561" lon="6.01577">
        <ele>774.4</ele>
        <time>2020-12-26T14:48:48Z</time>
      </trkpt>
      <trkpt lat="46.9656" lon="6.0158">
        <ele>774.6</ele>
        <time>2020-12-26T14:48:49Z</time>
      </trkpt>
      <trkpt lat="46.96558" lon="6.01583">
        <ele>775</ele>
        <time>2020-12-26T14:48:50Z</time>
      </trkpt>
      <trkpt lat="46.96556" lon="6.01586">
        <ele>775.2</ele>
        <time>2020-12-26T14:48:51Z</time>
      </trkpt>
      <trkpt lat="46.96554" lon="6.0159">
        <ele>775.6</ele>
        <time>2020-12-26T14:48:52Z</time>
      </trkpt>
      <trkpt lat="46.96552" lon="6.01593">
        <ele>775.8</ele>
        <time>2020-12-26T14:48:53Z</time>
      </trkpt>
      <trkpt lat="46.9655" lon="6.01596">
        <ele>775.8</ele>
        <time>2020-12-26T14:48:54Z</time>
      </trkpt>
      <trkpt lat="46.96548" lon="6.01599">
        <ele>776</ele>
        <time>2020-12-26T14:48:55Z</time>
      </trkpt>
      <trkpt lat="46.96546" lon="6.01602">
        <ele>776</ele>
        <time>2020-12-26T14:48:56Z</time>
      </trkpt>
      <trkpt lat="46.96543" lon="6.01604">
        <ele>776.4</ele>
        <time>2020-12-26T14:48:57Z</time>
      </trkpt>
      <trkpt lat="46.9654" lon="6.01606">
        <ele>776.4</ele>
        <time>2020-12-26T14:48:58Z</time>
      </trkpt>
      <trkpt lat="46.96538" lon="6.01608">
        <ele>776.6</ele>
        <time>2020-12-26T14:48:59Z</time>
      </trkpt>
      <trkpt lat="46.96535" lon="6.0161">
        <ele>777</ele>
        <time>2020-12-26T14:49:00Z</time>
      </trkpt>
      <trkpt lat="46.96533" lon="6.01612">
        <ele>777</ele>
        <time>2020-12-26T14:49:01Z</time>
      </trkpt>
      <trkpt lat="46.9653" lon="6.01614">
        <ele>777.4</ele>
        <time>2020-12-26T14:49:02Z</time>
      </trkpt>
      <trkpt lat="46.96528" lon="6.01616">
        <ele>777.6</ele>
        <time>2020-12-26T14:49:03Z</time>
      </trkpt>
      <trkpt lat="46.96526" lon="6.01617">
        <ele>777.8</ele>
        <time>2020-12-26T14:49:04Z</time>
      </trkpt>
      <trkpt lat="46.96523" lon="6.01619">
        <ele>778</ele>
        <time>2020-12-26T14:49:05Z</time>
      </trkpt>
      <trkpt lat="46.96521" lon="6.0162">
        <ele>778</ele>
        <time>2020-12-26T14:49:06Z</time>
      </trkpt>
      <trkpt lat="46.96518" lon="6.01622">
        <ele>778.4</ele>
        <time>2020-12-26T14:49:07Z</time>
      </trkpt>
      <trkpt lat="46.96516" lon="6.01624">
        <ele>778.6</ele>
        <time>2020-12-26T14:49:08Z</time>
      </trkpt>
      <trkpt lat="46.96513" lon="6.01625">
        <ele>779</ele>
        <time>2020-12-26T14:49:09Z</time>
      </trkpt>
      <trkpt lat="46.9651" lon="6.01627">
        <ele>779.2</ele>
        <time>2020-12-26T14:49:10Z</time>
      </trkpt>
      <trkpt lat="46.96507" lon="6.01628">
        <ele>779.4</ele>
        <time>2020-12-26T14:49:11Z</time>
      </trkpt>
      <trkpt lat="46.96505" lon="6.01629">
        <ele>779.4</ele>
        <time>2020-12-26T14:49:12Z</time>
      </trkpt>
      <trkpt lat="46.96502" lon="6.0163">
        <ele>779.6</ele>
        <time>2020-12-26T14:49:13Z</time>
      </trkpt>
      <trkpt lat="46.965" lon="6.01631">
        <ele>779.8</ele>
        <time>2020-12-26T14:49:14Z</time>
      </trkpt>
      <trkpt lat="46.96497" lon="6.01632">
        <ele>780.2</ele>
        <time>2020-12-26T14:49:15Z</time>
      </trkpt>
      <trkpt lat="46.96495" lon="6.01634">
        <ele>780.2</ele>
        <time>2020-12-26T14:49:16Z</time>
      </trkpt>
      <trkpt lat="46.96493" lon="6.01635">
        <ele>780.4</ele>
        <time>2020-12-26T14:49:17Z</time>
      </trkpt>
      <trkpt lat="46.9649" lon="6.01636">
        <ele>780.4</ele>
        <time>2020-12-26T14:49:18Z</time>
      </trkpt>
      <trkpt lat="46.96487" lon="6.01638">
        <ele>780.8</ele>
        <time>2020-12-26T14:49:19Z</time>
      </trkpt>
      <trkpt lat="46.96485" lon="6.0164">
        <ele>780.8</ele>
        <time>2020-12-26T14:49:20Z</time>
      </trkpt>
      <trkpt lat="46.96482" lon="6.01642">
        <ele>781.2</ele>
        <time>2020-12-26T14:49:21Z</time>
      </trkpt>
      <trkpt lat="46.96479" lon="6.01644">
        <ele>781.2</ele>
        <time>2020-12-26T14:49:22Z</time>
      </trkpt>
      <trkpt lat="46.96476" lon="6.01645">
        <ele>781.6</ele>
        <time>2020-12-26T14:49:23Z</time>
      </trkpt>
      <trkpt lat="46.96473" lon="6.01647">
        <ele>782</ele>
        <time>2020-12-26T14:49:24Z</time>
      </trkpt>
      <trkpt lat="46.96471" lon="6.01649">
        <ele>782.2</ele>
        <time>2020-12-26T14:49:25Z</time>
      </trkpt>
      <trkpt lat="46.96468" lon="6.01651">
        <ele>782.4</ele>
        <time>2020-12-26T14:49:26Z</time>
      </trkpt>
      <trkpt lat="46.96465" lon="6.01653">
        <ele>782.8</ele>
        <time>2020-12-26T14:49:27Z</time>
      </trkpt>
      <trkpt lat="46.96463" lon="6.01655">
        <ele>782.8</ele>
        <time>2020-12-26T14:49:28Z</time>
      </trkpt>
      <trkpt lat="46.9646" lon="6.01657">
        <ele>783</ele>
        <time>2020-12-26T14:49:29Z</time>
      </trkpt>
      <trkpt lat="46.96458" lon="6.0166">
        <ele>783.4</ele>
        <time>2020-12-26T14:49:30Z</time>
      </trkpt>
      <trkpt lat="46.96456" lon="6.01663">
        <ele>783.6</ele>
        <time>2020-12-26T14:49:31Z</time>
      </trkpt>
      <trkpt lat="46.96453" lon="6.01665">
        <ele>783.8</ele>
        <time>2020-12-26T14:49:32Z</time>
      </trkpt>
      <trkpt lat="46.9645" lon="6.01667">
        <ele>783.8</ele>
        <time>2020-12-26T14:49:33Z</time>
      </trkpt>
      <trkpt lat="46.96448" lon="6.01669">
        <ele>784.2</ele>
        <time>2020-12-26T14:49:34Z</time>
      </trkpt>
      <trkpt lat="46.96445" lon="6.0167">
        <ele>784.2</ele>
        <time>2020-12-26T14:49:35Z</time>
      </trkpt>
      <trkpt lat="46.96442" lon="6.01672">
        <ele>784.4</ele>
        <time>2020-12-26T14:49:36Z</time>
      </trkpt>
      <trkpt lat="46.9644" lon="6.01674">
        <ele>784.4</ele>
        <time>2020-12-26T14:49:37Z</time>
      </trkpt>
      <trkpt lat="46.96437" lon="6.01675">
        <ele>784.8</ele>
        <time>2020-12-26T14:49:38Z</time>
      </trkpt>
      <trkpt lat="46.96434" lon="6.01676">
        <ele>784.8</ele>
        <time>2020-12-26T14:49:39Z</time>
      </trkpt>
      <trkpt lat="46.96432" lon="6.01677">
        <ele>785.2</ele>
        <time>2020-12-26T14:49:40Z</time>
      </trkpt>
      <trkpt lat="46.96429" lon="6.01678">
        <ele>785.2</ele>
        <time>2020-12-26T14:49:41Z</time>
      </trkpt>
      <trkpt lat="46.96426" lon="6.01678">
        <ele>785.4</ele>
        <time>2020-12-26T14:49:42Z</time>
      </trkpt>
      <trkpt lat="46.96424" lon="6.01679">
        <ele>785.4</ele>
        <time>2020-12-26T14:49:43Z</time>
      </trkpt>
      <trkpt lat="46.96421" lon="6.01679">
        <ele>785.8</ele>
        <time>2020-12-26T14:49:44Z</time>
      </trkpt>
      <trkpt lat="46.96418" lon="6.01679">
        <ele>785.8</ele>
        <time>2020-12-26T14:49:45Z</time>
      </trkpt>
      <trkpt lat="46.96416" lon="6.0168">
        <ele>786</ele>
        <time>2020-12-26T14:49:46Z</time>
      </trkpt>
      <trkpt lat="46.96413" lon="6.01681">
        <ele>786.4</ele>
        <time>2020-12-26T14:49:47Z</time>
      </trkpt>
      <trkpt lat="46.96411" lon="6.01682">
        <ele>786.4</ele>
        <time>2020-12-26T14:49:48Z</time>
      </trkpt>
      <trkpt lat="46.96409" lon="6.01682">
        <ele>786.8</ele>
        <time>2020-12-26T14:49:49Z</time>
      </trkpt>
      <trkpt lat="46.96407" lon="6.01682">
        <ele>787</ele>
        <time>2020-12-26T14:49:50Z</time>
      </trkpt>
      <trkpt lat="46.96404" lon="6.01683">
        <ele>787.2</ele>
        <time>2020-12-26T14:49:51Z</time>
      </trkpt>
      <trkpt lat="46.96401" lon="6.01683">
        <ele>787.4</ele>
        <time>2020-12-26T14:49:52Z</time>
      </trkpt>
      <trkpt lat="46.96399" lon="6.01685">
        <ele>787.4</ele>
        <time>2020-12-26T14:49:53Z</time>
      </trkpt>
      <trkpt lat="46.96396" lon="6.01687">
        <ele>787.8</ele>
        <time>2020-12-26T14:49:54Z</time>
      </trkpt>
      <trkpt lat="46.96394" lon="6.01689">
        <ele>787.8</ele>
        <time>2020-12-26T14:49:55Z</time>
      </trkpt>
      <trkpt lat="46.96392" lon="6.01692">
        <ele>788.2</ele>
        <time>2020-12-26T14:49:56Z</time>
      </trkpt>
      <trkpt lat="46.96389" lon="6.01694">
        <ele>788.2</ele>
        <time>2020-12-26T14:49:57Z</time>
      </trkpt>
      <trkpt lat="46.96387" lon="6.01697">
        <ele>788.6</ele>
        <time>2020-12-26T14:49:58Z</time>
      </trkpt>
      <trkpt lat="46.96385" lon="6.01699">
        <ele>788.8</ele>
        <time>2020-12-26T14:49:59Z</time>
      </trkpt>
      <trkpt lat="46.96382" lon="6.017">
        <ele>788.8</ele>
        <time>2020-12-26T14:50:00Z</time>
      </trkpt>
      <trkpt lat="46.9638" lon="6.01702">
        <ele>789.2</ele>
        <time>2020-12-26T14:50:01Z</time>
      </trkpt>
      <trkpt lat="46.96378" lon="6.01704">
        <ele>789.2</ele>
        <time>2020-12-26T14:50:02Z</time>
      </trkpt>
      <trkpt lat="46.96375" lon="6.01706">
        <ele>789.6</ele>
        <time>2020-12-26T14:50:03Z</time>
      </trkpt>
      <trkpt lat="46.96373" lon="6.01707">
        <ele>789.6</ele>
        <time>2020-12-26T14:50:04Z</time>
      </trkpt>
      <trkpt lat="46.96371" lon="6.01708">
        <ele>790</ele>
        <time>2020-12-26T14:50:05Z</time>
      </trkpt>
      <trkpt lat="46.96368" lon="6.0171">
        <ele>790</ele>
        <time>2020-12-26T14:50:06Z</time>
      </trkpt>
      <trkpt lat="46.96366" lon="6.01712">
        <ele>790.2</ele>
        <time>2020-12-26T14:50:07Z</time>
      </trkpt>
      <trkpt lat="46.96363" lon="6.01714">
        <ele>790.2</ele>
        <time>2020-12-26T14:50:08Z</time>
      </trkpt>
      <trkpt lat="46.9636" lon="6.01715">
        <ele>790.2</ele>
        <time>2020-12-26T14:50:09Z</time>
      </trkpt>
      <trkpt lat="46.96357" lon="6.01716">
        <ele>790.6</ele>
        <time>2020-12-26T14:50:10Z</time>
      </trkpt>
      <trkpt lat="46.96354" lon="6.01718">
        <ele>790.8</ele>
        <time>2020-12-26T14:50:11Z</time>
      </trkpt>
      <trkpt lat="46.96352" lon="6.01719">
        <ele>790.8</ele>
        <time>2020-12-26T14:50:12Z</time>
      </trkpt>
      <trkpt lat="46.96349" lon="6.0172">
        <ele>791.2</ele>
        <time>2020-12-26T14:50:13Z</time>
      </trkpt>
      <trkpt lat="46.96346" lon="6.0172">
        <ele>791.2</ele>
        <time>2020-12-26T14:50:14Z</time>
      </trkpt>
      <trkpt lat="46.96343" lon="6.0172">
        <ele>791.6</ele>
        <time>2020-12-26T14:50:15Z</time>
      </trkpt>
      <trkpt lat="46.9634" lon="6.0172">
        <ele>791.8</ele>
        <time>2020-12-26T14:50:16Z</time>
      </trkpt>
      <trkpt lat="46.96336" lon="6.01718">
        <ele>792.2</ele>
        <time>2020-12-26T14:50:17Z</time>
      </trkpt>
      <trkpt lat="46.96333" lon="6.01717">
        <ele>792.4</ele>
        <time>2020-12-26T14:50:18Z</time>
      </trkpt>
      <trkpt lat="46.9633" lon="6.01715">
        <ele>792.4</ele>
        <time>2020-12-26T14:50:19Z</time>
      </trkpt>
      <trkpt lat="46.96326" lon="6.01713">
        <ele>792.8</ele>
        <time>2020-12-26T14:50:20Z</time>
      </trkpt>
      <trkpt lat="46.96323" lon="6.01711">
        <ele>793</ele>
        <time>2020-12-26T14:50:21Z</time>
      </trkpt>
      <trkpt lat="46.9632" lon="6.01709">
        <ele>793.2</ele>
        <time>2020-12-26T14:50:22Z</time>
      </trkpt>
      <trkpt lat="46.96317" lon="6.01707">
        <ele>793.2</ele>
        <time>2020-12-26T14:50:23Z</time>
      </trkpt>
      <trkpt lat="46.96314" lon="6.01705">
        <ele>793.6</ele>
        <time>2020-12-26T14:50:24Z</time>
      </trkpt>
      <trkpt lat="46.96311" lon="6.01702">
        <ele>793.8</ele>
        <time>2020-12-26T14:50:25Z</time>
      </trkpt>
      <trkpt lat="46.96308" lon="6.017">
        <ele>794.2</ele>
        <time>2020-12-26T14:50:26Z</time>
      </trkpt>
      <trkpt lat="46.96305" lon="6.01699">
        <ele>794.6</ele>
        <time>2020-12-26T14:50:27Z</time>
      </trkpt>
      <trkpt lat="46.96303" lon="6.01697">
        <ele>794.8</ele>
        <time>2020-12-26T14:50:28Z</time>
      </trkpt>
      <trkpt lat="46.963" lon="6.01695">
        <ele>795.2</ele>
        <time>2020-12-26T14:50:29Z</time>
      </trkpt>
      <trkpt lat="46.96297" lon="6.01693">
        <ele>795.4</ele>
        <time>2020-12-26T14:50:30Z</time>
      </trkpt>
      <trkpt lat="46.96294" lon="6.01691">
        <ele>795.6</ele>
        <time>2020-12-26T14:50:31Z</time>
      </trkpt>
      <trkpt lat="46.96292" lon="6.0169">
        <ele>795.8</ele>
        <time>2020-12-26T14:50:32Z</time>
      </trkpt>
      <trkpt lat="46.96289" lon="6.01688">
        <ele>796</ele>
        <time>2020-12-26T14:50:33Z</time>
      </trkpt>
      <trkpt lat="46.96286" lon="6.01687">
        <ele>796.4</ele>
        <time>2020-12-26T14:50:34Z</time>
      </trkpt>
      <trkpt lat="46.96284" lon="6.01687">
        <ele>796.6</ele>
        <time>2020-12-26T14:50:35Z</time>
      </trkpt>
      <trkpt lat="46.96281" lon="6.01685">
        <ele>796.6</ele>
        <time>2020-12-26T14:50:36Z</time>
      </trkpt>
      <trkpt lat="46.96278" lon="6.01683">
        <ele>796.8</ele>
        <time>2020-12-26T14:50:37Z</time>
      </trkpt>
      <trkpt lat="46.96275" lon="6.01682">
        <ele>797.2</ele>
        <time>2020-12-26T14:50:38Z</time>
      </trkpt>
      <trkpt lat="46.96273" lon="6.01681">
        <ele>797.4</ele>
        <time>2020-12-26T14:50:39Z</time>
      </trkpt>
      <trkpt lat="46.9627" lon="6.01679">
        <ele>797.4</ele>
        <time>2020-12-26T14:50:40Z</time>
      </trkpt>
      <trkpt lat="46.96267" lon="6.01678">
        <ele>797.8</ele>
        <time>2020-12-26T14:50:41Z</time>
      </trkpt>
      <trkpt lat="46.96264" lon="6.01676">
        <ele>797.8</ele>
        <time>2020-12-26T14:50:42Z</time>
      </trkpt>
      <trkpt lat="46.96262" lon="6.01676">
        <ele>798</ele>
        <time>2020-12-26T14:50:43Z</time>
      </trkpt>
      <trkpt lat="46.96259" lon="6.01674">
        <ele>798</ele>
        <time>2020-12-26T14:50:44Z</time>
      </trkpt>
      <trkpt lat="46.96256" lon="6.01672">
        <ele>798.4</ele>
        <time>2020-12-26T14:50:45Z</time>
      </trkpt>
      <trkpt lat="46.96253" lon="6.0167">
        <ele>798.6</ele>
        <time>2020-12-26T14:50:46Z</time>
      </trkpt>
      <trkpt lat="46.96251" lon="6.01669">
        <ele>798.6</ele>
        <time>2020-12-26T14:50:47Z</time>
      </trkpt>
      <trkpt lat="46.96248" lon="6.01667">
        <ele>799</ele>
        <time>2020-12-26T14:50:48Z</time>
      </trkpt>
      <trkpt lat="46.96245" lon="6.01666">
        <ele>799.2</ele>
        <time>2020-12-26T14:50:49Z</time>
      </trkpt>
      <trkpt lat="46.96243" lon="6.01665">
        <ele>799.4</ele>
        <time>2020-12-26T14:50:50Z</time>
      </trkpt>
      <trkpt lat="46.96241" lon="6.01664">
        <ele>799.6</ele>
        <time>2020-12-26T14:50:51Z</time>
      </trkpt>
      <trkpt lat="46.96239" lon="6.01662">
        <ele>799.6</ele>
        <time>2020-12-26T14:50:52Z</time>
      </trkpt>
      <trkpt lat="46.96237" lon="6.01661">
        <ele>800</ele>
        <time>2020-12-26T14:50:53Z</time>
      </trkpt>
      <trkpt lat="46.96234" lon="6.01659">
        <ele>800</ele>
        <time>2020-12-26T14:50:54Z</time>
      </trkpt>
      <trkpt lat="46.96231" lon="6.01657">
        <ele>800.2</ele>
        <time>2020-12-26T14:50:55Z</time>
      </trkpt>
      <trkpt lat="46.96229" lon="6.01655">
        <ele>800.2</ele>
        <time>2020-12-26T14:50:56Z</time>
      </trkpt>
      <trkpt lat="46.96227" lon="6.01653">
        <ele>800.6</ele>
        <time>2020-12-26T14:50:57Z</time>
      </trkpt>
      <trkpt lat="46.96225" lon="6.01652">
        <ele>800.8</ele>
        <time>2020-12-26T14:50:58Z</time>
      </trkpt>
      <trkpt lat="46.96222" lon="6.0165">
        <ele>800.8</ele>
        <time>2020-12-26T14:50:59Z</time>
      </trkpt>
      <trkpt lat="46.9622" lon="6.01648">
        <ele>801.2</ele>
        <time>2020-12-26T14:51:00Z</time>
      </trkpt>
      <trkpt lat="46.96217" lon="6.01645">
        <ele>801.2</ele>
        <time>2020-12-26T14:51:01Z</time>
      </trkpt>
      <trkpt lat="46.96214" lon="6.01642">
        <ele>801.6</ele>
        <time>2020-12-26T14:51:02Z</time>
      </trkpt>
      <trkpt lat="46.96212" lon="6.0164">
        <ele>801.8</ele>
        <time>2020-12-26T14:51:03Z</time>
      </trkpt>
      <trkpt lat="46.96209" lon="6.01638">
        <ele>802</ele>
        <time>2020-12-26T14:51:04Z</time>
      </trkpt>
      <trkpt lat="46.96206" lon="6.01635">
        <ele>802</ele>
        <time>2020-12-26T14:51:05Z</time>
      </trkpt>
      <trkpt lat="46.96204" lon="6.01632">
        <ele>802.4</ele>
        <time>2020-12-26T14:51:06Z</time>
      </trkpt>
      <trkpt lat="46.96201" lon="6.01629">
        <ele>802.4</ele>
        <time>2020-12-26T14:51:07Z</time>
      </trkpt>
      <trkpt lat="46.96199" lon="6.01625">
        <ele>802.8</ele>
        <time>2020-12-26T14:51:08Z</time>
      </trkpt>
      <trkpt lat="46.96196" lon="6.01622">
        <ele>802.8</ele>
        <time>2020-12-26T14:51:09Z</time>
      </trkpt>
      <trkpt lat="46.96194" lon="6.01619">
        <ele>803</ele>
        <time>2020-12-26T14:51:10Z</time>
      </trkpt>
      <trkpt lat="46.96191" lon="6.01617">
        <ele>803</ele>
        <time>2020-12-26T14:51:11Z</time>
      </trkpt>
      <trkpt lat="46.96189" lon="6.01615">
        <ele>803.2</ele>
        <time>2020-12-26T14:51:12Z</time>
      </trkpt>
      <trkpt lat="46.96187" lon="6.01612">
        <ele>803.6</ele>
        <time>2020-12-26T14:51:13Z</time>
      </trkpt>
      <trkpt lat="46.96185" lon="6.01609">
        <ele>803.8</ele>
        <time>2020-12-26T14:51:14Z</time>
      </trkpt>
      <trkpt lat="46.96182" lon="6.01606">
        <ele>804</ele>
        <time>2020-12-26T14:51:15Z</time>
      </trkpt>
      <trkpt lat="46.9618" lon="6.01603">
        <ele>804.2</ele>
        <time>2020-12-26T14:51:16Z</time>
      </trkpt>
      <trkpt lat="46.96177" lon="6.01601">
        <ele>804.6</ele>
        <time>2020-12-26T14:51:17Z</time>
      </trkpt>
      <trkpt lat="46.96175" lon="6.01598">
        <ele>804.8</ele>
        <time>2020-12-26T14:51:18Z</time>
      </trkpt>
      <trkpt lat="46.96172" lon="6.01596">
        <ele>805</ele>
        <time>2020-12-26T14:51:19Z</time>
      </trkpt>
      <trkpt lat="46.9617" lon="6.01593">
        <ele>805.4</ele>
        <time>2020-12-26T14:51:20Z</time>
      </trkpt>
      <trkpt lat="46.96167" lon="6.0159">
        <ele>805.6</ele>
        <time>2020-12-26T14:51:21Z</time>
      </trkpt>
      <trkpt lat="46.96165" lon="6.01587">
        <ele>805.8</ele>
        <time>2020-12-26T14:51:22Z</time>
      </trkpt>
      <trkpt lat="46.96163" lon="6.01584">
        <ele>805.8</ele>
        <time>2020-12-26T14:51:23Z</time>
      </trkpt>
      <trkpt lat="46.96161" lon="6.0158">
        <ele>806.2</ele>
        <time>2020-12-26T14:51:24Z</time>
      </trkpt>
      <trkpt lat="46.96158" lon="6.01577">
        <ele>806.2</ele>
        <time>2020-12-26T14:51:25Z</time>
      </trkpt>
      <trkpt lat="46.96156" lon="6.01574">
        <ele>806.6</ele>
        <time>2020-12-26T14:51:26Z</time>
      </trkpt>
      <trkpt lat="46.96153" lon="6.0157">
        <ele>806.8</ele>
        <time>2020-12-26T14:51:27Z</time>
      </trkpt>
      <trkpt lat="46.96151" lon="6.01567">
        <ele>807</ele>
        <time>2020-12-26T14:51:28Z</time>
      </trkpt>
      <trkpt lat="46.96149" lon="6.01563">
        <ele>807.4</ele>
        <time>2020-12-26T14:51:29Z</time>
      </trkpt>
      <trkpt lat="46.96146" lon="6.0156">
        <ele>807.6</ele>
        <time>2020-12-26T14:51:30Z</time>
      </trkpt>
      <trkpt lat="46.96144" lon="6.01557">
        <ele>807.8</ele>
        <time>2020-12-26T14:51:31Z</time>
      </trkpt>
      <trkpt lat="46.96142" lon="6.01552">
        <ele>808</ele>
        <time>2020-12-26T14:51:32Z</time>
      </trkpt>
      <trkpt lat="46.9614" lon="6.01549">
        <ele>808.2</ele>
        <time>2020-12-26T14:51:33Z</time>
      </trkpt>
      <trkpt lat="46.96138" lon="6.01545">
        <ele>808.6</ele>
        <time>2020-12-26T14:51:34Z</time>
      </trkpt>
      <trkpt lat="46.96136" lon="6.01542">
        <ele>808.8</ele>
        <time>2020-12-26T14:51:35Z</time>
      </trkpt>
      <trkpt lat="46.96134" lon="6.01538">
        <ele>809</ele>
        <time>2020-12-26T14:51:36Z</time>
      </trkpt>
      <trkpt lat="46.96133" lon="6.01534">
        <ele>809.2</ele>
        <time>2020-12-26T14:51:37Z</time>
      </trkpt>
      <trkpt lat="46.96131" lon="6.0153">
        <ele>809.4</ele>
        <time>2020-12-26T14:51:38Z</time>
      </trkpt>
      <trkpt lat="46.96129" lon="6.01526">
        <ele>809.4</ele>
        <time>2020-12-26T14:51:39Z</time>
      </trkpt>
      <trkpt lat="46.96127" lon="6.01523">
        <ele>809.8</ele>
        <time>2020-12-26T14:51:40Z</time>
      </trkpt>
      <trkpt lat="46.96126" lon="6.01519">
        <ele>810</ele>
        <time>2020-12-26T14:51:41Z</time>
      </trkpt>
      <trkpt lat="46.96124" lon="6.01516">
        <ele>810.2</ele>
        <time>2020-12-26T14:51:42Z</time>
      </trkpt>
      <trkpt lat="46.96122" lon="6.01513">
        <ele>810.2</ele>
        <time>2020-12-26T14:51:43Z</time>
      </trkpt>
      <trkpt lat="46.9612" lon="6.01509">
        <ele>810.6</ele>
        <time>2020-12-26T14:51:44Z</time>
      </trkpt>
      <trkpt lat="46.96119" lon="6.01506">
        <ele>810.8</ele>
        <time>2020-12-26T14:51:45Z</time>
      </trkpt>
      <trkpt lat="46.96117" lon="6.01503">
        <ele>810.8</ele>
        <time>2020-12-26T14:51:46Z</time>
      </trkpt>
      <trkpt lat="46.96115" lon="6.015">
        <ele>811.2</ele>
        <time>2020-12-26T14:51:47Z</time>
      </trkpt>
      <trkpt lat="46.96113" lon="6.01497">
        <ele>811.2</ele>
        <time>2020-12-26T14:51:48Z</time>
      </trkpt>
      <trkpt lat="46.96111" lon="6.01494">
        <ele>811.6</ele>
        <time>2020-12-26T14:51:49Z</time>
      </trkpt>
      <trkpt lat="46.96109" lon="6.01491">
        <ele>811.6</ele>
        <time>2020-12-26T14:51:50Z</time>
      </trkpt>
      <trkpt lat="46.96107" lon="6.01488">
        <ele>812</ele>
        <time>2020-12-26T14:51:51Z</time>
      </trkpt>
      <trkpt lat="46.96105" lon="6.01485">
        <ele>812</ele>
        <time>2020-12-26T14:51:52Z</time>
      </trkpt>
      <trkpt lat="46.96103" lon="6.01483">
        <ele>812.2</ele>
        <time>2020-12-26T14:51:53Z</time>
      </trkpt>
      <trkpt lat="46.961" lon="6.0148">
        <ele>812.2</ele>
        <time>2020-12-26T14:51:54Z</time>
      </trkpt>
      <trkpt lat="46.96098" lon="6.01477">
        <ele>812.6</ele>
        <time>2020-12-26T14:51:55Z</time>
      </trkpt>
      <trkpt lat="46.96096" lon="6.01474">
        <ele>812.6</ele>
        <time>2020-12-26T14:51:56Z</time>
      </trkpt>
      <trkpt lat="46.96094" lon="6.01471">
        <ele>812.8</ele>
        <time>2020-12-26T14:51:57Z</time>
      </trkpt>
      <trkpt lat="46.96092" lon="6.01469">
        <ele>812.8</ele>
        <time>2020-12-26T14:51:58Z</time>
      </trkpt>
      <trkpt lat="46.96089" lon="6.01466">
        <ele>813.2</ele>
        <time>2020-12-26T14:51:59Z</time>
      </trkpt>
      <trkpt lat="46.96087" lon="6.01463">
        <ele>813.4</ele>
        <time>2020-12-26T14:52:00Z</time>
      </trkpt>
      <trkpt lat="46.96085" lon="6.0146">
        <ele>813.4</ele>
        <time>2020-12-26T14:52:01Z</time>
      </trkpt>
      <trkpt lat="46.96083" lon="6.01458">
        <ele>813.8</ele>
        <time>2020-12-26T14:52:02Z</time>
      </trkpt>
      <trkpt lat="46.96081" lon="6.01455">
        <ele>814</ele>
        <time>2020-12-26T14:52:03Z</time>
      </trkpt>
      <trkpt lat="46.96079" lon="6.01452">
        <ele>814.4</ele>
        <time>2020-12-26T14:52:04Z</time>
      </trkpt>
      <trkpt lat="46.96077" lon="6.0145">
        <ele>814.6</ele>
        <time>2020-12-26T14:52:05Z</time>
      </trkpt>
      <trkpt lat="46.96075" lon="6.01448">
        <ele>814.8</ele>
        <time>2020-12-26T14:52:06Z</time>
      </trkpt>
      <trkpt lat="46.96073" lon="6.01445">
        <ele>815</ele>
        <time>2020-12-26T14:52:07Z</time>
      </trkpt>
      <trkpt lat="46.9607" lon="6.01443">
        <ele>815</ele>
        <time>2020-12-26T14:52:08Z</time>
      </trkpt>
      <trkpt lat="46.96068" lon="6.0144">
        <ele>815.4</ele>
        <time>2020-12-26T14:52:09Z</time>
      </trkpt>
      <trkpt lat="46.96065" lon="6.01438">
        <ele>815.4</ele>
        <time>2020-12-26T14:52:10Z</time>
      </trkpt>
      <trkpt lat="46.96063" lon="6.01435">
        <ele>815.8</ele>
        <time>2020-12-26T14:52:11Z</time>
      </trkpt>
      <trkpt lat="46.96061" lon="6.01433">
        <ele>816</ele>
        <time>2020-12-26T14:52:12Z</time>
      </trkpt>
      <trkpt lat="46.96058" lon="6.01431">
        <ele>816.2</ele>
        <time>2020-12-26T14:52:13Z</time>
      </trkpt>
      <trkpt lat="46.96056" lon="6.01429">
        <ele>816.6</ele>
        <time>2020-12-26T14:52:14Z</time>
      </trkpt>
      <trkpt lat="46.96054" lon="6.01427">
        <ele>816.8</ele>
        <time>2020-12-26T14:52:15Z</time>
      </trkpt>
      <trkpt lat="46.96052" lon="6.01426">
        <ele>817</ele>
        <time>2020-12-26T14:52:16Z</time>
      </trkpt>
      <trkpt lat="46.9605" lon="6.01424">
        <ele>817.2</ele>
        <time>2020-12-26T14:52:17Z</time>
      </trkpt>
      <trkpt lat="46.96047" lon="6.01422">
        <ele>817.6</ele>
        <time>2020-12-26T14:52:18Z</time>
      </trkpt>
      <trkpt lat="46.96045" lon="6.0142">
        <ele>817.8</ele>
        <time>2020-12-26T14:52:19Z</time>
      </trkpt>
      <trkpt lat="46.96043" lon="6.01418">
        <ele>817.8</ele>
        <time>2020-12-26T14:52:20Z</time>
      </trkpt>
      <trkpt lat="46.9604" lon="6.01416">
        <ele>818.2</ele>
        <time>2020-12-26T14:52:21Z</time>
      </trkpt>
      <trkpt lat="46.96038" lon="6.01414">
        <ele>818.2</ele>
        <time>2020-12-26T14:52:22Z</time>
      </trkpt>
      <trkpt lat="46.96035" lon="6.01413">
        <ele>818.6</ele>
        <time>2020-12-26T14:52:23Z</time>
      </trkpt>
      <trkpt lat="46.96033" lon="6.01411">
        <ele>818.8</ele>
        <time>2020-12-26T14:52:24Z</time>
      </trkpt>
      <trkpt lat="46.9603" lon="6.01409">
        <ele>819.2</ele>
        <time>2020-12-26T14:52:25Z</time>
      </trkpt>
      <trkpt lat="46.96027" lon="6.01407">
        <ele>819.4</ele>
        <time>2020-12-26T14:52:26Z</time>
      </trkpt>
      <trkpt lat="46.96025" lon="6.01405">
        <ele>819.4</ele>
        <time>2020-12-26T14:52:27Z</time>
      </trkpt>
      <trkpt lat="46.96022" lon="6.01403">
        <ele>819.6</ele>
        <time>2020-12-26T14:52:28Z</time>
      </trkpt>
      <trkpt lat="46.9602" lon="6.01402">
        <ele>819.8</ele>
        <time>2020-12-26T14:52:29Z</time>
      </trkpt>
      <trkpt lat="46.96018" lon="6.014">
        <ele>819.8</ele>
        <time>2020-12-26T14:52:30Z</time>
      </trkpt>
      <trkpt lat="46.96016" lon="6.01398">
        <ele>820.2</ele>
        <time>2020-12-26T14:52:31Z</time>
      </trkpt>
      <trkpt lat="46.96014" lon="6.01396">
        <ele>820.2</ele>
        <time>2020-12-26T14:52:32Z</time>
      </trkpt>
      <trkpt lat="46.96012" lon="6.01395">
        <ele>820.6</ele>
        <time>2020-12-26T14:52:33Z</time>
      </trkpt>
      <trkpt lat="46.96009" lon="6.01393">
        <ele>820.6</ele>
        <time>2020-12-26T14:52:34Z</time>
      </trkpt>
      <trkpt lat="46.96007" lon="6.01392">
        <ele>821</ele>
        <time>2020-12-26T14:52:35Z</time>
      </trkpt>
      <trkpt lat="46.96004" lon="6.01391">
        <ele>821.2</ele>
        <time>2020-12-26T14:52:36Z</time>
      </trkpt>
      <trkpt lat="46.96001" lon="6.01389">
        <ele>821.2</ele>
        <time>2020-12-26T14:52:37Z</time>
      </trkpt>
      <trkpt lat="46.95999" lon="6.01388">
        <ele>821.6</ele>
        <time>2020-12-26T14:52:38Z</time>
      </trkpt>
      <trkpt lat="46.95997" lon="6.01386">
        <ele>821.8</ele>
        <time>2020-12-26T14:52:39Z</time>
      </trkpt>
      <trkpt lat="46.95994" lon="6.01385">
        <ele>822</ele>
        <time>2020-12-26T14:52:40Z</time>
      </trkpt>
      <trkpt lat="46.95992" lon="6.01383">
        <ele>822</ele>
        <time>2020-12-26T14:52:41Z</time>
      </trkpt>
      <trkpt lat="46.9599" lon="6.01382">
        <ele>822.4</ele>
        <time>2020-12-26T14:52:42Z</time>
      </trkpt>
      <trkpt lat="46.95988" lon="6.01381">
        <ele>822.4</ele>
        <time>2020-12-26T14:52:43Z</time>
      </trkpt>
      <trkpt lat="46.95986" lon="6.0138">
        <ele>822.8</ele>
        <time>2020-12-26T14:52:44Z</time>
      </trkpt>
      <trkpt lat="46.95984" lon="6.01378">
        <ele>822.8</ele>
        <time>2020-12-26T14:52:45Z</time>
      </trkpt>
      <trkpt lat="46.95982" lon="6.01376">
        <ele>823.2</ele>
        <time>2020-12-26T14:52:46Z</time>
      </trkpt>
      <trkpt lat="46.9598" lon="6.01374">
        <ele>823.4</ele>
        <time>2020-12-26T14:52:47Z</time>
      </trkpt>
      <trkpt lat="46.95977" lon="6.01371">
        <ele>823.4</ele>
        <time>2020-12-26T14:52:48Z</time>
      </trkpt>
      <trkpt lat="46.95975" lon="6.01369">
        <ele>823.8</ele>
        <time>2020-12-26T14:52:49Z</time>
      </trkpt>
      <trkpt lat="46.95973" lon="6.01367">
        <ele>823.8</ele>
        <time>2020-12-26T14:52:50Z</time>
      </trkpt>
      <trkpt lat="46.9597" lon="6.01365">
        <ele>824.2</ele>
        <time>2020-12-26T14:52:51Z</time>
      </trkpt>
      <trkpt lat="46.95968" lon="6.01364">
        <ele>824.4</ele>
        <time>2020-12-26T14:52:52Z</time>
      </trkpt>
      <trkpt lat="46.95966" lon="6.01363">
        <ele>824.6</ele>
        <time>2020-12-26T14:52:53Z</time>
      </trkpt>
      <trkpt lat="46.95963" lon="6.01363">
        <ele>824.6</ele>
        <time>2020-12-26T14:52:54Z</time>
      </trkpt>
      <trkpt lat="46.9596" lon="6.01362">
        <ele>825</ele>
        <time>2020-12-26T14:52:55Z</time>
      </trkpt>
      <trkpt lat="46.95958" lon="6.0136">
        <ele>825.4</ele>
        <time>2020-12-26T14:52:56Z</time>
      </trkpt>
      <trkpt lat="46.95955" lon="6.01359">
        <ele>825.6</ele>
        <time>2020-12-26T14:52:57Z</time>
      </trkpt>
      <trkpt lat="46.95953" lon="6.01357">
        <ele>825.6</ele>
        <time>2020-12-26T14:52:58Z</time>
      </trkpt>
      <trkpt lat="46.9595" lon="6.01356">
        <ele>826</ele>
        <time>2020-12-26T14:52:59Z</time>
      </trkpt>
      <trkpt lat="46.95948" lon="6.01354">
        <ele>826.2</ele>
        <time>2020-12-26T14:53:00Z</time>
      </trkpt>
      <trkpt lat="46.95945" lon="6.01353">
        <ele>826.2</ele>
        <time>2020-12-26T14:53:01Z</time>
      </trkpt>
      <trkpt lat="46.95942" lon="6.01351">
        <ele>826.4</ele>
        <time>2020-12-26T14:53:02Z</time>
      </trkpt>
      <trkpt lat="46.95939" lon="6.0135">
        <ele>826.4</ele>
        <time>2020-12-26T14:53:03Z</time>
      </trkpt>
      <trkpt lat="46.95937" lon="6.01349">
        <ele>826.8</ele>
        <time>2020-12-26T14:53:04Z</time>
      </trkpt>
      <trkpt lat="46.95934" lon="6.01348">
        <ele>826.8</ele>
        <time>2020-12-26T14:53:05Z</time>
      </trkpt>
      <trkpt lat="46.95932" lon="6.01346">
        <ele>827.2</ele>
        <time>2020-12-26T14:53:06Z</time>
      </trkpt>
      <trkpt lat="46.95929" lon="6.01345">
        <ele>827.2</ele>
        <time>2020-12-26T14:53:07Z</time>
      </trkpt>
      <trkpt lat="46.95926" lon="6.01344">
        <ele>827.4</ele>
        <time>2020-12-26T14:53:08Z</time>
      </trkpt>
      <trkpt lat="46.95923" lon="6.01343">
        <ele>827.4</ele>
        <time>2020-12-26T14:53:09Z</time>
      </trkpt>
      <trkpt lat="46.95921" lon="6.0134">
        <ele>827.8</ele>
        <time>2020-12-26T14:53:10Z</time>
      </trkpt>
      <trkpt lat="46.95918" lon="6.01339">
        <ele>827.8</ele>
        <time>2020-12-26T14:53:11Z</time>
      </trkpt>
      <trkpt lat="46.95916" lon="6.01338">
        <ele>828</ele>
        <time>2020-12-26T14:53:12Z</time>
      </trkpt>
      <trkpt lat="46.95912" lon="6.01335">
        <ele>828</ele>
        <time>2020-12-26T14:53:13Z</time>
      </trkpt>
      <trkpt lat="46.95909" lon="6.01332">
        <ele>828.4</ele>
        <time>2020-12-26T14:53:14Z</time>
      </trkpt>
      <trkpt lat="46.95907" lon="6.01331">
        <ele>828.4</ele>
        <time>2020-12-26T14:53:15Z</time>
      </trkpt>
      <trkpt lat="46.95903" lon="6.01329">
        <ele>828.6</ele>
        <time>2020-12-26T14:53:16Z</time>
      </trkpt>
      <trkpt lat="46.95901" lon="6.01325">
        <ele>828.6</ele>
        <time>2020-12-26T14:53:17Z</time>
      </trkpt>
      <trkpt lat="46.95897" lon="6.01322">
        <ele>828.8</ele>
        <time>2020-12-26T14:53:18Z</time>
      </trkpt>
      <trkpt lat="46.95895" lon="6.0132">
        <ele>828.8</ele>
        <time>2020-12-26T14:53:19Z</time>
      </trkpt>
      <trkpt lat="46.95892" lon="6.01319">
        <ele>829.2</ele>
        <time>2020-12-26T14:53:20Z</time>
      </trkpt>
      <trkpt lat="46.95889" lon="6.01317">
        <ele>829.4</ele>
        <time>2020-12-26T14:53:21Z</time>
      </trkpt>
      <trkpt lat="46.95886" lon="6.01315">
        <ele>829.4</ele>
        <time>2020-12-26T14:53:22Z</time>
      </trkpt>
      <trkpt lat="46.95883" lon="6.01312">
        <ele>829.8</ele>
        <time>2020-12-26T14:53:23Z</time>
      </trkpt>
      <trkpt lat="46.9588" lon="6.0131">
        <ele>829.8</ele>
        <time>2020-12-26T14:53:24Z</time>
      </trkpt>
      <trkpt lat="46.95878" lon="6.01307">
        <ele>830.2</ele>
        <time>2020-12-26T14:53:25Z</time>
      </trkpt>
      <trkpt lat="46.95875" lon="6.01303">
        <ele>830.2</ele>
        <time>2020-12-26T14:53:26Z</time>
      </trkpt>
      <trkpt lat="46.95873" lon="6.01301">
        <ele>830.4</ele>
        <time>2020-12-26T14:53:27Z</time>
      </trkpt>
      <trkpt lat="46.95871" lon="6.01299">
        <ele>830.4</ele>
        <time>2020-12-26T14:53:28Z</time>
      </trkpt>
      <trkpt lat="46.95868" lon="6.01298">
        <ele>830.8</ele>
        <time>2020-12-26T14:53:29Z</time>
      </trkpt>
      <trkpt lat="46.95865" lon="6.01296">
        <ele>830.8</ele>
        <time>2020-12-26T14:53:30Z</time>
      </trkpt>
      <trkpt lat="46.95862" lon="6.01294">
        <ele>831</ele>
        <time>2020-12-26T14:53:31Z</time>
      </trkpt>
      <trkpt lat="46.95859" lon="6.01292">
        <ele>831.2</ele>
        <time>2020-12-26T14:53:32Z</time>
      </trkpt>
      <trkpt lat="46.95857" lon="6.0129">
        <ele>831.2</ele>
        <time>2020-12-26T14:53:33Z</time>
      </trkpt>
      <trkpt lat="46.95854" lon="6.01289">
        <ele>831.4</ele>
        <time>2020-12-26T14:53:34Z</time>
      </trkpt>
      <trkpt lat="46.95852" lon="6.01287">
        <ele>831.4</ele>
        <time>2020-12-26T14:53:35Z</time>
      </trkpt>
      <trkpt lat="46.95849" lon="6.01286">
        <ele>831.8</ele>
        <time>2020-12-26T14:53:36Z</time>
      </trkpt>
      <trkpt lat="46.95846" lon="6.01285">
        <ele>831.8</ele>
        <time>2020-12-26T14:53:37Z</time>
      </trkpt>
      <trkpt lat="46.95844" lon="6.01284">
        <ele>832.2</ele>
        <time>2020-12-26T14:53:38Z</time>
      </trkpt>
      <trkpt lat="46.95841" lon="6.01283">
        <ele>832.2</ele>
        <time>2020-12-26T14:53:39Z</time>
      </trkpt>
      <trkpt lat="46.95839" lon="6.01281">
        <ele>832.4</ele>
        <time>2020-12-26T14:53:40Z</time>
      </trkpt>
      <trkpt lat="46.95837" lon="6.0128">
        <ele>832.4</ele>
        <time>2020-12-26T14:53:41Z</time>
      </trkpt>
      <trkpt lat="46.95834" lon="6.01279">
        <ele>832.6</ele>
        <time>2020-12-26T14:53:42Z</time>
      </trkpt>
      <trkpt lat="46.95832" lon="6.01278">
        <ele>832.6</ele>
        <time>2020-12-26T14:53:43Z</time>
      </trkpt>
      <trkpt lat="46.9583" lon="6.01277">
        <ele>832.8</ele>
        <time>2020-12-26T14:53:44Z</time>
      </trkpt>
      <trkpt lat="46.95828" lon="6.01276">
        <ele>832.8</ele>
        <time>2020-12-26T14:53:45Z</time>
      </trkpt>
      <trkpt lat="46.95825" lon="6.01275">
        <ele>832.8</ele>
        <time>2020-12-26T14:53:46Z</time>
      </trkpt>
      <trkpt lat="46.95823" lon="6.01273">
        <ele>833.2</ele>
        <time>2020-12-26T14:53:47Z</time>
      </trkpt>
      <trkpt lat="46.9582" lon="6.01271">
        <ele>833.2</ele>
        <time>2020-12-26T14:53:48Z</time>
      </trkpt>
      <trkpt lat="46.95817" lon="6.01269">
        <ele>833.4</ele>
        <time>2020-12-26T14:53:49Z</time>
      </trkpt>
      <trkpt lat="46.95815" lon="6.01268">
        <ele>833.4</ele>
        <time>2020-12-26T14:53:50Z</time>
      </trkpt>
      <trkpt lat="46.95812" lon="6.01266">
        <ele>833.6</ele>
        <time>2020-12-26T14:53:51Z</time>
      </trkpt>
      <trkpt lat="46.9581" lon="6.01265">
        <ele>833.6</ele>
        <time>2020-12-26T14:53:52Z</time>
      </trkpt>
      <trkpt lat="46.95807" lon="6.01264">
        <ele>834</ele>
        <time>2020-12-26T14:53:53Z</time>
      </trkpt>
      <trkpt lat="46.95804" lon="6.01263">
        <ele>834.2</ele>
        <time>2020-12-26T14:53:54Z</time>
      </trkpt>
      <trkpt lat="46.95802" lon="6.01262">
        <ele>834.2</ele>
        <time>2020-12-26T14:53:55Z</time>
      </trkpt>
      <trkpt lat="46.95799" lon="6.0126">
        <ele>834.6</ele>
        <time>2020-12-26T14:53:56Z</time>
      </trkpt>
      <trkpt lat="46.95796" lon="6.01259">
        <ele>834.6</ele>
        <time>2020-12-26T14:53:57Z</time>
      </trkpt>
      <trkpt lat="46.95793" lon="6.01258">
        <ele>834.8</ele>
        <time>2020-12-26T14:53:58Z</time>
      </trkpt>
      <trkpt lat="46.95791" lon="6.01257">
        <ele>835</ele>
        <time>2020-12-26T14:53:59Z</time>
      </trkpt>
      <trkpt lat="46.95788" lon="6.01255">
        <ele>835</ele>
        <time>2020-12-26T14:54:00Z</time>
      </trkpt>
      <trkpt lat="46.95785" lon="6.01254">
        <ele>835.4</ele>
        <time>2020-12-26T14:54:01Z</time>
      </trkpt>
      <trkpt lat="46.95782" lon="6.01253">
        <ele>835.4</ele>
        <time>2020-12-26T14:54:02Z</time>
      </trkpt>
      <trkpt lat="46.95778" lon="6.01251">
        <ele>835.8</ele>
        <time>2020-12-26T14:54:03Z</time>
      </trkpt>
      <trkpt lat="46.95774" lon="6.01249">
        <ele>835.8</ele>
        <time>2020-12-26T14:54:04Z</time>
      </trkpt>
      <trkpt lat="46.95771" lon="6.01248">
        <ele>836.2</ele>
        <time>2020-12-26T14:54:05Z</time>
      </trkpt>
      <trkpt lat="46.95767" lon="6.01246">
        <ele>836.2</ele>
        <time>2020-12-26T14:54:06Z</time>
      </trkpt>
      <trkpt lat="46.95764" lon="6.01245">
        <ele>836.4</ele>
        <time>2020-12-26T14:54:07Z</time>
      </trkpt>
      <trkpt lat="46.95761" lon="6.01245">
        <ele>836.4</ele>
        <time>2020-12-26T14:54:08Z</time>
      </trkpt>
      <trkpt lat="46.95759" lon="6.01244">
        <ele>836.6</ele>
        <time>2020-12-26T14:54:09Z</time>
      </trkpt>
      <trkpt lat="46.95756" lon="6.01243">
        <ele>836.6</ele>
        <time>2020-12-26T14:54:10Z</time>
      </trkpt>
      <trkpt lat="46.95753" lon="6.01241">
        <ele>837</ele>
        <time>2020-12-26T14:54:11Z</time>
      </trkpt>
      <trkpt lat="46.9575" lon="6.0124">
        <ele>837</ele>
        <time>2020-12-26T14:54:12Z</time>
      </trkpt>
      <trkpt lat="46.95747" lon="6.01238">
        <ele>837.4</ele>
        <time>2020-12-26T14:54:13Z</time>
      </trkpt>
      <trkpt lat="46.95744" lon="6.01236">
        <ele>837.4</ele>
        <time>2020-12-26T14:54:14Z</time>
      </trkpt>
      <trkpt lat="46.95742" lon="6.01235">
        <ele>837.6</ele>
        <time>2020-12-26T14:54:15Z</time>
      </trkpt>
      <trkpt lat="46.95739" lon="6.01233">
        <ele>837.6</ele>
        <time>2020-12-26T14:54:16Z</time>
      </trkpt>
      <trkpt lat="46.95737" lon="6.0123">
        <ele>837.8</ele>
        <time>2020-12-26T14:54:17Z</time>
      </trkpt>
      <trkpt lat="46.95734" lon="6.01228">
        <ele>837.8</ele>
        <time>2020-12-26T14:54:18Z</time>
      </trkpt>
      <trkpt lat="46.95732" lon="6.01225">
        <ele>838</ele>
        <time>2020-12-26T14:54:19Z</time>
      </trkpt>
      <trkpt lat="46.9573" lon="6.01222">
        <ele>838</ele>
        <time>2020-12-26T14:54:20Z</time>
      </trkpt>
      <trkpt lat="46.95728" lon="6.01219">
        <ele>838.4</ele>
        <time>2020-12-26T14:54:21Z</time>
      </trkpt>
      <trkpt lat="46.95726" lon="6.01216">
        <ele>838.6</ele>
        <time>2020-12-26T14:54:22Z</time>
      </trkpt>
      <trkpt lat="46.95724" lon="6.01212">
        <ele>838.6</ele>
        <time>2020-12-26T14:54:23Z</time>
      </trkpt>
      <trkpt lat="46.95723" lon="6.01209">
        <ele>838.6</ele>
        <time>2020-12-26T14:54:24Z</time>
      </trkpt>
      <trkpt lat="46.95721" lon="6.01205">
        <ele>838.6</ele>
        <time>2020-12-26T14:54:25Z</time>
      </trkpt>
      <trkpt lat="46.95719" lon="6.01201">
        <ele>839</ele>
        <time>2020-12-26T14:54:26Z</time>
      </trkpt>
      <trkpt lat="46.95718" lon="6.01197">
        <ele>839.2</ele>
        <time>2020-12-26T14:54:27Z</time>
      </trkpt>
      <trkpt lat="46.95716" lon="6.01194">
        <ele>839.6</ele>
        <time>2020-12-26T14:54:28Z</time>
      </trkpt>
      <trkpt lat="46.95715" lon="6.0119">
        <ele>839.8</ele>
        <time>2020-12-26T14:54:29Z</time>
      </trkpt>
      <trkpt lat="46.95713" lon="6.01187">
        <ele>840</ele>
        <time>2020-12-26T14:54:30Z</time>
      </trkpt>
      <trkpt lat="46.95712" lon="6.01183">
        <ele>840.4</ele>
        <time>2020-12-26T14:54:31Z</time>
      </trkpt>
      <trkpt lat="46.9571" lon="6.01179">
        <ele>840.6</ele>
        <time>2020-12-26T14:54:32Z</time>
      </trkpt>
      <trkpt lat="46.95708" lon="6.01176">
        <ele>841</ele>
        <time>2020-12-26T14:54:33Z</time>
      </trkpt>
      <trkpt lat="46.95706" lon="6.01173">
        <ele>841.2</ele>
        <time>2020-12-26T14:54:34Z</time>
      </trkpt>
      <trkpt lat="46.95704" lon="6.0117">
        <ele>841.2</ele>
        <time>2020-12-26T14:54:35Z</time>
      </trkpt>
      <trkpt lat="46.95702" lon="6.01167">
        <ele>841.4</ele>
        <time>2020-12-26T14:54:36Z</time>
      </trkpt>
      <trkpt lat="46.957" lon="6.01164">
        <ele>841.4</ele>
        <time>2020-12-26T14:54:37Z</time>
      </trkpt>
      <trkpt lat="46.95697" lon="6.01161">
        <ele>841.8</ele>
        <time>2020-12-26T14:54:38Z</time>
      </trkpt>
      <trkpt lat="46.95695" lon="6.01159">
        <ele>841.8</ele>
        <time>2020-12-26T14:54:39Z</time>
      </trkpt>
      <trkpt lat="46.95693" lon="6.01156">
        <ele>842</ele>
        <time>2020-12-26T14:54:40Z</time>
      </trkpt>
      <trkpt lat="46.95691" lon="6.01154">
        <ele>842</ele>
        <time>2020-12-26T14:54:41Z</time>
      </trkpt>
      <trkpt lat="46.95689" lon="6.01151">
        <ele>842</ele>
        <time>2020-12-26T14:54:42Z</time>
      </trkpt>
      <trkpt lat="46.95687" lon="6.01149">
        <ele>842.4</ele>
        <time>2020-12-26T14:54:43Z</time>
      </trkpt>
      <trkpt lat="46.95684" lon="6.01147">
        <ele>842.4</ele>
        <time>2020-12-26T14:54:44Z</time>
      </trkpt>
      <trkpt lat="46.95682" lon="6.01145">
        <ele>842.6</ele>
        <time>2020-12-26T14:54:45Z</time>
      </trkpt>
      <trkpt lat="46.9568" lon="6.01143">
        <ele>842.6</ele>
        <time>2020-12-26T14:54:46Z</time>
      </trkpt>
      <trkpt lat="46.95678" lon="6.01141">
        <ele>843</ele>
        <time>2020-12-26T14:54:47Z</time>
      </trkpt>
      <trkpt lat="46.95676" lon="6.01139">
        <ele>843</ele>
        <time>2020-12-26T14:54:48Z</time>
      </trkpt>
      <trkpt lat="46.95674" lon="6.01137">
        <ele>843.2</ele>
        <time>2020-12-26T14:54:49Z</time>
      </trkpt>
      <trkpt lat="46.95672" lon="6.01135">
        <ele>843.2</ele>
        <time>2020-12-26T14:54:50Z</time>
      </trkpt>
      <trkpt lat="46.9567" lon="6.01134">
        <ele>843.4</ele>
        <time>2020-12-26T14:54:51Z</time>
      </trkpt>
      <trkpt lat="46.95668" lon="6.01132">
        <ele>843.4</ele>
        <time>2020-12-26T14:54:52Z</time>
      </trkpt>
      <trkpt lat="46.95666" lon="6.01131">
        <ele>843.8</ele>
        <time>2020-12-26T14:54:53Z</time>
      </trkpt>
      <trkpt lat="46.95664" lon="6.0113">
        <ele>843.8</ele>
        <time>2020-12-26T14:54:54Z</time>
      </trkpt>
      <trkpt lat="46.95662" lon="6.01128">
        <ele>843.8</ele>
        <time>2020-12-26T14:54:55Z</time>
      </trkpt>
      <trkpt lat="46.9566" lon="6.01127">
        <ele>843.8</ele>
        <time>2020-12-26T14:54:56Z</time>
      </trkpt>
      <trkpt lat="46.95659" lon="6.01126">
        <ele>844</ele>
        <time>2020-12-26T14:54:57Z</time>
      </trkpt>
      <trkpt lat="46.95658" lon="6.01125">
        <ele>844</ele>
        <time>2020-12-26T14:54:58Z</time>
      </trkpt>
      <trkpt lat="46.95655" lon="6.01127">
        <ele>844.4</ele>
        <time>2020-12-26T15:01:00Z</time>
      </trkpt>
      <trkpt lat="46.95653" lon="6.01128">
        <ele>844.4</ele>
        <time>2020-12-26T15:01:01Z</time>
      </trkpt>
      <trkpt lat="46.95652" lon="6.01128">
        <ele>844.4</ele>
        <time>2020-12-26T15:01:02Z</time>
      </trkpt>
      <trkpt lat="46.9565" lon="6.01127">
        <ele>844.4</ele>
        <time>2020-12-26T15:01:03Z</time>
      </trkpt>
      <trkpt lat="46.95648" lon="6.01126">
        <ele>844.4</ele>
        <time>2020-12-26T15:01:04Z</time>
      </trkpt>
      <trkpt lat="46.95646" lon="6.01124">
        <ele>844.6</ele>
        <time>2020-12-26T15:01:05Z</time>
      </trkpt>
      <trkpt lat="46.95644" lon="6.01123">
        <ele>844.6</ele>
        <time>2020-12-26T15:01:06Z</time>
      </trkpt>
      <trkpt lat="46.95641" lon="6.01121">
        <ele>844.8</ele>
        <time>2020-12-26T15:01:07Z</time>
      </trkpt>
      <trkpt lat="46.95639" lon="6.01119">
        <ele>844.8</ele>
        <time>2020-12-26T15:01:08Z</time>
      </trkpt>
      <trkpt lat="46.95637" lon="6.01117">
        <ele>845</ele>
        <time>2020-12-26T15:01:09Z</time>
      </trkpt>
      <trkpt lat="46.95635" lon="6.01115">
        <ele>845</ele>
        <time>2020-12-26T15:01:10Z</time>
      </trkpt>
      <trkpt lat="46.95633" lon="6.01114">
        <ele>845.4</ele>
        <time>2020-12-26T15:01:11Z</time>
      </trkpt>
      <trkpt lat="46.95631" lon="6.01112">
        <ele>845.4</ele>
        <time>2020-12-26T15:01:12Z</time>
      </trkpt>
      <trkpt lat="46.95629" lon="6.01111">
        <ele>845.6</ele>
        <time>2020-12-26T15:01:13Z</time>
      </trkpt>
      <trkpt lat="46.95627" lon="6.0111">
        <ele>845.6</ele>
        <time>2020-12-26T15:01:14Z</time>
      </trkpt>
      <trkpt lat="46.95624" lon="6.01109">
        <ele>846</ele>
        <time>2020-12-26T15:01:15Z</time>
      </trkpt>
      <trkpt lat="46.95622" lon="6.01107">
        <ele>846</ele>
        <time>2020-12-26T15:01:16Z</time>
      </trkpt>
      <trkpt lat="46.95619" lon="6.01105">
        <ele>846</ele>
        <time>2020-12-26T15:01:17Z</time>
      </trkpt>
      <trkpt lat="46.95617" lon="6.01103">
        <ele>846.2</ele>
        <time>2020-12-26T15:01:18Z</time>
      </trkpt>
      <trkpt lat="46.95614" lon="6.01101">
        <ele>846.2</ele>
        <time>2020-12-26T15:01:19Z</time>
      </trkpt>
      <trkpt lat="46.95612" lon="6.01099">
        <ele>846.6</ele>
        <time>2020-12-26T15:01:20Z</time>
      </trkpt>
      <trkpt lat="46.95609" lon="6.01096">
        <ele>846.8</ele>
        <time>2020-12-26T15:01:21Z</time>
      </trkpt>
      <trkpt lat="46.95606" lon="6.01093">
        <ele>847</ele>
        <time>2020-12-26T15:01:22Z</time>
      </trkpt>
      <trkpt lat="46.95603" lon="6.0109">
        <ele>847.4</ele>
        <time>2020-12-26T15:01:23Z</time>
      </trkpt>
      <trkpt lat="46.95599" lon="6.01087">
        <ele>847.4</ele>
        <time>2020-12-26T15:01:24Z</time>
      </trkpt>
      <trkpt lat="46.95595" lon="6.01085">
        <ele>847.8</ele>
        <time>2020-12-26T15:01:25Z</time>
      </trkpt>
      <trkpt lat="46.95591" lon="6.01082">
        <ele>848</ele>
        <time>2020-12-26T15:01:26Z</time>
      </trkpt>
      <trkpt lat="46.95587" lon="6.01079">
        <ele>848.2</ele>
        <time>2020-12-26T15:01:27Z</time>
      </trkpt>
      <trkpt lat="46.95583" lon="6.01076">
        <ele>848.4</ele>
        <time>2020-12-26T15:01:28Z</time>
      </trkpt>
      <trkpt lat="46.95579" lon="6.01073">
        <ele>848.8</ele>
        <time>2020-12-26T15:01:29Z</time>
      </trkpt>
      <trkpt lat="46.95574" lon="6.01071">
        <ele>849</ele>
        <time>2020-12-26T15:01:30Z</time>
      </trkpt>
      <trkpt lat="46.95569" lon="6.01069">
        <ele>849.4</ele>
        <time>2020-12-26T15:01:31Z</time>
      </trkpt>
      <trkpt lat="46.95564" lon="6.01067">
        <ele>849.6</ele>
        <time>2020-12-26T15:01:32Z</time>
      </trkpt>
      <trkpt lat="46.95559" lon="6.01066">
        <ele>849.6</ele>
        <time>2020-12-26T15:01:33Z</time>
      </trkpt>
      <trkpt lat="46.95554" lon="6.01064">
        <ele>850.2</ele>
        <time>2020-12-26T15:01:34Z</time>
      </trkpt>
      <trkpt lat="46.9555" lon="6.01064">
        <ele>850.6</ele>
        <time>2020-12-26T15:01:35Z</time>
      </trkpt>
      <trkpt lat="46.95545" lon="6.01063">
        <ele>850.8</ele>
        <time>2020-12-26T15:01:36Z</time>
      </trkpt>
      <trkpt lat="46.95541" lon="6.01063">
        <ele>851</ele>
        <time>2020-12-26T15:01:37Z</time>
      </trkpt>
      <trkpt lat="46.95537" lon="6.01063">
        <ele>851.2</ele>
        <time>2020-12-26T15:01:38Z</time>
      </trkpt>
      <trkpt lat="46.95533" lon="6.01063">
        <ele>851.4</ele>
        <time>2020-12-26T15:01:39Z</time>
      </trkpt>
      <trkpt lat="46.9553" lon="6.01063">
        <ele>851.6</ele>
        <time>2020-12-26T15:01:40Z</time>
      </trkpt>
      <trkpt lat="46.95526" lon="6.01063">
        <ele>852</ele>
        <time>2020-12-26T15:01:41Z</time>
      </trkpt>
      <trkpt lat="46.95523" lon="6.01063">
        <ele>852.2</ele>
        <time>2020-12-26T15:01:42Z</time>
      </trkpt>
      <trkpt lat="46.9552" lon="6.01064">
        <ele>852.2</ele>
        <time>2020-12-26T15:01:43Z</time>
      </trkpt>
      <trkpt lat="46.95517" lon="6.01065">
        <ele>852.6</ele>
        <time>2020-12-26T15:01:44Z</time>
      </trkpt>
      <trkpt lat="46.95513" lon="6.01065">
        <ele>852.8</ele>
        <time>2020-12-26T15:01:45Z</time>
      </trkpt>
      <trkpt lat="46.95509" lon="6.01064">
        <ele>853</ele>
        <time>2020-12-26T15:01:46Z</time>
      </trkpt>
      <trkpt lat="46.95505" lon="6.01062">
        <ele>853.4</ele>
        <time>2020-12-26T15:01:47Z</time>
      </trkpt>
      <trkpt lat="46.95502" lon="6.01058">
        <ele>853.6</ele>
        <time>2020-12-26T15:01:48Z</time>
      </trkpt>
      <trkpt lat="46.95499" lon="6.01054">
        <ele>853.8</ele>
        <time>2020-12-26T15:01:49Z</time>
      </trkpt>
      <trkpt lat="46.95497" lon="6.01049">
        <ele>854.2</ele>
        <time>2020-12-26T15:01:50Z</time>
      </trkpt>
      <trkpt lat="46.95496" lon="6.01044">
        <ele>854.6</ele>
        <time>2020-12-26T15:01:51Z</time>
      </trkpt>
      <trkpt lat="46.95495" lon="6.01038">
        <ele>854.8</ele>
        <time>2020-12-26T15:01:52Z</time>
      </trkpt>
      <trkpt lat="46.95495" lon="6.01033">
        <ele>855</ele>
        <time>2020-12-26T15:01:53Z</time>
      </trkpt>
      <trkpt lat="46.95496" lon="6.01028">
        <ele>855</ele>
        <time>2020-12-26T15:01:54Z</time>
      </trkpt>
      <trkpt lat="46.95496" lon="6.01022">
        <ele>855.4</ele>
        <time>2020-12-26T15:01:55Z</time>
      </trkpt>
      <trkpt lat="46.95496" lon="6.01017">
        <ele>855.4</ele>
        <time>2020-12-26T15:01:56Z</time>
      </trkpt>
      <trkpt lat="46.95496" lon="6.01012">
        <ele>855.8</ele>
        <time>2020-12-26T15:01:57Z</time>
      </trkpt>
      <trkpt lat="46.95497" lon="6.01007">
        <ele>856</ele>
        <time>2020-12-26T15:01:58Z</time>
      </trkpt>
      <trkpt lat="46.95498" lon="6.01002">
        <ele>856</ele>
        <time>2020-12-26T15:01:59Z</time>
      </trkpt>
      <trkpt lat="46.95499" lon="6.00997">
        <ele>856.4</ele>
        <time>2020-12-26T15:02:00Z</time>
      </trkpt>
      <trkpt lat="46.955" lon="6.00993">
        <ele>856.6</ele>
        <time>2020-12-26T15:02:01Z</time>
      </trkpt>
      <trkpt lat="46.95501" lon="6.00989">
        <ele>856.6</ele>
        <time>2020-12-26T15:02:02Z</time>
      </trkpt>
      <trkpt lat="46.95503" lon="6.00984">
        <ele>857</ele>
        <time>2020-12-26T15:02:03Z</time>
      </trkpt>
      <trkpt lat="46.95504" lon="6.0098">
        <ele>857</ele>
        <time>2020-12-26T15:02:04Z</time>
      </trkpt>
      <trkpt lat="46.95505" lon="6.00975">
        <ele>857</ele>
        <time>2020-12-26T15:02:05Z</time>
      </trkpt>
      <trkpt lat="46.95507" lon="6.0097">
        <ele>857</ele>
        <time>2020-12-26T15:02:06Z</time>
      </trkpt>
      <trkpt lat="46.95509" lon="6.00965">
        <ele>857</ele>
        <time>2020-12-26T15:02:07Z</time>
      </trkpt>
      <trkpt lat="46.9551" lon="6.0096">
        <ele>857</ele>
        <time>2020-12-26T15:02:08Z</time>
      </trkpt>
      <trkpt lat="46.95512" lon="6.00955">
        <ele>857</ele>
        <time>2020-12-26T15:02:09Z</time>
      </trkpt>
      <trkpt lat="46.95514" lon="6.00949">
        <ele>857</ele>
        <time>2020-12-26T15:02:10Z</time>
      </trkpt>
      <trkpt lat="46.95516" lon="6.00944">
        <ele>856.6</ele>
        <time>2020-12-26T15:02:11Z</time>
      </trkpt>
      <trkpt lat="46.95519" lon="6.00937">
        <ele>856.6</ele>
        <time>2020-12-26T15:02:12Z</time>
      </trkpt>
      <trkpt lat="46.95521" lon="6.0093">
        <ele>856.2</ele>
        <time>2020-12-26T15:02:13Z</time>
      </trkpt>
      <trkpt lat="46.95523" lon="6.00922">
        <ele>856</ele>
        <time>2020-12-26T15:02:14Z</time>
      </trkpt>
      <trkpt lat="46.95524" lon="6.00914">
        <ele>855.8</ele>
        <time>2020-12-26T15:02:15Z</time>
      </trkpt>
      <trkpt lat="46.95525" lon="6.00905">
        <ele>855.4</ele>
        <time>2020-12-26T15:02:16Z</time>
      </trkpt>
      <trkpt lat="46.95525" lon="6.00896">
        <ele>855.2</ele>
        <time>2020-12-26T15:02:17Z</time>
      </trkpt>
      <trkpt lat="46.95524" lon="6.00886">
        <ele>854.8</ele>
        <time>2020-12-26T15:02:18Z</time>
      </trkpt>
      <trkpt lat="46.95523" lon="6.00877">
        <ele>854.2</ele>
        <time>2020-12-26T15:02:19Z</time>
      </trkpt>
      <trkpt lat="46.95522" lon="6.00867">
        <ele>853.8</ele>
        <time>2020-12-26T15:02:20Z</time>
      </trkpt>
      <trkpt lat="46.9552" lon="6.00857">
        <ele>853.2</ele>
        <time>2020-12-26T15:02:21Z</time>
      </trkpt>
      <trkpt lat="46.95518" lon="6.00846">
        <ele>852.8</ele>
        <time>2020-12-26T15:02:22Z</time>
      </trkpt>
      <trkpt lat="46.95516" lon="6.00836">
        <ele>852.4</ele>
        <time>2020-12-26T15:02:23Z</time>
      </trkpt>
      <trkpt lat="46.95513" lon="6.00825">
        <ele>852</ele>
        <time>2020-12-26T15:02:24Z</time>
      </trkpt>
      <trkpt lat="46.95509" lon="6.00815">
        <ele>851.6</ele>
        <time>2020-12-26T15:02:25Z</time>
      </trkpt>
      <trkpt lat="46.95504" lon="6.00805">
        <ele>851</ele>
        <time>2020-12-26T15:02:26Z</time>
      </trkpt>
      <trkpt lat="46.95497" lon="6.00796">
        <ele>850.4</ele>
        <time>2020-12-26T15:02:27Z</time>
      </trkpt>
      <trkpt lat="46.95491" lon="6.00789">
        <ele>850</ele>
        <time>2020-12-26T15:02:28Z</time>
      </trkpt>
      <trkpt lat="46.95484" lon="6.00781">
        <ele>849.8</ele>
        <time>2020-12-26T15:02:29Z</time>
      </trkpt>
      <trkpt lat="46.95477" lon="6.00773">
        <ele>849.6</ele>
        <time>2020-12-26T15:02:30Z</time>
      </trkpt>
      <trkpt lat="46.95471" lon="6.00767">
        <ele>849.4</ele>
        <time>2020-12-26T15:02:31Z</time>
      </trkpt>
      <trkpt lat="46.95464" lon="6.0076">
        <ele>849.4</ele>
        <time>2020-12-26T15:02:32Z</time>
      </trkpt>
      <trkpt lat="46.95458" lon="6.00753">
        <ele>849</ele>
        <time>2020-12-26T15:02:33Z</time>
      </trkpt>
      <trkpt lat="46.95452" lon="6.00746">
        <ele>849</ele>
        <time>2020-12-26T15:02:34Z</time>
      </trkpt>
      <trkpt lat="46.95446" lon="6.00739">
        <ele>848.8</ele>
        <time>2020-12-26T15:02:35Z</time>
      </trkpt>
      <trkpt lat="46.9544" lon="6.00733">
        <ele>848.8</ele>
        <time>2020-12-26T15:02:36Z</time>
      </trkpt>
      <trkpt lat="46.95434" lon="6.00727">
        <ele>848.8</ele>
        <time>2020-12-26T15:02:37Z</time>
      </trkpt>
      <trkpt lat="46.95428" lon="6.00721">
        <ele>848.4</ele>
        <time>2020-12-26T15:02:38Z</time>
      </trkpt>
      <trkpt lat="46.95422" lon="6.00714">
        <ele>848.4</ele>
        <time>2020-12-26T15:02:39Z</time>
      </trkpt>
      <trkpt lat="46.95416" lon="6.00707">
        <ele>848</ele>
        <time>2020-12-26T15:02:40Z</time>
      </trkpt>
      <trkpt lat="46.9541" lon="6.007">
        <ele>847.6</ele>
        <time>2020-12-26T15:02:41Z</time>
      </trkpt>
      <trkpt lat="46.95403" lon="6.00692">
        <ele>847</ele>
        <time>2020-12-26T15:02:42Z</time>
      </trkpt>
      <trkpt lat="46.95396" lon="6.00684">
        <ele>846.6</ele>
        <time>2020-12-26T15:02:43Z</time>
      </trkpt>
      <trkpt lat="46.95389" lon="6.00676">
        <ele>845.8</ele>
        <time>2020-12-26T15:02:44Z</time>
      </trkpt>
      <trkpt lat="46.95381" lon="6.00667">
        <ele>845.4</ele>
        <time>2020-12-26T15:02:45Z</time>
      </trkpt>
      <trkpt lat="46.95372" lon="6.00658">
        <ele>845</ele>
        <time>2020-12-26T15:02:46Z</time>
      </trkpt>
      <trkpt lat="46.95365" lon="6.0065">
        <ele>844.6</ele>
        <time>2020-12-26T15:02:47Z</time>
      </trkpt>
      <trkpt lat="46.95357" lon="6.00642">
        <ele>844</ele>
        <time>2020-12-26T15:02:48Z</time>
      </trkpt>
      <trkpt lat="46.9535" lon="6.00634">
        <ele>843.6</ele>
        <time>2020-12-26T15:02:49Z</time>
      </trkpt>
      <trkpt lat="46.95342" lon="6.00626">
        <ele>843</ele>
        <time>2020-12-26T15:02:50Z</time>
      </trkpt>
      <trkpt lat="46.95335" lon="6.00617">
        <ele>842.6</ele>
        <time>2020-12-26T15:02:51Z</time>
      </trkpt>
      <trkpt lat="46.95328" lon="6.00608">
        <ele>842</ele>
        <time>2020-12-26T15:02:52Z</time>
      </trkpt>
      <trkpt lat="46.9532" lon="6.00598">
        <ele>841.6</ele>
        <time>2020-12-26T15:02:53Z</time>
      </trkpt>
      <trkpt lat="46.95312" lon="6.00589">
        <ele>841</ele>
        <time>2020-12-26T15:02:54Z</time>
      </trkpt>
      <trkpt lat="46.95304" lon="6.00579">
        <ele>840.4</ele>
        <time>2020-12-26T15:02:55Z</time>
      </trkpt>
      <trkpt lat="46.95296" lon="6.0057">
        <ele>840</ele>
        <time>2020-12-26T15:02:56Z</time>
      </trkpt>
      <trkpt lat="46.95288" lon="6.00561">
        <ele>839.4</ele>
        <time>2020-12-26T15:02:57Z</time>
      </trkpt>
      <trkpt lat="46.95278" lon="6.00553">
        <ele>838.8</ele>
        <time>2020-12-26T15:02:58Z</time>
      </trkpt>
      <trkpt lat="46.9527" lon="6.00543">
        <ele>838.2</ele>
        <time>2020-12-26T15:02:59Z</time>
      </trkpt>
      <trkpt lat="46.95262" lon="6.00534">
        <ele>837.6</ele>
        <time>2020-12-26T15:03:00Z</time>
      </trkpt>
      <trkpt lat="46.95254" lon="6.00526">
        <ele>837.2</ele>
        <time>2020-12-26T15:03:01Z</time>
      </trkpt>
      <trkpt lat="46.95246" lon="6.0052">
        <ele>837</ele>
        <time>2020-12-26T15:03:02Z</time>
      </trkpt>
      <trkpt lat="46.95238" lon="6.00512">
        <ele>837</ele>
        <time>2020-12-26T15:03:03Z</time>
      </trkpt>
      <trkpt lat="46.9523" lon="6.00505">
        <ele>836.8</ele>
        <time>2020-12-26T15:03:04Z</time>
      </trkpt>
      <trkpt lat="46.95223" lon="6.00497">
        <ele>836.8</ele>
        <time>2020-12-26T15:03:05Z</time>
      </trkpt>
      <trkpt lat="46.95215" lon="6.0049">
        <ele>836.8</ele>
        <time>2020-12-26T15:03:06Z</time>
      </trkpt>
      <trkpt lat="46.95208" lon="6.00483">
        <ele>836.8</ele>
        <time>2020-12-26T15:03:07Z</time>
      </trkpt>
      <trkpt lat="46.95201" lon="6.00477">
        <ele>836.4</ele>
        <time>2020-12-26T15:03:08Z</time>
      </trkpt>
      <trkpt lat="46.95193" lon="6.0047">
        <ele>836.4</ele>
        <time>2020-12-26T15:03:09Z</time>
      </trkpt>
      <trkpt lat="46.95186" lon="6.00463">
        <ele>836.4</ele>
        <time>2020-12-26T15:03:10Z</time>
      </trkpt>
      <trkpt lat="46.95179" lon="6.00455">
        <ele>836.4</ele>
        <time>2020-12-26T15:03:11Z</time>
      </trkpt>
      <trkpt lat="46.95171" lon="6.00449">
        <ele>836.4</ele>
        <time>2020-12-26T15:03:12Z</time>
      </trkpt>
      <trkpt lat="46.95164" lon="6.00442">
        <ele>836.4</ele>
        <time>2020-12-26T15:03:13Z</time>
      </trkpt>
      <trkpt lat="46.95156" lon="6.00436">
        <ele>836.4</ele>
        <time>2020-12-26T15:03:14Z</time>
      </trkpt>
      <trkpt lat="46.95149" lon="6.00429">
        <ele>836.4</ele>
        <time>2020-12-26T15:03:15Z</time>
      </trkpt>
      <trkpt lat="46.95141" lon="6.00423">
        <ele>836.4</ele>
        <time>2020-12-26T15:03:16Z</time>
      </trkpt>
      <trkpt lat="46.95134" lon="6.00417">
        <ele>836.4</ele>
        <time>2020-12-26T15:03:17Z</time>
      </trkpt>
      <trkpt lat="46.95127" lon="6.00412">
        <ele>836.4</ele>
        <time>2020-12-26T15:03:18Z</time>
      </trkpt>
      <trkpt lat="46.9512" lon="6.00406">
        <ele>836.8</ele>
        <time>2020-12-26T15:03:19Z</time>
      </trkpt>
      <trkpt lat="46.95113" lon="6.00401">
        <ele>837.2</ele>
        <time>2020-12-26T15:03:20Z</time>
      </trkpt>
      <trkpt lat="46.95107" lon="6.00396">
        <ele>837.6</ele>
        <time>2020-12-26T15:03:21Z</time>
      </trkpt>
      <trkpt lat="46.951" lon="6.00391">
        <ele>837.8</ele>
        <time>2020-12-26T15:03:22Z</time>
      </trkpt>
      <trkpt lat="46.95094" lon="6.00385">
        <ele>838</ele>
        <time>2020-12-26T15:03:23Z</time>
      </trkpt>
      <trkpt lat="46.95087" lon="6.0038">
        <ele>838</ele>
        <time>2020-12-26T15:03:24Z</time>
      </trkpt>
      <trkpt lat="46.95081" lon="6.00374">
        <ele>838.2</ele>
        <time>2020-12-26T15:03:25Z</time>
      </trkpt>
      <trkpt lat="46.95074" lon="6.00368">
        <ele>838.2</ele>
        <time>2020-12-26T15:03:26Z</time>
      </trkpt>
      <trkpt lat="46.95067" lon="6.00361">
        <ele>838.2</ele>
        <time>2020-12-26T15:03:27Z</time>
      </trkpt>
      <trkpt lat="46.9506" lon="6.00355">
        <ele>838</ele>
        <time>2020-12-26T15:03:28Z</time>
      </trkpt>
      <trkpt lat="46.95052" lon="6.00348">
        <ele>837.6</ele>
        <time>2020-12-26T15:03:29Z</time>
      </trkpt>
      <trkpt lat="46.95045" lon="6.00341">
        <ele>837.2</ele>
        <time>2020-12-26T15:03:30Z</time>
      </trkpt>
      <trkpt lat="46.95037" lon="6.00333">
        <ele>837</ele>
        <time>2020-12-26T15:03:31Z</time>
      </trkpt>
      <trkpt lat="46.9503" lon="6.00323">
        <ele>836.6</ele>
        <time>2020-12-26T15:03:32Z</time>
      </trkpt>
      <trkpt lat="46.95024" lon="6.00311">
        <ele>836.2</ele>
        <time>2020-12-26T15:03:33Z</time>
      </trkpt>
      <trkpt lat="46.95019" lon="6.00299">
        <ele>835.8</ele>
        <time>2020-12-26T15:03:34Z</time>
      </trkpt>
      <trkpt lat="46.95016" lon="6.00286">
        <ele>835.2</ele>
        <time>2020-12-26T15:03:35Z</time>
      </trkpt>
      <trkpt lat="46.95013" lon="6.00272">
        <ele>834.6</ele>
        <time>2020-12-26T15:03:36Z</time>
      </trkpt>
      <trkpt lat="46.95011" lon="6.00257">
        <ele>834</ele>
        <time>2020-12-26T15:03:37Z</time>
      </trkpt>
      <trkpt lat="46.95007" lon="6.00242">
        <ele>833.2</ele>
        <time>2020-12-26T15:03:38Z</time>
      </trkpt>
      <trkpt lat="46.95003" lon="6.00227">
        <ele>832.4</ele>
        <time>2020-12-26T15:03:39Z</time>
      </trkpt>
      <trkpt lat="46.95" lon="6.00212">
        <ele>831.6</ele>
        <time>2020-12-26T15:03:40Z</time>
      </trkpt>
      <trkpt lat="46.94995" lon="6.00196">
        <ele>830.8</ele>
        <time>2020-12-26T15:03:41Z</time>
      </trkpt>
      <trkpt lat="46.94991" lon="6.00181">
        <ele>830</ele>
        <time>2020-12-26T15:03:42Z</time>
      </trkpt>
      <trkpt lat="46.94987" lon="6.00166">
        <ele>829</ele>
        <time>2020-12-26T15:03:43Z</time>
      </trkpt>
      <trkpt lat="46.94984" lon="6.00151">
        <ele>828</ele>
        <time>2020-12-26T15:03:44Z</time>
      </trkpt>
      <trkpt lat="46.9498" lon="6.00135">
        <ele>827</ele>
        <time>2020-12-26T15:03:45Z</time>
      </trkpt>
      <trkpt lat="46.94976" lon="6.00119">
        <ele>826</ele>
        <time>2020-12-26T15:03:46Z</time>
      </trkpt>
      <trkpt lat="46.94973" lon="6.00103">
        <ele>825.2</ele>
        <time>2020-12-26T15:03:47Z</time>
      </trkpt>
      <trkpt lat="46.94971" lon="6.00088">
        <ele>824.2</ele>
        <time>2020-12-26T15:03:48Z</time>
      </trkpt>
      <trkpt lat="46.94972" lon="6.00072">
        <ele>823.4</ele>
        <time>2020-12-26T15:03:49Z</time>
      </trkpt>
      <trkpt lat="46.94973" lon="6.00057">
        <ele>822.4</ele>
        <time>2020-12-26T15:03:50Z</time>
      </trkpt>
      <trkpt lat="46.94978" lon="6.00041">
        <ele>821.6</ele>
        <time>2020-12-26T15:03:51Z</time>
      </trkpt>
      <trkpt lat="46.94983" lon="6.00028">
        <ele>820.6</ele>
        <time>2020-12-26T15:03:52Z</time>
      </trkpt>
      <trkpt lat="46.94988" lon="6.00015">
        <ele>819.8</ele>
        <time>2020-12-26T15:03:53Z</time>
      </trkpt>
      <trkpt lat="46.94992" lon="6">
        <ele>819</ele>
        <time>2020-12-26T15:03:54Z</time>
      </trkpt>
      <trkpt lat="46.94996" lon="5.99986">
        <ele>818</ele>
        <time>2020-12-26T15:03:55Z</time>
      </trkpt>
      <trkpt lat="46.94997" lon="5.99971">
        <ele>817.2</ele>
        <time>2020-12-26T15:03:56Z</time>
      </trkpt>
      <trkpt lat="46.94998" lon="5.99957">
        <ele>816.2</ele>
        <time>2020-12-26T15:03:57Z</time>
      </trkpt>
      <trkpt lat="46.94997" lon="5.99941">
        <ele>815.4</ele>
        <time>2020-12-26T15:03:58Z</time>
      </trkpt>
      <trkpt lat="46.94996" lon="5.99927">
        <ele>814.6</ele>
        <time>2020-12-26T15:03:59Z</time>
      </trkpt>
      <trkpt lat="46.94994" lon="5.99913">
        <ele>813.8</ele>
        <time>2020-12-26T15:04:00Z</time>
      </trkpt>
      <trkpt lat="46.94991" lon="5.999">
        <ele>813</ele>
        <time>2020-12-26T15:04:01Z</time>
      </trkpt>
      <trkpt lat="46.94987" lon="5.99889">
        <ele>812.4</ele>
        <time>2020-12-26T15:04:02Z</time>
      </trkpt>
      <trkpt lat="46.94983" lon="5.99879">
        <ele>811.8</ele>
        <time>2020-12-26T15:04:03Z</time>
      </trkpt>
      <trkpt lat="46.9498" lon="5.99871">
        <ele>811.2</ele>
        <time>2020-12-26T15:04:04Z</time>
      </trkpt>
      <trkpt lat="46.94976" lon="5.99863">
        <ele>810.8</ele>
        <time>2020-12-26T15:04:05Z</time>
      </trkpt>
      <trkpt lat="46.94972" lon="5.99856">
        <ele>810.2</ele>
        <time>2020-12-26T15:04:06Z</time>
      </trkpt>
      <trkpt lat="46.94967" lon="5.99849">
        <ele>809.8</ele>
        <time>2020-12-26T15:04:07Z</time>
      </trkpt>
      <trkpt lat="46.94963" lon="5.99841">
        <ele>809.6</ele>
        <time>2020-12-26T15:04:08Z</time>
      </trkpt>
      <trkpt lat="46.9496" lon="5.99834">
        <ele>809.6</ele>
        <time>2020-12-26T15:04:09Z</time>
      </trkpt>
      <trkpt lat="46.94957" lon="5.99826">
        <ele>809.4</ele>
        <time>2020-12-26T15:04:10Z</time>
      </trkpt>
      <trkpt lat="46.94954" lon="5.99818">
        <ele>809.4</ele>
        <time>2020-12-26T15:04:11Z</time>
      </trkpt>
      <trkpt lat="46.9495" lon="5.9981">
        <ele>809.4</ele>
        <time>2020-12-26T15:04:12Z</time>
      </trkpt>
      <trkpt lat="46.94947" lon="5.99801">
        <ele>809.2</ele>
        <time>2020-12-26T15:04:13Z</time>
      </trkpt>
      <trkpt lat="46.94944" lon="5.99793">
        <ele>809.2</ele>
        <time>2020-12-26T15:04:14Z</time>
      </trkpt>
      <trkpt lat="46.9494" lon="5.99786">
        <ele>809.2</ele>
        <time>2020-12-26T15:04:15Z</time>
      </trkpt>
      <trkpt lat="46.94936" lon="5.99779">
        <ele>809.2</ele>
        <time>2020-12-26T15:04:16Z</time>
      </trkpt>
      <trkpt lat="46.94933" lon="5.99771">
        <ele>809.2</ele>
        <time>2020-12-26T15:04:17Z</time>
      </trkpt>
      <trkpt lat="46.9493" lon="5.99763">
        <ele>809.6</ele>
        <time>2020-12-26T15:04:18Z</time>
      </trkpt>
      <trkpt lat="46.94927" lon="5.99755">
        <ele>809.6</ele>
        <time>2020-12-26T15:04:19Z</time>
      </trkpt>
      <trkpt lat="46.94924" lon="5.99747">
        <ele>809.8</ele>
        <time>2020-12-26T15:04:20Z</time>
      </trkpt>
      <trkpt lat="46.94921" lon="5.99739">
        <ele>809.8</ele>
        <time>2020-12-26T15:04:21Z</time>
      </trkpt>
      <trkpt lat="46.94918" lon="5.9973">
        <ele>810.2</ele>
        <time>2020-12-26T15:04:22Z</time>
      </trkpt>
      <trkpt lat="46.94915" lon="5.99722">
        <ele>810.2</ele>
        <time>2020-12-26T15:04:23Z</time>
      </trkpt>
      <trkpt lat="46.94911" lon="5.99714">
        <ele>810.6</ele>
        <time>2020-12-26T15:04:24Z</time>
      </trkpt>
      <trkpt lat="46.94907" lon="5.99705">
        <ele>810.8</ele>
        <time>2020-12-26T15:04:25Z</time>
      </trkpt>
      <trkpt lat="46.94904" lon="5.99697">
        <ele>811</ele>
        <time>2020-12-26T15:04:26Z</time>
      </trkpt>
      <trkpt lat="46.949" lon="5.99689">
        <ele>811.4</ele>
        <time>2020-12-26T15:04:27Z</time>
      </trkpt>
      <trkpt lat="46.94896" lon="5.99681">
        <ele>811.6</ele>
        <time>2020-12-26T15:04:28Z</time>
      </trkpt>
      <trkpt lat="46.94892" lon="5.99673">
        <ele>811.6</ele>
        <time>2020-12-26T15:04:29Z</time>
      </trkpt>
      <trkpt lat="46.94888" lon="5.99665">
        <ele>812</ele>
        <time>2020-12-26T15:04:30Z</time>
      </trkpt>
      <trkpt lat="46.94884" lon="5.99656">
        <ele>812.4</ele>
        <time>2020-12-26T15:04:31Z</time>
      </trkpt>
      <trkpt lat="46.9488" lon="5.99649">
        <ele>812.6</ele>
        <time>2020-12-26T15:04:32Z</time>
      </trkpt>
      <trkpt lat="46.94876" lon="5.99641">
        <ele>812.6</ele>
        <time>2020-12-26T15:04:33Z</time>
      </trkpt>
      <trkpt lat="46.94872" lon="5.99634">
        <ele>813</ele>
        <time>2020-12-26T15:04:34Z</time>
      </trkpt>
      <trkpt lat="46.94868" lon="5.99627">
        <ele>813.2</ele>
        <time>2020-12-26T15:04:35Z</time>
      </trkpt>
      <trkpt lat="46.94865" lon="5.99621">
        <ele>813.2</ele>
        <time>2020-12-26T15:04:36Z</time>
      </trkpt>
      <trkpt lat="46.94861" lon="5.99614">
        <ele>813.6</ele>
        <time>2020-12-26T15:04:37Z</time>
      </trkpt>
      <trkpt lat="46.94858" lon="5.99608">
        <ele>813.8</ele>
        <time>2020-12-26T15:04:38Z</time>
      </trkpt>
      <trkpt lat="46.94854" lon="5.99601">
        <ele>813.8</ele>
        <time>2020-12-26T15:04:39Z</time>
      </trkpt>
      <trkpt lat="46.94851" lon="5.99595">
        <ele>814</ele>
        <time>2020-12-26T15:04:40Z</time>
      </trkpt>
      <trkpt lat="46.94848" lon="5.99589">
        <ele>814</ele>
        <time>2020-12-26T15:04:41Z</time>
      </trkpt>
      <trkpt lat="46.94845" lon="5.99583">
        <ele>814.2</ele>
        <time>2020-12-26T15:04:42Z</time>
      </trkpt>
      <trkpt lat="46.94842" lon="5.99578">
        <ele>814.4</ele>
        <time>2020-12-26T15:04:43Z</time>
      </trkpt>
      <trkpt lat="46.9484" lon="5.99573">
        <ele>814.8</ele>
        <time>2020-12-26T15:04:44Z</time>
      </trkpt>
      <trkpt lat="46.94837" lon="5.99567">
        <ele>815</ele>
        <time>2020-12-26T15:04:45Z</time>
      </trkpt>
      <trkpt lat="46.94834" lon="5.99561">
        <ele>815.2</ele>
        <time>2020-12-26T15:04:46Z</time>
      </trkpt>
      <trkpt lat="46.94831" lon="5.99556">
        <ele>815.2</ele>
        <time>2020-12-26T15:04:47Z</time>
      </trkpt>
      <trkpt lat="46.94829" lon="5.99551">
        <ele>815.4</ele>
        <time>2020-12-26T15:04:48Z</time>
      </trkpt>
      <trkpt lat="46.94826" lon="5.99546">
        <ele>815.4</ele>
        <time>2020-12-26T15:04:49Z</time>
      </trkpt>
      <trkpt lat="46.94824" lon="5.9954">
        <ele>815.8</ele>
        <time>2020-12-26T15:04:50Z</time>
      </trkpt>
      <trkpt lat="46.94822" lon="5.99534">
        <ele>815.8</ele>
        <time>2020-12-26T15:04:51Z</time>
      </trkpt>
      <trkpt lat="46.9482" lon="5.99528">
        <ele>816</ele>
        <time>2020-12-26T15:04:52Z</time>
      </trkpt>
      <trkpt lat="46.94817" lon="5.99523">
        <ele>816.4</ele>
        <time>2020-12-26T15:04:53Z</time>
      </trkpt>
      <trkpt lat="46.94814" lon="5.99517">
        <ele>816.4</ele>
        <time>2020-12-26T15:04:54Z</time>
      </trkpt>
      <trkpt lat="46.94812" lon="5.99512">
        <ele>816.6</ele>
        <time>2020-12-26T15:04:55Z</time>
      </trkpt>
      <trkpt lat="46.94809" lon="5.99507">
        <ele>816.6</ele>
        <time>2020-12-26T15:04:56Z</time>
      </trkpt>
      <trkpt lat="46.94806" lon="5.99502">
        <ele>817</ele>
        <time>2020-12-26T15:04:57Z</time>
      </trkpt>
      <trkpt lat="46.94803" lon="5.99497">
        <ele>817</ele>
        <time>2020-12-26T15:04:58Z</time>
      </trkpt>
      <trkpt lat="46.94801" lon="5.99492">
        <ele>817.4</ele>
        <time>2020-12-26T15:04:59Z</time>
      </trkpt>
      <trkpt lat="46.94798" lon="5.99487">
        <ele>817.4</ele>
        <time>2020-12-26T15:05:00Z</time>
      </trkpt>
      <trkpt lat="46.94796" lon="5.99482">
        <ele>817.6</ele>
        <time>2020-12-26T15:05:01Z</time>
      </trkpt>
      <trkpt lat="46.94794" lon="5.99477">
        <ele>817.6</ele>
        <time>2020-12-26T15:05:02Z</time>
      </trkpt>
      <trkpt lat="46.9479" lon="5.99472">
        <ele>818</ele>
        <time>2020-12-26T15:05:03Z</time>
      </trkpt>
      <trkpt lat="46.94788" lon="5.99468">
        <ele>818</ele>
        <time>2020-12-26T15:05:04Z</time>
      </trkpt>
      <trkpt lat="46.94785" lon="5.99462">
        <ele>818.2</ele>
        <time>2020-12-26T15:05:05Z</time>
      </trkpt>
      <trkpt lat="46.94783" lon="5.99458">
        <ele>818.2</ele>
        <time>2020-12-26T15:05:06Z</time>
      </trkpt>
      <trkpt lat="46.94781" lon="5.99453">
        <ele>818.6</ele>
        <time>2020-12-26T15:05:07Z</time>
      </trkpt>
      <trkpt lat="46.94778" lon="5.99448">
        <ele>818.6</ele>
        <time>2020-12-26T15:05:08Z</time>
      </trkpt>
      <trkpt lat="46.94776" lon="5.99443">
        <ele>818.6</ele>
        <time>2020-12-26T15:05:09Z</time>
      </trkpt>
      <trkpt lat="46.94774" lon="5.99438">
        <ele>818.8</ele>
        <time>2020-12-26T15:05:10Z</time>
      </trkpt>
      <trkpt lat="46.94772" lon="5.99432">
        <ele>818.8</ele>
        <time>2020-12-26T15:05:11Z</time>
      </trkpt>
      <trkpt lat="46.94769" lon="5.99428">
        <ele>819</ele>
        <time>2020-12-26T15:05:12Z</time>
      </trkpt>
      <trkpt lat="46.94767" lon="5.99423">
        <ele>819</ele>
        <time>2020-12-26T15:05:13Z</time>
      </trkpt>
      <trkpt lat="46.94764" lon="5.99418">
        <ele>819.4</ele>
        <time>2020-12-26T15:05:14Z</time>
      </trkpt>
      <trkpt lat="46.94762" lon="5.99413">
        <ele>819.6</ele>
        <time>2020-12-26T15:05:15Z</time>
      </trkpt>
      <trkpt lat="46.9476" lon="5.99408">
        <ele>819.6</ele>
        <time>2020-12-26T15:05:16Z</time>
      </trkpt>
      <trkpt lat="46.94758" lon="5.99403">
        <ele>819.8</ele>
        <time>2020-12-26T15:05:17Z</time>
      </trkpt>
      <trkpt lat="46.94755" lon="5.99398">
        <ele>819.8</ele>
        <time>2020-12-26T15:05:18Z</time>
      </trkpt>
      <trkpt lat="46.94753" lon="5.99393">
        <ele>820.2</ele>
        <time>2020-12-26T15:05:19Z</time>
      </trkpt>
      <trkpt lat="46.9475" lon="5.99388">
        <ele>820.2</ele>
        <time>2020-12-26T15:05:20Z</time>
      </trkpt>
      <trkpt lat="46.94748" lon="5.99384">
        <ele>820.4</ele>
        <time>2020-12-26T15:05:21Z</time>
      </trkpt>
      <trkpt lat="46.94745" lon="5.9938">
        <ele>820.4</ele>
        <time>2020-12-26T15:05:22Z</time>
      </trkpt>
      <trkpt lat="46.94743" lon="5.99375">
        <ele>820.8</ele>
        <time>2020-12-26T15:05:23Z</time>
      </trkpt>
      <trkpt lat="46.9474" lon="5.99371">
        <ele>820.8</ele>
        <time>2020-12-26T15:05:24Z</time>
      </trkpt>
      <trkpt lat="46.94738" lon="5.99366">
        <ele>821.2</ele>
        <time>2020-12-26T15:05:25Z</time>
      </trkpt>
      <trkpt lat="46.94735" lon="5.99362">
        <ele>821.2</ele>
        <time>2020-12-26T15:05:26Z</time>
      </trkpt>
      <trkpt lat="46.94732" lon="5.99358">
        <ele>821.6</ele>
        <time>2020-12-26T15:05:27Z</time>
      </trkpt>
      <trkpt lat="46.94729" lon="5.99354">
        <ele>821.6</ele>
        <time>2020-12-26T15:05:28Z</time>
      </trkpt>
      <trkpt lat="46.94726" lon="5.9935">
        <ele>821.8</ele>
        <time>2020-12-26T15:05:29Z</time>
      </trkpt>
      <trkpt lat="46.94724" lon="5.99346">
        <ele>821.8</ele>
        <time>2020-12-26T15:05:30Z</time>
      </trkpt>
      <trkpt lat="46.94721" lon="5.99342">
        <ele>822</ele>
        <time>2020-12-26T15:05:31Z</time>
      </trkpt>
      <trkpt lat="46.94718" lon="5.99338">
        <ele>822</ele>
        <time>2020-12-26T15:05:32Z</time>
      </trkpt>
      <trkpt lat="46.94715" lon="5.99334">
        <ele>822.4</ele>
        <time>2020-12-26T15:05:33Z</time>
      </trkpt>
      <trkpt lat="46.94712" lon="5.99329">
        <ele>822.4</ele>
        <time>2020-12-26T15:05:34Z</time>
      </trkpt>
      <trkpt lat="46.94709" lon="5.99326">
        <ele>822.8</ele>
        <time>2020-12-26T15:05:35Z</time>
      </trkpt>
      <trkpt lat="46.94706" lon="5.99321">
        <ele>822.8</ele>
        <time>2020-12-26T15:05:36Z</time>
      </trkpt>
      <trkpt lat="46.94703" lon="5.99317">
        <ele>822.8</ele>
        <time>2020-12-26T15:05:37Z</time>
      </trkpt>
      <trkpt lat="46.947" lon="5.99312">
        <ele>823.2</ele>
        <time>2020-12-26T15:05:38Z</time>
      </trkpt>
      <trkpt lat="46.94697" lon="5.99308">
        <ele>823.2</ele>
        <time>2020-12-26T15:05:39Z</time>
      </trkpt>
      <trkpt lat="46.94694" lon="5.99304">
        <ele>823.4</ele>
        <time>2020-12-26T15:05:40Z</time>
      </trkpt>
      <trkpt lat="46.94691" lon="5.993">
        <ele>823.4</ele>
        <time>2020-12-26T15:05:41Z</time>
      </trkpt>
      <trkpt lat="46.94689" lon="5.99295">
        <ele>823.6</ele>
        <time>2020-12-26T15:05:42Z</time>
      </trkpt>
      <trkpt lat="46.94686" lon="5.99291">
        <ele>823.6</ele>
        <time>2020-12-26T15:05:43Z</time>
      </trkpt>
      <trkpt lat="46.94683" lon="5.99286">
        <ele>824</ele>
        <time>2020-12-26T15:05:44Z</time>
      </trkpt>
      <trkpt lat="46.9468" lon="5.99282">
        <ele>824</ele>
        <time>2020-12-26T15:05:45Z</time>
      </trkpt>
      <trkpt lat="46.94677" lon="5.99277">
        <ele>824.2</ele>
        <time>2020-12-26T15:05:46Z</time>
      </trkpt>
      <trkpt lat="46.94674" lon="5.99272">
        <ele>824.2</ele>
        <time>2020-12-26T15:05:47Z</time>
      </trkpt>
      <trkpt lat="46.94672" lon="5.99268">
        <ele>824.6</ele>
        <time>2020-12-26T15:05:48Z</time>
      </trkpt>
      <trkpt lat="46.94669" lon="5.99263">
        <ele>824.8</ele>
        <time>2020-12-26T15:05:49Z</time>
      </trkpt>
      <trkpt lat="46.94666" lon="5.99259">
        <ele>824.8</ele>
        <time>2020-12-26T15:05:50Z</time>
      </trkpt>
      <trkpt lat="46.94663" lon="5.99254">
        <ele>825</ele>
        <time>2020-12-26T15:05:51Z</time>
      </trkpt>
      <trkpt lat="46.9466" lon="5.9925">
        <ele>825</ele>
        <time>2020-12-26T15:05:52Z</time>
      </trkpt>
      <trkpt lat="46.94657" lon="5.99246">
        <ele>825.4</ele>
        <time>2020-12-26T15:05:53Z</time>
      </trkpt>
      <trkpt lat="46.94654" lon="5.99241">
        <ele>825.4</ele>
        <time>2020-12-26T15:05:54Z</time>
      </trkpt>
      <trkpt lat="46.94651" lon="5.99237">
        <ele>825.6</ele>
        <time>2020-12-26T15:05:55Z</time>
      </trkpt>
      <trkpt lat="46.94648" lon="5.99233">
        <ele>825.8</ele>
        <time>2020-12-26T15:05:56Z</time>
      </trkpt>
      <trkpt lat="46.94645" lon="5.99228">
        <ele>825.8</ele>
        <time>2020-12-26T15:05:57Z</time>
      </trkpt>
      <trkpt lat="46.94642" lon="5.99223">
        <ele>826</ele>
        <time>2020-12-26T15:05:58Z</time>
      </trkpt>
      <trkpt lat="46.94639" lon="5.99218">
        <ele>826</ele>
        <time>2020-12-26T15:05:59Z</time>
      </trkpt>
      <trkpt lat="46.94637" lon="5.99213">
        <ele>826.4</ele>
        <time>2020-12-26T15:06:00Z</time>
      </trkpt>
      <trkpt lat="46.94634" lon="5.99207">
        <ele>826.4</ele>
        <time>2020-12-26T15:06:01Z</time>
      </trkpt>
      <trkpt lat="46.94632" lon="5.99202">
        <ele>826.8</ele>
        <time>2020-12-26T15:06:02Z</time>
      </trkpt>
      <trkpt lat="46.94629" lon="5.99197">
        <ele>826.8</ele>
        <time>2020-12-26T15:06:03Z</time>
      </trkpt>
      <trkpt lat="46.94627" lon="5.99192">
        <ele>827</ele>
        <time>2020-12-26T15:06:04Z</time>
      </trkpt>
      <trkpt lat="46.94625" lon="5.99187">
        <ele>827</ele>
        <time>2020-12-26T15:06:05Z</time>
      </trkpt>
      <trkpt lat="46.94623" lon="5.99182">
        <ele>827.4</ele>
        <time>2020-12-26T15:06:06Z</time>
      </trkpt>
      <trkpt lat="46.94621" lon="5.99177">
        <ele>827.4</ele>
        <time>2020-12-26T15:06:07Z</time>
      </trkpt>
      <trkpt lat="46.94619" lon="5.99172">
        <ele>827.4</ele>
        <time>2020-12-26T15:06:08Z</time>
      </trkpt>
      <trkpt lat="46.94617" lon="5.99167">
        <ele>827.6</ele>
        <time>2020-12-26T15:06:09Z</time>
      </trkpt>
      <trkpt lat="46.94616" lon="5.99161">
        <ele>827.6</ele>
        <time>2020-12-26T15:06:10Z</time>
      </trkpt>
      <trkpt lat="46.94614" lon="5.99155">
        <ele>828</ele>
        <time>2020-12-26T15:06:11Z</time>
      </trkpt>
      <trkpt lat="46.94613" lon="5.99149">
        <ele>828</ele>
        <time>2020-12-26T15:06:12Z</time>
      </trkpt>
      <trkpt lat="46.94613" lon="5.99142">
        <ele>828</ele>
        <time>2020-12-26T15:06:13Z</time>
      </trkpt>
      <trkpt lat="46.94613" lon="5.99136">
        <ele>828</ele>
        <time>2020-12-26T15:06:14Z</time>
      </trkpt>
      <trkpt lat="46.94613" lon="5.9913">
        <ele>828</ele>
        <time>2020-12-26T15:06:15Z</time>
      </trkpt>
      <trkpt lat="46.94615" lon="5.99123">
        <ele>828</ele>
        <time>2020-12-26T15:06:16Z</time>
      </trkpt>
      <trkpt lat="46.94617" lon="5.99116">
        <ele>828</ele>
        <time>2020-12-26T15:06:17Z</time>
      </trkpt>
      <trkpt lat="46.9462" lon="5.9911">
        <ele>828</ele>
        <time>2020-12-26T15:06:18Z</time>
      </trkpt>
      <trkpt lat="46.94624" lon="5.99104">
        <ele>828</ele>
        <time>2020-12-26T15:06:19Z</time>
      </trkpt>
      <trkpt lat="46.94628" lon="5.991">
        <ele>828</ele>
        <time>2020-12-26T15:06:20Z</time>
      </trkpt>
      <trkpt lat="46.94633" lon="5.99096">
        <ele>828</ele>
        <time>2020-12-26T15:06:21Z</time>
      </trkpt>
      <trkpt lat="46.94638" lon="5.99092">
        <ele>828</ele>
        <time>2020-12-26T15:06:22Z</time>
      </trkpt>
      <trkpt lat="46.94643" lon="5.99089">
        <ele>828</ele>
        <time>2020-12-26T15:06:23Z</time>
      </trkpt>
      <trkpt lat="46.94648" lon="5.99086">
        <ele>828</ele>
        <time>2020-12-26T15:06:24Z</time>
      </trkpt>
      <trkpt lat="46.94653" lon="5.99083">
        <ele>828</ele>
        <time>2020-12-26T15:06:25Z</time>
      </trkpt>
      <trkpt lat="46.94657" lon="5.99081">
        <ele>828.2</ele>
        <time>2020-12-26T15:06:26Z</time>
      </trkpt>
      <trkpt lat="46.94662" lon="5.99079">
        <ele>828.2</ele>
        <time>2020-12-26T15:06:27Z</time>
      </trkpt>
      <trkpt lat="46.94666" lon="5.99077">
        <ele>828.2</ele>
        <time>2020-12-26T15:06:28Z</time>
      </trkpt>
      <trkpt lat="46.9467" lon="5.99075">
        <ele>828.4</ele>
        <time>2020-12-26T15:06:29Z</time>
      </trkpt>
      <trkpt lat="46.94674" lon="5.99073">
        <ele>828.4</ele>
        <time>2020-12-26T15:06:30Z</time>
      </trkpt>
      <trkpt lat="46.94678" lon="5.99071">
        <ele>828.8</ele>
        <time>2020-12-26T15:06:31Z</time>
      </trkpt>
      <trkpt lat="46.94681" lon="5.99069">
        <ele>829</ele>
        <time>2020-12-26T15:06:32Z</time>
      </trkpt>
      <trkpt lat="46.94685" lon="5.99068">
        <ele>829</ele>
        <time>2020-12-26T15:06:33Z</time>
      </trkpt>
      <trkpt lat="46.94689" lon="5.99066">
        <ele>829.4</ele>
        <time>2020-12-26T15:06:34Z</time>
      </trkpt>
      <trkpt lat="46.94693" lon="5.99064">
        <ele>829.4</ele>
        <time>2020-12-26T15:06:35Z</time>
      </trkpt>
      <trkpt lat="46.94698" lon="5.99063">
        <ele>829.6</ele>
        <time>2020-12-26T15:06:36Z</time>
      </trkpt>
      <trkpt lat="46.94702" lon="5.99061">
        <ele>829.6</ele>
        <time>2020-12-26T15:06:37Z</time>
      </trkpt>
      <trkpt lat="46.94706" lon="5.99059">
        <ele>829.8</ele>
        <time>2020-12-26T15:06:38Z</time>
      </trkpt>
      <trkpt lat="46.9471" lon="5.99057">
        <ele>829.8</ele>
        <time>2020-12-26T15:06:39Z</time>
      </trkpt>
      <trkpt lat="46.94714" lon="5.99056">
        <ele>829.8</ele>
        <time>2020-12-26T15:06:40Z</time>
      </trkpt>
      <trkpt lat="46.94718" lon="5.99054">
        <ele>830</ele>
        <time>2020-12-26T15:06:41Z</time>
      </trkpt>
      <trkpt lat="46.94722" lon="5.99052">
        <ele>830</ele>
        <time>2020-12-26T15:06:42Z</time>
      </trkpt>
      <trkpt lat="46.94726" lon="5.9905">
        <ele>830</ele>
        <time>2020-12-26T15:06:43Z</time>
      </trkpt>
      <trkpt lat="46.9473" lon="5.99049">
        <ele>830.4</ele>
        <time>2020-12-26T15:06:44Z</time>
      </trkpt>
      <trkpt lat="46.94734" lon="5.99047">
        <ele>830.4</ele>
        <time>2020-12-26T15:06:45Z</time>
      </trkpt>
      <trkpt lat="46.94738" lon="5.99046">
        <ele>830.6</ele>
        <time>2020-12-26T15:06:46Z</time>
      </trkpt>
      <trkpt lat="46.94742" lon="5.99045">
        <ele>830.6</ele>
        <time>2020-12-26T15:06:47Z</time>
      </trkpt>
      <trkpt lat="46.94747" lon="5.99045">
        <ele>830.6</ele>
        <time>2020-12-26T15:06:48Z</time>
      </trkpt>
      <trkpt lat="46.94751" lon="5.99045">
        <ele>830.8</ele>
        <time>2020-12-26T15:06:49Z</time>
      </trkpt>
      <trkpt lat="46.94755" lon="5.99045">
        <ele>830.8</ele>
        <time>2020-12-26T15:06:50Z</time>
      </trkpt>
      <trkpt lat="46.9476" lon="5.99045">
        <ele>830.8</ele>
        <time>2020-12-26T15:06:51Z</time>
      </trkpt>
      <trkpt lat="46.94764" lon="5.99046">
        <ele>831.2</ele>
        <time>2020-12-26T15:06:52Z</time>
      </trkpt>
      <trkpt lat="46.94768" lon="5.99047">
        <ele>831.2</ele>
        <time>2020-12-26T15:06:53Z</time>
      </trkpt>
      <trkpt lat="46.94773" lon="5.99048">
        <ele>831.4</ele>
        <time>2020-12-26T15:06:54Z</time>
      </trkpt>
      <trkpt lat="46.94777" lon="5.99048">
        <ele>831.4</ele>
        <time>2020-12-26T15:06:55Z</time>
      </trkpt>
      <trkpt lat="46.9478" lon="5.99049">
        <ele>831.6</ele>
        <time>2020-12-26T15:06:56Z</time>
      </trkpt>
      <trkpt lat="46.94785" lon="5.9905">
        <ele>831.6</ele>
        <time>2020-12-26T15:06:57Z</time>
      </trkpt>
      <trkpt lat="46.94789" lon="5.99051">
        <ele>831.8</ele>
        <time>2020-12-26T15:06:58Z</time>
      </trkpt>
      <trkpt lat="46.94793" lon="5.99053">
        <ele>831.8</ele>
        <time>2020-12-26T15:06:59Z</time>
      </trkpt>
      <trkpt lat="46.94797" lon="5.99054">
        <ele>832</ele>
        <time>2020-12-26T15:07:00Z</time>
      </trkpt>
      <trkpt lat="46.94801" lon="5.99055">
        <ele>832</ele>
        <time>2020-12-26T15:07:01Z</time>
      </trkpt>
      <trkpt lat="46.94804" lon="5.99057">
        <ele>832</ele>
        <time>2020-12-26T15:07:02Z</time>
      </trkpt>
      <trkpt lat="46.94809" lon="5.99058">
        <ele>832</ele>
        <time>2020-12-26T15:07:03Z</time>
      </trkpt>
      <trkpt lat="46.94813" lon="5.99059">
        <ele>832.2</ele>
        <time>2020-12-26T15:07:04Z</time>
      </trkpt>
      <trkpt lat="46.94817" lon="5.99061">
        <ele>832.2</ele>
        <time>2020-12-26T15:07:05Z</time>
      </trkpt>
      <trkpt lat="46.94822" lon="5.99063">
        <ele>832.2</ele>
        <time>2020-12-26T15:07:06Z</time>
      </trkpt>
      <trkpt lat="46.94827" lon="5.99065">
        <ele>832.2</ele>
        <time>2020-12-26T15:07:07Z</time>
      </trkpt>
      <trkpt lat="46.94832" lon="5.99068">
        <ele>832.2</ele>
        <time>2020-12-26T15:07:08Z</time>
      </trkpt>
      <trkpt lat="46.94837" lon="5.99071">
        <ele>832.2</ele>
        <time>2020-12-26T15:07:09Z</time>
      </trkpt>
      <trkpt lat="46.94842" lon="5.99076">
        <ele>832.2</ele>
        <time>2020-12-26T15:07:10Z</time>
      </trkpt>
      <trkpt lat="46.94847" lon="5.9908">
        <ele>832</ele>
        <time>2020-12-26T15:07:11Z</time>
      </trkpt>
      <trkpt lat="46.94852" lon="5.99086">
        <ele>832</ele>
        <time>2020-12-26T15:07:12Z</time>
      </trkpt>
      <trkpt lat="46.94857" lon="5.99092">
        <ele>831.8</ele>
        <time>2020-12-26T15:07:13Z</time>
      </trkpt>
      <trkpt lat="46.94862" lon="5.99097">
        <ele>831.8</ele>
        <time>2020-12-26T15:07:14Z</time>
      </trkpt>
      <trkpt lat="46.94867" lon="5.99103">
        <ele>831.4</ele>
        <time>2020-12-26T15:07:15Z</time>
      </trkpt>
      <trkpt lat="46.94872" lon="5.99108">
        <ele>831.4</ele>
        <time>2020-12-26T15:07:16Z</time>
      </trkpt>
      <trkpt lat="46.94876" lon="5.99113">
        <ele>831.4</ele>
        <time>2020-12-26T15:07:17Z</time>
      </trkpt>
      <trkpt lat="46.94881" lon="5.99118">
        <ele>831.4</ele>
        <time>2020-12-26T15:07:18Z</time>
      </trkpt>
      <trkpt lat="46.94885" lon="5.99122">
        <ele>831.4</ele>
        <time>2020-12-26T15:07:19Z</time>
      </trkpt>
      <trkpt lat="46.9489" lon="5.99126">
        <ele>831.4</ele>
        <time>2020-12-26T15:07:20Z</time>
      </trkpt>
      <trkpt lat="46.94894" lon="5.9913">
        <ele>831.4</ele>
        <time>2020-12-26T15:07:21Z</time>
      </trkpt>
      <trkpt lat="46.94898" lon="5.99133">
        <ele>831.4</ele>
        <time>2020-12-26T15:07:22Z</time>
      </trkpt>
      <trkpt lat="46.94902" lon="5.99136">
        <ele>831.4</ele>
        <time>2020-12-26T15:07:23Z</time>
      </trkpt>
      <trkpt lat="46.94906" lon="5.99139">
        <ele>831.6</ele>
        <time>2020-12-26T15:07:24Z</time>
      </trkpt>
      <trkpt lat="46.94911" lon="5.99142">
        <ele>831.6</ele>
        <time>2020-12-26T15:07:25Z</time>
      </trkpt>
      <trkpt lat="46.94915" lon="5.99144">
        <ele>831.6</ele>
        <time>2020-12-26T15:07:26Z</time>
      </trkpt>
      <trkpt lat="46.9492" lon="5.99146">
        <ele>831.6</ele>
        <time>2020-12-26T15:07:27Z</time>
      </trkpt>
      <trkpt lat="46.94926" lon="5.99146">
        <ele>831.6</ele>
        <time>2020-12-26T15:07:28Z</time>
      </trkpt>
      <trkpt lat="46.94931" lon="5.99146">
        <ele>831.6</ele>
        <time>2020-12-26T15:07:29Z</time>
      </trkpt>
      <trkpt lat="46.94936" lon="5.99144">
        <ele>831.8</ele>
        <time>2020-12-26T15:07:30Z</time>
      </trkpt>
      <trkpt lat="46.9494" lon="5.99142">
        <ele>831.8</ele>
        <time>2020-12-26T15:07:31Z</time>
      </trkpt>
      <trkpt lat="46.94945" lon="5.99139">
        <ele>832</ele>
        <time>2020-12-26T15:07:32Z</time>
      </trkpt>
      <trkpt lat="46.94949" lon="5.99137">
        <ele>832</ele>
        <time>2020-12-26T15:07:33Z</time>
      </trkpt>
      <trkpt lat="46.94953" lon="5.99134">
        <ele>832</ele>
        <time>2020-12-26T15:07:34Z</time>
      </trkpt>
      <trkpt lat="46.94956" lon="5.99131">
        <ele>832</ele>
        <time>2020-12-26T15:07:35Z</time>
      </trkpt>
      <trkpt lat="46.9496" lon="5.99127">
        <ele>832</ele>
        <time>2020-12-26T15:07:36Z</time>
      </trkpt>
      <trkpt lat="46.94964" lon="5.99124">
        <ele>832</ele>
        <time>2020-12-26T15:07:37Z</time>
      </trkpt>
      <trkpt lat="46.94968" lon="5.99121">
        <ele>832</ele>
        <time>2020-12-26T15:07:38Z</time>
      </trkpt>
      <trkpt lat="46.94972" lon="5.99117">
        <ele>832</ele>
        <time>2020-12-26T15:07:39Z</time>
      </trkpt>
      <trkpt lat="46.94976" lon="5.99113">
        <ele>832</ele>
        <time>2020-12-26T15:07:40Z</time>
      </trkpt>
      <trkpt lat="46.9498" lon="5.99109">
        <ele>832</ele>
        <time>2020-12-26T15:07:41Z</time>
      </trkpt>
      <trkpt lat="46.94984" lon="5.99105">
        <ele>832.4</ele>
        <time>2020-12-26T15:07:42Z</time>
      </trkpt>
      <trkpt lat="46.94988" lon="5.99101">
        <ele>832.4</ele>
        <time>2020-12-26T15:07:43Z</time>
      </trkpt>
      <trkpt lat="46.94992" lon="5.99097">
        <ele>832.4</ele>
        <time>2020-12-26T15:07:44Z</time>
      </trkpt>
      <trkpt lat="46.94996" lon="5.99093">
        <ele>832.6</ele>
        <time>2020-12-26T15:07:45Z</time>
      </trkpt>
      <trkpt lat="46.95" lon="5.9909">
        <ele>832.6</ele>
        <time>2020-12-26T15:07:46Z</time>
      </trkpt>
      <trkpt lat="46.95004" lon="5.99087">
        <ele>832.6</ele>
        <time>2020-12-26T15:07:47Z</time>
      </trkpt>
      <trkpt lat="46.95007" lon="5.99084">
        <ele>832.8</ele>
        <time>2020-12-26T15:07:48Z</time>
      </trkpt>
      <trkpt lat="46.95011" lon="5.99082">
        <ele>832.8</ele>
        <time>2020-12-26T15:07:49Z</time>
      </trkpt>
      <trkpt lat="46.95015" lon="5.9908">
        <ele>833.2</ele>
        <time>2020-12-26T15:07:50Z</time>
      </trkpt>
      <trkpt lat="46.95019" lon="5.99078">
        <ele>833.4</ele>
        <time>2020-12-26T15:07:51Z</time>
      </trkpt>
      <trkpt lat="46.95023" lon="5.99076">
        <ele>833.4</ele>
        <time>2020-12-26T15:07:52Z</time>
      </trkpt>
      <trkpt lat="46.95026" lon="5.99074">
        <ele>834</ele>
        <time>2020-12-26T15:07:53Z</time>
      </trkpt>
      <trkpt lat="46.9503" lon="5.99073">
        <ele>834</ele>
        <time>2020-12-26T15:07:54Z</time>
      </trkpt>
      <trkpt lat="46.95033" lon="5.99071">
        <ele>834.2</ele>
        <time>2020-12-26T15:07:55Z</time>
      </trkpt>
      <trkpt lat="46.95037" lon="5.99069">
        <ele>834.6</ele>
        <time>2020-12-26T15:07:56Z</time>
      </trkpt>
      <trkpt lat="46.9504" lon="5.99068">
        <ele>834.8</ele>
        <time>2020-12-26T15:07:57Z</time>
      </trkpt>
      <trkpt lat="46.95043" lon="5.99066">
        <ele>835.2</ele>
        <time>2020-12-26T15:07:58Z</time>
      </trkpt>
      <trkpt lat="46.95046" lon="5.99064">
        <ele>835.6</ele>
        <time>2020-12-26T15:07:59Z</time>
      </trkpt>
      <trkpt lat="46.95049" lon="5.99062">
        <ele>835.6</ele>
        <time>2020-12-26T15:08:00Z</time>
      </trkpt>
      <trkpt lat="46.95052" lon="5.9906">
        <ele>836</ele>
        <time>2020-12-26T15:08:01Z</time>
      </trkpt>
      <trkpt lat="46.95055" lon="5.99057">
        <ele>836.4</ele>
        <time>2020-12-26T15:08:02Z</time>
      </trkpt>
      <trkpt lat="46.95058" lon="5.99054">
        <ele>836.6</ele>
        <time>2020-12-26T15:08:03Z</time>
      </trkpt>
      <trkpt lat="46.95061" lon="5.99051">
        <ele>837</ele>
        <time>2020-12-26T15:08:04Z</time>
      </trkpt>
      <trkpt lat="46.95063" lon="5.99048">
        <ele>837.2</ele>
        <time>2020-12-26T15:08:05Z</time>
      </trkpt>
      <trkpt lat="46.95065" lon="5.99045">
        <ele>837.6</ele>
        <time>2020-12-26T15:08:06Z</time>
      </trkpt>
      <trkpt lat="46.95067" lon="5.99041">
        <ele>838</ele>
        <time>2020-12-26T15:08:07Z</time>
      </trkpt>
      <trkpt lat="46.95069" lon="5.99038">
        <ele>838.2</ele>
        <time>2020-12-26T15:08:08Z</time>
      </trkpt>
      <trkpt lat="46.95071" lon="5.99036">
        <ele>838.6</ele>
        <time>2020-12-26T15:08:09Z</time>
      </trkpt>
      <trkpt lat="46.95072" lon="5.99032">
        <ele>838.8</ele>
        <time>2020-12-26T15:08:10Z</time>
      </trkpt>
      <trkpt lat="46.95074" lon="5.99029">
        <ele>839</ele>
        <time>2020-12-26T15:08:11Z</time>
      </trkpt>
      <trkpt lat="46.95076" lon="5.99026">
        <ele>839.4</ele>
        <time>2020-12-26T15:08:12Z</time>
      </trkpt>
      <trkpt lat="46.95077" lon="5.99022">
        <ele>839.6</ele>
        <time>2020-12-26T15:08:13Z</time>
      </trkpt>
      <trkpt lat="46.95079" lon="5.99018">
        <ele>840</ele>
        <time>2020-12-26T15:08:14Z</time>
      </trkpt>
      <trkpt lat="46.95081" lon="5.99015">
        <ele>840.2</ele>
        <time>2020-12-26T15:08:15Z</time>
      </trkpt>
      <trkpt lat="46.95083" lon="5.99012">
        <ele>840.2</ele>
        <time>2020-12-26T15:08:16Z</time>
      </trkpt>
      <trkpt lat="46.95086" lon="5.99009">
        <ele>840.8</ele>
        <time>2020-12-26T15:08:17Z</time>
      </trkpt>
      <trkpt lat="46.95088" lon="5.99006">
        <ele>841</ele>
        <time>2020-12-26T15:08:18Z</time>
      </trkpt>
      <trkpt lat="46.95091" lon="5.99003">
        <ele>841.2</ele>
        <time>2020-12-26T15:08:19Z</time>
      </trkpt>
      <trkpt lat="46.95093" lon="5.99001">
        <ele>841.4</ele>
        <time>2020-12-26T15:08:20Z</time>
      </trkpt>
      <trkpt lat="46.95096" lon="5.98998">
        <ele>841.6</ele>
        <time>2020-12-26T15:08:21Z</time>
      </trkpt>
      <trkpt lat="46.95099" lon="5.98996">
        <ele>842</ele>
        <time>2020-12-26T15:08:22Z</time>
      </trkpt>
      <trkpt lat="46.95102" lon="5.98994">
        <ele>842.2</ele>
        <time>2020-12-26T15:08:23Z</time>
      </trkpt>
      <trkpt lat="46.95106" lon="5.98992">
        <ele>842.2</ele>
        <time>2020-12-26T15:08:24Z</time>
      </trkpt>
      <trkpt lat="46.95109" lon="5.98991">
        <ele>842.6</ele>
        <time>2020-12-26T15:08:25Z</time>
      </trkpt>
      <trkpt lat="46.95111" lon="5.9899">
        <ele>842.6</ele>
        <time>2020-12-26T15:08:26Z</time>
      </trkpt>
      <trkpt lat="46.95114" lon="5.98989">
        <ele>843</ele>
        <time>2020-12-26T15:08:27Z</time>
      </trkpt>
      <trkpt lat="46.95117" lon="5.98988">
        <ele>843.2</ele>
        <time>2020-12-26T15:08:28Z</time>
      </trkpt>
      <trkpt lat="46.9512" lon="5.98987">
        <ele>843.2</ele>
        <time>2020-12-26T15:08:29Z</time>
      </trkpt>
      <trkpt lat="46.95123" lon="5.98986">
        <ele>843.4</ele>
        <time>2020-12-26T15:08:30Z</time>
      </trkpt>
      <trkpt lat="46.95127" lon="5.98987">
        <ele>843.4</ele>
        <time>2020-12-26T15:08:31Z</time>
      </trkpt>
      <trkpt lat="46.9513" lon="5.98987">
        <ele>843.4</ele>
        <time>2020-12-26T15:08:32Z</time>
      </trkpt>
      <trkpt lat="46.95133" lon="5.98987">
        <ele>843.6</ele>
        <time>2020-12-26T15:08:33Z</time>
      </trkpt>
      <trkpt lat="46.95137" lon="5.98987">
        <ele>843.6</ele>
        <time>2020-12-26T15:08:34Z</time>
      </trkpt>
      <trkpt lat="46.9514" lon="5.98986">
        <ele>843.8</ele>
        <time>2020-12-26T15:08:35Z</time>
      </trkpt>
      <trkpt lat="46.95143" lon="5.98985">
        <ele>843.8</ele>
        <time>2020-12-26T15:08:36Z</time>
      </trkpt>
      <trkpt lat="46.95146" lon="5.98983">
        <ele>843.8</ele>
        <time>2020-12-26T15:08:37Z</time>
      </trkpt>
      <trkpt lat="46.95149" lon="5.98982">
        <ele>844.2</ele>
        <time>2020-12-26T15:08:38Z</time>
      </trkpt>
      <trkpt lat="46.95152" lon="5.9898">
        <ele>844.2</ele>
        <time>2020-12-26T15:08:39Z</time>
      </trkpt>
      <trkpt lat="46.95155" lon="5.98978">
        <ele>844.4</ele>
        <time>2020-12-26T15:08:40Z</time>
      </trkpt>
      <trkpt lat="46.95158" lon="5.98976">
        <ele>844.6</ele>
        <time>2020-12-26T15:08:41Z</time>
      </trkpt>
      <trkpt lat="46.95161" lon="5.98974">
        <ele>845</ele>
        <time>2020-12-26T15:08:42Z</time>
      </trkpt>
      <trkpt lat="46.95164" lon="5.98972">
        <ele>845.2</ele>
        <time>2020-12-26T15:08:43Z</time>
      </trkpt>
      <trkpt lat="46.95167" lon="5.9897">
        <ele>845.6</ele>
        <time>2020-12-26T15:08:44Z</time>
      </trkpt>
      <trkpt lat="46.95169" lon="5.98968">
        <ele>845.8</ele>
        <time>2020-12-26T15:08:45Z</time>
      </trkpt>
      <trkpt lat="46.95172" lon="5.98966">
        <ele>846</ele>
        <time>2020-12-26T15:08:46Z</time>
      </trkpt>
      <trkpt lat="46.95175" lon="5.98964">
        <ele>846</ele>
        <time>2020-12-26T15:08:47Z</time>
      </trkpt>
      <trkpt lat="46.95178" lon="5.98962">
        <ele>846.4</ele>
        <time>2020-12-26T15:08:48Z</time>
      </trkpt>
      <trkpt lat="46.9518" lon="5.98959">
        <ele>846.6</ele>
        <time>2020-12-26T15:08:49Z</time>
      </trkpt>
      <trkpt lat="46.95183" lon="5.98957">
        <ele>847</ele>
        <time>2020-12-26T15:08:50Z</time>
      </trkpt>
      <trkpt lat="46.95186" lon="5.98954">
        <ele>847</ele>
        <time>2020-12-26T15:08:51Z</time>
      </trkpt>
      <trkpt lat="46.95188" lon="5.98951">
        <ele>847.4</ele>
        <time>2020-12-26T15:08:52Z</time>
      </trkpt>
      <trkpt lat="46.95191" lon="5.98948">
        <ele>847.6</ele>
        <time>2020-12-26T15:08:53Z</time>
      </trkpt>
      <trkpt lat="46.95193" lon="5.98945">
        <ele>847.6</ele>
        <time>2020-12-26T15:08:54Z</time>
      </trkpt>
      <trkpt lat="46.95196" lon="5.98942">
        <ele>847.8</ele>
        <time>2020-12-26T15:08:55Z</time>
      </trkpt>
      <trkpt lat="46.95198" lon="5.98939">
        <ele>848.2</ele>
        <time>2020-12-26T15:08:56Z</time>
      </trkpt>
      <trkpt lat="46.95201" lon="5.98936">
        <ele>848.4</ele>
        <time>2020-12-26T15:08:57Z</time>
      </trkpt>
      <trkpt lat="46.95203" lon="5.98933">
        <ele>848.4</ele>
        <time>2020-12-26T15:08:58Z</time>
      </trkpt>
      <trkpt lat="46.95206" lon="5.98929">
        <ele>848.6</ele>
        <time>2020-12-26T15:08:59Z</time>
      </trkpt>
      <trkpt lat="46.95208" lon="5.98926">
        <ele>848.6</ele>
        <time>2020-12-26T15:09:00Z</time>
      </trkpt>
      <trkpt lat="46.95211" lon="5.98922">
        <ele>849</ele>
        <time>2020-12-26T15:09:01Z</time>
      </trkpt>
      <trkpt lat="46.95214" lon="5.98919">
        <ele>849</ele>
        <time>2020-12-26T15:09:02Z</time>
      </trkpt>
      <trkpt lat="46.95216" lon="5.98915">
        <ele>849.2</ele>
        <time>2020-12-26T15:09:03Z</time>
      </trkpt>
      <trkpt lat="46.95218" lon="5.98911">
        <ele>849.2</ele>
        <time>2020-12-26T15:09:04Z</time>
      </trkpt>
      <trkpt lat="46.9522" lon="5.98907">
        <ele>849.6</ele>
        <time>2020-12-26T15:09:05Z</time>
      </trkpt>
      <trkpt lat="46.95222" lon="5.98903">
        <ele>849.8</ele>
        <time>2020-12-26T15:09:06Z</time>
      </trkpt>
      <trkpt lat="46.95224" lon="5.98899">
        <ele>849.8</ele>
        <time>2020-12-26T15:09:07Z</time>
      </trkpt>
      <trkpt lat="46.95225" lon="5.98894">
        <ele>850</ele>
        <time>2020-12-26T15:09:08Z</time>
      </trkpt>
      <trkpt lat="46.95228" lon="5.9889">
        <ele>850</ele>
        <time>2020-12-26T15:09:09Z</time>
      </trkpt>
      <trkpt lat="46.9523" lon="5.98885">
        <ele>850.2</ele>
        <time>2020-12-26T15:09:10Z</time>
      </trkpt>
      <trkpt lat="46.95232" lon="5.98881">
        <ele>850.2</ele>
        <time>2020-12-26T15:09:11Z</time>
      </trkpt>
      <trkpt lat="46.95235" lon="5.98877">
        <ele>850.2</ele>
        <time>2020-12-26T15:09:12Z</time>
      </trkpt>
      <trkpt lat="46.95237" lon="5.98873">
        <ele>850.6</ele>
        <time>2020-12-26T15:09:13Z</time>
      </trkpt>
      <trkpt lat="46.9524" lon="5.98868">
        <ele>850.6</ele>
        <time>2020-12-26T15:09:14Z</time>
      </trkpt>
      <trkpt lat="46.95242" lon="5.98865">
        <ele>850.8</ele>
        <time>2020-12-26T15:09:15Z</time>
      </trkpt>
      <trkpt lat="46.95245" lon="5.98861">
        <ele>850.8</ele>
        <time>2020-12-26T15:09:16Z</time>
      </trkpt>
      <trkpt lat="46.95247" lon="5.98857">
        <ele>850.8</ele>
        <time>2020-12-26T15:09:17Z</time>
      </trkpt>
      <trkpt lat="46.9525" lon="5.98853">
        <ele>851</ele>
        <time>2020-12-26T15:09:18Z</time>
      </trkpt>
      <trkpt lat="46.95252" lon="5.98849">
        <ele>851</ele>
        <time>2020-12-26T15:09:19Z</time>
      </trkpt>
      <trkpt lat="46.95255" lon="5.98846">
        <ele>851</ele>
        <time>2020-12-26T15:09:20Z</time>
      </trkpt>
      <trkpt lat="46.95258" lon="5.98842">
        <ele>851.4</ele>
        <time>2020-12-26T15:09:21Z</time>
      </trkpt>
      <trkpt lat="46.95261" lon="5.98838">
        <ele>851.4</ele>
        <time>2020-12-26T15:09:22Z</time>
      </trkpt>
      <trkpt lat="46.95264" lon="5.98834">
        <ele>851.4</ele>
        <time>2020-12-26T15:09:23Z</time>
      </trkpt>
      <trkpt lat="46.95267" lon="5.98829">
        <ele>851.4</ele>
        <time>2020-12-26T15:09:24Z</time>
      </trkpt>
      <trkpt lat="46.9527" lon="5.98824">
        <ele>851.4</ele>
        <time>2020-12-26T15:09:25Z</time>
      </trkpt>
      <trkpt lat="46.95273" lon="5.9882">
        <ele>851.4</ele>
        <time>2020-12-26T15:09:26Z</time>
      </trkpt>
      <trkpt lat="46.95277" lon="5.98815">
        <ele>851.4</ele>
        <time>2020-12-26T15:09:27Z</time>
      </trkpt>
      <trkpt lat="46.9528" lon="5.9881">
        <ele>851.4</ele>
        <time>2020-12-26T15:09:28Z</time>
      </trkpt>
      <trkpt lat="46.95284" lon="5.98805">
        <ele>851.4</ele>
        <time>2020-12-26T15:09:29Z</time>
      </trkpt>
      <trkpt lat="46.95287" lon="5.988">
        <ele>851.4</ele>
        <time>2020-12-26T15:09:30Z</time>
      </trkpt>
      <trkpt lat="46.95291" lon="5.98796">
        <ele>851.4</ele>
        <time>2020-12-26T15:09:31Z</time>
      </trkpt>
      <trkpt lat="46.95295" lon="5.98791">
        <ele>851.6</ele>
        <time>2020-12-26T15:09:32Z</time>
      </trkpt>
      <trkpt lat="46.95299" lon="5.98787">
        <ele>851.6</ele>
        <time>2020-12-26T15:09:33Z</time>
      </trkpt>
      <trkpt lat="46.95302" lon="5.98783">
        <ele>851.6</ele>
        <time>2020-12-26T15:09:34Z</time>
      </trkpt>
      <trkpt lat="46.95306" lon="5.98779">
        <ele>851.6</ele>
        <time>2020-12-26T15:09:35Z</time>
      </trkpt>
      <trkpt lat="46.9531" lon="5.98775">
        <ele>851.8</ele>
        <time>2020-12-26T15:09:36Z</time>
      </trkpt>
      <trkpt lat="46.95314" lon="5.98772">
        <ele>851.8</ele>
        <time>2020-12-26T15:09:37Z</time>
      </trkpt>
      <trkpt lat="46.95318" lon="5.98769">
        <ele>852.2</ele>
        <time>2020-12-26T15:09:38Z</time>
      </trkpt>
      <trkpt lat="46.95322" lon="5.98766">
        <ele>852.2</ele>
        <time>2020-12-26T15:09:39Z</time>
      </trkpt>
      <trkpt lat="46.95325" lon="5.98763">
        <ele>852.4</ele>
        <time>2020-12-26T15:09:40Z</time>
      </trkpt>
      <trkpt lat="46.95329" lon="5.9876">
        <ele>852.6</ele>
        <time>2020-12-26T15:09:41Z</time>
      </trkpt>
      <trkpt lat="46.95333" lon="5.98757">
        <ele>852.8</ele>
        <time>2020-12-26T15:09:42Z</time>
      </trkpt>
      <trkpt lat="46.95337" lon="5.98754">
        <ele>852.8</ele>
        <time>2020-12-26T15:09:43Z</time>
      </trkpt>
      <trkpt lat="46.95341" lon="5.98751">
        <ele>853.2</ele>
        <time>2020-12-26T15:09:44Z</time>
      </trkpt>
      <trkpt lat="46.95345" lon="5.98748">
        <ele>853.2</ele>
        <time>2020-12-26T15:09:45Z</time>
      </trkpt>
      <trkpt lat="46.95349" lon="5.98745">
        <ele>853.4</ele>
        <time>2020-12-26T15:09:46Z</time>
      </trkpt>
      <trkpt lat="46.95353" lon="5.98742">
        <ele>853.4</ele>
        <time>2020-12-26T15:09:47Z</time>
      </trkpt>
      <trkpt lat="46.95357" lon="5.98739">
        <ele>853.4</ele>
        <time>2020-12-26T15:09:48Z</time>
      </trkpt>
      <trkpt lat="46.95361" lon="5.98737">
        <ele>853.6</ele>
        <time>2020-12-26T15:09:49Z</time>
      </trkpt>
      <trkpt lat="46.95365" lon="5.98735">
        <ele>853.6</ele>
        <time>2020-12-26T15:09:50Z</time>
      </trkpt>
      <trkpt lat="46.95369" lon="5.98733">
        <ele>853.6</ele>
        <time>2020-12-26T15:09:51Z</time>
      </trkpt>
      <trkpt lat="46.95374" lon="5.98731">
        <ele>854</ele>
        <time>2020-12-26T15:09:52Z</time>
      </trkpt>
      <trkpt lat="46.95378" lon="5.9873">
        <ele>854</ele>
        <time>2020-12-26T15:09:53Z</time>
      </trkpt>
      <trkpt lat="46.95382" lon="5.98728">
        <ele>854</ele>
        <time>2020-12-26T15:09:54Z</time>
      </trkpt>
      <trkpt lat="46.95386" lon="5.98727">
        <ele>854.4</ele>
        <time>2020-12-26T15:09:55Z</time>
      </trkpt>
      <trkpt lat="46.9539" lon="5.98725">
        <ele>854.4</ele>
        <time>2020-12-26T15:09:56Z</time>
      </trkpt>
      <trkpt lat="46.95394" lon="5.98724">
        <ele>854.6</ele>
        <time>2020-12-26T15:09:57Z</time>
      </trkpt>
      <trkpt lat="46.95399" lon="5.98723">
        <ele>854.6</ele>
        <time>2020-12-26T15:09:58Z</time>
      </trkpt>
      <trkpt lat="46.95403" lon="5.98722">
        <ele>854.6</ele>
        <time>2020-12-26T15:09:59Z</time>
      </trkpt>
      <trkpt lat="46.95407" lon="5.98721">
        <ele>854.8</ele>
        <time>2020-12-26T15:10:00Z</time>
      </trkpt>
      <trkpt lat="46.95411" lon="5.98721">
        <ele>854.8</ele>
        <time>2020-12-26T15:10:01Z</time>
      </trkpt>
      <trkpt lat="46.95416" lon="5.98721">
        <ele>855</ele>
        <time>2020-12-26T15:10:02Z</time>
      </trkpt>
      <trkpt lat="46.9542" lon="5.98721">
        <ele>855</ele>
        <time>2020-12-26T15:10:03Z</time>
      </trkpt>
      <trkpt lat="46.95424" lon="5.98721">
        <ele>855.2</ele>
        <time>2020-12-26T15:10:04Z</time>
      </trkpt>
      <trkpt lat="46.95429" lon="5.98722">
        <ele>855.2</ele>
        <time>2020-12-26T15:10:05Z</time>
      </trkpt>
      <trkpt lat="46.95433" lon="5.98722">
        <ele>855.2</ele>
        <time>2020-12-26T15:10:06Z</time>
      </trkpt>
      <trkpt lat="46.95437" lon="5.98722">
        <ele>855.6</ele>
        <time>2020-12-26T15:10:07Z</time>
      </trkpt>
      <trkpt lat="46.95441" lon="5.98721">
        <ele>855.6</ele>
        <time>2020-12-26T15:10:08Z</time>
      </trkpt>
      <trkpt lat="46.95445" lon="5.98719">
        <ele>855.6</ele>
        <time>2020-12-26T15:10:09Z</time>
      </trkpt>
      <trkpt lat="46.95448" lon="5.98716">
        <ele>855.8</ele>
        <time>2020-12-26T15:10:10Z</time>
      </trkpt>
      <trkpt lat="46.95451" lon="5.98712">
        <ele>855.8</ele>
        <time>2020-12-26T15:10:11Z</time>
      </trkpt>
      <trkpt lat="46.95453" lon="5.98707">
        <ele>856.2</ele>
        <time>2020-12-26T15:10:12Z</time>
      </trkpt>
      <trkpt lat="46.95454" lon="5.98702">
        <ele>856.2</ele>
        <time>2020-12-26T15:10:13Z</time>
      </trkpt>
      <trkpt lat="46.95454" lon="5.98697">
        <ele>856.4</ele>
        <time>2020-12-26T15:10:14Z</time>
      </trkpt>
      <trkpt lat="46.95454" lon="5.98692">
        <ele>856.4</ele>
        <time>2020-12-26T15:10:15Z</time>
      </trkpt>
      <trkpt lat="46.95454" lon="5.98686">
        <ele>856.8</ele>
        <time>2020-12-26T15:10:16Z</time>
      </trkpt>
      <trkpt lat="46.95453" lon="5.98681">
        <ele>856.8</ele>
        <time>2020-12-26T15:10:17Z</time>
      </trkpt>
      <trkpt lat="46.95452" lon="5.98677">
        <ele>857.2</ele>
        <time>2020-12-26T15:10:18Z</time>
      </trkpt>
      <trkpt lat="46.95452" lon="5.98672">
        <ele>857.4</ele>
        <time>2020-12-26T15:10:19Z</time>
      </trkpt>
      <trkpt lat="46.95451" lon="5.98668">
        <ele>857.4</ele>
        <time>2020-12-26T15:10:20Z</time>
      </trkpt>
      <trkpt lat="46.9545" lon="5.98663">
        <ele>857.6</ele>
        <time>2020-12-26T15:10:21Z</time>
      </trkpt>
      <trkpt lat="46.95449" lon="5.98659">
        <ele>857.6</ele>
        <time>2020-12-26T15:10:22Z</time>
      </trkpt>
      <trkpt lat="46.95447" lon="5.98654">
        <ele>857.8</ele>
        <time>2020-12-26T15:10:23Z</time>
      </trkpt>
      <trkpt lat="46.95446" lon="5.9865">
        <ele>857.8</ele>
        <time>2020-12-26T15:10:24Z</time>
      </trkpt>
      <trkpt lat="46.95445" lon="5.98645">
        <ele>857.8</ele>
        <time>2020-12-26T15:10:25Z</time>
      </trkpt>
      <trkpt lat="46.95444" lon="5.9864">
        <ele>858</ele>
        <time>2020-12-26T15:10:26Z</time>
      </trkpt>
      <trkpt lat="46.95443" lon="5.98635">
        <ele>858</ele>
        <time>2020-12-26T15:10:27Z</time>
      </trkpt>
      <trkpt lat="46.95441" lon="5.9863">
        <ele>858</ele>
        <time>2020-12-26T15:10:28Z</time>
      </trkpt>
      <trkpt lat="46.9544" lon="5.98624">
        <ele>858.2</ele>
        <time>2020-12-26T15:10:29Z</time>
      </trkpt>
      <trkpt lat="46.95439" lon="5.98619">
        <ele>858.2</ele>
        <time>2020-12-26T15:10:30Z</time>
      </trkpt>
      <trkpt lat="46.95438" lon="5.98614">
        <ele>858.6</ele>
        <time>2020-12-26T15:10:31Z</time>
      </trkpt>
      <trkpt lat="46.95436" lon="5.98609">
        <ele>858.6</ele>
        <time>2020-12-26T15:10:32Z</time>
      </trkpt>
      <trkpt lat="46.95435" lon="5.98604">
        <ele>858.6</ele>
        <time>2020-12-26T15:10:33Z</time>
      </trkpt>
      <trkpt lat="46.95433" lon="5.98599">
        <ele>858.6</ele>
        <time>2020-12-26T15:10:34Z</time>
      </trkpt>
      <trkpt lat="46.95432" lon="5.98595">
        <ele>858.6</ele>
        <time>2020-12-26T15:10:35Z</time>
      </trkpt>
      <trkpt lat="46.9543" lon="5.98589">
        <ele>858.6</ele>
        <time>2020-12-26T15:10:36Z</time>
      </trkpt>
      <trkpt lat="46.95428" lon="5.98583">
        <ele>858.6</ele>
        <time>2020-12-26T15:10:37Z</time>
      </trkpt>
      <trkpt lat="46.95427" lon="5.98577">
        <ele>858.6</ele>
        <time>2020-12-26T15:10:38Z</time>
      </trkpt>
      <trkpt lat="46.95425" lon="5.9857">
        <ele>858.6</ele>
        <time>2020-12-26T15:10:39Z</time>
      </trkpt>
      <trkpt lat="46.95424" lon="5.98563">
        <ele>858.4</ele>
        <time>2020-12-26T15:10:40Z</time>
      </trkpt>
      <trkpt lat="46.95423" lon="5.98556">
        <ele>858.4</ele>
        <time>2020-12-26T15:10:41Z</time>
      </trkpt>
      <trkpt lat="46.95421" lon="5.98549">
        <ele>858.4</ele>
        <time>2020-12-26T15:10:42Z</time>
      </trkpt>
      <trkpt lat="46.95419" lon="5.98542">
        <ele>858.4</ele>
        <time>2020-12-26T15:10:43Z</time>
      </trkpt>
      <trkpt lat="46.95417" lon="5.98535">
        <ele>858.4</ele>
        <time>2020-12-26T15:10:44Z</time>
      </trkpt>
      <trkpt lat="46.95415" lon="5.98528">
        <ele>858.4</ele>
        <time>2020-12-26T15:10:45Z</time>
      </trkpt>
      <trkpt lat="46.95413" lon="5.98521">
        <ele>858.4</ele>
        <time>2020-12-26T15:10:46Z</time>
      </trkpt>
      <trkpt lat="46.95411" lon="5.98515">
        <ele>858.4</ele>
        <time>2020-12-26T15:10:47Z</time>
      </trkpt>
      <trkpt lat="46.95409" lon="5.98509">
        <ele>858.4</ele>
        <time>2020-12-26T15:10:48Z</time>
      </trkpt>
      <trkpt lat="46.95407" lon="5.98503">
        <ele>858.4</ele>
        <time>2020-12-26T15:10:49Z</time>
      </trkpt>
      <trkpt lat="46.95404" lon="5.98497">
        <ele>858.4</ele>
        <time>2020-12-26T15:10:50Z</time>
      </trkpt>
      <trkpt lat="46.95402" lon="5.98491">
        <ele>858.4</ele>
        <time>2020-12-26T15:10:51Z</time>
      </trkpt>
      <trkpt lat="46.95399" lon="5.98485">
        <ele>858.4</ele>
        <time>2020-12-26T15:10:52Z</time>
      </trkpt>
      <trkpt lat="46.95396" lon="5.9848">
        <ele>858.4</ele>
        <time>2020-12-26T15:10:53Z</time>
      </trkpt>
      <trkpt lat="46.95393" lon="5.98474">
        <ele>858.4</ele>
        <time>2020-12-26T15:10:54Z</time>
      </trkpt>
      <trkpt lat="46.9539" lon="5.98468">
        <ele>858.4</ele>
        <time>2020-12-26T15:10:55Z</time>
      </trkpt>
      <trkpt lat="46.95387" lon="5.98462">
        <ele>858.4</ele>
        <time>2020-12-26T15:10:56Z</time>
      </trkpt>
      <trkpt lat="46.95384" lon="5.98455">
        <ele>858</ele>
        <time>2020-12-26T15:10:57Z</time>
      </trkpt>
      <trkpt lat="46.95381" lon="5.98449">
        <ele>858</ele>
        <time>2020-12-26T15:10:58Z</time>
      </trkpt>
      <trkpt lat="46.95378" lon="5.98442">
        <ele>858</ele>
        <time>2020-12-26T15:10:59Z</time>
      </trkpt>
      <trkpt lat="46.95375" lon="5.98436">
        <ele>858</ele>
        <time>2020-12-26T15:11:00Z</time>
      </trkpt>
      <trkpt lat="46.95372" lon="5.9843">
        <ele>858</ele>
        <time>2020-12-26T15:11:01Z</time>
      </trkpt>
      <trkpt lat="46.95369" lon="5.98423">
        <ele>858</ele>
        <time>2020-12-26T15:11:02Z</time>
      </trkpt>
      <trkpt lat="46.95366" lon="5.98416">
        <ele>857.6</ele>
        <time>2020-12-26T15:11:03Z</time>
      </trkpt>
      <trkpt lat="46.95363" lon="5.98409">
        <ele>857.6</ele>
        <time>2020-12-26T15:11:04Z</time>
      </trkpt>
      <trkpt lat="46.9536" lon="5.98401">
        <ele>857.4</ele>
        <time>2020-12-26T15:11:05Z</time>
      </trkpt>
      <trkpt lat="46.95356" lon="5.98394">
        <ele>857.4</ele>
        <time>2020-12-26T15:11:06Z</time>
      </trkpt>
      <trkpt lat="46.95352" lon="5.98386">
        <ele>857.2</ele>
        <time>2020-12-26T15:11:07Z</time>
      </trkpt>
      <trkpt lat="46.95349" lon="5.98377">
        <ele>857.2</ele>
        <time>2020-12-26T15:11:08Z</time>
      </trkpt>
      <trkpt lat="46.95345" lon="5.98369">
        <ele>856.8</ele>
        <time>2020-12-26T15:11:09Z</time>
      </trkpt>
      <trkpt lat="46.95341" lon="5.98361">
        <ele>856.8</ele>
        <time>2020-12-26T15:11:10Z</time>
      </trkpt>
      <trkpt lat="46.95337" lon="5.98354">
        <ele>856.8</ele>
        <time>2020-12-26T15:11:11Z</time>
      </trkpt>
      <trkpt lat="46.95333" lon="5.98347">
        <ele>856.8</ele>
        <time>2020-12-26T15:11:12Z</time>
      </trkpt>
      <trkpt lat="46.95328" lon="5.98341">
        <ele>856.6</ele>
        <time>2020-12-26T15:11:13Z</time>
      </trkpt>
      <trkpt lat="46.95322" lon="5.98335">
        <ele>856.6</ele>
        <time>2020-12-26T15:11:14Z</time>
      </trkpt>
      <trkpt lat="46.95317" lon="5.9833">
        <ele>856.6</ele>
        <time>2020-12-26T15:11:15Z</time>
      </trkpt>
      <trkpt lat="46.95311" lon="5.98325">
        <ele>856.6</ele>
        <time>2020-12-26T15:11:16Z</time>
      </trkpt>
      <trkpt lat="46.95306" lon="5.98321">
        <ele>856.6</ele>
        <time>2020-12-26T15:11:17Z</time>
      </trkpt>
      <trkpt lat="46.95301" lon="5.98316">
        <ele>856.8</ele>
        <time>2020-12-26T15:11:18Z</time>
      </trkpt>
      <trkpt lat="46.95295" lon="5.98311">
        <ele>856.8</ele>
        <time>2020-12-26T15:11:19Z</time>
      </trkpt>
      <trkpt lat="46.95291" lon="5.98305">
        <ele>856.8</ele>
        <time>2020-12-26T15:11:20Z</time>
      </trkpt>
      <trkpt lat="46.95286" lon="5.983">
        <ele>857.2</ele>
        <time>2020-12-26T15:11:21Z</time>
      </trkpt>
      <trkpt lat="46.95282" lon="5.98295">
        <ele>857.2</ele>
        <time>2020-12-26T15:11:22Z</time>
      </trkpt>
      <trkpt lat="46.95278" lon="5.9829">
        <ele>857.2</ele>
        <time>2020-12-26T15:11:23Z</time>
      </trkpt>
      <trkpt lat="46.95274" lon="5.98285">
        <ele>857.6</ele>
        <time>2020-12-26T15:11:24Z</time>
      </trkpt>
      <trkpt lat="46.95271" lon="5.98279">
        <ele>858</ele>
        <time>2020-12-26T15:11:25Z</time>
      </trkpt>
      <trkpt lat="46.95267" lon="5.98273">
        <ele>858.2</ele>
        <time>2020-12-26T15:11:26Z</time>
      </trkpt>
      <trkpt lat="46.95265" lon="5.98267">
        <ele>858.6</ele>
        <time>2020-12-26T15:11:27Z</time>
      </trkpt>
      <trkpt lat="46.95262" lon="5.98261">
        <ele>858.8</ele>
        <time>2020-12-26T15:11:28Z</time>
      </trkpt>
      <trkpt lat="46.95259" lon="5.98255">
        <ele>859</ele>
        <time>2020-12-26T15:11:29Z</time>
      </trkpt>
      <trkpt lat="46.95257" lon="5.98249">
        <ele>859</ele>
        <time>2020-12-26T15:11:30Z</time>
      </trkpt>
      <trkpt lat="46.95254" lon="5.98243">
        <ele>859.2</ele>
        <time>2020-12-26T15:11:31Z</time>
      </trkpt>
      <trkpt lat="46.95251" lon="5.98237">
        <ele>859.2</ele>
        <time>2020-12-26T15:11:32Z</time>
      </trkpt>
      <trkpt lat="46.95248" lon="5.98231">
        <ele>859.2</ele>
        <time>2020-12-26T15:11:33Z</time>
      </trkpt>
      <trkpt lat="46.95245" lon="5.98225">
        <ele>859.6</ele>
        <time>2020-12-26T15:11:34Z</time>
      </trkpt>
      <trkpt lat="46.95242" lon="5.98218">
        <ele>859.6</ele>
        <time>2020-12-26T15:11:35Z</time>
      </trkpt>
      <trkpt lat="46.95239" lon="5.98212">
        <ele>859.6</ele>
        <time>2020-12-26T15:11:36Z</time>
      </trkpt>
      <trkpt lat="46.95236" lon="5.98206">
        <ele>859.6</ele>
        <time>2020-12-26T15:11:37Z</time>
      </trkpt>
      <trkpt lat="46.95233" lon="5.98199">
        <ele>859.6</ele>
        <time>2020-12-26T15:11:38Z</time>
      </trkpt>
      <trkpt lat="46.9523" lon="5.98192">
        <ele>859.6</ele>
        <time>2020-12-26T15:11:39Z</time>
      </trkpt>
      <trkpt lat="46.95226" lon="5.98185">
        <ele>859.6</ele>
        <time>2020-12-26T15:11:40Z</time>
      </trkpt>
      <trkpt lat="46.95223" lon="5.98178">
        <ele>859.6</ele>
        <time>2020-12-26T15:11:41Z</time>
      </trkpt>
      <trkpt lat="46.9522" lon="5.98171">
        <ele>859.6</ele>
        <time>2020-12-26T15:11:42Z</time>
      </trkpt>
      <trkpt lat="46.95217" lon="5.98164">
        <ele>859.6</ele>
        <time>2020-12-26T15:11:43Z</time>
      </trkpt>
      <trkpt lat="46.95214" lon="5.98156">
        <ele>859.6</ele>
        <time>2020-12-26T15:11:44Z</time>
      </trkpt>
      <trkpt lat="46.95211" lon="5.98148">
        <ele>859.6</ele>
        <time>2020-12-26T15:11:45Z</time>
      </trkpt>
      <trkpt lat="46.95208" lon="5.98141">
        <ele>859.6</ele>
        <time>2020-12-26T15:11:46Z</time>
      </trkpt>
      <trkpt lat="46.95205" lon="5.98134">
        <ele>859.6</ele>
        <time>2020-12-26T15:11:47Z</time>
      </trkpt>
      <trkpt lat="46.95202" lon="5.98127">
        <ele>859.8</ele>
        <time>2020-12-26T15:11:48Z</time>
      </trkpt>
      <trkpt lat="46.95199" lon="5.9812">
        <ele>859.8</ele>
        <time>2020-12-26T15:11:49Z</time>
      </trkpt>
      <trkpt lat="46.95197" lon="5.98115">
        <ele>860.2</ele>
        <time>2020-12-26T15:11:50Z</time>
      </trkpt>
      <trkpt lat="46.95194" lon="5.9811">
        <ele>860.4</ele>
        <time>2020-12-26T15:11:51Z</time>
      </trkpt>
      <trkpt lat="46.95191" lon="5.98105">
        <ele>860.6</ele>
        <time>2020-12-26T15:11:52Z</time>
      </trkpt>
      <trkpt lat="46.95189" lon="5.98099">
        <ele>860.8</ele>
        <time>2020-12-26T15:11:53Z</time>
      </trkpt>
      <trkpt lat="46.95186" lon="5.98094">
        <ele>860.8</ele>
        <time>2020-12-26T15:11:54Z</time>
      </trkpt>
      <trkpt lat="46.95184" lon="5.98088">
        <ele>861.4</ele>
        <time>2020-12-26T15:11:55Z</time>
      </trkpt>
      <trkpt lat="46.95181" lon="5.98083">
        <ele>861.6</ele>
        <time>2020-12-26T15:11:56Z</time>
      </trkpt>
      <trkpt lat="46.95178" lon="5.98077">
        <ele>861.6</ele>
        <time>2020-12-26T15:11:57Z</time>
      </trkpt>
      <trkpt lat="46.95175" lon="5.98072">
        <ele>861.6</ele>
        <time>2020-12-26T15:11:58Z</time>
      </trkpt>
      <trkpt lat="46.95172" lon="5.98066">
        <ele>861.8</ele>
        <time>2020-12-26T15:11:59Z</time>
      </trkpt>
      <trkpt lat="46.95168" lon="5.9806">
        <ele>861.8</ele>
        <time>2020-12-26T15:12:00Z</time>
      </trkpt>
      <trkpt lat="46.95165" lon="5.98055">
        <ele>861.8</ele>
        <time>2020-12-26T15:12:01Z</time>
      </trkpt>
      <trkpt lat="46.95161" lon="5.98048">
        <ele>861.8</ele>
        <time>2020-12-26T15:12:02Z</time>
      </trkpt>
      <trkpt lat="46.95158" lon="5.98041">
        <ele>861.8</ele>
        <time>2020-12-26T15:12:03Z</time>
      </trkpt>
      <trkpt lat="46.95154" lon="5.98035">
        <ele>861.8</ele>
        <time>2020-12-26T15:12:04Z</time>
      </trkpt>
      <trkpt lat="46.9515" lon="5.98028">
        <ele>861.8</ele>
        <time>2020-12-26T15:12:05Z</time>
      </trkpt>
      <trkpt lat="46.95147" lon="5.98022">
        <ele>861.8</ele>
        <time>2020-12-26T15:12:06Z</time>
      </trkpt>
      <trkpt lat="46.95143" lon="5.98015">
        <ele>861.8</ele>
        <time>2020-12-26T15:12:07Z</time>
      </trkpt>
      <trkpt lat="46.95139" lon="5.98009">
        <ele>861.8</ele>
        <time>2020-12-26T15:12:08Z</time>
      </trkpt>
      <trkpt lat="46.95136" lon="5.98003">
        <ele>861.8</ele>
        <time>2020-12-26T15:12:09Z</time>
      </trkpt>
      <trkpt lat="46.95132" lon="5.97997">
        <ele>862.2</ele>
        <time>2020-12-26T15:12:10Z</time>
      </trkpt>
      <trkpt lat="46.95129" lon="5.97992">
        <ele>862.2</ele>
        <time>2020-12-26T15:12:11Z</time>
      </trkpt>
      <trkpt lat="46.95125" lon="5.97987">
        <ele>862.4</ele>
        <time>2020-12-26T15:12:12Z</time>
      </trkpt>
      <trkpt lat="46.95121" lon="5.97982">
        <ele>862.4</ele>
        <time>2020-12-26T15:12:13Z</time>
      </trkpt>
      <trkpt lat="46.95117" lon="5.97977">
        <ele>862.8</ele>
        <time>2020-12-26T15:12:14Z</time>
      </trkpt>
      <trkpt lat="46.95114" lon="5.97972">
        <ele>862.8</ele>
        <time>2020-12-26T15:12:15Z</time>
      </trkpt>
      <trkpt lat="46.9511" lon="5.97967">
        <ele>862.8</ele>
        <time>2020-12-26T15:12:16Z</time>
      </trkpt>
      <trkpt lat="46.95107" lon="5.97962">
        <ele>863.2</ele>
        <time>2020-12-26T15:12:17Z</time>
      </trkpt>
      <trkpt lat="46.95104" lon="5.97957">
        <ele>863.2</ele>
        <time>2020-12-26T15:12:18Z</time>
      </trkpt>
      <trkpt lat="46.951" lon="5.97953">
        <ele>863.6</ele>
        <time>2020-12-26T15:12:19Z</time>
      </trkpt>
      <trkpt lat="46.95097" lon="5.97948">
        <ele>863.6</ele>
        <time>2020-12-26T15:12:20Z</time>
      </trkpt>
      <trkpt lat="46.95093" lon="5.97943">
        <ele>864</ele>
        <time>2020-12-26T15:12:21Z</time>
      </trkpt>
      <trkpt lat="46.95089" lon="5.97938">
        <ele>864</ele>
        <time>2020-12-26T15:12:22Z</time>
      </trkpt>
      <trkpt lat="46.95084" lon="5.97933">
        <ele>864.2</ele>
        <time>2020-12-26T15:12:23Z</time>
      </trkpt>
      <trkpt lat="46.9508" lon="5.97928">
        <ele>864.2</ele>
        <time>2020-12-26T15:12:24Z</time>
      </trkpt>
      <trkpt lat="46.95075" lon="5.97923">
        <ele>864.2</ele>
        <time>2020-12-26T15:12:25Z</time>
      </trkpt>
      <trkpt lat="46.95071" lon="5.97918">
        <ele>864.2</ele>
        <time>2020-12-26T15:12:26Z</time>
      </trkpt>
      <trkpt lat="46.95066" lon="5.97914">
        <ele>864.2</ele>
        <time>2020-12-26T15:12:27Z</time>
      </trkpt>
      <trkpt lat="46.95061" lon="5.9791">
        <ele>864.4</ele>
        <time>2020-12-26T15:12:28Z</time>
      </trkpt>
      <trkpt lat="46.95056" lon="5.97906">
        <ele>864.4</ele>
        <time>2020-12-26T15:12:29Z</time>
      </trkpt>
      <trkpt lat="46.95051" lon="5.97902">
        <ele>864.8</ele>
        <time>2020-12-26T15:12:30Z</time>
      </trkpt>
      <trkpt lat="46.95046" lon="5.97899">
        <ele>865</ele>
        <time>2020-12-26T15:12:31Z</time>
      </trkpt>
      <trkpt lat="46.95042" lon="5.97895">
        <ele>865.4</ele>
        <time>2020-12-26T15:12:32Z</time>
      </trkpt>
      <trkpt lat="46.95037" lon="5.97892">
        <ele>865.6</ele>
        <time>2020-12-26T15:12:33Z</time>
      </trkpt>
      <trkpt lat="46.95033" lon="5.97888">
        <ele>865.8</ele>
        <time>2020-12-26T15:12:34Z</time>
      </trkpt>
      <trkpt lat="46.95029" lon="5.97884">
        <ele>865.8</ele>
        <time>2020-12-26T15:12:35Z</time>
      </trkpt>
      <trkpt lat="46.95025" lon="5.97879">
        <ele>866.2</ele>
        <time>2020-12-26T15:12:36Z</time>
      </trkpt>
      <trkpt lat="46.95021" lon="5.97874">
        <ele>866.2</ele>
        <time>2020-12-26T15:12:37Z</time>
      </trkpt>
      <trkpt lat="46.95017" lon="5.97869">
        <ele>866.6</ele>
        <time>2020-12-26T15:12:38Z</time>
      </trkpt>
      <trkpt lat="46.95013" lon="5.97864">
        <ele>866.6</ele>
        <time>2020-12-26T15:12:39Z</time>
      </trkpt>
      <trkpt lat="46.95009" lon="5.97859">
        <ele>866.8</ele>
        <time>2020-12-26T15:12:40Z</time>
      </trkpt>
      <trkpt lat="46.95006" lon="5.97854">
        <ele>866.8</ele>
        <time>2020-12-26T15:12:41Z</time>
      </trkpt>
      <trkpt lat="46.95002" lon="5.97849">
        <ele>866.8</ele>
        <time>2020-12-26T15:12:42Z</time>
      </trkpt>
      <trkpt lat="46.94998" lon="5.97843">
        <ele>866.8</ele>
        <time>2020-12-26T15:12:43Z</time>
      </trkpt>
      <trkpt lat="46.94994" lon="5.97837">
        <ele>866.8</ele>
        <time>2020-12-26T15:12:44Z</time>
      </trkpt>
      <trkpt lat="46.9499" lon="5.97831">
        <ele>866.8</ele>
        <time>2020-12-26T15:12:45Z</time>
      </trkpt>
      <trkpt lat="46.94986" lon="5.97824">
        <ele>866.8</ele>
        <time>2020-12-26T15:12:46Z</time>
      </trkpt>
      <trkpt lat="46.94982" lon="5.97817">
        <ele>866.6</ele>
        <time>2020-12-26T15:12:47Z</time>
      </trkpt>
      <trkpt lat="46.94977" lon="5.9781">
        <ele>866.4</ele>
        <time>2020-12-26T15:12:48Z</time>
      </trkpt>
      <trkpt lat="46.94972" lon="5.97803">
        <ele>866</ele>
        <time>2020-12-26T15:12:49Z</time>
      </trkpt>
      <trkpt lat="46.94967" lon="5.97796">
        <ele>866</ele>
        <time>2020-12-26T15:12:50Z</time>
      </trkpt>
      <trkpt lat="46.94961" lon="5.97789">
        <ele>865.6</ele>
        <time>2020-12-26T15:12:51Z</time>
      </trkpt>
      <trkpt lat="46.94956" lon="5.97782">
        <ele>865.4</ele>
        <time>2020-12-26T15:12:52Z</time>
      </trkpt>
      <trkpt lat="46.9495" lon="5.97776">
        <ele>865.4</ele>
        <time>2020-12-26T15:12:53Z</time>
      </trkpt>
      <trkpt lat="46.94944" lon="5.9777">
        <ele>865.2</ele>
        <time>2020-12-26T15:12:54Z</time>
      </trkpt>
      <trkpt lat="46.94938" lon="5.97763">
        <ele>865.2</ele>
        <time>2020-12-26T15:12:55Z</time>
      </trkpt>
      <trkpt lat="46.94932" lon="5.97757">
        <ele>865.2</ele>
        <time>2020-12-26T15:12:56Z</time>
      </trkpt>
      <trkpt lat="46.94927" lon="5.9775">
        <ele>865.2</ele>
        <time>2020-12-26T15:12:57Z</time>
      </trkpt>
      <trkpt lat="46.94922" lon="5.97744">
        <ele>865.2</ele>
        <time>2020-12-26T15:12:58Z</time>
      </trkpt>
      <trkpt lat="46.94917" lon="5.97738">
        <ele>865.2</ele>
        <time>2020-12-26T15:12:59Z</time>
      </trkpt>
      <trkpt lat="46.94912" lon="5.97732">
        <ele>865.4</ele>
        <time>2020-12-26T15:13:00Z</time>
      </trkpt>
      <trkpt lat="46.94908" lon="5.97726">
        <ele>865.4</ele>
        <time>2020-12-26T15:13:01Z</time>
      </trkpt>
      <trkpt lat="46.94903" lon="5.97719">
        <ele>865.4</ele>
        <time>2020-12-26T15:13:02Z</time>
      </trkpt>
      <trkpt lat="46.94898" lon="5.97713">
        <ele>865.6</ele>
        <time>2020-12-26T15:13:03Z</time>
      </trkpt>
      <trkpt lat="46.94894" lon="5.97707">
        <ele>865.6</ele>
        <time>2020-12-26T15:13:04Z</time>
      </trkpt>
      <trkpt lat="46.94889" lon="5.97702">
        <ele>866</ele>
        <time>2020-12-26T15:13:05Z</time>
      </trkpt>
      <trkpt lat="46.94885" lon="5.97697">
        <ele>866.4</ele>
        <time>2020-12-26T15:13:06Z</time>
      </trkpt>
      <trkpt lat="46.94882" lon="5.97692">
        <ele>866.6</ele>
        <time>2020-12-26T15:13:07Z</time>
      </trkpt>
      <trkpt lat="46.94878" lon="5.97687">
        <ele>866.6</ele>
        <time>2020-12-26T15:13:08Z</time>
      </trkpt>
      <trkpt lat="46.94875" lon="5.97683">
        <ele>867</ele>
        <time>2020-12-26T15:13:09Z</time>
      </trkpt>
      <trkpt lat="46.94871" lon="5.97678">
        <ele>867.2</ele>
        <time>2020-12-26T15:13:10Z</time>
      </trkpt>
      <trkpt lat="46.94868" lon="5.97672">
        <ele>867.6</ele>
        <time>2020-12-26T15:13:11Z</time>
      </trkpt>
      <trkpt lat="46.94864" lon="5.97668">
        <ele>867.6</ele>
        <time>2020-12-26T15:13:12Z</time>
      </trkpt>
      <trkpt lat="46.9486" lon="5.97663">
        <ele>868</ele>
        <time>2020-12-26T15:13:13Z</time>
      </trkpt>
      <trkpt lat="46.94855" lon="5.97658">
        <ele>868.2</ele>
        <time>2020-12-26T15:13:14Z</time>
      </trkpt>
      <trkpt lat="46.94851" lon="5.97652">
        <ele>868.2</ele>
        <time>2020-12-26T15:13:15Z</time>
      </trkpt>
      <trkpt lat="46.94847" lon="5.97647">
        <ele>868.6</ele>
        <time>2020-12-26T15:13:16Z</time>
      </trkpt>
      <trkpt lat="46.94844" lon="5.97641">
        <ele>868.6</ele>
        <time>2020-12-26T15:13:17Z</time>
      </trkpt>
      <trkpt lat="46.9484" lon="5.97636">
        <ele>868.8</ele>
        <time>2020-12-26T15:13:18Z</time>
      </trkpt>
      <trkpt lat="46.94836" lon="5.97631">
        <ele>868.8</ele>
        <time>2020-12-26T15:13:19Z</time>
      </trkpt>
      <trkpt lat="46.94832" lon="5.97626">
        <ele>869.2</ele>
        <time>2020-12-26T15:13:20Z</time>
      </trkpt>
      <trkpt lat="46.94828" lon="5.9762">
        <ele>869.2</ele>
        <time>2020-12-26T15:13:21Z</time>
      </trkpt>
      <trkpt lat="46.94824" lon="5.97615">
        <ele>869.2</ele>
        <time>2020-12-26T15:13:22Z</time>
      </trkpt>
      <trkpt lat="46.94819" lon="5.9761">
        <ele>869.2</ele>
        <time>2020-12-26T15:13:23Z</time>
      </trkpt>
      <trkpt lat="46.94815" lon="5.97605">
        <ele>869.2</ele>
        <time>2020-12-26T15:13:24Z</time>
      </trkpt>
      <trkpt lat="46.9481" lon="5.976">
        <ele>869.2</ele>
        <time>2020-12-26T15:13:25Z</time>
      </trkpt>
      <trkpt lat="46.94805" lon="5.97594">
        <ele>869.2</ele>
        <time>2020-12-26T15:13:26Z</time>
      </trkpt>
      <trkpt lat="46.948" lon="5.97589">
        <ele>869</ele>
        <time>2020-12-26T15:13:27Z</time>
      </trkpt>
      <trkpt lat="46.94795" lon="5.97584">
        <ele>869</ele>
        <time>2020-12-26T15:13:28Z</time>
      </trkpt>
      <trkpt lat="46.9479" lon="5.97579">
        <ele>868.6</ele>
        <time>2020-12-26T15:13:29Z</time>
      </trkpt>
      <trkpt lat="46.94784" lon="5.97573">
        <ele>868.4</ele>
        <time>2020-12-26T15:13:30Z</time>
      </trkpt>
      <trkpt lat="46.94778" lon="5.97567">
        <ele>868</ele>
        <time>2020-12-26T15:13:31Z</time>
      </trkpt>
      <trkpt lat="46.94772" lon="5.97561">
        <ele>867.8</ele>
        <time>2020-12-26T15:13:32Z</time>
      </trkpt>
      <trkpt lat="46.94766" lon="5.97555">
        <ele>867.4</ele>
        <time>2020-12-26T15:13:33Z</time>
      </trkpt>
      <trkpt lat="46.94759" lon="5.97548">
        <ele>866.8</ele>
        <time>2020-12-26T15:13:34Z</time>
      </trkpt>
      <trkpt lat="46.94752" lon="5.97541">
        <ele>866.4</ele>
        <time>2020-12-26T15:13:35Z</time>
      </trkpt>
      <trkpt lat="46.94745" lon="5.97534">
        <ele>865.8</ele>
        <time>2020-12-26T15:13:36Z</time>
      </trkpt>
      <trkpt lat="46.94737" lon="5.97526">
        <ele>865.4</ele>
        <time>2020-12-26T15:13:37Z</time>
      </trkpt>
      <trkpt lat="46.9473" lon="5.97519">
        <ele>865.2</ele>
        <time>2020-12-26T15:13:38Z</time>
      </trkpt>
      <trkpt lat="46.94723" lon="5.97511">
        <ele>865</ele>
        <time>2020-12-26T15:13:39Z</time>
      </trkpt>
      <trkpt lat="46.94716" lon="5.97503">
        <ele>864.8</ele>
        <time>2020-12-26T15:13:40Z</time>
      </trkpt>
      <trkpt lat="46.94709" lon="5.97496">
        <ele>864.8</ele>
        <time>2020-12-26T15:13:41Z</time>
      </trkpt>
      <trkpt lat="46.94703" lon="5.97488">
        <ele>864.4</ele>
        <time>2020-12-26T15:13:42Z</time>
      </trkpt>
      <trkpt lat="46.94696" lon="5.97481">
        <ele>864.4</ele>
        <time>2020-12-26T15:13:43Z</time>
      </trkpt>
      <trkpt lat="46.9469" lon="5.97473">
        <ele>864.4</ele>
        <time>2020-12-26T15:13:44Z</time>
      </trkpt>
      <trkpt lat="46.94683" lon="5.97466">
        <ele>864.2</ele>
        <time>2020-12-26T15:13:45Z</time>
      </trkpt>
      <trkpt lat="46.94676" lon="5.97459">
        <ele>864.2</ele>
        <time>2020-12-26T15:13:46Z</time>
      </trkpt>
      <trkpt lat="46.9467" lon="5.97453">
        <ele>864.2</ele>
        <time>2020-12-26T15:13:47Z</time>
      </trkpt>
      <trkpt lat="46.94663" lon="5.97448">
        <ele>864.2</ele>
        <time>2020-12-26T15:13:48Z</time>
      </trkpt>
      <trkpt lat="46.94657" lon="5.97443">
        <ele>864.6</ele>
        <time>2020-12-26T15:13:49Z</time>
      </trkpt>
      <trkpt lat="46.94651" lon="5.9744">
        <ele>864.8</ele>
        <time>2020-12-26T15:13:50Z</time>
      </trkpt>
      <trkpt lat="46.94646" lon="5.97437">
        <ele>865.2</ele>
        <time>2020-12-26T15:13:51Z</time>
      </trkpt>
      <trkpt lat="46.94641" lon="5.97434">
        <ele>865.6</ele>
        <time>2020-12-26T15:13:52Z</time>
      </trkpt>
      <trkpt lat="46.94636" lon="5.97432">
        <ele>866</ele>
        <time>2020-12-26T15:13:53Z</time>
      </trkpt>
      <trkpt lat="46.94632" lon="5.9743">
        <ele>866.2</ele>
        <time>2020-12-26T15:13:54Z</time>
      </trkpt>
      <trkpt lat="46.94628" lon="5.97428">
        <ele>866.6</ele>
        <time>2020-12-26T15:13:55Z</time>
      </trkpt>
      <trkpt lat="46.94624" lon="5.97426">
        <ele>866.8</ele>
        <time>2020-12-26T15:13:56Z</time>
      </trkpt>
      <trkpt lat="46.9462" lon="5.97424">
        <ele>866.8</ele>
        <time>2020-12-26T15:13:57Z</time>
      </trkpt>
      <trkpt lat="46.94615" lon="5.97422">
        <ele>867</ele>
        <time>2020-12-26T15:13:58Z</time>
      </trkpt>
      <trkpt lat="46.9461" lon="5.97421">
        <ele>867</ele>
        <time>2020-12-26T15:13:59Z</time>
      </trkpt>
      <trkpt lat="46.94606" lon="5.97419">
        <ele>867.4</ele>
        <time>2020-12-26T15:14:00Z</time>
      </trkpt>
      <trkpt lat="46.94601" lon="5.97418">
        <ele>867.6</ele>
        <time>2020-12-26T15:14:01Z</time>
      </trkpt>
      <trkpt lat="46.94597" lon="5.97417">
        <ele>867.6</ele>
        <time>2020-12-26T15:14:02Z</time>
      </trkpt>
      <trkpt lat="46.94592" lon="5.97416">
        <ele>868</ele>
        <time>2020-12-26T15:14:03Z</time>
      </trkpt>
      <trkpt lat="46.94588" lon="5.97415">
        <ele>868</ele>
        <time>2020-12-26T15:14:04Z</time>
      </trkpt>
      <trkpt lat="46.94584" lon="5.97414">
        <ele>868.2</ele>
        <time>2020-12-26T15:14:05Z</time>
      </trkpt>
      <trkpt lat="46.9458" lon="5.97413">
        <ele>868.2</ele>
        <time>2020-12-26T15:14:06Z</time>
      </trkpt>
      <trkpt lat="46.94575" lon="5.97412">
        <ele>868.6</ele>
        <time>2020-12-26T15:14:07Z</time>
      </trkpt>
      <trkpt lat="46.94571" lon="5.97412">
        <ele>868.6</ele>
        <time>2020-12-26T15:14:08Z</time>
      </trkpt>
      <trkpt lat="46.94566" lon="5.97411">
        <ele>868.6</ele>
        <time>2020-12-26T15:14:09Z</time>
      </trkpt>
      <trkpt lat="46.94562" lon="5.9741">
        <ele>868.8</ele>
        <time>2020-12-26T15:14:10Z</time>
      </trkpt>
      <trkpt lat="46.94557" lon="5.97409">
        <ele>868.8</ele>
        <time>2020-12-26T15:14:11Z</time>
      </trkpt>
      <trkpt lat="46.94552" lon="5.97408">
        <ele>868.8</ele>
        <time>2020-12-26T15:14:12Z</time>
      </trkpt>
      <trkpt lat="46.94547" lon="5.97407">
        <ele>868.8</ele>
        <time>2020-12-26T15:14:13Z</time>
      </trkpt>
      <trkpt lat="46.94542" lon="5.97406">
        <ele>868.8</ele>
        <time>2020-12-26T15:14:14Z</time>
      </trkpt>
      <trkpt lat="46.94537" lon="5.97405">
        <ele>868.8</ele>
        <time>2020-12-26T15:14:15Z</time>
      </trkpt>
      <trkpt lat="46.94531" lon="5.97404">
        <ele>868.8</ele>
        <time>2020-12-26T15:14:16Z</time>
      </trkpt>
      <trkpt lat="46.94526" lon="5.97403">
        <ele>868.8</ele>
        <time>2020-12-26T15:14:17Z</time>
      </trkpt>
      <trkpt lat="46.94521" lon="5.97402">
        <ele>869</ele>
        <time>2020-12-26T15:14:18Z</time>
      </trkpt>
      <trkpt lat="46.94515" lon="5.974">
        <ele>869</ele>
        <time>2020-12-26T15:14:19Z</time>
      </trkpt>
      <trkpt lat="46.9451" lon="5.97399">
        <ele>869</ele>
        <time>2020-12-26T15:14:20Z</time>
      </trkpt>
      <trkpt lat="46.94505" lon="5.97398">
        <ele>869</ele>
        <time>2020-12-26T15:14:21Z</time>
      </trkpt>
      <trkpt lat="46.94499" lon="5.97396">
        <ele>869</ele>
        <time>2020-12-26T15:14:22Z</time>
      </trkpt>
      <trkpt lat="46.94494" lon="5.97395">
        <ele>869.2</ele>
        <time>2020-12-26T15:14:23Z</time>
      </trkpt>
      <trkpt lat="46.94489" lon="5.97393">
        <ele>869.2</ele>
        <time>2020-12-26T15:14:24Z</time>
      </trkpt>
      <trkpt lat="46.94483" lon="5.97392">
        <ele>869.2</ele>
        <time>2020-12-26T15:14:25Z</time>
      </trkpt>
      <trkpt lat="46.94478" lon="5.9739">
        <ele>869.2</ele>
        <time>2020-12-26T15:14:26Z</time>
      </trkpt>
      <trkpt lat="46.94472" lon="5.97388">
        <ele>869.2</ele>
        <time>2020-12-26T15:14:27Z</time>
      </trkpt>
      <trkpt lat="46.94466" lon="5.97387">
        <ele>869.2</ele>
        <time>2020-12-26T15:14:28Z</time>
      </trkpt>
      <trkpt lat="46.9446" lon="5.97385">
        <ele>869</ele>
        <time>2020-12-26T15:14:29Z</time>
      </trkpt>
      <trkpt lat="46.94454" lon="5.97383">
        <ele>869</ele>
        <time>2020-12-26T15:14:30Z</time>
      </trkpt>
      <trkpt lat="46.94448" lon="5.97381">
        <ele>869</ele>
        <time>2020-12-26T15:14:31Z</time>
      </trkpt>
      <trkpt lat="46.94442" lon="5.97379">
        <ele>868.8</ele>
        <time>2020-12-26T15:14:32Z</time>
      </trkpt>
      <trkpt lat="46.94436" lon="5.97377">
        <ele>868.8</ele>
        <time>2020-12-26T15:14:33Z</time>
      </trkpt>
      <trkpt lat="46.9443" lon="5.97375">
        <ele>868.4</ele>
        <time>2020-12-26T15:14:34Z</time>
      </trkpt>
      <trkpt lat="46.94424" lon="5.97373">
        <ele>868.4</ele>
        <time>2020-12-26T15:14:35Z</time>
      </trkpt>
      <trkpt lat="46.94418" lon="5.97371">
        <ele>868.4</ele>
        <time>2020-12-26T15:14:36Z</time>
      </trkpt>
      <trkpt lat="46.94412" lon="5.97368">
        <ele>868.4</ele>
        <time>2020-12-26T15:14:37Z</time>
      </trkpt>
      <trkpt lat="46.94407" lon="5.97366">
        <ele>868.4</ele>
        <time>2020-12-26T15:14:38Z</time>
      </trkpt>
      <trkpt lat="46.94401" lon="5.97364">
        <ele>868.8</ele>
        <time>2020-12-26T15:14:39Z</time>
      </trkpt>
      <trkpt lat="46.94396" lon="5.97362">
        <ele>868.8</ele>
        <time>2020-12-26T15:14:40Z</time>
      </trkpt>
      <trkpt lat="46.94391" lon="5.97359">
        <ele>868.8</ele>
        <time>2020-12-26T15:14:41Z</time>
      </trkpt>
      <trkpt lat="46.94386" lon="5.97357">
        <ele>868.8</ele>
        <time>2020-12-26T15:14:42Z</time>
      </trkpt>
      <trkpt lat="46.9438" lon="5.97355">
        <ele>868.8</ele>
        <time>2020-12-26T15:14:43Z</time>
      </trkpt>
      <trkpt lat="46.94375" lon="5.97353">
        <ele>868.8</ele>
        <time>2020-12-26T15:14:44Z</time>
      </trkpt>
      <trkpt lat="46.94371" lon="5.97351">
        <ele>868.8</ele>
        <time>2020-12-26T15:14:45Z</time>
      </trkpt>
      <trkpt lat="46.94366" lon="5.97348">
        <ele>868.4</ele>
        <time>2020-12-26T15:14:46Z</time>
      </trkpt>
      <trkpt lat="46.9436" lon="5.97346">
        <ele>868.4</ele>
        <time>2020-12-26T15:14:47Z</time>
      </trkpt>
      <trkpt lat="46.94355" lon="5.97343">
        <ele>868.2</ele>
        <time>2020-12-26T15:14:48Z</time>
      </trkpt>
      <trkpt lat="46.94349" lon="5.9734">
        <ele>868.2</ele>
        <time>2020-12-26T15:14:49Z</time>
      </trkpt>
      <trkpt lat="46.94343" lon="5.97336">
        <ele>868.2</ele>
        <time>2020-12-26T15:14:50Z</time>
      </trkpt>
      <trkpt lat="46.94338" lon="5.97331">
        <ele>868.2</ele>
        <time>2020-12-26T15:14:51Z</time>
      </trkpt>
      <trkpt lat="46.94333" lon="5.97326">
        <ele>868.2</ele>
        <time>2020-12-26T15:14:52Z</time>
      </trkpt>
      <trkpt lat="46.94329" lon="5.97322">
        <ele>868.6</ele>
        <time>2020-12-26T15:14:53Z</time>
      </trkpt>
      <trkpt lat="46.94324" lon="5.97317">
        <ele>868.6</ele>
        <time>2020-12-26T15:14:54Z</time>
      </trkpt>
      <trkpt lat="46.9432" lon="5.97313">
        <ele>868.6</ele>
        <time>2020-12-26T15:14:55Z</time>
      </trkpt>
      <trkpt lat="46.94316" lon="5.97308">
        <ele>868.8</ele>
        <time>2020-12-26T15:14:56Z</time>
      </trkpt>
      <trkpt lat="46.94311" lon="5.97304">
        <ele>868.8</ele>
        <time>2020-12-26T15:14:57Z</time>
      </trkpt>
      <trkpt lat="46.94307" lon="5.97301">
        <ele>868.8</ele>
        <time>2020-12-26T15:14:58Z</time>
      </trkpt>
      <trkpt lat="46.94303" lon="5.97297">
        <ele>869</ele>
        <time>2020-12-26T15:14:59Z</time>
      </trkpt>
      <trkpt lat="46.94298" lon="5.97292">
        <ele>869</ele>
        <time>2020-12-26T15:15:00Z</time>
      </trkpt>
      <trkpt lat="46.94293" lon="5.97289">
        <ele>869</ele>
        <time>2020-12-26T15:15:01Z</time>
      </trkpt>
      <trkpt lat="46.94288" lon="5.97286">
        <ele>869</ele>
        <time>2020-12-26T15:15:02Z</time>
      </trkpt>
      <trkpt lat="46.94282" lon="5.97283">
        <ele>869</ele>
        <time>2020-12-26T15:15:03Z</time>
      </trkpt>
      <trkpt lat="46.94277" lon="5.97281">
        <ele>869</ele>
        <time>2020-12-26T15:15:04Z</time>
      </trkpt>
      <trkpt lat="46.94271" lon="5.97278">
        <ele>868.8</ele>
        <time>2020-12-26T15:15:05Z</time>
      </trkpt>
      <trkpt lat="46.94265" lon="5.97276">
        <ele>868.8</ele>
        <time>2020-12-26T15:15:06Z</time>
      </trkpt>
      <trkpt lat="46.94259" lon="5.97274">
        <ele>868.8</ele>
        <time>2020-12-26T15:15:07Z</time>
      </trkpt>
      <trkpt lat="46.94254" lon="5.97272">
        <ele>868.6</ele>
        <time>2020-12-26T15:15:08Z</time>
      </trkpt>
      <trkpt lat="46.94248" lon="5.9727">
        <ele>868.6</ele>
        <time>2020-12-26T15:15:09Z</time>
      </trkpt>
      <trkpt lat="46.94242" lon="5.97267">
        <ele>868.2</ele>
        <time>2020-12-26T15:15:10Z</time>
      </trkpt>
      <trkpt lat="46.94236" lon="5.97265">
        <ele>868.2</ele>
        <time>2020-12-26T15:15:11Z</time>
      </trkpt>
      <trkpt lat="46.94229" lon="5.97263">
        <ele>868</ele>
        <time>2020-12-26T15:15:12Z</time>
      </trkpt>
      <trkpt lat="46.94223" lon="5.97262">
        <ele>868</ele>
        <time>2020-12-26T15:15:13Z</time>
      </trkpt>
      <trkpt lat="46.94216" lon="5.97261">
        <ele>867.6</ele>
        <time>2020-12-26T15:15:14Z</time>
      </trkpt>
      <trkpt lat="46.94209" lon="5.97259">
        <ele>867.4</ele>
        <time>2020-12-26T15:15:15Z</time>
      </trkpt>
      <trkpt lat="46.94202" lon="5.97259">
        <ele>867.2</ele>
        <time>2020-12-26T15:15:16Z</time>
      </trkpt>
      <trkpt lat="46.94196" lon="5.97259">
        <ele>866.8</ele>
        <time>2020-12-26T15:15:17Z</time>
      </trkpt>
      <trkpt lat="46.94189" lon="5.97258">
        <ele>866.8</ele>
        <time>2020-12-26T15:15:18Z</time>
      </trkpt>
      <trkpt lat="46.94181" lon="5.97259">
        <ele>866.4</ele>
        <time>2020-12-26T15:15:19Z</time>
      </trkpt>
      <trkpt lat="46.94173" lon="5.97259">
        <ele>866.2</ele>
        <time>2020-12-26T15:15:20Z</time>
      </trkpt>
      <trkpt lat="46.94165" lon="5.97259">
        <ele>865.8</ele>
        <time>2020-12-26T15:15:21Z</time>
      </trkpt>
      <trkpt lat="46.94157" lon="5.97258">
        <ele>865.4</ele>
        <time>2020-12-26T15:15:22Z</time>
      </trkpt>
      <trkpt lat="46.94149" lon="5.97257">
        <ele>865</ele>
        <time>2020-12-26T15:15:23Z</time>
      </trkpt>
      <trkpt lat="46.9414" lon="5.97254">
        <ele>864.6</ele>
        <time>2020-12-26T15:15:24Z</time>
      </trkpt>
      <trkpt lat="46.94132" lon="5.97251">
        <ele>864.2</ele>
        <time>2020-12-26T15:15:25Z</time>
      </trkpt>
      <trkpt lat="46.94124" lon="5.97247">
        <ele>864</ele>
        <time>2020-12-26T15:15:26Z</time>
      </trkpt>
      <trkpt lat="46.94115" lon="5.97243">
        <ele>863.6</ele>
        <time>2020-12-26T15:15:27Z</time>
      </trkpt>
      <trkpt lat="46.94107" lon="5.97238">
        <ele>863.4</ele>
        <time>2020-12-26T15:15:28Z</time>
      </trkpt>
      <trkpt lat="46.94099" lon="5.97232">
        <ele>863.2</ele>
        <time>2020-12-26T15:15:29Z</time>
      </trkpt>
      <trkpt lat="46.94092" lon="5.97225">
        <ele>863.2</ele>
        <time>2020-12-26T15:15:30Z</time>
      </trkpt>
      <trkpt lat="46.94086" lon="5.97218">
        <ele>862.8</ele>
        <time>2020-12-26T15:15:31Z</time>
      </trkpt>
      <trkpt lat="46.9408" lon="5.97211">
        <ele>862.8</ele>
        <time>2020-12-26T15:15:32Z</time>
      </trkpt>
      <trkpt lat="46.94075" lon="5.97204">
        <ele>862.8</ele>
        <time>2020-12-26T15:15:33Z</time>
      </trkpt>
      <trkpt lat="46.9407" lon="5.97197">
        <ele>863.2</ele>
        <time>2020-12-26T15:15:34Z</time>
      </trkpt>
      <trkpt lat="46.94065" lon="5.9719">
        <ele>863.4</ele>
        <time>2020-12-26T15:15:35Z</time>
      </trkpt>
      <trkpt lat="46.94061" lon="5.97183">
        <ele>863.6</ele>
        <time>2020-12-26T15:15:36Z</time>
      </trkpt>
      <trkpt lat="46.94058" lon="5.97177">
        <ele>863.8</ele>
        <time>2020-12-26T15:15:37Z</time>
      </trkpt>
      <trkpt lat="46.94054" lon="5.97171">
        <ele>864</ele>
        <time>2020-12-26T15:15:38Z</time>
      </trkpt>
      <trkpt lat="46.94051" lon="5.97165">
        <ele>864.2</ele>
        <time>2020-12-26T15:15:39Z</time>
      </trkpt>
      <trkpt lat="46.94047" lon="5.9716">
        <ele>864.2</ele>
        <time>2020-12-26T15:15:40Z</time>
      </trkpt>
      <trkpt lat="46.94044" lon="5.97155">
        <ele>864.6</ele>
        <time>2020-12-26T15:15:41Z</time>
      </trkpt>
      <trkpt lat="46.94041" lon="5.9715">
        <ele>864.8</ele>
        <time>2020-12-26T15:15:42Z</time>
      </trkpt>
      <trkpt lat="46.94038" lon="5.97145">
        <ele>865</ele>
        <time>2020-12-26T15:15:43Z</time>
      </trkpt>
      <trkpt lat="46.94035" lon="5.97141">
        <ele>865.2</ele>
        <time>2020-12-26T15:15:44Z</time>
      </trkpt>
      <trkpt lat="46.94032" lon="5.97136">
        <ele>865.4</ele>
        <time>2020-12-26T15:15:45Z</time>
      </trkpt>
      <trkpt lat="46.9403" lon="5.97132">
        <ele>865.4</ele>
        <time>2020-12-26T15:15:46Z</time>
      </trkpt>
      <trkpt lat="46.94027" lon="5.97127">
        <ele>865.8</ele>
        <time>2020-12-26T15:15:47Z</time>
      </trkpt>
      <trkpt lat="46.94023" lon="5.97123">
        <ele>865.8</ele>
        <time>2020-12-26T15:15:48Z</time>
      </trkpt>
      <trkpt lat="46.9402" lon="5.97119">
        <ele>866</ele>
        <time>2020-12-26T15:15:49Z</time>
      </trkpt>
      <trkpt lat="46.94016" lon="5.97115">
        <ele>866</ele>
        <time>2020-12-26T15:15:50Z</time>
      </trkpt>
      <trkpt lat="46.94012" lon="5.97112">
        <ele>866.4</ele>
        <time>2020-12-26T15:15:51Z</time>
      </trkpt>
      <trkpt lat="46.94009" lon="5.9711">
        <ele>866.6</ele>
        <time>2020-12-26T15:15:52Z</time>
      </trkpt>
      <trkpt lat="46.94006" lon="5.97107">
        <ele>866.6</ele>
        <time>2020-12-26T15:15:53Z</time>
      </trkpt>
      <trkpt lat="46.94003" lon="5.97104">
        <ele>867</ele>
        <time>2020-12-26T15:15:54Z</time>
      </trkpt>
      <trkpt lat="46.94" lon="5.97101">
        <ele>867.2</ele>
        <time>2020-12-26T15:15:55Z</time>
      </trkpt>
      <trkpt lat="46.93996" lon="5.97099">
        <ele>867.6</ele>
        <time>2020-12-26T15:15:56Z</time>
      </trkpt>
      <trkpt lat="46.93993" lon="5.97097">
        <ele>867.8</ele>
        <time>2020-12-26T15:15:57Z</time>
      </trkpt>
      <trkpt lat="46.93988" lon="5.97095">
        <ele>867.8</ele>
        <time>2020-12-26T15:15:58Z</time>
      </trkpt>
      <trkpt lat="46.93984" lon="5.97094">
        <ele>868</ele>
        <time>2020-12-26T15:15:59Z</time>
      </trkpt>
      <trkpt lat="46.93979" lon="5.97093">
        <ele>868</ele>
        <time>2020-12-26T15:16:00Z</time>
      </trkpt>
      <trkpt lat="46.93974" lon="5.97092">
        <ele>868.4</ele>
        <time>2020-12-26T15:16:01Z</time>
      </trkpt>
      <trkpt lat="46.93969" lon="5.9709">
        <ele>868.4</ele>
        <time>2020-12-26T15:16:02Z</time>
      </trkpt>
      <trkpt lat="46.93964" lon="5.97088">
        <ele>868.8</ele>
        <time>2020-12-26T15:16:03Z</time>
      </trkpt>
      <trkpt lat="46.93959" lon="5.97086">
        <ele>868.8</ele>
        <time>2020-12-26T15:16:04Z</time>
      </trkpt>
      <trkpt lat="46.93954" lon="5.97085">
        <ele>868.8</ele>
        <time>2020-12-26T15:16:05Z</time>
      </trkpt>
      <trkpt lat="46.93949" lon="5.97082">
        <ele>868.8</ele>
        <time>2020-12-26T15:16:06Z</time>
      </trkpt>
      <trkpt lat="46.93943" lon="5.9708">
        <ele>868.8</ele>
        <time>2020-12-26T15:16:07Z</time>
      </trkpt>
      <trkpt lat="46.93938" lon="5.97077">
        <ele>868.8</ele>
        <time>2020-12-26T15:16:08Z</time>
      </trkpt>
      <trkpt lat="46.93933" lon="5.97073">
        <ele>868.8</ele>
        <time>2020-12-26T15:16:09Z</time>
      </trkpt>
      <trkpt lat="46.93928" lon="5.97068">
        <ele>868.6</ele>
        <time>2020-12-26T15:16:10Z</time>
      </trkpt>
      <trkpt lat="46.93923" lon="5.97062">
        <ele>868.6</ele>
        <time>2020-12-26T15:16:11Z</time>
      </trkpt>
      <trkpt lat="46.93917" lon="5.97057">
        <ele>868.2</ele>
        <time>2020-12-26T15:16:12Z</time>
      </trkpt>
      <trkpt lat="46.93912" lon="5.97051">
        <ele>867.8</ele>
        <time>2020-12-26T15:16:13Z</time>
      </trkpt>
      <trkpt lat="46.93907" lon="5.97045">
        <ele>867.6</ele>
        <time>2020-12-26T15:16:14Z</time>
      </trkpt>
      <trkpt lat="46.93902" lon="5.97039">
        <ele>867.4</ele>
        <time>2020-12-26T15:16:15Z</time>
      </trkpt>
      <trkpt lat="46.93896" lon="5.97033">
        <ele>867</ele>
        <time>2020-12-26T15:16:16Z</time>
      </trkpt>
      <trkpt lat="46.93891" lon="5.97026">
        <ele>866.8</ele>
        <time>2020-12-26T15:16:17Z</time>
      </trkpt>
      <trkpt lat="46.93886" lon="5.9702">
        <ele>866.4</ele>
        <time>2020-12-26T15:16:18Z</time>
      </trkpt>
      <trkpt lat="46.9388" lon="5.97012">
        <ele>866</ele>
        <time>2020-12-26T15:16:19Z</time>
      </trkpt>
      <trkpt lat="46.93875" lon="5.97005">
        <ele>865.8</ele>
        <time>2020-12-26T15:16:20Z</time>
      </trkpt>
      <trkpt lat="46.93869" lon="5.96997">
        <ele>865.4</ele>
        <time>2020-12-26T15:16:21Z</time>
      </trkpt>
      <trkpt lat="46.93863" lon="5.96989">
        <ele>864.8</ele>
        <time>2020-12-26T15:16:22Z</time>
      </trkpt>
      <trkpt lat="46.93856" lon="5.96981">
        <ele>864.4</ele>
        <time>2020-12-26T15:16:23Z</time>
      </trkpt>
      <trkpt lat="46.9385" lon="5.96973">
        <ele>864</ele>
        <time>2020-12-26T15:16:24Z</time>
      </trkpt>
      <trkpt lat="46.93844" lon="5.96964">
        <ele>863.4</ele>
        <time>2020-12-26T15:16:25Z</time>
      </trkpt>
      <trkpt lat="46.93837" lon="5.96955">
        <ele>863</ele>
        <time>2020-12-26T15:16:26Z</time>
      </trkpt>
      <trkpt lat="46.93831" lon="5.96944">
        <ele>862.4</ele>
        <time>2020-12-26T15:16:27Z</time>
      </trkpt>
      <trkpt lat="46.93825" lon="5.96933">
        <ele>862</ele>
        <time>2020-12-26T15:16:28Z</time>
      </trkpt>
      <trkpt lat="46.93819" lon="5.96922">
        <ele>861.6</ele>
        <time>2020-12-26T15:16:29Z</time>
      </trkpt>
      <trkpt lat="46.93814" lon="5.9691">
        <ele>861</ele>
        <time>2020-12-26T15:16:30Z</time>
      </trkpt>
      <trkpt lat="46.93809" lon="5.96898">
        <ele>860.8</ele>
        <time>2020-12-26T15:16:31Z</time>
      </trkpt>
      <trkpt lat="46.93804" lon="5.96887">
        <ele>860.6</ele>
        <time>2020-12-26T15:16:32Z</time>
      </trkpt>
      <trkpt lat="46.93799" lon="5.96875">
        <ele>860.6</ele>
        <time>2020-12-26T15:16:33Z</time>
      </trkpt>
      <trkpt lat="46.93794" lon="5.96864">
        <ele>860.6</ele>
        <time>2020-12-26T15:16:34Z</time>
      </trkpt>
      <trkpt lat="46.93789" lon="5.96852">
        <ele>860.2</ele>
        <time>2020-12-26T15:16:35Z</time>
      </trkpt>
      <trkpt lat="46.93785" lon="5.96841">
        <ele>860.2</ele>
        <time>2020-12-26T15:16:36Z</time>
      </trkpt>
      <trkpt lat="46.9378" lon="5.9683">
        <ele>860.2</ele>
        <time>2020-12-26T15:16:37Z</time>
      </trkpt>
      <trkpt lat="46.93775" lon="5.9682">
        <ele>860.2</ele>
        <time>2020-12-26T15:16:38Z</time>
      </trkpt>
      <trkpt lat="46.9377" lon="5.9681">
        <ele>860.2</ele>
        <time>2020-12-26T15:16:39Z</time>
      </trkpt>
      <trkpt lat="46.93765" lon="5.96801">
        <ele>860.2</ele>
        <time>2020-12-26T15:16:40Z</time>
      </trkpt>
      <trkpt lat="46.93759" lon="5.96793">
        <ele>860.2</ele>
        <time>2020-12-26T15:16:41Z</time>
      </trkpt>
      <trkpt lat="46.93754" lon="5.96784">
        <ele>860.2</ele>
        <time>2020-12-26T15:16:42Z</time>
      </trkpt>
      <trkpt lat="46.93748" lon="5.96777">
        <ele>860.2</ele>
        <time>2020-12-26T15:16:43Z</time>
      </trkpt>
      <trkpt lat="46.93742" lon="5.9677">
        <ele>860.2</ele>
        <time>2020-12-26T15:16:44Z</time>
      </trkpt>
      <trkpt lat="46.93736" lon="5.96763">
        <ele>860.2</ele>
        <time>2020-12-26T15:16:45Z</time>
      </trkpt>
      <trkpt lat="46.9373" lon="5.96757">
        <ele>860.2</ele>
        <time>2020-12-26T15:16:46Z</time>
      </trkpt>
      <trkpt lat="46.93723" lon="5.96751">
        <ele>860</ele>
        <time>2020-12-26T15:16:47Z</time>
      </trkpt>
      <trkpt lat="46.93716" lon="5.96746">
        <ele>859.8</ele>
        <time>2020-12-26T15:16:48Z</time>
      </trkpt>
      <trkpt lat="46.93708" lon="5.96741">
        <ele>859.4</ele>
        <time>2020-12-26T15:16:49Z</time>
      </trkpt>
      <trkpt lat="46.93701" lon="5.96737">
        <ele>859.2</ele>
        <time>2020-12-26T15:16:50Z</time>
      </trkpt>
      <trkpt lat="46.93693" lon="5.96733">
        <ele>859.2</ele>
        <time>2020-12-26T15:16:51Z</time>
      </trkpt>
      <trkpt lat="46.93685" lon="5.96731">
        <ele>858.8</ele>
        <time>2020-12-26T15:16:52Z</time>
      </trkpt>
      <trkpt lat="46.93677" lon="5.96729">
        <ele>858.8</ele>
        <time>2020-12-26T15:16:53Z</time>
      </trkpt>
      <trkpt lat="46.93668" lon="5.96727">
        <ele>858.6</ele>
        <time>2020-12-26T15:16:54Z</time>
      </trkpt>
      <trkpt lat="46.9366" lon="5.96725">
        <ele>858.2</ele>
        <time>2020-12-26T15:16:55Z</time>
      </trkpt>
      <trkpt lat="46.93652" lon="5.96724">
        <ele>858</ele>
        <time>2020-12-26T15:16:56Z</time>
      </trkpt>
      <trkpt lat="46.93643" lon="5.96723">
        <ele>857.6</ele>
        <time>2020-12-26T15:16:57Z</time>
      </trkpt>
      <trkpt lat="46.93635" lon="5.96722">
        <ele>857.2</ele>
        <time>2020-12-26T15:16:58Z</time>
      </trkpt>
      <trkpt lat="46.93626" lon="5.9672">
        <ele>856.8</ele>
        <time>2020-12-26T15:16:59Z</time>
      </trkpt>
      <trkpt lat="46.93617" lon="5.96719">
        <ele>856.4</ele>
        <time>2020-12-26T15:17:00Z</time>
      </trkpt>
      <trkpt lat="46.93609" lon="5.96718">
        <ele>856.2</ele>
        <time>2020-12-26T15:17:01Z</time>
      </trkpt>
      <trkpt lat="46.936" lon="5.96716">
        <ele>855.8</ele>
        <time>2020-12-26T15:17:02Z</time>
      </trkpt>
      <trkpt lat="46.93591" lon="5.96715">
        <ele>855.4</ele>
        <time>2020-12-26T15:17:03Z</time>
      </trkpt>
      <trkpt lat="46.93583" lon="5.96715">
        <ele>855.2</ele>
        <time>2020-12-26T15:17:04Z</time>
      </trkpt>
      <trkpt lat="46.93574" lon="5.96715">
        <ele>854.8</ele>
        <time>2020-12-26T15:17:05Z</time>
      </trkpt>
      <trkpt lat="46.93566" lon="5.96716">
        <ele>854.8</ele>
        <time>2020-12-26T15:17:06Z</time>
      </trkpt>
      <trkpt lat="46.93558" lon="5.96718">
        <ele>854.4</ele>
        <time>2020-12-26T15:17:07Z</time>
      </trkpt>
      <trkpt lat="46.9355" lon="5.9672">
        <ele>854.2</ele>
        <time>2020-12-26T15:17:08Z</time>
      </trkpt>
      <trkpt lat="46.93541" lon="5.96722">
        <ele>854</ele>
        <time>2020-12-26T15:17:09Z</time>
      </trkpt>
      <trkpt lat="46.93533" lon="5.96724">
        <ele>853.6</ele>
        <time>2020-12-26T15:17:10Z</time>
      </trkpt>
      <trkpt lat="46.93525" lon="5.96725">
        <ele>853.4</ele>
        <time>2020-12-26T15:17:11Z</time>
      </trkpt>
      <trkpt lat="46.93517" lon="5.96725">
        <ele>853</ele>
        <time>2020-12-26T15:17:12Z</time>
      </trkpt>
      <trkpt lat="46.93508" lon="5.96724">
        <ele>852.8</ele>
        <time>2020-12-26T15:17:13Z</time>
      </trkpt>
      <trkpt lat="46.935" lon="5.96722">
        <ele>852.4</ele>
        <time>2020-12-26T15:17:14Z</time>
      </trkpt>
      <trkpt lat="46.93491" lon="5.96721">
        <ele>852.2</ele>
        <time>2020-12-26T15:17:15Z</time>
      </trkpt>
      <trkpt lat="46.93483" lon="5.96719">
        <ele>851.8</ele>
        <time>2020-12-26T15:17:16Z</time>
      </trkpt>
      <trkpt lat="46.93474" lon="5.96717">
        <ele>851.6</ele>
        <time>2020-12-26T15:17:17Z</time>
      </trkpt>
      <trkpt lat="46.93466" lon="5.96714">
        <ele>851.2</ele>
        <time>2020-12-26T15:17:18Z</time>
      </trkpt>
      <trkpt lat="46.93457" lon="5.96712">
        <ele>850.6</ele>
        <time>2020-12-26T15:17:19Z</time>
      </trkpt>
      <trkpt lat="46.93447" lon="5.9671">
        <ele>850.4</ele>
        <time>2020-12-26T15:17:20Z</time>
      </trkpt>
      <trkpt lat="46.93438" lon="5.96707">
        <ele>850</ele>
        <time>2020-12-26T15:17:21Z</time>
      </trkpt>
      <trkpt lat="46.93429" lon="5.96705">
        <ele>849.6</ele>
        <time>2020-12-26T15:17:22Z</time>
      </trkpt>
      <trkpt lat="46.9342" lon="5.96702">
        <ele>849.2</ele>
        <time>2020-12-26T15:17:23Z</time>
      </trkpt>
      <trkpt lat="46.93411" lon="5.96698">
        <ele>848.8</ele>
        <time>2020-12-26T15:17:24Z</time>
      </trkpt>
      <trkpt lat="46.93403" lon="5.96693">
        <ele>848.6</ele>
        <time>2020-12-26T15:17:25Z</time>
      </trkpt>
      <trkpt lat="46.93396" lon="5.96687">
        <ele>848.2</ele>
        <time>2020-12-26T15:17:26Z</time>
      </trkpt>
      <trkpt lat="46.93388" lon="5.96681">
        <ele>848</ele>
        <time>2020-12-26T15:17:27Z</time>
      </trkpt>
      <trkpt lat="46.9338" lon="5.96674">
        <ele>847.6</ele>
        <time>2020-12-26T15:17:28Z</time>
      </trkpt>
      <trkpt lat="46.93373" lon="5.96667">
        <ele>847.4</ele>
        <time>2020-12-26T15:17:29Z</time>
      </trkpt>
      <trkpt lat="46.93365" lon="5.9666">
        <ele>847.2</ele>
        <time>2020-12-26T15:17:30Z</time>
      </trkpt>
      <trkpt lat="46.93357" lon="5.96654">
        <ele>846.8</ele>
        <time>2020-12-26T15:17:31Z</time>
      </trkpt>
      <trkpt lat="46.9335" lon="5.96646">
        <ele>846.6</ele>
        <time>2020-12-26T15:17:32Z</time>
      </trkpt>
      <trkpt lat="46.93344" lon="5.96638">
        <ele>846.6</ele>
        <time>2020-12-26T15:17:33Z</time>
      </trkpt>
      <trkpt lat="46.93338" lon="5.96629">
        <ele>846.6</ele>
        <time>2020-12-26T15:17:34Z</time>
      </trkpt>
      <trkpt lat="46.93333" lon="5.96621">
        <ele>846.4</ele>
        <time>2020-12-26T15:17:35Z</time>
      </trkpt>
      <trkpt lat="46.93328" lon="5.96612">
        <ele>846.4</ele>
        <time>2020-12-26T15:17:36Z</time>
      </trkpt>
      <trkpt lat="46.93323" lon="5.96604">
        <ele>846</ele>
        <time>2020-12-26T15:17:37Z</time>
      </trkpt>
      <trkpt lat="46.93319" lon="5.96595">
        <ele>846</ele>
        <time>2020-12-26T15:17:38Z</time>
      </trkpt>
      <trkpt lat="46.93314" lon="5.96587">
        <ele>846</ele>
        <time>2020-12-26T15:17:39Z</time>
      </trkpt>
      <trkpt lat="46.9331" lon="5.9658">
        <ele>845.8</ele>
        <time>2020-12-26T15:17:40Z</time>
      </trkpt>
      <trkpt lat="46.93304" lon="5.96574">
        <ele>845.8</ele>
        <time>2020-12-26T15:17:41Z</time>
      </trkpt>
      <trkpt lat="46.93298" lon="5.9657">
        <ele>845.8</ele>
        <time>2020-12-26T15:17:42Z</time>
      </trkpt>
      <trkpt lat="46.93291" lon="5.96568">
        <ele>845.6</ele>
        <time>2020-12-26T15:17:43Z</time>
      </trkpt>
      <trkpt lat="46.93283" lon="5.96568">
        <ele>845.2</ele>
        <time>2020-12-26T15:17:44Z</time>
      </trkpt>
      <trkpt lat="46.93275" lon="5.96568">
        <ele>845</ele>
        <time>2020-12-26T15:17:45Z</time>
      </trkpt>
      <trkpt lat="46.93267" lon="5.9657">
        <ele>844.6</ele>
        <time>2020-12-26T15:17:46Z</time>
      </trkpt>
      <trkpt lat="46.93259" lon="5.96574">
        <ele>844.2</ele>
        <time>2020-12-26T15:17:47Z</time>
      </trkpt>
      <trkpt lat="46.9325" lon="5.96577">
        <ele>843.8</ele>
        <time>2020-12-26T15:17:48Z</time>
      </trkpt>
      <trkpt lat="46.93241" lon="5.96582">
        <ele>843.2</ele>
        <time>2020-12-26T15:17:49Z</time>
      </trkpt>
      <trkpt lat="46.93232" lon="5.96589">
        <ele>842.8</ele>
        <time>2020-12-26T15:17:50Z</time>
      </trkpt>
      <trkpt lat="46.93222" lon="5.96595">
        <ele>842.4</ele>
        <time>2020-12-26T15:17:51Z</time>
      </trkpt>
      <trkpt lat="46.93212" lon="5.96601">
        <ele>842</ele>
        <time>2020-12-26T15:17:52Z</time>
      </trkpt>
      <trkpt lat="46.93203" lon="5.96607">
        <ele>841.8</ele>
        <time>2020-12-26T15:17:53Z</time>
      </trkpt>
      <trkpt lat="46.93195" lon="5.96611">
        <ele>841.4</ele>
        <time>2020-12-26T15:17:54Z</time>
      </trkpt>
      <trkpt lat="46.93187" lon="5.96619">
        <ele>841</ele>
        <time>2020-12-26T15:17:55Z</time>
      </trkpt>
      <trkpt lat="46.93179" lon="5.96625">
        <ele>840.6</ele>
        <time>2020-12-26T15:17:56Z</time>
      </trkpt>
      <trkpt lat="46.93171" lon="5.96632">
        <ele>840.2</ele>
        <time>2020-12-26T15:17:57Z</time>
      </trkpt>
      <trkpt lat="46.93163" lon="5.9664">
        <ele>839.8</ele>
        <time>2020-12-26T15:17:58Z</time>
      </trkpt>
      <trkpt lat="46.93154" lon="5.96649">
        <ele>839.4</ele>
        <time>2020-12-26T15:17:59Z</time>
      </trkpt>
      <trkpt lat="46.93147" lon="5.96658">
        <ele>839</ele>
        <time>2020-12-26T15:18:00Z</time>
      </trkpt>
      <trkpt lat="46.93141" lon="5.96668">
        <ele>838.6</ele>
        <time>2020-12-26T15:18:01Z</time>
      </trkpt>
      <trkpt lat="46.93134" lon="5.96678">
        <ele>838.2</ele>
        <time>2020-12-26T15:18:02Z</time>
      </trkpt>
      <trkpt lat="46.93127" lon="5.96689">
        <ele>838.2</ele>
        <time>2020-12-26T15:18:03Z</time>
      </trkpt>
      <trkpt lat="46.93119" lon="5.96699">
        <ele>837.8</ele>
        <time>2020-12-26T15:18:04Z</time>
      </trkpt>
      <trkpt lat="46.93113" lon="5.9671">
        <ele>837.6</ele>
        <time>2020-12-26T15:18:05Z</time>
      </trkpt>
      <trkpt lat="46.93105" lon="5.96719">
        <ele>837.2</ele>
        <time>2020-12-26T15:18:06Z</time>
      </trkpt>
      <trkpt lat="46.93097" lon="5.96727">
        <ele>837.2</ele>
        <time>2020-12-26T15:18:07Z</time>
      </trkpt>
      <trkpt lat="46.9309" lon="5.96737">
        <ele>836.8</ele>
        <time>2020-12-26T15:18:08Z</time>
      </trkpt>
      <trkpt lat="46.93081" lon="5.96746">
        <ele>836.8</ele>
        <time>2020-12-26T15:18:09Z</time>
      </trkpt>
      <trkpt lat="46.93073" lon="5.96755">
        <ele>836.4</ele>
        <time>2020-12-26T15:18:10Z</time>
      </trkpt>
      <trkpt lat="46.93066" lon="5.96763">
        <ele>836.4</ele>
        <time>2020-12-26T15:18:11Z</time>
      </trkpt>
      <trkpt lat="46.93059" lon="5.96772">
        <ele>836.4</ele>
        <time>2020-12-26T15:18:12Z</time>
      </trkpt>
      <trkpt lat="46.93052" lon="5.9678">
        <ele>836.4</ele>
        <time>2020-12-26T15:18:13Z</time>
      </trkpt>
      <trkpt lat="46.93045" lon="5.96788">
        <ele>836</ele>
        <time>2020-12-26T15:18:14Z</time>
      </trkpt>
      <trkpt lat="46.93037" lon="5.96796">
        <ele>836</ele>
        <time>2020-12-26T15:18:15Z</time>
      </trkpt>
      <trkpt lat="46.93029" lon="5.96804">
        <ele>835.8</ele>
        <time>2020-12-26T15:18:16Z</time>
      </trkpt>
      <trkpt lat="46.93022" lon="5.9681">
        <ele>835.8</ele>
        <time>2020-12-26T15:18:17Z</time>
      </trkpt>
      <trkpt lat="46.93013" lon="5.96816">
        <ele>835.8</ele>
        <time>2020-12-26T15:18:18Z</time>
      </trkpt>
      <trkpt lat="46.93005" lon="5.96822">
        <ele>835.8</ele>
        <time>2020-12-26T15:18:19Z</time>
      </trkpt>
      <trkpt lat="46.92998" lon="5.96828">
        <ele>835.8</ele>
        <time>2020-12-26T15:18:20Z</time>
      </trkpt>
      <trkpt lat="46.9299" lon="5.96833">
        <ele>835.4</ele>
        <time>2020-12-26T15:18:21Z</time>
      </trkpt>
      <trkpt lat="46.92982" lon="5.96838">
        <ele>835.4</ele>
        <time>2020-12-26T15:18:22Z</time>
      </trkpt>
      <trkpt lat="46.92974" lon="5.96843">
        <ele>835.2</ele>
        <time>2020-12-26T15:18:23Z</time>
      </trkpt>
      <trkpt lat="46.92967" lon="5.96849">
        <ele>835.2</ele>
        <time>2020-12-26T15:18:24Z</time>
      </trkpt>
      <trkpt lat="46.9296" lon="5.96854">
        <ele>835.2</ele>
        <time>2020-12-26T15:18:25Z</time>
      </trkpt>
      <trkpt lat="46.92952" lon="5.96859">
        <ele>835.2</ele>
        <time>2020-12-26T15:18:26Z</time>
      </trkpt>
      <trkpt lat="46.92945" lon="5.96865">
        <ele>835.2</ele>
        <time>2020-12-26T15:18:27Z</time>
      </trkpt>
      <trkpt lat="46.92938" lon="5.9687">
        <ele>835.2</ele>
        <time>2020-12-26T15:18:28Z</time>
      </trkpt>
      <trkpt lat="46.92931" lon="5.96875">
        <ele>835.2</ele>
        <time>2020-12-26T15:18:29Z</time>
      </trkpt>
      <trkpt lat="46.92924" lon="5.9688">
        <ele>835.2</ele>
        <time>2020-12-26T15:18:30Z</time>
      </trkpt>
      <trkpt lat="46.92917" lon="5.96885">
        <ele>835.2</ele>
        <time>2020-12-26T15:18:31Z</time>
      </trkpt>
      <trkpt lat="46.9291" lon="5.9689">
        <ele>835.2</ele>
        <time>2020-12-26T15:18:32Z</time>
      </trkpt>
      <trkpt lat="46.92903" lon="5.96895">
        <ele>835.4</ele>
        <time>2020-12-26T15:18:33Z</time>
      </trkpt>
      <trkpt lat="46.92896" lon="5.96899">
        <ele>835.4</ele>
        <time>2020-12-26T15:18:34Z</time>
      </trkpt>
      <trkpt lat="46.92889" lon="5.96904">
        <ele>835.4</ele>
        <time>2020-12-26T15:18:35Z</time>
      </trkpt>
      <trkpt lat="46.92883" lon="5.96909">
        <ele>835.6</ele>
        <time>2020-12-26T15:18:36Z</time>
      </trkpt>
      <trkpt lat="46.92876" lon="5.96914">
        <ele>835.6</ele>
        <time>2020-12-26T15:18:37Z</time>
      </trkpt>
      <trkpt lat="46.92869" lon="5.96918">
        <ele>835.6</ele>
        <time>2020-12-26T15:18:38Z</time>
      </trkpt>
      <trkpt lat="46.92863" lon="5.96923">
        <ele>835.8</ele>
        <time>2020-12-26T15:18:39Z</time>
      </trkpt>
      <trkpt lat="46.92856" lon="5.96928">
        <ele>835.8</ele>
        <time>2020-12-26T15:18:40Z</time>
      </trkpt>
      <trkpt lat="46.9285" lon="5.96933">
        <ele>836</ele>
        <time>2020-12-26T15:18:41Z</time>
      </trkpt>
      <trkpt lat="46.92843" lon="5.96937">
        <ele>836</ele>
        <time>2020-12-26T15:18:42Z</time>
      </trkpt>
      <trkpt lat="46.92837" lon="5.96942">
        <ele>836</ele>
        <time>2020-12-26T15:18:43Z</time>
      </trkpt>
      <trkpt lat="46.9283" lon="5.96947">
        <ele>836</ele>
        <time>2020-12-26T15:18:44Z</time>
      </trkpt>
      <trkpt lat="46.92823" lon="5.96952">
        <ele>836.2</ele>
        <time>2020-12-26T15:18:45Z</time>
      </trkpt>
      <trkpt lat="46.92816" lon="5.96956">
        <ele>836.2</ele>
        <time>2020-12-26T15:18:46Z</time>
      </trkpt>
      <trkpt lat="46.9281" lon="5.96959">
        <ele>836.2</ele>
        <time>2020-12-26T15:18:47Z</time>
      </trkpt>
      <trkpt lat="46.92803" lon="5.96961">
        <ele>836.2</ele>
        <time>2020-12-26T15:18:48Z</time>
      </trkpt>
      <trkpt lat="46.92796" lon="5.96962">
        <ele>836.6</ele>
        <time>2020-12-26T15:18:49Z</time>
      </trkpt>
      <trkpt lat="46.92789" lon="5.96962">
        <ele>836.6</ele>
        <time>2020-12-26T15:18:50Z</time>
      </trkpt>
      <trkpt lat="46.92782" lon="5.96961">
        <ele>836.6</ele>
        <time>2020-12-26T15:18:51Z</time>
      </trkpt>
      <trkpt lat="46.92774" lon="5.96959">
        <ele>836.8</ele>
        <time>2020-12-26T15:18:52Z</time>
      </trkpt>
      <trkpt lat="46.92768" lon="5.96956">
        <ele>836.8</ele>
        <time>2020-12-26T15:18:53Z</time>
      </trkpt>
      <trkpt lat="46.92761" lon="5.96953">
        <ele>837</ele>
        <time>2020-12-26T15:18:54Z</time>
      </trkpt>
      <trkpt lat="46.92754" lon="5.9695">
        <ele>837.2</ele>
        <time>2020-12-26T15:18:55Z</time>
      </trkpt>
      <trkpt lat="46.92748" lon="5.96947">
        <ele>837.2</ele>
        <time>2020-12-26T15:18:56Z</time>
      </trkpt>
      <trkpt lat="46.92741" lon="5.96943">
        <ele>837.6</ele>
        <time>2020-12-26T15:18:57Z</time>
      </trkpt>
      <trkpt lat="46.92735" lon="5.96939">
        <ele>837.8</ele>
        <time>2020-12-26T15:18:58Z</time>
      </trkpt>
      <trkpt lat="46.92728" lon="5.96935">
        <ele>837.8</ele>
        <time>2020-12-26T15:18:59Z</time>
      </trkpt>
      <trkpt lat="46.92722" lon="5.9693">
        <ele>837.8</ele>
        <time>2020-12-26T15:19:00Z</time>
      </trkpt>
      <trkpt lat="46.92716" lon="5.96924">
        <ele>837.8</ele>
        <time>2020-12-26T15:19:01Z</time>
      </trkpt>
      <trkpt lat="46.9271" lon="5.96916">
        <ele>837.8</ele>
        <time>2020-12-26T15:19:02Z</time>
      </trkpt>
      <trkpt lat="46.92706" lon="5.96908">
        <ele>837.8</ele>
        <time>2020-12-26T15:19:03Z</time>
      </trkpt>
      <trkpt lat="46.92702" lon="5.96898">
        <ele>837.8</ele>
        <time>2020-12-26T15:19:04Z</time>
      </trkpt>
      <trkpt lat="46.92699" lon="5.96889">
        <ele>837.6</ele>
        <time>2020-12-26T15:19:05Z</time>
      </trkpt>
      <trkpt lat="46.92696" lon="5.9688">
        <ele>837.6</ele>
        <time>2020-12-26T15:19:06Z</time>
      </trkpt>
      <trkpt lat="46.92693" lon="5.9687">
        <ele>837.6</ele>
        <time>2020-12-26T15:19:07Z</time>
      </trkpt>
      <trkpt lat="46.9269" lon="5.96861">
        <ele>837.6</ele>
        <time>2020-12-26T15:19:08Z</time>
      </trkpt>
      <trkpt lat="46.92687" lon="5.96851">
        <ele>837.6</ele>
        <time>2020-12-26T15:19:09Z</time>
      </trkpt>
      <trkpt lat="46.92685" lon="5.96842">
        <ele>837.6</ele>
        <time>2020-12-26T15:19:10Z</time>
      </trkpt>
      <trkpt lat="46.92682" lon="5.96833">
        <ele>837.8</ele>
        <time>2020-12-26T15:19:11Z</time>
      </trkpt>
      <trkpt lat="46.92679" lon="5.96824">
        <ele>837.8</ele>
        <time>2020-12-26T15:19:12Z</time>
      </trkpt>
      <trkpt lat="46.92677" lon="5.96814">
        <ele>838.2</ele>
        <time>2020-12-26T15:19:13Z</time>
      </trkpt>
      <trkpt lat="46.92675" lon="5.96805">
        <ele>838.2</ele>
        <time>2020-12-26T15:19:14Z</time>
      </trkpt>
      <trkpt lat="46.92673" lon="5.96796">
        <ele>838.4</ele>
        <time>2020-12-26T15:19:15Z</time>
      </trkpt>
      <trkpt lat="46.92672" lon="5.96787">
        <ele>838.4</ele>
        <time>2020-12-26T15:19:16Z</time>
      </trkpt>
      <trkpt lat="46.9267" lon="5.96777">
        <ele>838.4</ele>
        <time>2020-12-26T15:19:17Z</time>
      </trkpt>
      <trkpt lat="46.92669" lon="5.96768">
        <ele>838.4</ele>
        <time>2020-12-26T15:19:18Z</time>
      </trkpt>
      <trkpt lat="46.92669" lon="5.96758">
        <ele>838.6</ele>
        <time>2020-12-26T15:19:19Z</time>
      </trkpt>
      <trkpt lat="46.92668" lon="5.96749">
        <ele>838.6</ele>
        <time>2020-12-26T15:19:20Z</time>
      </trkpt>
      <trkpt lat="46.92668" lon="5.96739">
        <ele>838.6</ele>
        <time>2020-12-26T15:19:21Z</time>
      </trkpt>
      <trkpt lat="46.92668" lon="5.9673">
        <ele>838.6</ele>
        <time>2020-12-26T15:19:22Z</time>
      </trkpt>
      <trkpt lat="46.92668" lon="5.96721">
        <ele>838.8</ele>
        <time>2020-12-26T15:19:23Z</time>
      </trkpt>
      <trkpt lat="46.92669" lon="5.96711">
        <ele>838.8</ele>
        <time>2020-12-26T15:19:24Z</time>
      </trkpt>
      <trkpt lat="46.92669" lon="5.96702">
        <ele>838.8</ele>
        <time>2020-12-26T15:19:25Z</time>
      </trkpt>
      <trkpt lat="46.92669" lon="5.96692">
        <ele>839</ele>
        <time>2020-12-26T15:19:26Z</time>
      </trkpt>
      <trkpt lat="46.92669" lon="5.96683">
        <ele>839</ele>
        <time>2020-12-26T15:19:27Z</time>
      </trkpt>
      <trkpt lat="46.92669" lon="5.96673">
        <ele>839</ele>
        <time>2020-12-26T15:19:28Z</time>
      </trkpt>
      <trkpt lat="46.9267" lon="5.96663">
        <ele>839</ele>
        <time>2020-12-26T15:19:29Z</time>
      </trkpt>
      <trkpt lat="46.9267" lon="5.96654">
        <ele>839</ele>
        <time>2020-12-26T15:19:30Z</time>
      </trkpt>
      <trkpt lat="46.9267" lon="5.96644">
        <ele>839</ele>
        <time>2020-12-26T15:19:31Z</time>
      </trkpt>
      <trkpt lat="46.9267" lon="5.96635">
        <ele>839</ele>
        <time>2020-12-26T15:19:32Z</time>
      </trkpt>
      <trkpt lat="46.9267" lon="5.96626">
        <ele>839.4</ele>
        <time>2020-12-26T15:19:33Z</time>
      </trkpt>
      <trkpt lat="46.92671" lon="5.96616">
        <ele>839.4</ele>
        <time>2020-12-26T15:19:34Z</time>
      </trkpt>
      <trkpt lat="46.92671" lon="5.96607">
        <ele>839.4</ele>
        <time>2020-12-26T15:19:35Z</time>
      </trkpt>
      <trkpt lat="46.92671" lon="5.96597">
        <ele>839.4</ele>
        <time>2020-12-26T15:19:36Z</time>
      </trkpt>
      <trkpt lat="46.92671" lon="5.96588">
        <ele>839.4</ele>
        <time>2020-12-26T15:19:37Z</time>
      </trkpt>
      <trkpt lat="46.92671" lon="5.96579">
        <ele>839.4</ele>
        <time>2020-12-26T15:19:38Z</time>
      </trkpt>
      <trkpt lat="46.92671" lon="5.9657">
        <ele>839.4</ele>
        <time>2020-12-26T15:19:39Z</time>
      </trkpt>
      <trkpt lat="46.9267" lon="5.96561">
        <ele>839.4</ele>
        <time>2020-12-26T15:19:40Z</time>
      </trkpt>
      <trkpt lat="46.9267" lon="5.96552">
        <ele>839.4</ele>
        <time>2020-12-26T15:19:41Z</time>
      </trkpt>
      <trkpt lat="46.9267" lon="5.96544">
        <ele>839.4</ele>
        <time>2020-12-26T15:19:42Z</time>
      </trkpt>
      <trkpt lat="46.92671" lon="5.96535">
        <ele>839.4</ele>
        <time>2020-12-26T15:19:43Z</time>
      </trkpt>
      <trkpt lat="46.92671" lon="5.96526">
        <ele>839.2</ele>
        <time>2020-12-26T15:19:44Z</time>
      </trkpt>
      <trkpt lat="46.92672" lon="5.96518">
        <ele>839.2</ele>
        <time>2020-12-26T15:19:45Z</time>
      </trkpt>
      <trkpt lat="46.92673" lon="5.96509">
        <ele>839.2</ele>
        <time>2020-12-26T15:19:46Z</time>
      </trkpt>
      <trkpt lat="46.92674" lon="5.96499">
        <ele>839.2</ele>
        <time>2020-12-26T15:19:47Z</time>
      </trkpt>
      <trkpt lat="46.92675" lon="5.9649">
        <ele>838.8</ele>
        <time>2020-12-26T15:19:48Z</time>
      </trkpt>
      <trkpt lat="46.92676" lon="5.96481">
        <ele>838.8</ele>
        <time>2020-12-26T15:19:49Z</time>
      </trkpt>
      <trkpt lat="46.92677" lon="5.96471">
        <ele>838.6</ele>
        <time>2020-12-26T15:19:50Z</time>
      </trkpt>
      <trkpt lat="46.92678" lon="5.96462">
        <ele>838.6</ele>
        <time>2020-12-26T15:19:51Z</time>
      </trkpt>
      <trkpt lat="46.92679" lon="5.96452">
        <ele>838.4</ele>
        <time>2020-12-26T15:19:52Z</time>
      </trkpt>
      <trkpt lat="46.9268" lon="5.96442">
        <ele>838.4</ele>
        <time>2020-12-26T15:19:53Z</time>
      </trkpt>
      <trkpt lat="46.92681" lon="5.96433">
        <ele>838.4</ele>
        <time>2020-12-26T15:19:54Z</time>
      </trkpt>
      <trkpt lat="46.92682" lon="5.96423">
        <ele>838.2</ele>
        <time>2020-12-26T15:19:55Z</time>
      </trkpt>
      <trkpt lat="46.92684" lon="5.96413">
        <ele>838.2</ele>
        <time>2020-12-26T15:19:56Z</time>
      </trkpt>
      <trkpt lat="46.92686" lon="5.96403">
        <ele>837.8</ele>
        <time>2020-12-26T15:19:57Z</time>
      </trkpt>
      <trkpt lat="46.92687" lon="5.96392">
        <ele>837.8</ele>
        <time>2020-12-26T15:19:58Z</time>
      </trkpt>
      <trkpt lat="46.92689" lon="5.96382">
        <ele>837.8</ele>
        <time>2020-12-26T15:19:59Z</time>
      </trkpt>
      <trkpt lat="46.92691" lon="5.96372">
        <ele>837.6</ele>
        <time>2020-12-26T15:20:00Z</time>
      </trkpt>
      <trkpt lat="46.92693" lon="5.96361">
        <ele>837.6</ele>
        <time>2020-12-26T15:20:01Z</time>
      </trkpt>
      <trkpt lat="46.92695" lon="5.96351">
        <ele>837.4</ele>
        <time>2020-12-26T15:20:02Z</time>
      </trkpt>
      <trkpt lat="46.92697" lon="5.96341">
        <ele>837.4</ele>
        <time>2020-12-26T15:20:03Z</time>
      </trkpt>
      <trkpt lat="46.92699" lon="5.9633">
        <ele>837.2</ele>
        <time>2020-12-26T15:20:04Z</time>
      </trkpt>
      <trkpt lat="46.92702" lon="5.9632">
        <ele>837.2</ele>
        <time>2020-12-26T15:20:05Z</time>
      </trkpt>
      <trkpt lat="46.92704" lon="5.9631">
        <ele>837.2</ele>
        <time>2020-12-26T15:20:06Z</time>
      </trkpt>
      <trkpt lat="46.92706" lon="5.963">
        <ele>837.2</ele>
        <time>2020-12-26T15:20:07Z</time>
      </trkpt>
      <trkpt lat="46.92707" lon="5.9629">
        <ele>836.8</ele>
        <time>2020-12-26T15:20:08Z</time>
      </trkpt>
      <trkpt lat="46.92706" lon="5.96279">
        <ele>836.8</ele>
        <time>2020-12-26T15:20:09Z</time>
      </trkpt>
      <trkpt lat="46.92704" lon="5.9627">
        <ele>836.6</ele>
        <time>2020-12-26T15:20:10Z</time>
      </trkpt>
      <trkpt lat="46.92702" lon="5.9626">
        <ele>836.6</ele>
        <time>2020-12-26T15:20:11Z</time>
      </trkpt>
      <trkpt lat="46.92697" lon="5.96252">
        <ele>836.2</ele>
        <time>2020-12-26T15:20:12Z</time>
      </trkpt>
      <trkpt lat="46.92693" lon="5.96244">
        <ele>836.2</ele>
        <time>2020-12-26T15:20:13Z</time>
      </trkpt>
      <trkpt lat="46.92688" lon="5.96236">
        <ele>836</ele>
        <time>2020-12-26T15:20:14Z</time>
      </trkpt>
      <trkpt lat="46.92682" lon="5.96228">
        <ele>836</ele>
        <time>2020-12-26T15:20:15Z</time>
      </trkpt>
      <trkpt lat="46.92677" lon="5.9622">
        <ele>835.8</ele>
        <time>2020-12-26T15:20:16Z</time>
      </trkpt>
      <trkpt lat="46.92672" lon="5.96212">
        <ele>835.8</ele>
        <time>2020-12-26T15:20:17Z</time>
      </trkpt>
      <trkpt lat="46.92668" lon="5.96203">
        <ele>835.8</ele>
        <time>2020-12-26T15:20:18Z</time>
      </trkpt>
      <trkpt lat="46.92663" lon="5.96195">
        <ele>835.4</ele>
        <time>2020-12-26T15:20:19Z</time>
      </trkpt>
      <trkpt lat="46.92659" lon="5.96187">
        <ele>835.4</ele>
        <time>2020-12-26T15:20:20Z</time>
      </trkpt>
      <trkpt lat="46.92655" lon="5.96179">
        <ele>835.4</ele>
        <time>2020-12-26T15:20:21Z</time>
      </trkpt>
      <trkpt lat="46.92651" lon="5.96171">
        <ele>835.4</ele>
        <time>2020-12-26T15:20:22Z</time>
      </trkpt>
      <trkpt lat="46.92647" lon="5.96164">
        <ele>835.4</ele>
        <time>2020-12-26T15:20:23Z</time>
      </trkpt>
      <trkpt lat="46.92642" lon="5.96156">
        <ele>835.8</ele>
        <time>2020-12-26T15:20:24Z</time>
      </trkpt>
      <trkpt lat="46.92638" lon="5.9615">
        <ele>836.2</ele>
        <time>2020-12-26T15:20:25Z</time>
      </trkpt>
      <trkpt lat="46.92633" lon="5.96144">
        <ele>836.6</ele>
        <time>2020-12-26T15:20:26Z</time>
      </trkpt>
      <trkpt lat="46.92628" lon="5.96139">
        <ele>836.6</ele>
        <time>2020-12-26T15:20:27Z</time>
      </trkpt>
      <trkpt lat="46.92622" lon="5.96133">
        <ele>836.8</ele>
        <time>2020-12-26T15:20:28Z</time>
      </trkpt>
      <trkpt lat="46.92617" lon="5.96126">
        <ele>836.8</ele>
        <time>2020-12-26T15:20:29Z</time>
      </trkpt>
      <trkpt lat="46.92612" lon="5.9612">
        <ele>836.8</ele>
        <time>2020-12-26T15:20:30Z</time>
      </trkpt>
      <trkpt lat="46.92607" lon="5.96112">
        <ele>836.8</ele>
        <time>2020-12-26T15:20:31Z</time>
      </trkpt>
      <trkpt lat="46.92602" lon="5.96105">
        <ele>837</ele>
        <time>2020-12-26T15:20:32Z</time>
      </trkpt>
      <trkpt lat="46.92598" lon="5.96098">
        <ele>837</ele>
        <time>2020-12-26T15:20:33Z</time>
      </trkpt>
      <trkpt lat="46.92594" lon="5.9609">
        <ele>837.4</ele>
        <time>2020-12-26T15:20:34Z</time>
      </trkpt>
      <trkpt lat="46.9259" lon="5.96083">
        <ele>837.4</ele>
        <time>2020-12-26T15:20:35Z</time>
      </trkpt>
      <trkpt lat="46.92586" lon="5.96076">
        <ele>837.4</ele>
        <time>2020-12-26T15:20:36Z</time>
      </trkpt>
      <trkpt lat="46.92582" lon="5.96068">
        <ele>837.4</ele>
        <time>2020-12-26T15:20:37Z</time>
      </trkpt>
      <trkpt lat="46.92578" lon="5.96061">
        <ele>837.6</ele>
        <time>2020-12-26T15:20:38Z</time>
      </trkpt>
      <trkpt lat="46.92574" lon="5.96053">
        <ele>837.6</ele>
        <time>2020-12-26T15:20:39Z</time>
      </trkpt>
      <trkpt lat="46.9257" lon="5.96046">
        <ele>837.6</ele>
        <time>2020-12-26T15:20:40Z</time>
      </trkpt>
      <trkpt lat="46.92566" lon="5.96039">
        <ele>837.6</ele>
        <time>2020-12-26T15:20:41Z</time>
      </trkpt>
      <trkpt lat="46.92562" lon="5.96032">
        <ele>837.6</ele>
        <time>2020-12-26T15:20:42Z</time>
      </trkpt>
      <trkpt lat="46.92558" lon="5.96024">
        <ele>837.6</ele>
        <time>2020-12-26T15:20:43Z</time>
      </trkpt>
      <trkpt lat="46.92554" lon="5.96017">
        <ele>837.6</ele>
        <time>2020-12-26T15:20:44Z</time>
      </trkpt>
      <trkpt lat="46.9255" lon="5.96009">
        <ele>837.6</ele>
        <time>2020-12-26T15:20:45Z</time>
      </trkpt>
      <trkpt lat="46.92546" lon="5.96002">
        <ele>837.8</ele>
        <time>2020-12-26T15:20:46Z</time>
      </trkpt>
      <trkpt lat="46.92542" lon="5.95995">
        <ele>837.8</ele>
        <time>2020-12-26T15:20:47Z</time>
      </trkpt>
      <trkpt lat="46.92539" lon="5.95987">
        <ele>837.8</ele>
        <time>2020-12-26T15:20:48Z</time>
      </trkpt>
      <trkpt lat="46.92535" lon="5.9598">
        <ele>837.8</ele>
        <time>2020-12-26T15:20:49Z</time>
      </trkpt>
      <trkpt lat="46.92532" lon="5.95972">
        <ele>837.8</ele>
        <time>2020-12-26T15:20:50Z</time>
      </trkpt>
      <trkpt lat="46.92528" lon="5.95964">
        <ele>838.2</ele>
        <time>2020-12-26T15:20:51Z</time>
      </trkpt>
      <trkpt lat="46.92524" lon="5.95957">
        <ele>838.4</ele>
        <time>2020-12-26T15:20:52Z</time>
      </trkpt>
      <trkpt lat="46.92521" lon="5.95949">
        <ele>838.4</ele>
        <time>2020-12-26T15:20:53Z</time>
      </trkpt>
      <trkpt lat="46.92517" lon="5.95941">
        <ele>838.6</ele>
        <time>2020-12-26T15:20:54Z</time>
      </trkpt>
      <trkpt lat="46.92514" lon="5.95934">
        <ele>838.6</ele>
        <time>2020-12-26T15:20:55Z</time>
      </trkpt>
      <trkpt lat="46.92511" lon="5.95927">
        <ele>839</ele>
        <time>2020-12-26T15:20:56Z</time>
      </trkpt>
      <trkpt lat="46.92508" lon="5.95919">
        <ele>839</ele>
        <time>2020-12-26T15:20:57Z</time>
      </trkpt>
      <trkpt lat="46.92505" lon="5.95912">
        <ele>839.2</ele>
        <time>2020-12-26T15:20:58Z</time>
      </trkpt>
      <trkpt lat="46.92502" lon="5.95905">
        <ele>839.2</ele>
        <time>2020-12-26T15:20:59Z</time>
      </trkpt>
      <trkpt lat="46.92499" lon="5.95899">
        <ele>839.6</ele>
        <time>2020-12-26T15:21:00Z</time>
      </trkpt>
      <trkpt lat="46.92496" lon="5.95892">
        <ele>839.6</ele>
        <time>2020-12-26T15:21:01Z</time>
      </trkpt>
      <trkpt lat="46.92494" lon="5.95885">
        <ele>840</ele>
        <time>2020-12-26T15:21:02Z</time>
      </trkpt>
      <trkpt lat="46.92491" lon="5.95879">
        <ele>840.4</ele>
        <time>2020-12-26T15:21:03Z</time>
      </trkpt>
      <trkpt lat="46.92489" lon="5.95872">
        <ele>840.8</ele>
        <time>2020-12-26T15:21:04Z</time>
      </trkpt>
      <trkpt lat="46.92486" lon="5.95866">
        <ele>841</ele>
        <time>2020-12-26T15:21:05Z</time>
      </trkpt>
      <trkpt lat="46.92484" lon="5.9586">
        <ele>841.4</ele>
        <time>2020-12-26T15:21:06Z</time>
      </trkpt>
      <trkpt lat="46.92481" lon="5.95854">
        <ele>841.8</ele>
        <time>2020-12-26T15:21:07Z</time>
      </trkpt>
      <trkpt lat="46.9248" lon="5.95847">
        <ele>842</ele>
        <time>2020-12-26T15:21:08Z</time>
      </trkpt>
      <trkpt lat="46.92478" lon="5.9584">
        <ele>842.2</ele>
        <time>2020-12-26T15:21:09Z</time>
      </trkpt>
      <trkpt lat="46.92477" lon="5.95833">
        <ele>842.4</ele>
        <time>2020-12-26T15:21:10Z</time>
      </trkpt>
      <trkpt lat="46.92476" lon="5.95826">
        <ele>842.4</ele>
        <time>2020-12-26T15:21:11Z</time>
      </trkpt>
      <trkpt lat="46.92476" lon="5.95819">
        <ele>842.8</ele>
        <time>2020-12-26T15:21:12Z</time>
      </trkpt>
      <trkpt lat="46.92476" lon="5.95811">
        <ele>842.8</ele>
        <time>2020-12-26T15:21:13Z</time>
      </trkpt>
      <trkpt lat="46.92477" lon="5.95803">
        <ele>842.8</ele>
        <time>2020-12-26T15:21:14Z</time>
      </trkpt>
      <trkpt lat="46.92477" lon="5.95795">
        <ele>843</ele>
        <time>2020-12-26T15:21:15Z</time>
      </trkpt>
      <trkpt lat="46.92477" lon="5.95787">
        <ele>843</ele>
        <time>2020-12-26T15:21:16Z</time>
      </trkpt>
      <trkpt lat="46.92478" lon="5.95779">
        <ele>843</ele>
        <time>2020-12-26T15:21:17Z</time>
      </trkpt>
      <trkpt lat="46.92478" lon="5.95771">
        <ele>843</ele>
        <time>2020-12-26T15:21:18Z</time>
      </trkpt>
      <trkpt lat="46.92478" lon="5.95763">
        <ele>843</ele>
        <time>2020-12-26T15:21:19Z</time>
      </trkpt>
      <trkpt lat="46.92479" lon="5.95755">
        <ele>843.2</ele>
        <time>2020-12-26T15:21:20Z</time>
      </trkpt>
      <trkpt lat="46.92479" lon="5.95747">
        <ele>843.2</ele>
        <time>2020-12-26T15:21:21Z</time>
      </trkpt>
      <trkpt lat="46.9248" lon="5.95738">
        <ele>843.2</ele>
        <time>2020-12-26T15:21:22Z</time>
      </trkpt>
      <trkpt lat="46.9248" lon="5.9573">
        <ele>843.2</ele>
        <time>2020-12-26T15:21:23Z</time>
      </trkpt>
      <trkpt lat="46.9248" lon="5.9572">
        <ele>843.2</ele>
        <time>2020-12-26T15:21:24Z</time>
      </trkpt>
      <trkpt lat="46.92481" lon="5.95711">
        <ele>843</ele>
        <time>2020-12-26T15:21:25Z</time>
      </trkpt>
      <trkpt lat="46.92482" lon="5.95702">
        <ele>843</ele>
        <time>2020-12-26T15:21:26Z</time>
      </trkpt>
      <trkpt lat="46.92482" lon="5.95692">
        <ele>843</ele>
        <time>2020-12-26T15:21:27Z</time>
      </trkpt>
      <trkpt lat="46.92483" lon="5.95683">
        <ele>842.6</ele>
        <time>2020-12-26T15:21:28Z</time>
      </trkpt>
      <trkpt lat="46.92484" lon="5.95673">
        <ele>842.6</ele>
        <time>2020-12-26T15:21:29Z</time>
      </trkpt>
      <trkpt lat="46.92485" lon="5.95664">
        <ele>842.6</ele>
        <time>2020-12-26T15:21:30Z</time>
      </trkpt>
      <trkpt lat="46.92486" lon="5.95654">
        <ele>842.4</ele>
        <time>2020-12-26T15:21:31Z</time>
      </trkpt>
      <trkpt lat="46.92487" lon="5.95645">
        <ele>842.4</ele>
        <time>2020-12-26T15:21:32Z</time>
      </trkpt>
      <trkpt lat="46.92489" lon="5.95636">
        <ele>842.4</ele>
        <time>2020-12-26T15:21:33Z</time>
      </trkpt>
      <trkpt lat="46.92491" lon="5.95627">
        <ele>842.4</ele>
        <time>2020-12-26T15:21:34Z</time>
      </trkpt>
      <trkpt lat="46.92492" lon="5.95618">
        <ele>842.2</ele>
        <time>2020-12-26T15:21:35Z</time>
      </trkpt>
      <trkpt lat="46.92494" lon="5.95609">
        <ele>842.2</ele>
        <time>2020-12-26T15:21:36Z</time>
      </trkpt>
      <trkpt lat="46.92496" lon="5.956">
        <ele>842.2</ele>
        <time>2020-12-26T15:21:37Z</time>
      </trkpt>
      <trkpt lat="46.92497" lon="5.95592">
        <ele>842.2</ele>
        <time>2020-12-26T15:21:38Z</time>
      </trkpt>
      <trkpt lat="46.92499" lon="5.95583">
        <ele>842.2</ele>
        <time>2020-12-26T15:21:39Z</time>
      </trkpt>
      <trkpt lat="46.92501" lon="5.95575">
        <ele>842.2</ele>
        <time>2020-12-26T15:21:40Z</time>
      </trkpt>
      <trkpt lat="46.92502" lon="5.95567">
        <ele>842.4</ele>
        <time>2020-12-26T15:21:41Z</time>
      </trkpt>
      <trkpt lat="46.92504" lon="5.95559">
        <ele>842.4</ele>
        <time>2020-12-26T15:21:42Z</time>
      </trkpt>
      <trkpt lat="46.92506" lon="5.95551">
        <ele>842.8</ele>
        <time>2020-12-26T15:21:43Z</time>
      </trkpt>
      <trkpt lat="46.92507" lon="5.95544">
        <ele>843</ele>
        <time>2020-12-26T15:21:44Z</time>
      </trkpt>
      <trkpt lat="46.92509" lon="5.95537">
        <ele>843.2</ele>
        <time>2020-12-26T15:21:45Z</time>
      </trkpt>
      <trkpt lat="46.9251" lon="5.95531">
        <ele>843.2</ele>
        <time>2020-12-26T15:21:46Z</time>
      </trkpt>
      <trkpt lat="46.92511" lon="5.95525">
        <ele>843.6</ele>
        <time>2020-12-26T15:21:47Z</time>
      </trkpt>
      <trkpt lat="46.92513" lon="5.95519">
        <ele>843.8</ele>
        <time>2020-12-26T15:21:48Z</time>
      </trkpt>
      <trkpt lat="46.92514" lon="5.95513">
        <ele>844.2</ele>
        <time>2020-12-26T15:21:49Z</time>
      </trkpt>
      <trkpt lat="46.92516" lon="5.95507">
        <ele>844.2</ele>
        <time>2020-12-26T15:21:50Z</time>
      </trkpt>
      <trkpt lat="46.92517" lon="5.95501">
        <ele>844.6</ele>
        <time>2020-12-26T15:21:51Z</time>
      </trkpt>
      <trkpt lat="46.92518" lon="5.95496">
        <ele>845</ele>
        <time>2020-12-26T15:21:52Z</time>
      </trkpt>
      <trkpt lat="46.92519" lon="5.9549">
        <ele>845.2</ele>
        <time>2020-12-26T15:21:53Z</time>
      </trkpt>
      <trkpt lat="46.92519" lon="5.95484">
        <ele>845.4</ele>
        <time>2020-12-26T15:21:54Z</time>
      </trkpt>
      <trkpt lat="46.9252" lon="5.95478">
        <ele>845.8</ele>
        <time>2020-12-26T15:21:55Z</time>
      </trkpt>
      <trkpt lat="46.92521" lon="5.95472">
        <ele>846</ele>
        <time>2020-12-26T15:21:56Z</time>
      </trkpt>
      <trkpt lat="46.92521" lon="5.95467">
        <ele>846.2</ele>
        <time>2020-12-26T15:21:57Z</time>
      </trkpt>
      <trkpt lat="46.92521" lon="5.95461">
        <ele>846.4</ele>
        <time>2020-12-26T15:21:58Z</time>
      </trkpt>
      <trkpt lat="46.92521" lon="5.95455">
        <ele>846.8</ele>
        <time>2020-12-26T15:21:59Z</time>
      </trkpt>
      <trkpt lat="46.92521" lon="5.95449">
        <ele>847</ele>
        <time>2020-12-26T15:22:00Z</time>
      </trkpt>
      <trkpt lat="46.92521" lon="5.95443">
        <ele>847.4</ele>
        <time>2020-12-26T15:22:01Z</time>
      </trkpt>
      <trkpt lat="46.92521" lon="5.95438">
        <ele>847.6</ele>
        <time>2020-12-26T15:22:02Z</time>
      </trkpt>
      <trkpt lat="46.9252" lon="5.95433">
        <ele>848</ele>
        <time>2020-12-26T15:22:03Z</time>
      </trkpt>
      <trkpt lat="46.92519" lon="5.95428">
        <ele>848.2</ele>
        <time>2020-12-26T15:22:04Z</time>
      </trkpt>
      <trkpt lat="46.92519" lon="5.95423">
        <ele>848.4</ele>
        <time>2020-12-26T15:22:05Z</time>
      </trkpt>
      <trkpt lat="46.92518" lon="5.95418">
        <ele>848.6</ele>
        <time>2020-12-26T15:22:06Z</time>
      </trkpt>
      <trkpt lat="46.92517" lon="5.95413">
        <ele>849</ele>
        <time>2020-12-26T15:22:07Z</time>
      </trkpt>
      <trkpt lat="46.92517" lon="5.95409">
        <ele>849.2</ele>
        <time>2020-12-26T15:22:08Z</time>
      </trkpt>
      <trkpt lat="46.92516" lon="5.95404">
        <ele>849.2</ele>
        <time>2020-12-26T15:22:09Z</time>
      </trkpt>
      <trkpt lat="46.92515" lon="5.954">
        <ele>849.6</ele>
        <time>2020-12-26T15:22:10Z</time>
      </trkpt>
      <trkpt lat="46.92514" lon="5.95395">
        <ele>849.6</ele>
        <time>2020-12-26T15:22:11Z</time>
      </trkpt>
      <trkpt lat="46.92513" lon="5.95391">
        <ele>849.8</ele>
        <time>2020-12-26T15:22:12Z</time>
      </trkpt>
      <trkpt lat="46.92512" lon="5.95386">
        <ele>849.8</ele>
        <time>2020-12-26T15:22:13Z</time>
      </trkpt>
      <trkpt lat="46.92512" lon="5.95381">
        <ele>850.4</ele>
        <time>2020-12-26T15:22:14Z</time>
      </trkpt>
      <trkpt lat="46.92511" lon="5.95376">
        <ele>850.6</ele>
        <time>2020-12-26T15:22:15Z</time>
      </trkpt>
      <trkpt lat="46.9251" lon="5.95371">
        <ele>850.6</ele>
        <time>2020-12-26T15:22:16Z</time>
      </trkpt>
      <trkpt lat="46.92508" lon="5.95366">
        <ele>851</ele>
        <time>2020-12-26T15:22:17Z</time>
      </trkpt>
      <trkpt lat="46.92507" lon="5.95361">
        <ele>851</ele>
        <time>2020-12-26T15:22:18Z</time>
      </trkpt>
      <trkpt lat="46.92506" lon="5.95357">
        <ele>851.4</ele>
        <time>2020-12-26T15:22:19Z</time>
      </trkpt>
      <trkpt lat="46.92504" lon="5.95352">
        <ele>851.8</ele>
        <time>2020-12-26T15:22:20Z</time>
      </trkpt>
      <trkpt lat="46.92502" lon="5.95348">
        <ele>852</ele>
        <time>2020-12-26T15:22:21Z</time>
      </trkpt>
      <trkpt lat="46.925" lon="5.95344">
        <ele>852.2</ele>
        <time>2020-12-26T15:22:22Z</time>
      </trkpt>
      <trkpt lat="46.92498" lon="5.95339">
        <ele>852.4</ele>
        <time>2020-12-26T15:22:23Z</time>
      </trkpt>
      <trkpt lat="46.92496" lon="5.95336">
        <ele>852.8</ele>
        <time>2020-12-26T15:22:24Z</time>
      </trkpt>
      <trkpt lat="46.92493" lon="5.95332">
        <ele>852.8</ele>
        <time>2020-12-26T15:22:25Z</time>
      </trkpt>
      <trkpt lat="46.9249" lon="5.95329">
        <ele>853</ele>
        <time>2020-12-26T15:22:26Z</time>
      </trkpt>
      <trkpt lat="46.92487" lon="5.95326">
        <ele>853.2</ele>
        <time>2020-12-26T15:22:27Z</time>
      </trkpt>
      <trkpt lat="46.92484" lon="5.95323">
        <ele>853.2</ele>
        <time>2020-12-26T15:22:28Z</time>
      </trkpt>
      <trkpt lat="46.92481" lon="5.95321">
        <ele>853.6</ele>
        <time>2020-12-26T15:22:29Z</time>
      </trkpt>
      <trkpt lat="46.92477" lon="5.95318">
        <ele>853.6</ele>
        <time>2020-12-26T15:22:30Z</time>
      </trkpt>
      <trkpt lat="46.92474" lon="5.95315">
        <ele>854</ele>
        <time>2020-12-26T15:22:31Z</time>
      </trkpt>
      <trkpt lat="46.92471" lon="5.95313">
        <ele>854</ele>
        <time>2020-12-26T15:22:32Z</time>
      </trkpt>
      <trkpt lat="46.92468" lon="5.9531">
        <ele>854</ele>
        <time>2020-12-26T15:22:33Z</time>
      </trkpt>
      <trkpt lat="46.92464" lon="5.95308">
        <ele>854.2</ele>
        <time>2020-12-26T15:22:34Z</time>
      </trkpt>
      <trkpt lat="46.92461" lon="5.95305">
        <ele>854.2</ele>
        <time>2020-12-26T15:22:35Z</time>
      </trkpt>
      <trkpt lat="46.92457" lon="5.95302">
        <ele>854.6</ele>
        <time>2020-12-26T15:22:36Z</time>
      </trkpt>
      <trkpt lat="46.92454" lon="5.95299">
        <ele>854.8</ele>
        <time>2020-12-26T15:22:37Z</time>
      </trkpt>
      <trkpt lat="46.9245" lon="5.95296">
        <ele>854.8</ele>
        <time>2020-12-26T15:22:38Z</time>
      </trkpt>
      <trkpt lat="46.92447" lon="5.95293">
        <ele>855</ele>
        <time>2020-12-26T15:22:39Z</time>
      </trkpt>
      <trkpt lat="46.92443" lon="5.95289">
        <ele>855</ele>
        <time>2020-12-26T15:22:40Z</time>
      </trkpt>
      <trkpt lat="46.9244" lon="5.95285">
        <ele>855.2</ele>
        <time>2020-12-26T15:22:41Z</time>
      </trkpt>
      <trkpt lat="46.92438" lon="5.9528">
        <ele>855.2</ele>
        <time>2020-12-26T15:22:42Z</time>
      </trkpt>
      <trkpt lat="46.92436" lon="5.95275">
        <ele>855.6</ele>
        <time>2020-12-26T15:22:43Z</time>
      </trkpt>
      <trkpt lat="46.92434" lon="5.9527">
        <ele>856</ele>
        <time>2020-12-26T15:22:44Z</time>
      </trkpt>
      <trkpt lat="46.92433" lon="5.95265">
        <ele>856</ele>
        <time>2020-12-26T15:22:45Z</time>
      </trkpt>
      <trkpt lat="46.92432" lon="5.9526">
        <ele>856.4</ele>
        <time>2020-12-26T15:22:46Z</time>
      </trkpt>
      <trkpt lat="46.92431" lon="5.95254">
        <ele>856.6</ele>
        <time>2020-12-26T15:22:47Z</time>
      </trkpt>
      <trkpt lat="46.92431" lon="5.95249">
        <ele>856.6</ele>
        <time>2020-12-26T15:22:48Z</time>
      </trkpt>
      <trkpt lat="46.9243" lon="5.95244">
        <ele>857.2</ele>
        <time>2020-12-26T15:22:49Z</time>
      </trkpt>
      <trkpt lat="46.9243" lon="5.9524">
        <ele>857.4</ele>
        <time>2020-12-26T15:22:50Z</time>
      </trkpt>
      <trkpt lat="46.9243" lon="5.95235">
        <ele>857.8</ele>
        <time>2020-12-26T15:22:51Z</time>
      </trkpt>
      <trkpt lat="46.9243" lon="5.95231">
        <ele>858.2</ele>
        <time>2020-12-26T15:22:52Z</time>
      </trkpt>
      <trkpt lat="46.92431" lon="5.95226">
        <ele>858.4</ele>
        <time>2020-12-26T15:22:53Z</time>
      </trkpt>
      <trkpt lat="46.92431" lon="5.95222">
        <ele>858.8</ele>
        <time>2020-12-26T15:22:54Z</time>
      </trkpt>
      <trkpt lat="46.92432" lon="5.95217">
        <ele>859.2</ele>
        <time>2020-12-26T15:22:55Z</time>
      </trkpt>
      <trkpt lat="46.92432" lon="5.95212">
        <ele>859.6</ele>
        <time>2020-12-26T15:22:56Z</time>
      </trkpt>
      <trkpt lat="46.92432" lon="5.95207">
        <ele>860</ele>
        <time>2020-12-26T15:22:57Z</time>
      </trkpt>
      <trkpt lat="46.92432" lon="5.95202">
        <ele>860.2</ele>
        <time>2020-12-26T15:22:58Z</time>
      </trkpt>
      <trkpt lat="46.92432" lon="5.95197">
        <ele>860.4</ele>
        <time>2020-12-26T15:22:59Z</time>
      </trkpt>
      <trkpt lat="46.92432" lon="5.95192">
        <ele>860.6</ele>
        <time>2020-12-26T15:23:00Z</time>
      </trkpt>
      <trkpt lat="46.92432" lon="5.95187">
        <ele>860.6</ele>
        <time>2020-12-26T15:23:01Z</time>
      </trkpt>
      <trkpt lat="46.92431" lon="5.95182">
        <ele>861</ele>
        <time>2020-12-26T15:23:02Z</time>
      </trkpt>
      <trkpt lat="46.92431" lon="5.95177">
        <ele>861.2</ele>
        <time>2020-12-26T15:23:03Z</time>
      </trkpt>
      <trkpt lat="46.92431" lon="5.95173">
        <ele>861.4</ele>
        <time>2020-12-26T15:23:04Z</time>
      </trkpt>
      <trkpt lat="46.9243" lon="5.95168">
        <ele>861.4</ele>
        <time>2020-12-26T15:23:05Z</time>
      </trkpt>
      <trkpt lat="46.92429" lon="5.95164">
        <ele>862</ele>
        <time>2020-12-26T15:23:06Z</time>
      </trkpt>
      <trkpt lat="46.92428" lon="5.9516">
        <ele>862</ele>
        <time>2020-12-26T15:23:07Z</time>
      </trkpt>
      <trkpt lat="46.92427" lon="5.95155">
        <ele>862</ele>
        <time>2020-12-26T15:23:08Z</time>
      </trkpt>
      <trkpt lat="46.92426" lon="5.95151">
        <ele>862</ele>
        <time>2020-12-26T15:23:09Z</time>
      </trkpt>
      <trkpt lat="46.92424" lon="5.95146">
        <ele>862</ele>
        <time>2020-12-26T15:23:10Z</time>
      </trkpt>
      <trkpt lat="46.92423" lon="5.95142">
        <ele>862</ele>
        <time>2020-12-26T15:23:11Z</time>
      </trkpt>
      <trkpt lat="46.92421" lon="5.95138">
        <ele>862.2</ele>
        <time>2020-12-26T15:23:12Z</time>
      </trkpt>
      <trkpt lat="46.92419" lon="5.95135">
        <ele>862.2</ele>
        <time>2020-12-26T15:23:13Z</time>
      </trkpt>
      <trkpt lat="46.92416" lon="5.95131">
        <ele>862.2</ele>
        <time>2020-12-26T15:23:14Z</time>
      </trkpt>
      <trkpt lat="46.92414" lon="5.95127">
        <ele>862.2</ele>
        <time>2020-12-26T15:23:15Z</time>
      </trkpt>
      <trkpt lat="46.92412" lon="5.95124">
        <ele>862.4</ele>
        <time>2020-12-26T15:23:16Z</time>
      </trkpt>
      <trkpt lat="46.92409" lon="5.9512">
        <ele>862.4</ele>
        <time>2020-12-26T15:23:17Z</time>
      </trkpt>
      <trkpt lat="46.92407" lon="5.95116">
        <ele>862.4</ele>
        <time>2020-12-26T15:23:18Z</time>
      </trkpt>
      <trkpt lat="46.92404" lon="5.95112">
        <ele>862.4</ele>
        <time>2020-12-26T15:23:19Z</time>
      </trkpt>
      <trkpt lat="46.92402" lon="5.95108">
        <ele>862.4</ele>
        <time>2020-12-26T15:23:20Z</time>
      </trkpt>
      <trkpt lat="46.92399" lon="5.95104">
        <ele>862.6</ele>
        <time>2020-12-26T15:23:21Z</time>
      </trkpt>
      <trkpt lat="46.92396" lon="5.951">
        <ele>862.6</ele>
        <time>2020-12-26T15:23:22Z</time>
      </trkpt>
      <trkpt lat="46.92393" lon="5.95095">
        <ele>862.6</ele>
        <time>2020-12-26T15:23:23Z</time>
      </trkpt>
      <trkpt lat="46.9239" lon="5.95091">
        <ele>862.6</ele>
        <time>2020-12-26T15:23:24Z</time>
      </trkpt>
      <trkpt lat="46.92387" lon="5.95087">
        <ele>862.8</ele>
        <time>2020-12-26T15:23:25Z</time>
      </trkpt>
      <trkpt lat="46.92384" lon="5.95082">
        <ele>862.8</ele>
        <time>2020-12-26T15:23:26Z</time>
      </trkpt>
      <trkpt lat="46.92381" lon="5.95078">
        <ele>862.8</ele>
        <time>2020-12-26T15:23:27Z</time>
      </trkpt>
      <trkpt lat="46.92378" lon="5.95073">
        <ele>862.8</ele>
        <time>2020-12-26T15:23:28Z</time>
      </trkpt>
      <trkpt lat="46.92375" lon="5.95069">
        <ele>862.8</ele>
        <time>2020-12-26T15:23:29Z</time>
      </trkpt>
      <trkpt lat="46.92372" lon="5.95064">
        <ele>862.8</ele>
        <time>2020-12-26T15:23:30Z</time>
      </trkpt>
      <trkpt lat="46.9237" lon="5.95059">
        <ele>863.2</ele>
        <time>2020-12-26T15:23:31Z</time>
      </trkpt>
      <trkpt lat="46.92367" lon="5.95055">
        <ele>863.2</ele>
        <time>2020-12-26T15:23:32Z</time>
      </trkpt>
      <trkpt lat="46.92364" lon="5.9505">
        <ele>863.4</ele>
        <time>2020-12-26T15:23:33Z</time>
      </trkpt>
      <trkpt lat="46.92361" lon="5.95046">
        <ele>863.4</ele>
        <time>2020-12-26T15:23:34Z</time>
      </trkpt>
      <trkpt lat="46.92358" lon="5.95041">
        <ele>863.6</ele>
        <time>2020-12-26T15:23:35Z</time>
      </trkpt>
      <trkpt lat="46.92355" lon="5.95037">
        <ele>863.6</ele>
        <time>2020-12-26T15:23:36Z</time>
      </trkpt>
      <trkpt lat="46.92352" lon="5.95033">
        <ele>864</ele>
        <time>2020-12-26T15:23:37Z</time>
      </trkpt>
      <trkpt lat="46.92349" lon="5.95029">
        <ele>864</ele>
        <time>2020-12-26T15:23:38Z</time>
      </trkpt>
      <trkpt lat="46.92347" lon="5.95025">
        <ele>864</ele>
        <time>2020-12-26T15:23:39Z</time>
      </trkpt>
      <trkpt lat="46.92344" lon="5.9502">
        <ele>864.4</ele>
        <time>2020-12-26T15:23:40Z</time>
      </trkpt>
      <trkpt lat="46.92341" lon="5.95016">
        <ele>864.4</ele>
        <time>2020-12-26T15:23:41Z</time>
      </trkpt>
      <trkpt lat="46.92338" lon="5.95012">
        <ele>864.6</ele>
        <time>2020-12-26T15:23:42Z</time>
      </trkpt>
      <trkpt lat="46.92335" lon="5.95008">
        <ele>864.6</ele>
        <time>2020-12-26T15:23:43Z</time>
      </trkpt>
      <trkpt lat="46.92333" lon="5.95003">
        <ele>865</ele>
        <time>2020-12-26T15:23:44Z</time>
      </trkpt>
      <trkpt lat="46.9233" lon="5.94999">
        <ele>865.2</ele>
        <time>2020-12-26T15:23:45Z</time>
      </trkpt>
      <trkpt lat="46.92327" lon="5.94995">
        <ele>865.4</ele>
        <time>2020-12-26T15:23:46Z</time>
      </trkpt>
      <trkpt lat="46.92324" lon="5.94991">
        <ele>865.4</ele>
        <time>2020-12-26T15:23:47Z</time>
      </trkpt>
      <trkpt lat="46.92322" lon="5.94987">
        <ele>865.6</ele>
        <time>2020-12-26T15:23:48Z</time>
      </trkpt>
      <trkpt lat="46.92319" lon="5.94983">
        <ele>865.6</ele>
        <time>2020-12-26T15:23:49Z</time>
      </trkpt>
      <trkpt lat="46.92316" lon="5.94979">
        <ele>865.8</ele>
        <time>2020-12-26T15:23:50Z</time>
      </trkpt>
      <trkpt lat="46.92313" lon="5.94975">
        <ele>865.8</ele>
        <time>2020-12-26T15:23:51Z</time>
      </trkpt>
      <trkpt lat="46.92311" lon="5.94971">
        <ele>866.2</ele>
        <time>2020-12-26T15:23:52Z</time>
      </trkpt>
      <trkpt lat="46.92308" lon="5.94967">
        <ele>866.2</ele>
        <time>2020-12-26T15:23:53Z</time>
      </trkpt>
      <trkpt lat="46.92305" lon="5.94963">
        <ele>866.6</ele>
        <time>2020-12-26T15:23:54Z</time>
      </trkpt>
      <trkpt lat="46.92303" lon="5.94959">
        <ele>866.6</ele>
        <time>2020-12-26T15:23:55Z</time>
      </trkpt>
      <trkpt lat="46.923" lon="5.94955">
        <ele>867</ele>
        <time>2020-12-26T15:23:56Z</time>
      </trkpt>
      <trkpt lat="46.92297" lon="5.94952">
        <ele>867.2</ele>
        <time>2020-12-26T15:23:57Z</time>
      </trkpt>
      <trkpt lat="46.92295" lon="5.94948">
        <ele>867.2</ele>
        <time>2020-12-26T15:23:58Z</time>
      </trkpt>
      <trkpt lat="46.92293" lon="5.94944">
        <ele>867.6</ele>
        <time>2020-12-26T15:23:59Z</time>
      </trkpt>
      <trkpt lat="46.9229" lon="5.94941">
        <ele>867.8</ele>
        <time>2020-12-26T15:24:00Z</time>
      </trkpt>
      <trkpt lat="46.92288" lon="5.94937">
        <ele>867.8</ele>
        <time>2020-12-26T15:24:01Z</time>
      </trkpt>
      <trkpt lat="46.92285" lon="5.94934">
        <ele>868.2</ele>
        <time>2020-12-26T15:24:02Z</time>
      </trkpt>
      <trkpt lat="46.92282" lon="5.9493">
        <ele>868.2</ele>
        <time>2020-12-26T15:24:03Z</time>
      </trkpt>
      <trkpt lat="46.9228" lon="5.94927">
        <ele>868.4</ele>
        <time>2020-12-26T15:24:04Z</time>
      </trkpt>
      <trkpt lat="46.92277" lon="5.94923">
        <ele>868.4</ele>
        <time>2020-12-26T15:24:05Z</time>
      </trkpt>
      <trkpt lat="46.92274" lon="5.94919">
        <ele>868.6</ele>
        <time>2020-12-26T15:24:06Z</time>
      </trkpt>
      <trkpt lat="46.92271" lon="5.94916">
        <ele>868.6</ele>
        <time>2020-12-26T15:24:07Z</time>
      </trkpt>
      <trkpt lat="46.92268" lon="5.94912">
        <ele>869</ele>
        <time>2020-12-26T15:24:08Z</time>
      </trkpt>
      <trkpt lat="46.92266" lon="5.94908">
        <ele>869</ele>
        <time>2020-12-26T15:24:09Z</time>
      </trkpt>
      <trkpt lat="46.92263" lon="5.94904">
        <ele>869</ele>
        <time>2020-12-26T15:24:10Z</time>
      </trkpt>
      <trkpt lat="46.92259" lon="5.949">
        <ele>869.2</ele>
        <time>2020-12-26T15:24:11Z</time>
      </trkpt>
      <trkpt lat="46.92256" lon="5.94896">
        <ele>869.2</ele>
        <time>2020-12-26T15:24:12Z</time>
      </trkpt>
      <trkpt lat="46.92253" lon="5.94892">
        <ele>869.4</ele>
        <time>2020-12-26T15:24:13Z</time>
      </trkpt>
      <trkpt lat="46.9225" lon="5.94888">
        <ele>869.4</ele>
        <time>2020-12-26T15:24:14Z</time>
      </trkpt>
      <trkpt lat="46.92247" lon="5.94884">
        <ele>869.8</ele>
        <time>2020-12-26T15:24:15Z</time>
      </trkpt>
      <trkpt lat="46.92245" lon="5.9488">
        <ele>869.8</ele>
        <time>2020-12-26T15:24:16Z</time>
      </trkpt>
      <trkpt lat="46.92242" lon="5.94876">
        <ele>870</ele>
        <time>2020-12-26T15:24:17Z</time>
      </trkpt>
      <trkpt lat="46.92239" lon="5.94872">
        <ele>870</ele>
        <time>2020-12-26T15:24:18Z</time>
      </trkpt>
      <trkpt lat="46.92236" lon="5.94869">
        <ele>870.4</ele>
        <time>2020-12-26T15:24:19Z</time>
      </trkpt>
      <trkpt lat="46.92233" lon="5.94865">
        <ele>870.4</ele>
        <time>2020-12-26T15:24:20Z</time>
      </trkpt>
      <trkpt lat="46.9223" lon="5.94862">
        <ele>870.6</ele>
        <time>2020-12-26T15:24:21Z</time>
      </trkpt>
      <trkpt lat="46.92227" lon="5.94858">
        <ele>870.6</ele>
        <time>2020-12-26T15:24:22Z</time>
      </trkpt>
      <trkpt lat="46.92224" lon="5.94854">
        <ele>871</ele>
        <time>2020-12-26T15:24:23Z</time>
      </trkpt>
      <trkpt lat="46.92221" lon="5.9485">
        <ele>871.2</ele>
        <time>2020-12-26T15:24:24Z</time>
      </trkpt>
      <trkpt lat="46.92217" lon="5.94846">
        <ele>871.4</ele>
        <time>2020-12-26T15:24:25Z</time>
      </trkpt>
      <trkpt lat="46.92214" lon="5.94843">
        <ele>871.8</ele>
        <time>2020-12-26T15:24:26Z</time>
      </trkpt>
      <trkpt lat="46.92211" lon="5.9484">
        <ele>872</ele>
        <time>2020-12-26T15:24:27Z</time>
      </trkpt>
      <trkpt lat="46.92208" lon="5.94837">
        <ele>872.2</ele>
        <time>2020-12-26T15:24:28Z</time>
      </trkpt>
      <trkpt lat="46.92204" lon="5.94834">
        <ele>872.4</ele>
        <time>2020-12-26T15:24:29Z</time>
      </trkpt>
      <trkpt lat="46.92201" lon="5.94831">
        <ele>872.6</ele>
        <time>2020-12-26T15:24:30Z</time>
      </trkpt>
      <trkpt lat="46.92197" lon="5.94828">
        <ele>873</ele>
        <time>2020-12-26T15:24:31Z</time>
      </trkpt>
      <trkpt lat="46.92194" lon="5.94826">
        <ele>873</ele>
        <time>2020-12-26T15:24:32Z</time>
      </trkpt>
      <trkpt lat="46.9219" lon="5.94824">
        <ele>873.4</ele>
        <time>2020-12-26T15:24:33Z</time>
      </trkpt>
      <trkpt lat="46.92186" lon="5.94823">
        <ele>873.4</ele>
        <time>2020-12-26T15:24:34Z</time>
      </trkpt>
      <trkpt lat="46.92183" lon="5.94821">
        <ele>873.6</ele>
        <time>2020-12-26T15:24:35Z</time>
      </trkpt>
      <trkpt lat="46.9218" lon="5.94819">
        <ele>874</ele>
        <time>2020-12-26T15:24:36Z</time>
      </trkpt>
      <trkpt lat="46.92176" lon="5.94817">
        <ele>874.2</ele>
        <time>2020-12-26T15:24:37Z</time>
      </trkpt>
      <trkpt lat="46.92173" lon="5.94816">
        <ele>874.4</ele>
        <time>2020-12-26T15:24:38Z</time>
      </trkpt>
      <trkpt lat="46.92169" lon="5.94814">
        <ele>874.4</ele>
        <time>2020-12-26T15:24:39Z</time>
      </trkpt>
      <trkpt lat="46.92166" lon="5.94812">
        <ele>874.8</ele>
        <time>2020-12-26T15:24:40Z</time>
      </trkpt>
      <trkpt lat="46.92162" lon="5.9481">
        <ele>875.2</ele>
        <time>2020-12-26T15:24:41Z</time>
      </trkpt>
      <trkpt lat="46.92159" lon="5.94809">
        <ele>875.4</ele>
        <time>2020-12-26T15:24:42Z</time>
      </trkpt>
      <trkpt lat="46.92155" lon="5.94806">
        <ele>875.8</ele>
        <time>2020-12-26T15:24:43Z</time>
      </trkpt>
      <trkpt lat="46.92152" lon="5.94804">
        <ele>876</ele>
        <time>2020-12-26T15:24:44Z</time>
      </trkpt>
      <trkpt lat="46.92148" lon="5.94802">
        <ele>876.2</ele>
        <time>2020-12-26T15:24:45Z</time>
      </trkpt>
      <trkpt lat="46.92145" lon="5.94799">
        <ele>876.4</ele>
        <time>2020-12-26T15:24:46Z</time>
      </trkpt>
      <trkpt lat="46.92142" lon="5.94796">
        <ele>876.6</ele>
        <time>2020-12-26T15:24:47Z</time>
      </trkpt>
      <trkpt lat="46.92139" lon="5.94794">
        <ele>877</ele>
        <time>2020-12-26T15:24:48Z</time>
      </trkpt>
      <trkpt lat="46.92136" lon="5.94791">
        <ele>877.2</ele>
        <time>2020-12-26T15:24:49Z</time>
      </trkpt>
      <trkpt lat="46.92133" lon="5.94788">
        <ele>877.6</ele>
        <time>2020-12-26T15:24:50Z</time>
      </trkpt>
      <trkpt lat="46.9213" lon="5.94785">
        <ele>877.8</ele>
        <time>2020-12-26T15:24:51Z</time>
      </trkpt>
      <trkpt lat="46.92127" lon="5.94782">
        <ele>878.2</ele>
        <time>2020-12-26T15:24:52Z</time>
      </trkpt>
      <trkpt lat="46.92125" lon="5.94779">
        <ele>878.4</ele>
        <time>2020-12-26T15:24:53Z</time>
      </trkpt>
      <trkpt lat="46.92122" lon="5.94775">
        <ele>878.4</ele>
        <time>2020-12-26T15:24:54Z</time>
      </trkpt>
      <trkpt lat="46.9212" lon="5.94772">
        <ele>878.6</ele>
        <time>2020-12-26T15:24:55Z</time>
      </trkpt>
      <trkpt lat="46.92117" lon="5.94768">
        <ele>878.6</ele>
        <time>2020-12-26T15:24:56Z</time>
      </trkpt>
      <trkpt lat="46.92115" lon="5.94765">
        <ele>879</ele>
        <time>2020-12-26T15:24:57Z</time>
      </trkpt>
      <trkpt lat="46.92113" lon="5.94761">
        <ele>879.2</ele>
        <time>2020-12-26T15:24:58Z</time>
      </trkpt>
      <trkpt lat="46.9211" lon="5.94758">
        <ele>879.4</ele>
        <time>2020-12-26T15:24:59Z</time>
      </trkpt>
      <trkpt lat="46.92108" lon="5.94754">
        <ele>879.6</ele>
        <time>2020-12-26T15:25:00Z</time>
      </trkpt>
      <trkpt lat="46.92105" lon="5.94751">
        <ele>879.8</ele>
        <time>2020-12-26T15:25:01Z</time>
      </trkpt>
      <trkpt lat="46.92103" lon="5.94747">
        <ele>880.2</ele>
        <time>2020-12-26T15:25:02Z</time>
      </trkpt>
      <trkpt lat="46.92101" lon="5.94743">
        <ele>880.2</ele>
        <time>2020-12-26T15:25:03Z</time>
      </trkpt>
      <trkpt lat="46.92099" lon="5.9474">
        <ele>880.6</ele>
        <time>2020-12-26T15:25:04Z</time>
      </trkpt>
      <trkpt lat="46.92097" lon="5.94736">
        <ele>880.8</ele>
        <time>2020-12-26T15:25:05Z</time>
      </trkpt>
      <trkpt lat="46.92094" lon="5.94732">
        <ele>881</ele>
        <time>2020-12-26T15:25:06Z</time>
      </trkpt>
      <trkpt lat="46.92092" lon="5.94729">
        <ele>881.2</ele>
        <time>2020-12-26T15:25:07Z</time>
      </trkpt>
      <trkpt lat="46.9209" lon="5.94725">
        <ele>881.2</ele>
        <time>2020-12-26T15:25:08Z</time>
      </trkpt>
      <trkpt lat="46.92087" lon="5.94721">
        <ele>881.6</ele>
        <time>2020-12-26T15:25:09Z</time>
      </trkpt>
      <trkpt lat="46.92085" lon="5.94717">
        <ele>881.6</ele>
        <time>2020-12-26T15:25:10Z</time>
      </trkpt>
      <trkpt lat="46.92083" lon="5.94714">
        <ele>882.2</ele>
        <time>2020-12-26T15:25:11Z</time>
      </trkpt>
      <trkpt lat="46.9208" lon="5.9471">
        <ele>882.2</ele>
        <time>2020-12-26T15:25:12Z</time>
      </trkpt>
      <trkpt lat="46.92078" lon="5.94706">
        <ele>882.6</ele>
        <time>2020-12-26T15:25:13Z</time>
      </trkpt>
      <trkpt lat="46.92076" lon="5.94703">
        <ele>882.8</ele>
        <time>2020-12-26T15:25:14Z</time>
      </trkpt>
      <trkpt lat="46.92073" lon="5.94699">
        <ele>882.8</ele>
        <time>2020-12-26T15:25:15Z</time>
      </trkpt>
      <trkpt lat="46.92071" lon="5.94695">
        <ele>883</ele>
        <time>2020-12-26T15:25:16Z</time>
      </trkpt>
      <trkpt lat="46.92069" lon="5.94691">
        <ele>883.4</ele>
        <time>2020-12-26T15:25:17Z</time>
      </trkpt>
      <trkpt lat="46.92066" lon="5.94688">
        <ele>883.6</ele>
        <time>2020-12-26T15:25:18Z</time>
      </trkpt>
      <trkpt lat="46.92064" lon="5.94684">
        <ele>883.8</ele>
        <time>2020-12-26T15:25:19Z</time>
      </trkpt>
      <trkpt lat="46.92062" lon="5.9468">
        <ele>884.2</ele>
        <time>2020-12-26T15:25:20Z</time>
      </trkpt>
      <trkpt lat="46.92059" lon="5.94676">
        <ele>884.6</ele>
        <time>2020-12-26T15:25:21Z</time>
      </trkpt>
      <trkpt lat="46.92057" lon="5.94672">
        <ele>885</ele>
        <time>2020-12-26T15:25:22Z</time>
      </trkpt>
      <trkpt lat="46.92055" lon="5.94668">
        <ele>885.2</ele>
        <time>2020-12-26T15:25:23Z</time>
      </trkpt>
      <trkpt lat="46.92052" lon="5.94664">
        <ele>885.6</ele>
        <time>2020-12-26T15:25:24Z</time>
      </trkpt>
      <trkpt lat="46.9205" lon="5.94661">
        <ele>885.8</ele>
        <time>2020-12-26T15:25:25Z</time>
      </trkpt>
      <trkpt lat="46.92047" lon="5.94657">
        <ele>886</ele>
        <time>2020-12-26T15:25:26Z</time>
      </trkpt>
      <trkpt lat="46.92045" lon="5.94653">
        <ele>886.2</ele>
        <time>2020-12-26T15:25:27Z</time>
      </trkpt>
      <trkpt lat="46.92043" lon="5.94649">
        <ele>886.2</ele>
        <time>2020-12-26T15:25:28Z</time>
      </trkpt>
      <trkpt lat="46.9204" lon="5.94645">
        <ele>886.8</ele>
        <time>2020-12-26T15:25:29Z</time>
      </trkpt>
      <trkpt lat="46.92038" lon="5.94641">
        <ele>887</ele>
        <time>2020-12-26T15:25:30Z</time>
      </trkpt>
      <trkpt lat="46.92036" lon="5.94638">
        <ele>887.2</ele>
        <time>2020-12-26T15:25:31Z</time>
      </trkpt>
      <trkpt lat="46.92033" lon="5.94634">
        <ele>887.6</ele>
        <time>2020-12-26T15:25:32Z</time>
      </trkpt>
      <trkpt lat="46.92031" lon="5.9463">
        <ele>887.8</ele>
        <time>2020-12-26T15:25:33Z</time>
      </trkpt>
      <trkpt lat="46.92028" lon="5.94627">
        <ele>888.2</ele>
        <time>2020-12-26T15:25:34Z</time>
      </trkpt>
      <trkpt lat="46.92026" lon="5.94623">
        <ele>888.4</ele>
        <time>2020-12-26T15:25:35Z</time>
      </trkpt>
      <trkpt lat="46.92023" lon="5.94619">
        <ele>888.6</ele>
        <time>2020-12-26T15:25:36Z</time>
      </trkpt>
      <trkpt lat="46.92021" lon="5.94615">
        <ele>888.8</ele>
        <time>2020-12-26T15:25:37Z</time>
      </trkpt>
      <trkpt lat="46.92019" lon="5.94611">
        <ele>889</ele>
        <time>2020-12-26T15:25:38Z</time>
      </trkpt>
      <trkpt lat="46.92016" lon="5.94607">
        <ele>889.4</ele>
        <time>2020-12-26T15:25:39Z</time>
      </trkpt>
      <trkpt lat="46.92014" lon="5.94603">
        <ele>889.6</ele>
        <time>2020-12-26T15:25:40Z</time>
      </trkpt>
      <trkpt lat="46.92011" lon="5.94599">
        <ele>889.8</ele>
        <time>2020-12-26T15:25:41Z</time>
      </trkpt>
      <trkpt lat="46.92009" lon="5.94596">
        <ele>890.2</ele>
        <time>2020-12-26T15:25:42Z</time>
      </trkpt>
      <trkpt lat="46.92006" lon="5.94592">
        <ele>890.4</ele>
        <time>2020-12-26T15:25:43Z</time>
      </trkpt>
      <trkpt lat="46.92004" lon="5.94588">
        <ele>890.4</ele>
        <time>2020-12-26T15:25:44Z</time>
      </trkpt>
      <trkpt lat="46.92001" lon="5.94584">
        <ele>890.8</ele>
        <time>2020-12-26T15:25:45Z</time>
      </trkpt>
      <trkpt lat="46.91999" lon="5.9458">
        <ele>891</ele>
        <time>2020-12-26T15:25:46Z</time>
      </trkpt>
      <trkpt lat="46.91996" lon="5.94576">
        <ele>891.2</ele>
        <time>2020-12-26T15:25:47Z</time>
      </trkpt>
      <trkpt lat="46.91994" lon="5.94572">
        <ele>891.2</ele>
        <time>2020-12-26T15:25:48Z</time>
      </trkpt>
      <trkpt lat="46.91992" lon="5.94568">
        <ele>891.6</ele>
        <time>2020-12-26T15:25:49Z</time>
      </trkpt>
      <trkpt lat="46.9199" lon="5.94564">
        <ele>892</ele>
        <time>2020-12-26T15:25:50Z</time>
      </trkpt>
      <trkpt lat="46.91988" lon="5.94559">
        <ele>892.2</ele>
        <time>2020-12-26T15:25:51Z</time>
      </trkpt>
      <trkpt lat="46.91986" lon="5.94555">
        <ele>892.2</ele>
        <time>2020-12-26T15:25:52Z</time>
      </trkpt>
      <trkpt lat="46.91984" lon="5.94551">
        <ele>892.6</ele>
        <time>2020-12-26T15:25:53Z</time>
      </trkpt>
      <trkpt lat="46.91982" lon="5.94547">
        <ele>892.6</ele>
        <time>2020-12-26T15:25:54Z</time>
      </trkpt>
      <trkpt lat="46.9198" lon="5.94542">
        <ele>893</ele>
        <time>2020-12-26T15:25:55Z</time>
      </trkpt>
      <trkpt lat="46.91979" lon="5.94538">
        <ele>893.4</ele>
        <time>2020-12-26T15:25:56Z</time>
      </trkpt>
      <trkpt lat="46.91977" lon="5.94534">
        <ele>893.6</ele>
        <time>2020-12-26T15:25:57Z</time>
      </trkpt>
      <trkpt lat="46.91975" lon="5.94529">
        <ele>893.6</ele>
        <time>2020-12-26T15:25:58Z</time>
      </trkpt>
      <trkpt lat="46.91973" lon="5.94525">
        <ele>893.8</ele>
        <time>2020-12-26T15:25:59Z</time>
      </trkpt>
      <trkpt lat="46.91971" lon="5.94521">
        <ele>894.2</ele>
        <time>2020-12-26T15:26:00Z</time>
      </trkpt>
      <trkpt lat="46.9197" lon="5.94517">
        <ele>894.4</ele>
        <time>2020-12-26T15:26:01Z</time>
      </trkpt>
      <trkpt lat="46.91968" lon="5.94512">
        <ele>894.4</ele>
        <time>2020-12-26T15:26:02Z</time>
      </trkpt>
      <trkpt lat="46.91966" lon="5.94508">
        <ele>894.8</ele>
        <time>2020-12-26T15:26:03Z</time>
      </trkpt>
      <trkpt lat="46.91965" lon="5.94503">
        <ele>895.2</ele>
        <time>2020-12-26T15:26:04Z</time>
      </trkpt>
      <trkpt lat="46.91963" lon="5.94499">
        <ele>895.4</ele>
        <time>2020-12-26T15:26:05Z</time>
      </trkpt>
      <trkpt lat="46.91961" lon="5.94495">
        <ele>895.6</ele>
        <time>2020-12-26T15:26:06Z</time>
      </trkpt>
      <trkpt lat="46.9196" lon="5.94491">
        <ele>895.8</ele>
        <time>2020-12-26T15:26:07Z</time>
      </trkpt>
      <trkpt lat="46.91958" lon="5.94487">
        <ele>896.2</ele>
        <time>2020-12-26T15:26:08Z</time>
      </trkpt>
      <trkpt lat="46.91957" lon="5.94483">
        <ele>896.4</ele>
        <time>2020-12-26T15:26:09Z</time>
      </trkpt>
      <trkpt lat="46.91955" lon="5.94479">
        <ele>896.6</ele>
        <time>2020-12-26T15:26:10Z</time>
      </trkpt>
      <trkpt lat="46.91954" lon="5.94475">
        <ele>897</ele>
        <time>2020-12-26T15:26:11Z</time>
      </trkpt>
      <trkpt lat="46.91952" lon="5.9447">
        <ele>897.2</ele>
        <time>2020-12-26T15:26:12Z</time>
      </trkpt>
      <trkpt lat="46.91951" lon="5.94466">
        <ele>897.4</ele>
        <time>2020-12-26T15:26:13Z</time>
      </trkpt>
      <trkpt lat="46.91949" lon="5.94462">
        <ele>897.8</ele>
        <time>2020-12-26T15:26:14Z</time>
      </trkpt>
      <trkpt lat="46.91948" lon="5.94458">
        <ele>898</ele>
        <time>2020-12-26T15:26:15Z</time>
      </trkpt>
      <trkpt lat="46.91946" lon="5.94454">
        <ele>898.2</ele>
        <time>2020-12-26T15:26:16Z</time>
      </trkpt>
      <trkpt lat="46.91945" lon="5.9445">
        <ele>898.4</ele>
        <time>2020-12-26T15:26:17Z</time>
      </trkpt>
      <trkpt lat="46.91943" lon="5.94446">
        <ele>898.6</ele>
        <time>2020-12-26T15:26:18Z</time>
      </trkpt>
      <trkpt lat="46.91941" lon="5.94442">
        <ele>898.8</ele>
        <time>2020-12-26T15:26:19Z</time>
      </trkpt>
      <trkpt lat="46.9194" lon="5.94438">
        <ele>899.2</ele>
        <time>2020-12-26T15:26:20Z</time>
      </trkpt>
      <trkpt lat="46.91939" lon="5.94433">
        <ele>899.4</ele>
        <time>2020-12-26T15:26:21Z</time>
      </trkpt>
      <trkpt lat="46.91938" lon="5.94429">
        <ele>899.6</ele>
        <time>2020-12-26T15:26:22Z</time>
      </trkpt>
      <trkpt lat="46.91936" lon="5.94424">
        <ele>900</ele>
        <time>2020-12-26T15:26:23Z</time>
      </trkpt>
      <trkpt lat="46.91934" lon="5.9442">
        <ele>900</ele>
        <time>2020-12-26T15:26:24Z</time>
      </trkpt>
      <trkpt lat="46.91933" lon="5.94416">
        <ele>900.4</ele>
        <time>2020-12-26T15:26:25Z</time>
      </trkpt>
      <trkpt lat="46.91931" lon="5.94412">
        <ele>900.4</ele>
        <time>2020-12-26T15:26:26Z</time>
      </trkpt>
      <trkpt lat="46.91929" lon="5.94408">
        <ele>900.8</ele>
        <time>2020-12-26T15:26:27Z</time>
      </trkpt>
      <trkpt lat="46.91927" lon="5.94404">
        <ele>901</ele>
        <time>2020-12-26T15:26:28Z</time>
      </trkpt>
      <trkpt lat="46.91925" lon="5.94401">
        <ele>901.2</ele>
        <time>2020-12-26T15:26:29Z</time>
      </trkpt>
      <trkpt lat="46.91923" lon="5.94397">
        <ele>901.6</ele>
        <time>2020-12-26T15:26:30Z</time>
      </trkpt>
      <trkpt lat="46.91921" lon="5.94394">
        <ele>901.6</ele>
        <time>2020-12-26T15:26:31Z</time>
      </trkpt>
      <trkpt lat="46.91918" lon="5.9439">
        <ele>901.8</ele>
        <time>2020-12-26T15:26:32Z</time>
      </trkpt>
      <trkpt lat="46.91916" lon="5.94387">
        <ele>902</ele>
        <time>2020-12-26T15:26:33Z</time>
      </trkpt>
      <trkpt lat="46.91914" lon="5.94383">
        <ele>902</ele>
        <time>2020-12-26T15:26:34Z</time>
      </trkpt>
      <trkpt lat="46.91911" lon="5.94381">
        <ele>902.4</ele>
        <time>2020-12-26T15:26:35Z</time>
      </trkpt>
      <trkpt lat="46.91908" lon="5.94378">
        <ele>902.6</ele>
        <time>2020-12-26T15:26:36Z</time>
      </trkpt>
      <trkpt lat="46.91905" lon="5.94376">
        <ele>902.8</ele>
        <time>2020-12-26T15:26:37Z</time>
      </trkpt>
      <trkpt lat="46.91902" lon="5.94374">
        <ele>903</ele>
        <time>2020-12-26T15:26:38Z</time>
      </trkpt>
      <trkpt lat="46.91899" lon="5.94372">
        <ele>903</ele>
        <time>2020-12-26T15:26:39Z</time>
      </trkpt>
      <trkpt lat="46.91897" lon="5.9437">
        <ele>903.4</ele>
        <time>2020-12-26T15:26:40Z</time>
      </trkpt>
      <trkpt lat="46.91894" lon="5.94369">
        <ele>903.6</ele>
        <time>2020-12-26T15:26:41Z</time>
      </trkpt>
      <trkpt lat="46.91891" lon="5.94367">
        <ele>904</ele>
        <time>2020-12-26T15:26:42Z</time>
      </trkpt>
      <trkpt lat="46.91888" lon="5.94366">
        <ele>904</ele>
        <time>2020-12-26T15:26:43Z</time>
      </trkpt>
      <trkpt lat="46.91886" lon="5.94364">
        <ele>904.2</ele>
        <time>2020-12-26T15:26:44Z</time>
      </trkpt>
      <trkpt lat="46.91883" lon="5.94363">
        <ele>904.6</ele>
        <time>2020-12-26T15:26:45Z</time>
      </trkpt>
      <trkpt lat="46.9188" lon="5.94362">
        <ele>904.8</ele>
        <time>2020-12-26T15:26:46Z</time>
      </trkpt>
      <trkpt lat="46.91877" lon="5.94361">
        <ele>904.8</ele>
        <time>2020-12-26T15:26:47Z</time>
      </trkpt>
      <trkpt lat="46.91874" lon="5.9436">
        <ele>905.2</ele>
        <time>2020-12-26T15:26:48Z</time>
      </trkpt>
      <trkpt lat="46.91871" lon="5.94359">
        <ele>905.2</ele>
        <time>2020-12-26T15:26:49Z</time>
      </trkpt>
      <trkpt lat="46.91867" lon="5.94358">
        <ele>905.6</ele>
        <time>2020-12-26T15:26:50Z</time>
      </trkpt>
      <trkpt lat="46.91864" lon="5.94357">
        <ele>905.6</ele>
        <time>2020-12-26T15:26:51Z</time>
      </trkpt>
      <trkpt lat="46.91861" lon="5.94356">
        <ele>905.8</ele>
        <time>2020-12-26T15:26:52Z</time>
      </trkpt>
      <trkpt lat="46.91858" lon="5.94355">
        <ele>905.8</ele>
        <time>2020-12-26T15:26:53Z</time>
      </trkpt>
      <trkpt lat="46.91854" lon="5.94353">
        <ele>905.8</ele>
        <time>2020-12-26T15:26:54Z</time>
      </trkpt>
      <trkpt lat="46.91851" lon="5.94352">
        <ele>906.2</ele>
        <time>2020-12-26T15:26:55Z</time>
      </trkpt>
      <trkpt lat="46.91848" lon="5.94351">
        <ele>906.2</ele>
        <time>2020-12-26T15:26:56Z</time>
      </trkpt>
      <trkpt lat="46.91845" lon="5.94349">
        <ele>906.2</ele>
        <time>2020-12-26T15:26:57Z</time>
      </trkpt>
      <trkpt lat="46.91842" lon="5.94349">
        <ele>906.2</ele>
        <time>2020-12-26T15:26:58Z</time>
      </trkpt>
      <trkpt lat="46.91838" lon="5.94347">
        <ele>906.2</ele>
        <time>2020-12-26T15:26:59Z</time>
      </trkpt>
      <trkpt lat="46.91835" lon="5.94346">
        <ele>906.2</ele>
        <time>2020-12-26T15:27:00Z</time>
      </trkpt>
      <trkpt lat="46.91832" lon="5.94344">
        <ele>906.2</ele>
        <time>2020-12-26T15:27:01Z</time>
      </trkpt>
      <trkpt lat="46.91828" lon="5.94342">
        <ele>906</ele>
        <time>2020-12-26T15:27:02Z</time>
      </trkpt>
      <trkpt lat="46.91825" lon="5.9434">
        <ele>906</ele>
        <time>2020-12-26T15:27:03Z</time>
      </trkpt>
      <trkpt lat="46.91821" lon="5.94338">
        <ele>906</ele>
        <time>2020-12-26T15:27:04Z</time>
      </trkpt>
      <trkpt lat="46.91817" lon="5.94336">
        <ele>906</ele>
        <time>2020-12-26T15:27:05Z</time>
      </trkpt>
      <trkpt lat="46.91814" lon="5.94332">
        <ele>905.8</ele>
        <time>2020-12-26T15:27:06Z</time>
      </trkpt>
      <trkpt lat="46.91811" lon="5.94328">
        <ele>905.8</ele>
        <time>2020-12-26T15:27:07Z</time>
      </trkpt>
      <trkpt lat="46.91808" lon="5.94323">
        <ele>905.4</ele>
        <time>2020-12-26T15:27:08Z</time>
      </trkpt>
      <trkpt lat="46.91805" lon="5.94317">
        <ele>905.4</ele>
        <time>2020-12-26T15:27:09Z</time>
      </trkpt>
      <trkpt lat="46.91802" lon="5.9431">
        <ele>905</ele>
        <time>2020-12-26T15:27:10Z</time>
      </trkpt>
      <trkpt lat="46.918" lon="5.94302">
        <ele>904.8</ele>
        <time>2020-12-26T15:27:11Z</time>
      </trkpt>
      <trkpt lat="46.91799" lon="5.94295">
        <ele>904.8</ele>
        <time>2020-12-26T15:27:12Z</time>
      </trkpt>
      <trkpt lat="46.91797" lon="5.94286">
        <ele>904.6</ele>
        <time>2020-12-26T15:27:13Z</time>
      </trkpt>
      <trkpt lat="46.91797" lon="5.94278">
        <ele>904.6</ele>
        <time>2020-12-26T15:27:14Z</time>
      </trkpt>
      <trkpt lat="46.91796" lon="5.94268">
        <ele>904</ele>
        <time>2020-12-26T15:27:15Z</time>
      </trkpt>
      <trkpt lat="46.91796" lon="5.94259">
        <ele>903.8</ele>
        <time>2020-12-26T15:27:16Z</time>
      </trkpt>
      <trkpt lat="46.91796" lon="5.94249">
        <ele>903.4</ele>
        <time>2020-12-26T15:27:17Z</time>
      </trkpt>
      <trkpt lat="46.91795" lon="5.9424">
        <ele>903</ele>
        <time>2020-12-26T15:27:18Z</time>
      </trkpt>
      <trkpt lat="46.91795" lon="5.9423">
        <ele>902.6</ele>
        <time>2020-12-26T15:27:19Z</time>
      </trkpt>
      <trkpt lat="46.91795" lon="5.9422">
        <ele>902.2</ele>
        <time>2020-12-26T15:27:20Z</time>
      </trkpt>
      <trkpt lat="46.91794" lon="5.9421">
        <ele>902</ele>
        <time>2020-12-26T15:27:21Z</time>
      </trkpt>
      <trkpt lat="46.91792" lon="5.94201">
        <ele>901.8</ele>
        <time>2020-12-26T15:27:22Z</time>
      </trkpt>
      <trkpt lat="46.91791" lon="5.94193">
        <ele>901.8</ele>
        <time>2020-12-26T15:27:23Z</time>
      </trkpt>
      <trkpt lat="46.91789" lon="5.94184">
        <ele>901.4</ele>
        <time>2020-12-26T15:27:24Z</time>
      </trkpt>
      <trkpt lat="46.91787" lon="5.94176">
        <ele>901.4</ele>
        <time>2020-12-26T15:27:25Z</time>
      </trkpt>
      <trkpt lat="46.91785" lon="5.94168">
        <ele>901.4</ele>
        <time>2020-12-26T15:27:26Z</time>
      </trkpt>
      <trkpt lat="46.91783" lon="5.9416">
        <ele>901.2</ele>
        <time>2020-12-26T15:27:27Z</time>
      </trkpt>
      <trkpt lat="46.91781" lon="5.94153">
        <ele>901.2</ele>
        <time>2020-12-26T15:27:28Z</time>
      </trkpt>
      <trkpt lat="46.91779" lon="5.94146">
        <ele>901.2</ele>
        <time>2020-12-26T15:27:29Z</time>
      </trkpt>
      <trkpt lat="46.91778" lon="5.94139">
        <ele>900.8</ele>
        <time>2020-12-26T15:27:30Z</time>
      </trkpt>
      <trkpt lat="46.91776" lon="5.94132">
        <ele>900.8</ele>
        <time>2020-12-26T15:27:31Z</time>
      </trkpt>
      <trkpt lat="46.91774" lon="5.94125">
        <ele>900.8</ele>
        <time>2020-12-26T15:27:32Z</time>
      </trkpt>
      <trkpt lat="46.91773" lon="5.94119">
        <ele>900.8</ele>
        <time>2020-12-26T15:27:33Z</time>
      </trkpt>
      <trkpt lat="46.91771" lon="5.94113">
        <ele>900.8</ele>
        <time>2020-12-26T15:27:34Z</time>
      </trkpt>
      <trkpt lat="46.91769" lon="5.94107">
        <ele>900.8</ele>
        <time>2020-12-26T15:27:35Z</time>
      </trkpt>
      <trkpt lat="46.91768" lon="5.94101">
        <ele>900.8</ele>
        <time>2020-12-26T15:27:36Z</time>
      </trkpt>
      <trkpt lat="46.91766" lon="5.94095">
        <ele>900.8</ele>
        <time>2020-12-26T15:27:37Z</time>
      </trkpt>
      <trkpt lat="46.91765" lon="5.94089">
        <ele>900.8</ele>
        <time>2020-12-26T15:27:38Z</time>
      </trkpt>
      <trkpt lat="46.91763" lon="5.94083">
        <ele>901.2</ele>
        <time>2020-12-26T15:27:39Z</time>
      </trkpt>
      <trkpt lat="46.91762" lon="5.94078">
        <ele>901.2</ele>
        <time>2020-12-26T15:27:40Z</time>
      </trkpt>
      <trkpt lat="46.91761" lon="5.94072">
        <ele>901.2</ele>
        <time>2020-12-26T15:27:41Z</time>
      </trkpt>
      <trkpt lat="46.91759" lon="5.94067">
        <ele>901.2</ele>
        <time>2020-12-26T15:27:42Z</time>
      </trkpt>
      <trkpt lat="46.91757" lon="5.94062">
        <ele>901.4</ele>
        <time>2020-12-26T15:27:43Z</time>
      </trkpt>
      <trkpt lat="46.91756" lon="5.94057">
        <ele>901.4</ele>
        <time>2020-12-26T15:27:44Z</time>
      </trkpt>
      <trkpt lat="46.91754" lon="5.94052">
        <ele>901.4</ele>
        <time>2020-12-26T15:27:45Z</time>
      </trkpt>
      <trkpt lat="46.91753" lon="5.94047">
        <ele>901.6</ele>
        <time>2020-12-26T15:27:46Z</time>
      </trkpt>
      <trkpt lat="46.91752" lon="5.94042">
        <ele>901.6</ele>
        <time>2020-12-26T15:27:47Z</time>
      </trkpt>
      <trkpt lat="46.91752" lon="5.94037">
        <ele>901.8</ele>
        <time>2020-12-26T15:27:48Z</time>
      </trkpt>
      <trkpt lat="46.91751" lon="5.94033">
        <ele>901.8</ele>
        <time>2020-12-26T15:27:49Z</time>
      </trkpt>
      <trkpt lat="46.91751" lon="5.94029">
        <ele>901.8</ele>
        <time>2020-12-26T15:27:50Z</time>
      </trkpt>
      <trkpt lat="46.91751" lon="5.94025">
        <ele>901.8</ele>
        <time>2020-12-26T15:27:51Z</time>
      </trkpt>
      <trkpt lat="46.91751" lon="5.94021">
        <ele>902</ele>
        <time>2020-12-26T15:27:52Z</time>
      </trkpt>
      <trkpt lat="46.91752" lon="5.94018">
        <ele>902</ele>
        <time>2020-12-26T15:27:53Z</time>
      </trkpt>
      <trkpt lat="46.91752" lon="5.94014">
        <ele>902</ele>
        <time>2020-12-26T15:27:54Z</time>
      </trkpt>
      <trkpt lat="46.91753" lon="5.94011">
        <ele>902.4</ele>
        <time>2020-12-26T15:27:55Z</time>
      </trkpt>
      <trkpt lat="46.91753" lon="5.94007">
        <ele>902.4</ele>
        <time>2020-12-26T15:27:56Z</time>
      </trkpt>
      <trkpt lat="46.91753" lon="5.94004">
        <ele>902.4</ele>
        <time>2020-12-26T15:27:57Z</time>
      </trkpt>
      <trkpt lat="46.91754" lon="5.94002">
        <ele>902.6</ele>
        <time>2020-12-26T15:27:58Z</time>
      </trkpt>
      <trkpt lat="46.91754" lon="5.94001">
        <ele>902.6</ele>
        <time>2020-12-26T15:27:59Z</time>
      </trkpt>
      <trkpt lat="46.91754" lon="5.93997">
        <ele>902.6</ele>
        <time>2020-12-26T15:29:23Z</time>
      </trkpt>
      <trkpt lat="46.91754" lon="5.93994">
        <ele>902.6</ele>
        <time>2020-12-26T15:29:24Z</time>
      </trkpt>
      <trkpt lat="46.91755" lon="5.93991">
        <ele>902.6</ele>
        <time>2020-12-26T15:29:25Z</time>
      </trkpt>
      <trkpt lat="46.91755" lon="5.93987">
        <ele>902.6</ele>
        <time>2020-12-26T15:29:26Z</time>
      </trkpt>
      <trkpt lat="46.91755" lon="5.93983">
        <ele>902.6</ele>
        <time>2020-12-26T15:29:27Z</time>
      </trkpt>
      <trkpt lat="46.91755" lon="5.93979">
        <ele>902.6</ele>
        <time>2020-12-26T15:29:28Z</time>
      </trkpt>
      <trkpt lat="46.91756" lon="5.93975">
        <ele>902.8</ele>
        <time>2020-12-26T15:29:29Z</time>
      </trkpt>
      <trkpt lat="46.91756" lon="5.9397">
        <ele>902.8</ele>
        <time>2020-12-26T15:29:30Z</time>
      </trkpt>
      <trkpt lat="46.91757" lon="5.93966">
        <ele>902.8</ele>
        <time>2020-12-26T15:29:31Z</time>
      </trkpt>
      <trkpt lat="46.91757" lon="5.93961">
        <ele>903.2</ele>
        <time>2020-12-26T15:29:32Z</time>
      </trkpt>
      <trkpt lat="46.91758" lon="5.93956">
        <ele>903.2</ele>
        <time>2020-12-26T15:29:33Z</time>
      </trkpt>
      <trkpt lat="46.91758" lon="5.93951">
        <ele>903.2</ele>
        <time>2020-12-26T15:29:34Z</time>
      </trkpt>
      <trkpt lat="46.91759" lon="5.93946">
        <ele>903.2</ele>
        <time>2020-12-26T15:29:35Z</time>
      </trkpt>
      <trkpt lat="46.9176" lon="5.93942">
        <ele>903.4</ele>
        <time>2020-12-26T15:29:36Z</time>
      </trkpt>
      <trkpt lat="46.9176" lon="5.93938">
        <ele>903.4</ele>
        <time>2020-12-26T15:29:37Z</time>
      </trkpt>
      <trkpt lat="46.9176" lon="5.93933">
        <ele>903.8</ele>
        <time>2020-12-26T15:29:38Z</time>
      </trkpt>
      <trkpt lat="46.9176" lon="5.93929">
        <ele>903.8</ele>
        <time>2020-12-26T15:29:39Z</time>
      </trkpt>
      <trkpt lat="46.9176" lon="5.93925">
        <ele>904.2</ele>
        <time>2020-12-26T15:29:40Z</time>
      </trkpt>
      <trkpt lat="46.91761" lon="5.93921">
        <ele>904.2</ele>
        <time>2020-12-26T15:29:41Z</time>
      </trkpt>
      <trkpt lat="46.91761" lon="5.93916">
        <ele>904.4</ele>
        <time>2020-12-26T15:29:42Z</time>
      </trkpt>
      <trkpt lat="46.91762" lon="5.93912">
        <ele>904.6</ele>
        <time>2020-12-26T15:29:43Z</time>
      </trkpt>
      <trkpt lat="46.91762" lon="5.93908">
        <ele>904.8</ele>
        <time>2020-12-26T15:29:44Z</time>
      </trkpt>
      <trkpt lat="46.91762" lon="5.93904">
        <ele>904.8</ele>
        <time>2020-12-26T15:29:45Z</time>
      </trkpt>
      <trkpt lat="46.91763" lon="5.939">
        <ele>905.2</ele>
        <time>2020-12-26T15:29:46Z</time>
      </trkpt>
      <trkpt lat="46.91763" lon="5.93896">
        <ele>905.4</ele>
        <time>2020-12-26T15:29:47Z</time>
      </trkpt>
      <trkpt lat="46.91763" lon="5.93892">
        <ele>905.6</ele>
        <time>2020-12-26T15:29:48Z</time>
      </trkpt>
      <trkpt lat="46.91763" lon="5.93888">
        <ele>905.6</ele>
        <time>2020-12-26T15:29:49Z</time>
      </trkpt>
      <trkpt lat="46.91764" lon="5.93884">
        <ele>906</ele>
        <time>2020-12-26T15:29:50Z</time>
      </trkpt>
      <trkpt lat="46.91764" lon="5.9388">
        <ele>906</ele>
        <time>2020-12-26T15:29:51Z</time>
      </trkpt>
      <trkpt lat="46.91764" lon="5.93875">
        <ele>906.2</ele>
        <time>2020-12-26T15:29:52Z</time>
      </trkpt>
      <trkpt lat="46.91765" lon="5.93871">
        <ele>906.2</ele>
        <time>2020-12-26T15:29:53Z</time>
      </trkpt>
      <trkpt lat="46.91765" lon="5.93867">
        <ele>906.6</ele>
        <time>2020-12-26T15:29:54Z</time>
      </trkpt>
      <trkpt lat="46.91766" lon="5.93863">
        <ele>906.6</ele>
        <time>2020-12-26T15:29:55Z</time>
      </trkpt>
      <trkpt lat="46.91766" lon="5.93858">
        <ele>907</ele>
        <time>2020-12-26T15:29:56Z</time>
      </trkpt>
      <trkpt lat="46.91767" lon="5.93854">
        <ele>907</ele>
        <time>2020-12-26T15:29:57Z</time>
      </trkpt>
      <trkpt lat="46.91767" lon="5.93849">
        <ele>907.2</ele>
        <time>2020-12-26T15:29:58Z</time>
      </trkpt>
      <trkpt lat="46.91767" lon="5.93845">
        <ele>907.2</ele>
        <time>2020-12-26T15:29:59Z</time>
      </trkpt>
      <trkpt lat="46.91768" lon="5.93841">
        <ele>907.4</ele>
        <time>2020-12-26T15:30:00Z</time>
      </trkpt>
      <trkpt lat="46.91769" lon="5.93836">
        <ele>907.4</ele>
        <time>2020-12-26T15:30:01Z</time>
      </trkpt>
      <trkpt lat="46.91769" lon="5.93832">
        <ele>907.8</ele>
        <time>2020-12-26T15:30:02Z</time>
      </trkpt>
      <trkpt lat="46.9177" lon="5.93828">
        <ele>907.8</ele>
        <time>2020-12-26T15:30:03Z</time>
      </trkpt>
      <trkpt lat="46.91771" lon="5.93824">
        <ele>908.2</ele>
        <time>2020-12-26T15:30:04Z</time>
      </trkpt>
      <trkpt lat="46.91771" lon="5.93819">
        <ele>908.2</ele>
        <time>2020-12-26T15:30:05Z</time>
      </trkpt>
      <trkpt lat="46.91772" lon="5.93815">
        <ele>908.4</ele>
        <time>2020-12-26T15:30:06Z</time>
      </trkpt>
      <trkpt lat="46.91773" lon="5.93811">
        <ele>908.4</ele>
        <time>2020-12-26T15:30:07Z</time>
      </trkpt>
      <trkpt lat="46.91774" lon="5.93806">
        <ele>908.8</ele>
        <time>2020-12-26T15:30:08Z</time>
      </trkpt>
      <trkpt lat="46.91775" lon="5.93802">
        <ele>908.8</ele>
        <time>2020-12-26T15:30:09Z</time>
      </trkpt>
      <trkpt lat="46.91776" lon="5.93798">
        <ele>909</ele>
        <time>2020-12-26T15:30:10Z</time>
      </trkpt>
      <trkpt lat="46.91777" lon="5.93794">
        <ele>909</ele>
        <time>2020-12-26T15:30:11Z</time>
      </trkpt>
      <trkpt lat="46.91777" lon="5.9379">
        <ele>909.2</ele>
        <time>2020-12-26T15:30:12Z</time>
      </trkpt>
      <trkpt lat="46.91778" lon="5.93786">
        <ele>909.4</ele>
        <time>2020-12-26T15:30:13Z</time>
      </trkpt>
      <trkpt lat="46.91779" lon="5.93782">
        <ele>909.4</ele>
        <time>2020-12-26T15:30:14Z</time>
      </trkpt>
      <trkpt lat="46.91779" lon="5.93778">
        <ele>909.6</ele>
        <time>2020-12-26T15:30:15Z</time>
      </trkpt>
      <trkpt lat="46.91779" lon="5.93775">
        <ele>909.6</ele>
        <time>2020-12-26T15:30:16Z</time>
      </trkpt>
      <trkpt lat="46.9178" lon="5.93771">
        <ele>910</ele>
        <time>2020-12-26T15:30:17Z</time>
      </trkpt>
      <trkpt lat="46.91779" lon="5.93768">
        <ele>910.2</ele>
        <time>2020-12-26T15:30:18Z</time>
      </trkpt>
      <trkpt lat="46.91779" lon="5.93765">
        <ele>910.4</ele>
        <time>2020-12-26T15:30:19Z</time>
      </trkpt>
      <trkpt lat="46.91778" lon="5.93762">
        <ele>910.4</ele>
        <time>2020-12-26T15:30:20Z</time>
      </trkpt>
      <trkpt lat="46.91778" lon="5.93759">
        <ele>910.8</ele>
        <time>2020-12-26T15:30:21Z</time>
      </trkpt>
      <trkpt lat="46.91777" lon="5.93757">
        <ele>910.8</ele>
        <time>2020-12-26T15:30:22Z</time>
      </trkpt>
      <trkpt lat="46.91776" lon="5.93755">
        <ele>911</ele>
        <time>2020-12-26T15:30:23Z</time>
      </trkpt>
      <trkpt lat="46.91775" lon="5.93752">
        <ele>911</ele>
        <time>2020-12-26T15:30:24Z</time>
      </trkpt>
      <trkpt lat="46.91775" lon="5.9375">
        <ele>911.4</ele>
        <time>2020-12-26T15:30:25Z</time>
      </trkpt>
      <trkpt lat="46.91774" lon="5.93748">
        <ele>911.4</ele>
        <time>2020-12-26T15:30:26Z</time>
      </trkpt>
      <trkpt lat="46.91774" lon="5.93746">
        <ele>911.6</ele>
        <time>2020-12-26T15:30:27Z</time>
      </trkpt>
      <trkpt lat="46.91773" lon="5.93744">
        <ele>911.6</ele>
        <time>2020-12-26T15:30:28Z</time>
      </trkpt>
      <trkpt lat="46.91773" lon="5.93742">
        <ele>911.6</ele>
        <time>2020-12-26T15:30:29Z</time>
      </trkpt>
      <trkpt lat="46.91772" lon="5.9374">
        <ele>912</ele>
        <time>2020-12-26T15:30:30Z</time>
      </trkpt>
      <trkpt lat="46.91772" lon="5.93739">
        <ele>912.2</ele>
        <time>2020-12-26T15:30:31Z</time>
      </trkpt>
      <trkpt lat="46.91771" lon="5.93737">
        <ele>912.2</ele>
        <time>2020-12-26T15:30:32Z</time>
      </trkpt>
      <trkpt lat="46.91769" lon="5.93735">
        <ele>912.6</ele>
        <time>2020-12-26T15:30:33Z</time>
      </trkpt>
      <trkpt lat="46.91768" lon="5.93733">
        <ele>912.6</ele>
        <time>2020-12-26T15:30:34Z</time>
      </trkpt>
      <trkpt lat="46.91767" lon="5.93731">
        <ele>913</ele>
        <time>2020-12-26T15:30:35Z</time>
      </trkpt>
      <trkpt lat="46.91766" lon="5.93729">
        <ele>913</ele>
        <time>2020-12-26T15:30:36Z</time>
      </trkpt>
      <trkpt lat="46.91765" lon="5.93726">
        <ele>913.4</ele>
        <time>2020-12-26T15:30:37Z</time>
      </trkpt>
      <trkpt lat="46.91764" lon="5.93724">
        <ele>913.4</ele>
        <time>2020-12-26T15:30:38Z</time>
      </trkpt>
      <trkpt lat="46.91763" lon="5.93721">
        <ele>913.6</ele>
        <time>2020-12-26T15:30:39Z</time>
      </trkpt>
      <trkpt lat="46.91762" lon="5.93719">
        <ele>913.6</ele>
        <time>2020-12-26T15:30:40Z</time>
      </trkpt>
      <trkpt lat="46.91761" lon="5.93716">
        <ele>914</ele>
        <time>2020-12-26T15:30:41Z</time>
      </trkpt>
      <trkpt lat="46.9176" lon="5.93713">
        <ele>914</ele>
        <time>2020-12-26T15:30:42Z</time>
      </trkpt>
      <trkpt lat="46.9176" lon="5.9371">
        <ele>914.4</ele>
        <time>2020-12-26T15:30:43Z</time>
      </trkpt>
      <trkpt lat="46.91759" lon="5.93707">
        <ele>914.4</ele>
        <time>2020-12-26T15:30:44Z</time>
      </trkpt>
      <trkpt lat="46.91758" lon="5.93705">
        <ele>914.8</ele>
        <time>2020-12-26T15:30:45Z</time>
      </trkpt>
      <trkpt lat="46.91757" lon="5.93702">
        <ele>914.8</ele>
        <time>2020-12-26T15:30:46Z</time>
      </trkpt>
      <trkpt lat="46.91757" lon="5.93699">
        <ele>915</ele>
        <time>2020-12-26T15:30:47Z</time>
      </trkpt>
      <trkpt lat="46.91756" lon="5.93696">
        <ele>915.4</ele>
        <time>2020-12-26T15:30:48Z</time>
      </trkpt>
      <trkpt lat="46.91756" lon="5.93693">
        <ele>915.4</ele>
        <time>2020-12-26T15:30:49Z</time>
      </trkpt>
      <trkpt lat="46.91756" lon="5.9369">
        <ele>915.6</ele>
        <time>2020-12-26T15:30:50Z</time>
      </trkpt>
      <trkpt lat="46.91755" lon="5.93687">
        <ele>915.6</ele>
        <time>2020-12-26T15:30:51Z</time>
      </trkpt>
      <trkpt lat="46.91755" lon="5.93683">
        <ele>916</ele>
        <time>2020-12-26T15:30:52Z</time>
      </trkpt>
      <trkpt lat="46.91755" lon="5.9368">
        <ele>916.2</ele>
        <time>2020-12-26T15:30:53Z</time>
      </trkpt>
      <trkpt lat="46.91755" lon="5.93676">
        <ele>916.4</ele>
        <time>2020-12-26T15:30:54Z</time>
      </trkpt>
      <trkpt lat="46.91755" lon="5.93673">
        <ele>916.4</ele>
        <time>2020-12-26T15:30:55Z</time>
      </trkpt>
      <trkpt lat="46.91754" lon="5.9367">
        <ele>916.8</ele>
        <time>2020-12-26T15:30:56Z</time>
      </trkpt>
      <trkpt lat="46.91755" lon="5.93666">
        <ele>916.8</ele>
        <time>2020-12-26T15:30:57Z</time>
      </trkpt>
      <trkpt lat="46.91755" lon="5.93663">
        <ele>917.2</ele>
        <time>2020-12-26T15:30:58Z</time>
      </trkpt>
      <trkpt lat="46.91755" lon="5.9366">
        <ele>917.2</ele>
        <time>2020-12-26T15:30:59Z</time>
      </trkpt>
      <trkpt lat="46.91755" lon="5.93656">
        <ele>917.6</ele>
        <time>2020-12-26T15:31:00Z</time>
      </trkpt>
      <trkpt lat="46.91755" lon="5.93652">
        <ele>917.8</ele>
        <time>2020-12-26T15:31:01Z</time>
      </trkpt>
      <trkpt lat="46.91755" lon="5.93649">
        <ele>918</ele>
        <time>2020-12-26T15:31:02Z</time>
      </trkpt>
      <trkpt lat="46.91756" lon="5.93645">
        <ele>918</ele>
        <time>2020-12-26T15:31:03Z</time>
      </trkpt>
      <trkpt lat="46.91756" lon="5.93642">
        <ele>918.4</ele>
        <time>2020-12-26T15:31:04Z</time>
      </trkpt>
      <trkpt lat="46.91757" lon="5.93638">
        <ele>918.6</ele>
        <time>2020-12-26T15:31:05Z</time>
      </trkpt>
      <trkpt lat="46.91758" lon="5.93634">
        <ele>918.6</ele>
        <time>2020-12-26T15:31:06Z</time>
      </trkpt>
      <trkpt lat="46.91758" lon="5.93631">
        <ele>919.2</ele>
        <time>2020-12-26T15:31:07Z</time>
      </trkpt>
      <trkpt lat="46.91759" lon="5.93627">
        <ele>919.4</ele>
        <time>2020-12-26T15:31:08Z</time>
      </trkpt>
      <trkpt lat="46.9176" lon="5.93624">
        <ele>919.4</ele>
        <time>2020-12-26T15:31:09Z</time>
      </trkpt>
      <trkpt lat="46.9176" lon="5.9362">
        <ele>919.6</ele>
        <time>2020-12-26T15:31:10Z</time>
      </trkpt>
      <trkpt lat="46.91761" lon="5.93617">
        <ele>919.8</ele>
        <time>2020-12-26T15:31:11Z</time>
      </trkpt>
      <trkpt lat="46.91762" lon="5.93613">
        <ele>919.8</ele>
        <time>2020-12-26T15:31:12Z</time>
      </trkpt>
      <trkpt lat="46.91762" lon="5.9361">
        <ele>920.2</ele>
        <time>2020-12-26T15:31:13Z</time>
      </trkpt>
      <trkpt lat="46.91763" lon="5.93606">
        <ele>920.4</ele>
        <time>2020-12-26T15:31:14Z</time>
      </trkpt>
      <trkpt lat="46.91764" lon="5.93603">
        <ele>920.6</ele>
        <time>2020-12-26T15:31:15Z</time>
      </trkpt>
      <trkpt lat="46.91765" lon="5.936">
        <ele>920.6</ele>
        <time>2020-12-26T15:31:16Z</time>
      </trkpt>
      <trkpt lat="46.91766" lon="5.93596">
        <ele>921</ele>
        <time>2020-12-26T15:31:17Z</time>
      </trkpt>
      <trkpt lat="46.91767" lon="5.93593">
        <ele>921.2</ele>
        <time>2020-12-26T15:31:18Z</time>
      </trkpt>
      <trkpt lat="46.91768" lon="5.93589">
        <ele>921.4</ele>
        <time>2020-12-26T15:31:19Z</time>
      </trkpt>
      <trkpt lat="46.91768" lon="5.93585">
        <ele>921.6</ele>
        <time>2020-12-26T15:31:20Z</time>
      </trkpt>
      <trkpt lat="46.91769" lon="5.93581">
        <ele>922</ele>
        <time>2020-12-26T15:31:21Z</time>
      </trkpt>
      <trkpt lat="46.9177" lon="5.93578">
        <ele>922</ele>
        <time>2020-12-26T15:31:22Z</time>
      </trkpt>
      <trkpt lat="46.91771" lon="5.93574">
        <ele>922.4</ele>
        <time>2020-12-26T15:31:23Z</time>
      </trkpt>
      <trkpt lat="46.91772" lon="5.9357">
        <ele>922.4</ele>
        <time>2020-12-26T15:31:24Z</time>
      </trkpt>
      <trkpt lat="46.91773" lon="5.93566">
        <ele>922.6</ele>
        <time>2020-12-26T15:31:25Z</time>
      </trkpt>
      <trkpt lat="46.91774" lon="5.93562">
        <ele>922.8</ele>
        <time>2020-12-26T15:31:26Z</time>
      </trkpt>
      <trkpt lat="46.91775" lon="5.93558">
        <ele>923</ele>
        <time>2020-12-26T15:31:27Z</time>
      </trkpt>
      <trkpt lat="46.91776" lon="5.93555">
        <ele>923</ele>
        <time>2020-12-26T15:31:28Z</time>
      </trkpt>
      <trkpt lat="46.91777" lon="5.93551">
        <ele>923.4</ele>
        <time>2020-12-26T15:31:29Z</time>
      </trkpt>
      <trkpt lat="46.91778" lon="5.93547">
        <ele>923.4</ele>
        <time>2020-12-26T15:31:30Z</time>
      </trkpt>
      <trkpt lat="46.91779" lon="5.93543">
        <ele>923.8</ele>
        <time>2020-12-26T15:31:31Z</time>
      </trkpt>
      <trkpt lat="46.9178" lon="5.93539">
        <ele>923.8</ele>
        <time>2020-12-26T15:31:32Z</time>
      </trkpt>
      <trkpt lat="46.91781" lon="5.93536">
        <ele>924.2</ele>
        <time>2020-12-26T15:31:33Z</time>
      </trkpt>
      <trkpt lat="46.91782" lon="5.93532">
        <ele>924.4</ele>
        <time>2020-12-26T15:31:34Z</time>
      </trkpt>
      <trkpt lat="46.91783" lon="5.93529">
        <ele>924.6</ele>
        <time>2020-12-26T15:31:35Z</time>
      </trkpt>
      <trkpt lat="46.91784" lon="5.93526">
        <ele>924.6</ele>
        <time>2020-12-26T15:31:36Z</time>
      </trkpt>
      <trkpt lat="46.91785" lon="5.93522">
        <ele>925</ele>
        <time>2020-12-26T15:31:37Z</time>
      </trkpt>
      <trkpt lat="46.91786" lon="5.93518">
        <ele>925</ele>
        <time>2020-12-26T15:31:38Z</time>
      </trkpt>
      <trkpt lat="46.91787" lon="5.93514">
        <ele>925.4</ele>
        <time>2020-12-26T15:31:39Z</time>
      </trkpt>
      <trkpt lat="46.91788" lon="5.9351">
        <ele>925.4</ele>
        <time>2020-12-26T15:31:40Z</time>
      </trkpt>
      <trkpt lat="46.9179" lon="5.93506">
        <ele>925.6</ele>
        <time>2020-12-26T15:31:41Z</time>
      </trkpt>
      <trkpt lat="46.91791" lon="5.93502">
        <ele>925.6</ele>
        <time>2020-12-26T15:31:42Z</time>
      </trkpt>
      <trkpt lat="46.91792" lon="5.93498">
        <ele>925.8</ele>
        <time>2020-12-26T15:31:43Z</time>
      </trkpt>
      <trkpt lat="46.91793" lon="5.93495">
        <ele>925.8</ele>
        <time>2020-12-26T15:31:44Z</time>
      </trkpt>
      <trkpt lat="46.91795" lon="5.93491">
        <ele>926.2</ele>
        <time>2020-12-26T15:31:45Z</time>
      </trkpt>
      <trkpt lat="46.91796" lon="5.93487">
        <ele>926.2</ele>
        <time>2020-12-26T15:31:46Z</time>
      </trkpt>
      <trkpt lat="46.91797" lon="5.93483">
        <ele>926.4</ele>
        <time>2020-12-26T15:31:47Z</time>
      </trkpt>
      <trkpt lat="46.91798" lon="5.93479">
        <ele>926.4</ele>
        <time>2020-12-26T15:31:48Z</time>
      </trkpt>
      <trkpt lat="46.918" lon="5.93475">
        <ele>926.8</ele>
        <time>2020-12-26T15:31:49Z</time>
      </trkpt>
      <trkpt lat="46.91801" lon="5.93471">
        <ele>926.8</ele>
        <time>2020-12-26T15:31:50Z</time>
      </trkpt>
      <trkpt lat="46.91803" lon="5.93467">
        <ele>927.2</ele>
        <time>2020-12-26T15:31:51Z</time>
      </trkpt>
      <trkpt lat="46.91804" lon="5.93463">
        <ele>927.2</ele>
        <time>2020-12-26T15:31:52Z</time>
      </trkpt>
      <trkpt lat="46.91806" lon="5.9346">
        <ele>927.4</ele>
        <time>2020-12-26T15:31:53Z</time>
      </trkpt>
      <trkpt lat="46.91807" lon="5.93456">
        <ele>927.4</ele>
        <time>2020-12-26T15:31:54Z</time>
      </trkpt>
      <trkpt lat="46.91809" lon="5.93452">
        <ele>927.8</ele>
        <time>2020-12-26T15:31:55Z</time>
      </trkpt>
      <trkpt lat="46.91811" lon="5.93448">
        <ele>927.8</ele>
        <time>2020-12-26T15:31:56Z</time>
      </trkpt>
      <trkpt lat="46.91812" lon="5.93444">
        <ele>928</ele>
        <time>2020-12-26T15:31:57Z</time>
      </trkpt>
      <trkpt lat="46.91814" lon="5.9344">
        <ele>928</ele>
        <time>2020-12-26T15:31:58Z</time>
      </trkpt>
      <trkpt lat="46.91816" lon="5.93437">
        <ele>928</ele>
        <time>2020-12-26T15:31:59Z</time>
      </trkpt>
      <trkpt lat="46.91818" lon="5.93433">
        <ele>928.2</ele>
        <time>2020-12-26T15:32:00Z</time>
      </trkpt>
      <trkpt lat="46.9182" lon="5.93429">
        <ele>928.2</ele>
        <time>2020-12-26T15:32:01Z</time>
      </trkpt>
      <trkpt lat="46.91822" lon="5.93426">
        <ele>928.4</ele>
        <time>2020-12-26T15:32:02Z</time>
      </trkpt>
      <trkpt lat="46.91823" lon="5.93422">
        <ele>928.8</ele>
        <time>2020-12-26T15:32:03Z</time>
      </trkpt>
      <trkpt lat="46.91825" lon="5.93419">
        <ele>929</ele>
        <time>2020-12-26T15:32:04Z</time>
      </trkpt>
      <trkpt lat="46.91826" lon="5.93415">
        <ele>929</ele>
        <time>2020-12-26T15:32:05Z</time>
      </trkpt>
      <trkpt lat="46.91828" lon="5.93411">
        <ele>929</ele>
        <time>2020-12-26T15:32:06Z</time>
      </trkpt>
      <trkpt lat="46.9183" lon="5.93408">
        <ele>929.4</ele>
        <time>2020-12-26T15:32:07Z</time>
      </trkpt>
      <trkpt lat="46.91832" lon="5.93404">
        <ele>929.4</ele>
        <time>2020-12-26T15:32:08Z</time>
      </trkpt>
      <trkpt lat="46.91834" lon="5.93401">
        <ele>929.6</ele>
        <time>2020-12-26T15:32:09Z</time>
      </trkpt>
      <trkpt lat="46.91837" lon="5.93399">
        <ele>929.6</ele>
        <time>2020-12-26T15:32:10Z</time>
      </trkpt>
      <trkpt lat="46.91839" lon="5.93395">
        <ele>929.8</ele>
        <time>2020-12-26T15:32:11Z</time>
      </trkpt>
      <trkpt lat="46.91841" lon="5.93392">
        <ele>929.8</ele>
        <time>2020-12-26T15:32:12Z</time>
      </trkpt>
      <trkpt lat="46.91843" lon="5.93389">
        <ele>930.2</ele>
        <time>2020-12-26T15:32:13Z</time>
      </trkpt>
      <trkpt lat="46.91845" lon="5.93386">
        <ele>930.4</ele>
        <time>2020-12-26T15:32:14Z</time>
      </trkpt>
      <trkpt lat="46.91847" lon="5.93382">
        <ele>930.6</ele>
        <time>2020-12-26T15:32:15Z</time>
      </trkpt>
      <trkpt lat="46.91849" lon="5.93379">
        <ele>931</ele>
        <time>2020-12-26T15:32:16Z</time>
      </trkpt>
      <trkpt lat="46.91851" lon="5.93375">
        <ele>931.2</ele>
        <time>2020-12-26T15:32:17Z</time>
      </trkpt>
      <trkpt lat="46.91853" lon="5.93372">
        <ele>931.4</ele>
        <time>2020-12-26T15:32:18Z</time>
      </trkpt>
      <trkpt lat="46.91854" lon="5.93368">
        <ele>931.6</ele>
        <time>2020-12-26T15:32:19Z</time>
      </trkpt>
      <trkpt lat="46.91856" lon="5.93364">
        <ele>931.8</ele>
        <time>2020-12-26T15:32:20Z</time>
      </trkpt>
      <trkpt lat="46.91857" lon="5.9336">
        <ele>932</ele>
        <time>2020-12-26T15:32:21Z</time>
      </trkpt>
      <trkpt lat="46.91858" lon="5.93356">
        <ele>932.2</ele>
        <time>2020-12-26T15:32:22Z</time>
      </trkpt>
      <trkpt lat="46.91859" lon="5.93352">
        <ele>932.2</ele>
        <time>2020-12-26T15:32:23Z</time>
      </trkpt>
      <trkpt lat="46.91861" lon="5.93348">
        <ele>932.8</ele>
        <time>2020-12-26T15:32:24Z</time>
      </trkpt>
      <trkpt lat="46.91862" lon="5.93344">
        <ele>933</ele>
        <time>2020-12-26T15:32:25Z</time>
      </trkpt>
      <trkpt lat="46.91863" lon="5.9334">
        <ele>933.4</ele>
        <time>2020-12-26T15:32:26Z</time>
      </trkpt>
      <trkpt lat="46.91864" lon="5.93336">
        <ele>933.8</ele>
        <time>2020-12-26T15:32:27Z</time>
      </trkpt>
      <trkpt lat="46.91864" lon="5.93331">
        <ele>934</ele>
        <time>2020-12-26T15:32:28Z</time>
      </trkpt>
      <trkpt lat="46.91865" lon="5.93327">
        <ele>934.4</ele>
        <time>2020-12-26T15:32:29Z</time>
      </trkpt>
      <trkpt lat="46.91865" lon="5.93323">
        <ele>934.8</ele>
        <time>2020-12-26T15:32:30Z</time>
      </trkpt>
      <trkpt lat="46.91866" lon="5.93318">
        <ele>935</ele>
        <time>2020-12-26T15:32:31Z</time>
      </trkpt>
      <trkpt lat="46.91867" lon="5.93313">
        <ele>935.2</ele>
        <time>2020-12-26T15:32:32Z</time>
      </trkpt>
      <trkpt lat="46.91867" lon="5.93309">
        <ele>935.6</ele>
        <time>2020-12-26T15:32:33Z</time>
      </trkpt>
      <trkpt lat="46.91867" lon="5.93304">
        <ele>935.8</ele>
        <time>2020-12-26T15:32:34Z</time>
      </trkpt>
      <trkpt lat="46.91868" lon="5.933">
        <ele>936.2</ele>
        <time>2020-12-26T15:32:35Z</time>
      </trkpt>
      <trkpt lat="46.91868" lon="5.93295">
        <ele>936.6</ele>
        <time>2020-12-26T15:32:36Z</time>
      </trkpt>
      <trkpt lat="46.91868" lon="5.9329">
        <ele>937</ele>
        <time>2020-12-26T15:32:37Z</time>
      </trkpt>
      <trkpt lat="46.91869" lon="5.93286">
        <ele>937.4</ele>
        <time>2020-12-26T15:32:38Z</time>
      </trkpt>
      <trkpt lat="46.91869" lon="5.93281">
        <ele>937.4</ele>
        <time>2020-12-26T15:32:39Z</time>
      </trkpt>
      <trkpt lat="46.91868" lon="5.93276">
        <ele>937.8</ele>
        <time>2020-12-26T15:32:40Z</time>
      </trkpt>
      <trkpt lat="46.91868" lon="5.93271">
        <ele>938</ele>
        <time>2020-12-26T15:32:41Z</time>
      </trkpt>
      <trkpt lat="46.91868" lon="5.93266">
        <ele>938.6</ele>
        <time>2020-12-26T15:32:42Z</time>
      </trkpt>
      <trkpt lat="46.91867" lon="5.93261">
        <ele>938.6</ele>
        <time>2020-12-26T15:32:43Z</time>
      </trkpt>
      <trkpt lat="46.91867" lon="5.93256">
        <ele>938.6</ele>
        <time>2020-12-26T15:32:44Z</time>
      </trkpt>
      <trkpt lat="46.91866" lon="5.93251">
        <ele>938.8</ele>
        <time>2020-12-26T15:32:45Z</time>
      </trkpt>
      <trkpt lat="46.91866" lon="5.93246">
        <ele>939</ele>
        <time>2020-12-26T15:32:46Z</time>
      </trkpt>
      <trkpt lat="46.91865" lon="5.93241">
        <ele>939.4</ele>
        <time>2020-12-26T15:32:47Z</time>
      </trkpt>
      <trkpt lat="46.91864" lon="5.93236">
        <ele>939.8</ele>
        <time>2020-12-26T15:32:48Z</time>
      </trkpt>
      <trkpt lat="46.91863" lon="5.93231">
        <ele>939.8</ele>
        <time>2020-12-26T15:32:49Z</time>
      </trkpt>
      <trkpt lat="46.91862" lon="5.93226">
        <ele>940.2</ele>
        <time>2020-12-26T15:32:50Z</time>
      </trkpt>
      <trkpt lat="46.91861" lon="5.93221">
        <ele>940.2</ele>
        <time>2020-12-26T15:32:51Z</time>
      </trkpt>
      <trkpt lat="46.9186" lon="5.93216">
        <ele>940.6</ele>
        <time>2020-12-26T15:32:52Z</time>
      </trkpt>
      <trkpt lat="46.91859" lon="5.93211">
        <ele>940.6</ele>
        <time>2020-12-26T15:32:53Z</time>
      </trkpt>
      <trkpt lat="46.91858" lon="5.93207">
        <ele>940.8</ele>
        <time>2020-12-26T15:32:54Z</time>
      </trkpt>
      <trkpt lat="46.91857" lon="5.93202">
        <ele>940.8</ele>
        <time>2020-12-26T15:32:55Z</time>
      </trkpt>
      <trkpt lat="46.91856" lon="5.93197">
        <ele>941.2</ele>
        <time>2020-12-26T15:32:56Z</time>
      </trkpt>
      <trkpt lat="46.91854" lon="5.93192">
        <ele>941.2</ele>
        <time>2020-12-26T15:32:57Z</time>
      </trkpt>
      <trkpt lat="46.91853" lon="5.93187">
        <ele>941.4</ele>
        <time>2020-12-26T15:32:58Z</time>
      </trkpt>
      <trkpt lat="46.91851" lon="5.93183">
        <ele>941.4</ele>
        <time>2020-12-26T15:32:59Z</time>
      </trkpt>
      <trkpt lat="46.9185" lon="5.93178">
        <ele>941.6</ele>
        <time>2020-12-26T15:33:00Z</time>
      </trkpt>
      <trkpt lat="46.91848" lon="5.93173">
        <ele>941.6</ele>
        <time>2020-12-26T15:33:01Z</time>
      </trkpt>
      <trkpt lat="46.91847" lon="5.93169">
        <ele>942</ele>
        <time>2020-12-26T15:33:02Z</time>
      </trkpt>
      <trkpt lat="46.91845" lon="5.93164">
        <ele>942</ele>
        <time>2020-12-26T15:33:03Z</time>
      </trkpt>
      <trkpt lat="46.91843" lon="5.93159">
        <ele>942.2</ele>
        <time>2020-12-26T15:33:04Z</time>
      </trkpt>
      <trkpt lat="46.91842" lon="5.93155">
        <ele>942.6</ele>
        <time>2020-12-26T15:33:05Z</time>
      </trkpt>
      <trkpt lat="46.9184" lon="5.93151">
        <ele>942.6</ele>
        <time>2020-12-26T15:33:06Z</time>
      </trkpt>
      <trkpt lat="46.91837" lon="5.93147">
        <ele>943</ele>
        <time>2020-12-26T15:33:07Z</time>
      </trkpt>
      <trkpt lat="46.91835" lon="5.93143">
        <ele>943.2</ele>
        <time>2020-12-26T15:33:08Z</time>
      </trkpt>
      <trkpt lat="46.91832" lon="5.93139">
        <ele>943.6</ele>
        <time>2020-12-26T15:33:09Z</time>
      </trkpt>
      <trkpt lat="46.9183" lon="5.93136">
        <ele>943.8</ele>
        <time>2020-12-26T15:33:10Z</time>
      </trkpt>
      <trkpt lat="46.91828" lon="5.93132">
        <ele>944.2</ele>
        <time>2020-12-26T15:33:11Z</time>
      </trkpt>
      <trkpt lat="46.91825" lon="5.93129">
        <ele>944.6</ele>
        <time>2020-12-26T15:33:12Z</time>
      </trkpt>
      <trkpt lat="46.91823" lon="5.93125">
        <ele>944.8</ele>
        <time>2020-12-26T15:33:13Z</time>
      </trkpt>
      <trkpt lat="46.91821" lon="5.93121">
        <ele>944.8</ele>
        <time>2020-12-26T15:33:14Z</time>
      </trkpt>
      <trkpt lat="46.91819" lon="5.93117">
        <ele>945</ele>
        <time>2020-12-26T15:33:15Z</time>
      </trkpt>
      <trkpt lat="46.91816" lon="5.93113">
        <ele>945</ele>
        <time>2020-12-26T15:33:16Z</time>
      </trkpt>
      <trkpt lat="46.91815" lon="5.93109">
        <ele>945.4</ele>
        <time>2020-12-26T15:33:17Z</time>
      </trkpt>
      <trkpt lat="46.91813" lon="5.93105">
        <ele>945.4</ele>
        <time>2020-12-26T15:33:18Z</time>
      </trkpt>
      <trkpt lat="46.91811" lon="5.931">
        <ele>945.8</ele>
        <time>2020-12-26T15:33:19Z</time>
      </trkpt>
      <trkpt lat="46.9181" lon="5.93095">
        <ele>946</ele>
        <time>2020-12-26T15:33:20Z</time>
      </trkpt>
      <trkpt lat="46.91808" lon="5.93091">
        <ele>946</ele>
        <time>2020-12-26T15:33:21Z</time>
      </trkpt>
      <trkpt lat="46.91807" lon="5.93087">
        <ele>946.4</ele>
        <time>2020-12-26T15:33:22Z</time>
      </trkpt>
      <trkpt lat="46.91805" lon="5.93082">
        <ele>946.4</ele>
        <time>2020-12-26T15:33:23Z</time>
      </trkpt>
      <trkpt lat="46.91804" lon="5.93078">
        <ele>946.8</ele>
        <time>2020-12-26T15:33:24Z</time>
      </trkpt>
      <trkpt lat="46.91803" lon="5.93073">
        <ele>946.8</ele>
        <time>2020-12-26T15:33:25Z</time>
      </trkpt>
      <trkpt lat="46.91803" lon="5.93068">
        <ele>947</ele>
        <time>2020-12-26T15:33:26Z</time>
      </trkpt>
      <trkpt lat="46.91802" lon="5.93063">
        <ele>947</ele>
        <time>2020-12-26T15:33:27Z</time>
      </trkpt>
      <trkpt lat="46.91802" lon="5.93057">
        <ele>947</ele>
        <time>2020-12-26T15:33:28Z</time>
      </trkpt>
      <trkpt lat="46.91802" lon="5.93052">
        <ele>947</ele>
        <time>2020-12-26T15:33:29Z</time>
      </trkpt>
      <trkpt lat="46.91803" lon="5.93046">
        <ele>947.2</ele>
        <time>2020-12-26T15:33:30Z</time>
      </trkpt>
      <trkpt lat="46.91803" lon="5.9304">
        <ele>947.2</ele>
        <time>2020-12-26T15:33:31Z</time>
      </trkpt>
      <trkpt lat="46.91805" lon="5.93034">
        <ele>947.2</ele>
        <time>2020-12-26T15:33:32Z</time>
      </trkpt>
      <trkpt lat="46.91806" lon="5.93028">
        <ele>947.2</ele>
        <time>2020-12-26T15:33:33Z</time>
      </trkpt>
      <trkpt lat="46.91807" lon="5.93022">
        <ele>947.2</ele>
        <time>2020-12-26T15:33:34Z</time>
      </trkpt>
      <trkpt lat="46.91808" lon="5.93016">
        <ele>947.4</ele>
        <time>2020-12-26T15:33:35Z</time>
      </trkpt>
      <trkpt lat="46.91809" lon="5.93009">
        <ele>947.4</ele>
        <time>2020-12-26T15:33:36Z</time>
      </trkpt>
      <trkpt lat="46.91809" lon="5.93003">
        <ele>947.4</ele>
        <time>2020-12-26T15:33:37Z</time>
      </trkpt>
      <trkpt lat="46.91809" lon="5.92996">
        <ele>947.4</ele>
        <time>2020-12-26T15:33:38Z</time>
      </trkpt>
      <trkpt lat="46.91809" lon="5.9299">
        <ele>947.4</ele>
        <time>2020-12-26T15:33:39Z</time>
      </trkpt>
      <trkpt lat="46.91809" lon="5.92984">
        <ele>947.4</ele>
        <time>2020-12-26T15:33:40Z</time>
      </trkpt>
      <trkpt lat="46.91809" lon="5.92977">
        <ele>947.2</ele>
        <time>2020-12-26T15:33:41Z</time>
      </trkpt>
      <trkpt lat="46.91809" lon="5.92971">
        <ele>947.2</ele>
        <time>2020-12-26T15:33:42Z</time>
      </trkpt>
      <trkpt lat="46.91808" lon="5.92964">
        <ele>947.2</ele>
        <time>2020-12-26T15:33:43Z</time>
      </trkpt>
      <trkpt lat="46.91808" lon="5.92956">
        <ele>947</ele>
        <time>2020-12-26T15:33:44Z</time>
      </trkpt>
      <trkpt lat="46.91807" lon="5.92948">
        <ele>947</ele>
        <time>2020-12-26T15:33:45Z</time>
      </trkpt>
      <trkpt lat="46.91806" lon="5.92941">
        <ele>946.6</ele>
        <time>2020-12-26T15:33:46Z</time>
      </trkpt>
      <trkpt lat="46.91804" lon="5.92933">
        <ele>946.6</ele>
        <time>2020-12-26T15:33:47Z</time>
      </trkpt>
      <trkpt lat="46.91803" lon="5.92925">
        <ele>946.6</ele>
        <time>2020-12-26T15:33:48Z</time>
      </trkpt>
      <trkpt lat="46.91802" lon="5.92917">
        <ele>946.6</ele>
        <time>2020-12-26T15:33:49Z</time>
      </trkpt>
      <trkpt lat="46.918" lon="5.92909">
        <ele>946.6</ele>
        <time>2020-12-26T15:33:50Z</time>
      </trkpt>
      <trkpt lat="46.91799" lon="5.92901">
        <ele>946.6</ele>
        <time>2020-12-26T15:33:51Z</time>
      </trkpt>
      <trkpt lat="46.91798" lon="5.92893">
        <ele>946.6</ele>
        <time>2020-12-26T15:33:52Z</time>
      </trkpt>
      <trkpt lat="46.91796" lon="5.92886">
        <ele>946.4</ele>
        <time>2020-12-26T15:33:53Z</time>
      </trkpt>
      <trkpt lat="46.91794" lon="5.92878">
        <ele>946.4</ele>
        <time>2020-12-26T15:33:54Z</time>
      </trkpt>
      <trkpt lat="46.91793" lon="5.9287">
        <ele>946.4</ele>
        <time>2020-12-26T15:33:55Z</time>
      </trkpt>
      <trkpt lat="46.91791" lon="5.92863">
        <ele>946.4</ele>
        <time>2020-12-26T15:33:56Z</time>
      </trkpt>
      <trkpt lat="46.9179" lon="5.92856">
        <ele>946.4</ele>
        <time>2020-12-26T15:33:57Z</time>
      </trkpt>
      <trkpt lat="46.91789" lon="5.92849">
        <ele>946.4</ele>
        <time>2020-12-26T15:33:58Z</time>
      </trkpt>
      <trkpt lat="46.91789" lon="5.92843">
        <ele>946.4</ele>
        <time>2020-12-26T15:33:59Z</time>
      </trkpt>
      <trkpt lat="46.91788" lon="5.92837">
        <ele>946.6</ele>
        <time>2020-12-26T15:34:00Z</time>
      </trkpt>
      <trkpt lat="46.91788" lon="5.92831">
        <ele>946.6</ele>
        <time>2020-12-26T15:34:01Z</time>
      </trkpt>
      <trkpt lat="46.91788" lon="5.92825">
        <ele>946.6</ele>
        <time>2020-12-26T15:34:02Z</time>
      </trkpt>
      <trkpt lat="46.91788" lon="5.9282">
        <ele>946.6</ele>
        <time>2020-12-26T15:34:03Z</time>
      </trkpt>
      <trkpt lat="46.91787" lon="5.92814">
        <ele>946.8</ele>
        <time>2020-12-26T15:34:04Z</time>
      </trkpt>
      <trkpt lat="46.91786" lon="5.92809">
        <ele>946.8</ele>
        <time>2020-12-26T15:34:05Z</time>
      </trkpt>
      <trkpt lat="46.91785" lon="5.92805">
        <ele>946.8</ele>
        <time>2020-12-26T15:34:06Z</time>
      </trkpt>
      <trkpt lat="46.91783" lon="5.92801">
        <ele>946.8</ele>
        <time>2020-12-26T15:34:07Z</time>
      </trkpt>
      <trkpt lat="46.91782" lon="5.92797">
        <ele>946.8</ele>
        <time>2020-12-26T15:34:08Z</time>
      </trkpt>
      <trkpt lat="46.91781" lon="5.92795">
        <ele>946.6</ele>
        <time>2020-12-26T15:34:09Z</time>
      </trkpt>
      <trkpt lat="46.9178" lon="5.92795">
        <ele>946.6</ele>
        <time>2020-12-26T15:34:10Z</time>
      </trkpt>
      <trkpt lat="46.91779" lon="5.92793">
        <ele>946.4</ele>
        <time>2020-12-26T15:35:20Z</time>
      </trkpt>
      <trkpt lat="46.91777" lon="5.92792">
        <ele>946.4</ele>
        <time>2020-12-26T15:35:21Z</time>
      </trkpt>
      <trkpt lat="46.91775" lon="5.9279">
        <ele>946.4</ele>
        <time>2020-12-26T15:35:22Z</time>
      </trkpt>
      <trkpt lat="46.91772" lon="5.92788">
        <ele>946.4</ele>
        <time>2020-12-26T15:35:23Z</time>
      </trkpt>
      <trkpt lat="46.91769" lon="5.92787">
        <ele>946</ele>
        <time>2020-12-26T15:35:24Z</time>
      </trkpt>
      <trkpt lat="46.91765" lon="5.92785">
        <ele>945.8</ele>
        <time>2020-12-26T15:35:25Z</time>
      </trkpt>
      <trkpt lat="46.91761" lon="5.92784">
        <ele>945.6</ele>
        <time>2020-12-26T15:35:26Z</time>
      </trkpt>
      <trkpt lat="46.91757" lon="5.92783">
        <ele>945.2</ele>
        <time>2020-12-26T15:35:27Z</time>
      </trkpt>
      <trkpt lat="46.91751" lon="5.92781">
        <ele>944.8</ele>
        <time>2020-12-26T15:35:28Z</time>
      </trkpt>
      <trkpt lat="46.91746" lon="5.92779">
        <ele>944.6</ele>
        <time>2020-12-26T15:35:29Z</time>
      </trkpt>
      <trkpt lat="46.9174" lon="5.92777">
        <ele>944</ele>
        <time>2020-12-26T15:35:30Z</time>
      </trkpt>
      <trkpt lat="46.91733" lon="5.92774">
        <ele>943.6</ele>
        <time>2020-12-26T15:35:31Z</time>
      </trkpt>
      <trkpt lat="46.91726" lon="5.92772">
        <ele>943</ele>
        <time>2020-12-26T15:35:32Z</time>
      </trkpt>
      <trkpt lat="46.91719" lon="5.92769">
        <ele>942.6</ele>
        <time>2020-12-26T15:35:33Z</time>
      </trkpt>
      <trkpt lat="46.91711" lon="5.92767">
        <ele>942</ele>
        <time>2020-12-26T15:35:34Z</time>
      </trkpt>
      <trkpt lat="46.91703" lon="5.92765">
        <ele>941.6</ele>
        <time>2020-12-26T15:35:35Z</time>
      </trkpt>
      <trkpt lat="46.91694" lon="5.92764">
        <ele>941</ele>
        <time>2020-12-26T15:35:36Z</time>
      </trkpt>
      <trkpt lat="46.91685" lon="5.92763">
        <ele>940.4</ele>
        <time>2020-12-26T15:35:37Z</time>
      </trkpt>
      <trkpt lat="46.91675" lon="5.92762">
        <ele>939.6</ele>
        <time>2020-12-26T15:35:38Z</time>
      </trkpt>
      <trkpt lat="46.91665" lon="5.92764">
        <ele>939</ele>
        <time>2020-12-26T15:35:39Z</time>
      </trkpt>
      <trkpt lat="46.91655" lon="5.92767">
        <ele>938.4</ele>
        <time>2020-12-26T15:35:40Z</time>
      </trkpt>
      <trkpt lat="46.91645" lon="5.9277">
        <ele>937.8</ele>
        <time>2020-12-26T15:35:41Z</time>
      </trkpt>
      <trkpt lat="46.91635" lon="5.92773">
        <ele>937.2</ele>
        <time>2020-12-26T15:35:42Z</time>
      </trkpt>
      <trkpt lat="46.91625" lon="5.92776">
        <ele>936.6</ele>
        <time>2020-12-26T15:35:43Z</time>
      </trkpt>
      <trkpt lat="46.91615" lon="5.92779">
        <ele>935.8</ele>
        <time>2020-12-26T15:35:44Z</time>
      </trkpt>
      <trkpt lat="46.91605" lon="5.92781">
        <ele>935.2</ele>
        <time>2020-12-26T15:35:45Z</time>
      </trkpt>
      <trkpt lat="46.91595" lon="5.92782">
        <ele>934.6</ele>
        <time>2020-12-26T15:35:46Z</time>
      </trkpt>
      <trkpt lat="46.91585" lon="5.92782">
        <ele>934.2</ele>
        <time>2020-12-26T15:35:47Z</time>
      </trkpt>
      <trkpt lat="46.91575" lon="5.92782">
        <ele>933.6</ele>
        <time>2020-12-26T15:35:48Z</time>
      </trkpt>
      <trkpt lat="46.91565" lon="5.9278">
        <ele>933.2</ele>
        <time>2020-12-26T15:35:49Z</time>
      </trkpt>
      <trkpt lat="46.91555" lon="5.92778">
        <ele>932.6</ele>
        <time>2020-12-26T15:35:50Z</time>
      </trkpt>
      <trkpt lat="46.91545" lon="5.92774">
        <ele>932.2</ele>
        <time>2020-12-26T15:35:51Z</time>
      </trkpt>
      <trkpt lat="46.91536" lon="5.92769">
        <ele>931.8</ele>
        <time>2020-12-26T15:35:52Z</time>
      </trkpt>
      <trkpt lat="46.91527" lon="5.92764">
        <ele>931.6</ele>
        <time>2020-12-26T15:35:53Z</time>
      </trkpt>
      <trkpt lat="46.91518" lon="5.92759">
        <ele>931.4</ele>
        <time>2020-12-26T15:35:54Z</time>
      </trkpt>
      <trkpt lat="46.91509" lon="5.92755">
        <ele>931.4</ele>
        <time>2020-12-26T15:35:55Z</time>
      </trkpt>
      <trkpt lat="46.915" lon="5.9275">
        <ele>931</ele>
        <time>2020-12-26T15:35:56Z</time>
      </trkpt>
      <trkpt lat="46.91491" lon="5.92746">
        <ele>931</ele>
        <time>2020-12-26T15:35:57Z</time>
      </trkpt>
      <trkpt lat="46.91483" lon="5.92741">
        <ele>930.6</ele>
        <time>2020-12-26T15:35:58Z</time>
      </trkpt>
      <trkpt lat="46.91475" lon="5.92737">
        <ele>930.6</ele>
        <time>2020-12-26T15:35:59Z</time>
      </trkpt>
      <trkpt lat="46.91468" lon="5.92732">
        <ele>930.6</ele>
        <time>2020-12-26T15:36:00Z</time>
      </trkpt>
      <trkpt lat="46.9146" lon="5.92728">
        <ele>930.6</ele>
        <time>2020-12-26T15:36:01Z</time>
      </trkpt>
      <trkpt lat="46.91453" lon="5.92723">
        <ele>930.6</ele>
        <time>2020-12-26T15:36:02Z</time>
      </trkpt>
      <trkpt lat="46.91446" lon="5.92719">
        <ele>930.6</ele>
        <time>2020-12-26T15:36:03Z</time>
      </trkpt>
      <trkpt lat="46.91439" lon="5.92715">
        <ele>930.6</ele>
        <time>2020-12-26T15:36:04Z</time>
      </trkpt>
      <trkpt lat="46.91432" lon="5.92711">
        <ele>930.6</ele>
        <time>2020-12-26T15:36:05Z</time>
      </trkpt>
      <trkpt lat="46.91426" lon="5.92707">
        <ele>930.6</ele>
        <time>2020-12-26T15:36:06Z</time>
      </trkpt>
      <trkpt lat="46.91419" lon="5.92702">
        <ele>930.6</ele>
        <time>2020-12-26T15:36:07Z</time>
      </trkpt>
      <trkpt lat="46.91412" lon="5.92698">
        <ele>930.6</ele>
        <time>2020-12-26T15:36:08Z</time>
      </trkpt>
      <trkpt lat="46.91406" lon="5.92693">
        <ele>930.6</ele>
        <time>2020-12-26T15:36:09Z</time>
      </trkpt>
      <trkpt lat="46.91399" lon="5.92689">
        <ele>930.8</ele>
        <time>2020-12-26T15:36:10Z</time>
      </trkpt>
      <trkpt lat="46.91393" lon="5.92685">
        <ele>930.8</ele>
        <time>2020-12-26T15:36:11Z</time>
      </trkpt>
      <trkpt lat="46.91386" lon="5.92681">
        <ele>930.8</ele>
        <time>2020-12-26T15:36:12Z</time>
      </trkpt>
      <trkpt lat="46.9138" lon="5.92676">
        <ele>930.8</ele>
        <time>2020-12-26T15:36:13Z</time>
      </trkpt>
      <trkpt lat="46.91373" lon="5.92672">
        <ele>930.8</ele>
        <time>2020-12-26T15:36:14Z</time>
      </trkpt>
      <trkpt lat="46.91367" lon="5.92668">
        <ele>930.8</ele>
        <time>2020-12-26T15:36:15Z</time>
      </trkpt>
      <trkpt lat="46.9136" lon="5.92664">
        <ele>930.8</ele>
        <time>2020-12-26T15:36:16Z</time>
      </trkpt>
      <trkpt lat="46.91354" lon="5.92659">
        <ele>930.8</ele>
        <time>2020-12-26T15:36:17Z</time>
      </trkpt>
      <trkpt lat="46.91348" lon="5.92654">
        <ele>930.8</ele>
        <time>2020-12-26T15:36:18Z</time>
      </trkpt>
      <trkpt lat="46.91342" lon="5.92649">
        <ele>930.6</ele>
        <time>2020-12-26T15:36:19Z</time>
      </trkpt>
      <trkpt lat="46.91336" lon="5.92643">
        <ele>930.6</ele>
        <time>2020-12-26T15:36:20Z</time>
      </trkpt>
      <trkpt lat="46.9133" lon="5.92637">
        <ele>930.2</ele>
        <time>2020-12-26T15:36:21Z</time>
      </trkpt>
      <trkpt lat="46.91324" lon="5.92631">
        <ele>930</ele>
        <time>2020-12-26T15:36:22Z</time>
      </trkpt>
      <trkpt lat="46.91318" lon="5.92625">
        <ele>930</ele>
        <time>2020-12-26T15:36:23Z</time>
      </trkpt>
      <trkpt lat="46.91313" lon="5.92618">
        <ele>929.6</ele>
        <time>2020-12-26T15:36:24Z</time>
      </trkpt>
      <trkpt lat="46.91308" lon="5.92611">
        <ele>929.6</ele>
        <time>2020-12-26T15:36:25Z</time>
      </trkpt>
      <trkpt lat="46.91303" lon="5.92603">
        <ele>929.4</ele>
        <time>2020-12-26T15:36:26Z</time>
      </trkpt>
      <trkpt lat="46.91299" lon="5.92596">
        <ele>929.4</ele>
        <time>2020-12-26T15:36:27Z</time>
      </trkpt>
      <trkpt lat="46.91295" lon="5.92587">
        <ele>929.2</ele>
        <time>2020-12-26T15:36:28Z</time>
      </trkpt>
      <trkpt lat="46.91291" lon="5.92579">
        <ele>929.2</ele>
        <time>2020-12-26T15:36:29Z</time>
      </trkpt>
      <trkpt lat="46.91287" lon="5.92571">
        <ele>929</ele>
        <time>2020-12-26T15:36:30Z</time>
      </trkpt>
      <trkpt lat="46.91284" lon="5.92562">
        <ele>929</ele>
        <time>2020-12-26T15:36:31Z</time>
      </trkpt>
      <trkpt lat="46.91281" lon="5.92553">
        <ele>928.8</ele>
        <time>2020-12-26T15:36:32Z</time>
      </trkpt>
      <trkpt lat="46.91278" lon="5.92545">
        <ele>928.8</ele>
        <time>2020-12-26T15:36:33Z</time>
      </trkpt>
      <trkpt lat="46.91275" lon="5.92536">
        <ele>928.4</ele>
        <time>2020-12-26T15:36:34Z</time>
      </trkpt>
      <trkpt lat="46.91272" lon="5.92527">
        <ele>928.2</ele>
        <time>2020-12-26T15:36:35Z</time>
      </trkpt>
      <trkpt lat="46.91269" lon="5.92518">
        <ele>927.8</ele>
        <time>2020-12-26T15:36:36Z</time>
      </trkpt>
      <trkpt lat="46.91266" lon="5.92509">
        <ele>927.6</ele>
        <time>2020-12-26T15:36:37Z</time>
      </trkpt>
      <trkpt lat="46.91262" lon="5.92501">
        <ele>927.2</ele>
        <time>2020-12-26T15:36:38Z</time>
      </trkpt>
      <trkpt lat="46.91258" lon="5.92494">
        <ele>927</ele>
        <time>2020-12-26T15:36:39Z</time>
      </trkpt>
      <trkpt lat="46.91254" lon="5.92487">
        <ele>927</ele>
        <time>2020-12-26T15:36:40Z</time>
      </trkpt>
      <trkpt lat="46.91251" lon="5.9248">
        <ele>926.6</ele>
        <time>2020-12-26T15:36:41Z</time>
      </trkpt>
      <trkpt lat="46.91248" lon="5.92474">
        <ele>926.6</ele>
        <time>2020-12-26T15:36:42Z</time>
      </trkpt>
      <trkpt lat="46.91247" lon="5.92466">
        <ele>926.4</ele>
        <time>2020-12-26T15:36:43Z</time>
      </trkpt>
      <trkpt lat="46.91247" lon="5.92459">
        <ele>926.4</ele>
        <time>2020-12-26T15:36:44Z</time>
      </trkpt>
      <trkpt lat="46.91248" lon="5.92452">
        <ele>926.2</ele>
        <time>2020-12-26T15:36:45Z</time>
      </trkpt>
      <trkpt lat="46.9125" lon="5.92445">
        <ele>926.2</ele>
        <time>2020-12-26T15:36:46Z</time>
      </trkpt>
      <trkpt lat="46.91252" lon="5.92438">
        <ele>926.2</ele>
        <time>2020-12-26T15:36:47Z</time>
      </trkpt>
      <trkpt lat="46.91254" lon="5.92431">
        <ele>926.2</ele>
        <time>2020-12-26T15:36:48Z</time>
      </trkpt>
      <trkpt lat="46.91256" lon="5.92425">
        <ele>926.2</ele>
        <time>2020-12-26T15:36:49Z</time>
      </trkpt>
      <trkpt lat="46.91258" lon="5.92418">
        <ele>926.2</ele>
        <time>2020-12-26T15:36:50Z</time>
      </trkpt>
      <trkpt lat="46.9126" lon="5.92412">
        <ele>926.4</ele>
        <time>2020-12-26T15:36:51Z</time>
      </trkpt>
      <trkpt lat="46.91262" lon="5.92405">
        <ele>926.4</ele>
        <time>2020-12-26T15:36:52Z</time>
      </trkpt>
      <trkpt lat="46.91264" lon="5.92398">
        <ele>926.6</ele>
        <time>2020-12-26T15:36:53Z</time>
      </trkpt>
      <trkpt lat="46.91265" lon="5.92391">
        <ele>926.6</ele>
        <time>2020-12-26T15:36:54Z</time>
      </trkpt>
      <trkpt lat="46.91267" lon="5.92384">
        <ele>926.6</ele>
        <time>2020-12-26T15:36:55Z</time>
      </trkpt>
      <trkpt lat="46.91269" lon="5.92377">
        <ele>926.6</ele>
        <time>2020-12-26T15:36:56Z</time>
      </trkpt>
      <trkpt lat="46.9127" lon="5.92369">
        <ele>926.8</ele>
        <time>2020-12-26T15:36:57Z</time>
      </trkpt>
      <trkpt lat="46.91271" lon="5.92362">
        <ele>926.8</ele>
        <time>2020-12-26T15:36:58Z</time>
      </trkpt>
      <trkpt lat="46.91273" lon="5.92354">
        <ele>926.8</ele>
        <time>2020-12-26T15:36:59Z</time>
      </trkpt>
      <trkpt lat="46.91275" lon="5.92347">
        <ele>926.8</ele>
        <time>2020-12-26T15:37:00Z</time>
      </trkpt>
      <trkpt lat="46.91277" lon="5.92339">
        <ele>926.4</ele>
        <time>2020-12-26T15:37:01Z</time>
      </trkpt>
      <trkpt lat="46.91278" lon="5.92331">
        <ele>926.4</ele>
        <time>2020-12-26T15:37:02Z</time>
      </trkpt>
      <trkpt lat="46.9128" lon="5.92324">
        <ele>926.2</ele>
        <time>2020-12-26T15:37:03Z</time>
      </trkpt>
      <trkpt lat="46.91282" lon="5.92316">
        <ele>926.2</ele>
        <time>2020-12-26T15:37:04Z</time>
      </trkpt>
      <trkpt lat="46.91284" lon="5.92307">
        <ele>926.2</ele>
        <time>2020-12-26T15:37:05Z</time>
      </trkpt>
      <trkpt lat="46.91285" lon="5.92299">
        <ele>926</ele>
        <time>2020-12-26T15:37:06Z</time>
      </trkpt>
      <trkpt lat="46.91287" lon="5.92291">
        <ele>926</ele>
        <time>2020-12-26T15:37:07Z</time>
      </trkpt>
      <trkpt lat="46.91288" lon="5.92282">
        <ele>925.6</ele>
        <time>2020-12-26T15:37:08Z</time>
      </trkpt>
      <trkpt lat="46.9129" lon="5.92274">
        <ele>925.6</ele>
        <time>2020-12-26T15:37:09Z</time>
      </trkpt>
      <trkpt lat="46.91292" lon="5.92266">
        <ele>925.2</ele>
        <time>2020-12-26T15:37:10Z</time>
      </trkpt>
      <trkpt lat="46.91294" lon="5.92258">
        <ele>925</ele>
        <time>2020-12-26T15:37:11Z</time>
      </trkpt>
      <trkpt lat="46.91295" lon="5.9225">
        <ele>924.8</ele>
        <time>2020-12-26T15:37:12Z</time>
      </trkpt>
      <trkpt lat="46.91294" lon="5.92242">
        <ele>924.4</ele>
        <time>2020-12-26T15:37:13Z</time>
      </trkpt>
      <trkpt lat="46.91293" lon="5.92235">
        <ele>924.2</ele>
        <time>2020-12-26T15:37:14Z</time>
      </trkpt>
      <trkpt lat="46.9129" lon="5.92229">
        <ele>924</ele>
        <time>2020-12-26T15:37:15Z</time>
      </trkpt>
      <trkpt lat="46.91287" lon="5.92224">
        <ele>923.6</ele>
        <time>2020-12-26T15:37:16Z</time>
      </trkpt>
      <trkpt lat="46.91283" lon="5.9222">
        <ele>923.2</ele>
        <time>2020-12-26T15:37:17Z</time>
      </trkpt>
      <trkpt lat="46.91277" lon="5.92218">
        <ele>923</ele>
        <time>2020-12-26T15:37:18Z</time>
      </trkpt>
      <trkpt lat="46.91271" lon="5.92217">
        <ele>922.6</ele>
        <time>2020-12-26T15:37:19Z</time>
      </trkpt>
      <trkpt lat="46.91265" lon="5.92215">
        <ele>922.2</ele>
        <time>2020-12-26T15:37:20Z</time>
      </trkpt>
      <trkpt lat="46.91258" lon="5.92214">
        <ele>921.8</ele>
        <time>2020-12-26T15:37:21Z</time>
      </trkpt>
      <trkpt lat="46.91252" lon="5.92212">
        <ele>921.4</ele>
        <time>2020-12-26T15:37:22Z</time>
      </trkpt>
      <trkpt lat="46.91245" lon="5.92209">
        <ele>921.2</ele>
        <time>2020-12-26T15:37:23Z</time>
      </trkpt>
      <trkpt lat="46.91238" lon="5.92207">
        <ele>920.8</ele>
        <time>2020-12-26T15:37:24Z</time>
      </trkpt>
      <trkpt lat="46.91231" lon="5.92205">
        <ele>920.4</ele>
        <time>2020-12-26T15:37:25Z</time>
      </trkpt>
      <trkpt lat="46.91224" lon="5.92205">
        <ele>920</ele>
        <time>2020-12-26T15:37:26Z</time>
      </trkpt>
      <trkpt lat="46.91216" lon="5.92206">
        <ele>919.8</ele>
        <time>2020-12-26T15:37:27Z</time>
      </trkpt>
      <trkpt lat="46.91208" lon="5.92207">
        <ele>919.4</ele>
        <time>2020-12-26T15:37:28Z</time>
      </trkpt>
      <trkpt lat="46.912" lon="5.92207">
        <ele>919</ele>
        <time>2020-12-26T15:37:29Z</time>
      </trkpt>
      <trkpt lat="46.91193" lon="5.92208">
        <ele>918.8</ele>
        <time>2020-12-26T15:37:30Z</time>
      </trkpt>
      <trkpt lat="46.91185" lon="5.92206">
        <ele>918.4</ele>
        <time>2020-12-26T15:37:31Z</time>
      </trkpt>
      <trkpt lat="46.91178" lon="5.92203">
        <ele>918.4</ele>
        <time>2020-12-26T15:37:32Z</time>
      </trkpt>
      <trkpt lat="46.91171" lon="5.92199">
        <ele>918.4</ele>
        <time>2020-12-26T15:37:33Z</time>
      </trkpt>
      <trkpt lat="46.91165" lon="5.92194">
        <ele>918.4</ele>
        <time>2020-12-26T15:37:34Z</time>
      </trkpt>
      <trkpt lat="46.91159" lon="5.92189">
        <ele>918.8</ele>
        <time>2020-12-26T15:37:35Z</time>
      </trkpt>
      <trkpt lat="46.91153" lon="5.92183">
        <ele>918.8</ele>
        <time>2020-12-26T15:37:36Z</time>
      </trkpt>
      <trkpt lat="46.91148" lon="5.92178">
        <ele>919</ele>
        <time>2020-12-26T15:37:37Z</time>
      </trkpt>
      <trkpt lat="46.91143" lon="5.92172">
        <ele>919</ele>
        <time>2020-12-26T15:37:38Z</time>
      </trkpt>
      <trkpt lat="46.91138" lon="5.92167">
        <ele>919.4</ele>
        <time>2020-12-26T15:37:39Z</time>
      </trkpt>
      <trkpt lat="46.91133" lon="5.92162">
        <ele>919.4</ele>
        <time>2020-12-26T15:37:40Z</time>
      </trkpt>
      <trkpt lat="46.91128" lon="5.92157">
        <ele>919.4</ele>
        <time>2020-12-26T15:37:41Z</time>
      </trkpt>
      <trkpt lat="46.91123" lon="5.92152">
        <ele>919.6</ele>
        <time>2020-12-26T15:37:42Z</time>
      </trkpt>
      <trkpt lat="46.91118" lon="5.92147">
        <ele>919.6</ele>
        <time>2020-12-26T15:37:43Z</time>
      </trkpt>
      <trkpt lat="46.91113" lon="5.92141">
        <ele>919.6</ele>
        <time>2020-12-26T15:37:44Z</time>
      </trkpt>
      <trkpt lat="46.91108" lon="5.92136">
        <ele>919.6</ele>
        <time>2020-12-26T15:37:45Z</time>
      </trkpt>
      <trkpt lat="46.91103" lon="5.9213">
        <ele>919.6</ele>
        <time>2020-12-26T15:37:46Z</time>
      </trkpt>
      <trkpt lat="46.91098" lon="5.92125">
        <ele>919.4</ele>
        <time>2020-12-26T15:37:47Z</time>
      </trkpt>
      <trkpt lat="46.91092" lon="5.92119">
        <ele>919.4</ele>
        <time>2020-12-26T15:37:48Z</time>
      </trkpt>
      <trkpt lat="46.91086" lon="5.92113">
        <ele>919.2</ele>
        <time>2020-12-26T15:37:49Z</time>
      </trkpt>
      <trkpt lat="46.9108" lon="5.92108">
        <ele>919.2</ele>
        <time>2020-12-26T15:37:50Z</time>
      </trkpt>
      <trkpt lat="46.91074" lon="5.92104">
        <ele>918.8</ele>
        <time>2020-12-26T15:37:51Z</time>
      </trkpt>
      <trkpt lat="46.91067" lon="5.92099">
        <ele>918.8</ele>
        <time>2020-12-26T15:37:52Z</time>
      </trkpt>
      <trkpt lat="46.91061" lon="5.92095">
        <ele>918.6</ele>
        <time>2020-12-26T15:37:53Z</time>
      </trkpt>
      <trkpt lat="46.91054" lon="5.9209">
        <ele>918.6</ele>
        <time>2020-12-26T15:37:54Z</time>
      </trkpt>
      <trkpt lat="46.91048" lon="5.92086">
        <ele>918.6</ele>
        <time>2020-12-26T15:37:55Z</time>
      </trkpt>
      <trkpt lat="46.91042" lon="5.92081">
        <ele>918.6</ele>
        <time>2020-12-26T15:37:56Z</time>
      </trkpt>
      <trkpt lat="46.91035" lon="5.92076">
        <ele>918.6</ele>
        <time>2020-12-26T15:37:57Z</time>
      </trkpt>
      <trkpt lat="46.91029" lon="5.92071">
        <ele>918.6</ele>
        <time>2020-12-26T15:37:58Z</time>
      </trkpt>
      <trkpt lat="46.91023" lon="5.92066">
        <ele>918.6</ele>
        <time>2020-12-26T15:37:59Z</time>
      </trkpt>
      <trkpt lat="46.91018" lon="5.92061">
        <ele>918.6</ele>
        <time>2020-12-26T15:38:00Z</time>
      </trkpt>
      <trkpt lat="46.91012" lon="5.92055">
        <ele>918.6</ele>
        <time>2020-12-26T15:38:01Z</time>
      </trkpt>
      <trkpt lat="46.91007" lon="5.9205">
        <ele>918.6</ele>
        <time>2020-12-26T15:38:02Z</time>
      </trkpt>
      <trkpt lat="46.91002" lon="5.92045">
        <ele>918.8</ele>
        <time>2020-12-26T15:38:03Z</time>
      </trkpt>
      <trkpt lat="46.90998" lon="5.92039">
        <ele>919.2</ele>
        <time>2020-12-26T15:38:04Z</time>
      </trkpt>
      <trkpt lat="46.90995" lon="5.92033">
        <ele>919.4</ele>
        <time>2020-12-26T15:38:05Z</time>
      </trkpt>
      <trkpt lat="46.90992" lon="5.92027">
        <ele>919.8</ele>
        <time>2020-12-26T15:38:06Z</time>
      </trkpt>
      <trkpt lat="46.90989" lon="5.92022">
        <ele>920.2</ele>
        <time>2020-12-26T15:38:07Z</time>
      </trkpt>
      <trkpt lat="46.90986" lon="5.92016">
        <ele>920.6</ele>
        <time>2020-12-26T15:38:08Z</time>
      </trkpt>
      <trkpt lat="46.90983" lon="5.92012">
        <ele>921</ele>
        <time>2020-12-26T15:38:09Z</time>
      </trkpt>
      <trkpt lat="46.9098" lon="5.92007">
        <ele>921.6</ele>
        <time>2020-12-26T15:38:10Z</time>
      </trkpt>
      <trkpt lat="46.90978" lon="5.92003">
        <ele>922</ele>
        <time>2020-12-26T15:38:11Z</time>
      </trkpt>
      <trkpt lat="46.90975" lon="5.91999">
        <ele>922</ele>
        <time>2020-12-26T15:38:12Z</time>
      </trkpt>
      <trkpt lat="46.90973" lon="5.91995">
        <ele>922.6</ele>
        <time>2020-12-26T15:38:13Z</time>
      </trkpt>
      <trkpt lat="46.90971" lon="5.9199">
        <ele>922.8</ele>
        <time>2020-12-26T15:38:14Z</time>
      </trkpt>
      <trkpt lat="46.90969" lon="5.91986">
        <ele>922.8</ele>
        <time>2020-12-26T15:38:15Z</time>
      </trkpt>
      <trkpt lat="46.90967" lon="5.91981">
        <ele>923.2</ele>
        <time>2020-12-26T15:38:16Z</time>
      </trkpt>
      <trkpt lat="46.90964" lon="5.91976">
        <ele>923.2</ele>
        <time>2020-12-26T15:38:17Z</time>
      </trkpt>
      <trkpt lat="46.90961" lon="5.9197">
        <ele>923.2</ele>
        <time>2020-12-26T15:38:18Z</time>
      </trkpt>
      <trkpt lat="46.90958" lon="5.91964">
        <ele>923.2</ele>
        <time>2020-12-26T15:38:19Z</time>
      </trkpt>
      <trkpt lat="46.90955" lon="5.91957">
        <ele>922.8</ele>
        <time>2020-12-26T15:38:20Z</time>
      </trkpt>
      <trkpt lat="46.90951" lon="5.9195">
        <ele>922.6</ele>
        <time>2020-12-26T15:38:21Z</time>
      </trkpt>
      <trkpt lat="46.90948" lon="5.91942">
        <ele>922.2</ele>
        <time>2020-12-26T15:38:22Z</time>
      </trkpt>
      <trkpt lat="46.90944" lon="5.91934">
        <ele>921.6</ele>
        <time>2020-12-26T15:38:23Z</time>
      </trkpt>
      <trkpt lat="46.9094" lon="5.91925">
        <ele>921.2</ele>
        <time>2020-12-26T15:38:24Z</time>
      </trkpt>
      <trkpt lat="46.90936" lon="5.91915">
        <ele>920.8</ele>
        <time>2020-12-26T15:38:25Z</time>
      </trkpt>
      <trkpt lat="46.90932" lon="5.91905">
        <ele>920.2</ele>
        <time>2020-12-26T15:38:26Z</time>
      </trkpt>
      <trkpt lat="46.90928" lon="5.91894">
        <ele>919.6</ele>
        <time>2020-12-26T15:38:27Z</time>
      </trkpt>
      <trkpt lat="46.90923" lon="5.91883">
        <ele>919</ele>
        <time>2020-12-26T15:38:28Z</time>
      </trkpt>
      <trkpt lat="46.90918" lon="5.91873">
        <ele>918.6</ele>
        <time>2020-12-26T15:38:29Z</time>
      </trkpt>
      <trkpt lat="46.90913" lon="5.91862">
        <ele>918</ele>
        <time>2020-12-26T15:38:30Z</time>
      </trkpt>
      <trkpt lat="46.90906" lon="5.9185">
        <ele>917.4</ele>
        <time>2020-12-26T15:38:31Z</time>
      </trkpt>
      <trkpt lat="46.90899" lon="5.91839">
        <ele>916.8</ele>
        <time>2020-12-26T15:38:32Z</time>
      </trkpt>
      <trkpt lat="46.90892" lon="5.91829">
        <ele>916.2</ele>
        <time>2020-12-26T15:38:33Z</time>
      </trkpt>
      <trkpt lat="46.90885" lon="5.91819">
        <ele>915.8</ele>
        <time>2020-12-26T15:38:34Z</time>
      </trkpt>
      <trkpt lat="46.90877" lon="5.91811">
        <ele>915.4</ele>
        <time>2020-12-26T15:38:35Z</time>
      </trkpt>
      <trkpt lat="46.9087" lon="5.91802">
        <ele>915</ele>
        <time>2020-12-26T15:38:36Z</time>
      </trkpt>
      <trkpt lat="46.90863" lon="5.91793">
        <ele>914.8</ele>
        <time>2020-12-26T15:38:37Z</time>
      </trkpt>
      <trkpt lat="46.90856" lon="5.91784">
        <ele>914.4</ele>
        <time>2020-12-26T15:38:38Z</time>
      </trkpt>
      <trkpt lat="46.9085" lon="5.91776">
        <ele>914.4</ele>
        <time>2020-12-26T15:38:39Z</time>
      </trkpt>
      <trkpt lat="46.90844" lon="5.91767">
        <ele>914.2</ele>
        <time>2020-12-26T15:38:40Z</time>
      </trkpt>
      <trkpt lat="46.90839" lon="5.91759">
        <ele>914.2</ele>
        <time>2020-12-26T15:38:41Z</time>
      </trkpt>
      <trkpt lat="46.90833" lon="5.91751">
        <ele>914.2</ele>
        <time>2020-12-26T15:38:42Z</time>
      </trkpt>
      <trkpt lat="46.90828" lon="5.91743">
        <ele>914.2</ele>
        <time>2020-12-26T15:38:43Z</time>
      </trkpt>
      <trkpt lat="46.90822" lon="5.91736">
        <ele>914.2</ele>
        <time>2020-12-26T15:38:44Z</time>
      </trkpt>
      <trkpt lat="46.90817" lon="5.91728">
        <ele>914.2</ele>
        <time>2020-12-26T15:38:45Z</time>
      </trkpt>
      <trkpt lat="46.90812" lon="5.91721">
        <ele>914.2</ele>
        <time>2020-12-26T15:38:46Z</time>
      </trkpt>
      <trkpt lat="46.90807" lon="5.91714">
        <ele>914.6</ele>
        <time>2020-12-26T15:38:47Z</time>
      </trkpt>
      <trkpt lat="46.90802" lon="5.91707">
        <ele>914.6</ele>
        <time>2020-12-26T15:38:48Z</time>
      </trkpt>
      <trkpt lat="46.90797" lon="5.91701">
        <ele>914.8</ele>
        <time>2020-12-26T15:38:49Z</time>
      </trkpt>
      <trkpt lat="46.90792" lon="5.91694">
        <ele>915</ele>
        <time>2020-12-26T15:38:50Z</time>
      </trkpt>
      <trkpt lat="46.90787" lon="5.91688">
        <ele>915.4</ele>
        <time>2020-12-26T15:38:51Z</time>
      </trkpt>
      <trkpt lat="46.90782" lon="5.91681">
        <ele>915.6</ele>
        <time>2020-12-26T15:38:52Z</time>
      </trkpt>
      <trkpt lat="46.90777" lon="5.91675">
        <ele>915.8</ele>
        <time>2020-12-26T15:38:53Z</time>
      </trkpt>
      <trkpt lat="46.90773" lon="5.91669">
        <ele>916</ele>
        <time>2020-12-26T15:38:54Z</time>
      </trkpt>
      <trkpt lat="46.90768" lon="5.91662">
        <ele>916.2</ele>
        <time>2020-12-26T15:38:55Z</time>
      </trkpt>
      <trkpt lat="46.90764" lon="5.91656">
        <ele>916.6</ele>
        <time>2020-12-26T15:38:56Z</time>
      </trkpt>
      <trkpt lat="46.90759" lon="5.9165">
        <ele>916.6</ele>
        <time>2020-12-26T15:38:57Z</time>
      </trkpt>
      <trkpt lat="46.90755" lon="5.91643">
        <ele>916.8</ele>
        <time>2020-12-26T15:38:58Z</time>
      </trkpt>
      <trkpt lat="46.9075" lon="5.91637">
        <ele>916.8</ele>
        <time>2020-12-26T15:38:59Z</time>
      </trkpt>
      <trkpt lat="46.90746" lon="5.9163">
        <ele>917</ele>
        <time>2020-12-26T15:39:00Z</time>
      </trkpt>
      <trkpt lat="46.90742" lon="5.91623">
        <ele>917</ele>
        <time>2020-12-26T15:39:01Z</time>
      </trkpt>
      <trkpt lat="46.90737" lon="5.91617">
        <ele>917</ele>
        <time>2020-12-26T15:39:02Z</time>
      </trkpt>
      <trkpt lat="46.90733" lon="5.9161">
        <ele>917.2</ele>
        <time>2020-12-26T15:39:03Z</time>
      </trkpt>
      <trkpt lat="46.90729" lon="5.91603">
        <ele>917.2</ele>
        <time>2020-12-26T15:39:04Z</time>
      </trkpt>
      <trkpt lat="46.90725" lon="5.91596">
        <ele>917.2</ele>
        <time>2020-12-26T15:39:05Z</time>
      </trkpt>
      <trkpt lat="46.90721" lon="5.91588">
        <ele>917.6</ele>
        <time>2020-12-26T15:39:06Z</time>
      </trkpt>
      <trkpt lat="46.90717" lon="5.91581">
        <ele>917.6</ele>
        <time>2020-12-26T15:39:07Z</time>
      </trkpt>
      <trkpt lat="46.90713" lon="5.91574">
        <ele>917.8</ele>
        <time>2020-12-26T15:39:08Z</time>
      </trkpt>
      <trkpt lat="46.90709" lon="5.91567">
        <ele>917.8</ele>
        <time>2020-12-26T15:39:09Z</time>
      </trkpt>
      <trkpt lat="46.90705" lon="5.91559">
        <ele>918</ele>
        <time>2020-12-26T15:39:10Z</time>
      </trkpt>
      <trkpt lat="46.90702" lon="5.91553">
        <ele>918</ele>
        <time>2020-12-26T15:39:11Z</time>
      </trkpt>
      <trkpt lat="46.90698" lon="5.91546">
        <ele>918</ele>
        <time>2020-12-26T15:39:12Z</time>
      </trkpt>
      <trkpt lat="46.90694" lon="5.91539">
        <ele>918.2</ele>
        <time>2020-12-26T15:39:13Z</time>
      </trkpt>
      <trkpt lat="46.9069" lon="5.91533">
        <ele>918.2</ele>
        <time>2020-12-26T15:39:14Z</time>
      </trkpt>
      <trkpt lat="46.90686" lon="5.91527">
        <ele>918.4</ele>
        <time>2020-12-26T15:39:15Z</time>
      </trkpt>
      <trkpt lat="46.90682" lon="5.91521">
        <ele>918.4</ele>
        <time>2020-12-26T15:39:16Z</time>
      </trkpt>
      <trkpt lat="46.90678" lon="5.91515">
        <ele>918.8</ele>
        <time>2020-12-26T15:39:17Z</time>
      </trkpt>
      <trkpt lat="46.90674" lon="5.9151">
        <ele>919</ele>
        <time>2020-12-26T15:39:18Z</time>
      </trkpt>
      <trkpt lat="46.9067" lon="5.91505">
        <ele>919.2</ele>
        <time>2020-12-26T15:39:19Z</time>
      </trkpt>
      <trkpt lat="46.90666" lon="5.915">
        <ele>919.6</ele>
        <time>2020-12-26T15:39:20Z</time>
      </trkpt>
      <trkpt lat="46.90662" lon="5.91496">
        <ele>919.6</ele>
        <time>2020-12-26T15:39:21Z</time>
      </trkpt>
      <trkpt lat="46.90658" lon="5.91491">
        <ele>920</ele>
        <time>2020-12-26T15:39:22Z</time>
      </trkpt>
      <trkpt lat="46.90654" lon="5.91487">
        <ele>920.4</ele>
        <time>2020-12-26T15:39:23Z</time>
      </trkpt>
      <trkpt lat="46.90649" lon="5.91483">
        <ele>920.6</ele>
        <time>2020-12-26T15:39:24Z</time>
      </trkpt>
      <trkpt lat="46.90644" lon="5.91479">
        <ele>920.6</ele>
        <time>2020-12-26T15:39:25Z</time>
      </trkpt>
      <trkpt lat="46.9064" lon="5.91474">
        <ele>921</ele>
        <time>2020-12-26T15:39:26Z</time>
      </trkpt>
      <trkpt lat="46.90635" lon="5.91469">
        <ele>921</ele>
        <time>2020-12-26T15:39:27Z</time>
      </trkpt>
      <trkpt lat="46.9063" lon="5.91464">
        <ele>921.4</ele>
        <time>2020-12-26T15:39:28Z</time>
      </trkpt>
      <trkpt lat="46.90625" lon="5.91459">
        <ele>921.6</ele>
        <time>2020-12-26T15:39:29Z</time>
      </trkpt>
      <trkpt lat="46.90621" lon="5.91455">
        <ele>922</ele>
        <time>2020-12-26T15:39:30Z</time>
      </trkpt>
      <trkpt lat="46.90616" lon="5.9145">
        <ele>922.4</ele>
        <time>2020-12-26T15:39:31Z</time>
      </trkpt>
      <trkpt lat="46.90611" lon="5.91446">
        <ele>922.4</ele>
        <time>2020-12-26T15:39:32Z</time>
      </trkpt>
      <trkpt lat="46.90606" lon="5.91441">
        <ele>922.6</ele>
        <time>2020-12-26T15:39:33Z</time>
      </trkpt>
      <trkpt lat="46.90602" lon="5.91436">
        <ele>923</ele>
        <time>2020-12-26T15:39:34Z</time>
      </trkpt>
      <trkpt lat="46.90597" lon="5.91432">
        <ele>923</ele>
        <time>2020-12-26T15:39:35Z</time>
      </trkpt>
      <trkpt lat="46.90592" lon="5.91427">
        <ele>923.2</ele>
        <time>2020-12-26T15:39:36Z</time>
      </trkpt>
      <trkpt lat="46.90587" lon="5.91422">
        <ele>923.2</ele>
        <time>2020-12-26T15:39:37Z</time>
      </trkpt>
      <trkpt lat="46.90582" lon="5.91417">
        <ele>923.4</ele>
        <time>2020-12-26T15:39:38Z</time>
      </trkpt>
      <trkpt lat="46.90577" lon="5.91412">
        <ele>923.4</ele>
        <time>2020-12-26T15:39:39Z</time>
      </trkpt>
      <trkpt lat="46.90572" lon="5.91408">
        <ele>923.6</ele>
        <time>2020-12-26T15:39:40Z</time>
      </trkpt>
      <trkpt lat="46.90567" lon="5.91403">
        <ele>923.6</ele>
        <time>2020-12-26T15:39:41Z</time>
      </trkpt>
      <trkpt lat="46.90562" lon="5.91398">
        <ele>923.6</ele>
        <time>2020-12-26T15:39:42Z</time>
      </trkpt>
      <trkpt lat="46.90557" lon="5.91393">
        <ele>924</ele>
        <time>2020-12-26T15:39:43Z</time>
      </trkpt>
      <trkpt lat="46.90552" lon="5.91388">
        <ele>924</ele>
        <time>2020-12-26T15:39:44Z</time>
      </trkpt>
      <trkpt lat="46.90547" lon="5.91383">
        <ele>924</ele>
        <time>2020-12-26T15:39:45Z</time>
      </trkpt>
      <trkpt lat="46.90542" lon="5.91378">
        <ele>924</ele>
        <time>2020-12-26T15:39:46Z</time>
      </trkpt>
      <trkpt lat="46.90537" lon="5.91373">
        <ele>924</ele>
        <time>2020-12-26T15:39:47Z</time>
      </trkpt>
      <trkpt lat="46.90532" lon="5.91368">
        <ele>924.2</ele>
        <time>2020-12-26T15:39:48Z</time>
      </trkpt>
      <trkpt lat="46.90527" lon="5.91364">
        <ele>924.2</ele>
        <time>2020-12-26T15:39:49Z</time>
      </trkpt>
      <trkpt lat="46.90522" lon="5.91359">
        <ele>924.2</ele>
        <time>2020-12-26T15:39:50Z</time>
      </trkpt>
      <trkpt lat="46.90517" lon="5.91354">
        <ele>924.4</ele>
        <time>2020-12-26T15:39:51Z</time>
      </trkpt>
      <trkpt lat="46.90512" lon="5.91349">
        <ele>924.6</ele>
        <time>2020-12-26T15:39:52Z</time>
      </trkpt>
      <trkpt lat="46.90507" lon="5.91344">
        <ele>924.6</ele>
        <time>2020-12-26T15:39:53Z</time>
      </trkpt>
      <trkpt lat="46.90502" lon="5.91339">
        <ele>924.8</ele>
        <time>2020-12-26T15:39:54Z</time>
      </trkpt>
      <trkpt lat="46.90497" lon="5.91334">
        <ele>924.8</ele>
        <time>2020-12-26T15:39:55Z</time>
      </trkpt>
      <trkpt lat="46.90493" lon="5.91329">
        <ele>924.8</ele>
        <time>2020-12-26T15:39:56Z</time>
      </trkpt>
      <trkpt lat="46.90488" lon="5.91324">
        <ele>925.2</ele>
        <time>2020-12-26T15:39:57Z</time>
      </trkpt>
      <trkpt lat="46.90483" lon="5.9132">
        <ele>925.2</ele>
        <time>2020-12-26T15:39:58Z</time>
      </trkpt>
      <trkpt lat="46.90478" lon="5.91315">
        <ele>925.2</ele>
        <time>2020-12-26T15:39:59Z</time>
      </trkpt>
      <trkpt lat="46.90473" lon="5.9131">
        <ele>925.2</ele>
        <time>2020-12-26T15:40:00Z</time>
      </trkpt>
      <trkpt lat="46.90468" lon="5.91306">
        <ele>925.6</ele>
        <time>2020-12-26T15:40:01Z</time>
      </trkpt>
      <trkpt lat="46.90463" lon="5.91301">
        <ele>925.6</ele>
        <time>2020-12-26T15:40:02Z</time>
      </trkpt>
      <trkpt lat="46.90458" lon="5.91296">
        <ele>925.8</ele>
        <time>2020-12-26T15:40:03Z</time>
      </trkpt>
      <trkpt lat="46.90453" lon="5.91291">
        <ele>925.8</ele>
        <time>2020-12-26T15:40:04Z</time>
      </trkpt>
      <trkpt lat="46.90448" lon="5.91287">
        <ele>925.8</ele>
        <time>2020-12-26T15:40:05Z</time>
      </trkpt>
      <trkpt lat="46.90443" lon="5.91282">
        <ele>926.2</ele>
        <time>2020-12-26T15:40:06Z</time>
      </trkpt>
      <trkpt lat="46.90439" lon="5.91277">
        <ele>926.2</ele>
        <time>2020-12-26T15:40:07Z</time>
      </trkpt>
      <trkpt lat="46.90434" lon="5.91272">
        <ele>926.2</ele>
        <time>2020-12-26T15:40:08Z</time>
      </trkpt>
      <trkpt lat="46.90429" lon="5.91267">
        <ele>926.2</ele>
        <time>2020-12-26T15:40:09Z</time>
      </trkpt>
      <trkpt lat="46.90424" lon="5.91263">
        <ele>926.4</ele>
        <time>2020-12-26T15:40:10Z</time>
      </trkpt>
      <trkpt lat="46.90419" lon="5.91258">
        <ele>926.4</ele>
        <time>2020-12-26T15:40:11Z</time>
      </trkpt>
      <trkpt lat="46.90415" lon="5.91253">
        <ele>926.4</ele>
        <time>2020-12-26T15:40:12Z</time>
      </trkpt>
      <trkpt lat="46.9041" lon="5.91248">
        <ele>926.8</ele>
        <time>2020-12-26T15:40:13Z</time>
      </trkpt>
      <trkpt lat="46.90405" lon="5.91244">
        <ele>926.8</ele>
        <time>2020-12-26T15:40:14Z</time>
      </trkpt>
      <trkpt lat="46.904" lon="5.9124">
        <ele>927</ele>
        <time>2020-12-26T15:40:15Z</time>
      </trkpt>
      <trkpt lat="46.90396" lon="5.91236">
        <ele>927.2</ele>
        <time>2020-12-26T15:40:16Z</time>
      </trkpt>
      <trkpt lat="46.90391" lon="5.91232">
        <ele>927.4</ele>
        <time>2020-12-26T15:40:17Z</time>
      </trkpt>
      <trkpt lat="46.90386" lon="5.91229">
        <ele>927.6</ele>
        <time>2020-12-26T15:40:18Z</time>
      </trkpt>
      <trkpt lat="46.90381" lon="5.91226">
        <ele>927.8</ele>
        <time>2020-12-26T15:40:19Z</time>
      </trkpt>
      <trkpt lat="46.90376" lon="5.91224">
        <ele>928</ele>
        <time>2020-12-26T15:40:20Z</time>
      </trkpt>
      <trkpt lat="46.90371" lon="5.91223">
        <ele>928.4</ele>
        <time>2020-12-26T15:40:21Z</time>
      </trkpt>
      <trkpt lat="46.90367" lon="5.91222">
        <ele>928.6</ele>
        <time>2020-12-26T15:40:22Z</time>
      </trkpt>
      <trkpt lat="46.90362" lon="5.91221">
        <ele>928.8</ele>
        <time>2020-12-26T15:40:23Z</time>
      </trkpt>
      <trkpt lat="46.90357" lon="5.91221">
        <ele>929.2</ele>
        <time>2020-12-26T15:40:24Z</time>
      </trkpt>
      <trkpt lat="46.90352" lon="5.9122">
        <ele>929.4</ele>
        <time>2020-12-26T15:40:25Z</time>
      </trkpt>
      <trkpt lat="46.90348" lon="5.9122">
        <ele>929.8</ele>
        <time>2020-12-26T15:40:26Z</time>
      </trkpt>
      <trkpt lat="46.90343" lon="5.91219">
        <ele>930</ele>
        <time>2020-12-26T15:40:27Z</time>
      </trkpt>
      <trkpt lat="46.90339" lon="5.91218">
        <ele>930.4</ele>
        <time>2020-12-26T15:40:28Z</time>
      </trkpt>
      <trkpt lat="46.90334" lon="5.91217">
        <ele>930.8</ele>
        <time>2020-12-26T15:40:29Z</time>
      </trkpt>
      <trkpt lat="46.9033" lon="5.91216">
        <ele>931</ele>
        <time>2020-12-26T15:40:30Z</time>
      </trkpt>
      <trkpt lat="46.90326" lon="5.91215">
        <ele>931.4</ele>
        <time>2020-12-26T15:40:31Z</time>
      </trkpt>
      <trkpt lat="46.90321" lon="5.91215">
        <ele>931.8</ele>
        <time>2020-12-26T15:40:32Z</time>
      </trkpt>
      <trkpt lat="46.90317" lon="5.91215">
        <ele>932.2</ele>
        <time>2020-12-26T15:40:33Z</time>
      </trkpt>
      <trkpt lat="46.90313" lon="5.91216">
        <ele>932.4</ele>
        <time>2020-12-26T15:40:34Z</time>
      </trkpt>
      <trkpt lat="46.90308" lon="5.91217">
        <ele>932.8</ele>
        <time>2020-12-26T15:40:35Z</time>
      </trkpt>
      <trkpt lat="46.90304" lon="5.91217">
        <ele>933.2</ele>
        <time>2020-12-26T15:40:36Z</time>
      </trkpt>
      <trkpt lat="46.90299" lon="5.91218">
        <ele>933.4</ele>
        <time>2020-12-26T15:40:37Z</time>
      </trkpt>
      <trkpt lat="46.90295" lon="5.91218">
        <ele>933.8</ele>
        <time>2020-12-26T15:40:38Z</time>
      </trkpt>
      <trkpt lat="46.9029" lon="5.91218">
        <ele>934.2</ele>
        <time>2020-12-26T15:40:39Z</time>
      </trkpt>
      <trkpt lat="46.90286" lon="5.91218">
        <ele>934.4</ele>
        <time>2020-12-26T15:40:40Z</time>
      </trkpt>
      <trkpt lat="46.90281" lon="5.91218">
        <ele>934.4</ele>
        <time>2020-12-26T15:40:41Z</time>
      </trkpt>
      <trkpt lat="46.90277" lon="5.91218">
        <ele>934.6</ele>
        <time>2020-12-26T15:40:42Z</time>
      </trkpt>
      <trkpt lat="46.90272" lon="5.91218">
        <ele>934.6</ele>
        <time>2020-12-26T15:40:43Z</time>
      </trkpt>
      <trkpt lat="46.90267" lon="5.91217">
        <ele>935</ele>
        <time>2020-12-26T15:40:44Z</time>
      </trkpt>
      <trkpt lat="46.90263" lon="5.91216">
        <ele>935.2</ele>
        <time>2020-12-26T15:40:45Z</time>
      </trkpt>
      <trkpt lat="46.90258" lon="5.91214">
        <ele>935.4</ele>
        <time>2020-12-26T15:40:46Z</time>
      </trkpt>
      <trkpt lat="46.90254" lon="5.91213">
        <ele>935.6</ele>
        <time>2020-12-26T15:40:47Z</time>
      </trkpt>
      <trkpt lat="46.90249" lon="5.91211">
        <ele>935.6</ele>
        <time>2020-12-26T15:40:48Z</time>
      </trkpt>
      <trkpt lat="46.90245" lon="5.91209">
        <ele>936</ele>
        <time>2020-12-26T15:40:49Z</time>
      </trkpt>
      <trkpt lat="46.90241" lon="5.91207">
        <ele>936</ele>
        <time>2020-12-26T15:40:50Z</time>
      </trkpt>
      <trkpt lat="46.90236" lon="5.91204">
        <ele>936.2</ele>
        <time>2020-12-26T15:40:51Z</time>
      </trkpt>
      <trkpt lat="46.90232" lon="5.91202">
        <ele>936.2</ele>
        <time>2020-12-26T15:40:52Z</time>
      </trkpt>
      <trkpt lat="46.90228" lon="5.91199">
        <ele>936.6</ele>
        <time>2020-12-26T15:40:53Z</time>
      </trkpt>
      <trkpt lat="46.90223" lon="5.91196">
        <ele>936.6</ele>
        <time>2020-12-26T15:40:54Z</time>
      </trkpt>
      <trkpt lat="46.90219" lon="5.91194">
        <ele>936.8</ele>
        <time>2020-12-26T15:40:55Z</time>
      </trkpt>
      <trkpt lat="46.90215" lon="5.91191">
        <ele>936.8</ele>
        <time>2020-12-26T15:40:56Z</time>
      </trkpt>
      <trkpt lat="46.9021" lon="5.91188">
        <ele>937.2</ele>
        <time>2020-12-26T15:40:57Z</time>
      </trkpt>
      <trkpt lat="46.90206" lon="5.91185">
        <ele>937.2</ele>
        <time>2020-12-26T15:40:58Z</time>
      </trkpt>
      <trkpt lat="46.90202" lon="5.91182">
        <ele>937.2</ele>
        <time>2020-12-26T15:40:59Z</time>
      </trkpt>
      <trkpt lat="46.90197" lon="5.91179">
        <ele>937.2</ele>
        <time>2020-12-26T15:41:00Z</time>
      </trkpt>
      <trkpt lat="46.90192" lon="5.91176">
        <ele>937.4</ele>
        <time>2020-12-26T15:41:01Z</time>
      </trkpt>
      <trkpt lat="46.90188" lon="5.91173">
        <ele>937.4</ele>
        <time>2020-12-26T15:41:02Z</time>
      </trkpt>
      <trkpt lat="46.90183" lon="5.9117">
        <ele>937.4</ele>
        <time>2020-12-26T15:41:03Z</time>
      </trkpt>
      <trkpt lat="46.90178" lon="5.91167">
        <ele>937.4</ele>
        <time>2020-12-26T15:41:04Z</time>
      </trkpt>
      <trkpt lat="46.90174" lon="5.91163">
        <ele>937.6</ele>
        <time>2020-12-26T15:41:05Z</time>
      </trkpt>
      <trkpt lat="46.9017" lon="5.91159">
        <ele>937.6</ele>
        <time>2020-12-26T15:41:06Z</time>
      </trkpt>
      <trkpt lat="46.90166" lon="5.91155">
        <ele>937.8</ele>
        <time>2020-12-26T15:41:07Z</time>
      </trkpt>
      <trkpt lat="46.90162" lon="5.91151">
        <ele>937.8</ele>
        <time>2020-12-26T15:41:08Z</time>
      </trkpt>
      <trkpt lat="46.90159" lon="5.91146">
        <ele>938</ele>
        <time>2020-12-26T15:41:09Z</time>
      </trkpt>
      <trkpt lat="46.90156" lon="5.9114">
        <ele>938</ele>
        <time>2020-12-26T15:41:10Z</time>
      </trkpt>
      <trkpt lat="46.90155" lon="5.91133">
        <ele>938.4</ele>
        <time>2020-12-26T15:41:11Z</time>
      </trkpt>
      <trkpt lat="46.90155" lon="5.91127">
        <ele>938.4</ele>
        <time>2020-12-26T15:41:12Z</time>
      </trkpt>
      <trkpt lat="46.90156" lon="5.9112">
        <ele>938.8</ele>
        <time>2020-12-26T15:41:13Z</time>
      </trkpt>
      <trkpt lat="46.90157" lon="5.91114">
        <ele>938.8</ele>
        <time>2020-12-26T15:41:14Z</time>
      </trkpt>
      <trkpt lat="46.90159" lon="5.91108">
        <ele>939</ele>
        <time>2020-12-26T15:41:15Z</time>
      </trkpt>
      <trkpt lat="46.9016" lon="5.91103">
        <ele>939</ele>
        <time>2020-12-26T15:41:16Z</time>
      </trkpt>
      <trkpt lat="46.90162" lon="5.91097">
        <ele>939</ele>
        <time>2020-12-26T15:41:17Z</time>
      </trkpt>
      <trkpt lat="46.90164" lon="5.91091">
        <ele>939.4</ele>
        <time>2020-12-26T15:41:18Z</time>
      </trkpt>
      <trkpt lat="46.90166" lon="5.91085">
        <ele>939.4</ele>
        <time>2020-12-26T15:41:19Z</time>
      </trkpt>
      <trkpt lat="46.90168" lon="5.9108">
        <ele>939.4</ele>
        <time>2020-12-26T15:41:20Z</time>
      </trkpt>
      <trkpt lat="46.9017" lon="5.91074">
        <ele>939.4</ele>
        <time>2020-12-26T15:41:21Z</time>
      </trkpt>
      <trkpt lat="46.90172" lon="5.9107">
        <ele>939.4</ele>
        <time>2020-12-26T15:41:22Z</time>
      </trkpt>
      <trkpt lat="46.90174" lon="5.91065">
        <ele>939.4</ele>
        <time>2020-12-26T15:41:23Z</time>
      </trkpt>
      <trkpt lat="46.90177" lon="5.91061">
        <ele>939.4</ele>
        <time>2020-12-26T15:41:24Z</time>
      </trkpt>
      <trkpt lat="46.9018" lon="5.91057">
        <ele>939.4</ele>
        <time>2020-12-26T15:41:25Z</time>
      </trkpt>
      <trkpt lat="46.90182" lon="5.91053">
        <ele>939.4</ele>
        <time>2020-12-26T15:41:26Z</time>
      </trkpt>
      <trkpt lat="46.90185" lon="5.91049">
        <ele>939</ele>
        <time>2020-12-26T15:41:27Z</time>
      </trkpt>
      <trkpt lat="46.90187" lon="5.91045">
        <ele>938.8</ele>
        <time>2020-12-26T15:41:28Z</time>
      </trkpt>
      <trkpt lat="46.90189" lon="5.9104">
        <ele>938.6</ele>
        <time>2020-12-26T15:41:29Z</time>
      </trkpt>
      <trkpt lat="46.9019" lon="5.91035">
        <ele>938.6</ele>
        <time>2020-12-26T15:41:30Z</time>
      </trkpt>
      <trkpt lat="46.90192" lon="5.91029">
        <ele>938.4</ele>
        <time>2020-12-26T15:41:31Z</time>
      </trkpt>
      <trkpt lat="46.90193" lon="5.91025">
        <ele>938</ele>
        <time>2020-12-26T15:41:32Z</time>
      </trkpt>
      <trkpt lat="46.90194" lon="5.9102">
        <ele>938</ele>
        <time>2020-12-26T15:41:33Z</time>
      </trkpt>
      <trkpt lat="46.90195" lon="5.91016">
        <ele>937.8</ele>
        <time>2020-12-26T15:41:34Z</time>
      </trkpt>
      <trkpt lat="46.90196" lon="5.91013">
        <ele>937.8</ele>
        <time>2020-12-26T15:41:35Z</time>
      </trkpt>
      <trkpt lat="46.90196" lon="5.91009">
        <ele>937.6</ele>
        <time>2020-12-26T15:41:36Z</time>
      </trkpt>
      <trkpt lat="46.90197" lon="5.91006">
        <ele>937.6</ele>
        <time>2020-12-26T15:41:37Z</time>
      </trkpt>
      <trkpt lat="46.90198" lon="5.91003">
        <ele>937.4</ele>
        <time>2020-12-26T15:41:38Z</time>
      </trkpt>
      <trkpt lat="46.90199" lon="5.91">
        <ele>937.4</ele>
        <time>2020-12-26T15:41:39Z</time>
      </trkpt>
      <trkpt lat="46.902" lon="5.90997">
        <ele>937</ele>
        <time>2020-12-26T15:41:40Z</time>
      </trkpt>
      <trkpt lat="46.902" lon="5.90996">
        <ele>937</ele>
        <time>2020-12-26T15:41:41Z</time>
      </trkpt>
      <trkpt lat="46.90197" lon="5.91002">
        <ele>936.6</ele>
        <time>2020-12-26T15:41:57Z</time>
      </trkpt>
      <trkpt lat="46.90197" lon="5.91005">
        <ele>936.6</ele>
        <time>2020-12-26T15:41:58Z</time>
      </trkpt>
      <trkpt lat="46.90196" lon="5.91008">
        <ele>937</ele>
        <time>2020-12-26T15:41:59Z</time>
      </trkpt>
      <trkpt lat="46.90195" lon="5.91011">
        <ele>937</ele>
        <time>2020-12-26T15:42:00Z</time>
      </trkpt>
      <trkpt lat="46.90195" lon="5.91014">
        <ele>937.2</ele>
        <time>2020-12-26T15:42:01Z</time>
      </trkpt>
      <trkpt lat="46.90194" lon="5.91018">
        <ele>937.2</ele>
        <time>2020-12-26T15:42:02Z</time>
      </trkpt>
      <trkpt lat="46.90194" lon="5.91021">
        <ele>937.6</ele>
        <time>2020-12-26T15:42:03Z</time>
      </trkpt>
      <trkpt lat="46.90193" lon="5.91025">
        <ele>937.6</ele>
        <time>2020-12-26T15:42:04Z</time>
      </trkpt>
      <trkpt lat="46.90192" lon="5.91029">
        <ele>937.8</ele>
        <time>2020-12-26T15:42:05Z</time>
      </trkpt>
      <trkpt lat="46.90191" lon="5.91033">
        <ele>937.8</ele>
        <time>2020-12-26T15:42:06Z</time>
      </trkpt>
      <trkpt lat="46.9019" lon="5.91037">
        <ele>938.2</ele>
        <time>2020-12-26T15:42:07Z</time>
      </trkpt>
      <trkpt lat="46.90188" lon="5.91041">
        <ele>938.2</ele>
        <time>2020-12-26T15:42:08Z</time>
      </trkpt>
      <trkpt lat="46.90186" lon="5.91044">
        <ele>938.4</ele>
        <time>2020-12-26T15:42:09Z</time>
      </trkpt>
      <trkpt lat="46.90184" lon="5.91048">
        <ele>938.4</ele>
        <time>2020-12-26T15:42:10Z</time>
      </trkpt>
      <trkpt lat="46.90181" lon="5.91051">
        <ele>938.8</ele>
        <time>2020-12-26T15:42:11Z</time>
      </trkpt>
      <trkpt lat="46.90179" lon="5.91054">
        <ele>939</ele>
        <time>2020-12-26T15:42:12Z</time>
      </trkpt>
      <trkpt lat="46.90177" lon="5.91056">
        <ele>939</ele>
        <time>2020-12-26T15:42:13Z</time>
      </trkpt>
      <trkpt lat="46.90175" lon="5.91059">
        <ele>939</ele>
        <time>2020-12-26T15:42:14Z</time>
      </trkpt>
      <trkpt lat="46.90173" lon="5.91061">
        <ele>939</ele>
        <time>2020-12-26T15:42:15Z</time>
      </trkpt>
      <trkpt lat="46.90171" lon="5.91062">
        <ele>939</ele>
        <time>2020-12-26T15:42:16Z</time>
      </trkpt>
      <trkpt lat="46.90167" lon="5.91062">
        <ele>939.2</ele>
        <time>2020-12-26T15:42:17Z</time>
      </trkpt>
      <trkpt lat="46.90164" lon="5.91059">
        <ele>939.2</ele>
        <time>2020-12-26T15:42:18Z</time>
      </trkpt>
      <trkpt lat="46.9016" lon="5.91057">
        <ele>939.2</ele>
        <time>2020-12-26T15:42:19Z</time>
      </trkpt>
      <trkpt lat="46.90156" lon="5.91053">
        <ele>939.2</ele>
        <time>2020-12-26T15:42:20Z</time>
      </trkpt>
      <trkpt lat="46.90151" lon="5.9105">
        <ele>939.2</ele>
        <time>2020-12-26T15:42:21Z</time>
      </trkpt>
      <trkpt lat="46.90146" lon="5.91047">
        <ele>939</ele>
        <time>2020-12-26T15:42:22Z</time>
      </trkpt>
      <trkpt lat="46.90141" lon="5.91044">
        <ele>939</ele>
        <time>2020-12-26T15:42:23Z</time>
      </trkpt>
      <trkpt lat="46.90135" lon="5.91041">
        <ele>939</ele>
        <time>2020-12-26T15:42:24Z</time>
      </trkpt>
      <trkpt lat="46.90129" lon="5.91038">
        <ele>939.2</ele>
        <time>2020-12-26T15:42:25Z</time>
      </trkpt>
      <trkpt lat="46.90124" lon="5.91035">
        <ele>939.2</ele>
        <time>2020-12-26T15:42:26Z</time>
      </trkpt>
      <trkpt lat="46.90119" lon="5.91034">
        <ele>939.8</ele>
        <time>2020-12-26T15:42:27Z</time>
      </trkpt>
      <trkpt lat="46.90113" lon="5.91032">
        <ele>940</ele>
        <time>2020-12-26T15:42:28Z</time>
      </trkpt>
      <trkpt lat="46.90109" lon="5.91031">
        <ele>940.4</ele>
        <time>2020-12-26T15:42:29Z</time>
      </trkpt>
      <trkpt lat="46.90104" lon="5.9103">
        <ele>940.8</ele>
        <time>2020-12-26T15:42:30Z</time>
      </trkpt>
      <trkpt lat="46.90099" lon="5.9103">
        <ele>941.2</ele>
        <time>2020-12-26T15:42:31Z</time>
      </trkpt>
      <trkpt lat="46.90095" lon="5.91031">
        <ele>941.8</ele>
        <time>2020-12-26T15:42:32Z</time>
      </trkpt>
      <trkpt lat="46.9009" lon="5.91031">
        <ele>942.2</ele>
        <time>2020-12-26T15:42:33Z</time>
      </trkpt>
      <trkpt lat="46.90086" lon="5.91032">
        <ele>942.6</ele>
        <time>2020-12-26T15:42:34Z</time>
      </trkpt>
      <trkpt lat="46.90083" lon="5.91032">
        <ele>943</ele>
        <time>2020-12-26T15:42:35Z</time>
      </trkpt>
      <trkpt lat="46.90079" lon="5.91032">
        <ele>943.4</ele>
        <time>2020-12-26T15:42:36Z</time>
      </trkpt>
      <trkpt lat="46.90076" lon="5.91032">
        <ele>943.8</ele>
        <time>2020-12-26T15:42:37Z</time>
      </trkpt>
      <trkpt lat="46.90073" lon="5.91032">
        <ele>944.2</ele>
        <time>2020-12-26T15:42:38Z</time>
      </trkpt>
      <trkpt lat="46.9007" lon="5.91032">
        <ele>944.6</ele>
        <time>2020-12-26T15:42:39Z</time>
      </trkpt>
      <trkpt lat="46.90067" lon="5.91032">
        <ele>945</ele>
        <time>2020-12-26T15:42:40Z</time>
      </trkpt>
      <trkpt lat="46.90064" lon="5.91031">
        <ele>945.2</ele>
        <time>2020-12-26T15:42:41Z</time>
      </trkpt>
      <trkpt lat="46.90062" lon="5.9103">
        <ele>945.6</ele>
        <time>2020-12-26T15:42:42Z</time>
      </trkpt>
      <trkpt lat="46.90059" lon="5.91029">
        <ele>945.8</ele>
        <time>2020-12-26T15:42:43Z</time>
      </trkpt>
      <trkpt lat="46.90057" lon="5.91027">
        <ele>946.2</ele>
        <time>2020-12-26T15:42:44Z</time>
      </trkpt>
      <trkpt lat="46.90054" lon="5.91026">
        <ele>946.4</ele>
        <time>2020-12-26T15:42:45Z</time>
      </trkpt>
      <trkpt lat="46.90052" lon="5.91024">
        <ele>946.6</ele>
        <time>2020-12-26T15:42:46Z</time>
      </trkpt>
      <trkpt lat="46.9005" lon="5.91023">
        <ele>946.8</ele>
        <time>2020-12-26T15:42:47Z</time>
      </trkpt>
      <trkpt lat="46.90047" lon="5.91022">
        <ele>947.2</ele>
        <time>2020-12-26T15:42:48Z</time>
      </trkpt>
      <trkpt lat="46.90044" lon="5.91021">
        <ele>947.4</ele>
        <time>2020-12-26T15:42:49Z</time>
      </trkpt>
      <trkpt lat="46.90042" lon="5.9102">
        <ele>947.8</ele>
        <time>2020-12-26T15:42:50Z</time>
      </trkpt>
      <trkpt lat="46.90039" lon="5.91018">
        <ele>948</ele>
        <time>2020-12-26T15:42:51Z</time>
      </trkpt>
      <trkpt lat="46.90037" lon="5.91017">
        <ele>948</ele>
        <time>2020-12-26T15:42:52Z</time>
      </trkpt>
      <trkpt lat="46.90034" lon="5.91016">
        <ele>948.2</ele>
        <time>2020-12-26T15:42:53Z</time>
      </trkpt>
      <trkpt lat="46.90032" lon="5.91015">
        <ele>948.2</ele>
        <time>2020-12-26T15:42:54Z</time>
      </trkpt>
      <trkpt lat="46.9003" lon="5.91013">
        <ele>948.6</ele>
        <time>2020-12-26T15:42:55Z</time>
      </trkpt>
      <trkpt lat="46.90027" lon="5.91012">
        <ele>948.6</ele>
        <time>2020-12-26T15:42:56Z</time>
      </trkpt>
      <trkpt lat="46.90024" lon="5.91011">
        <ele>949</ele>
        <time>2020-12-26T15:42:57Z</time>
      </trkpt>
      <trkpt lat="46.90022" lon="5.9101">
        <ele>949</ele>
        <time>2020-12-26T15:42:58Z</time>
      </trkpt>
      <trkpt lat="46.90019" lon="5.91009">
        <ele>949.2</ele>
        <time>2020-12-26T15:42:59Z</time>
      </trkpt>
      <trkpt lat="46.90016" lon="5.91008">
        <ele>949.2</ele>
        <time>2020-12-26T15:43:00Z</time>
      </trkpt>
      <trkpt lat="46.90014" lon="5.91007">
        <ele>949.2</ele>
        <time>2020-12-26T15:43:01Z</time>
      </trkpt>
      <trkpt lat="46.90011" lon="5.91007">
        <ele>949.2</ele>
        <time>2020-12-26T15:43:02Z</time>
      </trkpt>
      <trkpt lat="46.90008" lon="5.91007">
        <ele>949.4</ele>
        <time>2020-12-26T15:43:03Z</time>
      </trkpt>
      <trkpt lat="46.90005" lon="5.91007">
        <ele>949.4</ele>
        <time>2020-12-26T15:43:04Z</time>
      </trkpt>
      <trkpt lat="46.90002" lon="5.91007">
        <ele>949.8</ele>
        <time>2020-12-26T15:43:05Z</time>
      </trkpt>
      <trkpt lat="46.89999" lon="5.91007">
        <ele>949.8</ele>
        <time>2020-12-26T15:43:06Z</time>
      </trkpt>
      <trkpt lat="46.89996" lon="5.91007">
        <ele>950</ele>
        <time>2020-12-26T15:43:07Z</time>
      </trkpt>
      <trkpt lat="46.89993" lon="5.91006">
        <ele>950</ele>
        <time>2020-12-26T15:43:08Z</time>
      </trkpt>
      <trkpt lat="46.89989" lon="5.91006">
        <ele>950.2</ele>
        <time>2020-12-26T15:43:09Z</time>
      </trkpt>
      <trkpt lat="46.89986" lon="5.91007">
        <ele>950.2</ele>
        <time>2020-12-26T15:43:10Z</time>
      </trkpt>
      <trkpt lat="46.89983" lon="5.91007">
        <ele>950.2</ele>
        <time>2020-12-26T15:43:11Z</time>
      </trkpt>
      <trkpt lat="46.89979" lon="5.91008">
        <ele>950.6</ele>
        <time>2020-12-26T15:43:12Z</time>
      </trkpt>
      <trkpt lat="46.89976" lon="5.91008">
        <ele>950.6</ele>
        <time>2020-12-26T15:43:13Z</time>
      </trkpt>
      <trkpt lat="46.89972" lon="5.91007">
        <ele>950.8</ele>
        <time>2020-12-26T15:43:14Z</time>
      </trkpt>
      <trkpt lat="46.89969" lon="5.91007">
        <ele>950.8</ele>
        <time>2020-12-26T15:43:15Z</time>
      </trkpt>
      <trkpt lat="46.89965" lon="5.91007">
        <ele>951.2</ele>
        <time>2020-12-26T15:43:16Z</time>
      </trkpt>
      <trkpt lat="46.89962" lon="5.91006">
        <ele>951.2</ele>
        <time>2020-12-26T15:43:17Z</time>
      </trkpt>
      <trkpt lat="46.89958" lon="5.91006">
        <ele>951.6</ele>
        <time>2020-12-26T15:43:18Z</time>
      </trkpt>
      <trkpt lat="46.89955" lon="5.91006">
        <ele>951.8</ele>
        <time>2020-12-26T15:43:19Z</time>
      </trkpt>
      <trkpt lat="46.89951" lon="5.91006">
        <ele>951.8</ele>
        <time>2020-12-26T15:43:20Z</time>
      </trkpt>
      <trkpt lat="46.89948" lon="5.91005">
        <ele>952.2</ele>
        <time>2020-12-26T15:43:21Z</time>
      </trkpt>
      <trkpt lat="46.89945" lon="5.91005">
        <ele>952.4</ele>
        <time>2020-12-26T15:43:22Z</time>
      </trkpt>
      <trkpt lat="46.89942" lon="5.91003">
        <ele>952.4</ele>
        <time>2020-12-26T15:43:23Z</time>
      </trkpt>
      <trkpt lat="46.89939" lon="5.91002">
        <ele>952.4</ele>
        <time>2020-12-26T15:43:24Z</time>
      </trkpt>
      <trkpt lat="46.89936" lon="5.91001">
        <ele>952.4</ele>
        <time>2020-12-26T15:43:25Z</time>
      </trkpt>
      <trkpt lat="46.89933" lon="5.90999">
        <ele>952.4</ele>
        <time>2020-12-26T15:43:26Z</time>
      </trkpt>
      <trkpt lat="46.8993" lon="5.90998">
        <ele>952.6</ele>
        <time>2020-12-26T15:43:27Z</time>
      </trkpt>
      <trkpt lat="46.89926" lon="5.90996">
        <ele>952.6</ele>
        <time>2020-12-26T15:43:28Z</time>
      </trkpt>
      <trkpt lat="46.89923" lon="5.90994">
        <ele>952.6</ele>
        <time>2020-12-26T15:43:29Z</time>
      </trkpt>
      <trkpt lat="46.8992" lon="5.90991">
        <ele>952.8</ele>
        <time>2020-12-26T15:43:30Z</time>
      </trkpt>
      <trkpt lat="46.89917" lon="5.90989">
        <ele>952.8</ele>
        <time>2020-12-26T15:43:31Z</time>
      </trkpt>
      <trkpt lat="46.89914" lon="5.90986">
        <ele>953.2</ele>
        <time>2020-12-26T15:43:32Z</time>
      </trkpt>
      <trkpt lat="46.89911" lon="5.90984">
        <ele>953.2</ele>
        <time>2020-12-26T15:43:33Z</time>
      </trkpt>
      <trkpt lat="46.89907" lon="5.90982">
        <ele>953.2</ele>
        <time>2020-12-26T15:43:34Z</time>
      </trkpt>
      <trkpt lat="46.89904" lon="5.9098">
        <ele>953.2</ele>
        <time>2020-12-26T15:43:35Z</time>
      </trkpt>
      <trkpt lat="46.89901" lon="5.90977">
        <ele>953.2</ele>
        <time>2020-12-26T15:43:36Z</time>
      </trkpt>
      <trkpt lat="46.89897" lon="5.90975">
        <ele>953</ele>
        <time>2020-12-26T15:43:37Z</time>
      </trkpt>
      <trkpt lat="46.89894" lon="5.90972">
        <ele>953</ele>
        <time>2020-12-26T15:43:38Z</time>
      </trkpt>
      <trkpt lat="46.8989" lon="5.9097">
        <ele>953</ele>
        <time>2020-12-26T15:43:39Z</time>
      </trkpt>
      <trkpt lat="46.89886" lon="5.90967">
        <ele>952.8</ele>
        <time>2020-12-26T15:43:40Z</time>
      </trkpt>
      <trkpt lat="46.89882" lon="5.90965">
        <ele>952.8</ele>
        <time>2020-12-26T15:43:41Z</time>
      </trkpt>
      <trkpt lat="46.89878" lon="5.90964">
        <ele>952.8</ele>
        <time>2020-12-26T15:43:42Z</time>
      </trkpt>
      <trkpt lat="46.89874" lon="5.90962">
        <ele>952.8</ele>
        <time>2020-12-26T15:43:43Z</time>
      </trkpt>
      <trkpt lat="46.89871" lon="5.9096">
        <ele>952.8</ele>
        <time>2020-12-26T15:43:44Z</time>
      </trkpt>
      <trkpt lat="46.89866" lon="5.90958">
        <ele>952.8</ele>
        <time>2020-12-26T15:43:45Z</time>
      </trkpt>
      <trkpt lat="46.89862" lon="5.90957">
        <ele>952.8</ele>
        <time>2020-12-26T15:43:46Z</time>
      </trkpt>
      <trkpt lat="46.89858" lon="5.90955">
        <ele>952.8</ele>
        <time>2020-12-26T15:43:47Z</time>
      </trkpt>
      <trkpt lat="46.89854" lon="5.90953">
        <ele>952.8</ele>
        <time>2020-12-26T15:43:48Z</time>
      </trkpt>
      <trkpt lat="46.89849" lon="5.90952">
        <ele>952.8</ele>
        <time>2020-12-26T15:43:49Z</time>
      </trkpt>
      <trkpt lat="46.89845" lon="5.90951">
        <ele>952.8</ele>
        <time>2020-12-26T15:43:50Z</time>
      </trkpt>
      <trkpt lat="46.8984" lon="5.9095">
        <ele>952.8</ele>
        <time>2020-12-26T15:43:51Z</time>
      </trkpt>
      <trkpt lat="46.89835" lon="5.90948">
        <ele>952.8</ele>
        <time>2020-12-26T15:43:52Z</time>
      </trkpt>
      <trkpt lat="46.89831" lon="5.90947">
        <ele>952.8</ele>
        <time>2020-12-26T15:43:53Z</time>
      </trkpt>
      <trkpt lat="46.89827" lon="5.90946">
        <ele>952.8</ele>
        <time>2020-12-26T15:43:54Z</time>
      </trkpt>
      <trkpt lat="46.89823" lon="5.90945">
        <ele>952.8</ele>
        <time>2020-12-26T15:43:55Z</time>
      </trkpt>
      <trkpt lat="46.89818" lon="5.90943">
        <ele>952.8</ele>
        <time>2020-12-26T15:43:56Z</time>
      </trkpt>
      <trkpt lat="46.89814" lon="5.90941">
        <ele>952.8</ele>
        <time>2020-12-26T15:43:57Z</time>
      </trkpt>
      <trkpt lat="46.8981" lon="5.90939">
        <ele>952.8</ele>
        <time>2020-12-26T15:43:58Z</time>
      </trkpt>
      <trkpt lat="46.89806" lon="5.90938">
        <ele>952.8</ele>
        <time>2020-12-26T15:43:59Z</time>
      </trkpt>
      <trkpt lat="46.89801" lon="5.90936">
        <ele>952.8</ele>
        <time>2020-12-26T15:44:00Z</time>
      </trkpt>
      <trkpt lat="46.89797" lon="5.90935">
        <ele>953</ele>
        <time>2020-12-26T15:44:01Z</time>
      </trkpt>
      <trkpt lat="46.89794" lon="5.90933">
        <ele>953</ele>
        <time>2020-12-26T15:44:02Z</time>
      </trkpt>
      <trkpt lat="46.8979" lon="5.90931">
        <ele>953.2</ele>
        <time>2020-12-26T15:44:03Z</time>
      </trkpt>
      <trkpt lat="46.89787" lon="5.90929">
        <ele>953.6</ele>
        <time>2020-12-26T15:44:04Z</time>
      </trkpt>
      <trkpt lat="46.89783" lon="5.90928">
        <ele>953.8</ele>
        <time>2020-12-26T15:44:05Z</time>
      </trkpt>
      <trkpt lat="46.8978" lon="5.90926">
        <ele>953.8</ele>
        <time>2020-12-26T15:44:06Z</time>
      </trkpt>
      <trkpt lat="46.89777" lon="5.90924">
        <ele>954</ele>
        <time>2020-12-26T15:44:07Z</time>
      </trkpt>
      <trkpt lat="46.89774" lon="5.90921">
        <ele>954</ele>
        <time>2020-12-26T15:44:08Z</time>
      </trkpt>
      <trkpt lat="46.89771" lon="5.90919">
        <ele>954.4</ele>
        <time>2020-12-26T15:44:09Z</time>
      </trkpt>
      <trkpt lat="46.89767" lon="5.90916">
        <ele>954.6</ele>
        <time>2020-12-26T15:44:10Z</time>
      </trkpt>
      <trkpt lat="46.89764" lon="5.90913">
        <ele>955</ele>
        <time>2020-12-26T15:44:11Z</time>
      </trkpt>
      <trkpt lat="46.89761" lon="5.9091">
        <ele>955.2</ele>
        <time>2020-12-26T15:44:12Z</time>
      </trkpt>
      <trkpt lat="46.89758" lon="5.90907">
        <ele>955.4</ele>
        <time>2020-12-26T15:44:13Z</time>
      </trkpt>
      <trkpt lat="46.89755" lon="5.90905">
        <ele>955.6</ele>
        <time>2020-12-26T15:44:14Z</time>
      </trkpt>
      <trkpt lat="46.89752" lon="5.90902">
        <ele>955.6</ele>
        <time>2020-12-26T15:44:15Z</time>
      </trkpt>
      <trkpt lat="46.89749" lon="5.90898">
        <ele>956</ele>
        <time>2020-12-26T15:44:16Z</time>
      </trkpt>
      <trkpt lat="46.89746" lon="5.90896">
        <ele>956.4</ele>
        <time>2020-12-26T15:44:17Z</time>
      </trkpt>
      <trkpt lat="46.89743" lon="5.90893">
        <ele>956.4</ele>
        <time>2020-12-26T15:44:18Z</time>
      </trkpt>
      <trkpt lat="46.8974" lon="5.90891">
        <ele>956.8</ele>
        <time>2020-12-26T15:44:19Z</time>
      </trkpt>
      <trkpt lat="46.89737" lon="5.90889">
        <ele>957</ele>
        <time>2020-12-26T15:44:20Z</time>
      </trkpt>
      <trkpt lat="46.89734" lon="5.90888">
        <ele>957.2</ele>
        <time>2020-12-26T15:44:21Z</time>
      </trkpt>
      <trkpt lat="46.89731" lon="5.90887">
        <ele>957.2</ele>
        <time>2020-12-26T15:44:22Z</time>
      </trkpt>
      <trkpt lat="46.89728" lon="5.90886">
        <ele>957.6</ele>
        <time>2020-12-26T15:44:23Z</time>
      </trkpt>
      <trkpt lat="46.89724" lon="5.90885">
        <ele>957.6</ele>
        <time>2020-12-26T15:44:24Z</time>
      </trkpt>
      <trkpt lat="46.89721" lon="5.90885">
        <ele>957.6</ele>
        <time>2020-12-26T15:44:25Z</time>
      </trkpt>
      <trkpt lat="46.89718" lon="5.90885">
        <ele>957.8</ele>
        <time>2020-12-26T15:44:26Z</time>
      </trkpt>
      <trkpt lat="46.89715" lon="5.90884">
        <ele>957.8</ele>
        <time>2020-12-26T15:44:27Z</time>
      </trkpt>
      <trkpt lat="46.89711" lon="5.90884">
        <ele>957.8</ele>
        <time>2020-12-26T15:44:28Z</time>
      </trkpt>
      <trkpt lat="46.89708" lon="5.90885">
        <ele>957.8</ele>
        <time>2020-12-26T15:44:29Z</time>
      </trkpt>
      <trkpt lat="46.89704" lon="5.90885">
        <ele>957.8</ele>
        <time>2020-12-26T15:44:30Z</time>
      </trkpt>
      <trkpt lat="46.897" lon="5.90885">
        <ele>957.8</ele>
        <time>2020-12-26T15:44:31Z</time>
      </trkpt>
      <trkpt lat="46.89697" lon="5.90885">
        <ele>957.8</ele>
        <time>2020-12-26T15:44:32Z</time>
      </trkpt>
      <trkpt lat="46.89693" lon="5.90885">
        <ele>957.8</ele>
        <time>2020-12-26T15:44:33Z</time>
      </trkpt>
      <trkpt lat="46.89689" lon="5.90885">
        <ele>957.8</ele>
        <time>2020-12-26T15:44:34Z</time>
      </trkpt>
      <trkpt lat="46.89685" lon="5.90885">
        <ele>957.8</ele>
        <time>2020-12-26T15:44:35Z</time>
      </trkpt>
      <trkpt lat="46.89681" lon="5.90885">
        <ele>957.8</ele>
        <time>2020-12-26T15:44:36Z</time>
      </trkpt>
      <trkpt lat="46.89676" lon="5.90885">
        <ele>957.4</ele>
        <time>2020-12-26T15:44:37Z</time>
      </trkpt>
      <trkpt lat="46.89672" lon="5.90885">
        <ele>957.4</ele>
        <time>2020-12-26T15:44:38Z</time>
      </trkpt>
      <trkpt lat="46.89667" lon="5.90885">
        <ele>957.4</ele>
        <time>2020-12-26T15:44:39Z</time>
      </trkpt>
      <trkpt lat="46.89663" lon="5.90885">
        <ele>957.2</ele>
        <time>2020-12-26T15:44:40Z</time>
      </trkpt>
      <trkpt lat="46.89658" lon="5.90884">
        <ele>957.2</ele>
        <time>2020-12-26T15:44:41Z</time>
      </trkpt>
      <trkpt lat="46.89654" lon="5.90884">
        <ele>957.2</ele>
        <time>2020-12-26T15:44:42Z</time>
      </trkpt>
      <trkpt lat="46.89649" lon="5.90883">
        <ele>957.2</ele>
        <time>2020-12-26T15:44:43Z</time>
      </trkpt>
      <trkpt lat="46.89644" lon="5.90882">
        <ele>957.2</ele>
        <time>2020-12-26T15:44:44Z</time>
      </trkpt>
      <trkpt lat="46.89639" lon="5.90881">
        <ele>957.2</ele>
        <time>2020-12-26T15:44:45Z</time>
      </trkpt>
      <trkpt lat="46.89634" lon="5.9088">
        <ele>957</ele>
        <time>2020-12-26T15:44:46Z</time>
      </trkpt>
      <trkpt lat="46.89629" lon="5.90879">
        <ele>957</ele>
        <time>2020-12-26T15:44:47Z</time>
      </trkpt>
      <trkpt lat="46.89624" lon="5.90877">
        <ele>957</ele>
        <time>2020-12-26T15:44:48Z</time>
      </trkpt>
      <trkpt lat="46.89619" lon="5.90876">
        <ele>956.6</ele>
        <time>2020-12-26T15:44:49Z</time>
      </trkpt>
      <trkpt lat="46.89613" lon="5.90874">
        <ele>956.6</ele>
        <time>2020-12-26T15:44:50Z</time>
      </trkpt>
      <trkpt lat="46.89608" lon="5.90873">
        <ele>956.4</ele>
        <time>2020-12-26T15:44:51Z</time>
      </trkpt>
      <trkpt lat="46.89602" lon="5.90871">
        <ele>956.4</ele>
        <time>2020-12-26T15:44:52Z</time>
      </trkpt>
      <trkpt lat="46.89597" lon="5.90869">
        <ele>956</ele>
        <time>2020-12-26T15:44:53Z</time>
      </trkpt>
      <trkpt lat="46.89591" lon="5.90867">
        <ele>956</ele>
        <time>2020-12-26T15:44:54Z</time>
      </trkpt>
      <trkpt lat="46.89585" lon="5.90866">
        <ele>956</ele>
        <time>2020-12-26T15:44:55Z</time>
      </trkpt>
      <trkpt lat="46.8958" lon="5.90864">
        <ele>955.8</ele>
        <time>2020-12-26T15:44:56Z</time>
      </trkpt>
      <trkpt lat="46.89574" lon="5.90862">
        <ele>955.8</ele>
        <time>2020-12-26T15:44:57Z</time>
      </trkpt>
      <trkpt lat="46.89569" lon="5.90861">
        <ele>955.8</ele>
        <time>2020-12-26T15:44:58Z</time>
      </trkpt>
      <trkpt lat="46.89563" lon="5.9086">
        <ele>955.8</ele>
        <time>2020-12-26T15:44:59Z</time>
      </trkpt>
      <trkpt lat="46.89557" lon="5.90858">
        <ele>955.8</ele>
        <time>2020-12-26T15:45:00Z</time>
      </trkpt>
      <trkpt lat="46.89552" lon="5.90857">
        <ele>955.8</ele>
        <time>2020-12-26T15:45:01Z</time>
      </trkpt>
      <trkpt lat="46.89546" lon="5.90856">
        <ele>955.8</ele>
        <time>2020-12-26T15:45:02Z</time>
      </trkpt>
      <trkpt lat="46.8954" lon="5.90855">
        <ele>955.8</ele>
        <time>2020-12-26T15:45:03Z</time>
      </trkpt>
      <trkpt lat="46.89534" lon="5.90853">
        <ele>955.8</ele>
        <time>2020-12-26T15:45:04Z</time>
      </trkpt>
      <trkpt lat="46.89529" lon="5.90852">
        <ele>955.8</ele>
        <time>2020-12-26T15:45:05Z</time>
      </trkpt>
      <trkpt lat="46.89523" lon="5.90852">
        <ele>955.8</ele>
        <time>2020-12-26T15:45:06Z</time>
      </trkpt>
      <trkpt lat="46.89517" lon="5.90851">
        <ele>955.8</ele>
        <time>2020-12-26T15:45:07Z</time>
      </trkpt>
      <trkpt lat="46.89512" lon="5.9085">
        <ele>955.8</ele>
        <time>2020-12-26T15:45:08Z</time>
      </trkpt>
      <trkpt lat="46.89506" lon="5.9085">
        <ele>956</ele>
        <time>2020-12-26T15:45:09Z</time>
      </trkpt>
      <trkpt lat="46.89501" lon="5.9085">
        <ele>956</ele>
        <time>2020-12-26T15:45:10Z</time>
      </trkpt>
      <trkpt lat="46.89496" lon="5.90851">
        <ele>956.4</ele>
        <time>2020-12-26T15:45:11Z</time>
      </trkpt>
      <trkpt lat="46.89491" lon="5.90853">
        <ele>956.4</ele>
        <time>2020-12-26T15:45:12Z</time>
      </trkpt>
      <trkpt lat="46.89487" lon="5.90856">
        <ele>956.8</ele>
        <time>2020-12-26T15:45:13Z</time>
      </trkpt>
      <trkpt lat="46.89483" lon="5.9086">
        <ele>957</ele>
        <time>2020-12-26T15:45:14Z</time>
      </trkpt>
      <trkpt lat="46.8948" lon="5.90865">
        <ele>957.2</ele>
        <time>2020-12-26T15:45:15Z</time>
      </trkpt>
      <trkpt lat="46.89478" lon="5.9087">
        <ele>957.6</ele>
        <time>2020-12-26T15:45:16Z</time>
      </trkpt>
      <trkpt lat="46.89476" lon="5.90876">
        <ele>958</ele>
        <time>2020-12-26T15:45:17Z</time>
      </trkpt>
      <trkpt lat="46.89474" lon="5.90882">
        <ele>958.2</ele>
        <time>2020-12-26T15:45:18Z</time>
      </trkpt>
      <trkpt lat="46.89473" lon="5.90888">
        <ele>958.6</ele>
        <time>2020-12-26T15:45:19Z</time>
      </trkpt>
      <trkpt lat="46.89472" lon="5.90895">
        <ele>958.8</ele>
        <time>2020-12-26T15:45:20Z</time>
      </trkpt>
      <trkpt lat="46.8947" lon="5.90901">
        <ele>959.2</ele>
        <time>2020-12-26T15:45:21Z</time>
      </trkpt>
      <trkpt lat="46.89469" lon="5.90908">
        <ele>959.4</ele>
        <time>2020-12-26T15:45:22Z</time>
      </trkpt>
      <trkpt lat="46.89468" lon="5.90914">
        <ele>959.8</ele>
        <time>2020-12-26T15:45:23Z</time>
      </trkpt>
      <trkpt lat="46.89467" lon="5.90921">
        <ele>960</ele>
        <time>2020-12-26T15:45:24Z</time>
      </trkpt>
      <trkpt lat="46.89465" lon="5.90927">
        <ele>960.4</ele>
        <time>2020-12-26T15:45:25Z</time>
      </trkpt>
      <trkpt lat="46.89463" lon="5.90933">
        <ele>960.4</ele>
        <time>2020-12-26T15:45:26Z</time>
      </trkpt>
      <trkpt lat="46.89461" lon="5.90939">
        <ele>960.6</ele>
        <time>2020-12-26T15:45:27Z</time>
      </trkpt>
      <trkpt lat="46.89458" lon="5.90944">
        <ele>960.6</ele>
        <time>2020-12-26T15:45:28Z</time>
      </trkpt>
      <trkpt lat="46.89455" lon="5.90948">
        <ele>961</ele>
        <time>2020-12-26T15:45:29Z</time>
      </trkpt>
      <trkpt lat="46.89451" lon="5.90952">
        <ele>961</ele>
        <time>2020-12-26T15:45:30Z</time>
      </trkpt>
      <trkpt lat="46.89446" lon="5.90954">
        <ele>961</ele>
        <time>2020-12-26T15:45:31Z</time>
      </trkpt>
      <trkpt lat="46.89442" lon="5.90955">
        <ele>961.4</ele>
        <time>2020-12-26T15:45:32Z</time>
      </trkpt>
      <trkpt lat="46.89438" lon="5.90954">
        <ele>961.6</ele>
        <time>2020-12-26T15:45:33Z</time>
      </trkpt>
      <trkpt lat="46.89433" lon="5.90953">
        <ele>961.8</ele>
        <time>2020-12-26T15:45:34Z</time>
      </trkpt>
      <trkpt lat="46.89429" lon="5.90952">
        <ele>961.8</ele>
        <time>2020-12-26T15:45:35Z</time>
      </trkpt>
      <trkpt lat="46.89425" lon="5.9095">
        <ele>962.2</ele>
        <time>2020-12-26T15:45:36Z</time>
      </trkpt>
      <trkpt lat="46.8942" lon="5.90949">
        <ele>962.2</ele>
        <time>2020-12-26T15:45:37Z</time>
      </trkpt>
      <trkpt lat="46.89416" lon="5.90947">
        <ele>962.6</ele>
        <time>2020-12-26T15:45:38Z</time>
      </trkpt>
      <trkpt lat="46.89412" lon="5.90945">
        <ele>962.6</ele>
        <time>2020-12-26T15:45:39Z</time>
      </trkpt>
      <trkpt lat="46.89407" lon="5.90943">
        <ele>962.8</ele>
        <time>2020-12-26T15:45:40Z</time>
      </trkpt>
      <trkpt lat="46.89403" lon="5.90941">
        <ele>962.8</ele>
        <time>2020-12-26T15:45:41Z</time>
      </trkpt>
      <trkpt lat="46.89398" lon="5.90939">
        <ele>963.2</ele>
        <time>2020-12-26T15:45:42Z</time>
      </trkpt>
      <trkpt lat="46.89394" lon="5.90937">
        <ele>963.2</ele>
        <time>2020-12-26T15:45:43Z</time>
      </trkpt>
      <trkpt lat="46.89389" lon="5.90936">
        <ele>963.4</ele>
        <time>2020-12-26T15:45:44Z</time>
      </trkpt>
      <trkpt lat="46.89385" lon="5.90934">
        <ele>963.4</ele>
        <time>2020-12-26T15:45:45Z</time>
      </trkpt>
      <trkpt lat="46.89381" lon="5.90932">
        <ele>963.8</ele>
        <time>2020-12-26T15:45:46Z</time>
      </trkpt>
      <trkpt lat="46.89376" lon="5.90931">
        <ele>963.8</ele>
        <time>2020-12-26T15:45:47Z</time>
      </trkpt>
      <trkpt lat="46.89372" lon="5.90929">
        <ele>963.8</ele>
        <time>2020-12-26T15:45:48Z</time>
      </trkpt>
      <trkpt lat="46.89368" lon="5.90927">
        <ele>964</ele>
        <time>2020-12-26T15:45:49Z</time>
      </trkpt>
      <trkpt lat="46.89363" lon="5.90925">
        <ele>964</ele>
        <time>2020-12-26T15:45:50Z</time>
      </trkpt>
      <trkpt lat="46.89359" lon="5.90923">
        <ele>964</ele>
        <time>2020-12-26T15:45:51Z</time>
      </trkpt>
      <trkpt lat="46.89354" lon="5.90921">
        <ele>964</ele>
        <time>2020-12-26T15:45:52Z</time>
      </trkpt>
      <trkpt lat="46.89349" lon="5.90919">
        <ele>964</ele>
        <time>2020-12-26T15:45:53Z</time>
      </trkpt>
      <trkpt lat="46.89345" lon="5.90917">
        <ele>964</ele>
        <time>2020-12-26T15:45:54Z</time>
      </trkpt>
      <trkpt lat="46.8934" lon="5.90915">
        <ele>964.2</ele>
        <time>2020-12-26T15:45:55Z</time>
      </trkpt>
      <trkpt lat="46.89335" lon="5.90912">
        <ele>964.2</ele>
        <time>2020-12-26T15:45:56Z</time>
      </trkpt>
      <trkpt lat="46.8933" lon="5.9091">
        <ele>964.2</ele>
        <time>2020-12-26T15:45:57Z</time>
      </trkpt>
      <trkpt lat="46.89325" lon="5.90908">
        <ele>964.2</ele>
        <time>2020-12-26T15:45:58Z</time>
      </trkpt>
      <trkpt lat="46.8932" lon="5.90907">
        <ele>964.2</ele>
        <time>2020-12-26T15:45:59Z</time>
      </trkpt>
      <trkpt lat="46.89316" lon="5.90904">
        <ele>964.2</ele>
        <time>2020-12-26T15:46:00Z</time>
      </trkpt>
      <trkpt lat="46.89311" lon="5.90902">
        <ele>964.2</ele>
        <time>2020-12-26T15:46:01Z</time>
      </trkpt>
      <trkpt lat="46.89306" lon="5.909">
        <ele>964.2</ele>
        <time>2020-12-26T15:46:02Z</time>
      </trkpt>
      <trkpt lat="46.893" lon="5.90897">
        <ele>964</ele>
        <time>2020-12-26T15:46:03Z</time>
      </trkpt>
      <trkpt lat="46.89295" lon="5.90895">
        <ele>964</ele>
        <time>2020-12-26T15:46:04Z</time>
      </trkpt>
      <trkpt lat="46.8929" lon="5.90892">
        <ele>964</ele>
        <time>2020-12-26T15:46:05Z</time>
      </trkpt>
      <trkpt lat="46.89284" lon="5.9089">
        <ele>963.8</ele>
        <time>2020-12-26T15:46:06Z</time>
      </trkpt>
      <trkpt lat="46.89279" lon="5.90888">
        <ele>963.8</ele>
        <time>2020-12-26T15:46:07Z</time>
      </trkpt>
      <trkpt lat="46.89273" lon="5.90885">
        <ele>963.6</ele>
        <time>2020-12-26T15:46:08Z</time>
      </trkpt>
      <trkpt lat="46.89268" lon="5.90883">
        <ele>963.6</ele>
        <time>2020-12-26T15:46:09Z</time>
      </trkpt>
      <trkpt lat="46.89262" lon="5.90881">
        <ele>963.2</ele>
        <time>2020-12-26T15:46:10Z</time>
      </trkpt>
      <trkpt lat="46.89257" lon="5.90879">
        <ele>963.2</ele>
        <time>2020-12-26T15:46:11Z</time>
      </trkpt>
      <trkpt lat="46.89251" lon="5.90877">
        <ele>963.2</ele>
        <time>2020-12-26T15:46:12Z</time>
      </trkpt>
      <trkpt lat="46.89246" lon="5.90876">
        <ele>963.2</ele>
        <time>2020-12-26T15:46:13Z</time>
      </trkpt>
      <trkpt lat="46.8924" lon="5.90875">
        <ele>963.2</ele>
        <time>2020-12-26T15:46:14Z</time>
      </trkpt>
      <trkpt lat="46.89235" lon="5.90875">
        <ele>963.2</ele>
        <time>2020-12-26T15:46:15Z</time>
      </trkpt>
      <trkpt lat="46.89229" lon="5.90875">
        <ele>963</ele>
        <time>2020-12-26T15:46:16Z</time>
      </trkpt>
      <trkpt lat="46.89224" lon="5.90877">
        <ele>963</ele>
        <time>2020-12-26T15:46:17Z</time>
      </trkpt>
      <trkpt lat="46.89219" lon="5.90878">
        <ele>963</ele>
        <time>2020-12-26T15:46:18Z</time>
      </trkpt>
      <trkpt lat="46.89214" lon="5.90881">
        <ele>963</ele>
        <time>2020-12-26T15:46:19Z</time>
      </trkpt>
      <trkpt lat="46.89209" lon="5.90883">
        <ele>962.8</ele>
        <time>2020-12-26T15:46:20Z</time>
      </trkpt>
      <trkpt lat="46.89204" lon="5.90886">
        <ele>962.8</ele>
        <time>2020-12-26T15:46:21Z</time>
      </trkpt>
      <trkpt lat="46.89199" lon="5.90889">
        <ele>962.8</ele>
        <time>2020-12-26T15:46:22Z</time>
      </trkpt>
      <trkpt lat="46.89194" lon="5.90892">
        <ele>962.8</ele>
        <time>2020-12-26T15:46:23Z</time>
      </trkpt>
      <trkpt lat="46.89189" lon="5.90894">
        <ele>962.8</ele>
        <time>2020-12-26T15:46:24Z</time>
      </trkpt>
      <trkpt lat="46.89184" lon="5.90897">
        <ele>962.8</ele>
        <time>2020-12-26T15:46:25Z</time>
      </trkpt>
      <trkpt lat="46.89179" lon="5.909">
        <ele>962.8</ele>
        <time>2020-12-26T15:46:26Z</time>
      </trkpt>
      <trkpt lat="46.89174" lon="5.90903">
        <ele>962.6</ele>
        <time>2020-12-26T15:46:27Z</time>
      </trkpt>
      <trkpt lat="46.89169" lon="5.90905">
        <ele>962.6</ele>
        <time>2020-12-26T15:46:28Z</time>
      </trkpt>
      <trkpt lat="46.89164" lon="5.90908">
        <ele>962.6</ele>
        <time>2020-12-26T15:46:29Z</time>
      </trkpt>
      <trkpt lat="46.89158" lon="5.90909">
        <ele>962.6</ele>
        <time>2020-12-26T15:46:30Z</time>
      </trkpt>
      <trkpt lat="46.89153" lon="5.9091">
        <ele>962.6</ele>
        <time>2020-12-26T15:46:31Z</time>
      </trkpt>
      <trkpt lat="46.89147" lon="5.90911">
        <ele>962.6</ele>
        <time>2020-12-26T15:46:32Z</time>
      </trkpt>
      <trkpt lat="46.89141" lon="5.90911">
        <ele>962.6</ele>
        <time>2020-12-26T15:46:33Z</time>
      </trkpt>
      <trkpt lat="46.89135" lon="5.9091">
        <ele>962.4</ele>
        <time>2020-12-26T15:46:34Z</time>
      </trkpt>
      <trkpt lat="46.89129" lon="5.90909">
        <ele>962.4</ele>
        <time>2020-12-26T15:46:35Z</time>
      </trkpt>
      <trkpt lat="46.89123" lon="5.90908">
        <ele>962</ele>
        <time>2020-12-26T15:46:36Z</time>
      </trkpt>
      <trkpt lat="46.89117" lon="5.90906">
        <ele>962</ele>
        <time>2020-12-26T15:46:37Z</time>
      </trkpt>
      <trkpt lat="46.89111" lon="5.90904">
        <ele>961.6</ele>
        <time>2020-12-26T15:46:38Z</time>
      </trkpt>
      <trkpt lat="46.89105" lon="5.90903">
        <ele>961.4</ele>
        <time>2020-12-26T15:46:39Z</time>
      </trkpt>
      <trkpt lat="46.89099" lon="5.90901">
        <ele>961.4</ele>
        <time>2020-12-26T15:46:40Z</time>
      </trkpt>
      <trkpt lat="46.89092" lon="5.90899">
        <ele>961</ele>
        <time>2020-12-26T15:46:41Z</time>
      </trkpt>
      <trkpt lat="46.89086" lon="5.90898">
        <ele>960.8</ele>
        <time>2020-12-26T15:46:42Z</time>
      </trkpt>
      <trkpt lat="46.89079" lon="5.90896">
        <ele>960.4</ele>
        <time>2020-12-26T15:46:43Z</time>
      </trkpt>
      <trkpt lat="46.89072" lon="5.90894">
        <ele>960</ele>
        <time>2020-12-26T15:46:44Z</time>
      </trkpt>
      <trkpt lat="46.89065" lon="5.90892">
        <ele>959.6</ele>
        <time>2020-12-26T15:46:45Z</time>
      </trkpt>
      <trkpt lat="46.89058" lon="5.90889">
        <ele>959.2</ele>
        <time>2020-12-26T15:46:46Z</time>
      </trkpt>
      <trkpt lat="46.89051" lon="5.90887">
        <ele>958.8</ele>
        <time>2020-12-26T15:46:47Z</time>
      </trkpt>
      <trkpt lat="46.89044" lon="5.90884">
        <ele>958.6</ele>
        <time>2020-12-26T15:46:48Z</time>
      </trkpt>
      <trkpt lat="46.89037" lon="5.9088">
        <ele>958</ele>
        <time>2020-12-26T15:46:49Z</time>
      </trkpt>
      <trkpt lat="46.8903" lon="5.90876">
        <ele>957.6</ele>
        <time>2020-12-26T15:46:50Z</time>
      </trkpt>
      <trkpt lat="46.89023" lon="5.90872">
        <ele>957.2</ele>
        <time>2020-12-26T15:46:51Z</time>
      </trkpt>
      <trkpt lat="46.89015" lon="5.90867">
        <ele>956.6</ele>
        <time>2020-12-26T15:46:52Z</time>
      </trkpt>
      <trkpt lat="46.89008" lon="5.90862">
        <ele>956</ele>
        <time>2020-12-26T15:46:53Z</time>
      </trkpt>
      <trkpt lat="46.89" lon="5.90856">
        <ele>955.6</ele>
        <time>2020-12-26T15:46:54Z</time>
      </trkpt>
      <trkpt lat="46.88993" lon="5.90851">
        <ele>955.2</ele>
        <time>2020-12-26T15:46:55Z</time>
      </trkpt>
      <trkpt lat="46.88985" lon="5.90845">
        <ele>954.8</ele>
        <time>2020-12-26T15:46:56Z</time>
      </trkpt>
      <trkpt lat="46.88977" lon="5.9084">
        <ele>954.2</ele>
        <time>2020-12-26T15:46:57Z</time>
      </trkpt>
      <trkpt lat="46.88969" lon="5.90835">
        <ele>953.6</ele>
        <time>2020-12-26T15:46:58Z</time>
      </trkpt>
      <trkpt lat="46.88961" lon="5.9083">
        <ele>953</ele>
        <time>2020-12-26T15:46:59Z</time>
      </trkpt>
      <trkpt lat="46.88953" lon="5.90826">
        <ele>952.6</ele>
        <time>2020-12-26T15:47:00Z</time>
      </trkpt>
      <trkpt lat="46.88944" lon="5.90821">
        <ele>952</ele>
        <time>2020-12-26T15:47:01Z</time>
      </trkpt>
      <trkpt lat="46.88936" lon="5.90817">
        <ele>951.4</ele>
        <time>2020-12-26T15:47:02Z</time>
      </trkpt>
      <trkpt lat="46.88927" lon="5.90812">
        <ele>951</ele>
        <time>2020-12-26T15:47:03Z</time>
      </trkpt>
      <trkpt lat="46.88918" lon="5.90809">
        <ele>950.4</ele>
        <time>2020-12-26T15:47:04Z</time>
      </trkpt>
      <trkpt lat="46.88909" lon="5.90806">
        <ele>950</ele>
        <time>2020-12-26T15:47:05Z</time>
      </trkpt>
      <trkpt lat="46.88898" lon="5.90804">
        <ele>949.4</ele>
        <time>2020-12-26T15:47:06Z</time>
      </trkpt>
      <trkpt lat="46.88889" lon="5.90803">
        <ele>949</ele>
        <time>2020-12-26T15:47:07Z</time>
      </trkpt>
      <trkpt lat="46.8888" lon="5.90802">
        <ele>948.4</ele>
        <time>2020-12-26T15:47:08Z</time>
      </trkpt>
      <trkpt lat="46.8887" lon="5.90801">
        <ele>947.6</ele>
        <time>2020-12-26T15:47:09Z</time>
      </trkpt>
      <trkpt lat="46.88861" lon="5.908">
        <ele>947.2</ele>
        <time>2020-12-26T15:47:10Z</time>
      </trkpt>
      <trkpt lat="46.88852" lon="5.90801">
        <ele>946.6</ele>
        <time>2020-12-26T15:47:11Z</time>
      </trkpt>
      <trkpt lat="46.88844" lon="5.90803">
        <ele>946</ele>
        <time>2020-12-26T15:47:12Z</time>
      </trkpt>
      <trkpt lat="46.88834" lon="5.90806">
        <ele>945.4</ele>
        <time>2020-12-26T15:47:13Z</time>
      </trkpt>
      <trkpt lat="46.88825" lon="5.9081">
        <ele>944.8</ele>
        <time>2020-12-26T15:47:14Z</time>
      </trkpt>
      <trkpt lat="46.88817" lon="5.90815">
        <ele>944.2</ele>
        <time>2020-12-26T15:47:15Z</time>
      </trkpt>
      <trkpt lat="46.88809" lon="5.9082">
        <ele>943.6</ele>
        <time>2020-12-26T15:47:16Z</time>
      </trkpt>
      <trkpt lat="46.88801" lon="5.90825">
        <ele>943</ele>
        <time>2020-12-26T15:47:17Z</time>
      </trkpt>
      <trkpt lat="46.88793" lon="5.90831">
        <ele>942.4</ele>
        <time>2020-12-26T15:47:18Z</time>
      </trkpt>
      <trkpt lat="46.88785" lon="5.90838">
        <ele>941.8</ele>
        <time>2020-12-26T15:47:19Z</time>
      </trkpt>
      <trkpt lat="46.88778" lon="5.90847">
        <ele>941</ele>
        <time>2020-12-26T15:47:20Z</time>
      </trkpt>
      <trkpt lat="46.8877" lon="5.90857">
        <ele>940.4</ele>
        <time>2020-12-26T15:47:21Z</time>
      </trkpt>
      <trkpt lat="46.88763" lon="5.90868">
        <ele>940</ele>
        <time>2020-12-26T15:47:22Z</time>
      </trkpt>
      <trkpt lat="46.88757" lon="5.90878">
        <ele>939.4</ele>
        <time>2020-12-26T15:47:23Z</time>
      </trkpt>
      <trkpt lat="46.88751" lon="5.9089">
        <ele>938.8</ele>
        <time>2020-12-26T15:47:24Z</time>
      </trkpt>
      <trkpt lat="46.88745" lon="5.90902">
        <ele>938</ele>
        <time>2020-12-26T15:47:25Z</time>
      </trkpt>
      <trkpt lat="46.88739" lon="5.90915">
        <ele>937.4</ele>
        <time>2020-12-26T15:47:26Z</time>
      </trkpt>
      <trkpt lat="46.88734" lon="5.90928">
        <ele>936.8</ele>
        <time>2020-12-26T15:47:27Z</time>
      </trkpt>
      <trkpt lat="46.88729" lon="5.90941">
        <ele>936.2</ele>
        <time>2020-12-26T15:47:28Z</time>
      </trkpt>
      <trkpt lat="46.88723" lon="5.90953">
        <ele>935.6</ele>
        <time>2020-12-26T15:47:29Z</time>
      </trkpt>
      <trkpt lat="46.88718" lon="5.90966">
        <ele>935</ele>
        <time>2020-12-26T15:47:30Z</time>
      </trkpt>
      <trkpt lat="46.88713" lon="5.90979">
        <ele>934.4</ele>
        <time>2020-12-26T15:47:31Z</time>
      </trkpt>
      <trkpt lat="46.88707" lon="5.90992">
        <ele>933.6</ele>
        <time>2020-12-26T15:47:32Z</time>
      </trkpt>
      <trkpt lat="46.88702" lon="5.91005">
        <ele>933</ele>
        <time>2020-12-26T15:47:33Z</time>
      </trkpt>
      <trkpt lat="46.88697" lon="5.91018">
        <ele>932.4</ele>
        <time>2020-12-26T15:47:34Z</time>
      </trkpt>
      <trkpt lat="46.88691" lon="5.91031">
        <ele>931.6</ele>
        <time>2020-12-26T15:47:35Z</time>
      </trkpt>
      <trkpt lat="46.88686" lon="5.91044">
        <ele>931</ele>
        <time>2020-12-26T15:47:36Z</time>
      </trkpt>
      <trkpt lat="46.8868" lon="5.91057">
        <ele>930.4</ele>
        <time>2020-12-26T15:47:37Z</time>
      </trkpt>
      <trkpt lat="46.88674" lon="5.9107">
        <ele>929.8</ele>
        <time>2020-12-26T15:47:38Z</time>
      </trkpt>
      <trkpt lat="46.88669" lon="5.91082">
        <ele>929</ele>
        <time>2020-12-26T15:47:39Z</time>
      </trkpt>
      <trkpt lat="46.88664" lon="5.91095">
        <ele>928.4</ele>
        <time>2020-12-26T15:47:40Z</time>
      </trkpt>
      <trkpt lat="46.88659" lon="5.91106">
        <ele>927.6</ele>
        <time>2020-12-26T15:47:41Z</time>
      </trkpt>
      <trkpt lat="46.88655" lon="5.91116">
        <ele>927</ele>
        <time>2020-12-26T15:47:42Z</time>
      </trkpt>
      <trkpt lat="46.8865" lon="5.91126">
        <ele>926.4</ele>
        <time>2020-12-26T15:47:43Z</time>
      </trkpt>
      <trkpt lat="46.88646" lon="5.91135">
        <ele>926</ele>
        <time>2020-12-26T15:47:44Z</time>
      </trkpt>
      <trkpt lat="46.88642" lon="5.91142">
        <ele>925.6</ele>
        <time>2020-12-26T15:47:45Z</time>
      </trkpt>
      <trkpt lat="46.88638" lon="5.91147">
        <ele>925.2</ele>
        <time>2020-12-26T15:47:46Z</time>
      </trkpt>
      <trkpt lat="46.88634" lon="5.91151">
        <ele>924.6</ele>
        <time>2020-12-26T15:47:47Z</time>
      </trkpt>
      <trkpt lat="46.88629" lon="5.91154">
        <ele>924.2</ele>
        <time>2020-12-26T15:47:48Z</time>
      </trkpt>
      <trkpt lat="46.88623" lon="5.91155">
        <ele>923.8</ele>
        <time>2020-12-26T15:47:49Z</time>
      </trkpt>
      <trkpt lat="46.88618" lon="5.91155">
        <ele>923.2</ele>
        <time>2020-12-26T15:47:50Z</time>
      </trkpt>
      <trkpt lat="46.88612" lon="5.91154">
        <ele>922.8</ele>
        <time>2020-12-26T15:47:51Z</time>
      </trkpt>
      <trkpt lat="46.88607" lon="5.91149">
        <ele>922.4</ele>
        <time>2020-12-26T15:47:52Z</time>
      </trkpt>
      <trkpt lat="46.88603" lon="5.91143">
        <ele>921.8</ele>
        <time>2020-12-26T15:47:53Z</time>
      </trkpt>
      <trkpt lat="46.886" lon="5.91136">
        <ele>921.4</ele>
        <time>2020-12-26T15:47:54Z</time>
      </trkpt>
      <trkpt lat="46.88598" lon="5.91128">
        <ele>921</ele>
        <time>2020-12-26T15:47:55Z</time>
      </trkpt>
      <trkpt lat="46.88597" lon="5.91119">
        <ele>920.6</ele>
        <time>2020-12-26T15:47:56Z</time>
      </trkpt>
      <trkpt lat="46.88598" lon="5.91111">
        <ele>920.4</ele>
        <time>2020-12-26T15:47:57Z</time>
      </trkpt>
      <trkpt lat="46.88599" lon="5.91102">
        <ele>920</ele>
        <time>2020-12-26T15:47:58Z</time>
      </trkpt>
      <trkpt lat="46.886" lon="5.91094">
        <ele>919.6</ele>
        <time>2020-12-26T15:47:59Z</time>
      </trkpt>
      <trkpt lat="46.88602" lon="5.91084">
        <ele>919.2</ele>
        <time>2020-12-26T15:48:00Z</time>
      </trkpt>
      <trkpt lat="46.88604" lon="5.91074">
        <ele>918.8</ele>
        <time>2020-12-26T15:48:01Z</time>
      </trkpt>
      <trkpt lat="46.88607" lon="5.91065">
        <ele>918.2</ele>
        <time>2020-12-26T15:48:02Z</time>
      </trkpt>
      <trkpt lat="46.88609" lon="5.91055">
        <ele>917.8</ele>
        <time>2020-12-26T15:48:03Z</time>
      </trkpt>
      <trkpt lat="46.88611" lon="5.91045">
        <ele>917.6</ele>
        <time>2020-12-26T15:48:04Z</time>
      </trkpt>
      <trkpt lat="46.88613" lon="5.91035">
        <ele>917.2</ele>
        <time>2020-12-26T15:48:05Z</time>
      </trkpt>
      <trkpt lat="46.88615" lon="5.91025">
        <ele>916.8</ele>
        <time>2020-12-26T15:48:06Z</time>
      </trkpt>
      <trkpt lat="46.88617" lon="5.91015">
        <ele>916.6</ele>
        <time>2020-12-26T15:48:07Z</time>
      </trkpt>
      <trkpt lat="46.8862" lon="5.91005">
        <ele>916.4</ele>
        <time>2020-12-26T15:48:08Z</time>
      </trkpt>
      <trkpt lat="46.88623" lon="5.90995">
        <ele>916</ele>
        <time>2020-12-26T15:48:09Z</time>
      </trkpt>
      <trkpt lat="46.88626" lon="5.90985">
        <ele>915.6</ele>
        <time>2020-12-26T15:48:10Z</time>
      </trkpt>
      <trkpt lat="46.88628" lon="5.90975">
        <ele>915.2</ele>
        <time>2020-12-26T15:48:11Z</time>
      </trkpt>
      <trkpt lat="46.8863" lon="5.90964">
        <ele>915</ele>
        <time>2020-12-26T15:48:12Z</time>
      </trkpt>
      <trkpt lat="46.88632" lon="5.90954">
        <ele>914.6</ele>
        <time>2020-12-26T15:48:13Z</time>
      </trkpt>
      <trkpt lat="46.88634" lon="5.90943">
        <ele>914.4</ele>
        <time>2020-12-26T15:48:14Z</time>
      </trkpt>
      <trkpt lat="46.88636" lon="5.90932">
        <ele>914</ele>
        <time>2020-12-26T15:48:15Z</time>
      </trkpt>
      <trkpt lat="46.88639" lon="5.90923">
        <ele>913.8</ele>
        <time>2020-12-26T15:48:16Z</time>
      </trkpt>
      <trkpt lat="46.8864" lon="5.90914">
        <ele>913.4</ele>
        <time>2020-12-26T15:48:17Z</time>
      </trkpt>
      <trkpt lat="46.88641" lon="5.90906">
        <ele>913.2</ele>
        <time>2020-12-26T15:48:18Z</time>
      </trkpt>
      <trkpt lat="46.88642" lon="5.90899">
        <ele>913</ele>
        <time>2020-12-26T15:48:19Z</time>
      </trkpt>
      <trkpt lat="46.88642" lon="5.90891">
        <ele>912.8</ele>
        <time>2020-12-26T15:48:20Z</time>
      </trkpt>
      <trkpt lat="46.88641" lon="5.90884">
        <ele>912.8</ele>
        <time>2020-12-26T15:48:21Z</time>
      </trkpt>
      <trkpt lat="46.88639" lon="5.90875">
        <ele>912.4</ele>
        <time>2020-12-26T15:48:22Z</time>
      </trkpt>
      <trkpt lat="46.88638" lon="5.90865">
        <ele>912.2</ele>
        <time>2020-12-26T15:48:23Z</time>
      </trkpt>
      <trkpt lat="46.88635" lon="5.90857">
        <ele>911.8</ele>
        <time>2020-12-26T15:48:24Z</time>
      </trkpt>
      <trkpt lat="46.88631" lon="5.90847">
        <ele>911.6</ele>
        <time>2020-12-26T15:48:25Z</time>
      </trkpt>
      <trkpt lat="46.88627" lon="5.90838">
        <ele>911.6</ele>
        <time>2020-12-26T15:48:26Z</time>
      </trkpt>
      <trkpt lat="46.88623" lon="5.9083">
        <ele>911</ele>
        <time>2020-12-26T15:48:27Z</time>
      </trkpt>
      <trkpt lat="46.88618" lon="5.90824">
        <ele>910.8</ele>
        <time>2020-12-26T15:48:28Z</time>
      </trkpt>
      <trkpt lat="46.88612" lon="5.9082">
        <ele>910.6</ele>
        <time>2020-12-26T15:48:29Z</time>
      </trkpt>
      <trkpt lat="46.88606" lon="5.90818">
        <ele>910.2</ele>
        <time>2020-12-26T15:48:30Z</time>
      </trkpt>
      <trkpt lat="46.88599" lon="5.90817">
        <ele>909.6</ele>
        <time>2020-12-26T15:48:31Z</time>
      </trkpt>
      <trkpt lat="46.88592" lon="5.90817">
        <ele>909.2</ele>
        <time>2020-12-26T15:48:32Z</time>
      </trkpt>
      <trkpt lat="46.88585" lon="5.90816">
        <ele>908.8</ele>
        <time>2020-12-26T15:48:33Z</time>
      </trkpt>
      <trkpt lat="46.88578" lon="5.90817">
        <ele>908.6</ele>
        <time>2020-12-26T15:48:34Z</time>
      </trkpt>
      <trkpt lat="46.88571" lon="5.90817">
        <ele>908.2</ele>
        <time>2020-12-26T15:48:35Z</time>
      </trkpt>
      <trkpt lat="46.88564" lon="5.90817">
        <ele>908.2</ele>
        <time>2020-12-26T15:48:36Z</time>
      </trkpt>
      <trkpt lat="46.88558" lon="5.90816">
        <ele>907.8</ele>
        <time>2020-12-26T15:48:37Z</time>
      </trkpt>
      <trkpt lat="46.88552" lon="5.90817">
        <ele>907.8</ele>
        <time>2020-12-26T15:48:38Z</time>
      </trkpt>
      <trkpt lat="46.88545" lon="5.90816">
        <ele>907.8</ele>
        <time>2020-12-26T15:48:39Z</time>
      </trkpt>
      <trkpt lat="46.88539" lon="5.90816">
        <ele>907.8</ele>
        <time>2020-12-26T15:48:40Z</time>
      </trkpt>
      <trkpt lat="46.88533" lon="5.90816">
        <ele>907.6</ele>
        <time>2020-12-26T15:48:41Z</time>
      </trkpt>
      <trkpt lat="46.88527" lon="5.90815">
        <ele>907.6</ele>
        <time>2020-12-26T15:48:42Z</time>
      </trkpt>
      <trkpt lat="46.88521" lon="5.90813">
        <ele>907.6</ele>
        <time>2020-12-26T15:48:43Z</time>
      </trkpt>
      <trkpt lat="46.88513" lon="5.9081">
        <ele>907.4</ele>
        <time>2020-12-26T15:48:44Z</time>
      </trkpt>
      <trkpt lat="46.88506" lon="5.90807">
        <ele>907.4</ele>
        <time>2020-12-26T15:48:45Z</time>
      </trkpt>
      <trkpt lat="46.885" lon="5.90803">
        <ele>907.4</ele>
        <time>2020-12-26T15:48:46Z</time>
      </trkpt>
      <trkpt lat="46.88494" lon="5.90797">
        <ele>907.2</ele>
        <time>2020-12-26T15:48:47Z</time>
      </trkpt>
      <trkpt lat="46.88488" lon="5.90792">
        <ele>907.2</ele>
        <time>2020-12-26T15:48:48Z</time>
      </trkpt>
      <trkpt lat="46.88483" lon="5.90785">
        <ele>906.8</ele>
        <time>2020-12-26T15:48:49Z</time>
      </trkpt>
      <trkpt lat="46.88477" lon="5.90779">
        <ele>906.8</ele>
        <time>2020-12-26T15:48:50Z</time>
      </trkpt>
      <trkpt lat="46.8847" lon="5.90774">
        <ele>906.6</ele>
        <time>2020-12-26T15:48:51Z</time>
      </trkpt>
      <trkpt lat="46.88464" lon="5.90771">
        <ele>906.6</ele>
        <time>2020-12-26T15:48:52Z</time>
      </trkpt>
      <trkpt lat="46.88456" lon="5.90769">
        <ele>906.6</ele>
        <time>2020-12-26T15:48:53Z</time>
      </trkpt>
      <trkpt lat="46.88449" lon="5.90768">
        <ele>906.6</ele>
        <time>2020-12-26T15:48:54Z</time>
      </trkpt>
      <trkpt lat="46.88443" lon="5.90766">
        <ele>906.6</ele>
        <time>2020-12-26T15:48:55Z</time>
      </trkpt>
      <trkpt lat="46.88436" lon="5.90766">
        <ele>906.6</ele>
        <time>2020-12-26T15:48:56Z</time>
      </trkpt>
      <trkpt lat="46.88429" lon="5.90765">
        <ele>906.4</ele>
        <time>2020-12-26T15:48:57Z</time>
      </trkpt>
      <trkpt lat="46.88422" lon="5.90764">
        <ele>906</ele>
        <time>2020-12-26T15:48:58Z</time>
      </trkpt>
      <trkpt lat="46.88414" lon="5.90762">
        <ele>906</ele>
        <time>2020-12-26T15:48:59Z</time>
      </trkpt>
      <trkpt lat="46.88407" lon="5.9076">
        <ele>905.8</ele>
        <time>2020-12-26T15:49:00Z</time>
      </trkpt>
      <trkpt lat="46.884" lon="5.90758">
        <ele>905.8</ele>
        <time>2020-12-26T15:49:01Z</time>
      </trkpt>
      <trkpt lat="46.88393" lon="5.90756">
        <ele>905.4</ele>
        <time>2020-12-26T15:49:02Z</time>
      </trkpt>
      <trkpt lat="46.88386" lon="5.90754">
        <ele>905</ele>
        <time>2020-12-26T15:49:03Z</time>
      </trkpt>
      <trkpt lat="46.88378" lon="5.90752">
        <ele>904.6</ele>
        <time>2020-12-26T15:49:04Z</time>
      </trkpt>
      <trkpt lat="46.8837" lon="5.9075">
        <ele>904.4</ele>
        <time>2020-12-26T15:49:05Z</time>
      </trkpt>
      <trkpt lat="46.88362" lon="5.90747">
        <ele>903.8</ele>
        <time>2020-12-26T15:49:06Z</time>
      </trkpt>
      <trkpt lat="46.88354" lon="5.90745">
        <ele>903.4</ele>
        <time>2020-12-26T15:49:07Z</time>
      </trkpt>
      <trkpt lat="46.88346" lon="5.90742">
        <ele>903</ele>
        <time>2020-12-26T15:49:08Z</time>
      </trkpt>
      <trkpt lat="46.88337" lon="5.90739">
        <ele>902.4</ele>
        <time>2020-12-26T15:49:09Z</time>
      </trkpt>
      <trkpt lat="46.88328" lon="5.90736">
        <ele>902</ele>
        <time>2020-12-26T15:49:10Z</time>
      </trkpt>
      <trkpt lat="46.88319" lon="5.90732">
        <ele>901.2</ele>
        <time>2020-12-26T15:49:11Z</time>
      </trkpt>
      <trkpt lat="46.88309" lon="5.90723">
        <ele>900.8</ele>
        <time>2020-12-26T15:49:12Z</time>
      </trkpt>
      <trkpt lat="46.88298" lon="5.90718">
        <ele>900.2</ele>
        <time>2020-12-26T15:49:13Z</time>
      </trkpt>
      <trkpt lat="46.88288" lon="5.90714">
        <ele>899.6</ele>
        <time>2020-12-26T15:49:14Z</time>
      </trkpt>
      <trkpt lat="46.88278" lon="5.90707">
        <ele>899.2</ele>
        <time>2020-12-26T15:49:15Z</time>
      </trkpt>
      <trkpt lat="46.88269" lon="5.90699">
        <ele>898.6</ele>
        <time>2020-12-26T15:49:16Z</time>
      </trkpt>
      <trkpt lat="46.8826" lon="5.90694">
        <ele>898</ele>
        <time>2020-12-26T15:49:17Z</time>
      </trkpt>
      <trkpt lat="46.8825" lon="5.90688">
        <ele>897.6</ele>
        <time>2020-12-26T15:49:18Z</time>
      </trkpt>
      <trkpt lat="46.88241" lon="5.90683">
        <ele>897</ele>
        <time>2020-12-26T15:49:19Z</time>
      </trkpt>
      <trkpt lat="46.88232" lon="5.90679">
        <ele>896.6</ele>
        <time>2020-12-26T15:49:20Z</time>
      </trkpt>
      <trkpt lat="46.88222" lon="5.90673">
        <ele>896</ele>
        <time>2020-12-26T15:49:21Z</time>
      </trkpt>
      <trkpt lat="46.88213" lon="5.90669">
        <ele>895.4</ele>
        <time>2020-12-26T15:49:22Z</time>
      </trkpt>
      <trkpt lat="46.88204" lon="5.90664">
        <ele>895</ele>
        <time>2020-12-26T15:49:23Z</time>
      </trkpt>
      <trkpt lat="46.88195" lon="5.90659">
        <ele>894.4</ele>
        <time>2020-12-26T15:49:24Z</time>
      </trkpt>
      <trkpt lat="46.88186" lon="5.90654">
        <ele>894</ele>
        <time>2020-12-26T15:49:25Z</time>
      </trkpt>
      <trkpt lat="46.88176" lon="5.9065">
        <ele>893.4</ele>
        <time>2020-12-26T15:49:26Z</time>
      </trkpt>
      <trkpt lat="46.88166" lon="5.9065">
        <ele>893</ele>
        <time>2020-12-26T15:49:27Z</time>
      </trkpt>
      <trkpt lat="46.88156" lon="5.9065">
        <ele>892.4</ele>
        <time>2020-12-26T15:49:28Z</time>
      </trkpt>
      <trkpt lat="46.88147" lon="5.9065">
        <ele>891.8</ele>
        <time>2020-12-26T15:49:29Z</time>
      </trkpt>
      <trkpt lat="46.88138" lon="5.9065">
        <ele>891.4</ele>
        <time>2020-12-26T15:49:30Z</time>
      </trkpt>
      <trkpt lat="46.88128" lon="5.9065">
        <ele>890.8</ele>
        <time>2020-12-26T15:49:31Z</time>
      </trkpt>
      <trkpt lat="46.88118" lon="5.90651">
        <ele>890.2</ele>
        <time>2020-12-26T15:49:32Z</time>
      </trkpt>
      <trkpt lat="46.88107" lon="5.9065">
        <ele>889.6</ele>
        <time>2020-12-26T15:49:33Z</time>
      </trkpt>
      <trkpt lat="46.88097" lon="5.90651">
        <ele>889</ele>
        <time>2020-12-26T15:49:34Z</time>
      </trkpt>
      <trkpt lat="46.88087" lon="5.90651">
        <ele>888.4</ele>
        <time>2020-12-26T15:49:35Z</time>
      </trkpt>
      <trkpt lat="46.88076" lon="5.90651">
        <ele>887.6</ele>
        <time>2020-12-26T15:49:36Z</time>
      </trkpt>
      <trkpt lat="46.88066" lon="5.90651">
        <ele>887.2</ele>
        <time>2020-12-26T15:49:37Z</time>
      </trkpt>
      <trkpt lat="46.88055" lon="5.90648">
        <ele>886.8</ele>
        <time>2020-12-26T15:49:38Z</time>
      </trkpt>
      <trkpt lat="46.88045" lon="5.90647">
        <ele>886.2</ele>
        <time>2020-12-26T15:49:39Z</time>
      </trkpt>
      <trkpt lat="46.88034" lon="5.90646">
        <ele>885.8</ele>
        <time>2020-12-26T15:49:40Z</time>
      </trkpt>
      <trkpt lat="46.88025" lon="5.90646">
        <ele>885.4</ele>
        <time>2020-12-26T15:49:41Z</time>
      </trkpt>
      <trkpt lat="46.88015" lon="5.90645">
        <ele>885</ele>
        <time>2020-12-26T15:49:42Z</time>
      </trkpt>
      <trkpt lat="46.88006" lon="5.90646">
        <ele>884.8</ele>
        <time>2020-12-26T15:49:43Z</time>
      </trkpt>
      <trkpt lat="46.87996" lon="5.90646">
        <ele>884.4</ele>
        <time>2020-12-26T15:49:44Z</time>
      </trkpt>
      <trkpt lat="46.87986" lon="5.90647">
        <ele>884</ele>
        <time>2020-12-26T15:49:45Z</time>
      </trkpt>
      <trkpt lat="46.87977" lon="5.90648">
        <ele>884</ele>
        <time>2020-12-26T15:49:46Z</time>
      </trkpt>
      <trkpt lat="46.87968" lon="5.90648">
        <ele>883.8</ele>
        <time>2020-12-26T15:49:47Z</time>
      </trkpt>
      <trkpt lat="46.87959" lon="5.90648">
        <ele>883.8</ele>
        <time>2020-12-26T15:49:48Z</time>
      </trkpt>
      <trkpt lat="46.8795" lon="5.90647">
        <ele>883.4</ele>
        <time>2020-12-26T15:49:49Z</time>
      </trkpt>
      <trkpt lat="46.87941" lon="5.90645">
        <ele>883.4</ele>
        <time>2020-12-26T15:49:50Z</time>
      </trkpt>
      <trkpt lat="46.87932" lon="5.90643">
        <ele>883</ele>
        <time>2020-12-26T15:49:51Z</time>
      </trkpt>
      <trkpt lat="46.87924" lon="5.90639">
        <ele>883</ele>
        <time>2020-12-26T15:49:52Z</time>
      </trkpt>
      <trkpt lat="46.87916" lon="5.90635">
        <ele>882.8</ele>
        <time>2020-12-26T15:49:53Z</time>
      </trkpt>
      <trkpt lat="46.87908" lon="5.90629">
        <ele>882.4</ele>
        <time>2020-12-26T15:49:54Z</time>
      </trkpt>
      <trkpt lat="46.879" lon="5.90623">
        <ele>882.2</ele>
        <time>2020-12-26T15:49:55Z</time>
      </trkpt>
      <trkpt lat="46.87892" lon="5.90616">
        <ele>881.8</ele>
        <time>2020-12-26T15:49:56Z</time>
      </trkpt>
      <trkpt lat="46.87884" lon="5.90607">
        <ele>881.2</ele>
        <time>2020-12-26T15:49:57Z</time>
      </trkpt>
      <trkpt lat="46.87877" lon="5.90599">
        <ele>880.8</ele>
        <time>2020-12-26T15:49:58Z</time>
      </trkpt>
      <trkpt lat="46.87868" lon="5.90591">
        <ele>880.2</ele>
        <time>2020-12-26T15:49:59Z</time>
      </trkpt>
      <trkpt lat="46.8786" lon="5.90583">
        <ele>879.6</ele>
        <time>2020-12-26T15:50:00Z</time>
      </trkpt>
      <trkpt lat="46.87851" lon="5.90576">
        <ele>879</ele>
        <time>2020-12-26T15:50:01Z</time>
      </trkpt>
      <trkpt lat="46.87842" lon="5.90569">
        <ele>878.6</ele>
        <time>2020-12-26T15:50:02Z</time>
      </trkpt>
      <trkpt lat="46.87833" lon="5.90563">
        <ele>878</ele>
        <time>2020-12-26T15:50:03Z</time>
      </trkpt>
      <trkpt lat="46.87823" lon="5.90556">
        <ele>877.4</ele>
        <time>2020-12-26T15:50:04Z</time>
      </trkpt>
      <trkpt lat="46.87814" lon="5.9055">
        <ele>876.6</ele>
        <time>2020-12-26T15:50:05Z</time>
      </trkpt>
      <trkpt lat="46.87804" lon="5.90544">
        <ele>876</ele>
        <time>2020-12-26T15:50:06Z</time>
      </trkpt>
      <trkpt lat="46.87796" lon="5.90538">
        <ele>875.4</ele>
        <time>2020-12-26T15:50:07Z</time>
      </trkpt>
      <trkpt lat="46.87787" lon="5.90532">
        <ele>874.8</ele>
        <time>2020-12-26T15:50:08Z</time>
      </trkpt>
      <trkpt lat="46.87779" lon="5.90526">
        <ele>874.2</ele>
        <time>2020-12-26T15:50:09Z</time>
      </trkpt>
      <trkpt lat="46.8777" lon="5.90519">
        <ele>873.4</ele>
        <time>2020-12-26T15:50:10Z</time>
      </trkpt>
      <trkpt lat="46.87762" lon="5.9051">
        <ele>872.8</ele>
        <time>2020-12-26T15:50:11Z</time>
      </trkpt>
      <trkpt lat="46.87755" lon="5.90501">
        <ele>872.2</ele>
        <time>2020-12-26T15:50:12Z</time>
      </trkpt>
      <trkpt lat="46.87748" lon="5.90491">
        <ele>871.6</ele>
        <time>2020-12-26T15:50:13Z</time>
      </trkpt>
      <trkpt lat="46.8774" lon="5.9048">
        <ele>871.2</ele>
        <time>2020-12-26T15:50:14Z</time>
      </trkpt>
      <trkpt lat="46.87733" lon="5.9047">
        <ele>870.6</ele>
        <time>2020-12-26T15:50:15Z</time>
      </trkpt>
      <trkpt lat="46.87725" lon="5.90459">
        <ele>870</ele>
        <time>2020-12-26T15:50:16Z</time>
      </trkpt>
      <trkpt lat="46.87718" lon="5.90449">
        <ele>869.4</ele>
        <time>2020-12-26T15:50:17Z</time>
      </trkpt>
      <trkpt lat="46.8771" lon="5.90439">
        <ele>868.6</ele>
        <time>2020-12-26T15:50:18Z</time>
      </trkpt>
      <trkpt lat="46.87702" lon="5.90429">
        <ele>868</ele>
        <time>2020-12-26T15:50:19Z</time>
      </trkpt>
      <trkpt lat="46.87694" lon="5.90419">
        <ele>867.6</ele>
        <time>2020-12-26T15:50:20Z</time>
      </trkpt>
      <trkpt lat="46.87685" lon="5.90409">
        <ele>867</ele>
        <time>2020-12-26T15:50:21Z</time>
      </trkpt>
      <trkpt lat="46.87677" lon="5.904">
        <ele>866.4</ele>
        <time>2020-12-26T15:50:22Z</time>
      </trkpt>
      <trkpt lat="46.87668" lon="5.90392">
        <ele>865.8</ele>
        <time>2020-12-26T15:50:23Z</time>
      </trkpt>
      <trkpt lat="46.87658" lon="5.90384">
        <ele>865.2</ele>
        <time>2020-12-26T15:50:24Z</time>
      </trkpt>
      <trkpt lat="46.87649" lon="5.90376">
        <ele>864.6</ele>
        <time>2020-12-26T15:50:25Z</time>
      </trkpt>
      <trkpt lat="46.87639" lon="5.90368">
        <ele>864</ele>
        <time>2020-12-26T15:50:26Z</time>
      </trkpt>
      <trkpt lat="46.8763" lon="5.90361">
        <ele>863.2</ele>
        <time>2020-12-26T15:50:27Z</time>
      </trkpt>
      <trkpt lat="46.8762" lon="5.90354">
        <ele>862.6</ele>
        <time>2020-12-26T15:50:28Z</time>
      </trkpt>
      <trkpt lat="46.8761" lon="5.90347">
        <ele>862</ele>
        <time>2020-12-26T15:50:29Z</time>
      </trkpt>
      <trkpt lat="46.876" lon="5.9034">
        <ele>861.4</ele>
        <time>2020-12-26T15:50:30Z</time>
      </trkpt>
      <trkpt lat="46.8759" lon="5.90333">
        <ele>860.8</ele>
        <time>2020-12-26T15:50:31Z</time>
      </trkpt>
      <trkpt lat="46.8758" lon="5.90326">
        <ele>860.2</ele>
        <time>2020-12-26T15:50:32Z</time>
      </trkpt>
      <trkpt lat="46.8757" lon="5.90319">
        <ele>859.4</ele>
        <time>2020-12-26T15:50:33Z</time>
      </trkpt>
      <trkpt lat="46.8756" lon="5.90313">
        <ele>858.6</ele>
        <time>2020-12-26T15:50:34Z</time>
      </trkpt>
      <trkpt lat="46.8755" lon="5.90306">
        <ele>858</ele>
        <time>2020-12-26T15:50:35Z</time>
      </trkpt>
      <trkpt lat="46.8754" lon="5.90299">
        <ele>857.4</ele>
        <time>2020-12-26T15:50:36Z</time>
      </trkpt>
      <trkpt lat="46.8753" lon="5.90292">
        <ele>856.8</ele>
        <time>2020-12-26T15:50:37Z</time>
      </trkpt>
      <trkpt lat="46.87519" lon="5.90285">
        <ele>856</ele>
        <time>2020-12-26T15:50:38Z</time>
      </trkpt>
      <trkpt lat="46.87509" lon="5.90278">
        <ele>855.4</ele>
        <time>2020-12-26T15:50:39Z</time>
      </trkpt>
      <trkpt lat="46.87499" lon="5.90271">
        <ele>854.8</ele>
        <time>2020-12-26T15:50:40Z</time>
      </trkpt>
      <trkpt lat="46.87489" lon="5.90263">
        <ele>854.2</ele>
        <time>2020-12-26T15:50:41Z</time>
      </trkpt>
      <trkpt lat="46.87479" lon="5.90256">
        <ele>853.6</ele>
        <time>2020-12-26T15:50:42Z</time>
      </trkpt>
      <trkpt lat="46.87469" lon="5.90249">
        <ele>852.8</ele>
        <time>2020-12-26T15:50:43Z</time>
      </trkpt>
      <trkpt lat="46.87459" lon="5.9024">
        <ele>852.2</ele>
        <time>2020-12-26T15:50:44Z</time>
      </trkpt>
      <trkpt lat="46.87449" lon="5.90231">
        <ele>851.6</ele>
        <time>2020-12-26T15:50:45Z</time>
      </trkpt>
      <trkpt lat="46.8744" lon="5.90221">
        <ele>850.8</ele>
        <time>2020-12-26T15:50:46Z</time>
      </trkpt>
      <trkpt lat="46.8743" lon="5.90212">
        <ele>850.2</ele>
        <time>2020-12-26T15:50:47Z</time>
      </trkpt>
      <trkpt lat="46.87421" lon="5.90203">
        <ele>849.6</ele>
        <time>2020-12-26T15:50:48Z</time>
      </trkpt>
      <trkpt lat="46.87412" lon="5.90195">
        <ele>849</ele>
        <time>2020-12-26T15:50:49Z</time>
      </trkpt>
      <trkpt lat="46.87403" lon="5.90187">
        <ele>848.4</ele>
        <time>2020-12-26T15:50:50Z</time>
      </trkpt>
      <trkpt lat="46.87393" lon="5.9018">
        <ele>847.8</ele>
        <time>2020-12-26T15:50:51Z</time>
      </trkpt>
      <trkpt lat="46.87383" lon="5.90172">
        <ele>847.2</ele>
        <time>2020-12-26T15:50:52Z</time>
      </trkpt>
      <trkpt lat="46.87373" lon="5.90165">
        <ele>846.4</ele>
        <time>2020-12-26T15:50:53Z</time>
      </trkpt>
      <trkpt lat="46.87363" lon="5.90158">
        <ele>845.8</ele>
        <time>2020-12-26T15:50:54Z</time>
      </trkpt>
      <trkpt lat="46.87353" lon="5.90152">
        <ele>845.2</ele>
        <time>2020-12-26T15:50:55Z</time>
      </trkpt>
      <trkpt lat="46.87342" lon="5.90148">
        <ele>844.4</ele>
        <time>2020-12-26T15:50:56Z</time>
      </trkpt>
      <trkpt lat="46.87332" lon="5.90143">
        <ele>843.8</ele>
        <time>2020-12-26T15:50:57Z</time>
      </trkpt>
      <trkpt lat="46.87321" lon="5.90137">
        <ele>843</ele>
        <time>2020-12-26T15:50:58Z</time>
      </trkpt>
      <trkpt lat="46.87312" lon="5.90132">
        <ele>842.4</ele>
        <time>2020-12-26T15:50:59Z</time>
      </trkpt>
      <trkpt lat="46.87302" lon="5.90128">
        <ele>841.6</ele>
        <time>2020-12-26T15:51:00Z</time>
      </trkpt>
      <trkpt lat="46.87292" lon="5.90124">
        <ele>841</ele>
        <time>2020-12-26T15:51:01Z</time>
      </trkpt>
      <trkpt lat="46.87282" lon="5.9012">
        <ele>840.4</ele>
        <time>2020-12-26T15:51:02Z</time>
      </trkpt>
      <trkpt lat="46.87272" lon="5.90114">
        <ele>839.6</ele>
        <time>2020-12-26T15:51:03Z</time>
      </trkpt>
      <trkpt lat="46.87262" lon="5.9011">
        <ele>839</ele>
        <time>2020-12-26T15:51:04Z</time>
      </trkpt>
      <trkpt lat="46.87252" lon="5.90104">
        <ele>838.4</ele>
        <time>2020-12-26T15:51:05Z</time>
      </trkpt>
      <trkpt lat="46.87242" lon="5.90099">
        <ele>837.8</ele>
        <time>2020-12-26T15:51:06Z</time>
      </trkpt>
      <trkpt lat="46.87234" lon="5.90094">
        <ele>837.4</ele>
        <time>2020-12-26T15:51:07Z</time>
      </trkpt>
      <trkpt lat="46.87225" lon="5.9009">
        <ele>837</ele>
        <time>2020-12-26T15:51:08Z</time>
      </trkpt>
      <trkpt lat="46.87217" lon="5.90087">
        <ele>836.6</ele>
        <time>2020-12-26T15:51:09Z</time>
      </trkpt>
      <trkpt lat="46.87209" lon="5.90084">
        <ele>836</ele>
        <time>2020-12-26T15:51:10Z</time>
      </trkpt>
      <trkpt lat="46.872" lon="5.90083">
        <ele>835.6</ele>
        <time>2020-12-26T15:51:11Z</time>
      </trkpt>
      <trkpt lat="46.87192" lon="5.90083">
        <ele>835</ele>
        <time>2020-12-26T15:51:12Z</time>
      </trkpt>
      <trkpt lat="46.87183" lon="5.90084">
        <ele>834.2</ele>
        <time>2020-12-26T15:51:13Z</time>
      </trkpt>
      <trkpt lat="46.87175" lon="5.90085">
        <ele>833.8</ele>
        <time>2020-12-26T15:51:14Z</time>
      </trkpt>
      <trkpt lat="46.87166" lon="5.90087">
        <ele>833.2</ele>
        <time>2020-12-26T15:51:15Z</time>
      </trkpt>
      <trkpt lat="46.87159" lon="5.90088">
        <ele>832.8</ele>
        <time>2020-12-26T15:51:16Z</time>
      </trkpt>
      <trkpt lat="46.87151" lon="5.9009">
        <ele>832.2</ele>
        <time>2020-12-26T15:51:17Z</time>
      </trkpt>
      <trkpt lat="46.87144" lon="5.90092">
        <ele>831.6</ele>
        <time>2020-12-26T15:51:18Z</time>
      </trkpt>
      <trkpt lat="46.87138" lon="5.90094">
        <ele>831</ele>
        <time>2020-12-26T15:51:19Z</time>
      </trkpt>
      <trkpt lat="46.87132" lon="5.90096">
        <ele>830.6</ele>
        <time>2020-12-26T15:51:20Z</time>
      </trkpt>
      <trkpt lat="46.87126" lon="5.90097">
        <ele>830.2</ele>
        <time>2020-12-26T15:51:21Z</time>
      </trkpt>
      <trkpt lat="46.87121" lon="5.90097">
        <ele>829.6</ele>
        <time>2020-12-26T15:51:22Z</time>
      </trkpt>
      <trkpt lat="46.87116" lon="5.90096">
        <ele>829.2</ele>
        <time>2020-12-26T15:51:23Z</time>
      </trkpt>
      <trkpt lat="46.87111" lon="5.90093">
        <ele>828.6</ele>
        <time>2020-12-26T15:51:24Z</time>
      </trkpt>
      <trkpt lat="46.87107" lon="5.90087">
        <ele>828.2</ele>
        <time>2020-12-26T15:51:25Z</time>
      </trkpt>
      <trkpt lat="46.87105" lon="5.90079">
        <ele>828</ele>
        <time>2020-12-26T15:51:26Z</time>
      </trkpt>
      <trkpt lat="46.87103" lon="5.90071">
        <ele>827.6</ele>
        <time>2020-12-26T15:51:27Z</time>
      </trkpt>
      <trkpt lat="46.87101" lon="5.90062">
        <ele>827.2</ele>
        <time>2020-12-26T15:51:28Z</time>
      </trkpt>
      <trkpt lat="46.87099" lon="5.90053">
        <ele>826.6</ele>
        <time>2020-12-26T15:51:29Z</time>
      </trkpt>
      <trkpt lat="46.87097" lon="5.90044">
        <ele>826.2</ele>
        <time>2020-12-26T15:51:30Z</time>
      </trkpt>
      <trkpt lat="46.87094" lon="5.90035">
        <ele>826</ele>
        <time>2020-12-26T15:51:31Z</time>
      </trkpt>
      <trkpt lat="46.87092" lon="5.90027">
        <ele>825.4</ele>
        <time>2020-12-26T15:51:32Z</time>
      </trkpt>
      <trkpt lat="46.8709" lon="5.90017">
        <ele>825</ele>
        <time>2020-12-26T15:51:33Z</time>
      </trkpt>
      <trkpt lat="46.87087" lon="5.90008">
        <ele>824.8</ele>
        <time>2020-12-26T15:51:34Z</time>
      </trkpt>
      <trkpt lat="46.87085" lon="5.9">
        <ele>824.8</ele>
        <time>2020-12-26T15:51:35Z</time>
      </trkpt>
      <trkpt lat="46.87082" lon="5.89992">
        <ele>824.4</ele>
        <time>2020-12-26T15:51:36Z</time>
      </trkpt>
      <trkpt lat="46.8708" lon="5.89984">
        <ele>824.4</ele>
        <time>2020-12-26T15:51:37Z</time>
      </trkpt>
      <trkpt lat="46.87077" lon="5.89977">
        <ele>824.4</ele>
        <time>2020-12-26T15:51:38Z</time>
      </trkpt>
      <trkpt lat="46.87075" lon="5.8997">
        <ele>824.4</ele>
        <time>2020-12-26T15:51:39Z</time>
      </trkpt>
      <trkpt lat="46.87074" lon="5.89964">
        <ele>824.4</ele>
        <time>2020-12-26T15:51:40Z</time>
      </trkpt>
      <trkpt lat="46.87072" lon="5.89959">
        <ele>825</ele>
        <time>2020-12-26T15:51:41Z</time>
      </trkpt>
      <trkpt lat="46.87071" lon="5.89954">
        <ele>825</ele>
        <time>2020-12-26T15:51:42Z</time>
      </trkpt>
      <trkpt lat="46.8707" lon="5.89949">
        <ele>825.2</ele>
        <time>2020-12-26T15:51:43Z</time>
      </trkpt>
      <trkpt lat="46.8707" lon="5.89945">
        <ele>825.2</ele>
        <time>2020-12-26T15:51:44Z</time>
      </trkpt>
      <trkpt lat="46.8707" lon="5.89941">
        <ele>825.6</ele>
        <time>2020-12-26T15:51:45Z</time>
      </trkpt>
      <trkpt lat="46.8707" lon="5.89938">
        <ele>825.6</ele>
        <time>2020-12-26T15:51:46Z</time>
      </trkpt>
      <trkpt lat="46.8707" lon="5.89935">
        <ele>826</ele>
        <time>2020-12-26T15:51:47Z</time>
      </trkpt>
      <trkpt lat="46.87071" lon="5.89932">
        <ele>826.2</ele>
        <time>2020-12-26T15:51:48Z</time>
      </trkpt>
      <trkpt lat="46.87071" lon="5.89929">
        <ele>826.2</ele>
        <time>2020-12-26T15:51:49Z</time>
      </trkpt>
      <trkpt lat="46.87071" lon="5.89926">
        <ele>826.4</ele>
        <time>2020-12-26T15:51:50Z</time>
      </trkpt>
      <trkpt lat="46.8707" lon="5.89923">
        <ele>826.4</ele>
        <time>2020-12-26T15:51:51Z</time>
      </trkpt>
      <trkpt lat="46.87068" lon="5.8992">
        <ele>826.6</ele>
        <time>2020-12-26T15:51:52Z</time>
      </trkpt>
      <trkpt lat="46.87065" lon="5.89918">
        <ele>826.6</ele>
        <time>2020-12-26T15:51:53Z</time>
      </trkpt>
      <trkpt lat="46.87062" lon="5.89917">
        <ele>827</ele>
        <time>2020-12-26T15:51:54Z</time>
      </trkpt>
      <trkpt lat="46.87058" lon="5.89915">
        <ele>827</ele>
        <time>2020-12-26T15:51:55Z</time>
      </trkpt>
      <trkpt lat="46.87054" lon="5.89913">
        <ele>827.2</ele>
        <time>2020-12-26T15:51:56Z</time>
      </trkpt>
      <trkpt lat="46.8705" lon="5.89912">
        <ele>827.2</ele>
        <time>2020-12-26T15:51:57Z</time>
      </trkpt>
      <trkpt lat="46.87045" lon="5.8991">
        <ele>827.2</ele>
        <time>2020-12-26T15:51:58Z</time>
      </trkpt>
      <trkpt lat="46.8704" lon="5.89909">
        <ele>827.4</ele>
        <time>2020-12-26T15:51:59Z</time>
      </trkpt>
      <trkpt lat="46.87035" lon="5.89907">
        <ele>827.4</ele>
        <time>2020-12-26T15:52:00Z</time>
      </trkpt>
      <trkpt lat="46.8703" lon="5.89906">
        <ele>827.4</ele>
        <time>2020-12-26T15:52:01Z</time>
      </trkpt>
      <trkpt lat="46.87025" lon="5.89904">
        <ele>827.6</ele>
        <time>2020-12-26T15:52:02Z</time>
      </trkpt>
      <trkpt lat="46.8702" lon="5.89903">
        <ele>827.6</ele>
        <time>2020-12-26T15:52:03Z</time>
      </trkpt>
      <trkpt lat="46.87015" lon="5.89902">
        <ele>827.8</ele>
        <time>2020-12-26T15:52:04Z</time>
      </trkpt>
      <trkpt lat="46.87009" lon="5.899">
        <ele>828</ele>
        <time>2020-12-26T15:52:05Z</time>
      </trkpt>
      <trkpt lat="46.87004" lon="5.89898">
        <ele>828.4</ele>
        <time>2020-12-26T15:52:06Z</time>
      </trkpt>
      <trkpt lat="46.86999" lon="5.89896">
        <ele>828.6</ele>
        <time>2020-12-26T15:52:07Z</time>
      </trkpt>
      <trkpt lat="46.86994" lon="5.89894">
        <ele>828.6</ele>
        <time>2020-12-26T15:52:08Z</time>
      </trkpt>
      <trkpt lat="46.86989" lon="5.89892">
        <ele>828.8</ele>
        <time>2020-12-26T15:52:09Z</time>
      </trkpt>
      <trkpt lat="46.86983" lon="5.8989">
        <ele>829</ele>
        <time>2020-12-26T15:52:10Z</time>
      </trkpt>
      <trkpt lat="46.86978" lon="5.89888">
        <ele>829.2</ele>
        <time>2020-12-26T15:52:11Z</time>
      </trkpt>
      <trkpt lat="46.86973" lon="5.89886">
        <ele>829.2</ele>
        <time>2020-12-26T15:52:12Z</time>
      </trkpt>
      <trkpt lat="46.86968" lon="5.89885">
        <ele>829.6</ele>
        <time>2020-12-26T15:52:13Z</time>
      </trkpt>
      <trkpt lat="46.86964" lon="5.89883">
        <ele>829.6</ele>
        <time>2020-12-26T15:52:14Z</time>
      </trkpt>
      <trkpt lat="46.8696" lon="5.8988">
        <ele>829.8</ele>
        <time>2020-12-26T15:52:15Z</time>
      </trkpt>
      <trkpt lat="46.86956" lon="5.89876">
        <ele>830</ele>
        <time>2020-12-26T15:52:16Z</time>
      </trkpt>
      <trkpt lat="46.86954" lon="5.89872">
        <ele>830</ele>
        <time>2020-12-26T15:52:17Z</time>
      </trkpt>
      <trkpt lat="46.86953" lon="5.89866">
        <ele>830.4</ele>
        <time>2020-12-26T15:52:18Z</time>
      </trkpt>
      <trkpt lat="46.86954" lon="5.89861">
        <ele>830.6</ele>
        <time>2020-12-26T15:52:19Z</time>
      </trkpt>
      <trkpt lat="46.86954" lon="5.89856">
        <ele>830.8</ele>
        <time>2020-12-26T15:52:20Z</time>
      </trkpt>
      <trkpt lat="46.86955" lon="5.89852">
        <ele>831</ele>
        <time>2020-12-26T15:52:21Z</time>
      </trkpt>
      <trkpt lat="46.86956" lon="5.89848">
        <ele>831</ele>
        <time>2020-12-26T15:52:22Z</time>
      </trkpt>
      <trkpt lat="46.86958" lon="5.89844">
        <ele>831.4</ele>
        <time>2020-12-26T15:52:23Z</time>
      </trkpt>
      <trkpt lat="46.86961" lon="5.8984">
        <ele>831.6</ele>
        <time>2020-12-26T15:52:24Z</time>
      </trkpt>
      <trkpt lat="46.86963" lon="5.89837">
        <ele>832</ele>
        <time>2020-12-26T15:52:25Z</time>
      </trkpt>
      <trkpt lat="46.86966" lon="5.89833">
        <ele>832.2</ele>
        <time>2020-12-26T15:52:26Z</time>
      </trkpt>
      <trkpt lat="46.86969" lon="5.89829">
        <ele>832.6</ele>
        <time>2020-12-26T15:52:27Z</time>
      </trkpt>
      <trkpt lat="46.86972" lon="5.89826">
        <ele>833</ele>
        <time>2020-12-26T15:52:28Z</time>
      </trkpt>
      <trkpt lat="46.86974" lon="5.89823">
        <ele>833.2</ele>
        <time>2020-12-26T15:52:29Z</time>
      </trkpt>
      <trkpt lat="46.86976" lon="5.8982">
        <ele>833.6</ele>
        <time>2020-12-26T15:52:30Z</time>
      </trkpt>
      <trkpt lat="46.86979" lon="5.89817">
        <ele>833.8</ele>
        <time>2020-12-26T15:52:31Z</time>
      </trkpt>
      <trkpt lat="46.86981" lon="5.89814">
        <ele>834.2</ele>
        <time>2020-12-26T15:52:32Z</time>
      </trkpt>
      <trkpt lat="46.86983" lon="5.89812">
        <ele>834.4</ele>
        <time>2020-12-26T15:52:33Z</time>
      </trkpt>
      <trkpt lat="46.86986" lon="5.89809">
        <ele>834.6</ele>
        <time>2020-12-26T15:52:34Z</time>
      </trkpt>
      <trkpt lat="46.86989" lon="5.89807">
        <ele>834.8</ele>
        <time>2020-12-26T15:52:35Z</time>
      </trkpt>
      <trkpt lat="46.86992" lon="5.89804">
        <ele>835.2</ele>
        <time>2020-12-26T15:52:36Z</time>
      </trkpt>
      <trkpt lat="46.86995" lon="5.89802">
        <ele>835.2</ele>
        <time>2020-12-26T15:52:37Z</time>
      </trkpt>
      <trkpt lat="46.86998" lon="5.89799">
        <ele>835.4</ele>
        <time>2020-12-26T15:52:38Z</time>
      </trkpt>
      <trkpt lat="46.87" lon="5.89796">
        <ele>835.8</ele>
        <time>2020-12-26T15:52:39Z</time>
      </trkpt>
      <trkpt lat="46.87003" lon="5.89793">
        <ele>836</ele>
        <time>2020-12-26T15:52:40Z</time>
      </trkpt>
      <trkpt lat="46.87007" lon="5.89791">
        <ele>836.4</ele>
        <time>2020-12-26T15:52:41Z</time>
      </trkpt>
      <trkpt lat="46.8701" lon="5.89788">
        <ele>836.6</ele>
        <time>2020-12-26T15:52:42Z</time>
      </trkpt>
      <trkpt lat="46.87012" lon="5.89785">
        <ele>837</ele>
        <time>2020-12-26T15:52:43Z</time>
      </trkpt>
      <trkpt lat="46.87015" lon="5.89782">
        <ele>837.2</ele>
        <time>2020-12-26T15:52:44Z</time>
      </trkpt>
      <trkpt lat="46.87018" lon="5.89778">
        <ele>837.6</ele>
        <time>2020-12-26T15:52:45Z</time>
      </trkpt>
      <trkpt lat="46.8702" lon="5.89775">
        <ele>838</ele>
        <time>2020-12-26T15:52:46Z</time>
      </trkpt>
      <trkpt lat="46.87022" lon="5.89771">
        <ele>838.2</ele>
        <time>2020-12-26T15:52:47Z</time>
      </trkpt>
      <trkpt lat="46.87024" lon="5.89767">
        <ele>838.6</ele>
        <time>2020-12-26T15:52:48Z</time>
      </trkpt>
      <trkpt lat="46.87025" lon="5.89762">
        <ele>839</ele>
        <time>2020-12-26T15:52:49Z</time>
      </trkpt>
      <trkpt lat="46.87027" lon="5.89758">
        <ele>839.2</ele>
        <time>2020-12-26T15:52:50Z</time>
      </trkpt>
      <trkpt lat="46.87028" lon="5.89753">
        <ele>839.6</ele>
        <time>2020-12-26T15:52:51Z</time>
      </trkpt>
      <trkpt lat="46.87029" lon="5.89749">
        <ele>840</ele>
        <time>2020-12-26T15:52:52Z</time>
      </trkpt>
      <trkpt lat="46.8703" lon="5.89745">
        <ele>840.4</ele>
        <time>2020-12-26T15:52:53Z</time>
      </trkpt>
      <trkpt lat="46.87031" lon="5.89741">
        <ele>840.6</ele>
        <time>2020-12-26T15:52:54Z</time>
      </trkpt>
      <trkpt lat="46.87031" lon="5.89738">
        <ele>841</ele>
        <time>2020-12-26T15:52:55Z</time>
      </trkpt>
      <trkpt lat="46.87032" lon="5.89734">
        <ele>841.2</ele>
        <time>2020-12-26T15:52:56Z</time>
      </trkpt>
      <trkpt lat="46.87032" lon="5.8973">
        <ele>841.4</ele>
        <time>2020-12-26T15:52:57Z</time>
      </trkpt>
      <trkpt lat="46.87033" lon="5.89726">
        <ele>841.8</ele>
        <time>2020-12-26T15:52:58Z</time>
      </trkpt>
      <trkpt lat="46.87033" lon="5.89721">
        <ele>842.2</ele>
        <time>2020-12-26T15:52:59Z</time>
      </trkpt>
      <trkpt lat="46.87033" lon="5.89717">
        <ele>842.6</ele>
        <time>2020-12-26T15:53:00Z</time>
      </trkpt>
      <trkpt lat="46.87033" lon="5.89714">
        <ele>843</ele>
        <time>2020-12-26T15:53:01Z</time>
      </trkpt>
      <trkpt lat="46.87033" lon="5.89711">
        <ele>843.2</ele>
        <time>2020-12-26T15:53:02Z</time>
      </trkpt>
      <trkpt lat="46.87033" lon="5.89708">
        <ele>843.4</ele>
        <time>2020-12-26T15:53:03Z</time>
      </trkpt>
      <trkpt lat="46.87033" lon="5.89706">
        <ele>843.6</ele>
        <time>2020-12-26T15:53:04Z</time>
      </trkpt>
      <trkpt lat="46.87032" lon="5.89703">
        <ele>843.8</ele>
        <time>2020-12-26T15:53:05Z</time>
      </trkpt>
      <trkpt lat="46.87031" lon="5.897">
        <ele>843.8</ele>
        <time>2020-12-26T15:53:06Z</time>
      </trkpt>
      <trkpt lat="46.8703" lon="5.89697">
        <ele>844.4</ele>
        <time>2020-12-26T15:53:07Z</time>
      </trkpt>
      <trkpt lat="46.8703" lon="5.89693">
        <ele>844.6</ele>
        <time>2020-12-26T15:53:08Z</time>
      </trkpt>
      <trkpt lat="46.8703" lon="5.8969">
        <ele>844.8</ele>
        <time>2020-12-26T15:53:09Z</time>
      </trkpt>
      <trkpt lat="46.87029" lon="5.89687">
        <ele>845.2</ele>
        <time>2020-12-26T15:53:10Z</time>
      </trkpt>
      <trkpt lat="46.87028" lon="5.89684">
        <ele>845.6</ele>
        <time>2020-12-26T15:53:11Z</time>
      </trkpt>
      <trkpt lat="46.87027" lon="5.89681">
        <ele>846</ele>
        <time>2020-12-26T15:53:12Z</time>
      </trkpt>
      <trkpt lat="46.87027" lon="5.89678">
        <ele>846.2</ele>
        <time>2020-12-26T15:53:13Z</time>
      </trkpt>
      <trkpt lat="46.87027" lon="5.89675">
        <ele>846.8</ele>
        <time>2020-12-26T15:53:14Z</time>
      </trkpt>
      <trkpt lat="46.87026" lon="5.89672">
        <ele>847</ele>
        <time>2020-12-26T15:53:15Z</time>
      </trkpt>
      <trkpt lat="46.87026" lon="5.89669">
        <ele>847.4</ele>
        <time>2020-12-26T15:53:16Z</time>
      </trkpt>
      <trkpt lat="46.87025" lon="5.89666">
        <ele>847.8</ele>
        <time>2020-12-26T15:53:17Z</time>
      </trkpt>
      <trkpt lat="46.87025" lon="5.89663">
        <ele>848.2</ele>
        <time>2020-12-26T15:53:18Z</time>
      </trkpt>
      <trkpt lat="46.87025" lon="5.8966">
        <ele>848.6</ele>
        <time>2020-12-26T15:53:19Z</time>
      </trkpt>
      <trkpt lat="46.87024" lon="5.89657">
        <ele>849</ele>
        <time>2020-12-26T15:53:20Z</time>
      </trkpt>
      <trkpt lat="46.87024" lon="5.89654">
        <ele>849.4</ele>
        <time>2020-12-26T15:53:21Z</time>
      </trkpt>
      <trkpt lat="46.87024" lon="5.89651">
        <ele>849.8</ele>
        <time>2020-12-26T15:53:22Z</time>
      </trkpt>
      <trkpt lat="46.87023" lon="5.89648">
        <ele>850.2</ele>
        <time>2020-12-26T15:53:23Z</time>
      </trkpt>
      <trkpt lat="46.87023" lon="5.89644">
        <ele>850.8</ele>
        <time>2020-12-26T15:53:24Z</time>
      </trkpt>
      <trkpt lat="46.87023" lon="5.89641">
        <ele>851.2</ele>
        <time>2020-12-26T15:53:25Z</time>
      </trkpt>
      <trkpt lat="46.87023" lon="5.89637">
        <ele>851.6</ele>
        <time>2020-12-26T15:53:26Z</time>
      </trkpt>
      <trkpt lat="46.87022" lon="5.89633">
        <ele>852</ele>
        <time>2020-12-26T15:53:27Z</time>
      </trkpt>
      <trkpt lat="46.87023" lon="5.8963">
        <ele>852.4</ele>
        <time>2020-12-26T15:53:28Z</time>
      </trkpt>
      <trkpt lat="46.87023" lon="5.89626">
        <ele>852.8</ele>
        <time>2020-12-26T15:53:29Z</time>
      </trkpt>
      <trkpt lat="46.87023" lon="5.89623">
        <ele>853.2</ele>
        <time>2020-12-26T15:53:30Z</time>
      </trkpt>
      <trkpt lat="46.87023" lon="5.89619">
        <ele>853.6</ele>
        <time>2020-12-26T15:53:31Z</time>
      </trkpt>
      <trkpt lat="46.87023" lon="5.89616">
        <ele>853.8</ele>
        <time>2020-12-26T15:53:32Z</time>
      </trkpt>
      <trkpt lat="46.87023" lon="5.89612">
        <ele>854.2</ele>
        <time>2020-12-26T15:53:33Z</time>
      </trkpt>
      <trkpt lat="46.87023" lon="5.89609">
        <ele>854.6</ele>
        <time>2020-12-26T15:53:34Z</time>
      </trkpt>
      <trkpt lat="46.87022" lon="5.89605">
        <ele>854.8</ele>
        <time>2020-12-26T15:53:35Z</time>
      </trkpt>
      <trkpt lat="46.87022" lon="5.89602">
        <ele>855.2</ele>
        <time>2020-12-26T15:53:36Z</time>
      </trkpt>
      <trkpt lat="46.87022" lon="5.89599">
        <ele>855.6</ele>
        <time>2020-12-26T15:53:37Z</time>
      </trkpt>
      <trkpt lat="46.87022" lon="5.89596">
        <ele>855.8</ele>
        <time>2020-12-26T15:53:38Z</time>
      </trkpt>
      <trkpt lat="46.87023" lon="5.89592">
        <ele>856.2</ele>
        <time>2020-12-26T15:53:39Z</time>
      </trkpt>
      <trkpt lat="46.87023" lon="5.89589">
        <ele>856.4</ele>
        <time>2020-12-26T15:53:40Z</time>
      </trkpt>
      <trkpt lat="46.87023" lon="5.89586">
        <ele>856.8</ele>
        <time>2020-12-26T15:53:41Z</time>
      </trkpt>
      <trkpt lat="46.87023" lon="5.89583">
        <ele>857</ele>
        <time>2020-12-26T15:53:42Z</time>
      </trkpt>
      <trkpt lat="46.87024" lon="5.89579">
        <ele>857.4</ele>
        <time>2020-12-26T15:53:43Z</time>
      </trkpt>
      <trkpt lat="46.87024" lon="5.89576">
        <ele>857.6</ele>
        <time>2020-12-26T15:53:44Z</time>
      </trkpt>
      <trkpt lat="46.87024" lon="5.89573">
        <ele>857.8</ele>
        <time>2020-12-26T15:53:45Z</time>
      </trkpt>
      <trkpt lat="46.87023" lon="5.8957">
        <ele>858.2</ele>
        <time>2020-12-26T15:53:46Z</time>
      </trkpt>
      <trkpt lat="46.87022" lon="5.89567">
        <ele>858.4</ele>
        <time>2020-12-26T15:53:47Z</time>
      </trkpt>
      <trkpt lat="46.87022" lon="5.89565">
        <ele>858.8</ele>
        <time>2020-12-26T15:53:48Z</time>
      </trkpt>
      <trkpt lat="46.87021" lon="5.89562">
        <ele>859</ele>
        <time>2020-12-26T15:53:49Z</time>
      </trkpt>
      <trkpt lat="46.87021" lon="5.89559">
        <ele>859.4</ele>
        <time>2020-12-26T15:53:50Z</time>
      </trkpt>
      <trkpt lat="46.8702" lon="5.89556">
        <ele>859.8</ele>
        <time>2020-12-26T15:53:51Z</time>
      </trkpt>
      <trkpt lat="46.8702" lon="5.89553">
        <ele>860</ele>
        <time>2020-12-26T15:53:52Z</time>
      </trkpt>
      <trkpt lat="46.87019" lon="5.8955">
        <ele>860.2</ele>
        <time>2020-12-26T15:53:53Z</time>
      </trkpt>
      <trkpt lat="46.87018" lon="5.89547">
        <ele>860.4</ele>
        <time>2020-12-26T15:53:54Z</time>
      </trkpt>
      <trkpt lat="46.87018" lon="5.89544">
        <ele>860.8</ele>
        <time>2020-12-26T15:53:55Z</time>
      </trkpt>
      <trkpt lat="46.87018" lon="5.89541">
        <ele>861</ele>
        <time>2020-12-26T15:53:56Z</time>
      </trkpt>
      <trkpt lat="46.87018" lon="5.89536">
        <ele>861.2</ele>
        <time>2020-12-26T15:53:57Z</time>
      </trkpt>
      <trkpt lat="46.87018" lon="5.89532">
        <ele>861.4</ele>
        <time>2020-12-26T15:53:58Z</time>
      </trkpt>
      <trkpt lat="46.87017" lon="5.89528">
        <ele>861.8</ele>
        <time>2020-12-26T15:53:59Z</time>
      </trkpt>
      <trkpt lat="46.87017" lon="5.89524">
        <ele>862.2</ele>
        <time>2020-12-26T15:54:00Z</time>
      </trkpt>
      <trkpt lat="46.87016" lon="5.8952">
        <ele>862.4</ele>
        <time>2020-12-26T15:54:01Z</time>
      </trkpt>
      <trkpt lat="46.87015" lon="5.89516">
        <ele>862.8</ele>
        <time>2020-12-26T15:54:02Z</time>
      </trkpt>
      <trkpt lat="46.87014" lon="5.89513">
        <ele>863.2</ele>
        <time>2020-12-26T15:54:03Z</time>
      </trkpt>
      <trkpt lat="46.87013" lon="5.89511">
        <ele>863.4</ele>
        <time>2020-12-26T15:54:04Z</time>
      </trkpt>
      <trkpt lat="46.87011" lon="5.89508">
        <ele>863.8</ele>
        <time>2020-12-26T15:54:05Z</time>
      </trkpt>
      <trkpt lat="46.8701" lon="5.89506">
        <ele>864</ele>
        <time>2020-12-26T15:54:06Z</time>
      </trkpt>
      <trkpt lat="46.87009" lon="5.89503">
        <ele>864.4</ele>
        <time>2020-12-26T15:54:07Z</time>
      </trkpt>
      <trkpt lat="46.87007" lon="5.89501">
        <ele>864.8</ele>
        <time>2020-12-26T15:54:08Z</time>
      </trkpt>
      <trkpt lat="46.87005" lon="5.89499">
        <ele>865</ele>
        <time>2020-12-26T15:54:09Z</time>
      </trkpt>
      <trkpt lat="46.87004" lon="5.89497">
        <ele>865.4</ele>
        <time>2020-12-26T15:54:10Z</time>
      </trkpt>
      <trkpt lat="46.87002" lon="5.89495">
        <ele>865.6</ele>
        <time>2020-12-26T15:54:11Z</time>
      </trkpt>
      <trkpt lat="46.87001" lon="5.89493">
        <ele>866</ele>
        <time>2020-12-26T15:54:12Z</time>
      </trkpt>
      <trkpt lat="46.86999" lon="5.89491">
        <ele>866.4</ele>
        <time>2020-12-26T15:54:13Z</time>
      </trkpt>
      <trkpt lat="46.86998" lon="5.89489">
        <ele>866.6</ele>
        <time>2020-12-26T15:54:14Z</time>
      </trkpt>
      <trkpt lat="46.86996" lon="5.89487">
        <ele>866.8</ele>
        <time>2020-12-26T15:54:15Z</time>
      </trkpt>
      <trkpt lat="46.86995" lon="5.89485">
        <ele>867</ele>
        <time>2020-12-26T15:54:16Z</time>
      </trkpt>
      <trkpt lat="46.86993" lon="5.89483">
        <ele>867.4</ele>
        <time>2020-12-26T15:54:17Z</time>
      </trkpt>
      <trkpt lat="46.86992" lon="5.89481">
        <ele>867.6</ele>
        <time>2020-12-26T15:54:18Z</time>
      </trkpt>
      <trkpt lat="46.8699" lon="5.89478">
        <ele>868</ele>
        <time>2020-12-26T15:54:19Z</time>
      </trkpt>
      <trkpt lat="46.86989" lon="5.89476">
        <ele>868</ele>
        <time>2020-12-26T15:54:20Z</time>
      </trkpt>
      <trkpt lat="46.86987" lon="5.89473">
        <ele>868.2</ele>
        <time>2020-12-26T15:54:21Z</time>
      </trkpt>
      <trkpt lat="46.86986" lon="5.8947">
        <ele>868.6</ele>
        <time>2020-12-26T15:54:22Z</time>
      </trkpt>
      <trkpt lat="46.86984" lon="5.89468">
        <ele>868.8</ele>
        <time>2020-12-26T15:54:23Z</time>
      </trkpt>
      <trkpt lat="46.86983" lon="5.89465">
        <ele>869</ele>
        <time>2020-12-26T15:54:24Z</time>
      </trkpt>
      <trkpt lat="46.86982" lon="5.89462">
        <ele>869.2</ele>
        <time>2020-12-26T15:54:25Z</time>
      </trkpt>
      <trkpt lat="46.86983" lon="5.89459">
        <ele>869.6</ele>
        <time>2020-12-26T15:54:26Z</time>
      </trkpt>
      <trkpt lat="46.86983" lon="5.89456">
        <ele>869.8</ele>
        <time>2020-12-26T15:54:27Z</time>
      </trkpt>
      <trkpt lat="46.86984" lon="5.89454">
        <ele>870</ele>
        <time>2020-12-26T15:54:28Z</time>
      </trkpt>
      <trkpt lat="46.86984" lon="5.89451">
        <ele>870.4</ele>
        <time>2020-12-26T15:54:29Z</time>
      </trkpt>
      <trkpt lat="46.86985" lon="5.8945">
        <ele>870.4</ele>
        <time>2020-12-26T15:54:30Z</time>
      </trkpt>
      <trkpt lat="46.86986" lon="5.89448">
        <ele>870.6</ele>
        <time>2020-12-26T15:54:31Z</time>
      </trkpt>
      <trkpt lat="46.86987" lon="5.89447">
        <ele>870.6</ele>
        <time>2020-12-26T15:54:32Z</time>
      </trkpt>
      <trkpt lat="46.86988" lon="5.89447">
        <ele>870.8</ele>
        <time>2020-12-26T15:54:33Z</time>
      </trkpt>
      <trkpt lat="46.86989" lon="5.89445">
        <ele>871</ele>
        <time>2020-12-26T15:55:54Z</time>
      </trkpt>
      <trkpt lat="46.86991" lon="5.89443">
        <ele>871</ele>
        <time>2020-12-26T15:55:55Z</time>
      </trkpt>
      <trkpt lat="46.86992" lon="5.89441">
        <ele>871</ele>
        <time>2020-12-26T15:55:56Z</time>
      </trkpt>
      <trkpt lat="46.86994" lon="5.89438">
        <ele>871</ele>
        <time>2020-12-26T15:55:57Z</time>
      </trkpt>
      <trkpt lat="46.86997" lon="5.89436">
        <ele>871</ele>
        <time>2020-12-26T15:55:58Z</time>
      </trkpt>
      <trkpt lat="46.86999" lon="5.89433">
        <ele>871</ele>
        <time>2020-12-26T15:55:59Z</time>
      </trkpt>
      <trkpt lat="46.87002" lon="5.8943">
        <ele>871</ele>
        <time>2020-12-26T15:56:00Z</time>
      </trkpt>
      <trkpt lat="46.87005" lon="5.89427">
        <ele>870.8</ele>
        <time>2020-12-26T15:56:01Z</time>
      </trkpt>
      <trkpt lat="46.87008" lon="5.89425">
        <ele>870.8</ele>
        <time>2020-12-26T15:56:02Z</time>
      </trkpt>
      <trkpt lat="46.87011" lon="5.89422">
        <ele>870.8</ele>
        <time>2020-12-26T15:56:03Z</time>
      </trkpt>
      <trkpt lat="46.87014" lon="5.89419">
        <ele>870.8</ele>
        <time>2020-12-26T15:56:04Z</time>
      </trkpt>
      <trkpt lat="46.87018" lon="5.89416">
        <ele>870.8</ele>
        <time>2020-12-26T15:56:05Z</time>
      </trkpt>
      <trkpt lat="46.87021" lon="5.89413">
        <ele>870.8</ele>
        <time>2020-12-26T15:56:06Z</time>
      </trkpt>
      <trkpt lat="46.87024" lon="5.8941">
        <ele>870.8</ele>
        <time>2020-12-26T15:56:07Z</time>
      </trkpt>
      <trkpt lat="46.87028" lon="5.89407">
        <ele>870.8</ele>
        <time>2020-12-26T15:56:08Z</time>
      </trkpt>
      <trkpt lat="46.87031" lon="5.89405">
        <ele>871</ele>
        <time>2020-12-26T15:56:09Z</time>
      </trkpt>
      <trkpt lat="46.87033" lon="5.89403">
        <ele>871</ele>
        <time>2020-12-26T15:56:10Z</time>
      </trkpt>
      <trkpt lat="46.87036" lon="5.89401">
        <ele>871.4</ele>
        <time>2020-12-26T15:56:11Z</time>
      </trkpt>
      <trkpt lat="46.87039" lon="5.894">
        <ele>871.4</ele>
        <time>2020-12-26T15:56:12Z</time>
      </trkpt>
      <trkpt lat="46.87042" lon="5.89398">
        <ele>871.6</ele>
        <time>2020-12-26T15:56:13Z</time>
      </trkpt>
      <trkpt lat="46.87046" lon="5.89396">
        <ele>871.8</ele>
        <time>2020-12-26T15:56:14Z</time>
      </trkpt>
      <trkpt lat="46.8705" lon="5.89395">
        <ele>871.8</ele>
        <time>2020-12-26T15:56:15Z</time>
      </trkpt>
      <trkpt lat="46.87053" lon="5.89393">
        <ele>872.4</ele>
        <time>2020-12-26T15:56:16Z</time>
      </trkpt>
      <trkpt lat="46.87057" lon="5.89392">
        <ele>872.6</ele>
        <time>2020-12-26T15:56:17Z</time>
      </trkpt>
      <trkpt lat="46.8706" lon="5.89391">
        <ele>873</ele>
        <time>2020-12-26T15:56:18Z</time>
      </trkpt>
      <trkpt lat="46.87064" lon="5.8939">
        <ele>873.2</ele>
        <time>2020-12-26T15:56:19Z</time>
      </trkpt>
      <trkpt lat="46.87067" lon="5.8939">
        <ele>873.4</ele>
        <time>2020-12-26T15:56:20Z</time>
      </trkpt>
      <trkpt lat="46.87069" lon="5.89389">
        <ele>873.6</ele>
        <time>2020-12-26T15:56:21Z</time>
      </trkpt>
      <trkpt lat="46.87072" lon="5.89388">
        <ele>874</ele>
        <time>2020-12-26T15:56:22Z</time>
      </trkpt>
      <trkpt lat="46.87075" lon="5.89388">
        <ele>874.2</ele>
        <time>2020-12-26T15:56:23Z</time>
      </trkpt>
      <trkpt lat="46.87078" lon="5.89387">
        <ele>874.2</ele>
        <time>2020-12-26T15:56:24Z</time>
      </trkpt>
      <trkpt lat="46.87082" lon="5.89387">
        <ele>874.6</ele>
        <time>2020-12-26T15:56:25Z</time>
      </trkpt>
      <trkpt lat="46.87085" lon="5.89386">
        <ele>874.6</ele>
        <time>2020-12-26T15:56:26Z</time>
      </trkpt>
      <trkpt lat="46.87088" lon="5.89386">
        <ele>874.8</ele>
        <time>2020-12-26T15:56:27Z</time>
      </trkpt>
      <trkpt lat="46.87091" lon="5.89385">
        <ele>874.8</ele>
        <time>2020-12-26T15:56:28Z</time>
      </trkpt>
      <trkpt lat="46.87095" lon="5.89385">
        <ele>875</ele>
        <time>2020-12-26T15:56:29Z</time>
      </trkpt>
      <trkpt lat="46.87098" lon="5.89384">
        <ele>875</ele>
        <time>2020-12-26T15:56:30Z</time>
      </trkpt>
      <trkpt lat="46.87102" lon="5.89384">
        <ele>875.4</ele>
        <time>2020-12-26T15:56:31Z</time>
      </trkpt>
      <trkpt lat="46.87105" lon="5.89383">
        <ele>875.4</ele>
        <time>2020-12-26T15:56:32Z</time>
      </trkpt>
      <trkpt lat="46.87108" lon="5.89382">
        <ele>875.6</ele>
        <time>2020-12-26T15:56:33Z</time>
      </trkpt>
      <trkpt lat="46.87112" lon="5.89382">
        <ele>875.6</ele>
        <time>2020-12-26T15:56:34Z</time>
      </trkpt>
      <trkpt lat="46.87115" lon="5.89382">
        <ele>875.8</ele>
        <time>2020-12-26T15:56:35Z</time>
      </trkpt>
      <trkpt lat="46.87118" lon="5.89383">
        <ele>875.8</ele>
        <time>2020-12-26T15:56:36Z</time>
      </trkpt>
      <trkpt lat="46.87121" lon="5.89383">
        <ele>876.2</ele>
        <time>2020-12-26T15:56:37Z</time>
      </trkpt>
      <trkpt lat="46.87125" lon="5.89384">
        <ele>876.2</ele>
        <time>2020-12-26T15:56:38Z</time>
      </trkpt>
      <trkpt lat="46.87128" lon="5.89384">
        <ele>876.2</ele>
        <time>2020-12-26T15:56:39Z</time>
      </trkpt>
      <trkpt lat="46.87132" lon="5.89384">
        <ele>876.4</ele>
        <time>2020-12-26T15:56:40Z</time>
      </trkpt>
      <trkpt lat="46.87135" lon="5.89384">
        <ele>876.4</ele>
        <time>2020-12-26T15:56:41Z</time>
      </trkpt>
      <trkpt lat="46.87139" lon="5.89384">
        <ele>876.4</ele>
        <time>2020-12-26T15:56:42Z</time>
      </trkpt>
      <trkpt lat="46.87142" lon="5.89384">
        <ele>876.6</ele>
        <time>2020-12-26T15:56:43Z</time>
      </trkpt>
      <trkpt lat="46.87146" lon="5.89384">
        <ele>876.6</ele>
        <time>2020-12-26T15:56:44Z</time>
      </trkpt>
      <trkpt lat="46.87149" lon="5.89384">
        <ele>876.6</ele>
        <time>2020-12-26T15:56:45Z</time>
      </trkpt>
      <trkpt lat="46.87153" lon="5.89384">
        <ele>877</ele>
        <time>2020-12-26T15:56:46Z</time>
      </trkpt>
      <trkpt lat="46.87156" lon="5.89384">
        <ele>877</ele>
        <time>2020-12-26T15:56:47Z</time>
      </trkpt>
      <trkpt lat="46.8716" lon="5.89384">
        <ele>877.2</ele>
        <time>2020-12-26T15:56:48Z</time>
      </trkpt>
      <trkpt lat="46.87163" lon="5.89384">
        <ele>877.2</ele>
        <time>2020-12-26T15:56:49Z</time>
      </trkpt>
      <trkpt lat="46.87166" lon="5.89385">
        <ele>877.4</ele>
        <time>2020-12-26T15:56:50Z</time>
      </trkpt>
      <trkpt lat="46.8717" lon="5.89385">
        <ele>877.4</ele>
        <time>2020-12-26T15:56:51Z</time>
      </trkpt>
      <trkpt lat="46.87173" lon="5.89385">
        <ele>877.8</ele>
        <time>2020-12-26T15:56:52Z</time>
      </trkpt>
      <trkpt lat="46.87177" lon="5.89385">
        <ele>877.8</ele>
        <time>2020-12-26T15:56:53Z</time>
      </trkpt>
      <trkpt lat="46.8718" lon="5.89386">
        <ele>878</ele>
        <time>2020-12-26T15:56:54Z</time>
      </trkpt>
      <trkpt lat="46.87183" lon="5.89386">
        <ele>878</ele>
        <time>2020-12-26T15:56:55Z</time>
      </trkpt>
      <trkpt lat="46.87187" lon="5.89386">
        <ele>878.4</ele>
        <time>2020-12-26T15:56:56Z</time>
      </trkpt>
      <trkpt lat="46.8719" lon="5.89386">
        <ele>878.4</ele>
        <time>2020-12-26T15:56:57Z</time>
      </trkpt>
      <trkpt lat="46.87193" lon="5.89386">
        <ele>878.6</ele>
        <time>2020-12-26T15:56:58Z</time>
      </trkpt>
      <trkpt lat="46.87196" lon="5.89386">
        <ele>878.6</ele>
        <time>2020-12-26T15:56:59Z</time>
      </trkpt>
      <trkpt lat="46.87199" lon="5.89386">
        <ele>879</ele>
        <time>2020-12-26T15:57:00Z</time>
      </trkpt>
      <trkpt lat="46.87202" lon="5.89387">
        <ele>879</ele>
        <time>2020-12-26T15:57:01Z</time>
      </trkpt>
      <trkpt lat="46.87205" lon="5.89387">
        <ele>879.4</ele>
        <time>2020-12-26T15:57:02Z</time>
      </trkpt>
      <trkpt lat="46.87208" lon="5.89387">
        <ele>879.4</ele>
        <time>2020-12-26T15:57:03Z</time>
      </trkpt>
      <trkpt lat="46.87211" lon="5.89387">
        <ele>879.8</ele>
        <time>2020-12-26T15:57:04Z</time>
      </trkpt>
      <trkpt lat="46.87214" lon="5.89387">
        <ele>880</ele>
        <time>2020-12-26T15:57:05Z</time>
      </trkpt>
      <trkpt lat="46.87217" lon="5.89388">
        <ele>880.2</ele>
        <time>2020-12-26T15:57:06Z</time>
      </trkpt>
      <trkpt lat="46.8722" lon="5.89388">
        <ele>880.4</ele>
        <time>2020-12-26T15:57:07Z</time>
      </trkpt>
      <trkpt lat="46.87223" lon="5.89389">
        <ele>880.6</ele>
        <time>2020-12-26T15:57:08Z</time>
      </trkpt>
      <trkpt lat="46.87227" lon="5.8939">
        <ele>881</ele>
        <time>2020-12-26T15:57:09Z</time>
      </trkpt>
      <trkpt lat="46.8723" lon="5.8939">
        <ele>881.2</ele>
        <time>2020-12-26T15:57:10Z</time>
      </trkpt>
      <trkpt lat="46.87233" lon="5.89391">
        <ele>881.4</ele>
        <time>2020-12-26T15:57:11Z</time>
      </trkpt>
      <trkpt lat="46.87236" lon="5.89391">
        <ele>881.8</ele>
        <time>2020-12-26T15:57:12Z</time>
      </trkpt>
      <trkpt lat="46.8724" lon="5.89391">
        <ele>881.8</ele>
        <time>2020-12-26T15:57:13Z</time>
      </trkpt>
      <trkpt lat="46.87243" lon="5.89391">
        <ele>882.2</ele>
        <time>2020-12-26T15:57:14Z</time>
      </trkpt>
      <trkpt lat="46.87246" lon="5.89391">
        <ele>882.2</ele>
        <time>2020-12-26T15:57:15Z</time>
      </trkpt>
      <trkpt lat="46.8725" lon="5.89391">
        <ele>882.6</ele>
        <time>2020-12-26T15:57:16Z</time>
      </trkpt>
      <trkpt lat="46.87253" lon="5.89391">
        <ele>882.8</ele>
        <time>2020-12-26T15:57:17Z</time>
      </trkpt>
      <trkpt lat="46.87256" lon="5.89391">
        <ele>883</ele>
        <time>2020-12-26T15:57:18Z</time>
      </trkpt>
      <trkpt lat="46.8726" lon="5.89391">
        <ele>883.4</ele>
        <time>2020-12-26T15:57:19Z</time>
      </trkpt>
      <trkpt lat="46.87263" lon="5.8939">
        <ele>883.8</ele>
        <time>2020-12-26T15:57:20Z</time>
      </trkpt>
      <trkpt lat="46.87267" lon="5.89389">
        <ele>884</ele>
        <time>2020-12-26T15:57:21Z</time>
      </trkpt>
      <trkpt lat="46.8727" lon="5.89389">
        <ele>884.4</ele>
        <time>2020-12-26T15:57:22Z</time>
      </trkpt>
      <trkpt lat="46.87273" lon="5.89388">
        <ele>884.8</ele>
        <time>2020-12-26T15:57:23Z</time>
      </trkpt>
      <trkpt lat="46.87277" lon="5.89387">
        <ele>885</ele>
        <time>2020-12-26T15:57:24Z</time>
      </trkpt>
      <trkpt lat="46.8728" lon="5.89386">
        <ele>885.2</ele>
        <time>2020-12-26T15:57:25Z</time>
      </trkpt>
      <trkpt lat="46.87283" lon="5.89386">
        <ele>885.6</ele>
        <time>2020-12-26T15:57:26Z</time>
      </trkpt>
      <trkpt lat="46.87286" lon="5.89385">
        <ele>885.8</ele>
        <time>2020-12-26T15:57:27Z</time>
      </trkpt>
      <trkpt lat="46.87288" lon="5.89384">
        <ele>886.2</ele>
        <time>2020-12-26T15:57:28Z</time>
      </trkpt>
      <trkpt lat="46.87291" lon="5.89383">
        <ele>886.4</ele>
        <time>2020-12-26T15:57:29Z</time>
      </trkpt>
      <trkpt lat="46.87294" lon="5.89383">
        <ele>886.6</ele>
        <time>2020-12-26T15:57:30Z</time>
      </trkpt>
      <trkpt lat="46.87297" lon="5.89382">
        <ele>886.8</ele>
        <time>2020-12-26T15:57:31Z</time>
      </trkpt>
      <trkpt lat="46.873" lon="5.89381">
        <ele>887</ele>
        <time>2020-12-26T15:57:32Z</time>
      </trkpt>
      <trkpt lat="46.87303" lon="5.8938">
        <ele>887</ele>
        <time>2020-12-26T15:57:33Z</time>
      </trkpt>
      <trkpt lat="46.87306" lon="5.89379">
        <ele>887.4</ele>
        <time>2020-12-26T15:57:34Z</time>
      </trkpt>
      <trkpt lat="46.8731" lon="5.89378">
        <ele>887.4</ele>
        <time>2020-12-26T15:57:35Z</time>
      </trkpt>
      <trkpt lat="46.87313" lon="5.89377">
        <ele>887.8</ele>
        <time>2020-12-26T15:57:36Z</time>
      </trkpt>
      <trkpt lat="46.87316" lon="5.89377">
        <ele>888</ele>
        <time>2020-12-26T15:57:37Z</time>
      </trkpt>
      <trkpt lat="46.87319" lon="5.89376">
        <ele>888</ele>
        <time>2020-12-26T15:57:38Z</time>
      </trkpt>
      <trkpt lat="46.87323" lon="5.89375">
        <ele>888.4</ele>
        <time>2020-12-26T15:57:39Z</time>
      </trkpt>
      <trkpt lat="46.87326" lon="5.89374">
        <ele>888.4</ele>
        <time>2020-12-26T15:57:40Z</time>
      </trkpt>
      <trkpt lat="46.87329" lon="5.89373">
        <ele>888.6</ele>
        <time>2020-12-26T15:57:41Z</time>
      </trkpt>
      <trkpt lat="46.87333" lon="5.89372">
        <ele>889</ele>
        <time>2020-12-26T15:57:42Z</time>
      </trkpt>
      <trkpt lat="46.87336" lon="5.89371">
        <ele>889.2</ele>
        <time>2020-12-26T15:57:43Z</time>
      </trkpt>
      <trkpt lat="46.8734" lon="5.8937">
        <ele>889.4</ele>
        <time>2020-12-26T15:57:44Z</time>
      </trkpt>
      <trkpt lat="46.87343" lon="5.89369">
        <ele>889.6</ele>
        <time>2020-12-26T15:57:45Z</time>
      </trkpt>
      <trkpt lat="46.87346" lon="5.89368">
        <ele>889.6</ele>
        <time>2020-12-26T15:57:46Z</time>
      </trkpt>
      <trkpt lat="46.87349" lon="5.89366">
        <ele>890</ele>
        <time>2020-12-26T15:57:47Z</time>
      </trkpt>
      <trkpt lat="46.87352" lon="5.89365">
        <ele>890.4</ele>
        <time>2020-12-26T15:57:48Z</time>
      </trkpt>
      <trkpt lat="46.87355" lon="5.89363">
        <ele>890.4</ele>
        <time>2020-12-26T15:57:49Z</time>
      </trkpt>
      <trkpt lat="46.87358" lon="5.89362">
        <ele>890.6</ele>
        <time>2020-12-26T15:57:50Z</time>
      </trkpt>
      <trkpt lat="46.87361" lon="5.8936">
        <ele>890.6</ele>
        <time>2020-12-26T15:57:51Z</time>
      </trkpt>
      <trkpt lat="46.87365" lon="5.89358">
        <ele>890.6</ele>
        <time>2020-12-26T15:57:52Z</time>
      </trkpt>
      <trkpt lat="46.87368" lon="5.89356">
        <ele>890.6</ele>
        <time>2020-12-26T15:57:53Z</time>
      </trkpt>
      <trkpt lat="46.87371" lon="5.89353">
        <ele>890.6</ele>
        <time>2020-12-26T15:57:54Z</time>
      </trkpt>
      <trkpt lat="46.87375" lon="5.89351">
        <ele>890.6</ele>
        <time>2020-12-26T15:57:55Z</time>
      </trkpt>
      <trkpt lat="46.87379" lon="5.89348">
        <ele>890.6</ele>
        <time>2020-12-26T15:57:56Z</time>
      </trkpt>
      <trkpt lat="46.87383" lon="5.89345">
        <ele>890.6</ele>
        <time>2020-12-26T15:57:57Z</time>
      </trkpt>
      <trkpt lat="46.87387" lon="5.89342">
        <ele>890.6</ele>
        <time>2020-12-26T15:57:58Z</time>
      </trkpt>
      <trkpt lat="46.87392" lon="5.89339">
        <ele>890.4</ele>
        <time>2020-12-26T15:57:59Z</time>
      </trkpt>
      <trkpt lat="46.87396" lon="5.89336">
        <ele>890.4</ele>
        <time>2020-12-26T15:58:00Z</time>
      </trkpt>
      <trkpt lat="46.874" lon="5.89333">
        <ele>890.4</ele>
        <time>2020-12-26T15:58:01Z</time>
      </trkpt>
      <trkpt lat="46.87405" lon="5.8933">
        <ele>890</ele>
        <time>2020-12-26T15:58:02Z</time>
      </trkpt>
      <trkpt lat="46.87409" lon="5.89327">
        <ele>890</ele>
        <time>2020-12-26T15:58:03Z</time>
      </trkpt>
      <trkpt lat="46.87414" lon="5.89325">
        <ele>890</ele>
        <time>2020-12-26T15:58:04Z</time>
      </trkpt>
      <trkpt lat="46.87419" lon="5.89323">
        <ele>890</ele>
        <time>2020-12-26T15:58:05Z</time>
      </trkpt>
      <trkpt lat="46.87424" lon="5.89321">
        <ele>890</ele>
        <time>2020-12-26T15:58:06Z</time>
      </trkpt>
      <trkpt lat="46.87428" lon="5.89319">
        <ele>890</ele>
        <time>2020-12-26T15:58:07Z</time>
      </trkpt>
      <trkpt lat="46.87433" lon="5.89318">
        <ele>890</ele>
        <time>2020-12-26T15:58:08Z</time>
      </trkpt>
      <trkpt lat="46.87438" lon="5.89317">
        <ele>890</ele>
        <time>2020-12-26T15:58:09Z</time>
      </trkpt>
      <trkpt lat="46.87443" lon="5.89316">
        <ele>890</ele>
        <time>2020-12-26T15:58:10Z</time>
      </trkpt>
      <trkpt lat="46.87448" lon="5.89316">
        <ele>890</ele>
        <time>2020-12-26T15:58:11Z</time>
      </trkpt>
      <trkpt lat="46.87454" lon="5.89315">
        <ele>890</ele>
        <time>2020-12-26T15:58:12Z</time>
      </trkpt>
      <trkpt lat="46.87459" lon="5.89314">
        <ele>890</ele>
        <time>2020-12-26T15:58:13Z</time>
      </trkpt>
      <trkpt lat="46.87464" lon="5.89314">
        <ele>890</ele>
        <time>2020-12-26T15:58:14Z</time>
      </trkpt>
      <trkpt lat="46.8747" lon="5.89313">
        <ele>890</ele>
        <time>2020-12-26T15:58:15Z</time>
      </trkpt>
      <trkpt lat="46.87475" lon="5.89311">
        <ele>890</ele>
        <time>2020-12-26T15:58:16Z</time>
      </trkpt>
      <trkpt lat="46.8748" lon="5.89308">
        <ele>890</ele>
        <time>2020-12-26T15:58:17Z</time>
      </trkpt>
      <trkpt lat="46.87484" lon="5.89305">
        <ele>890</ele>
        <time>2020-12-26T15:58:18Z</time>
      </trkpt>
      <trkpt lat="46.87488" lon="5.89302">
        <ele>890</ele>
        <time>2020-12-26T15:58:19Z</time>
      </trkpt>
      <trkpt lat="46.87492" lon="5.89298">
        <ele>890</ele>
        <time>2020-12-26T15:58:20Z</time>
      </trkpt>
      <trkpt lat="46.87496" lon="5.89294">
        <ele>890</ele>
        <time>2020-12-26T15:58:21Z</time>
      </trkpt>
      <trkpt lat="46.875" lon="5.8929">
        <ele>890.4</ele>
        <time>2020-12-26T15:58:22Z</time>
      </trkpt>
      <trkpt lat="46.87504" lon="5.89285">
        <ele>890.4</ele>
        <time>2020-12-26T15:58:23Z</time>
      </trkpt>
      <trkpt lat="46.87508" lon="5.8928">
        <ele>890.4</ele>
        <time>2020-12-26T15:58:24Z</time>
      </trkpt>
      <trkpt lat="46.87512" lon="5.89275">
        <ele>890.4</ele>
        <time>2020-12-26T15:58:25Z</time>
      </trkpt>
      <trkpt lat="46.87516" lon="5.89269">
        <ele>890.4</ele>
        <time>2020-12-26T15:58:26Z</time>
      </trkpt>
      <trkpt lat="46.87521" lon="5.89264">
        <ele>890</ele>
        <time>2020-12-26T15:58:27Z</time>
      </trkpt>
      <trkpt lat="46.87525" lon="5.89259">
        <ele>890</ele>
        <time>2020-12-26T15:58:28Z</time>
      </trkpt>
      <trkpt lat="46.87529" lon="5.89253">
        <ele>889.8</ele>
        <time>2020-12-26T15:58:29Z</time>
      </trkpt>
      <trkpt lat="46.87534" lon="5.89247">
        <ele>889.8</ele>
        <time>2020-12-26T15:58:30Z</time>
      </trkpt>
      <trkpt lat="46.87538" lon="5.89241">
        <ele>889.8</ele>
        <time>2020-12-26T15:58:31Z</time>
      </trkpt>
      <trkpt lat="46.87543" lon="5.89235">
        <ele>889.4</ele>
        <time>2020-12-26T15:58:32Z</time>
      </trkpt>
      <trkpt lat="46.87548" lon="5.89229">
        <ele>889.4</ele>
        <time>2020-12-26T15:58:33Z</time>
      </trkpt>
      <trkpt lat="46.87553" lon="5.89223">
        <ele>889.2</ele>
        <time>2020-12-26T15:58:34Z</time>
      </trkpt>
      <trkpt lat="46.87558" lon="5.89216">
        <ele>889</ele>
        <time>2020-12-26T15:58:35Z</time>
      </trkpt>
      <trkpt lat="46.87564" lon="5.89209">
        <ele>888.8</ele>
        <time>2020-12-26T15:58:36Z</time>
      </trkpt>
      <trkpt lat="46.87569" lon="5.89202">
        <ele>888.4</ele>
        <time>2020-12-26T15:58:37Z</time>
      </trkpt>
      <trkpt lat="46.87575" lon="5.89195">
        <ele>888</ele>
        <time>2020-12-26T15:58:38Z</time>
      </trkpt>
      <trkpt lat="46.87581" lon="5.89188">
        <ele>887.6</ele>
        <time>2020-12-26T15:58:39Z</time>
      </trkpt>
      <trkpt lat="46.87587" lon="5.8918">
        <ele>887</ele>
        <time>2020-12-26T15:58:40Z</time>
      </trkpt>
      <trkpt lat="46.87593" lon="5.89172">
        <ele>886.4</ele>
        <time>2020-12-26T15:58:41Z</time>
      </trkpt>
      <trkpt lat="46.87599" lon="5.89164">
        <ele>885.8</ele>
        <time>2020-12-26T15:58:42Z</time>
      </trkpt>
      <trkpt lat="46.87606" lon="5.89155">
        <ele>885.2</ele>
        <time>2020-12-26T15:58:43Z</time>
      </trkpt>
      <trkpt lat="46.87613" lon="5.89147">
        <ele>884.6</ele>
        <time>2020-12-26T15:58:44Z</time>
      </trkpt>
      <trkpt lat="46.8762" lon="5.89137">
        <ele>884</ele>
        <time>2020-12-26T15:58:45Z</time>
      </trkpt>
      <trkpt lat="46.87627" lon="5.89127">
        <ele>883.4</ele>
        <time>2020-12-26T15:58:46Z</time>
      </trkpt>
      <trkpt lat="46.87634" lon="5.89117">
        <ele>882.8</ele>
        <time>2020-12-26T15:58:47Z</time>
      </trkpt>
      <trkpt lat="46.87641" lon="5.89108">
        <ele>882.2</ele>
        <time>2020-12-26T15:58:48Z</time>
      </trkpt>
      <trkpt lat="46.87649" lon="5.89098">
        <ele>881.6</ele>
        <time>2020-12-26T15:58:49Z</time>
      </trkpt>
      <trkpt lat="46.87657" lon="5.89089">
        <ele>881.2</ele>
        <time>2020-12-26T15:58:50Z</time>
      </trkpt>
      <trkpt lat="46.87665" lon="5.8908">
        <ele>880.8</ele>
        <time>2020-12-26T15:58:51Z</time>
      </trkpt>
      <trkpt lat="46.87671" lon="5.8907">
        <ele>880.4</ele>
        <time>2020-12-26T15:58:52Z</time>
      </trkpt>
      <trkpt lat="46.87678" lon="5.89061">
        <ele>880</ele>
        <time>2020-12-26T15:58:53Z</time>
      </trkpt>
      <trkpt lat="46.87685" lon="5.89052">
        <ele>879.6</ele>
        <time>2020-12-26T15:58:54Z</time>
      </trkpt>
      <trkpt lat="46.87692" lon="5.89042">
        <ele>879.2</ele>
        <time>2020-12-26T15:58:55Z</time>
      </trkpt>
      <trkpt lat="46.87699" lon="5.89033">
        <ele>878.8</ele>
        <time>2020-12-26T15:58:56Z</time>
      </trkpt>
      <trkpt lat="46.87706" lon="5.89025">
        <ele>878.2</ele>
        <time>2020-12-26T15:58:57Z</time>
      </trkpt>
      <trkpt lat="46.87714" lon="5.89015">
        <ele>877.6</ele>
        <time>2020-12-26T15:58:58Z</time>
      </trkpt>
      <trkpt lat="46.87721" lon="5.89006">
        <ele>877.4</ele>
        <time>2020-12-26T15:58:59Z</time>
      </trkpt>
      <trkpt lat="46.87728" lon="5.88996">
        <ele>877</ele>
        <time>2020-12-26T15:59:00Z</time>
      </trkpt>
      <trkpt lat="46.87735" lon="5.88987">
        <ele>876.6</ele>
        <time>2020-12-26T15:59:01Z</time>
      </trkpt>
      <trkpt lat="46.87741" lon="5.88978">
        <ele>876.2</ele>
        <time>2020-12-26T15:59:02Z</time>
      </trkpt>
      <trkpt lat="46.87748" lon="5.88969">
        <ele>876</ele>
        <time>2020-12-26T15:59:03Z</time>
      </trkpt>
      <trkpt lat="46.87755" lon="5.8896">
        <ele>875.8</ele>
        <time>2020-12-26T15:59:04Z</time>
      </trkpt>
      <trkpt lat="46.87762" lon="5.88951">
        <ele>875.4</ele>
        <time>2020-12-26T15:59:05Z</time>
      </trkpt>
      <trkpt lat="46.87769" lon="5.88941">
        <ele>875.2</ele>
        <time>2020-12-26T15:59:06Z</time>
      </trkpt>
      <trkpt lat="46.87777" lon="5.88932">
        <ele>874.8</ele>
        <time>2020-12-26T15:59:07Z</time>
      </trkpt>
      <trkpt lat="46.87784" lon="5.88922">
        <ele>874.6</ele>
        <time>2020-12-26T15:59:08Z</time>
      </trkpt>
      <trkpt lat="46.87791" lon="5.88914">
        <ele>874.2</ele>
        <time>2020-12-26T15:59:09Z</time>
      </trkpt>
      <trkpt lat="46.87799" lon="5.88905">
        <ele>874</ele>
        <time>2020-12-26T15:59:10Z</time>
      </trkpt>
      <trkpt lat="46.87805" lon="5.88896">
        <ele>873.6</ele>
        <time>2020-12-26T15:59:11Z</time>
      </trkpt>
      <trkpt lat="46.87813" lon="5.88887">
        <ele>873.4</ele>
        <time>2020-12-26T15:59:12Z</time>
      </trkpt>
      <trkpt lat="46.8782" lon="5.88879">
        <ele>873</ele>
        <time>2020-12-26T15:59:13Z</time>
      </trkpt>
      <trkpt lat="46.87827" lon="5.88871">
        <ele>873</ele>
        <time>2020-12-26T15:59:14Z</time>
      </trkpt>
      <trkpt lat="46.87835" lon="5.88866">
        <ele>872.6</ele>
        <time>2020-12-26T15:59:15Z</time>
      </trkpt>
      <trkpt lat="46.87844" lon="5.88862">
        <ele>872.4</ele>
        <time>2020-12-26T15:59:16Z</time>
      </trkpt>
      <trkpt lat="46.87852" lon="5.88859">
        <ele>872.4</ele>
        <time>2020-12-26T15:59:17Z</time>
      </trkpt>
      <trkpt lat="46.8786" lon="5.88857">
        <ele>872.4</ele>
        <time>2020-12-26T15:59:18Z</time>
      </trkpt>
      <trkpt lat="46.87868" lon="5.88856">
        <ele>872.4</ele>
        <time>2020-12-26T15:59:19Z</time>
      </trkpt>
      <trkpt lat="46.87876" lon="5.88853">
        <ele>872.2</ele>
        <time>2020-12-26T15:59:20Z</time>
      </trkpt>
      <trkpt lat="46.87882" lon="5.88851">
        <ele>872.2</ele>
        <time>2020-12-26T15:59:21Z</time>
      </trkpt>
      <trkpt lat="46.87888" lon="5.88849">
        <ele>872.2</ele>
        <time>2020-12-26T15:59:22Z</time>
      </trkpt>
      <trkpt lat="46.87894" lon="5.88846">
        <ele>872.2</ele>
        <time>2020-12-26T15:59:23Z</time>
      </trkpt>
      <trkpt lat="46.879" lon="5.88842">
        <ele>872.2</ele>
        <time>2020-12-26T15:59:24Z</time>
      </trkpt>
      <trkpt lat="46.87905" lon="5.88837">
        <ele>872</ele>
        <time>2020-12-26T15:59:25Z</time>
      </trkpt>
      <trkpt lat="46.87909" lon="5.8883">
        <ele>872</ele>
        <time>2020-12-26T15:59:26Z</time>
      </trkpt>
      <trkpt lat="46.87913" lon="5.88822">
        <ele>871.8</ele>
        <time>2020-12-26T15:59:27Z</time>
      </trkpt>
      <trkpt lat="46.87915" lon="5.88814">
        <ele>871.8</ele>
        <time>2020-12-26T15:59:28Z</time>
      </trkpt>
      <trkpt lat="46.87918" lon="5.88804">
        <ele>871.6</ele>
        <time>2020-12-26T15:59:29Z</time>
      </trkpt>
      <trkpt lat="46.87919" lon="5.88795">
        <ele>871.6</ele>
        <time>2020-12-26T15:59:30Z</time>
      </trkpt>
      <trkpt lat="46.87921" lon="5.88785">
        <ele>871.2</ele>
        <time>2020-12-26T15:59:31Z</time>
      </trkpt>
      <trkpt lat="46.87922" lon="5.88775">
        <ele>871.2</ele>
        <time>2020-12-26T15:59:32Z</time>
      </trkpt>
      <trkpt lat="46.87924" lon="5.88765">
        <ele>871.2</ele>
        <time>2020-12-26T15:59:33Z</time>
      </trkpt>
      <trkpt lat="46.87926" lon="5.88756">
        <ele>871.2</ele>
        <time>2020-12-26T15:59:34Z</time>
      </trkpt>
      <trkpt lat="46.87928" lon="5.88746">
        <ele>871.2</ele>
        <time>2020-12-26T15:59:35Z</time>
      </trkpt>
      <trkpt lat="46.8793" lon="5.88736">
        <ele>871.2</ele>
        <time>2020-12-26T15:59:36Z</time>
      </trkpt>
      <trkpt lat="46.87933" lon="5.88727">
        <ele>871.2</ele>
        <time>2020-12-26T15:59:37Z</time>
      </trkpt>
      <trkpt lat="46.87937" lon="5.88719">
        <ele>871.2</ele>
        <time>2020-12-26T15:59:38Z</time>
      </trkpt>
      <trkpt lat="46.87942" lon="5.8871">
        <ele>871.2</ele>
        <time>2020-12-26T15:59:39Z</time>
      </trkpt>
      <trkpt lat="46.87946" lon="5.88703">
        <ele>871.2</ele>
        <time>2020-12-26T15:59:40Z</time>
      </trkpt>
      <trkpt lat="46.87951" lon="5.88696">
        <ele>871.2</ele>
        <time>2020-12-26T15:59:41Z</time>
      </trkpt>
      <trkpt lat="46.87956" lon="5.88689">
        <ele>871.6</ele>
        <time>2020-12-26T15:59:42Z</time>
      </trkpt>
      <trkpt lat="46.87961" lon="5.88682">
        <ele>871.8</ele>
        <time>2020-12-26T15:59:43Z</time>
      </trkpt>
      <trkpt lat="46.87966" lon="5.88675">
        <ele>872.2</ele>
        <time>2020-12-26T15:59:44Z</time>
      </trkpt>
      <trkpt lat="46.87971" lon="5.88669">
        <ele>872.4</ele>
        <time>2020-12-26T15:59:45Z</time>
      </trkpt>
      <trkpt lat="46.87975" lon="5.88662">
        <ele>872.6</ele>
        <time>2020-12-26T15:59:46Z</time>
      </trkpt>
      <trkpt lat="46.8798" lon="5.88655">
        <ele>873</ele>
        <time>2020-12-26T15:59:47Z</time>
      </trkpt>
      <trkpt lat="46.87984" lon="5.88649">
        <ele>873.4</ele>
        <time>2020-12-26T15:59:48Z</time>
      </trkpt>
      <trkpt lat="46.87988" lon="5.88643">
        <ele>873.8</ele>
        <time>2020-12-26T15:59:49Z</time>
      </trkpt>
      <trkpt lat="46.87992" lon="5.88637">
        <ele>874.2</ele>
        <time>2020-12-26T15:59:50Z</time>
      </trkpt>
      <trkpt lat="46.87996" lon="5.88631">
        <ele>874.6</ele>
        <time>2020-12-26T15:59:51Z</time>
      </trkpt>
      <trkpt lat="46.88" lon="5.88625">
        <ele>875</ele>
        <time>2020-12-26T15:59:52Z</time>
      </trkpt>
      <trkpt lat="46.88004" lon="5.8862">
        <ele>875.4</ele>
        <time>2020-12-26T15:59:53Z</time>
      </trkpt>
      <trkpt lat="46.88009" lon="5.88614">
        <ele>875.4</ele>
        <time>2020-12-26T15:59:54Z</time>
      </trkpt>
      <trkpt lat="46.88013" lon="5.88609">
        <ele>875.8</ele>
        <time>2020-12-26T15:59:55Z</time>
      </trkpt>
      <trkpt lat="46.88017" lon="5.88603">
        <ele>875.8</ele>
        <time>2020-12-26T15:59:56Z</time>
      </trkpt>
      <trkpt lat="46.88021" lon="5.88597">
        <ele>876</ele>
        <time>2020-12-26T15:59:57Z</time>
      </trkpt>
      <trkpt lat="46.88026" lon="5.88591">
        <ele>876</ele>
        <time>2020-12-26T15:59:58Z</time>
      </trkpt>
      <trkpt lat="46.8803" lon="5.88586">
        <ele>876.4</ele>
        <time>2020-12-26T15:59:59Z</time>
      </trkpt>
      <trkpt lat="46.88034" lon="5.8858">
        <ele>876.4</ele>
        <time>2020-12-26T16:00:00Z</time>
      </trkpt>
      <trkpt lat="46.88039" lon="5.88574">
        <ele>876.4</ele>
        <time>2020-12-26T16:00:01Z</time>
      </trkpt>
      <trkpt lat="46.88043" lon="5.88568">
        <ele>876.4</ele>
        <time>2020-12-26T16:00:02Z</time>
      </trkpt>
      <trkpt lat="46.88047" lon="5.88562">
        <ele>876.4</ele>
        <time>2020-12-26T16:00:03Z</time>
      </trkpt>
      <trkpt lat="46.88052" lon="5.88556">
        <ele>876.4</ele>
        <time>2020-12-26T16:00:04Z</time>
      </trkpt>
      <trkpt lat="46.88057" lon="5.8855">
        <ele>876.4</ele>
        <time>2020-12-26T16:00:05Z</time>
      </trkpt>
      <trkpt lat="46.88061" lon="5.88544">
        <ele>876.2</ele>
        <time>2020-12-26T16:00:06Z</time>
      </trkpt>
      <trkpt lat="46.88066" lon="5.88537">
        <ele>875.8</ele>
        <time>2020-12-26T16:00:07Z</time>
      </trkpt>
      <trkpt lat="46.88072" lon="5.8853">
        <ele>875.6</ele>
        <time>2020-12-26T16:00:08Z</time>
      </trkpt>
      <trkpt lat="46.88077" lon="5.88523">
        <ele>875.4</ele>
        <time>2020-12-26T16:00:09Z</time>
      </trkpt>
      <trkpt lat="46.88082" lon="5.88516">
        <ele>875</ele>
        <time>2020-12-26T16:00:10Z</time>
      </trkpt>
      <trkpt lat="46.88088" lon="5.88509">
        <ele>874.8</ele>
        <time>2020-12-26T16:00:11Z</time>
      </trkpt>
      <trkpt lat="46.88093" lon="5.88501">
        <ele>874.2</ele>
        <time>2020-12-26T16:00:12Z</time>
      </trkpt>
      <trkpt lat="46.88099" lon="5.88493">
        <ele>873.8</ele>
        <time>2020-12-26T16:00:13Z</time>
      </trkpt>
      <trkpt lat="46.88105" lon="5.88485">
        <ele>873.2</ele>
        <time>2020-12-26T16:00:14Z</time>
      </trkpt>
      <trkpt lat="46.88112" lon="5.88477">
        <ele>872.6</ele>
        <time>2020-12-26T16:00:15Z</time>
      </trkpt>
      <trkpt lat="46.88118" lon="5.88468">
        <ele>872.2</ele>
        <time>2020-12-26T16:00:16Z</time>
      </trkpt>
      <trkpt lat="46.88124" lon="5.88459">
        <ele>871.8</ele>
        <time>2020-12-26T16:00:17Z</time>
      </trkpt>
      <trkpt lat="46.88131" lon="5.8845">
        <ele>871.2</ele>
        <time>2020-12-26T16:00:18Z</time>
      </trkpt>
      <trkpt lat="46.88138" lon="5.88441">
        <ele>870.8</ele>
        <time>2020-12-26T16:00:19Z</time>
      </trkpt>
      <trkpt lat="46.88145" lon="5.88431">
        <ele>870.4</ele>
        <time>2020-12-26T16:00:20Z</time>
      </trkpt>
      <trkpt lat="46.88152" lon="5.88421">
        <ele>869.8</ele>
        <time>2020-12-26T16:00:21Z</time>
      </trkpt>
      <trkpt lat="46.88159" lon="5.88412">
        <ele>869.2</ele>
        <time>2020-12-26T16:00:22Z</time>
      </trkpt>
      <trkpt lat="46.88167" lon="5.88402">
        <ele>868.6</ele>
        <time>2020-12-26T16:00:23Z</time>
      </trkpt>
      <trkpt lat="46.88174" lon="5.88392">
        <ele>868</ele>
        <time>2020-12-26T16:00:24Z</time>
      </trkpt>
      <trkpt lat="46.88181" lon="5.88382">
        <ele>867.2</ele>
        <time>2020-12-26T16:00:25Z</time>
      </trkpt>
      <trkpt lat="46.88189" lon="5.88372">
        <ele>866.6</ele>
        <time>2020-12-26T16:00:26Z</time>
      </trkpt>
      <trkpt lat="46.88197" lon="5.88361">
        <ele>866</ele>
        <time>2020-12-26T16:00:27Z</time>
      </trkpt>
      <trkpt lat="46.88204" lon="5.8835">
        <ele>865.4</ele>
        <time>2020-12-26T16:00:28Z</time>
      </trkpt>
      <trkpt lat="46.88212" lon="5.88339">
        <ele>864.6</ele>
        <time>2020-12-26T16:00:29Z</time>
      </trkpt>
      <trkpt lat="46.8822" lon="5.88329">
        <ele>864.2</ele>
        <time>2020-12-26T16:00:30Z</time>
      </trkpt>
      <trkpt lat="46.88228" lon="5.88318">
        <ele>863.4</ele>
        <time>2020-12-26T16:00:31Z</time>
      </trkpt>
      <trkpt lat="46.88236" lon="5.88308">
        <ele>862.8</ele>
        <time>2020-12-26T16:00:32Z</time>
      </trkpt>
      <trkpt lat="46.88244" lon="5.88297">
        <ele>862.2</ele>
        <time>2020-12-26T16:00:33Z</time>
      </trkpt>
      <trkpt lat="46.88252" lon="5.88286">
        <ele>861.6</ele>
        <time>2020-12-26T16:00:34Z</time>
      </trkpt>
      <trkpt lat="46.8826" lon="5.88276">
        <ele>861.2</ele>
        <time>2020-12-26T16:00:35Z</time>
      </trkpt>
      <trkpt lat="46.88268" lon="5.88266">
        <ele>860.8</ele>
        <time>2020-12-26T16:00:36Z</time>
      </trkpt>
      <trkpt lat="46.88275" lon="5.88255">
        <ele>860.2</ele>
        <time>2020-12-26T16:00:37Z</time>
      </trkpt>
      <trkpt lat="46.88283" lon="5.88245">
        <ele>860</ele>
        <time>2020-12-26T16:00:38Z</time>
      </trkpt>
      <trkpt lat="46.88291" lon="5.88236">
        <ele>859.6</ele>
        <time>2020-12-26T16:00:39Z</time>
      </trkpt>
      <trkpt lat="46.88299" lon="5.88226">
        <ele>859.2</ele>
        <time>2020-12-26T16:00:40Z</time>
      </trkpt>
      <trkpt lat="46.88306" lon="5.88216">
        <ele>859</ele>
        <time>2020-12-26T16:00:41Z</time>
      </trkpt>
      <trkpt lat="46.88313" lon="5.88207">
        <ele>858.6</ele>
        <time>2020-12-26T16:00:42Z</time>
      </trkpt>
      <trkpt lat="46.88319" lon="5.88197">
        <ele>858.4</ele>
        <time>2020-12-26T16:00:43Z</time>
      </trkpt>
      <trkpt lat="46.88326" lon="5.88188">
        <ele>858.4</ele>
        <time>2020-12-26T16:00:44Z</time>
      </trkpt>
      <trkpt lat="46.88333" lon="5.88179">
        <ele>858.2</ele>
        <time>2020-12-26T16:00:45Z</time>
      </trkpt>
      <trkpt lat="46.88339" lon="5.8817">
        <ele>858.2</ele>
        <time>2020-12-26T16:00:46Z</time>
      </trkpt>
      <trkpt lat="46.88346" lon="5.88162">
        <ele>858.2</ele>
        <time>2020-12-26T16:00:47Z</time>
      </trkpt>
      <trkpt lat="46.88352" lon="5.88153">
        <ele>858.2</ele>
        <time>2020-12-26T16:00:48Z</time>
      </trkpt>
      <trkpt lat="46.88359" lon="5.88144">
        <ele>858.2</ele>
        <time>2020-12-26T16:00:49Z</time>
      </trkpt>
      <trkpt lat="46.88365" lon="5.88135">
        <ele>857.8</ele>
        <time>2020-12-26T16:00:50Z</time>
      </trkpt>
      <trkpt lat="46.88372" lon="5.88126">
        <ele>857.8</ele>
        <time>2020-12-26T16:00:51Z</time>
      </trkpt>
      <trkpt lat="46.88378" lon="5.88117">
        <ele>857.6</ele>
        <time>2020-12-26T16:00:52Z</time>
      </trkpt>
      <trkpt lat="46.88385" lon="5.88109">
        <ele>857.4</ele>
        <time>2020-12-26T16:00:53Z</time>
      </trkpt>
      <trkpt lat="46.88392" lon="5.88101">
        <ele>857.2</ele>
        <time>2020-12-26T16:00:54Z</time>
      </trkpt>
      <trkpt lat="46.88399" lon="5.88092">
        <ele>857</ele>
        <time>2020-12-26T16:00:55Z</time>
      </trkpt>
      <trkpt lat="46.88405" lon="5.88081">
        <ele>856.6</ele>
        <time>2020-12-26T16:00:56Z</time>
      </trkpt>
      <trkpt lat="46.88412" lon="5.88072">
        <ele>856.4</ele>
        <time>2020-12-26T16:00:57Z</time>
      </trkpt>
      <trkpt lat="46.88419" lon="5.88062">
        <ele>856.2</ele>
        <time>2020-12-26T16:00:58Z</time>
      </trkpt>
      <trkpt lat="46.88426" lon="5.88052">
        <ele>855.8</ele>
        <time>2020-12-26T16:00:59Z</time>
      </trkpt>
      <trkpt lat="46.88434" lon="5.88042">
        <ele>855.4</ele>
        <time>2020-12-26T16:01:00Z</time>
      </trkpt>
      <trkpt lat="46.8844" lon="5.88033">
        <ele>855.2</ele>
        <time>2020-12-26T16:01:01Z</time>
      </trkpt>
      <trkpt lat="46.88447" lon="5.88024">
        <ele>855</ele>
        <time>2020-12-26T16:01:02Z</time>
      </trkpt>
      <trkpt lat="46.88455" lon="5.88016">
        <ele>854.8</ele>
        <time>2020-12-26T16:01:03Z</time>
      </trkpt>
      <trkpt lat="46.88462" lon="5.88007">
        <ele>854.8</ele>
        <time>2020-12-26T16:01:04Z</time>
      </trkpt>
      <trkpt lat="46.88469" lon="5.87998">
        <ele>854.4</ele>
        <time>2020-12-26T16:01:05Z</time>
      </trkpt>
      <trkpt lat="46.88476" lon="5.87989">
        <ele>854.4</ele>
        <time>2020-12-26T16:01:06Z</time>
      </trkpt>
      <trkpt lat="46.88483" lon="5.8798">
        <ele>854</ele>
        <time>2020-12-26T16:01:07Z</time>
      </trkpt>
      <trkpt lat="46.88489" lon="5.87971">
        <ele>854</ele>
        <time>2020-12-26T16:01:08Z</time>
      </trkpt>
      <trkpt lat="46.88496" lon="5.87962">
        <ele>854</ele>
        <time>2020-12-26T16:01:09Z</time>
      </trkpt>
      <trkpt lat="46.88502" lon="5.87953">
        <ele>854</ele>
        <time>2020-12-26T16:01:10Z</time>
      </trkpt>
      <trkpt lat="46.88508" lon="5.87944">
        <ele>854</ele>
        <time>2020-12-26T16:01:11Z</time>
      </trkpt>
      <trkpt lat="46.88514" lon="5.87936">
        <ele>854</ele>
        <time>2020-12-26T16:01:12Z</time>
      </trkpt>
      <trkpt lat="46.8852" lon="5.87928">
        <ele>854.2</ele>
        <time>2020-12-26T16:01:13Z</time>
      </trkpt>
      <trkpt lat="46.88526" lon="5.8792">
        <ele>854.2</ele>
        <time>2020-12-26T16:01:14Z</time>
      </trkpt>
      <trkpt lat="46.88532" lon="5.87913">
        <ele>854.2</ele>
        <time>2020-12-26T16:01:15Z</time>
      </trkpt>
      <trkpt lat="46.88538" lon="5.87905">
        <ele>854.2</ele>
        <time>2020-12-26T16:01:16Z</time>
      </trkpt>
      <trkpt lat="46.88543" lon="5.87898">
        <ele>854.2</ele>
        <time>2020-12-26T16:01:17Z</time>
      </trkpt>
      <trkpt lat="46.88549" lon="5.8789">
        <ele>854.2</ele>
        <time>2020-12-26T16:01:18Z</time>
      </trkpt>
      <trkpt lat="46.88555" lon="5.87883">
        <ele>854.2</ele>
        <time>2020-12-26T16:01:19Z</time>
      </trkpt>
      <trkpt lat="46.88561" lon="5.87875">
        <ele>854.2</ele>
        <time>2020-12-26T16:01:20Z</time>
      </trkpt>
      <trkpt lat="46.88566" lon="5.87867">
        <ele>854.2</ele>
        <time>2020-12-26T16:01:21Z</time>
      </trkpt>
      <trkpt lat="46.88572" lon="5.87859">
        <ele>854.2</ele>
        <time>2020-12-26T16:01:22Z</time>
      </trkpt>
      <trkpt lat="46.88578" lon="5.87851">
        <ele>854.2</ele>
        <time>2020-12-26T16:01:23Z</time>
      </trkpt>
      <trkpt lat="46.88584" lon="5.87843">
        <ele>854</ele>
        <time>2020-12-26T16:01:24Z</time>
      </trkpt>
      <trkpt lat="46.8859" lon="5.87835">
        <ele>854</ele>
        <time>2020-12-26T16:01:25Z</time>
      </trkpt>
      <trkpt lat="46.88595" lon="5.87828">
        <ele>854</ele>
        <time>2020-12-26T16:01:26Z</time>
      </trkpt>
      <trkpt lat="46.88601" lon="5.8782">
        <ele>853.8</ele>
        <time>2020-12-26T16:01:27Z</time>
      </trkpt>
      <trkpt lat="46.88607" lon="5.87812">
        <ele>853.8</ele>
        <time>2020-12-26T16:01:28Z</time>
      </trkpt>
      <trkpt lat="46.88613" lon="5.87804">
        <ele>853.8</ele>
        <time>2020-12-26T16:01:29Z</time>
      </trkpt>
      <trkpt lat="46.88619" lon="5.87797">
        <ele>853.4</ele>
        <time>2020-12-26T16:01:30Z</time>
      </trkpt>
      <trkpt lat="46.88624" lon="5.87789">
        <ele>853.4</ele>
        <time>2020-12-26T16:01:31Z</time>
      </trkpt>
      <trkpt lat="46.8863" lon="5.87781">
        <ele>853.2</ele>
        <time>2020-12-26T16:01:32Z</time>
      </trkpt>
      <trkpt lat="46.88636" lon="5.87774">
        <ele>853.2</ele>
        <time>2020-12-26T16:01:33Z</time>
      </trkpt>
      <trkpt lat="46.88642" lon="5.87766">
        <ele>853.2</ele>
        <time>2020-12-26T16:01:34Z</time>
      </trkpt>
      <trkpt lat="46.88648" lon="5.87759">
        <ele>853.2</ele>
        <time>2020-12-26T16:01:35Z</time>
      </trkpt>
      <trkpt lat="46.88653" lon="5.87751">
        <ele>853.2</ele>
        <time>2020-12-26T16:01:36Z</time>
      </trkpt>
      <trkpt lat="46.88659" lon="5.87744">
        <ele>853.2</ele>
        <time>2020-12-26T16:01:37Z</time>
      </trkpt>
      <trkpt lat="46.88664" lon="5.87736">
        <ele>853.2</ele>
        <time>2020-12-26T16:01:38Z</time>
      </trkpt>
      <trkpt lat="46.88669" lon="5.87729">
        <ele>853.2</ele>
        <time>2020-12-26T16:01:39Z</time>
      </trkpt>
      <trkpt lat="46.88674" lon="5.87722">
        <ele>853.2</ele>
        <time>2020-12-26T16:01:40Z</time>
      </trkpt>
      <trkpt lat="46.8868" lon="5.87715">
        <ele>853.2</ele>
        <time>2020-12-26T16:01:41Z</time>
      </trkpt>
      <trkpt lat="46.88685" lon="5.87708">
        <ele>853.6</ele>
        <time>2020-12-26T16:01:42Z</time>
      </trkpt>
      <trkpt lat="46.8869" lon="5.87701">
        <ele>853.6</ele>
        <time>2020-12-26T16:01:43Z</time>
      </trkpt>
      <trkpt lat="46.88694" lon="5.87694">
        <ele>853.8</ele>
        <time>2020-12-26T16:01:44Z</time>
      </trkpt>
      <trkpt lat="46.88699" lon="5.87688">
        <ele>853.8</ele>
        <time>2020-12-26T16:01:45Z</time>
      </trkpt>
      <trkpt lat="46.88704" lon="5.87681">
        <ele>853.8</ele>
        <time>2020-12-26T16:01:46Z</time>
      </trkpt>
      <trkpt lat="46.88709" lon="5.87674">
        <ele>854.2</ele>
        <time>2020-12-26T16:01:47Z</time>
      </trkpt>
      <trkpt lat="46.88714" lon="5.87667">
        <ele>854.2</ele>
        <time>2020-12-26T16:01:48Z</time>
      </trkpt>
      <trkpt lat="46.88718" lon="5.87661">
        <ele>854.4</ele>
        <time>2020-12-26T16:01:49Z</time>
      </trkpt>
      <trkpt lat="46.88723" lon="5.87654">
        <ele>854.4</ele>
        <time>2020-12-26T16:01:50Z</time>
      </trkpt>
      <trkpt lat="46.88728" lon="5.87648">
        <ele>854.8</ele>
        <time>2020-12-26T16:01:51Z</time>
      </trkpt>
      <trkpt lat="46.88732" lon="5.87642">
        <ele>855.2</ele>
        <time>2020-12-26T16:01:52Z</time>
      </trkpt>
      <trkpt lat="46.88737" lon="5.87636">
        <ele>855.4</ele>
        <time>2020-12-26T16:01:53Z</time>
      </trkpt>
      <trkpt lat="46.88741" lon="5.8763">
        <ele>855.6</ele>
        <time>2020-12-26T16:01:54Z</time>
      </trkpt>
      <trkpt lat="46.88745" lon="5.87624">
        <ele>855.8</ele>
        <time>2020-12-26T16:01:55Z</time>
      </trkpt>
      <trkpt lat="46.88749" lon="5.87619">
        <ele>855.8</ele>
        <time>2020-12-26T16:01:56Z</time>
      </trkpt>
      <trkpt lat="46.88754" lon="5.87613">
        <ele>856.2</ele>
        <time>2020-12-26T16:01:57Z</time>
      </trkpt>
      <trkpt lat="46.88758" lon="5.87608">
        <ele>856.2</ele>
        <time>2020-12-26T16:01:58Z</time>
      </trkpt>
      <trkpt lat="46.88762" lon="5.87602">
        <ele>856.6</ele>
        <time>2020-12-26T16:01:59Z</time>
      </trkpt>
      <trkpt lat="46.88767" lon="5.87596">
        <ele>856.8</ele>
        <time>2020-12-26T16:02:00Z</time>
      </trkpt>
      <trkpt lat="46.88771" lon="5.8759">
        <ele>856.8</ele>
        <time>2020-12-26T16:02:01Z</time>
      </trkpt>
      <trkpt lat="46.88776" lon="5.87584">
        <ele>857</ele>
        <time>2020-12-26T16:02:02Z</time>
      </trkpt>
      <trkpt lat="46.8878" lon="5.87579">
        <ele>857.2</ele>
        <time>2020-12-26T16:02:03Z</time>
      </trkpt>
      <trkpt lat="46.88784" lon="5.87573">
        <ele>857.4</ele>
        <time>2020-12-26T16:02:04Z</time>
      </trkpt>
      <trkpt lat="46.88788" lon="5.87567">
        <ele>857.4</ele>
        <time>2020-12-26T16:02:05Z</time>
      </trkpt>
      <trkpt lat="46.88793" lon="5.87561">
        <ele>857.4</ele>
        <time>2020-12-26T16:02:06Z</time>
      </trkpt>
      <trkpt lat="46.88797" lon="5.87555">
        <ele>857.6</ele>
        <time>2020-12-26T16:02:07Z</time>
      </trkpt>
      <trkpt lat="46.88802" lon="5.8755">
        <ele>857.6</ele>
        <time>2020-12-26T16:02:08Z</time>
      </trkpt>
      <trkpt lat="46.88806" lon="5.87544">
        <ele>857.6</ele>
        <time>2020-12-26T16:02:09Z</time>
      </trkpt>
      <trkpt lat="46.8881" lon="5.87538">
        <ele>857.8</ele>
        <time>2020-12-26T16:02:10Z</time>
      </trkpt>
      <trkpt lat="46.88814" lon="5.87532">
        <ele>857.8</ele>
        <time>2020-12-26T16:02:11Z</time>
      </trkpt>
      <trkpt lat="46.88818" lon="5.87527">
        <ele>858.2</ele>
        <time>2020-12-26T16:02:12Z</time>
      </trkpt>
      <trkpt lat="46.88822" lon="5.87522">
        <ele>858.2</ele>
        <time>2020-12-26T16:02:13Z</time>
      </trkpt>
      <trkpt lat="46.88826" lon="5.87517">
        <ele>858.4</ele>
        <time>2020-12-26T16:02:14Z</time>
      </trkpt>
      <trkpt lat="46.8883" lon="5.87512">
        <ele>858.4</ele>
        <time>2020-12-26T16:02:15Z</time>
      </trkpt>
      <trkpt lat="46.88833" lon="5.87507">
        <ele>858.4</ele>
        <time>2020-12-26T16:02:16Z</time>
      </trkpt>
      <trkpt lat="46.88837" lon="5.87502">
        <ele>858.8</ele>
        <time>2020-12-26T16:02:17Z</time>
      </trkpt>
      <trkpt lat="46.8884" lon="5.87497">
        <ele>858.8</ele>
        <time>2020-12-26T16:02:18Z</time>
      </trkpt>
      <trkpt lat="46.88844" lon="5.87492">
        <ele>859</ele>
        <time>2020-12-26T16:02:19Z</time>
      </trkpt>
      <trkpt lat="46.88848" lon="5.87487">
        <ele>859</ele>
        <time>2020-12-26T16:02:20Z</time>
      </trkpt>
      <trkpt lat="46.88852" lon="5.87482">
        <ele>859.4</ele>
        <time>2020-12-26T16:02:21Z</time>
      </trkpt>
      <trkpt lat="46.88855" lon="5.87477">
        <ele>859.4</ele>
        <time>2020-12-26T16:02:22Z</time>
      </trkpt>
      <trkpt lat="46.88859" lon="5.87471">
        <ele>859.8</ele>
        <time>2020-12-26T16:02:23Z</time>
      </trkpt>
      <trkpt lat="46.88863" lon="5.87466">
        <ele>859.8</ele>
        <time>2020-12-26T16:02:24Z</time>
      </trkpt>
      <trkpt lat="46.88867" lon="5.87461">
        <ele>860</ele>
        <time>2020-12-26T16:02:25Z</time>
      </trkpt>
      <trkpt lat="46.88871" lon="5.87456">
        <ele>860</ele>
        <time>2020-12-26T16:02:26Z</time>
      </trkpt>
      <trkpt lat="46.88875" lon="5.87451">
        <ele>860.2</ele>
        <time>2020-12-26T16:02:27Z</time>
      </trkpt>
      <trkpt lat="46.88878" lon="5.87447">
        <ele>860.4</ele>
        <time>2020-12-26T16:02:28Z</time>
      </trkpt>
      <trkpt lat="46.88882" lon="5.87442">
        <ele>860.4</ele>
        <time>2020-12-26T16:02:29Z</time>
      </trkpt>
      <trkpt lat="46.88886" lon="5.87437">
        <ele>860.8</ele>
        <time>2020-12-26T16:02:30Z</time>
      </trkpt>
      <trkpt lat="46.8889" lon="5.87433">
        <ele>861</ele>
        <time>2020-12-26T16:02:31Z</time>
      </trkpt>
      <trkpt lat="46.88894" lon="5.87428">
        <ele>861.2</ele>
        <time>2020-12-26T16:02:32Z</time>
      </trkpt>
      <trkpt lat="46.88897" lon="5.87424">
        <ele>861.2</ele>
        <time>2020-12-26T16:02:33Z</time>
      </trkpt>
      <trkpt lat="46.889" lon="5.8742">
        <ele>861.4</ele>
        <time>2020-12-26T16:02:34Z</time>
      </trkpt>
      <trkpt lat="46.88904" lon="5.87415">
        <ele>861.4</ele>
        <time>2020-12-26T16:02:35Z</time>
      </trkpt>
      <trkpt lat="46.88908" lon="5.87411">
        <ele>861.8</ele>
        <time>2020-12-26T16:02:36Z</time>
      </trkpt>
      <trkpt lat="46.88911" lon="5.87406">
        <ele>862.2</ele>
        <time>2020-12-26T16:02:37Z</time>
      </trkpt>
      <trkpt lat="46.88915" lon="5.87401">
        <ele>862.2</ele>
        <time>2020-12-26T16:02:38Z</time>
      </trkpt>
      <trkpt lat="46.88919" lon="5.87396">
        <ele>862.6</ele>
        <time>2020-12-26T16:02:39Z</time>
      </trkpt>
      <trkpt lat="46.88922" lon="5.87391">
        <ele>862.6</ele>
        <time>2020-12-26T16:02:40Z</time>
      </trkpt>
      <trkpt lat="46.88926" lon="5.87386">
        <ele>862.8</ele>
        <time>2020-12-26T16:02:41Z</time>
      </trkpt>
      <trkpt lat="46.88929" lon="5.8738">
        <ele>862.8</ele>
        <time>2020-12-26T16:02:42Z</time>
      </trkpt>
      <trkpt lat="46.88933" lon="5.87375">
        <ele>862.8</ele>
        <time>2020-12-26T16:02:43Z</time>
      </trkpt>
      <trkpt lat="46.88936" lon="5.8737">
        <ele>863.2</ele>
        <time>2020-12-26T16:02:44Z</time>
      </trkpt>
      <trkpt lat="46.8894" lon="5.87365">
        <ele>863.2</ele>
        <time>2020-12-26T16:02:45Z</time>
      </trkpt>
      <trkpt lat="46.88943" lon="5.87361">
        <ele>863.2</ele>
        <time>2020-12-26T16:02:46Z</time>
      </trkpt>
      <trkpt lat="46.88947" lon="5.87356">
        <ele>863.2</ele>
        <time>2020-12-26T16:02:47Z</time>
      </trkpt>
      <trkpt lat="46.88951" lon="5.87351">
        <ele>863.4</ele>
        <time>2020-12-26T16:02:48Z</time>
      </trkpt>
      <trkpt lat="46.88954" lon="5.87346">
        <ele>863.4</ele>
        <time>2020-12-26T16:02:49Z</time>
      </trkpt>
      <trkpt lat="46.88958" lon="5.87341">
        <ele>863.4</ele>
        <time>2020-12-26T16:02:50Z</time>
      </trkpt>
      <trkpt lat="46.88961" lon="5.87336">
        <ele>863.4</ele>
        <time>2020-12-26T16:02:51Z</time>
      </trkpt>
      <trkpt lat="46.88965" lon="5.87332">
        <ele>863.4</ele>
        <time>2020-12-26T16:02:52Z</time>
      </trkpt>
      <trkpt lat="46.88968" lon="5.87327">
        <ele>863.4</ele>
        <time>2020-12-26T16:02:53Z</time>
      </trkpt>
      <trkpt lat="46.88972" lon="5.87322">
        <ele>863.4</ele>
        <time>2020-12-26T16:02:54Z</time>
      </trkpt>
      <trkpt lat="46.88975" lon="5.87318">
        <ele>863.4</ele>
        <time>2020-12-26T16:02:55Z</time>
      </trkpt>
      <trkpt lat="46.88978" lon="5.87314">
        <ele>863.4</ele>
        <time>2020-12-26T16:02:56Z</time>
      </trkpt>
      <trkpt lat="46.88982" lon="5.8731">
        <ele>863.4</ele>
        <time>2020-12-26T16:02:57Z</time>
      </trkpt>
      <trkpt lat="46.88985" lon="5.87306">
        <ele>863.4</ele>
        <time>2020-12-26T16:02:58Z</time>
      </trkpt>
      <trkpt lat="46.88988" lon="5.87301">
        <ele>863.4</ele>
        <time>2020-12-26T16:02:59Z</time>
      </trkpt>
      <trkpt lat="46.88991" lon="5.87297">
        <ele>863.4</ele>
        <time>2020-12-26T16:03:00Z</time>
      </trkpt>
      <trkpt lat="46.88994" lon="5.87293">
        <ele>863.4</ele>
        <time>2020-12-26T16:03:01Z</time>
      </trkpt>
      <trkpt lat="46.88998" lon="5.87289">
        <ele>863.6</ele>
        <time>2020-12-26T16:03:02Z</time>
      </trkpt>
      <trkpt lat="46.89001" lon="5.87284">
        <ele>863.6</ele>
        <time>2020-12-26T16:03:03Z</time>
      </trkpt>
      <trkpt lat="46.89005" lon="5.87279">
        <ele>863.6</ele>
        <time>2020-12-26T16:03:04Z</time>
      </trkpt>
      <trkpt lat="46.89009" lon="5.87274">
        <ele>863.2</ele>
        <time>2020-12-26T16:03:05Z</time>
      </trkpt>
      <trkpt lat="46.89013" lon="5.87269">
        <ele>863</ele>
        <time>2020-12-26T16:03:06Z</time>
      </trkpt>
      <trkpt lat="46.89017" lon="5.87263">
        <ele>862.6</ele>
        <time>2020-12-26T16:03:07Z</time>
      </trkpt>
      <trkpt lat="46.89021" lon="5.87257">
        <ele>862.2</ele>
        <time>2020-12-26T16:03:08Z</time>
      </trkpt>
      <trkpt lat="46.89026" lon="5.8725">
        <ele>861.8</ele>
        <time>2020-12-26T16:03:09Z</time>
      </trkpt>
      <trkpt lat="46.89031" lon="5.87243">
        <ele>861.4</ele>
        <time>2020-12-26T16:03:10Z</time>
      </trkpt>
      <trkpt lat="46.89037" lon="5.87235">
        <ele>860.8</ele>
        <time>2020-12-26T16:03:11Z</time>
      </trkpt>
      <trkpt lat="46.89043" lon="5.87227">
        <ele>860.2</ele>
        <time>2020-12-26T16:03:12Z</time>
      </trkpt>
      <trkpt lat="46.89049" lon="5.87219">
        <ele>859.6</ele>
        <time>2020-12-26T16:03:13Z</time>
      </trkpt>
      <trkpt lat="46.89055" lon="5.8721">
        <ele>859</ele>
        <time>2020-12-26T16:03:14Z</time>
      </trkpt>
      <trkpt lat="46.89062" lon="5.87201">
        <ele>858.4</ele>
        <time>2020-12-26T16:03:15Z</time>
      </trkpt>
      <trkpt lat="46.89069" lon="5.87192">
        <ele>857.8</ele>
        <time>2020-12-26T16:03:16Z</time>
      </trkpt>
      <trkpt lat="46.89076" lon="5.87182">
        <ele>857.2</ele>
        <time>2020-12-26T16:03:17Z</time>
      </trkpt>
      <trkpt lat="46.89083" lon="5.87172">
        <ele>856.6</ele>
        <time>2020-12-26T16:03:18Z</time>
      </trkpt>
      <trkpt lat="46.8909" lon="5.87162">
        <ele>856.2</ele>
        <time>2020-12-26T16:03:19Z</time>
      </trkpt>
      <trkpt lat="46.89097" lon="5.87152">
        <ele>855.8</ele>
        <time>2020-12-26T16:03:20Z</time>
      </trkpt>
      <trkpt lat="46.89104" lon="5.87143">
        <ele>855.6</ele>
        <time>2020-12-26T16:03:21Z</time>
      </trkpt>
      <trkpt lat="46.8911" lon="5.87135">
        <ele>855.4</ele>
        <time>2020-12-26T16:03:22Z</time>
      </trkpt>
      <trkpt lat="46.89116" lon="5.87126">
        <ele>855.4</ele>
        <time>2020-12-26T16:03:23Z</time>
      </trkpt>
      <trkpt lat="46.89121" lon="5.87118">
        <ele>855</ele>
        <time>2020-12-26T16:03:24Z</time>
      </trkpt>
      <trkpt lat="46.89127" lon="5.8711">
        <ele>855</ele>
        <time>2020-12-26T16:03:25Z</time>
      </trkpt>
      <trkpt lat="46.89133" lon="5.87103">
        <ele>854.8</ele>
        <time>2020-12-26T16:03:26Z</time>
      </trkpt>
      <trkpt lat="46.89139" lon="5.87095">
        <ele>854.8</ele>
        <time>2020-12-26T16:03:27Z</time>
      </trkpt>
      <trkpt lat="46.89145" lon="5.87087">
        <ele>854.4</ele>
        <time>2020-12-26T16:03:28Z</time>
      </trkpt>
      <trkpt lat="46.8915" lon="5.87079">
        <ele>854.2</ele>
        <time>2020-12-26T16:03:29Z</time>
      </trkpt>
      <trkpt lat="46.89156" lon="5.87072">
        <ele>854.2</ele>
        <time>2020-12-26T16:03:30Z</time>
      </trkpt>
      <trkpt lat="46.89161" lon="5.87065">
        <ele>854.2</ele>
        <time>2020-12-26T16:03:31Z</time>
      </trkpt>
      <trkpt lat="46.89167" lon="5.87057">
        <ele>853.8</ele>
        <time>2020-12-26T16:03:32Z</time>
      </trkpt>
      <trkpt lat="46.89172" lon="5.8705">
        <ele>853.8</ele>
        <time>2020-12-26T16:03:33Z</time>
      </trkpt>
      <trkpt lat="46.89178" lon="5.87043">
        <ele>853.8</ele>
        <time>2020-12-26T16:03:34Z</time>
      </trkpt>
      <trkpt lat="46.89183" lon="5.87036">
        <ele>853.8</ele>
        <time>2020-12-26T16:03:35Z</time>
      </trkpt>
      <trkpt lat="46.89188" lon="5.8703">
        <ele>853.8</ele>
        <time>2020-12-26T16:03:36Z</time>
      </trkpt>
      <trkpt lat="46.89193" lon="5.87023">
        <ele>853.8</ele>
        <time>2020-12-26T16:03:37Z</time>
      </trkpt>
      <trkpt lat="46.89198" lon="5.87016">
        <ele>853.8</ele>
        <time>2020-12-26T16:03:38Z</time>
      </trkpt>
      <trkpt lat="46.89202" lon="5.8701">
        <ele>853.8</ele>
        <time>2020-12-26T16:03:39Z</time>
      </trkpt>
      <trkpt lat="46.89206" lon="5.87004">
        <ele>853.8</ele>
        <time>2020-12-26T16:03:40Z</time>
      </trkpt>
      <trkpt lat="46.89211" lon="5.86997">
        <ele>853.8</ele>
        <time>2020-12-26T16:03:41Z</time>
      </trkpt>
      <trkpt lat="46.89215" lon="5.86991">
        <ele>854.2</ele>
        <time>2020-12-26T16:03:42Z</time>
      </trkpt>
      <trkpt lat="46.89219" lon="5.86985">
        <ele>854.2</ele>
        <time>2020-12-26T16:03:43Z</time>
      </trkpt>
      <trkpt lat="46.89224" lon="5.86979">
        <ele>854.2</ele>
        <time>2020-12-26T16:03:44Z</time>
      </trkpt>
      <trkpt lat="46.89228" lon="5.86974">
        <ele>854.2</ele>
        <time>2020-12-26T16:03:45Z</time>
      </trkpt>
      <trkpt lat="46.89233" lon="5.86967">
        <ele>854.4</ele>
        <time>2020-12-26T16:03:46Z</time>
      </trkpt>
      <trkpt lat="46.89237" lon="5.86962">
        <ele>854.4</ele>
        <time>2020-12-26T16:03:47Z</time>
      </trkpt>
      <trkpt lat="46.89241" lon="5.86956">
        <ele>854.4</ele>
        <time>2020-12-26T16:03:48Z</time>
      </trkpt>
      <trkpt lat="46.89246" lon="5.8695">
        <ele>854.6</ele>
        <time>2020-12-26T16:03:49Z</time>
      </trkpt>
      <trkpt lat="46.8925" lon="5.86944">
        <ele>854.6</ele>
        <time>2020-12-26T16:03:50Z</time>
      </trkpt>
      <trkpt lat="46.89255" lon="5.86938">
        <ele>854.6</ele>
        <time>2020-12-26T16:03:51Z</time>
      </trkpt>
      <trkpt lat="46.89259" lon="5.86932">
        <ele>854.6</ele>
        <time>2020-12-26T16:03:52Z</time>
      </trkpt>
      <trkpt lat="46.89263" lon="5.86926">
        <ele>854.6</ele>
        <time>2020-12-26T16:03:53Z</time>
      </trkpt>
      <trkpt lat="46.89268" lon="5.8692">
        <ele>854.6</ele>
        <time>2020-12-26T16:03:54Z</time>
      </trkpt>
      <trkpt lat="46.89272" lon="5.86914">
        <ele>854.4</ele>
        <time>2020-12-26T16:03:55Z</time>
      </trkpt>
      <trkpt lat="46.89277" lon="5.86909">
        <ele>854.4</ele>
        <time>2020-12-26T16:03:56Z</time>
      </trkpt>
      <trkpt lat="46.89281" lon="5.86903">
        <ele>854.4</ele>
        <time>2020-12-26T16:03:57Z</time>
      </trkpt>
      <trkpt lat="46.89285" lon="5.86897">
        <ele>854.4</ele>
        <time>2020-12-26T16:03:58Z</time>
      </trkpt>
      <trkpt lat="46.8929" lon="5.86892">
        <ele>854.4</ele>
        <time>2020-12-26T16:03:59Z</time>
      </trkpt>
      <trkpt lat="46.89294" lon="5.86886">
        <ele>854.4</ele>
        <time>2020-12-26T16:04:00Z</time>
      </trkpt>
      <trkpt lat="46.89298" lon="5.8688">
        <ele>854.2</ele>
        <time>2020-12-26T16:04:01Z</time>
      </trkpt>
      <trkpt lat="46.89302" lon="5.86875">
        <ele>854.2</ele>
        <time>2020-12-26T16:04:02Z</time>
      </trkpt>
      <trkpt lat="46.89306" lon="5.86868">
        <ele>853.8</ele>
        <time>2020-12-26T16:04:03Z</time>
      </trkpt>
      <trkpt lat="46.89311" lon="5.86862">
        <ele>853.6</ele>
        <time>2020-12-26T16:04:04Z</time>
      </trkpt>
      <trkpt lat="46.89315" lon="5.86856">
        <ele>853.2</ele>
        <time>2020-12-26T16:04:05Z</time>
      </trkpt>
      <trkpt lat="46.8932" lon="5.86849">
        <ele>853.2</ele>
        <time>2020-12-26T16:04:06Z</time>
      </trkpt>
      <trkpt lat="46.89325" lon="5.86843">
        <ele>852.8</ele>
        <time>2020-12-26T16:04:07Z</time>
      </trkpt>
      <trkpt lat="46.8933" lon="5.86836">
        <ele>852.6</ele>
        <time>2020-12-26T16:04:08Z</time>
      </trkpt>
      <trkpt lat="46.89335" lon="5.86829">
        <ele>852.2</ele>
        <time>2020-12-26T16:04:09Z</time>
      </trkpt>
      <trkpt lat="46.89341" lon="5.86822">
        <ele>851.8</ele>
        <time>2020-12-26T16:04:10Z</time>
      </trkpt>
      <trkpt lat="46.89346" lon="5.86814">
        <ele>851.4</ele>
        <time>2020-12-26T16:04:11Z</time>
      </trkpt>
      <trkpt lat="46.89352" lon="5.86807">
        <ele>851.2</ele>
        <time>2020-12-26T16:04:12Z</time>
      </trkpt>
      <trkpt lat="46.89358" lon="5.86799">
        <ele>850.8</ele>
        <time>2020-12-26T16:04:13Z</time>
      </trkpt>
      <trkpt lat="46.89364" lon="5.86791">
        <ele>850.4</ele>
        <time>2020-12-26T16:04:14Z</time>
      </trkpt>
      <trkpt lat="46.8937" lon="5.86783">
        <ele>850</ele>
        <time>2020-12-26T16:04:15Z</time>
      </trkpt>
      <trkpt lat="46.89377" lon="5.86774">
        <ele>849.4</ele>
        <time>2020-12-26T16:04:16Z</time>
      </trkpt>
      <trkpt lat="46.89383" lon="5.86765">
        <ele>848.6</ele>
        <time>2020-12-26T16:04:17Z</time>
      </trkpt>
      <trkpt lat="46.8939" lon="5.86755">
        <ele>848</ele>
        <time>2020-12-26T16:04:18Z</time>
      </trkpt>
      <trkpt lat="46.89397" lon="5.86746">
        <ele>847.2</ele>
        <time>2020-12-26T16:04:19Z</time>
      </trkpt>
      <trkpt lat="46.89405" lon="5.86737">
        <ele>846.8</ele>
        <time>2020-12-26T16:04:20Z</time>
      </trkpt>
      <trkpt lat="46.89412" lon="5.86728">
        <ele>846.4</ele>
        <time>2020-12-26T16:04:21Z</time>
      </trkpt>
      <trkpt lat="46.89419" lon="5.86718">
        <ele>846</ele>
        <time>2020-12-26T16:04:22Z</time>
      </trkpt>
      <trkpt lat="46.89426" lon="5.86709">
        <ele>845.6</ele>
        <time>2020-12-26T16:04:23Z</time>
      </trkpt>
      <trkpt lat="46.89432" lon="5.86699">
        <ele>845.2</ele>
        <time>2020-12-26T16:04:24Z</time>
      </trkpt>
      <trkpt lat="46.89439" lon="5.86689">
        <ele>844.8</ele>
        <time>2020-12-26T16:04:25Z</time>
      </trkpt>
      <trkpt lat="46.89445" lon="5.86679">
        <ele>844.6</ele>
        <time>2020-12-26T16:04:26Z</time>
      </trkpt>
      <trkpt lat="46.89452" lon="5.8667">
        <ele>844.4</ele>
        <time>2020-12-26T16:04:27Z</time>
      </trkpt>
      <trkpt lat="46.89459" lon="5.86661">
        <ele>844.2</ele>
        <time>2020-12-26T16:04:28Z</time>
      </trkpt>
      <trkpt lat="46.89466" lon="5.86653">
        <ele>844.2</ele>
        <time>2020-12-26T16:04:29Z</time>
      </trkpt>
      <trkpt lat="46.89473" lon="5.86645">
        <ele>843.8</ele>
        <time>2020-12-26T16:04:30Z</time>
      </trkpt>
      <trkpt lat="46.89479" lon="5.86636">
        <ele>843.6</ele>
        <time>2020-12-26T16:04:31Z</time>
      </trkpt>
      <trkpt lat="46.89486" lon="5.86627">
        <ele>843.2</ele>
        <time>2020-12-26T16:04:32Z</time>
      </trkpt>
      <trkpt lat="46.89493" lon="5.86618">
        <ele>843</ele>
        <time>2020-12-26T16:04:33Z</time>
      </trkpt>
      <trkpt lat="46.89499" lon="5.86608">
        <ele>842.6</ele>
        <time>2020-12-26T16:04:34Z</time>
      </trkpt>
      <trkpt lat="46.89506" lon="5.86599">
        <ele>842.2</ele>
        <time>2020-12-26T16:04:35Z</time>
      </trkpt>
      <trkpt lat="46.89513" lon="5.8659">
        <ele>841.6</ele>
        <time>2020-12-26T16:04:36Z</time>
      </trkpt>
      <trkpt lat="46.8952" lon="5.8658">
        <ele>841.2</ele>
        <time>2020-12-26T16:04:37Z</time>
      </trkpt>
      <trkpt lat="46.89527" lon="5.86571">
        <ele>840.6</ele>
        <time>2020-12-26T16:04:38Z</time>
      </trkpt>
      <trkpt lat="46.89534" lon="5.86561">
        <ele>840</ele>
        <time>2020-12-26T16:04:39Z</time>
      </trkpt>
      <trkpt lat="46.89542" lon="5.86551">
        <ele>839.4</ele>
        <time>2020-12-26T16:04:40Z</time>
      </trkpt>
      <trkpt lat="46.8955" lon="5.8654">
        <ele>838.8</ele>
        <time>2020-12-26T16:04:41Z</time>
      </trkpt>
      <trkpt lat="46.89558" lon="5.86529">
        <ele>838</ele>
        <time>2020-12-26T16:04:42Z</time>
      </trkpt>
      <trkpt lat="46.89566" lon="5.86519">
        <ele>837.2</ele>
        <time>2020-12-26T16:04:43Z</time>
      </trkpt>
      <trkpt lat="46.89575" lon="5.86508">
        <ele>836.6</ele>
        <time>2020-12-26T16:04:44Z</time>
      </trkpt>
      <trkpt lat="46.89583" lon="5.86497">
        <ele>835.8</ele>
        <time>2020-12-26T16:04:45Z</time>
      </trkpt>
      <trkpt lat="46.89592" lon="5.86486">
        <ele>835.2</ele>
        <time>2020-12-26T16:04:46Z</time>
      </trkpt>
      <trkpt lat="46.89599" lon="5.86473">
        <ele>834.6</ele>
        <time>2020-12-26T16:04:47Z</time>
      </trkpt>
      <trkpt lat="46.89608" lon="5.86461">
        <ele>833.8</ele>
        <time>2020-12-26T16:04:48Z</time>
      </trkpt>
      <trkpt lat="46.89616" lon="5.8645">
        <ele>833.2</ele>
        <time>2020-12-26T16:04:49Z</time>
      </trkpt>
      <trkpt lat="46.89625" lon="5.86439">
        <ele>832.8</ele>
        <time>2020-12-26T16:04:50Z</time>
      </trkpt>
      <trkpt lat="46.89633" lon="5.86428">
        <ele>832.2</ele>
        <time>2020-12-26T16:04:51Z</time>
      </trkpt>
      <trkpt lat="46.89641" lon="5.86417">
        <ele>831.8</ele>
        <time>2020-12-26T16:04:52Z</time>
      </trkpt>
      <trkpt lat="46.89649" lon="5.86407">
        <ele>831.2</ele>
        <time>2020-12-26T16:04:53Z</time>
      </trkpt>
      <trkpt lat="46.89657" lon="5.86396">
        <ele>830.8</ele>
        <time>2020-12-26T16:04:54Z</time>
      </trkpt>
      <trkpt lat="46.89664" lon="5.86386">
        <ele>830.6</ele>
        <time>2020-12-26T16:04:55Z</time>
      </trkpt>
      <trkpt lat="46.89672" lon="5.86375">
        <ele>830.2</ele>
        <time>2020-12-26T16:04:56Z</time>
      </trkpt>
      <trkpt lat="46.89679" lon="5.86364">
        <ele>830</ele>
        <time>2020-12-26T16:04:57Z</time>
      </trkpt>
      <trkpt lat="46.89686" lon="5.86355">
        <ele>829.8</ele>
        <time>2020-12-26T16:04:58Z</time>
      </trkpt>
      <trkpt lat="46.89693" lon="5.86346">
        <ele>829.8</ele>
        <time>2020-12-26T16:04:59Z</time>
      </trkpt>
      <trkpt lat="46.897" lon="5.86337">
        <ele>829.6</ele>
        <time>2020-12-26T16:05:00Z</time>
      </trkpt>
      <trkpt lat="46.89707" lon="5.86327">
        <ele>829.6</ele>
        <time>2020-12-26T16:05:01Z</time>
      </trkpt>
      <trkpt lat="46.89714" lon="5.86318">
        <ele>829.2</ele>
        <time>2020-12-26T16:05:02Z</time>
      </trkpt>
      <trkpt lat="46.89721" lon="5.86309">
        <ele>829.2</ele>
        <time>2020-12-26T16:05:03Z</time>
      </trkpt>
      <trkpt lat="46.89727" lon="5.86301">
        <ele>829.2</ele>
        <time>2020-12-26T16:05:04Z</time>
      </trkpt>
      <trkpt lat="46.89734" lon="5.86292">
        <ele>829.2</ele>
        <time>2020-12-26T16:05:05Z</time>
      </trkpt>
      <trkpt lat="46.89741" lon="5.86283">
        <ele>829.2</ele>
        <time>2020-12-26T16:05:06Z</time>
      </trkpt>
      <trkpt lat="46.89747" lon="5.86275">
        <ele>829.2</ele>
        <time>2020-12-26T16:05:07Z</time>
      </trkpt>
      <trkpt lat="46.89753" lon="5.86267">
        <ele>829.2</ele>
        <time>2020-12-26T16:05:08Z</time>
      </trkpt>
      <trkpt lat="46.89758" lon="5.86259">
        <ele>829.6</ele>
        <time>2020-12-26T16:05:09Z</time>
      </trkpt>
      <trkpt lat="46.89764" lon="5.86251">
        <ele>829.6</ele>
        <time>2020-12-26T16:05:10Z</time>
      </trkpt>
      <trkpt lat="46.8977" lon="5.86244">
        <ele>829.6</ele>
        <time>2020-12-26T16:05:11Z</time>
      </trkpt>
      <trkpt lat="46.89775" lon="5.86236">
        <ele>829.6</ele>
        <time>2020-12-26T16:05:12Z</time>
      </trkpt>
      <trkpt lat="46.89781" lon="5.86229">
        <ele>829.6</ele>
        <time>2020-12-26T16:05:13Z</time>
      </trkpt>
      <trkpt lat="46.89787" lon="5.86221">
        <ele>829.6</ele>
        <time>2020-12-26T16:05:14Z</time>
      </trkpt>
      <trkpt lat="46.89793" lon="5.86213">
        <ele>829.6</ele>
        <time>2020-12-26T16:05:15Z</time>
      </trkpt>
      <trkpt lat="46.89799" lon="5.86206">
        <ele>829.6</ele>
        <time>2020-12-26T16:05:16Z</time>
      </trkpt>
      <trkpt lat="46.89804" lon="5.86198">
        <ele>829.2</ele>
        <time>2020-12-26T16:05:17Z</time>
      </trkpt>
      <trkpt lat="46.8981" lon="5.8619">
        <ele>829.2</ele>
        <time>2020-12-26T16:05:18Z</time>
      </trkpt>
      <trkpt lat="46.89816" lon="5.86182">
        <ele>829</ele>
        <time>2020-12-26T16:05:19Z</time>
      </trkpt>
      <trkpt lat="46.89822" lon="5.86174">
        <ele>828.8</ele>
        <time>2020-12-26T16:05:20Z</time>
      </trkpt>
      <trkpt lat="46.89828" lon="5.86165">
        <ele>828.6</ele>
        <time>2020-12-26T16:05:21Z</time>
      </trkpt>
      <trkpt lat="46.89834" lon="5.86157">
        <ele>828.4</ele>
        <time>2020-12-26T16:05:22Z</time>
      </trkpt>
      <trkpt lat="46.8984" lon="5.86149">
        <ele>828.2</ele>
        <time>2020-12-26T16:05:23Z</time>
      </trkpt>
      <trkpt lat="46.89846" lon="5.8614">
        <ele>827.8</ele>
        <time>2020-12-26T16:05:24Z</time>
      </trkpt>
      <trkpt lat="46.89852" lon="5.86132">
        <ele>827.6</ele>
        <time>2020-12-26T16:05:25Z</time>
      </trkpt>
      <trkpt lat="46.89859" lon="5.86123">
        <ele>827.2</ele>
        <time>2020-12-26T16:05:26Z</time>
      </trkpt>
      <trkpt lat="46.89865" lon="5.86115">
        <ele>826.8</ele>
        <time>2020-12-26T16:05:27Z</time>
      </trkpt>
      <trkpt lat="46.89872" lon="5.86106">
        <ele>826.4</ele>
        <time>2020-12-26T16:05:28Z</time>
      </trkpt>
      <trkpt lat="46.89879" lon="5.86097">
        <ele>825.8</ele>
        <time>2020-12-26T16:05:29Z</time>
      </trkpt>
      <trkpt lat="46.89886" lon="5.86088">
        <ele>825.2</ele>
        <time>2020-12-26T16:05:30Z</time>
      </trkpt>
      <trkpt lat="46.89893" lon="5.86078">
        <ele>824.6</ele>
        <time>2020-12-26T16:05:31Z</time>
      </trkpt>
      <trkpt lat="46.899" lon="5.86068">
        <ele>824.2</ele>
        <time>2020-12-26T16:05:32Z</time>
      </trkpt>
      <trkpt lat="46.89907" lon="5.86059">
        <ele>823.4</ele>
        <time>2020-12-26T16:05:33Z</time>
      </trkpt>
      <trkpt lat="46.89914" lon="5.86049">
        <ele>822.8</ele>
        <time>2020-12-26T16:05:34Z</time>
      </trkpt>
      <trkpt lat="46.89922" lon="5.86039">
        <ele>822.2</ele>
        <time>2020-12-26T16:05:35Z</time>
      </trkpt>
      <trkpt lat="46.8993" lon="5.86028">
        <ele>821.4</ele>
        <time>2020-12-26T16:05:36Z</time>
      </trkpt>
      <trkpt lat="46.89938" lon="5.86017">
        <ele>820.8</ele>
        <time>2020-12-26T16:05:37Z</time>
      </trkpt>
      <trkpt lat="46.89947" lon="5.86006">
        <ele>820.2</ele>
        <time>2020-12-26T16:05:38Z</time>
      </trkpt>
      <trkpt lat="46.89955" lon="5.85994">
        <ele>819.6</ele>
        <time>2020-12-26T16:05:39Z</time>
      </trkpt>
      <trkpt lat="46.89963" lon="5.85984">
        <ele>819</ele>
        <time>2020-12-26T16:05:40Z</time>
      </trkpt>
      <trkpt lat="46.89971" lon="5.85974">
        <ele>818.6</ele>
        <time>2020-12-26T16:05:41Z</time>
      </trkpt>
      <trkpt lat="46.89978" lon="5.85964">
        <ele>818</ele>
        <time>2020-12-26T16:05:42Z</time>
      </trkpt>
      <trkpt lat="46.89986" lon="5.85954">
        <ele>817.6</ele>
        <time>2020-12-26T16:05:43Z</time>
      </trkpt>
      <trkpt lat="46.89993" lon="5.85944">
        <ele>817.2</ele>
        <time>2020-12-26T16:05:44Z</time>
      </trkpt>
      <trkpt lat="46.90001" lon="5.85934">
        <ele>816.8</ele>
        <time>2020-12-26T16:05:45Z</time>
      </trkpt>
      <trkpt lat="46.90009" lon="5.85924">
        <ele>816.4</ele>
        <time>2020-12-26T16:05:46Z</time>
      </trkpt>
      <trkpt lat="46.90017" lon="5.85914">
        <ele>816</ele>
        <time>2020-12-26T16:05:47Z</time>
      </trkpt>
      <trkpt lat="46.90024" lon="5.85904">
        <ele>815.6</ele>
        <time>2020-12-26T16:05:48Z</time>
      </trkpt>
      <trkpt lat="46.90032" lon="5.85894">
        <ele>815.4</ele>
        <time>2020-12-26T16:05:49Z</time>
      </trkpt>
      <trkpt lat="46.90039" lon="5.85884">
        <ele>815</ele>
        <time>2020-12-26T16:05:50Z</time>
      </trkpt>
      <trkpt lat="46.90046" lon="5.85875">
        <ele>814.8</ele>
        <time>2020-12-26T16:05:51Z</time>
      </trkpt>
      <trkpt lat="46.90053" lon="5.85865">
        <ele>814.4</ele>
        <time>2020-12-26T16:05:52Z</time>
      </trkpt>
      <trkpt lat="46.9006" lon="5.85855">
        <ele>814.2</ele>
        <time>2020-12-26T16:05:53Z</time>
      </trkpt>
      <trkpt lat="46.90067" lon="5.85844">
        <ele>814</ele>
        <time>2020-12-26T16:05:54Z</time>
      </trkpt>
      <trkpt lat="46.90072" lon="5.85832">
        <ele>813.6</ele>
        <time>2020-12-26T16:05:55Z</time>
      </trkpt>
      <trkpt lat="46.90077" lon="5.85819">
        <ele>813.4</ele>
        <time>2020-12-26T16:05:56Z</time>
      </trkpt>
      <trkpt lat="46.90081" lon="5.85807">
        <ele>813</ele>
        <time>2020-12-26T16:05:57Z</time>
      </trkpt>
      <trkpt lat="46.90085" lon="5.85794">
        <ele>812.8</ele>
        <time>2020-12-26T16:05:58Z</time>
      </trkpt>
      <trkpt lat="46.90089" lon="5.8578">
        <ele>812.4</ele>
        <time>2020-12-26T16:05:59Z</time>
      </trkpt>
      <trkpt lat="46.90093" lon="5.85766">
        <ele>812</ele>
        <time>2020-12-26T16:06:00Z</time>
      </trkpt>
      <trkpt lat="46.90096" lon="5.85752">
        <ele>811.8</ele>
        <time>2020-12-26T16:06:01Z</time>
      </trkpt>
      <trkpt lat="46.90099" lon="5.85738">
        <ele>811.6</ele>
        <time>2020-12-26T16:06:02Z</time>
      </trkpt>
      <trkpt lat="46.90103" lon="5.85724">
        <ele>811.2</ele>
        <time>2020-12-26T16:06:03Z</time>
      </trkpt>
      <trkpt lat="46.90106" lon="5.85711">
        <ele>811</ele>
        <time>2020-12-26T16:06:04Z</time>
      </trkpt>
      <trkpt lat="46.90109" lon="5.85697">
        <ele>810.6</ele>
        <time>2020-12-26T16:06:05Z</time>
      </trkpt>
      <trkpt lat="46.90112" lon="5.85683">
        <ele>810.4</ele>
        <time>2020-12-26T16:06:06Z</time>
      </trkpt>
      <trkpt lat="46.90115" lon="5.85669">
        <ele>810.4</ele>
        <time>2020-12-26T16:06:07Z</time>
      </trkpt>
      <trkpt lat="46.90118" lon="5.85656">
        <ele>810</ele>
        <time>2020-12-26T16:06:08Z</time>
      </trkpt>
      <trkpt lat="46.90121" lon="5.85642">
        <ele>810</ele>
        <time>2020-12-26T16:06:09Z</time>
      </trkpt>
      <trkpt lat="46.90124" lon="5.85628">
        <ele>809.8</ele>
        <time>2020-12-26T16:06:10Z</time>
      </trkpt>
      <trkpt lat="46.90126" lon="5.85615">
        <ele>809.8</ele>
        <time>2020-12-26T16:06:11Z</time>
      </trkpt>
      <trkpt lat="46.90129" lon="5.85603">
        <ele>809.6</ele>
        <time>2020-12-26T16:06:12Z</time>
      </trkpt>
      <trkpt lat="46.90132" lon="5.8559">
        <ele>809.4</ele>
        <time>2020-12-26T16:06:13Z</time>
      </trkpt>
      <trkpt lat="46.90135" lon="5.85578">
        <ele>809.4</ele>
        <time>2020-12-26T16:06:14Z</time>
      </trkpt>
      <trkpt lat="46.90139" lon="5.85567">
        <ele>809.2</ele>
        <time>2020-12-26T16:06:15Z</time>
      </trkpt>
      <trkpt lat="46.90142" lon="5.85554">
        <ele>809.2</ele>
        <time>2020-12-26T16:06:16Z</time>
      </trkpt>
      <trkpt lat="46.90145" lon="5.85541">
        <ele>809.2</ele>
        <time>2020-12-26T16:06:17Z</time>
      </trkpt>
      <trkpt lat="46.90147" lon="5.85529">
        <ele>809</ele>
        <time>2020-12-26T16:06:18Z</time>
      </trkpt>
      <trkpt lat="46.9015" lon="5.85517">
        <ele>809</ele>
        <time>2020-12-26T16:06:19Z</time>
      </trkpt>
      <trkpt lat="46.90153" lon="5.85505">
        <ele>809</ele>
        <time>2020-12-26T16:06:20Z</time>
      </trkpt>
      <trkpt lat="46.90156" lon="5.85493">
        <ele>808.6</ele>
        <time>2020-12-26T16:06:21Z</time>
      </trkpt>
      <trkpt lat="46.90158" lon="5.85481">
        <ele>808.6</ele>
        <time>2020-12-26T16:06:22Z</time>
      </trkpt>
      <trkpt lat="46.90161" lon="5.85469">
        <ele>808.6</ele>
        <time>2020-12-26T16:06:23Z</time>
      </trkpt>
      <trkpt lat="46.90164" lon="5.85457">
        <ele>808.6</ele>
        <time>2020-12-26T16:06:24Z</time>
      </trkpt>
      <trkpt lat="46.90167" lon="5.85445">
        <ele>808.4</ele>
        <time>2020-12-26T16:06:25Z</time>
      </trkpt>
      <trkpt lat="46.90169" lon="5.85433">
        <ele>808</ele>
        <time>2020-12-26T16:06:26Z</time>
      </trkpt>
      <trkpt lat="46.90172" lon="5.85421">
        <ele>808</ele>
        <time>2020-12-26T16:06:27Z</time>
      </trkpt>
      <trkpt lat="46.90175" lon="5.85408">
        <ele>807.8</ele>
        <time>2020-12-26T16:06:28Z</time>
      </trkpt>
      <trkpt lat="46.90178" lon="5.85396">
        <ele>807.4</ele>
        <time>2020-12-26T16:06:29Z</time>
      </trkpt>
      <trkpt lat="46.90181" lon="5.85383">
        <ele>807.2</ele>
        <time>2020-12-26T16:06:30Z</time>
      </trkpt>
      <trkpt lat="46.90184" lon="5.8537">
        <ele>806.8</ele>
        <time>2020-12-26T16:06:31Z</time>
      </trkpt>
      <trkpt lat="46.90187" lon="5.85356">
        <ele>806.4</ele>
        <time>2020-12-26T16:06:32Z</time>
      </trkpt>
      <trkpt lat="46.9019" lon="5.85342">
        <ele>805.8</ele>
        <time>2020-12-26T16:06:33Z</time>
      </trkpt>
      <trkpt lat="46.90193" lon="5.85329">
        <ele>805.4</ele>
        <time>2020-12-26T16:06:34Z</time>
      </trkpt>
      <trkpt lat="46.90197" lon="5.85315">
        <ele>805</ele>
        <time>2020-12-26T16:06:35Z</time>
      </trkpt>
      <trkpt lat="46.902" lon="5.85301">
        <ele>804.8</ele>
        <time>2020-12-26T16:06:36Z</time>
      </trkpt>
      <trkpt lat="46.90203" lon="5.85288">
        <ele>804.4</ele>
        <time>2020-12-26T16:06:37Z</time>
      </trkpt>
      <trkpt lat="46.90206" lon="5.85274">
        <ele>804.4</ele>
        <time>2020-12-26T16:06:38Z</time>
      </trkpt>
      <trkpt lat="46.90209" lon="5.85261">
        <ele>804.2</ele>
        <time>2020-12-26T16:06:39Z</time>
      </trkpt>
      <trkpt lat="46.90212" lon="5.85246">
        <ele>804</ele>
        <time>2020-12-26T16:06:40Z</time>
      </trkpt>
      <trkpt lat="46.90216" lon="5.85232">
        <ele>803.4</ele>
        <time>2020-12-26T16:06:41Z</time>
      </trkpt>
      <trkpt lat="46.90219" lon="5.85218">
        <ele>803.4</ele>
        <time>2020-12-26T16:06:42Z</time>
      </trkpt>
      <trkpt lat="46.90222" lon="5.85204">
        <ele>803</ele>
        <time>2020-12-26T16:06:43Z</time>
      </trkpt>
      <trkpt lat="46.90225" lon="5.85189">
        <ele>802.6</ele>
        <time>2020-12-26T16:06:44Z</time>
      </trkpt>
      <trkpt lat="46.90229" lon="5.85176">
        <ele>802.2</ele>
        <time>2020-12-26T16:06:45Z</time>
      </trkpt>
      <trkpt lat="46.90232" lon="5.85162">
        <ele>802</ele>
        <time>2020-12-26T16:06:46Z</time>
      </trkpt>
      <trkpt lat="46.90235" lon="5.8515">
        <ele>802</ele>
        <time>2020-12-26T16:06:47Z</time>
      </trkpt>
      <trkpt lat="46.90238" lon="5.85136">
        <ele>801.8</ele>
        <time>2020-12-26T16:06:48Z</time>
      </trkpt>
      <trkpt lat="46.90241" lon="5.85123">
        <ele>801.8</ele>
        <time>2020-12-26T16:06:49Z</time>
      </trkpt>
      <trkpt lat="46.90245" lon="5.85111">
        <ele>801.8</ele>
        <time>2020-12-26T16:06:50Z</time>
      </trkpt>
      <trkpt lat="46.90248" lon="5.85098">
        <ele>801.8</ele>
        <time>2020-12-26T16:06:51Z</time>
      </trkpt>
      <trkpt lat="46.90251" lon="5.85085">
        <ele>801.8</ele>
        <time>2020-12-26T16:06:52Z</time>
      </trkpt>
      <trkpt lat="46.90254" lon="5.85072">
        <ele>801.8</ele>
        <time>2020-12-26T16:06:53Z</time>
      </trkpt>
      <trkpt lat="46.90257" lon="5.8506">
        <ele>802</ele>
        <time>2020-12-26T16:06:54Z</time>
      </trkpt>
      <trkpt lat="46.90259" lon="5.85049">
        <ele>802</ele>
        <time>2020-12-26T16:06:55Z</time>
      </trkpt>
      <trkpt lat="46.90262" lon="5.85037">
        <ele>802.2</ele>
        <time>2020-12-26T16:06:56Z</time>
      </trkpt>
      <trkpt lat="46.90265" lon="5.85026">
        <ele>802.2</ele>
        <time>2020-12-26T16:06:57Z</time>
      </trkpt>
      <trkpt lat="46.90267" lon="5.85014">
        <ele>802.6</ele>
        <time>2020-12-26T16:06:58Z</time>
      </trkpt>
      <trkpt lat="46.9027" lon="5.85002">
        <ele>802.6</ele>
        <time>2020-12-26T16:06:59Z</time>
      </trkpt>
      <trkpt lat="46.90273" lon="5.84991">
        <ele>802.6</ele>
        <time>2020-12-26T16:07:00Z</time>
      </trkpt>
      <trkpt lat="46.90276" lon="5.84979">
        <ele>802.8</ele>
        <time>2020-12-26T16:07:01Z</time>
      </trkpt>
      <trkpt lat="46.90279" lon="5.84968">
        <ele>802.8</ele>
        <time>2020-12-26T16:07:02Z</time>
      </trkpt>
      <trkpt lat="46.90282" lon="5.84956">
        <ele>802.8</ele>
        <time>2020-12-26T16:07:03Z</time>
      </trkpt>
      <trkpt lat="46.90284" lon="5.84945">
        <ele>802.8</ele>
        <time>2020-12-26T16:07:04Z</time>
      </trkpt>
      <trkpt lat="46.90287" lon="5.84933">
        <ele>802.8</ele>
        <time>2020-12-26T16:07:05Z</time>
      </trkpt>
      <trkpt lat="46.9029" lon="5.84922">
        <ele>802.8</ele>
        <time>2020-12-26T16:07:06Z</time>
      </trkpt>
      <trkpt lat="46.90292" lon="5.84911">
        <ele>803</ele>
        <time>2020-12-26T16:07:07Z</time>
      </trkpt>
      <trkpt lat="46.90295" lon="5.849">
        <ele>803</ele>
        <time>2020-12-26T16:07:08Z</time>
      </trkpt>
      <trkpt lat="46.90297" lon="5.84889">
        <ele>803.2</ele>
        <time>2020-12-26T16:07:09Z</time>
      </trkpt>
      <trkpt lat="46.903" lon="5.84879">
        <ele>803.2</ele>
        <time>2020-12-26T16:07:10Z</time>
      </trkpt>
      <trkpt lat="46.90302" lon="5.84869">
        <ele>803.2</ele>
        <time>2020-12-26T16:07:11Z</time>
      </trkpt>
      <trkpt lat="46.90305" lon="5.84858">
        <ele>803.2</ele>
        <time>2020-12-26T16:07:12Z</time>
      </trkpt>
      <trkpt lat="46.90307" lon="5.84848">
        <ele>803.2</ele>
        <time>2020-12-26T16:07:13Z</time>
      </trkpt>
      <trkpt lat="46.9031" lon="5.84838">
        <ele>803.2</ele>
        <time>2020-12-26T16:07:14Z</time>
      </trkpt>
      <trkpt lat="46.90312" lon="5.84828">
        <ele>803.2</ele>
        <time>2020-12-26T16:07:15Z</time>
      </trkpt>
      <trkpt lat="46.90315" lon="5.84818">
        <ele>803.2</ele>
        <time>2020-12-26T16:07:16Z</time>
      </trkpt>
      <trkpt lat="46.90317" lon="5.84807">
        <ele>803.2</ele>
        <time>2020-12-26T16:07:17Z</time>
      </trkpt>
      <trkpt lat="46.90319" lon="5.84796">
        <ele>803</ele>
        <time>2020-12-26T16:07:18Z</time>
      </trkpt>
      <trkpt lat="46.90322" lon="5.84786">
        <ele>803</ele>
        <time>2020-12-26T16:07:19Z</time>
      </trkpt>
      <trkpt lat="46.90325" lon="5.84775">
        <ele>802.8</ele>
        <time>2020-12-26T16:07:20Z</time>
      </trkpt>
      <trkpt lat="46.90327" lon="5.84764">
        <ele>802.8</ele>
        <time>2020-12-26T16:07:21Z</time>
      </trkpt>
      <trkpt lat="46.9033" lon="5.84754">
        <ele>802.8</ele>
        <time>2020-12-26T16:07:22Z</time>
      </trkpt>
      <trkpt lat="46.90332" lon="5.84743">
        <ele>802.8</ele>
        <time>2020-12-26T16:07:23Z</time>
      </trkpt>
      <trkpt lat="46.90334" lon="5.84733">
        <ele>802.8</ele>
        <time>2020-12-26T16:07:24Z</time>
      </trkpt>
      <trkpt lat="46.90337" lon="5.84723">
        <ele>802.8</ele>
        <time>2020-12-26T16:07:25Z</time>
      </trkpt>
      <trkpt lat="46.90339" lon="5.84713">
        <ele>802.8</ele>
        <time>2020-12-26T16:07:26Z</time>
      </trkpt>
      <trkpt lat="46.90342" lon="5.84703">
        <ele>802.8</ele>
        <time>2020-12-26T16:07:27Z</time>
      </trkpt>
      <trkpt lat="46.90344" lon="5.84693">
        <ele>802.8</ele>
        <time>2020-12-26T16:07:28Z</time>
      </trkpt>
      <trkpt lat="46.90346" lon="5.84683">
        <ele>802.8</ele>
        <time>2020-12-26T16:07:29Z</time>
      </trkpt>
      <trkpt lat="46.90349" lon="5.84673">
        <ele>802.8</ele>
        <time>2020-12-26T16:07:30Z</time>
      </trkpt>
      <trkpt lat="46.90351" lon="5.84664">
        <ele>802.8</ele>
        <time>2020-12-26T16:07:31Z</time>
      </trkpt>
      <trkpt lat="46.90353" lon="5.84654">
        <ele>802.8</ele>
        <time>2020-12-26T16:07:32Z</time>
      </trkpt>
      <trkpt lat="46.90356" lon="5.84644">
        <ele>802.8</ele>
        <time>2020-12-26T16:07:33Z</time>
      </trkpt>
      <trkpt lat="46.90358" lon="5.84634">
        <ele>802.8</ele>
        <time>2020-12-26T16:07:34Z</time>
      </trkpt>
      <trkpt lat="46.90361" lon="5.84624">
        <ele>802.8</ele>
        <time>2020-12-26T16:07:35Z</time>
      </trkpt>
      <trkpt lat="46.90363" lon="5.84614">
        <ele>802.8</ele>
        <time>2020-12-26T16:07:36Z</time>
      </trkpt>
      <trkpt lat="46.90365" lon="5.84604">
        <ele>803</ele>
        <time>2020-12-26T16:07:37Z</time>
      </trkpt>
      <trkpt lat="46.90368" lon="5.84594">
        <ele>803</ele>
        <time>2020-12-26T16:07:38Z</time>
      </trkpt>
      <trkpt lat="46.9037" lon="5.84584">
        <ele>803</ele>
        <time>2020-12-26T16:07:39Z</time>
      </trkpt>
      <trkpt lat="46.90372" lon="5.84574">
        <ele>803.2</ele>
        <time>2020-12-26T16:07:40Z</time>
      </trkpt>
      <trkpt lat="46.90374" lon="5.84565">
        <ele>803.2</ele>
        <time>2020-12-26T16:07:41Z</time>
      </trkpt>
      <trkpt lat="46.90377" lon="5.84555">
        <ele>803.6</ele>
        <time>2020-12-26T16:07:42Z</time>
      </trkpt>
      <trkpt lat="46.90379" lon="5.84545">
        <ele>803.6</ele>
        <time>2020-12-26T16:07:43Z</time>
      </trkpt>
      <trkpt lat="46.90381" lon="5.84535">
        <ele>803.6</ele>
        <time>2020-12-26T16:07:44Z</time>
      </trkpt>
      <trkpt lat="46.90383" lon="5.84526">
        <ele>803.8</ele>
        <time>2020-12-26T16:07:45Z</time>
      </trkpt>
      <trkpt lat="46.90386" lon="5.84516">
        <ele>803.8</ele>
        <time>2020-12-26T16:07:46Z</time>
      </trkpt>
      <trkpt lat="46.90388" lon="5.84506">
        <ele>803.8</ele>
        <time>2020-12-26T16:07:47Z</time>
      </trkpt>
      <trkpt lat="46.9039" lon="5.84497">
        <ele>803.8</ele>
        <time>2020-12-26T16:07:48Z</time>
      </trkpt>
      <trkpt lat="46.90392" lon="5.84487">
        <ele>803.8</ele>
        <time>2020-12-26T16:07:49Z</time>
      </trkpt>
      <trkpt lat="46.90395" lon="5.84477">
        <ele>803.8</ele>
        <time>2020-12-26T16:07:50Z</time>
      </trkpt>
      <trkpt lat="46.90397" lon="5.84467">
        <ele>803.8</ele>
        <time>2020-12-26T16:07:51Z</time>
      </trkpt>
      <trkpt lat="46.90399" lon="5.84457">
        <ele>803.8</ele>
        <time>2020-12-26T16:07:52Z</time>
      </trkpt>
      <trkpt lat="46.90402" lon="5.84447">
        <ele>803.8</ele>
        <time>2020-12-26T16:07:53Z</time>
      </trkpt>
      <trkpt lat="46.90404" lon="5.84436">
        <ele>803.8</ele>
        <time>2020-12-26T16:07:54Z</time>
      </trkpt>
      <trkpt lat="46.90407" lon="5.84426">
        <ele>803.8</ele>
        <time>2020-12-26T16:07:55Z</time>
      </trkpt>
      <trkpt lat="46.90409" lon="5.84417">
        <ele>803.8</ele>
        <time>2020-12-26T16:07:56Z</time>
      </trkpt>
      <trkpt lat="46.90411" lon="5.84407">
        <ele>803.8</ele>
        <time>2020-12-26T16:07:57Z</time>
      </trkpt>
      <trkpt lat="46.90414" lon="5.84397">
        <ele>803.8</ele>
        <time>2020-12-26T16:07:58Z</time>
      </trkpt>
      <trkpt lat="46.90416" lon="5.84387">
        <ele>803.8</ele>
        <time>2020-12-26T16:07:59Z</time>
      </trkpt>
      <trkpt lat="46.90418" lon="5.84377">
        <ele>803.8</ele>
        <time>2020-12-26T16:08:00Z</time>
      </trkpt>
      <trkpt lat="46.90421" lon="5.84368">
        <ele>803.8</ele>
        <time>2020-12-26T16:08:01Z</time>
      </trkpt>
      <trkpt lat="46.90423" lon="5.84358">
        <ele>803.8</ele>
        <time>2020-12-26T16:08:02Z</time>
      </trkpt>
      <trkpt lat="46.90425" lon="5.84349">
        <ele>803.8</ele>
        <time>2020-12-26T16:08:03Z</time>
      </trkpt>
      <trkpt lat="46.90427" lon="5.84339">
        <ele>803.8</ele>
        <time>2020-12-26T16:08:04Z</time>
      </trkpt>
      <trkpt lat="46.90429" lon="5.84329">
        <ele>803.6</ele>
        <time>2020-12-26T16:08:05Z</time>
      </trkpt>
      <trkpt lat="46.90432" lon="5.84319">
        <ele>803.6</ele>
        <time>2020-12-26T16:08:06Z</time>
      </trkpt>
      <trkpt lat="46.90434" lon="5.84309">
        <ele>803.6</ele>
        <time>2020-12-26T16:08:07Z</time>
      </trkpt>
      <trkpt lat="46.90436" lon="5.84299">
        <ele>803.6</ele>
        <time>2020-12-26T16:08:08Z</time>
      </trkpt>
      <trkpt lat="46.90439" lon="5.84289">
        <ele>803.4</ele>
        <time>2020-12-26T16:08:09Z</time>
      </trkpt>
      <trkpt lat="46.90441" lon="5.84279">
        <ele>803.4</ele>
        <time>2020-12-26T16:08:10Z</time>
      </trkpt>
      <trkpt lat="46.90443" lon="5.84269">
        <ele>803.4</ele>
        <time>2020-12-26T16:08:11Z</time>
      </trkpt>
      <trkpt lat="46.90446" lon="5.8426">
        <ele>803.4</ele>
        <time>2020-12-26T16:08:12Z</time>
      </trkpt>
      <trkpt lat="46.90448" lon="5.84249">
        <ele>803.4</ele>
        <time>2020-12-26T16:08:13Z</time>
      </trkpt>
      <trkpt lat="46.9045" lon="5.84239">
        <ele>803</ele>
        <time>2020-12-26T16:08:14Z</time>
      </trkpt>
      <trkpt lat="46.90453" lon="5.8423">
        <ele>803</ele>
        <time>2020-12-26T16:08:15Z</time>
      </trkpt>
      <trkpt lat="46.90455" lon="5.8422">
        <ele>802.8</ele>
        <time>2020-12-26T16:08:16Z</time>
      </trkpt>
      <trkpt lat="46.90457" lon="5.8421">
        <ele>802.8</ele>
        <time>2020-12-26T16:08:17Z</time>
      </trkpt>
      <trkpt lat="46.90459" lon="5.84201">
        <ele>802.8</ele>
        <time>2020-12-26T16:08:18Z</time>
      </trkpt>
      <trkpt lat="46.90461" lon="5.84191">
        <ele>802.8</ele>
        <time>2020-12-26T16:08:19Z</time>
      </trkpt>
      <trkpt lat="46.90464" lon="5.84181">
        <ele>802.6</ele>
        <time>2020-12-26T16:08:20Z</time>
      </trkpt>
      <trkpt lat="46.90466" lon="5.84172">
        <ele>802.6</ele>
        <time>2020-12-26T16:08:21Z</time>
      </trkpt>
      <trkpt lat="46.90468" lon="5.84163">
        <ele>802.6</ele>
        <time>2020-12-26T16:08:22Z</time>
      </trkpt>
      <trkpt lat="46.9047" lon="5.84153">
        <ele>802.6</ele>
        <time>2020-12-26T16:08:23Z</time>
      </trkpt>
      <trkpt lat="46.90472" lon="5.84144">
        <ele>802.6</ele>
        <time>2020-12-26T16:08:24Z</time>
      </trkpt>
      <trkpt lat="46.90474" lon="5.84134">
        <ele>802.6</ele>
        <time>2020-12-26T16:08:25Z</time>
      </trkpt>
      <trkpt lat="46.90477" lon="5.84124">
        <ele>802.6</ele>
        <time>2020-12-26T16:08:26Z</time>
      </trkpt>
      <trkpt lat="46.90479" lon="5.84115">
        <ele>802.6</ele>
        <time>2020-12-26T16:08:27Z</time>
      </trkpt>
      <trkpt lat="46.90481" lon="5.84105">
        <ele>802.6</ele>
        <time>2020-12-26T16:08:28Z</time>
      </trkpt>
      <trkpt lat="46.90484" lon="5.84096">
        <ele>802.6</ele>
        <time>2020-12-26T16:08:29Z</time>
      </trkpt>
      <trkpt lat="46.90486" lon="5.84086">
        <ele>802.6</ele>
        <time>2020-12-26T16:08:30Z</time>
      </trkpt>
      <trkpt lat="46.90488" lon="5.84076">
        <ele>802.6</ele>
        <time>2020-12-26T16:08:31Z</time>
      </trkpt>
      <trkpt lat="46.90491" lon="5.84066">
        <ele>802.6</ele>
        <time>2020-12-26T16:08:32Z</time>
      </trkpt>
      <trkpt lat="46.90493" lon="5.84055">
        <ele>802.6</ele>
        <time>2020-12-26T16:08:33Z</time>
      </trkpt>
      <trkpt lat="46.90495" lon="5.84045">
        <ele>802.6</ele>
        <time>2020-12-26T16:08:34Z</time>
      </trkpt>
      <trkpt lat="46.90498" lon="5.84035">
        <ele>802.2</ele>
        <time>2020-12-26T16:08:35Z</time>
      </trkpt>
      <trkpt lat="46.905" lon="5.84024">
        <ele>802.2</ele>
        <time>2020-12-26T16:08:36Z</time>
      </trkpt>
      <trkpt lat="46.90503" lon="5.84014">
        <ele>802.2</ele>
        <time>2020-12-26T16:08:37Z</time>
      </trkpt>
      <trkpt lat="46.90505" lon="5.84004">
        <ele>802</ele>
        <time>2020-12-26T16:08:38Z</time>
      </trkpt>
      <trkpt lat="46.90508" lon="5.83993">
        <ele>802</ele>
        <time>2020-12-26T16:08:39Z</time>
      </trkpt>
      <trkpt lat="46.9051" lon="5.83983">
        <ele>802</ele>
        <time>2020-12-26T16:08:40Z</time>
      </trkpt>
      <trkpt lat="46.90512" lon="5.83973">
        <ele>801.8</ele>
        <time>2020-12-26T16:08:41Z</time>
      </trkpt>
      <trkpt lat="46.90515" lon="5.83963">
        <ele>801.8</ele>
        <time>2020-12-26T16:08:42Z</time>
      </trkpt>
      <trkpt lat="46.90517" lon="5.83953">
        <ele>801.8</ele>
        <time>2020-12-26T16:08:43Z</time>
      </trkpt>
      <trkpt lat="46.90519" lon="5.83943">
        <ele>801.8</ele>
        <time>2020-12-26T16:08:44Z</time>
      </trkpt>
      <trkpt lat="46.90522" lon="5.83934">
        <ele>801.6</ele>
        <time>2020-12-26T16:08:45Z</time>
      </trkpt>
      <trkpt lat="46.90524" lon="5.83924">
        <ele>801.6</ele>
        <time>2020-12-26T16:08:46Z</time>
      </trkpt>
      <trkpt lat="46.90527" lon="5.83914">
        <ele>801.2</ele>
        <time>2020-12-26T16:08:47Z</time>
      </trkpt>
      <trkpt lat="46.90529" lon="5.83904">
        <ele>801.2</ele>
        <time>2020-12-26T16:08:48Z</time>
      </trkpt>
      <trkpt lat="46.90531" lon="5.83895">
        <ele>801.2</ele>
        <time>2020-12-26T16:08:49Z</time>
      </trkpt>
      <trkpt lat="46.90533" lon="5.83885">
        <ele>801</ele>
        <time>2020-12-26T16:08:50Z</time>
      </trkpt>
      <trkpt lat="46.90536" lon="5.83876">
        <ele>801</ele>
        <time>2020-12-26T16:08:51Z</time>
      </trkpt>
      <trkpt lat="46.90538" lon="5.83866">
        <ele>800.6</ele>
        <time>2020-12-26T16:08:52Z</time>
      </trkpt>
      <trkpt lat="46.9054" lon="5.83856">
        <ele>800.2</ele>
        <time>2020-12-26T16:08:53Z</time>
      </trkpt>
      <trkpt lat="46.90543" lon="5.83845">
        <ele>799.6</ele>
        <time>2020-12-26T16:08:54Z</time>
      </trkpt>
      <trkpt lat="46.90545" lon="5.83834">
        <ele>799.2</ele>
        <time>2020-12-26T16:08:55Z</time>
      </trkpt>
      <trkpt lat="46.90548" lon="5.83823">
        <ele>798.8</ele>
        <time>2020-12-26T16:08:56Z</time>
      </trkpt>
      <trkpt lat="46.90551" lon="5.83811">
        <ele>798.2</ele>
        <time>2020-12-26T16:08:57Z</time>
      </trkpt>
      <trkpt lat="46.90553" lon="5.83799">
        <ele>797.8</ele>
        <time>2020-12-26T16:08:58Z</time>
      </trkpt>
      <trkpt lat="46.90556" lon="5.83786">
        <ele>797.2</ele>
        <time>2020-12-26T16:08:59Z</time>
      </trkpt>
      <trkpt lat="46.90559" lon="5.83773">
        <ele>796.4</ele>
        <time>2020-12-26T16:09:00Z</time>
      </trkpt>
      <trkpt lat="46.90562" lon="5.83759">
        <ele>795.8</ele>
        <time>2020-12-26T16:09:01Z</time>
      </trkpt>
      <trkpt lat="46.90565" lon="5.83745">
        <ele>795.2</ele>
        <time>2020-12-26T16:09:02Z</time>
      </trkpt>
      <trkpt lat="46.90569" lon="5.8373">
        <ele>794.6</ele>
        <time>2020-12-26T16:09:03Z</time>
      </trkpt>
      <trkpt lat="46.90571" lon="5.83716">
        <ele>794</ele>
        <time>2020-12-26T16:09:04Z</time>
      </trkpt>
      <trkpt lat="46.90575" lon="5.83701">
        <ele>793.2</ele>
        <time>2020-12-26T16:09:05Z</time>
      </trkpt>
      <trkpt lat="46.90578" lon="5.83686">
        <ele>792.6</ele>
        <time>2020-12-26T16:09:06Z</time>
      </trkpt>
      <trkpt lat="46.90581" lon="5.8367">
        <ele>792</ele>
        <time>2020-12-26T16:09:07Z</time>
      </trkpt>
      <trkpt lat="46.90585" lon="5.83654">
        <ele>791.4</ele>
        <time>2020-12-26T16:09:08Z</time>
      </trkpt>
      <trkpt lat="46.90589" lon="5.83639">
        <ele>791</ele>
        <time>2020-12-26T16:09:09Z</time>
      </trkpt>
      <trkpt lat="46.90593" lon="5.83625">
        <ele>790.6</ele>
        <time>2020-12-26T16:09:10Z</time>
      </trkpt>
      <trkpt lat="46.90597" lon="5.83613">
        <ele>790.6</ele>
        <time>2020-12-26T16:09:11Z</time>
      </trkpt>
      <trkpt lat="46.90602" lon="5.83603">
        <ele>790.6</ele>
        <time>2020-12-26T16:09:12Z</time>
      </trkpt>
      <trkpt lat="46.90608" lon="5.83594">
        <ele>790.6</ele>
        <time>2020-12-26T16:09:13Z</time>
      </trkpt>
      <trkpt lat="46.90615" lon="5.83589">
        <ele>790.6</ele>
        <time>2020-12-26T16:09:14Z</time>
      </trkpt>
      <trkpt lat="46.90622" lon="5.83585">
        <ele>790.6</ele>
        <time>2020-12-26T16:09:15Z</time>
      </trkpt>
      <trkpt lat="46.9063" lon="5.83584">
        <ele>791</ele>
        <time>2020-12-26T16:09:16Z</time>
      </trkpt>
      <trkpt lat="46.90636" lon="5.83583">
        <ele>791.4</ele>
        <time>2020-12-26T16:09:17Z</time>
      </trkpt>
      <trkpt lat="46.90643" lon="5.83584">
        <ele>791.8</ele>
        <time>2020-12-26T16:09:18Z</time>
      </trkpt>
      <trkpt lat="46.90649" lon="5.83585">
        <ele>792.2</ele>
        <time>2020-12-26T16:09:19Z</time>
      </trkpt>
      <trkpt lat="46.90655" lon="5.83586">
        <ele>792.6</ele>
        <time>2020-12-26T16:09:20Z</time>
      </trkpt>
      <trkpt lat="46.90661" lon="5.83588">
        <ele>793.2</ele>
        <time>2020-12-26T16:09:21Z</time>
      </trkpt>
      <trkpt lat="46.90666" lon="5.83589">
        <ele>793.8</ele>
        <time>2020-12-26T16:09:22Z</time>
      </trkpt>
      <trkpt lat="46.90671" lon="5.83591">
        <ele>794.4</ele>
        <time>2020-12-26T16:09:23Z</time>
      </trkpt>
      <trkpt lat="46.90676" lon="5.83593">
        <ele>795</ele>
        <time>2020-12-26T16:09:24Z</time>
      </trkpt>
      <trkpt lat="46.9068" lon="5.83593">
        <ele>795.4</ele>
        <time>2020-12-26T16:09:25Z</time>
      </trkpt>
      <trkpt lat="46.90685" lon="5.83594">
        <ele>796</ele>
        <time>2020-12-26T16:09:26Z</time>
      </trkpt>
      <trkpt lat="46.9069" lon="5.83595">
        <ele>796.4</ele>
        <time>2020-12-26T16:09:27Z</time>
      </trkpt>
      <trkpt lat="46.90694" lon="5.83596">
        <ele>796.8</ele>
        <time>2020-12-26T16:09:28Z</time>
      </trkpt>
      <trkpt lat="46.90699" lon="5.83597">
        <ele>797.4</ele>
        <time>2020-12-26T16:09:29Z</time>
      </trkpt>
      <trkpt lat="46.90703" lon="5.83598">
        <ele>797.6</ele>
        <time>2020-12-26T16:09:30Z</time>
      </trkpt>
      <trkpt lat="46.90708" lon="5.83598">
        <ele>797.8</ele>
        <time>2020-12-26T16:09:31Z</time>
      </trkpt>
      <trkpt lat="46.90713" lon="5.83597">
        <ele>797.8</ele>
        <time>2020-12-26T16:09:32Z</time>
      </trkpt>
      <trkpt lat="46.9072" lon="5.83595">
        <ele>797.8</ele>
        <time>2020-12-26T16:09:33Z</time>
      </trkpt>
      <trkpt lat="46.90726" lon="5.83591">
        <ele>797.6</ele>
        <time>2020-12-26T16:09:34Z</time>
      </trkpt>
      <trkpt lat="46.90731" lon="5.83585">
        <ele>797.2</ele>
        <time>2020-12-26T16:09:35Z</time>
      </trkpt>
      <trkpt lat="46.90736" lon="5.83578">
        <ele>796.8</ele>
        <time>2020-12-26T16:09:36Z</time>
      </trkpt>
      <trkpt lat="46.9074" lon="5.83569">
        <ele>796.4</ele>
        <time>2020-12-26T16:09:37Z</time>
      </trkpt>
      <trkpt lat="46.90744" lon="5.83559">
        <ele>796.2</ele>
        <time>2020-12-26T16:09:38Z</time>
      </trkpt>
      <trkpt lat="46.90748" lon="5.83548">
        <ele>795.8</ele>
        <time>2020-12-26T16:09:39Z</time>
      </trkpt>
      <trkpt lat="46.90751" lon="5.83537">
        <ele>795.4</ele>
        <time>2020-12-26T16:09:40Z</time>
      </trkpt>
      <trkpt lat="46.90754" lon="5.83526">
        <ele>795.4</ele>
        <time>2020-12-26T16:09:41Z</time>
      </trkpt>
      <trkpt lat="46.90757" lon="5.83515">
        <ele>795.2</ele>
        <time>2020-12-26T16:09:42Z</time>
      </trkpt>
      <trkpt lat="46.9076" lon="5.83504">
        <ele>795.2</ele>
        <time>2020-12-26T16:09:43Z</time>
      </trkpt>
      <trkpt lat="46.90763" lon="5.83492">
        <ele>794.6</ele>
        <time>2020-12-26T16:09:44Z</time>
      </trkpt>
      <trkpt lat="46.90767" lon="5.83481">
        <ele>794.4</ele>
        <time>2020-12-26T16:09:45Z</time>
      </trkpt>
      <trkpt lat="46.9077" lon="5.8347">
        <ele>794</ele>
        <time>2020-12-26T16:09:46Z</time>
      </trkpt>
      <trkpt lat="46.90773" lon="5.83458">
        <ele>793.6</ele>
        <time>2020-12-26T16:09:47Z</time>
      </trkpt>
      <trkpt lat="46.90776" lon="5.83446">
        <ele>793.2</ele>
        <time>2020-12-26T16:09:48Z</time>
      </trkpt>
      <trkpt lat="46.9078" lon="5.83434">
        <ele>792.6</ele>
        <time>2020-12-26T16:09:49Z</time>
      </trkpt>
      <trkpt lat="46.90784" lon="5.83421">
        <ele>792.2</ele>
        <time>2020-12-26T16:09:50Z</time>
      </trkpt>
      <trkpt lat="46.90788" lon="5.83408">
        <ele>791.6</ele>
        <time>2020-12-26T16:09:51Z</time>
      </trkpt>
      <trkpt lat="46.90792" lon="5.83394">
        <ele>791</ele>
        <time>2020-12-26T16:09:52Z</time>
      </trkpt>
      <trkpt lat="46.90796" lon="5.8338">
        <ele>790.2</ele>
        <time>2020-12-26T16:09:53Z</time>
      </trkpt>
      <trkpt lat="46.908" lon="5.83366">
        <ele>789.4</ele>
        <time>2020-12-26T16:09:54Z</time>
      </trkpt>
      <trkpt lat="46.90805" lon="5.8335">
        <ele>788.8</ele>
        <time>2020-12-26T16:09:55Z</time>
      </trkpt>
      <trkpt lat="46.9081" lon="5.83334">
        <ele>788</ele>
        <time>2020-12-26T16:09:56Z</time>
      </trkpt>
      <trkpt lat="46.90815" lon="5.83319">
        <ele>787.4</ele>
        <time>2020-12-26T16:09:57Z</time>
      </trkpt>
      <trkpt lat="46.90819" lon="5.83304">
        <ele>787</ele>
        <time>2020-12-26T16:09:58Z</time>
      </trkpt>
      <trkpt lat="46.90823" lon="5.83289">
        <ele>787</ele>
        <time>2020-12-26T16:09:59Z</time>
      </trkpt>
      <trkpt lat="46.90827" lon="5.83275">
        <ele>786.6</ele>
        <time>2020-12-26T16:10:00Z</time>
      </trkpt>
      <trkpt lat="46.90832" lon="5.8326">
        <ele>786.4</ele>
        <time>2020-12-26T16:10:01Z</time>
      </trkpt>
      <trkpt lat="46.90836" lon="5.83246">
        <ele>786.4</ele>
        <time>2020-12-26T16:10:02Z</time>
      </trkpt>
      <trkpt lat="46.9084" lon="5.83233">
        <ele>786.2</ele>
        <time>2020-12-26T16:10:03Z</time>
      </trkpt>
      <trkpt lat="46.90844" lon="5.83219">
        <ele>786.2</ele>
        <time>2020-12-26T16:10:04Z</time>
      </trkpt>
      <trkpt lat="46.90848" lon="5.83205">
        <ele>786.2</ele>
        <time>2020-12-26T16:10:05Z</time>
      </trkpt>
      <trkpt lat="46.90852" lon="5.83192">
        <ele>786.2</ele>
        <time>2020-12-26T16:10:06Z</time>
      </trkpt>
      <trkpt lat="46.90856" lon="5.83179">
        <ele>786.2</ele>
        <time>2020-12-26T16:10:07Z</time>
      </trkpt>
      <trkpt lat="46.9086" lon="5.83166">
        <ele>786.2</ele>
        <time>2020-12-26T16:10:08Z</time>
      </trkpt>
      <trkpt lat="46.90863" lon="5.83154">
        <ele>786.2</ele>
        <time>2020-12-26T16:10:09Z</time>
      </trkpt>
      <trkpt lat="46.90867" lon="5.83141">
        <ele>786.2</ele>
        <time>2020-12-26T16:10:10Z</time>
      </trkpt>
      <trkpt lat="46.9087" lon="5.83129">
        <ele>786.4</ele>
        <time>2020-12-26T16:10:11Z</time>
      </trkpt>
      <trkpt lat="46.90874" lon="5.83116">
        <ele>786.4</ele>
        <time>2020-12-26T16:10:12Z</time>
      </trkpt>
      <trkpt lat="46.90877" lon="5.83104">
        <ele>786.6</ele>
        <time>2020-12-26T16:10:13Z</time>
      </trkpt>
      <trkpt lat="46.90881" lon="5.83092">
        <ele>786.6</ele>
        <time>2020-12-26T16:10:14Z</time>
      </trkpt>
      <trkpt lat="46.90885" lon="5.8308">
        <ele>787</ele>
        <time>2020-12-26T16:10:15Z</time>
      </trkpt>
      <trkpt lat="46.90888" lon="5.83068">
        <ele>787</ele>
        <time>2020-12-26T16:10:16Z</time>
      </trkpt>
      <trkpt lat="46.90892" lon="5.83057">
        <ele>787.2</ele>
        <time>2020-12-26T16:10:17Z</time>
      </trkpt>
      <trkpt lat="46.90895" lon="5.83046">
        <ele>787.2</ele>
        <time>2020-12-26T16:10:18Z</time>
      </trkpt>
      <trkpt lat="46.90898" lon="5.83034">
        <ele>787.2</ele>
        <time>2020-12-26T16:10:19Z</time>
      </trkpt>
      <trkpt lat="46.90902" lon="5.83023">
        <ele>787.2</ele>
        <time>2020-12-26T16:10:20Z</time>
      </trkpt>
      <trkpt lat="46.90905" lon="5.83012">
        <ele>787.2</ele>
        <time>2020-12-26T16:10:21Z</time>
      </trkpt>
      <trkpt lat="46.90908" lon="5.83001">
        <ele>787.4</ele>
        <time>2020-12-26T16:10:22Z</time>
      </trkpt>
      <trkpt lat="46.90911" lon="5.8299">
        <ele>787.4</ele>
        <time>2020-12-26T16:10:23Z</time>
      </trkpt>
      <trkpt lat="46.90914" lon="5.8298">
        <ele>787.4</ele>
        <time>2020-12-26T16:10:24Z</time>
      </trkpt>
      <trkpt lat="46.90917" lon="5.82969">
        <ele>787.6</ele>
        <time>2020-12-26T16:10:25Z</time>
      </trkpt>
      <trkpt lat="46.9092" lon="5.82959">
        <ele>787.6</ele>
        <time>2020-12-26T16:10:26Z</time>
      </trkpt>
      <trkpt lat="46.90924" lon="5.82949">
        <ele>788</ele>
        <time>2020-12-26T16:10:27Z</time>
      </trkpt>
      <trkpt lat="46.90926" lon="5.82939">
        <ele>788</ele>
        <time>2020-12-26T16:10:28Z</time>
      </trkpt>
      <trkpt lat="46.90929" lon="5.82929">
        <ele>788</ele>
        <time>2020-12-26T16:10:29Z</time>
      </trkpt>
      <trkpt lat="46.90932" lon="5.8292">
        <ele>788</ele>
        <time>2020-12-26T16:10:30Z</time>
      </trkpt>
      <trkpt lat="46.90935" lon="5.8291">
        <ele>788</ele>
        <time>2020-12-26T16:10:31Z</time>
      </trkpt>
      <trkpt lat="46.90938" lon="5.82901">
        <ele>788.2</ele>
        <time>2020-12-26T16:10:32Z</time>
      </trkpt>
      <trkpt lat="46.90941" lon="5.82891">
        <ele>788.4</ele>
        <time>2020-12-26T16:10:33Z</time>
      </trkpt>
      <trkpt lat="46.90944" lon="5.82882">
        <ele>788.4</ele>
        <time>2020-12-26T16:10:34Z</time>
      </trkpt>
      <trkpt lat="46.90947" lon="5.82872">
        <ele>788.8</ele>
        <time>2020-12-26T16:10:35Z</time>
      </trkpt>
      <trkpt lat="46.90949" lon="5.82863">
        <ele>788.8</ele>
        <time>2020-12-26T16:10:36Z</time>
      </trkpt>
      <trkpt lat="46.90952" lon="5.82853">
        <ele>789.4</ele>
        <time>2020-12-26T16:10:37Z</time>
      </trkpt>
      <trkpt lat="46.90955" lon="5.82844">
        <ele>789.6</ele>
        <time>2020-12-26T16:10:38Z</time>
      </trkpt>
      <trkpt lat="46.90957" lon="5.82835">
        <ele>789.8</ele>
        <time>2020-12-26T16:10:39Z</time>
      </trkpt>
      <trkpt lat="46.9096" lon="5.82825">
        <ele>790.4</ele>
        <time>2020-12-26T16:10:40Z</time>
      </trkpt>
      <trkpt lat="46.90963" lon="5.82816">
        <ele>790.6</ele>
        <time>2020-12-26T16:10:41Z</time>
      </trkpt>
      <trkpt lat="46.90966" lon="5.82807">
        <ele>790.8</ele>
        <time>2020-12-26T16:10:42Z</time>
      </trkpt>
      <trkpt lat="46.90968" lon="5.82798">
        <ele>791</ele>
        <time>2020-12-26T16:10:43Z</time>
      </trkpt>
      <trkpt lat="46.90971" lon="5.82789">
        <ele>791</ele>
        <time>2020-12-26T16:10:44Z</time>
      </trkpt>
      <trkpt lat="46.90973" lon="5.8278">
        <ele>791.6</ele>
        <time>2020-12-26T16:10:45Z</time>
      </trkpt>
      <trkpt lat="46.90976" lon="5.82771">
        <ele>791.6</ele>
        <time>2020-12-26T16:10:46Z</time>
      </trkpt>
      <trkpt lat="46.90978" lon="5.82762">
        <ele>792</ele>
        <time>2020-12-26T16:10:47Z</time>
      </trkpt>
      <trkpt lat="46.90981" lon="5.82753">
        <ele>792</ele>
        <time>2020-12-26T16:10:48Z</time>
      </trkpt>
      <trkpt lat="46.90983" lon="5.82745">
        <ele>792</ele>
        <time>2020-12-26T16:10:49Z</time>
      </trkpt>
      <trkpt lat="46.90986" lon="5.82736">
        <ele>792</ele>
        <time>2020-12-26T16:10:50Z</time>
      </trkpt>
      <trkpt lat="46.90988" lon="5.82728">
        <ele>792</ele>
        <time>2020-12-26T16:10:51Z</time>
      </trkpt>
      <trkpt lat="46.90991" lon="5.82719">
        <ele>792</ele>
        <time>2020-12-26T16:10:52Z</time>
      </trkpt>
      <trkpt lat="46.90993" lon="5.8271">
        <ele>792</ele>
        <time>2020-12-26T16:10:53Z</time>
      </trkpt>
      <trkpt lat="46.90996" lon="5.82702">
        <ele>792</ele>
        <time>2020-12-26T16:10:54Z</time>
      </trkpt>
      <trkpt lat="46.90998" lon="5.82693">
        <ele>792</ele>
        <time>2020-12-26T16:10:55Z</time>
      </trkpt>
      <trkpt lat="46.91001" lon="5.82684">
        <ele>792</ele>
        <time>2020-12-26T16:10:56Z</time>
      </trkpt>
      <trkpt lat="46.91003" lon="5.82675">
        <ele>792</ele>
        <time>2020-12-26T16:10:57Z</time>
      </trkpt>
      <trkpt lat="46.91006" lon="5.82667">
        <ele>792</ele>
        <time>2020-12-26T16:10:58Z</time>
      </trkpt>
      <trkpt lat="46.91008" lon="5.82658">
        <ele>792</ele>
        <time>2020-12-26T16:10:59Z</time>
      </trkpt>
      <trkpt lat="46.91011" lon="5.8265">
        <ele>792</ele>
        <time>2020-12-26T16:11:00Z</time>
      </trkpt>
      <trkpt lat="46.91013" lon="5.82642">
        <ele>792</ele>
        <time>2020-12-26T16:11:01Z</time>
      </trkpt>
      <trkpt lat="46.91016" lon="5.82633">
        <ele>792</ele>
        <time>2020-12-26T16:11:02Z</time>
      </trkpt>
      <trkpt lat="46.91018" lon="5.82624">
        <ele>792</ele>
        <time>2020-12-26T16:11:03Z</time>
      </trkpt>
      <trkpt lat="46.91021" lon="5.82615">
        <ele>791.6</ele>
        <time>2020-12-26T16:11:04Z</time>
      </trkpt>
      <trkpt lat="46.91023" lon="5.82607">
        <ele>791.6</ele>
        <time>2020-12-26T16:11:05Z</time>
      </trkpt>
      <trkpt lat="46.91026" lon="5.82598">
        <ele>791.6</ele>
        <time>2020-12-26T16:11:06Z</time>
      </trkpt>
      <trkpt lat="46.91029" lon="5.82588">
        <ele>791.4</ele>
        <time>2020-12-26T16:11:07Z</time>
      </trkpt>
      <trkpt lat="46.91031" lon="5.82579">
        <ele>791.4</ele>
        <time>2020-12-26T16:11:08Z</time>
      </trkpt>
      <trkpt lat="46.91034" lon="5.82569">
        <ele>791.2</ele>
        <time>2020-12-26T16:11:09Z</time>
      </trkpt>
      <trkpt lat="46.91037" lon="5.82559">
        <ele>791</ele>
        <time>2020-12-26T16:11:10Z</time>
      </trkpt>
      <trkpt lat="46.9104" lon="5.82549">
        <ele>790.8</ele>
        <time>2020-12-26T16:11:11Z</time>
      </trkpt>
      <trkpt lat="46.91044" lon="5.82539">
        <ele>790.4</ele>
        <time>2020-12-26T16:11:12Z</time>
      </trkpt>
      <trkpt lat="46.91047" lon="5.82528">
        <ele>789.8</ele>
        <time>2020-12-26T16:11:13Z</time>
      </trkpt>
      <trkpt lat="46.9105" lon="5.82517">
        <ele>789.4</ele>
        <time>2020-12-26T16:11:14Z</time>
      </trkpt>
      <trkpt lat="46.91053" lon="5.82505">
        <ele>788.8</ele>
        <time>2020-12-26T16:11:15Z</time>
      </trkpt>
      <trkpt lat="46.91057" lon="5.82493">
        <ele>788.4</ele>
        <time>2020-12-26T16:11:16Z</time>
      </trkpt>
      <trkpt lat="46.9106" lon="5.82481">
        <ele>788</ele>
        <time>2020-12-26T16:11:17Z</time>
      </trkpt>
      <trkpt lat="46.91064" lon="5.82469">
        <ele>787.8</ele>
        <time>2020-12-26T16:11:18Z</time>
      </trkpt>
      <trkpt lat="46.91067" lon="5.82457">
        <ele>787.4</ele>
        <time>2020-12-26T16:11:19Z</time>
      </trkpt>
      <trkpt lat="46.91071" lon="5.82445">
        <ele>787</ele>
        <time>2020-12-26T16:11:20Z</time>
      </trkpt>
      <trkpt lat="46.91074" lon="5.82432">
        <ele>786.6</ele>
        <time>2020-12-26T16:11:21Z</time>
      </trkpt>
      <trkpt lat="46.91078" lon="5.8242">
        <ele>786.2</ele>
        <time>2020-12-26T16:11:22Z</time>
      </trkpt>
      <trkpt lat="46.91082" lon="5.82408">
        <ele>785.8</ele>
        <time>2020-12-26T16:11:23Z</time>
      </trkpt>
      <trkpt lat="46.91085" lon="5.82396">
        <ele>785.6</ele>
        <time>2020-12-26T16:11:24Z</time>
      </trkpt>
      <trkpt lat="46.91089" lon="5.82385">
        <ele>785.4</ele>
        <time>2020-12-26T16:11:25Z</time>
      </trkpt>
      <trkpt lat="46.91092" lon="5.82373">
        <ele>785</ele>
        <time>2020-12-26T16:11:26Z</time>
      </trkpt>
      <trkpt lat="46.91095" lon="5.82361">
        <ele>784.8</ele>
        <time>2020-12-26T16:11:27Z</time>
      </trkpt>
      <trkpt lat="46.91099" lon="5.82349">
        <ele>784.8</ele>
        <time>2020-12-26T16:11:28Z</time>
      </trkpt>
      <trkpt lat="46.91102" lon="5.82337">
        <ele>784.4</ele>
        <time>2020-12-26T16:11:29Z</time>
      </trkpt>
      <trkpt lat="46.91106" lon="5.82326">
        <ele>784.2</ele>
        <time>2020-12-26T16:11:30Z</time>
      </trkpt>
      <trkpt lat="46.91109" lon="5.82314">
        <ele>784.2</ele>
        <time>2020-12-26T16:11:31Z</time>
      </trkpt>
      <trkpt lat="46.91112" lon="5.82303">
        <ele>783.8</ele>
        <time>2020-12-26T16:11:32Z</time>
      </trkpt>
      <trkpt lat="46.91116" lon="5.82291">
        <ele>783.8</ele>
        <time>2020-12-26T16:11:33Z</time>
      </trkpt>
      <trkpt lat="46.91119" lon="5.8228">
        <ele>783.6</ele>
        <time>2020-12-26T16:11:34Z</time>
      </trkpt>
      <trkpt lat="46.91122" lon="5.82268">
        <ele>783.6</ele>
        <time>2020-12-26T16:11:35Z</time>
      </trkpt>
      <trkpt lat="46.91126" lon="5.82257">
        <ele>783.6</ele>
        <time>2020-12-26T16:11:36Z</time>
      </trkpt>
      <trkpt lat="46.91129" lon="5.82246">
        <ele>783.6</ele>
        <time>2020-12-26T16:11:37Z</time>
      </trkpt>
      <trkpt lat="46.91132" lon="5.82235">
        <ele>783.8</ele>
        <time>2020-12-26T16:11:38Z</time>
      </trkpt>
      <trkpt lat="46.91135" lon="5.82224">
        <ele>783.8</ele>
        <time>2020-12-26T16:11:39Z</time>
      </trkpt>
      <trkpt lat="46.91138" lon="5.82214">
        <ele>783.8</ele>
        <time>2020-12-26T16:11:40Z</time>
      </trkpt>
      <trkpt lat="46.91141" lon="5.82203">
        <ele>783.8</ele>
        <time>2020-12-26T16:11:41Z</time>
      </trkpt>
      <trkpt lat="46.91144" lon="5.82192">
        <ele>783.8</ele>
        <time>2020-12-26T16:11:42Z</time>
      </trkpt>
      <trkpt lat="46.91147" lon="5.82182">
        <ele>783.8</ele>
        <time>2020-12-26T16:11:43Z</time>
      </trkpt>
      <trkpt lat="46.9115" lon="5.82172">
        <ele>783.8</ele>
        <time>2020-12-26T16:11:44Z</time>
      </trkpt>
      <trkpt lat="46.91153" lon="5.82162">
        <ele>783.8</ele>
        <time>2020-12-26T16:11:45Z</time>
      </trkpt>
      <trkpt lat="46.91156" lon="5.82152">
        <ele>783.8</ele>
        <time>2020-12-26T16:11:46Z</time>
      </trkpt>
      <trkpt lat="46.91159" lon="5.82142">
        <ele>783.8</ele>
        <time>2020-12-26T16:11:47Z</time>
      </trkpt>
      <trkpt lat="46.91162" lon="5.82132">
        <ele>784</ele>
        <time>2020-12-26T16:11:48Z</time>
      </trkpt>
      <trkpt lat="46.91165" lon="5.82123">
        <ele>784.2</ele>
        <time>2020-12-26T16:11:49Z</time>
      </trkpt>
      <trkpt lat="46.91168" lon="5.82113">
        <ele>784.2</ele>
        <time>2020-12-26T16:11:50Z</time>
      </trkpt>
      <trkpt lat="46.9117" lon="5.82104">
        <ele>784.6</ele>
        <time>2020-12-26T16:11:51Z</time>
      </trkpt>
      <trkpt lat="46.91173" lon="5.82094">
        <ele>784.6</ele>
        <time>2020-12-26T16:11:52Z</time>
      </trkpt>
      <trkpt lat="46.91176" lon="5.82085">
        <ele>785</ele>
        <time>2020-12-26T16:11:53Z</time>
      </trkpt>
      <trkpt lat="46.91179" lon="5.82076">
        <ele>785</ele>
        <time>2020-12-26T16:11:54Z</time>
      </trkpt>
      <trkpt lat="46.91182" lon="5.82068">
        <ele>785.2</ele>
        <time>2020-12-26T16:11:55Z</time>
      </trkpt>
      <trkpt lat="46.91185" lon="5.82059">
        <ele>785.2</ele>
        <time>2020-12-26T16:11:56Z</time>
      </trkpt>
      <trkpt lat="46.91187" lon="5.8205">
        <ele>785.2</ele>
        <time>2020-12-26T16:11:57Z</time>
      </trkpt>
      <trkpt lat="46.91189" lon="5.82042">
        <ele>785.6</ele>
        <time>2020-12-26T16:11:58Z</time>
      </trkpt>
      <trkpt lat="46.91191" lon="5.82035">
        <ele>785.6</ele>
        <time>2020-12-26T16:11:59Z</time>
      </trkpt>
      <trkpt lat="46.91193" lon="5.82027">
        <ele>785.8</ele>
        <time>2020-12-26T16:12:00Z</time>
      </trkpt>
      <trkpt lat="46.91195" lon="5.8202">
        <ele>785.8</ele>
        <time>2020-12-26T16:12:01Z</time>
      </trkpt>
      <trkpt lat="46.91197" lon="5.82013">
        <ele>785.8</ele>
        <time>2020-12-26T16:12:02Z</time>
      </trkpt>
      <trkpt lat="46.91199" lon="5.82006">
        <ele>785.8</ele>
        <time>2020-12-26T16:12:03Z</time>
      </trkpt>
      <trkpt lat="46.91201" lon="5.81998">
        <ele>785.8</ele>
        <time>2020-12-26T16:12:04Z</time>
      </trkpt>
      <trkpt lat="46.91203" lon="5.81991">
        <ele>785.8</ele>
        <time>2020-12-26T16:12:05Z</time>
      </trkpt>
      <trkpt lat="46.91205" lon="5.81983">
        <ele>785.8</ele>
        <time>2020-12-26T16:12:06Z</time>
      </trkpt>
      <trkpt lat="46.91207" lon="5.81976">
        <ele>785.6</ele>
        <time>2020-12-26T16:12:07Z</time>
      </trkpt>
      <trkpt lat="46.91208" lon="5.81968">
        <ele>785.6</ele>
        <time>2020-12-26T16:12:08Z</time>
      </trkpt>
      <trkpt lat="46.9121" lon="5.8196">
        <ele>785.6</ele>
        <time>2020-12-26T16:12:09Z</time>
      </trkpt>
      <trkpt lat="46.91211" lon="5.81952">
        <ele>785.2</ele>
        <time>2020-12-26T16:12:10Z</time>
      </trkpt>
      <trkpt lat="46.91212" lon="5.81944">
        <ele>785.2</ele>
        <time>2020-12-26T16:12:11Z</time>
      </trkpt>
      <trkpt lat="46.91213" lon="5.81936">
        <ele>785.2</ele>
        <time>2020-12-26T16:12:12Z</time>
      </trkpt>
      <trkpt lat="46.91213" lon="5.81929">
        <ele>785</ele>
        <time>2020-12-26T16:12:13Z</time>
      </trkpt>
      <trkpt lat="46.91214" lon="5.81921">
        <ele>785</ele>
        <time>2020-12-26T16:12:14Z</time>
      </trkpt>
      <trkpt lat="46.91214" lon="5.81915">
        <ele>784.8</ele>
        <time>2020-12-26T16:12:15Z</time>
      </trkpt>
      <trkpt lat="46.91213" lon="5.81909">
        <ele>784.8</ele>
        <time>2020-12-26T16:12:16Z</time>
      </trkpt>
      <trkpt lat="46.91213" lon="5.81903">
        <ele>784.4</ele>
        <time>2020-12-26T16:12:17Z</time>
      </trkpt>
      <trkpt lat="46.91213" lon="5.81897">
        <ele>784.4</ele>
        <time>2020-12-26T16:12:18Z</time>
      </trkpt>
      <trkpt lat="46.91212" lon="5.8189">
        <ele>784.2</ele>
        <time>2020-12-26T16:12:19Z</time>
      </trkpt>
      <trkpt lat="46.91212" lon="5.81885">
        <ele>784.2</ele>
        <time>2020-12-26T16:12:20Z</time>
      </trkpt>
      <trkpt lat="46.91211" lon="5.8188">
        <ele>783.8</ele>
        <time>2020-12-26T16:12:21Z</time>
      </trkpt>
      <trkpt lat="46.91211" lon="5.81875">
        <ele>783.8</ele>
        <time>2020-12-26T16:12:22Z</time>
      </trkpt>
      <trkpt lat="46.9121" lon="5.81871">
        <ele>783.6</ele>
        <time>2020-12-26T16:12:23Z</time>
      </trkpt>
      <trkpt lat="46.91209" lon="5.81868">
        <ele>783.6</ele>
        <time>2020-12-26T16:12:24Z</time>
      </trkpt>
      <trkpt lat="46.91208" lon="5.81866">
        <ele>783.4</ele>
        <time>2020-12-26T16:12:25Z</time>
      </trkpt>
      <trkpt lat="46.91208" lon="5.81863">
        <ele>783.4</ele>
        <time>2020-12-26T16:12:26Z</time>
      </trkpt>
      <trkpt lat="46.91208" lon="5.81861">
        <ele>783</ele>
        <time>2020-12-26T16:12:27Z</time>
      </trkpt>
      <trkpt lat="46.91209" lon="5.81858">
        <ele>783</ele>
        <time>2020-12-26T16:12:28Z</time>
      </trkpt>
      <trkpt lat="46.9121" lon="5.81855">
        <ele>783</ele>
        <time>2020-12-26T16:12:29Z</time>
      </trkpt>
      <trkpt lat="46.91212" lon="5.81852">
        <ele>782.8</ele>
        <time>2020-12-26T16:12:30Z</time>
      </trkpt>
      <trkpt lat="46.91214" lon="5.81849">
        <ele>782.6</ele>
        <time>2020-12-26T16:12:31Z</time>
      </trkpt>
      <trkpt lat="46.91216" lon="5.81847">
        <ele>782.4</ele>
        <time>2020-12-26T16:12:32Z</time>
      </trkpt>
      <trkpt lat="46.91218" lon="5.81845">
        <ele>782</ele>
        <time>2020-12-26T16:12:33Z</time>
      </trkpt>
      <trkpt lat="46.91219" lon="5.81842">
        <ele>781.8</ele>
        <time>2020-12-26T16:12:34Z</time>
      </trkpt>
      <trkpt lat="46.9122" lon="5.8184">
        <ele>781.8</ele>
        <time>2020-12-26T16:12:35Z</time>
      </trkpt>
      <trkpt lat="46.91222" lon="5.81837">
        <ele>781.8</ele>
        <time>2020-12-26T16:12:36Z</time>
      </trkpt>
      <trkpt lat="46.91224" lon="5.81834">
        <ele>781.6</ele>
        <time>2020-12-26T16:12:37Z</time>
      </trkpt>
      <trkpt lat="46.91226" lon="5.81832">
        <ele>781.2</ele>
        <time>2020-12-26T16:12:38Z</time>
      </trkpt>
      <trkpt lat="46.91228" lon="5.81829">
        <ele>781.2</ele>
        <time>2020-12-26T16:12:39Z</time>
      </trkpt>
      <trkpt lat="46.9123" lon="5.81826">
        <ele>781</ele>
        <time>2020-12-26T16:12:40Z</time>
      </trkpt>
      <trkpt lat="46.91232" lon="5.81824">
        <ele>781</ele>
        <time>2020-12-26T16:12:41Z</time>
      </trkpt>
      <trkpt lat="46.91234" lon="5.81822">
        <ele>780.8</ele>
        <time>2020-12-26T16:12:42Z</time>
      </trkpt>
      <trkpt lat="46.91237" lon="5.81819">
        <ele>780.8</ele>
        <time>2020-12-26T16:12:43Z</time>
      </trkpt>
      <trkpt lat="46.91239" lon="5.81817">
        <ele>780.8</ele>
        <time>2020-12-26T16:12:44Z</time>
      </trkpt>
      <trkpt lat="46.91242" lon="5.81815">
        <ele>780.4</ele>
        <time>2020-12-26T16:12:45Z</time>
      </trkpt>
      <trkpt lat="46.91245" lon="5.81813">
        <ele>780.4</ele>
        <time>2020-12-26T16:12:46Z</time>
      </trkpt>
      <trkpt lat="46.91248" lon="5.81811">
        <ele>780</ele>
        <time>2020-12-26T16:12:47Z</time>
      </trkpt>
      <trkpt lat="46.91252" lon="5.8181">
        <ele>779.6</ele>
        <time>2020-12-26T16:12:48Z</time>
      </trkpt>
      <trkpt lat="46.91256" lon="5.81809">
        <ele>779.4</ele>
        <time>2020-12-26T16:12:49Z</time>
      </trkpt>
      <trkpt lat="46.9126" lon="5.81808">
        <ele>779.4</ele>
        <time>2020-12-26T16:12:50Z</time>
      </trkpt>
      <trkpt lat="46.91265" lon="5.81808">
        <ele>779</ele>
        <time>2020-12-26T16:12:51Z</time>
      </trkpt>
      <trkpt lat="46.9127" lon="5.81807">
        <ele>778.8</ele>
        <time>2020-12-26T16:12:52Z</time>
      </trkpt>
      <trkpt lat="46.91276" lon="5.81807">
        <ele>778.4</ele>
        <time>2020-12-26T16:12:53Z</time>
      </trkpt>
      <trkpt lat="46.91283" lon="5.81806">
        <ele>777.8</ele>
        <time>2020-12-26T16:12:54Z</time>
      </trkpt>
      <trkpt lat="46.91289" lon="5.81805">
        <ele>777.4</ele>
        <time>2020-12-26T16:12:55Z</time>
      </trkpt>
      <trkpt lat="46.91297" lon="5.81805">
        <ele>776.8</ele>
        <time>2020-12-26T16:12:56Z</time>
      </trkpt>
      <trkpt lat="46.91304" lon="5.81806">
        <ele>776.2</ele>
        <time>2020-12-26T16:12:57Z</time>
      </trkpt>
      <trkpt lat="46.91312" lon="5.81806">
        <ele>775.6</ele>
        <time>2020-12-26T16:12:58Z</time>
      </trkpt>
      <trkpt lat="46.9132" lon="5.81806">
        <ele>775.2</ele>
        <time>2020-12-26T16:12:59Z</time>
      </trkpt>
      <trkpt lat="46.91327" lon="5.81806">
        <ele>774.8</ele>
        <time>2020-12-26T16:13:00Z</time>
      </trkpt>
      <trkpt lat="46.91335" lon="5.81806">
        <ele>774.4</ele>
        <time>2020-12-26T16:13:01Z</time>
      </trkpt>
      <trkpt lat="46.91343" lon="5.81806">
        <ele>774</ele>
        <time>2020-12-26T16:13:02Z</time>
      </trkpt>
      <trkpt lat="46.91351" lon="5.81806">
        <ele>773.4</ele>
        <time>2020-12-26T16:13:03Z</time>
      </trkpt>
      <trkpt lat="46.91359" lon="5.81806">
        <ele>773</ele>
        <time>2020-12-26T16:13:04Z</time>
      </trkpt>
      <trkpt lat="46.91368" lon="5.81806">
        <ele>772.4</ele>
        <time>2020-12-26T16:13:05Z</time>
      </trkpt>
      <trkpt lat="46.91376" lon="5.81806">
        <ele>772</ele>
        <time>2020-12-26T16:13:06Z</time>
      </trkpt>
      <trkpt lat="46.91385" lon="5.81806">
        <ele>771.6</ele>
        <time>2020-12-26T16:13:07Z</time>
      </trkpt>
      <trkpt lat="46.91395" lon="5.81805">
        <ele>771.2</ele>
        <time>2020-12-26T16:13:08Z</time>
      </trkpt>
      <trkpt lat="46.91404" lon="5.81805">
        <ele>770.6</ele>
        <time>2020-12-26T16:13:09Z</time>
      </trkpt>
      <trkpt lat="46.91413" lon="5.81805">
        <ele>769.8</ele>
        <time>2020-12-26T16:13:10Z</time>
      </trkpt>
      <trkpt lat="46.91423" lon="5.81804">
        <ele>769.2</ele>
        <time>2020-12-26T16:13:11Z</time>
      </trkpt>
      <trkpt lat="46.91433" lon="5.81804">
        <ele>768.6</ele>
        <time>2020-12-26T16:13:12Z</time>
      </trkpt>
      <trkpt lat="46.91442" lon="5.81803">
        <ele>768.2</ele>
        <time>2020-12-26T16:13:13Z</time>
      </trkpt>
      <trkpt lat="46.91451" lon="5.81802">
        <ele>768</ele>
        <time>2020-12-26T16:13:14Z</time>
      </trkpt>
      <trkpt lat="46.91459" lon="5.81801">
        <ele>768</ele>
        <time>2020-12-26T16:13:15Z</time>
      </trkpt>
      <trkpt lat="46.91467" lon="5.81799">
        <ele>767.6</ele>
        <time>2020-12-26T16:13:16Z</time>
      </trkpt>
      <trkpt lat="46.91475" lon="5.81798">
        <ele>767.6</ele>
        <time>2020-12-26T16:13:17Z</time>
      </trkpt>
      <trkpt lat="46.91482" lon="5.81796">
        <ele>767.6</ele>
        <time>2020-12-26T16:13:18Z</time>
      </trkpt>
      <trkpt lat="46.91488" lon="5.81794">
        <ele>767.6</ele>
        <time>2020-12-26T16:13:19Z</time>
      </trkpt>
      <trkpt lat="46.91493" lon="5.81791">
        <ele>767.4</ele>
        <time>2020-12-26T16:13:20Z</time>
      </trkpt>
      <trkpt lat="46.91499" lon="5.81787">
        <ele>767.4</ele>
        <time>2020-12-26T16:13:21Z</time>
      </trkpt>
      <trkpt lat="46.91505" lon="5.81782">
        <ele>767.4</ele>
        <time>2020-12-26T16:13:22Z</time>
      </trkpt>
      <trkpt lat="46.9151" lon="5.81776">
        <ele>766.8</ele>
        <time>2020-12-26T16:13:23Z</time>
      </trkpt>
      <trkpt lat="46.91514" lon="5.81768">
        <ele>766.8</ele>
        <time>2020-12-26T16:13:24Z</time>
      </trkpt>
      <trkpt lat="46.91518" lon="5.81759">
        <ele>766.8</ele>
        <time>2020-12-26T16:13:25Z</time>
      </trkpt>
      <trkpt lat="46.9152" lon="5.81751">
        <ele>766.8</ele>
        <time>2020-12-26T16:13:26Z</time>
      </trkpt>
      <trkpt lat="46.91522" lon="5.81742">
        <ele>766.6</ele>
        <time>2020-12-26T16:13:27Z</time>
      </trkpt>
      <trkpt lat="46.91522" lon="5.81732">
        <ele>766.6</ele>
        <time>2020-12-26T16:13:28Z</time>
      </trkpt>
      <trkpt lat="46.91521" lon="5.81723">
        <ele>766.6</ele>
        <time>2020-12-26T16:13:29Z</time>
      </trkpt>
      <trkpt lat="46.9152" lon="5.81715">
        <ele>766.6</ele>
        <time>2020-12-26T16:13:30Z</time>
      </trkpt>
      <trkpt lat="46.91518" lon="5.81707">
        <ele>766.6</ele>
        <time>2020-12-26T16:13:31Z</time>
      </trkpt>
      <trkpt lat="46.91515" lon="5.81699">
        <ele>766.4</ele>
        <time>2020-12-26T16:13:32Z</time>
      </trkpt>
      <trkpt lat="46.91513" lon="5.81691">
        <ele>766.4</ele>
        <time>2020-12-26T16:13:33Z</time>
      </trkpt>
      <trkpt lat="46.91511" lon="5.81683">
        <ele>766.4</ele>
        <time>2020-12-26T16:13:34Z</time>
      </trkpt>
      <trkpt lat="46.91508" lon="5.81676">
        <ele>766.4</ele>
        <time>2020-12-26T16:13:35Z</time>
      </trkpt>
      <trkpt lat="46.91506" lon="5.81668">
        <ele>766.2</ele>
        <time>2020-12-26T16:13:36Z</time>
      </trkpt>
      <trkpt lat="46.91503" lon="5.8166">
        <ele>766.2</ele>
        <time>2020-12-26T16:13:37Z</time>
      </trkpt>
      <trkpt lat="46.91501" lon="5.81652">
        <ele>765.8</ele>
        <time>2020-12-26T16:13:38Z</time>
      </trkpt>
      <trkpt lat="46.91499" lon="5.81644">
        <ele>765.4</ele>
        <time>2020-12-26T16:13:39Z</time>
      </trkpt>
      <trkpt lat="46.91496" lon="5.81636">
        <ele>765.2</ele>
        <time>2020-12-26T16:13:40Z</time>
      </trkpt>
      <trkpt lat="46.91494" lon="5.81627">
        <ele>765</ele>
        <time>2020-12-26T16:13:41Z</time>
      </trkpt>
      <trkpt lat="46.91491" lon="5.81619">
        <ele>764.8</ele>
        <time>2020-12-26T16:13:42Z</time>
      </trkpt>
      <trkpt lat="46.91489" lon="5.8161">
        <ele>764.6</ele>
        <time>2020-12-26T16:13:43Z</time>
      </trkpt>
      <trkpt lat="46.91486" lon="5.81602">
        <ele>764.2</ele>
        <time>2020-12-26T16:13:44Z</time>
      </trkpt>
      <trkpt lat="46.91484" lon="5.81593">
        <ele>764.2</ele>
        <time>2020-12-26T16:13:45Z</time>
      </trkpt>
      <trkpt lat="46.91481" lon="5.81584">
        <ele>764</ele>
        <time>2020-12-26T16:13:46Z</time>
      </trkpt>
      <trkpt lat="46.91478" lon="5.81575">
        <ele>764</ele>
        <time>2020-12-26T16:13:47Z</time>
      </trkpt>
      <trkpt lat="46.91475" lon="5.81566">
        <ele>763.6</ele>
        <time>2020-12-26T16:13:48Z</time>
      </trkpt>
      <trkpt lat="46.91472" lon="5.81557">
        <ele>763.4</ele>
        <time>2020-12-26T16:13:49Z</time>
      </trkpt>
      <trkpt lat="46.91469" lon="5.81548">
        <ele>763.2</ele>
        <time>2020-12-26T16:13:50Z</time>
      </trkpt>
      <trkpt lat="46.91466" lon="5.81539">
        <ele>763.2</ele>
        <time>2020-12-26T16:13:51Z</time>
      </trkpt>
      <trkpt lat="46.91463" lon="5.81531">
        <ele>762.8</ele>
        <time>2020-12-26T16:13:52Z</time>
      </trkpt>
      <trkpt lat="46.91459" lon="5.81522">
        <ele>762.8</ele>
        <time>2020-12-26T16:13:53Z</time>
      </trkpt>
      <trkpt lat="46.91456" lon="5.81514">
        <ele>762.4</ele>
        <time>2020-12-26T16:13:54Z</time>
      </trkpt>
      <trkpt lat="46.91451" lon="5.81506">
        <ele>762.4</ele>
        <time>2020-12-26T16:13:55Z</time>
      </trkpt>
      <trkpt lat="46.91447" lon="5.81499">
        <ele>762</ele>
        <time>2020-12-26T16:13:56Z</time>
      </trkpt>
      <trkpt lat="46.91443" lon="5.81492">
        <ele>762</ele>
        <time>2020-12-26T16:13:57Z</time>
      </trkpt>
      <trkpt lat="46.91438" lon="5.81484">
        <ele>761.8</ele>
        <time>2020-12-26T16:13:58Z</time>
      </trkpt>
      <trkpt lat="46.91433" lon="5.81477">
        <ele>761.6</ele>
        <time>2020-12-26T16:13:59Z</time>
      </trkpt>
      <trkpt lat="46.91428" lon="5.8147">
        <ele>761.4</ele>
        <time>2020-12-26T16:14:00Z</time>
      </trkpt>
      <trkpt lat="46.91423" lon="5.81463">
        <ele>761.4</ele>
        <time>2020-12-26T16:14:01Z</time>
      </trkpt>
      <trkpt lat="46.91418" lon="5.81456">
        <ele>761</ele>
        <time>2020-12-26T16:14:02Z</time>
      </trkpt>
      <trkpt lat="46.91413" lon="5.81449">
        <ele>761</ele>
        <time>2020-12-26T16:14:03Z</time>
      </trkpt>
      <trkpt lat="46.91408" lon="5.81442">
        <ele>760.8</ele>
        <time>2020-12-26T16:14:04Z</time>
      </trkpt>
      <trkpt lat="46.91403" lon="5.81434">
        <ele>760.6</ele>
        <time>2020-12-26T16:14:05Z</time>
      </trkpt>
      <trkpt lat="46.91398" lon="5.81427">
        <ele>760.2</ele>
        <time>2020-12-26T16:14:06Z</time>
      </trkpt>
      <trkpt lat="46.91392" lon="5.81419">
        <ele>760</ele>
        <time>2020-12-26T16:14:07Z</time>
      </trkpt>
      <trkpt lat="46.91387" lon="5.81412">
        <ele>759.8</ele>
        <time>2020-12-26T16:14:08Z</time>
      </trkpt>
      <trkpt lat="46.91382" lon="5.81404">
        <ele>759.6</ele>
        <time>2020-12-26T16:14:09Z</time>
      </trkpt>
      <trkpt lat="46.91377" lon="5.81396">
        <ele>759.4</ele>
        <time>2020-12-26T16:14:10Z</time>
      </trkpt>
      <trkpt lat="46.91371" lon="5.81389">
        <ele>759.4</ele>
        <time>2020-12-26T16:14:11Z</time>
      </trkpt>
      <trkpt lat="46.91366" lon="5.81381">
        <ele>759</ele>
        <time>2020-12-26T16:14:12Z</time>
      </trkpt>
      <trkpt lat="46.91361" lon="5.81374">
        <ele>759</ele>
        <time>2020-12-26T16:14:13Z</time>
      </trkpt>
      <trkpt lat="46.91355" lon="5.81366">
        <ele>758.8</ele>
        <time>2020-12-26T16:14:14Z</time>
      </trkpt>
      <trkpt lat="46.9135" lon="5.81359">
        <ele>758.8</ele>
        <time>2020-12-26T16:14:15Z</time>
      </trkpt>
      <trkpt lat="46.91344" lon="5.81353">
        <ele>758.8</ele>
        <time>2020-12-26T16:14:16Z</time>
      </trkpt>
      <trkpt lat="46.91339" lon="5.81346">
        <ele>758.6</ele>
        <time>2020-12-26T16:14:17Z</time>
      </trkpt>
      <trkpt lat="46.91333" lon="5.8134">
        <ele>758.6</ele>
        <time>2020-12-26T16:14:18Z</time>
      </trkpt>
      <trkpt lat="46.91327" lon="5.81334">
        <ele>758.2</ele>
        <time>2020-12-26T16:14:19Z</time>
      </trkpt>
      <trkpt lat="46.91322" lon="5.81327">
        <ele>758.2</ele>
        <time>2020-12-26T16:14:20Z</time>
      </trkpt>
      <trkpt lat="46.91316" lon="5.81321">
        <ele>758</ele>
        <time>2020-12-26T16:14:21Z</time>
      </trkpt>
      <trkpt lat="46.9131" lon="5.81315">
        <ele>758</ele>
        <time>2020-12-26T16:14:22Z</time>
      </trkpt>
      <trkpt lat="46.91304" lon="5.81309">
        <ele>757.8</ele>
        <time>2020-12-26T16:14:23Z</time>
      </trkpt>
      <trkpt lat="46.91299" lon="5.81302">
        <ele>757.8</ele>
        <time>2020-12-26T16:14:24Z</time>
      </trkpt>
      <trkpt lat="46.91293" lon="5.81296">
        <ele>757.4</ele>
        <time>2020-12-26T16:14:25Z</time>
      </trkpt>
      <trkpt lat="46.91287" lon="5.81289">
        <ele>757.4</ele>
        <time>2020-12-26T16:14:26Z</time>
      </trkpt>
      <trkpt lat="46.91282" lon="5.81282">
        <ele>757.2</ele>
        <time>2020-12-26T16:14:27Z</time>
      </trkpt>
      <trkpt lat="46.91276" lon="5.81275">
        <ele>757.2</ele>
        <time>2020-12-26T16:14:28Z</time>
      </trkpt>
      <trkpt lat="46.9127" lon="5.81269">
        <ele>756.8</ele>
        <time>2020-12-26T16:14:29Z</time>
      </trkpt>
      <trkpt lat="46.91263" lon="5.81262">
        <ele>756.6</ele>
        <time>2020-12-26T16:14:30Z</time>
      </trkpt>
      <trkpt lat="46.91257" lon="5.81257">
        <ele>756.6</ele>
        <time>2020-12-26T16:14:31Z</time>
      </trkpt>
      <trkpt lat="46.9125" lon="5.81252">
        <ele>756.4</ele>
        <time>2020-12-26T16:14:32Z</time>
      </trkpt>
      <trkpt lat="46.91243" lon="5.81247">
        <ele>756.4</ele>
        <time>2020-12-26T16:14:33Z</time>
      </trkpt>
      <trkpt lat="46.91236" lon="5.81243">
        <ele>756.4</ele>
        <time>2020-12-26T16:14:34Z</time>
      </trkpt>
      <trkpt lat="46.91229" lon="5.8124">
        <ele>756.2</ele>
        <time>2020-12-26T16:14:35Z</time>
      </trkpt>
      <trkpt lat="46.91222" lon="5.81237">
        <ele>756.2</ele>
        <time>2020-12-26T16:14:36Z</time>
      </trkpt>
      <trkpt lat="46.91216" lon="5.81234">
        <ele>756.2</ele>
        <time>2020-12-26T16:14:37Z</time>
      </trkpt>
      <trkpt lat="46.91209" lon="5.81231">
        <ele>756.2</ele>
        <time>2020-12-26T16:14:38Z</time>
      </trkpt>
      <trkpt lat="46.91202" lon="5.81229">
        <ele>756.2</ele>
        <time>2020-12-26T16:14:39Z</time>
      </trkpt>
      <trkpt lat="46.91195" lon="5.81226">
        <ele>756.2</ele>
        <time>2020-12-26T16:14:40Z</time>
      </trkpt>
      <trkpt lat="46.91188" lon="5.81224">
        <ele>756.2</ele>
        <time>2020-12-26T16:14:41Z</time>
      </trkpt>
      <trkpt lat="46.91181" lon="5.81222">
        <ele>756.2</ele>
        <time>2020-12-26T16:14:42Z</time>
      </trkpt>
      <trkpt lat="46.91174" lon="5.81219">
        <ele>756.2</ele>
        <time>2020-12-26T16:14:43Z</time>
      </trkpt>
      <trkpt lat="46.91167" lon="5.81217">
        <ele>756.2</ele>
        <time>2020-12-26T16:14:44Z</time>
      </trkpt>
      <trkpt lat="46.91161" lon="5.81215">
        <ele>756.2</ele>
        <time>2020-12-26T16:14:45Z</time>
      </trkpt>
      <trkpt lat="46.91154" lon="5.81213">
        <ele>756.2</ele>
        <time>2020-12-26T16:14:46Z</time>
      </trkpt>
      <trkpt lat="46.91147" lon="5.81211">
        <ele>756.2</ele>
        <time>2020-12-26T16:14:47Z</time>
      </trkpt>
      <trkpt lat="46.91141" lon="5.81208">
        <ele>756.2</ele>
        <time>2020-12-26T16:14:48Z</time>
      </trkpt>
      <trkpt lat="46.91134" lon="5.81206">
        <ele>756.2</ele>
        <time>2020-12-26T16:14:49Z</time>
      </trkpt>
      <trkpt lat="46.91127" lon="5.81205">
        <ele>756.2</ele>
        <time>2020-12-26T16:14:50Z</time>
      </trkpt>
      <trkpt lat="46.91121" lon="5.81204">
        <ele>756.2</ele>
        <time>2020-12-26T16:14:51Z</time>
      </trkpt>
      <trkpt lat="46.91114" lon="5.81203">
        <ele>756.2</ele>
        <time>2020-12-26T16:14:52Z</time>
      </trkpt>
      <trkpt lat="46.91107" lon="5.81204">
        <ele>756.2</ele>
        <time>2020-12-26T16:14:53Z</time>
      </trkpt>
      <trkpt lat="46.911" lon="5.81206">
        <ele>756.2</ele>
        <time>2020-12-26T16:14:54Z</time>
      </trkpt>
      <trkpt lat="46.91094" lon="5.81209">
        <ele>756.2</ele>
        <time>2020-12-26T16:14:55Z</time>
      </trkpt>
      <trkpt lat="46.91087" lon="5.81212">
        <ele>756.2</ele>
        <time>2020-12-26T16:14:56Z</time>
      </trkpt>
      <trkpt lat="46.91081" lon="5.81216">
        <ele>756.2</ele>
        <time>2020-12-26T16:14:57Z</time>
      </trkpt>
      <trkpt lat="46.91075" lon="5.8122">
        <ele>756.2</ele>
        <time>2020-12-26T16:14:58Z</time>
      </trkpt>
      <trkpt lat="46.91069" lon="5.81226">
        <ele>755.8</ele>
        <time>2020-12-26T16:14:59Z</time>
      </trkpt>
      <trkpt lat="46.91063" lon="5.81231">
        <ele>755.8</ele>
        <time>2020-12-26T16:15:00Z</time>
      </trkpt>
      <trkpt lat="46.91058" lon="5.81236">
        <ele>755.8</ele>
        <time>2020-12-26T16:15:01Z</time>
      </trkpt>
      <trkpt lat="46.91053" lon="5.8124">
        <ele>755.8</ele>
        <time>2020-12-26T16:15:02Z</time>
      </trkpt>
      <trkpt lat="46.91047" lon="5.81243">
        <ele>755.8</ele>
        <time>2020-12-26T16:15:03Z</time>
      </trkpt>
      <trkpt lat="46.9104" lon="5.81245">
        <ele>755.8</ele>
        <time>2020-12-26T16:15:04Z</time>
      </trkpt>
      <trkpt lat="46.91034" lon="5.81246">
        <ele>755.8</ele>
        <time>2020-12-26T16:15:05Z</time>
      </trkpt>
      <trkpt lat="46.91027" lon="5.81245">
        <ele>755.8</ele>
        <time>2020-12-26T16:15:06Z</time>
      </trkpt>
      <trkpt lat="46.91021" lon="5.81243">
        <ele>755.8</ele>
        <time>2020-12-26T16:15:07Z</time>
      </trkpt>
      <trkpt lat="46.91016" lon="5.81239">
        <ele>755.8</ele>
        <time>2020-12-26T16:15:08Z</time>
      </trkpt>
      <trkpt lat="46.9101" lon="5.81235">
        <ele>755.6</ele>
        <time>2020-12-26T16:15:09Z</time>
      </trkpt>
      <trkpt lat="46.91003" lon="5.81231">
        <ele>755.6</ele>
        <time>2020-12-26T16:15:10Z</time>
      </trkpt>
      <trkpt lat="46.90997" lon="5.81228">
        <ele>755.2</ele>
        <time>2020-12-26T16:15:11Z</time>
      </trkpt>
      <trkpt lat="46.9099" lon="5.81225">
        <ele>755.2</ele>
        <time>2020-12-26T16:15:12Z</time>
      </trkpt>
      <trkpt lat="46.90983" lon="5.81223">
        <ele>754.8</ele>
        <time>2020-12-26T16:15:13Z</time>
      </trkpt>
      <trkpt lat="46.90976" lon="5.81221">
        <ele>754.8</ele>
        <time>2020-12-26T16:15:14Z</time>
      </trkpt>
      <trkpt lat="46.90968" lon="5.8122">
        <ele>754.6</ele>
        <time>2020-12-26T16:15:15Z</time>
      </trkpt>
      <trkpt lat="46.90961" lon="5.8122">
        <ele>754.6</ele>
        <time>2020-12-26T16:15:16Z</time>
      </trkpt>
      <trkpt lat="46.90954" lon="5.81221">
        <ele>754.6</ele>
        <time>2020-12-26T16:15:17Z</time>
      </trkpt>
      <trkpt lat="46.90947" lon="5.81221">
        <ele>754.6</ele>
        <time>2020-12-26T16:15:18Z</time>
      </trkpt>
      <trkpt lat="46.90941" lon="5.81222">
        <ele>754.6</ele>
        <time>2020-12-26T16:15:19Z</time>
      </trkpt>
      <trkpt lat="46.90934" lon="5.81222">
        <ele>754.6</ele>
        <time>2020-12-26T16:15:20Z</time>
      </trkpt>
      <trkpt lat="46.90928" lon="5.81223">
        <ele>754.6</ele>
        <time>2020-12-26T16:15:21Z</time>
      </trkpt>
      <trkpt lat="46.90921" lon="5.81222">
        <ele>754.6</ele>
        <time>2020-12-26T16:15:22Z</time>
      </trkpt>
      <trkpt lat="46.90915" lon="5.8122">
        <ele>754.6</ele>
        <time>2020-12-26T16:15:23Z</time>
      </trkpt>
      <trkpt lat="46.90908" lon="5.81217">
        <ele>754.6</ele>
        <time>2020-12-26T16:15:24Z</time>
      </trkpt>
      <trkpt lat="46.90902" lon="5.81212">
        <ele>754.6</ele>
        <time>2020-12-26T16:15:25Z</time>
      </trkpt>
      <trkpt lat="46.90897" lon="5.81207">
        <ele>754.6</ele>
        <time>2020-12-26T16:15:26Z</time>
      </trkpt>
      <trkpt lat="46.90892" lon="5.812">
        <ele>754.6</ele>
        <time>2020-12-26T16:15:27Z</time>
      </trkpt>
      <trkpt lat="46.90887" lon="5.81193">
        <ele>754.6</ele>
        <time>2020-12-26T16:15:28Z</time>
      </trkpt>
      <trkpt lat="46.90883" lon="5.81186">
        <ele>754.6</ele>
        <time>2020-12-26T16:15:29Z</time>
      </trkpt>
      <trkpt lat="46.90878" lon="5.81178">
        <ele>754.6</ele>
        <time>2020-12-26T16:15:30Z</time>
      </trkpt>
      <trkpt lat="46.90875" lon="5.81169">
        <ele>754.6</ele>
        <time>2020-12-26T16:15:31Z</time>
      </trkpt>
      <trkpt lat="46.90872" lon="5.8116">
        <ele>754.8</ele>
        <time>2020-12-26T16:15:32Z</time>
      </trkpt>
      <trkpt lat="46.9087" lon="5.81151">
        <ele>754.8</ele>
        <time>2020-12-26T16:15:33Z</time>
      </trkpt>
      <trkpt lat="46.90867" lon="5.81142">
        <ele>754.8</ele>
        <time>2020-12-26T16:15:34Z</time>
      </trkpt>
      <trkpt lat="46.90865" lon="5.81133">
        <ele>754.8</ele>
        <time>2020-12-26T16:15:35Z</time>
      </trkpt>
      <trkpt lat="46.90863" lon="5.81124">
        <ele>754.8</ele>
        <time>2020-12-26T16:15:36Z</time>
      </trkpt>
      <trkpt lat="46.9086" lon="5.81115">
        <ele>754.8</ele>
        <time>2020-12-26T16:15:37Z</time>
      </trkpt>
      <trkpt lat="46.90858" lon="5.81105">
        <ele>754.8</ele>
        <time>2020-12-26T16:15:38Z</time>
      </trkpt>
      <trkpt lat="46.90855" lon="5.81096">
        <ele>755</ele>
        <time>2020-12-26T16:15:39Z</time>
      </trkpt>
      <trkpt lat="46.90853" lon="5.81087">
        <ele>755</ele>
        <time>2020-12-26T16:15:40Z</time>
      </trkpt>
      <trkpt lat="46.9085" lon="5.81078">
        <ele>755</ele>
        <time>2020-12-26T16:15:41Z</time>
      </trkpt>
      <trkpt lat="46.90848" lon="5.81069">
        <ele>755.6</ele>
        <time>2020-12-26T16:15:42Z</time>
      </trkpt>
      <trkpt lat="46.90846" lon="5.81059">
        <ele>755.8</ele>
        <time>2020-12-26T16:15:43Z</time>
      </trkpt>
      <trkpt lat="46.90844" lon="5.8105">
        <ele>756</ele>
        <time>2020-12-26T16:15:44Z</time>
      </trkpt>
      <trkpt lat="46.90842" lon="5.81041">
        <ele>756</ele>
        <time>2020-12-26T16:15:45Z</time>
      </trkpt>
      <trkpt lat="46.9084" lon="5.81031">
        <ele>756.4</ele>
        <time>2020-12-26T16:15:46Z</time>
      </trkpt>
      <trkpt lat="46.90838" lon="5.81022">
        <ele>756.4</ele>
        <time>2020-12-26T16:15:47Z</time>
      </trkpt>
      <trkpt lat="46.90836" lon="5.81013">
        <ele>756.4</ele>
        <time>2020-12-26T16:15:48Z</time>
      </trkpt>
      <trkpt lat="46.90834" lon="5.81003">
        <ele>756.6</ele>
        <time>2020-12-26T16:15:49Z</time>
      </trkpt>
      <trkpt lat="46.90832" lon="5.80994">
        <ele>756.6</ele>
        <time>2020-12-26T16:15:50Z</time>
      </trkpt>
      <trkpt lat="46.90831" lon="5.80984">
        <ele>756.6</ele>
        <time>2020-12-26T16:15:51Z</time>
      </trkpt>
      <trkpt lat="46.90829" lon="5.80974">
        <ele>757</ele>
        <time>2020-12-26T16:15:52Z</time>
      </trkpt>
      <trkpt lat="46.90828" lon="5.80964">
        <ele>757</ele>
        <time>2020-12-26T16:15:53Z</time>
      </trkpt>
      <trkpt lat="46.90827" lon="5.80955">
        <ele>757</ele>
        <time>2020-12-26T16:15:54Z</time>
      </trkpt>
      <trkpt lat="46.90827" lon="5.80945">
        <ele>757</ele>
        <time>2020-12-26T16:15:55Z</time>
      </trkpt>
      <trkpt lat="46.90826" lon="5.80936">
        <ele>757.2</ele>
        <time>2020-12-26T16:15:56Z</time>
      </trkpt>
      <trkpt lat="46.90826" lon="5.80927">
        <ele>757.2</ele>
        <time>2020-12-26T16:15:57Z</time>
      </trkpt>
      <trkpt lat="46.90826" lon="5.80918">
        <ele>757.6</ele>
        <time>2020-12-26T16:15:58Z</time>
      </trkpt>
      <trkpt lat="46.90826" lon="5.80909">
        <ele>757.6</ele>
        <time>2020-12-26T16:15:59Z</time>
      </trkpt>
      <trkpt lat="46.90826" lon="5.80901">
        <ele>757.8</ele>
        <time>2020-12-26T16:16:00Z</time>
      </trkpt>
      <trkpt lat="46.90827" lon="5.80893">
        <ele>758</ele>
        <time>2020-12-26T16:16:01Z</time>
      </trkpt>
      <trkpt lat="46.90828" lon="5.80885">
        <ele>758</ele>
        <time>2020-12-26T16:16:02Z</time>
      </trkpt>
      <trkpt lat="46.9083" lon="5.80878">
        <ele>758</ele>
        <time>2020-12-26T16:16:03Z</time>
      </trkpt>
      <trkpt lat="46.90833" lon="5.80871">
        <ele>758.2</ele>
        <time>2020-12-26T16:16:04Z</time>
      </trkpt>
      <trkpt lat="46.90836" lon="5.80864">
        <ele>758.2</ele>
        <time>2020-12-26T16:16:05Z</time>
      </trkpt>
      <trkpt lat="46.9084" lon="5.80857">
        <ele>757.8</ele>
        <time>2020-12-26T16:16:06Z</time>
      </trkpt>
      <trkpt lat="46.90845" lon="5.80851">
        <ele>757.6</ele>
        <time>2020-12-26T16:16:07Z</time>
      </trkpt>
      <trkpt lat="46.9085" lon="5.80846">
        <ele>757.2</ele>
        <time>2020-12-26T16:16:08Z</time>
      </trkpt>
      <trkpt lat="46.90857" lon="5.80843">
        <ele>757</ele>
        <time>2020-12-26T16:16:09Z</time>
      </trkpt>
      <trkpt lat="46.90863" lon="5.80841">
        <ele>756.8</ele>
        <time>2020-12-26T16:16:10Z</time>
      </trkpt>
      <trkpt lat="46.90871" lon="5.80839">
        <ele>756.4</ele>
        <time>2020-12-26T16:16:11Z</time>
      </trkpt>
      <trkpt lat="46.90878" lon="5.80837">
        <ele>756.2</ele>
        <time>2020-12-26T16:16:12Z</time>
      </trkpt>
      <trkpt lat="46.90886" lon="5.80835">
        <ele>755.8</ele>
        <time>2020-12-26T16:16:13Z</time>
      </trkpt>
      <trkpt lat="46.90894" lon="5.80832">
        <ele>755.4</ele>
        <time>2020-12-26T16:16:14Z</time>
      </trkpt>
      <trkpt lat="46.90902" lon="5.8083">
        <ele>755</ele>
        <time>2020-12-26T16:16:15Z</time>
      </trkpt>
      <trkpt lat="46.9091" lon="5.80827">
        <ele>754.6</ele>
        <time>2020-12-26T16:16:16Z</time>
      </trkpt>
      <trkpt lat="46.90918" lon="5.80824">
        <ele>754.2</ele>
        <time>2020-12-26T16:16:17Z</time>
      </trkpt>
      <trkpt lat="46.90926" lon="5.80821">
        <ele>754</ele>
        <time>2020-12-26T16:16:18Z</time>
      </trkpt>
      <trkpt lat="46.90934" lon="5.80818">
        <ele>753.8</ele>
        <time>2020-12-26T16:16:19Z</time>
      </trkpt>
      <trkpt lat="46.90942" lon="5.80815">
        <ele>753.4</ele>
        <time>2020-12-26T16:16:20Z</time>
      </trkpt>
      <trkpt lat="46.90949" lon="5.8081">
        <ele>753.4</ele>
        <time>2020-12-26T16:16:21Z</time>
      </trkpt>
      <trkpt lat="46.90956" lon="5.80803">
        <ele>753.4</ele>
        <time>2020-12-26T16:16:22Z</time>
      </trkpt>
      <trkpt lat="46.90963" lon="5.80796">
        <ele>753.2</ele>
        <time>2020-12-26T16:16:23Z</time>
      </trkpt>
      <trkpt lat="46.90969" lon="5.80788">
        <ele>753</ele>
        <time>2020-12-26T16:16:24Z</time>
      </trkpt>
      <trkpt lat="46.90974" lon="5.80779">
        <ele>752.6</ele>
        <time>2020-12-26T16:16:25Z</time>
      </trkpt>
      <trkpt lat="46.90979" lon="5.80768">
        <ele>752.4</ele>
        <time>2020-12-26T16:16:26Z</time>
      </trkpt>
      <trkpt lat="46.90983" lon="5.80757">
        <ele>752.4</ele>
        <time>2020-12-26T16:16:27Z</time>
      </trkpt>
      <trkpt lat="46.90987" lon="5.80747">
        <ele>752.4</ele>
        <time>2020-12-26T16:16:28Z</time>
      </trkpt>
      <trkpt lat="46.9099" lon="5.80736">
        <ele>752.2</ele>
        <time>2020-12-26T16:16:29Z</time>
      </trkpt>
      <trkpt lat="46.90992" lon="5.80725">
        <ele>752.2</ele>
        <time>2020-12-26T16:16:30Z</time>
      </trkpt>
      <trkpt lat="46.90995" lon="5.80714">
        <ele>752.2</ele>
        <time>2020-12-26T16:16:31Z</time>
      </trkpt>
      <trkpt lat="46.90998" lon="5.80704">
        <ele>752.2</ele>
        <time>2020-12-26T16:16:32Z</time>
      </trkpt>
      <trkpt lat="46.91002" lon="5.80694">
        <ele>752.2</ele>
        <time>2020-12-26T16:16:33Z</time>
      </trkpt>
      <trkpt lat="46.91006" lon="5.80686">
        <ele>752.2</ele>
        <time>2020-12-26T16:16:34Z</time>
      </trkpt>
      <trkpt lat="46.91011" lon="5.80679">
        <ele>752.2</ele>
        <time>2020-12-26T16:16:35Z</time>
      </trkpt>
      <trkpt lat="46.91018" lon="5.80674">
        <ele>752.2</ele>
        <time>2020-12-26T16:16:36Z</time>
      </trkpt>
      <trkpt lat="46.91024" lon="5.80671">
        <ele>752</ele>
        <time>2020-12-26T16:16:37Z</time>
      </trkpt>
      <trkpt lat="46.91032" lon="5.8067">
        <ele>752</ele>
        <time>2020-12-26T16:16:38Z</time>
      </trkpt>
      <trkpt lat="46.91039" lon="5.8067">
        <ele>751.6</ele>
        <time>2020-12-26T16:16:39Z</time>
      </trkpt>
      <trkpt lat="46.91046" lon="5.80672">
        <ele>751.6</ele>
        <time>2020-12-26T16:16:40Z</time>
      </trkpt>
      <trkpt lat="46.91052" lon="5.80675">
        <ele>751.6</ele>
        <time>2020-12-26T16:16:41Z</time>
      </trkpt>
      <trkpt lat="46.91059" lon="5.80679">
        <ele>751.4</ele>
        <time>2020-12-26T16:16:42Z</time>
      </trkpt>
      <trkpt lat="46.91065" lon="5.80684">
        <ele>751.4</ele>
        <time>2020-12-26T16:16:43Z</time>
      </trkpt>
      <trkpt lat="46.91072" lon="5.80688">
        <ele>751.2</ele>
        <time>2020-12-26T16:16:44Z</time>
      </trkpt>
      <trkpt lat="46.91078" lon="5.80693">
        <ele>751.2</ele>
        <time>2020-12-26T16:16:45Z</time>
      </trkpt>
      <trkpt lat="46.91085" lon="5.80698">
        <ele>750.8</ele>
        <time>2020-12-26T16:16:46Z</time>
      </trkpt>
      <trkpt lat="46.91092" lon="5.80702">
        <ele>750.8</ele>
        <time>2020-12-26T16:16:47Z</time>
      </trkpt>
      <trkpt lat="46.91098" lon="5.80707">
        <ele>750.6</ele>
        <time>2020-12-26T16:16:48Z</time>
      </trkpt>
      <trkpt lat="46.91105" lon="5.80712">
        <ele>750.6</ele>
        <time>2020-12-26T16:16:49Z</time>
      </trkpt>
      <trkpt lat="46.91112" lon="5.80717">
        <ele>750.2</ele>
        <time>2020-12-26T16:16:50Z</time>
      </trkpt>
      <trkpt lat="46.91119" lon="5.80722">
        <ele>750.2</ele>
        <time>2020-12-26T16:16:51Z</time>
      </trkpt>
      <trkpt lat="46.91126" lon="5.80727">
        <ele>749.8</ele>
        <time>2020-12-26T16:16:52Z</time>
      </trkpt>
      <trkpt lat="46.91133" lon="5.80731">
        <ele>749.8</ele>
        <time>2020-12-26T16:16:53Z</time>
      </trkpt>
      <trkpt lat="46.9114" lon="5.80736">
        <ele>749.4</ele>
        <time>2020-12-26T16:16:54Z</time>
      </trkpt>
      <trkpt lat="46.91147" lon="5.8074">
        <ele>749.4</ele>
        <time>2020-12-26T16:16:55Z</time>
      </trkpt>
      <trkpt lat="46.91155" lon="5.80744">
        <ele>749</ele>
        <time>2020-12-26T16:16:56Z</time>
      </trkpt>
      <trkpt lat="46.91162" lon="5.80748">
        <ele>749</ele>
        <time>2020-12-26T16:16:57Z</time>
      </trkpt>
      <trkpt lat="46.91169" lon="5.80753">
        <ele>748.6</ele>
        <time>2020-12-26T16:16:58Z</time>
      </trkpt>
      <trkpt lat="46.91176" lon="5.80757">
        <ele>748.6</ele>
        <time>2020-12-26T16:16:59Z</time>
      </trkpt>
      <trkpt lat="46.91183" lon="5.8076">
        <ele>748.4</ele>
        <time>2020-12-26T16:17:00Z</time>
      </trkpt>
      <trkpt lat="46.9119" lon="5.80764">
        <ele>748.2</ele>
        <time>2020-12-26T16:17:01Z</time>
      </trkpt>
      <trkpt lat="46.91197" lon="5.80768">
        <ele>748.2</ele>
        <time>2020-12-26T16:17:02Z</time>
      </trkpt>
      <trkpt lat="46.91205" lon="5.80771">
        <ele>747.8</ele>
        <time>2020-12-26T16:17:03Z</time>
      </trkpt>
      <trkpt lat="46.91212" lon="5.80774">
        <ele>747.8</ele>
        <time>2020-12-26T16:17:04Z</time>
      </trkpt>
      <trkpt lat="46.91219" lon="5.80777">
        <ele>747.6</ele>
        <time>2020-12-26T16:17:05Z</time>
      </trkpt>
      <trkpt lat="46.91227" lon="5.80778">
        <ele>747.6</ele>
        <time>2020-12-26T16:17:06Z</time>
      </trkpt>
      <trkpt lat="46.91234" lon="5.80778">
        <ele>747.2</ele>
        <time>2020-12-26T16:17:07Z</time>
      </trkpt>
      <trkpt lat="46.91241" lon="5.80778">
        <ele>747</ele>
        <time>2020-12-26T16:17:08Z</time>
      </trkpt>
      <trkpt lat="46.91249" lon="5.80775">
        <ele>746.8</ele>
        <time>2020-12-26T16:17:09Z</time>
      </trkpt>
      <trkpt lat="46.91255" lon="5.80771">
        <ele>746.4</ele>
        <time>2020-12-26T16:17:10Z</time>
      </trkpt>
      <trkpt lat="46.91262" lon="5.80765">
        <ele>746.2</ele>
        <time>2020-12-26T16:17:11Z</time>
      </trkpt>
      <trkpt lat="46.91268" lon="5.80759">
        <ele>745.8</ele>
        <time>2020-12-26T16:17:12Z</time>
      </trkpt>
      <trkpt lat="46.91274" lon="5.80751">
        <ele>745.4</ele>
        <time>2020-12-26T16:17:13Z</time>
      </trkpt>
      <trkpt lat="46.9128" lon="5.80744">
        <ele>745</ele>
        <time>2020-12-26T16:17:14Z</time>
      </trkpt>
      <trkpt lat="46.91286" lon="5.80735">
        <ele>744.8</ele>
        <time>2020-12-26T16:17:15Z</time>
      </trkpt>
      <trkpt lat="46.91292" lon="5.80727">
        <ele>744.4</ele>
        <time>2020-12-26T16:17:16Z</time>
      </trkpt>
      <trkpt lat="46.91298" lon="5.80719">
        <ele>744</ele>
        <time>2020-12-26T16:17:17Z</time>
      </trkpt>
      <trkpt lat="46.91304" lon="5.80711">
        <ele>743.8</ele>
        <time>2020-12-26T16:17:18Z</time>
      </trkpt>
      <trkpt lat="46.9131" lon="5.80703">
        <ele>743.4</ele>
        <time>2020-12-26T16:17:19Z</time>
      </trkpt>
      <trkpt lat="46.91316" lon="5.80695">
        <ele>743</ele>
        <time>2020-12-26T16:17:20Z</time>
      </trkpt>
      <trkpt lat="46.91322" lon="5.80688">
        <ele>742.8</ele>
        <time>2020-12-26T16:17:21Z</time>
      </trkpt>
      <trkpt lat="46.91328" lon="5.8068">
        <ele>742.6</ele>
        <time>2020-12-26T16:17:22Z</time>
      </trkpt>
      <trkpt lat="46.91332" lon="5.80673">
        <ele>742.2</ele>
        <time>2020-12-26T16:17:23Z</time>
      </trkpt>
      <trkpt lat="46.91336" lon="5.80667">
        <ele>742</ele>
        <time>2020-12-26T16:17:24Z</time>
      </trkpt>
      <trkpt lat="46.9134" lon="5.8066">
        <ele>741.8</ele>
        <time>2020-12-26T16:17:25Z</time>
      </trkpt>
      <trkpt lat="46.91343" lon="5.80653">
        <ele>741.6</ele>
        <time>2020-12-26T16:17:26Z</time>
      </trkpt>
      <trkpt lat="46.91344" lon="5.80645">
        <ele>741.2</ele>
        <time>2020-12-26T16:17:27Z</time>
      </trkpt>
      <trkpt lat="46.91344" lon="5.80636">
        <ele>741</ele>
        <time>2020-12-26T16:17:28Z</time>
      </trkpt>
      <trkpt lat="46.91343" lon="5.80626">
        <ele>740.8</ele>
        <time>2020-12-26T16:17:29Z</time>
      </trkpt>
      <trkpt lat="46.91341" lon="5.80617">
        <ele>740.6</ele>
        <time>2020-12-26T16:17:30Z</time>
      </trkpt>
      <trkpt lat="46.91338" lon="5.80608">
        <ele>740.2</ele>
        <time>2020-12-26T16:17:31Z</time>
      </trkpt>
      <trkpt lat="46.91335" lon="5.80599">
        <ele>740</ele>
        <time>2020-12-26T16:17:32Z</time>
      </trkpt>
      <trkpt lat="46.91331" lon="5.8059">
        <ele>739.8</ele>
        <time>2020-12-26T16:17:33Z</time>
      </trkpt>
      <trkpt lat="46.91327" lon="5.80581">
        <ele>739.6</ele>
        <time>2020-12-26T16:17:34Z</time>
      </trkpt>
      <trkpt lat="46.91323" lon="5.80572">
        <ele>739.4</ele>
        <time>2020-12-26T16:17:35Z</time>
      </trkpt>
      <trkpt lat="46.91319" lon="5.80564">
        <ele>739.2</ele>
        <time>2020-12-26T16:17:36Z</time>
      </trkpt>
      <trkpt lat="46.91315" lon="5.80555">
        <ele>739</ele>
        <time>2020-12-26T16:17:37Z</time>
      </trkpt>
      <trkpt lat="46.91311" lon="5.80546">
        <ele>738.6</ele>
        <time>2020-12-26T16:17:38Z</time>
      </trkpt>
      <trkpt lat="46.91307" lon="5.80537">
        <ele>738.4</ele>
        <time>2020-12-26T16:17:39Z</time>
      </trkpt>
      <trkpt lat="46.91303" lon="5.80528">
        <ele>738</ele>
        <time>2020-12-26T16:17:40Z</time>
      </trkpt>
      <trkpt lat="46.91298" lon="5.80518">
        <ele>737.8</ele>
        <time>2020-12-26T16:17:41Z</time>
      </trkpt>
      <trkpt lat="46.91294" lon="5.80509">
        <ele>737.6</ele>
        <time>2020-12-26T16:17:42Z</time>
      </trkpt>
      <trkpt lat="46.91289" lon="5.805">
        <ele>737.2</ele>
        <time>2020-12-26T16:17:43Z</time>
      </trkpt>
      <trkpt lat="46.91285" lon="5.8049">
        <ele>736.8</ele>
        <time>2020-12-26T16:17:44Z</time>
      </trkpt>
      <trkpt lat="46.9128" lon="5.8048">
        <ele>736.6</ele>
        <time>2020-12-26T16:17:45Z</time>
      </trkpt>
      <trkpt lat="46.91275" lon="5.8047">
        <ele>736.2</ele>
        <time>2020-12-26T16:17:46Z</time>
      </trkpt>
      <trkpt lat="46.91271" lon="5.80461">
        <ele>735.8</ele>
        <time>2020-12-26T16:17:47Z</time>
      </trkpt>
      <trkpt lat="46.91267" lon="5.80452">
        <ele>735.8</ele>
        <time>2020-12-26T16:17:48Z</time>
      </trkpt>
      <trkpt lat="46.91264" lon="5.80443">
        <ele>735.4</ele>
        <time>2020-12-26T16:17:49Z</time>
      </trkpt>
      <trkpt lat="46.91261" lon="5.80435">
        <ele>735</ele>
        <time>2020-12-26T16:17:50Z</time>
      </trkpt>
      <trkpt lat="46.9126" lon="5.80426">
        <ele>734.6</ele>
        <time>2020-12-26T16:17:51Z</time>
      </trkpt>
      <trkpt lat="46.91259" lon="5.80416">
        <ele>734.2</ele>
        <time>2020-12-26T16:17:52Z</time>
      </trkpt>
      <trkpt lat="46.91259" lon="5.80407">
        <ele>733.8</ele>
        <time>2020-12-26T16:17:53Z</time>
      </trkpt>
      <trkpt lat="46.91261" lon="5.80398">
        <ele>733.4</ele>
        <time>2020-12-26T16:17:54Z</time>
      </trkpt>
      <trkpt lat="46.91265" lon="5.80389">
        <ele>733</ele>
        <time>2020-12-26T16:17:55Z</time>
      </trkpt>
      <trkpt lat="46.91268" lon="5.80381">
        <ele>732.6</ele>
        <time>2020-12-26T16:17:56Z</time>
      </trkpt>
      <trkpt lat="46.91273" lon="5.80374">
        <ele>732.4</ele>
        <time>2020-12-26T16:17:57Z</time>
      </trkpt>
      <trkpt lat="46.91278" lon="5.80366">
        <ele>732</ele>
        <time>2020-12-26T16:17:58Z</time>
      </trkpt>
      <trkpt lat="46.91283" lon="5.80359">
        <ele>731.6</ele>
        <time>2020-12-26T16:17:59Z</time>
      </trkpt>
      <trkpt lat="46.91289" lon="5.80352">
        <ele>731.2</ele>
        <time>2020-12-26T16:18:00Z</time>
      </trkpt>
      <trkpt lat="46.91293" lon="5.80346">
        <ele>731</ele>
        <time>2020-12-26T16:18:01Z</time>
      </trkpt>
      <trkpt lat="46.91298" lon="5.8034">
        <ele>730.6</ele>
        <time>2020-12-26T16:18:02Z</time>
      </trkpt>
      <trkpt lat="46.91301" lon="5.80333">
        <ele>730.2</ele>
        <time>2020-12-26T16:18:03Z</time>
      </trkpt>
      <trkpt lat="46.91304" lon="5.80326">
        <ele>729.8</ele>
        <time>2020-12-26T16:18:04Z</time>
      </trkpt>
      <trkpt lat="46.91305" lon="5.80317">
        <ele>729.4</ele>
        <time>2020-12-26T16:18:05Z</time>
      </trkpt>
      <trkpt lat="46.91305" lon="5.80309">
        <ele>729</ele>
        <time>2020-12-26T16:18:06Z</time>
      </trkpt>
      <trkpt lat="46.91304" lon="5.80299">
        <ele>728.8</ele>
        <time>2020-12-26T16:18:07Z</time>
      </trkpt>
      <trkpt lat="46.91301" lon="5.8029">
        <ele>728.2</ele>
        <time>2020-12-26T16:18:08Z</time>
      </trkpt>
      <trkpt lat="46.91296" lon="5.80282">
        <ele>727.8</ele>
        <time>2020-12-26T16:18:09Z</time>
      </trkpt>
      <trkpt lat="46.91291" lon="5.80275">
        <ele>727.2</ele>
        <time>2020-12-26T16:18:10Z</time>
      </trkpt>
      <trkpt lat="46.91285" lon="5.80267">
        <ele>726.8</ele>
        <time>2020-12-26T16:18:11Z</time>
      </trkpt>
      <trkpt lat="46.91279" lon="5.8026">
        <ele>726.4</ele>
        <time>2020-12-26T16:18:12Z</time>
      </trkpt>
      <trkpt lat="46.91273" lon="5.80252">
        <ele>725.8</ele>
        <time>2020-12-26T16:18:13Z</time>
      </trkpt>
      <trkpt lat="46.91267" lon="5.80245">
        <ele>725.4</ele>
        <time>2020-12-26T16:18:14Z</time>
      </trkpt>
      <trkpt lat="46.91261" lon="5.80238">
        <ele>725.2</ele>
        <time>2020-12-26T16:18:15Z</time>
      </trkpt>
      <trkpt lat="46.91255" lon="5.80231">
        <ele>724.8</ele>
        <time>2020-12-26T16:18:16Z</time>
      </trkpt>
      <trkpt lat="46.9125" lon="5.80222">
        <ele>724.4</ele>
        <time>2020-12-26T16:18:17Z</time>
      </trkpt>
      <trkpt lat="46.91245" lon="5.80213">
        <ele>724</ele>
        <time>2020-12-26T16:18:18Z</time>
      </trkpt>
      <trkpt lat="46.9124" lon="5.80203">
        <ele>723.6</ele>
        <time>2020-12-26T16:18:19Z</time>
      </trkpt>
      <trkpt lat="46.91235" lon="5.80194">
        <ele>723.2</ele>
        <time>2020-12-26T16:18:20Z</time>
      </trkpt>
      <trkpt lat="46.9123" lon="5.80183">
        <ele>722.6</ele>
        <time>2020-12-26T16:18:21Z</time>
      </trkpt>
      <trkpt lat="46.91226" lon="5.80173">
        <ele>722.2</ele>
        <time>2020-12-26T16:18:22Z</time>
      </trkpt>
      <trkpt lat="46.91221" lon="5.80164">
        <ele>721.8</ele>
        <time>2020-12-26T16:18:23Z</time>
      </trkpt>
      <trkpt lat="46.91217" lon="5.80155">
        <ele>721.4</ele>
        <time>2020-12-26T16:18:24Z</time>
      </trkpt>
      <trkpt lat="46.91212" lon="5.80147">
        <ele>720.8</ele>
        <time>2020-12-26T16:18:25Z</time>
      </trkpt>
      <trkpt lat="46.91208" lon="5.80139">
        <ele>720.6</ele>
        <time>2020-12-26T16:18:26Z</time>
      </trkpt>
      <trkpt lat="46.91204" lon="5.80131">
        <ele>720.2</ele>
        <time>2020-12-26T16:18:27Z</time>
      </trkpt>
      <trkpt lat="46.91201" lon="5.80124">
        <ele>719.8</ele>
        <time>2020-12-26T16:18:28Z</time>
      </trkpt>
      <trkpt lat="46.91196" lon="5.80118">
        <ele>719.6</ele>
        <time>2020-12-26T16:18:29Z</time>
      </trkpt>
      <trkpt lat="46.91192" lon="5.80112">
        <ele>719.4</ele>
        <time>2020-12-26T16:18:30Z</time>
      </trkpt>
      <trkpt lat="46.91187" lon="5.80107">
        <ele>719.2</ele>
        <time>2020-12-26T16:18:31Z</time>
      </trkpt>
      <trkpt lat="46.91182" lon="5.80103">
        <ele>718.8</ele>
        <time>2020-12-26T16:18:32Z</time>
      </trkpt>
      <trkpt lat="46.91177" lon="5.80099">
        <ele>718.8</ele>
        <time>2020-12-26T16:18:33Z</time>
      </trkpt>
      <trkpt lat="46.91171" lon="5.80097">
        <ele>718.4</ele>
        <time>2020-12-26T16:18:34Z</time>
      </trkpt>
      <trkpt lat="46.91165" lon="5.80097">
        <ele>718.2</ele>
        <time>2020-12-26T16:18:35Z</time>
      </trkpt>
      <trkpt lat="46.91159" lon="5.80097">
        <ele>717.8</ele>
        <time>2020-12-26T16:18:36Z</time>
      </trkpt>
      <trkpt lat="46.91153" lon="5.80099">
        <ele>717.6</ele>
        <time>2020-12-26T16:18:37Z</time>
      </trkpt>
      <trkpt lat="46.91147" lon="5.80101">
        <ele>717.2</ele>
        <time>2020-12-26T16:18:38Z</time>
      </trkpt>
      <trkpt lat="46.9114" lon="5.80105">
        <ele>716.8</ele>
        <time>2020-12-26T16:18:39Z</time>
      </trkpt>
      <trkpt lat="46.91134" lon="5.80109">
        <ele>716.4</ele>
        <time>2020-12-26T16:18:40Z</time>
      </trkpt>
      <trkpt lat="46.91129" lon="5.80114">
        <ele>716</ele>
        <time>2020-12-26T16:18:41Z</time>
      </trkpt>
      <trkpt lat="46.91123" lon="5.80119">
        <ele>715.6</ele>
        <time>2020-12-26T16:18:42Z</time>
      </trkpt>
      <trkpt lat="46.91116" lon="5.80125">
        <ele>715.2</ele>
        <time>2020-12-26T16:18:43Z</time>
      </trkpt>
      <trkpt lat="46.9111" lon="5.80131">
        <ele>714.8</ele>
        <time>2020-12-26T16:18:44Z</time>
      </trkpt>
      <trkpt lat="46.91105" lon="5.80136">
        <ele>714.2</ele>
        <time>2020-12-26T16:18:45Z</time>
      </trkpt>
      <trkpt lat="46.91099" lon="5.80142">
        <ele>713.8</ele>
        <time>2020-12-26T16:18:46Z</time>
      </trkpt>
      <trkpt lat="46.91092" lon="5.80148">
        <ele>713.4</ele>
        <time>2020-12-26T16:18:47Z</time>
      </trkpt>
      <trkpt lat="46.91086" lon="5.80155">
        <ele>712.8</ele>
        <time>2020-12-26T16:18:48Z</time>
      </trkpt>
      <trkpt lat="46.91079" lon="5.80162">
        <ele>712.4</ele>
        <time>2020-12-26T16:18:49Z</time>
      </trkpt>
      <trkpt lat="46.91072" lon="5.80169">
        <ele>712</ele>
        <time>2020-12-26T16:18:50Z</time>
      </trkpt>
      <trkpt lat="46.91065" lon="5.80175">
        <ele>711.4</ele>
        <time>2020-12-26T16:18:51Z</time>
      </trkpt>
      <trkpt lat="46.91059" lon="5.80182">
        <ele>711</ele>
        <time>2020-12-26T16:18:52Z</time>
      </trkpt>
      <trkpt lat="46.91052" lon="5.80187">
        <ele>710.6</ele>
        <time>2020-12-26T16:18:53Z</time>
      </trkpt>
      <trkpt lat="46.91046" lon="5.80194">
        <ele>710</ele>
        <time>2020-12-26T16:18:54Z</time>
      </trkpt>
      <trkpt lat="46.9104" lon="5.80199">
        <ele>709.6</ele>
        <time>2020-12-26T16:18:55Z</time>
      </trkpt>
      <trkpt lat="46.91034" lon="5.80205">
        <ele>709.2</ele>
        <time>2020-12-26T16:18:56Z</time>
      </trkpt>
      <trkpt lat="46.91027" lon="5.8021">
        <ele>708.6</ele>
        <time>2020-12-26T16:18:57Z</time>
      </trkpt>
      <trkpt lat="46.91021" lon="5.80216">
        <ele>708.2</ele>
        <time>2020-12-26T16:18:58Z</time>
      </trkpt>
      <trkpt lat="46.91015" lon="5.80221">
        <ele>707.6</ele>
        <time>2020-12-26T16:18:59Z</time>
      </trkpt>
      <trkpt lat="46.91008" lon="5.80226">
        <ele>707.2</ele>
        <time>2020-12-26T16:19:00Z</time>
      </trkpt>
      <trkpt lat="46.91002" lon="5.80231">
        <ele>706.6</ele>
        <time>2020-12-26T16:19:01Z</time>
      </trkpt>
      <trkpt lat="46.90996" lon="5.80236">
        <ele>706</ele>
        <time>2020-12-26T16:19:02Z</time>
      </trkpt>
      <trkpt lat="46.9099" lon="5.8024">
        <ele>705.4</ele>
        <time>2020-12-26T16:19:03Z</time>
      </trkpt>
      <trkpt lat="46.90983" lon="5.80245">
        <ele>705</ele>
        <time>2020-12-26T16:19:04Z</time>
      </trkpt>
      <trkpt lat="46.90977" lon="5.80248">
        <ele>704.4</ele>
        <time>2020-12-26T16:19:05Z</time>
      </trkpt>
      <trkpt lat="46.90971" lon="5.80253">
        <ele>704</ele>
        <time>2020-12-26T16:19:06Z</time>
      </trkpt>
      <trkpt lat="46.90964" lon="5.80256">
        <ele>703.4</ele>
        <time>2020-12-26T16:19:07Z</time>
      </trkpt>
      <trkpt lat="46.90958" lon="5.80259">
        <ele>703.2</ele>
        <time>2020-12-26T16:19:08Z</time>
      </trkpt>
      <trkpt lat="46.90951" lon="5.8026">
        <ele>702.6</ele>
        <time>2020-12-26T16:19:09Z</time>
      </trkpt>
      <trkpt lat="46.90944" lon="5.80259">
        <ele>702.4</ele>
        <time>2020-12-26T16:19:10Z</time>
      </trkpt>
      <trkpt lat="46.90938" lon="5.80257">
        <ele>702.2</ele>
        <time>2020-12-26T16:19:11Z</time>
      </trkpt>
      <trkpt lat="46.90932" lon="5.80254">
        <ele>701.8</ele>
        <time>2020-12-26T16:19:12Z</time>
      </trkpt>
      <trkpt lat="46.90925" lon="5.80251">
        <ele>701.4</ele>
        <time>2020-12-26T16:19:13Z</time>
      </trkpt>
      <trkpt lat="46.90919" lon="5.80247">
        <ele>701.2</ele>
        <time>2020-12-26T16:19:14Z</time>
      </trkpt>
      <trkpt lat="46.90912" lon="5.80244">
        <ele>701</ele>
        <time>2020-12-26T16:19:15Z</time>
      </trkpt>
      <trkpt lat="46.90905" lon="5.8024">
        <ele>700.6</ele>
        <time>2020-12-26T16:19:16Z</time>
      </trkpt>
      <trkpt lat="46.90899" lon="5.80235">
        <ele>700.4</ele>
        <time>2020-12-26T16:19:17Z</time>
      </trkpt>
      <trkpt lat="46.90893" lon="5.80229">
        <ele>700</ele>
        <time>2020-12-26T16:19:18Z</time>
      </trkpt>
      <trkpt lat="46.90886" lon="5.80225">
        <ele>699.8</ele>
        <time>2020-12-26T16:19:19Z</time>
      </trkpt>
      <trkpt lat="46.90878" lon="5.80219">
        <ele>699.4</ele>
        <time>2020-12-26T16:19:20Z</time>
      </trkpt>
      <trkpt lat="46.90871" lon="5.80212">
        <ele>699.2</ele>
        <time>2020-12-26T16:19:21Z</time>
      </trkpt>
      <trkpt lat="46.90864" lon="5.80205">
        <ele>698.8</ele>
        <time>2020-12-26T16:19:22Z</time>
      </trkpt>
      <trkpt lat="46.90857" lon="5.80198">
        <ele>698.6</ele>
        <time>2020-12-26T16:19:23Z</time>
      </trkpt>
      <trkpt lat="46.90851" lon="5.80192">
        <ele>698.2</ele>
        <time>2020-12-26T16:19:24Z</time>
      </trkpt>
      <trkpt lat="46.90844" lon="5.80185">
        <ele>698</ele>
        <time>2020-12-26T16:19:25Z</time>
      </trkpt>
      <trkpt lat="46.90838" lon="5.80179">
        <ele>697.6</ele>
        <time>2020-12-26T16:19:26Z</time>
      </trkpt>
      <trkpt lat="46.90832" lon="5.80173">
        <ele>697.2</ele>
        <time>2020-12-26T16:19:27Z</time>
      </trkpt>
      <trkpt lat="46.90826" lon="5.80166">
        <ele>696.8</ele>
        <time>2020-12-26T16:19:28Z</time>
      </trkpt>
      <trkpt lat="46.90822" lon="5.80158">
        <ele>696.6</ele>
        <time>2020-12-26T16:19:29Z</time>
      </trkpt>
      <trkpt lat="46.9082" lon="5.80148">
        <ele>696.2</ele>
        <time>2020-12-26T16:19:30Z</time>
      </trkpt>
      <trkpt lat="46.90819" lon="5.80137">
        <ele>695.8</ele>
        <time>2020-12-26T16:19:31Z</time>
      </trkpt>
      <trkpt lat="46.9082" lon="5.80126">
        <ele>695.4</ele>
        <time>2020-12-26T16:19:32Z</time>
      </trkpt>
      <trkpt lat="46.9082" lon="5.80115">
        <ele>694.8</ele>
        <time>2020-12-26T16:19:33Z</time>
      </trkpt>
      <trkpt lat="46.90822" lon="5.80104">
        <ele>694.2</ele>
        <time>2020-12-26T16:19:34Z</time>
      </trkpt>
      <trkpt lat="46.90823" lon="5.80092">
        <ele>693.6</ele>
        <time>2020-12-26T16:19:35Z</time>
      </trkpt>
      <trkpt lat="46.90824" lon="5.8008">
        <ele>693.2</ele>
        <time>2020-12-26T16:19:36Z</time>
      </trkpt>
      <trkpt lat="46.90824" lon="5.80067">
        <ele>692.6</ele>
        <time>2020-12-26T16:19:37Z</time>
      </trkpt>
      <trkpt lat="46.90823" lon="5.80055">
        <ele>692.2</ele>
        <time>2020-12-26T16:19:38Z</time>
      </trkpt>
      <trkpt lat="46.90821" lon="5.80043">
        <ele>691.6</ele>
        <time>2020-12-26T16:19:39Z</time>
      </trkpt>
      <trkpt lat="46.90818" lon="5.8003">
        <ele>691.2</ele>
        <time>2020-12-26T16:19:40Z</time>
      </trkpt>
      <trkpt lat="46.90815" lon="5.80018">
        <ele>690.8</ele>
        <time>2020-12-26T16:19:41Z</time>
      </trkpt>
      <trkpt lat="46.90811" lon="5.80003">
        <ele>690.2</ele>
        <time>2020-12-26T16:19:42Z</time>
      </trkpt>
      <trkpt lat="46.90807" lon="5.7999">
        <ele>689.8</ele>
        <time>2020-12-26T16:19:43Z</time>
      </trkpt>
      <trkpt lat="46.90804" lon="5.79977">
        <ele>689.2</ele>
        <time>2020-12-26T16:19:44Z</time>
      </trkpt>
      <trkpt lat="46.90802" lon="5.79964">
        <ele>688.6</ele>
        <time>2020-12-26T16:19:45Z</time>
      </trkpt>
      <trkpt lat="46.90798" lon="5.7995">
        <ele>688</ele>
        <time>2020-12-26T16:19:46Z</time>
      </trkpt>
      <trkpt lat="46.90795" lon="5.79936">
        <ele>687.4</ele>
        <time>2020-12-26T16:19:47Z</time>
      </trkpt>
      <trkpt lat="46.90792" lon="5.79923">
        <ele>686.8</ele>
        <time>2020-12-26T16:19:48Z</time>
      </trkpt>
      <trkpt lat="46.90789" lon="5.7991">
        <ele>686.2</ele>
        <time>2020-12-26T16:19:49Z</time>
      </trkpt>
      <trkpt lat="46.90786" lon="5.79896">
        <ele>685.6</ele>
        <time>2020-12-26T16:19:50Z</time>
      </trkpt>
      <trkpt lat="46.90783" lon="5.79882">
        <ele>685.2</ele>
        <time>2020-12-26T16:19:51Z</time>
      </trkpt>
      <trkpt lat="46.90782" lon="5.79867">
        <ele>684.6</ele>
        <time>2020-12-26T16:19:52Z</time>
      </trkpt>
      <trkpt lat="46.90781" lon="5.79853">
        <ele>683.8</ele>
        <time>2020-12-26T16:19:53Z</time>
      </trkpt>
      <trkpt lat="46.9078" lon="5.79839">
        <ele>683.4</ele>
        <time>2020-12-26T16:19:54Z</time>
      </trkpt>
      <trkpt lat="46.9078" lon="5.79824">
        <ele>682.8</ele>
        <time>2020-12-26T16:19:55Z</time>
      </trkpt>
      <trkpt lat="46.90779" lon="5.79809">
        <ele>682.2</ele>
        <time>2020-12-26T16:19:56Z</time>
      </trkpt>
      <trkpt lat="46.90778" lon="5.79796">
        <ele>681.6</ele>
        <time>2020-12-26T16:19:57Z</time>
      </trkpt>
      <trkpt lat="46.90777" lon="5.79781">
        <ele>681</ele>
        <time>2020-12-26T16:19:58Z</time>
      </trkpt>
      <trkpt lat="46.90777" lon="5.79769">
        <ele>680.6</ele>
        <time>2020-12-26T16:19:59Z</time>
      </trkpt>
      <trkpt lat="46.90777" lon="5.79758">
        <ele>680.2</ele>
        <time>2020-12-26T16:20:00Z</time>
      </trkpt>
      <trkpt lat="46.90777" lon="5.79747">
        <ele>679.8</ele>
        <time>2020-12-26T16:20:01Z</time>
      </trkpt>
      <trkpt lat="46.90777" lon="5.79737">
        <ele>679.4</ele>
        <time>2020-12-26T16:20:02Z</time>
      </trkpt>
      <trkpt lat="46.90777" lon="5.79727">
        <ele>678.8</ele>
        <time>2020-12-26T16:20:03Z</time>
      </trkpt>
      <trkpt lat="46.90779" lon="5.79717">
        <ele>678.4</ele>
        <time>2020-12-26T16:20:04Z</time>
      </trkpt>
      <trkpt lat="46.90782" lon="5.79707">
        <ele>677.8</ele>
        <time>2020-12-26T16:20:05Z</time>
      </trkpt>
      <trkpt lat="46.90786" lon="5.79698">
        <ele>677.4</ele>
        <time>2020-12-26T16:20:06Z</time>
      </trkpt>
      <trkpt lat="46.90791" lon="5.7969">
        <ele>677</ele>
        <time>2020-12-26T16:20:07Z</time>
      </trkpt>
      <trkpt lat="46.90797" lon="5.79682">
        <ele>676.6</ele>
        <time>2020-12-26T16:20:08Z</time>
      </trkpt>
      <trkpt lat="46.90804" lon="5.79676">
        <ele>676.2</ele>
        <time>2020-12-26T16:20:09Z</time>
      </trkpt>
      <trkpt lat="46.90811" lon="5.79671">
        <ele>675.8</ele>
        <time>2020-12-26T16:20:10Z</time>
      </trkpt>
      <trkpt lat="46.90818" lon="5.79665">
        <ele>675.4</ele>
        <time>2020-12-26T16:20:11Z</time>
      </trkpt>
      <trkpt lat="46.90825" lon="5.7966">
        <ele>675</ele>
        <time>2020-12-26T16:20:12Z</time>
      </trkpt>
      <trkpt lat="46.90832" lon="5.79655">
        <ele>674.6</ele>
        <time>2020-12-26T16:20:13Z</time>
      </trkpt>
      <trkpt lat="46.9084" lon="5.7965">
        <ele>674</ele>
        <time>2020-12-26T16:20:14Z</time>
      </trkpt>
      <trkpt lat="46.90847" lon="5.79644">
        <ele>673.4</ele>
        <time>2020-12-26T16:20:15Z</time>
      </trkpt>
      <trkpt lat="46.90855" lon="5.79638">
        <ele>673</ele>
        <time>2020-12-26T16:20:16Z</time>
      </trkpt>
      <trkpt lat="46.90863" lon="5.79632">
        <ele>672.4</ele>
        <time>2020-12-26T16:20:17Z</time>
      </trkpt>
      <trkpt lat="46.90871" lon="5.79627">
        <ele>672</ele>
        <time>2020-12-26T16:20:18Z</time>
      </trkpt>
      <trkpt lat="46.90879" lon="5.79621">
        <ele>671.6</ele>
        <time>2020-12-26T16:20:19Z</time>
      </trkpt>
      <trkpt lat="46.90886" lon="5.79615">
        <ele>671</ele>
        <time>2020-12-26T16:20:20Z</time>
      </trkpt>
      <trkpt lat="46.90894" lon="5.7961">
        <ele>670.6</ele>
        <time>2020-12-26T16:20:21Z</time>
      </trkpt>
      <trkpt lat="46.90901" lon="5.79605">
        <ele>670.2</ele>
        <time>2020-12-26T16:20:22Z</time>
      </trkpt>
      <trkpt lat="46.90908" lon="5.796">
        <ele>669.8</ele>
        <time>2020-12-26T16:20:23Z</time>
      </trkpt>
      <trkpt lat="46.90914" lon="5.79595">
        <ele>669.2</ele>
        <time>2020-12-26T16:20:24Z</time>
      </trkpt>
      <trkpt lat="46.9092" lon="5.7959">
        <ele>668.8</ele>
        <time>2020-12-26T16:20:25Z</time>
      </trkpt>
      <trkpt lat="46.90926" lon="5.79585">
        <ele>668.4</ele>
        <time>2020-12-26T16:20:26Z</time>
      </trkpt>
      <trkpt lat="46.90932" lon="5.79581">
        <ele>668</ele>
        <time>2020-12-26T16:20:27Z</time>
      </trkpt>
      <trkpt lat="46.90937" lon="5.79577">
        <ele>667.6</ele>
        <time>2020-12-26T16:20:28Z</time>
      </trkpt>
      <trkpt lat="46.90942" lon="5.79573">
        <ele>667.4</ele>
        <time>2020-12-26T16:20:29Z</time>
      </trkpt>
      <trkpt lat="46.90947" lon="5.7957">
        <ele>667</ele>
        <time>2020-12-26T16:20:30Z</time>
      </trkpt>
      <trkpt lat="46.90951" lon="5.79566">
        <ele>666.8</ele>
        <time>2020-12-26T16:20:31Z</time>
      </trkpt>
      <trkpt lat="46.90954" lon="5.79563">
        <ele>666.6</ele>
        <time>2020-12-26T16:20:32Z</time>
      </trkpt>
      <trkpt lat="46.90958" lon="5.7956">
        <ele>666.2</ele>
        <time>2020-12-26T16:20:33Z</time>
      </trkpt>
      <trkpt lat="46.90961" lon="5.79558">
        <ele>666.2</ele>
        <time>2020-12-26T16:20:34Z</time>
      </trkpt>
      <trkpt lat="46.90964" lon="5.79556">
        <ele>666</ele>
        <time>2020-12-26T16:20:35Z</time>
      </trkpt>
      <trkpt lat="46.90967" lon="5.79555">
        <ele>666</ele>
        <time>2020-12-26T16:20:36Z</time>
      </trkpt>
      <trkpt lat="46.90968" lon="5.79553">
        <ele>665.6</ele>
        <time>2020-12-26T16:20:37Z</time>
      </trkpt>
      <trkpt lat="46.90968" lon="5.79552">
        <ele>665.6</ele>
        <time>2020-12-26T16:20:38Z</time>
      </trkpt>
      <trkpt lat="46.90967" lon="5.79547">
        <ele>664.6</ele>
        <time>2020-12-26T16:20:59Z</time>
      </trkpt>
      <trkpt lat="46.90968" lon="5.79543">
        <ele>664.4</ele>
        <time>2020-12-26T16:21:00Z</time>
      </trkpt>
      <trkpt lat="46.90968" lon="5.79538">
        <ele>664.2</ele>
        <time>2020-12-26T16:21:01Z</time>
      </trkpt>
      <trkpt lat="46.90968" lon="5.79533">
        <ele>664</ele>
        <time>2020-12-26T16:21:02Z</time>
      </trkpt>
      <trkpt lat="46.90969" lon="5.79527">
        <ele>664</ele>
        <time>2020-12-26T16:21:03Z</time>
      </trkpt>
      <trkpt lat="46.90971" lon="5.79521">
        <ele>663.4</ele>
        <time>2020-12-26T16:21:04Z</time>
      </trkpt>
      <trkpt lat="46.90974" lon="5.79516">
        <ele>663.2</ele>
        <time>2020-12-26T16:21:05Z</time>
      </trkpt>
      <trkpt lat="46.90977" lon="5.7951">
        <ele>663</ele>
        <time>2020-12-26T16:21:06Z</time>
      </trkpt>
      <trkpt lat="46.90981" lon="5.79505">
        <ele>662.6</ele>
        <time>2020-12-26T16:21:07Z</time>
      </trkpt>
      <trkpt lat="46.90985" lon="5.795">
        <ele>662.4</ele>
        <time>2020-12-26T16:21:08Z</time>
      </trkpt>
      <trkpt lat="46.90989" lon="5.79495">
        <ele>662.2</ele>
        <time>2020-12-26T16:21:09Z</time>
      </trkpt>
      <trkpt lat="46.90993" lon="5.79489">
        <ele>662</ele>
        <time>2020-12-26T16:21:10Z</time>
      </trkpt>
      <trkpt lat="46.90997" lon="5.79483">
        <ele>661.6</ele>
        <time>2020-12-26T16:21:11Z</time>
      </trkpt>
      <trkpt lat="46.91001" lon="5.79476">
        <ele>661.4</ele>
        <time>2020-12-26T16:21:12Z</time>
      </trkpt>
      <trkpt lat="46.91004" lon="5.79468">
        <ele>661.2</ele>
        <time>2020-12-26T16:21:13Z</time>
      </trkpt>
      <trkpt lat="46.91007" lon="5.7946">
        <ele>661</ele>
        <time>2020-12-26T16:21:14Z</time>
      </trkpt>
      <trkpt lat="46.91011" lon="5.79452">
        <ele>660.6</ele>
        <time>2020-12-26T16:21:15Z</time>
      </trkpt>
      <trkpt lat="46.91015" lon="5.79444">
        <ele>660.2</ele>
        <time>2020-12-26T16:21:16Z</time>
      </trkpt>
      <trkpt lat="46.91019" lon="5.79436">
        <ele>659.8</ele>
        <time>2020-12-26T16:21:17Z</time>
      </trkpt>
      <trkpt lat="46.91024" lon="5.79428">
        <ele>659.4</ele>
        <time>2020-12-26T16:21:18Z</time>
      </trkpt>
      <trkpt lat="46.9103" lon="5.79421">
        <ele>659</ele>
        <time>2020-12-26T16:21:19Z</time>
      </trkpt>
      <trkpt lat="46.91036" lon="5.79414">
        <ele>658.4</ele>
        <time>2020-12-26T16:21:20Z</time>
      </trkpt>
      <trkpt lat="46.91043" lon="5.79408">
        <ele>658</ele>
        <time>2020-12-26T16:21:21Z</time>
      </trkpt>
      <trkpt lat="46.91049" lon="5.79402">
        <ele>657.6</ele>
        <time>2020-12-26T16:21:22Z</time>
      </trkpt>
      <trkpt lat="46.91056" lon="5.79397">
        <ele>657.2</ele>
        <time>2020-12-26T16:21:23Z</time>
      </trkpt>
      <trkpt lat="46.91064" lon="5.79391">
        <ele>656.8</ele>
        <time>2020-12-26T16:21:24Z</time>
      </trkpt>
      <trkpt lat="46.91071" lon="5.79385">
        <ele>656.4</ele>
        <time>2020-12-26T16:21:25Z</time>
      </trkpt>
      <trkpt lat="46.91079" lon="5.79379">
        <ele>656.2</ele>
        <time>2020-12-26T16:21:26Z</time>
      </trkpt>
      <trkpt lat="46.91086" lon="5.79373">
        <ele>655.6</ele>
        <time>2020-12-26T16:21:27Z</time>
      </trkpt>
      <trkpt lat="46.91094" lon="5.79366">
        <ele>655.2</ele>
        <time>2020-12-26T16:21:28Z</time>
      </trkpt>
      <trkpt lat="46.91102" lon="5.7936">
        <ele>654.8</ele>
        <time>2020-12-26T16:21:29Z</time>
      </trkpt>
      <trkpt lat="46.91109" lon="5.79354">
        <ele>654.4</ele>
        <time>2020-12-26T16:21:30Z</time>
      </trkpt>
      <trkpt lat="46.91117" lon="5.79348">
        <ele>654</ele>
        <time>2020-12-26T16:21:31Z</time>
      </trkpt>
      <trkpt lat="46.91124" lon="5.79342">
        <ele>653.4</ele>
        <time>2020-12-26T16:21:32Z</time>
      </trkpt>
      <trkpt lat="46.91131" lon="5.79337">
        <ele>652.8</ele>
        <time>2020-12-26T16:21:33Z</time>
      </trkpt>
      <trkpt lat="46.91137" lon="5.7933">
        <ele>652.4</ele>
        <time>2020-12-26T16:21:34Z</time>
      </trkpt>
      <trkpt lat="46.91143" lon="5.79323">
        <ele>652</ele>
        <time>2020-12-26T16:21:35Z</time>
      </trkpt>
      <trkpt lat="46.91148" lon="5.79315">
        <ele>651.4</ele>
        <time>2020-12-26T16:21:36Z</time>
      </trkpt>
      <trkpt lat="46.91153" lon="5.79306">
        <ele>651</ele>
        <time>2020-12-26T16:21:37Z</time>
      </trkpt>
      <trkpt lat="46.91157" lon="5.79297">
        <ele>650.4</ele>
        <time>2020-12-26T16:21:38Z</time>
      </trkpt>
      <trkpt lat="46.9116" lon="5.79286">
        <ele>650</ele>
        <time>2020-12-26T16:21:39Z</time>
      </trkpt>
      <trkpt lat="46.91161" lon="5.79275">
        <ele>649.6</ele>
        <time>2020-12-26T16:21:40Z</time>
      </trkpt>
      <trkpt lat="46.91161" lon="5.79264">
        <ele>649.2</ele>
        <time>2020-12-26T16:21:41Z</time>
      </trkpt>
      <trkpt lat="46.9116" lon="5.79252">
        <ele>648.8</ele>
        <time>2020-12-26T16:21:42Z</time>
      </trkpt>
      <trkpt lat="46.91158" lon="5.7924">
        <ele>648.4</ele>
        <time>2020-12-26T16:21:43Z</time>
      </trkpt>
      <trkpt lat="46.91155" lon="5.79229">
        <ele>648</ele>
        <time>2020-12-26T16:21:44Z</time>
      </trkpt>
      <trkpt lat="46.91151" lon="5.79217">
        <ele>647.4</ele>
        <time>2020-12-26T16:21:45Z</time>
      </trkpt>
      <trkpt lat="46.91147" lon="5.79206">
        <ele>647</ele>
        <time>2020-12-26T16:21:46Z</time>
      </trkpt>
      <trkpt lat="46.91141" lon="5.79193">
        <ele>646.4</ele>
        <time>2020-12-26T16:21:47Z</time>
      </trkpt>
      <trkpt lat="46.91136" lon="5.79181">
        <ele>645.8</ele>
        <time>2020-12-26T16:21:48Z</time>
      </trkpt>
      <trkpt lat="46.91132" lon="5.79171">
        <ele>645.4</ele>
        <time>2020-12-26T16:21:49Z</time>
      </trkpt>
      <trkpt lat="46.91127" lon="5.79161">
        <ele>644.8</ele>
        <time>2020-12-26T16:21:50Z</time>
      </trkpt>
      <trkpt lat="46.91122" lon="5.79152">
        <ele>644.2</ele>
        <time>2020-12-26T16:21:51Z</time>
      </trkpt>
      <trkpt lat="46.91116" lon="5.79144">
        <ele>643.6</ele>
        <time>2020-12-26T16:21:52Z</time>
      </trkpt>
      <trkpt lat="46.9111" lon="5.79137">
        <ele>643</ele>
        <time>2020-12-26T16:21:53Z</time>
      </trkpt>
      <trkpt lat="46.91103" lon="5.79132">
        <ele>642.4</ele>
        <time>2020-12-26T16:21:54Z</time>
      </trkpt>
      <trkpt lat="46.91096" lon="5.7913">
        <ele>642</ele>
        <time>2020-12-26T16:21:55Z</time>
      </trkpt>
      <trkpt lat="46.91089" lon="5.7913">
        <ele>641.4</ele>
        <time>2020-12-26T16:21:56Z</time>
      </trkpt>
      <trkpt lat="46.91082" lon="5.79132">
        <ele>640.8</ele>
        <time>2020-12-26T16:21:57Z</time>
      </trkpt>
      <trkpt lat="46.91075" lon="5.79136">
        <ele>640.4</ele>
        <time>2020-12-26T16:21:58Z</time>
      </trkpt>
      <trkpt lat="46.91068" lon="5.79142">
        <ele>640</ele>
        <time>2020-12-26T16:21:59Z</time>
      </trkpt>
      <trkpt lat="46.91061" lon="5.79148">
        <ele>639.4</ele>
        <time>2020-12-26T16:22:00Z</time>
      </trkpt>
      <trkpt lat="46.91055" lon="5.79153">
        <ele>639</ele>
        <time>2020-12-26T16:22:01Z</time>
      </trkpt>
      <trkpt lat="46.91048" lon="5.79157">
        <ele>638.6</ele>
        <time>2020-12-26T16:22:02Z</time>
      </trkpt>
      <trkpt lat="46.9104" lon="5.79159">
        <ele>638</ele>
        <time>2020-12-26T16:22:03Z</time>
      </trkpt>
      <trkpt lat="46.91033" lon="5.79159">
        <ele>637.6</ele>
        <time>2020-12-26T16:22:04Z</time>
      </trkpt>
      <trkpt lat="46.91026" lon="5.79156">
        <ele>637.2</ele>
        <time>2020-12-26T16:22:05Z</time>
      </trkpt>
      <trkpt lat="46.9102" lon="5.79152">
        <ele>636.8</ele>
        <time>2020-12-26T16:22:06Z</time>
      </trkpt>
      <trkpt lat="46.91013" lon="5.79146">
        <ele>636.4</ele>
        <time>2020-12-26T16:22:07Z</time>
      </trkpt>
      <trkpt lat="46.91006" lon="5.79139">
        <ele>636</ele>
        <time>2020-12-26T16:22:08Z</time>
      </trkpt>
      <trkpt lat="46.90999" lon="5.79132">
        <ele>635.6</ele>
        <time>2020-12-26T16:22:09Z</time>
      </trkpt>
      <trkpt lat="46.90993" lon="5.79124">
        <ele>635.2</ele>
        <time>2020-12-26T16:22:10Z</time>
      </trkpt>
      <trkpt lat="46.90988" lon="5.79115">
        <ele>634.8</ele>
        <time>2020-12-26T16:22:11Z</time>
      </trkpt>
      <trkpt lat="46.90983" lon="5.79106">
        <ele>634.4</ele>
        <time>2020-12-26T16:22:12Z</time>
      </trkpt>
      <trkpt lat="46.90979" lon="5.79095">
        <ele>634</ele>
        <time>2020-12-26T16:22:13Z</time>
      </trkpt>
      <trkpt lat="46.90977" lon="5.79084">
        <ele>633.4</ele>
        <time>2020-12-26T16:22:14Z</time>
      </trkpt>
      <trkpt lat="46.90975" lon="5.79072">
        <ele>633</ele>
        <time>2020-12-26T16:22:15Z</time>
      </trkpt>
      <trkpt lat="46.90975" lon="5.79059">
        <ele>632.4</ele>
        <time>2020-12-26T16:22:16Z</time>
      </trkpt>
      <trkpt lat="46.90975" lon="5.79047">
        <ele>632</ele>
        <time>2020-12-26T16:22:17Z</time>
      </trkpt>
      <trkpt lat="46.90975" lon="5.79034">
        <ele>631.4</ele>
        <time>2020-12-26T16:22:18Z</time>
      </trkpt>
      <trkpt lat="46.90976" lon="5.7902">
        <ele>631</ele>
        <time>2020-12-26T16:22:19Z</time>
      </trkpt>
      <trkpt lat="46.90978" lon="5.79005">
        <ele>630.4</ele>
        <time>2020-12-26T16:22:20Z</time>
      </trkpt>
      <trkpt lat="46.9098" lon="5.78991">
        <ele>629.8</ele>
        <time>2020-12-26T16:22:21Z</time>
      </trkpt>
      <trkpt lat="46.90983" lon="5.78979">
        <ele>629.2</ele>
        <time>2020-12-26T16:22:22Z</time>
      </trkpt>
      <trkpt lat="46.90986" lon="5.78966">
        <ele>628.8</ele>
        <time>2020-12-26T16:22:23Z</time>
      </trkpt>
      <trkpt lat="46.9099" lon="5.78953">
        <ele>628.2</ele>
        <time>2020-12-26T16:22:24Z</time>
      </trkpt>
      <trkpt lat="46.90994" lon="5.7894">
        <ele>627.6</ele>
        <time>2020-12-26T16:22:25Z</time>
      </trkpt>
      <trkpt lat="46.90998" lon="5.78928">
        <ele>627</ele>
        <time>2020-12-26T16:22:26Z</time>
      </trkpt>
      <trkpt lat="46.91003" lon="5.78916">
        <ele>626.6</ele>
        <time>2020-12-26T16:22:27Z</time>
      </trkpt>
      <trkpt lat="46.91008" lon="5.78904">
        <ele>626</ele>
        <time>2020-12-26T16:22:28Z</time>
      </trkpt>
      <trkpt lat="46.91014" lon="5.78893">
        <ele>625.4</ele>
        <time>2020-12-26T16:22:29Z</time>
      </trkpt>
      <trkpt lat="46.91021" lon="5.78881">
        <ele>624.8</ele>
        <time>2020-12-26T16:22:30Z</time>
      </trkpt>
      <trkpt lat="46.91027" lon="5.78869">
        <ele>624.4</ele>
        <time>2020-12-26T16:22:31Z</time>
      </trkpt>
      <trkpt lat="46.91033" lon="5.78858">
        <ele>624</ele>
        <time>2020-12-26T16:22:32Z</time>
      </trkpt>
      <trkpt lat="46.91039" lon="5.78849">
        <ele>623.6</ele>
        <time>2020-12-26T16:22:33Z</time>
      </trkpt>
      <trkpt lat="46.91045" lon="5.78839">
        <ele>623</ele>
        <time>2020-12-26T16:22:34Z</time>
      </trkpt>
      <trkpt lat="46.9105" lon="5.7883">
        <ele>622.4</ele>
        <time>2020-12-26T16:22:35Z</time>
      </trkpt>
      <trkpt lat="46.91055" lon="5.78821">
        <ele>621.8</ele>
        <time>2020-12-26T16:22:36Z</time>
      </trkpt>
      <trkpt lat="46.91059" lon="5.78811">
        <ele>621.4</ele>
        <time>2020-12-26T16:22:37Z</time>
      </trkpt>
      <trkpt lat="46.91062" lon="5.78802">
        <ele>621</ele>
        <time>2020-12-26T16:22:38Z</time>
      </trkpt>
      <trkpt lat="46.91064" lon="5.78792">
        <ele>620.4</ele>
        <time>2020-12-26T16:22:39Z</time>
      </trkpt>
      <trkpt lat="46.91066" lon="5.78781">
        <ele>620</ele>
        <time>2020-12-26T16:22:40Z</time>
      </trkpt>
      <trkpt lat="46.91066" lon="5.7877">
        <ele>619.6</ele>
        <time>2020-12-26T16:22:41Z</time>
      </trkpt>
      <trkpt lat="46.91066" lon="5.78759">
        <ele>619</ele>
        <time>2020-12-26T16:22:42Z</time>
      </trkpt>
      <trkpt lat="46.91065" lon="5.78749">
        <ele>618.6</ele>
        <time>2020-12-26T16:22:43Z</time>
      </trkpt>
      <trkpt lat="46.91064" lon="5.78738">
        <ele>618.2</ele>
        <time>2020-12-26T16:22:44Z</time>
      </trkpt>
      <trkpt lat="46.91062" lon="5.78728">
        <ele>617.8</ele>
        <time>2020-12-26T16:22:45Z</time>
      </trkpt>
      <trkpt lat="46.9106" lon="5.78718">
        <ele>617.4</ele>
        <time>2020-12-26T16:22:46Z</time>
      </trkpt>
      <trkpt lat="46.91057" lon="5.78708">
        <ele>617</ele>
        <time>2020-12-26T16:22:47Z</time>
      </trkpt>
      <trkpt lat="46.91054" lon="5.78698">
        <ele>616.4</ele>
        <time>2020-12-26T16:22:48Z</time>
      </trkpt>
      <trkpt lat="46.9105" lon="5.78688">
        <ele>616</ele>
        <time>2020-12-26T16:22:49Z</time>
      </trkpt>
      <trkpt lat="46.91047" lon="5.78678">
        <ele>615.6</ele>
        <time>2020-12-26T16:22:50Z</time>
      </trkpt>
      <trkpt lat="46.91043" lon="5.78667">
        <ele>615</ele>
        <time>2020-12-26T16:22:51Z</time>
      </trkpt>
      <trkpt lat="46.91038" lon="5.78656">
        <ele>614.6</ele>
        <time>2020-12-26T16:22:52Z</time>
      </trkpt>
      <trkpt lat="46.91034" lon="5.78645">
        <ele>613.8</ele>
        <time>2020-12-26T16:22:53Z</time>
      </trkpt>
      <trkpt lat="46.9103" lon="5.78634">
        <ele>613.4</ele>
        <time>2020-12-26T16:22:54Z</time>
      </trkpt>
      <trkpt lat="46.91025" lon="5.78623">
        <ele>612.8</ele>
        <time>2020-12-26T16:22:55Z</time>
      </trkpt>
      <trkpt lat="46.91021" lon="5.78611">
        <ele>612.4</ele>
        <time>2020-12-26T16:22:56Z</time>
      </trkpt>
      <trkpt lat="46.91016" lon="5.78599">
        <ele>611.8</ele>
        <time>2020-12-26T16:22:57Z</time>
      </trkpt>
      <trkpt lat="46.91011" lon="5.78587">
        <ele>611.4</ele>
        <time>2020-12-26T16:22:58Z</time>
      </trkpt>
      <trkpt lat="46.91006" lon="5.78575">
        <ele>610.8</ele>
        <time>2020-12-26T16:22:59Z</time>
      </trkpt>
      <trkpt lat="46.91001" lon="5.78562">
        <ele>610.4</ele>
        <time>2020-12-26T16:23:00Z</time>
      </trkpt>
      <trkpt lat="46.90996" lon="5.7855">
        <ele>609.8</ele>
        <time>2020-12-26T16:23:01Z</time>
      </trkpt>
      <trkpt lat="46.90991" lon="5.78537">
        <ele>609.4</ele>
        <time>2020-12-26T16:23:02Z</time>
      </trkpt>
      <trkpt lat="46.90986" lon="5.78525">
        <ele>608.8</ele>
        <time>2020-12-26T16:23:03Z</time>
      </trkpt>
      <trkpt lat="46.9098" lon="5.78513">
        <ele>608.2</ele>
        <time>2020-12-26T16:23:04Z</time>
      </trkpt>
      <trkpt lat="46.90974" lon="5.78502">
        <ele>607.6</ele>
        <time>2020-12-26T16:23:05Z</time>
      </trkpt>
      <trkpt lat="46.90968" lon="5.7849">
        <ele>607</ele>
        <time>2020-12-26T16:23:06Z</time>
      </trkpt>
      <trkpt lat="46.90962" lon="5.78479">
        <ele>606.6</ele>
        <time>2020-12-26T16:23:07Z</time>
      </trkpt>
      <trkpt lat="46.90955" lon="5.78467">
        <ele>606</ele>
        <time>2020-12-26T16:23:08Z</time>
      </trkpt>
      <trkpt lat="46.90949" lon="5.78457">
        <ele>605.4</ele>
        <time>2020-12-26T16:23:09Z</time>
      </trkpt>
      <trkpt lat="46.90941" lon="5.78447">
        <ele>605</ele>
        <time>2020-12-26T16:23:10Z</time>
      </trkpt>
      <trkpt lat="46.90934" lon="5.78436">
        <ele>604.4</ele>
        <time>2020-12-26T16:23:11Z</time>
      </trkpt>
      <trkpt lat="46.90928" lon="5.78426">
        <ele>603.8</ele>
        <time>2020-12-26T16:23:12Z</time>
      </trkpt>
      <trkpt lat="46.90922" lon="5.78416">
        <ele>603.2</ele>
        <time>2020-12-26T16:23:13Z</time>
      </trkpt>
      <trkpt lat="46.90916" lon="5.78406">
        <ele>602.6</ele>
        <time>2020-12-26T16:23:14Z</time>
      </trkpt>
      <trkpt lat="46.90909" lon="5.78396">
        <ele>602</ele>
        <time>2020-12-26T16:23:15Z</time>
      </trkpt>
      <trkpt lat="46.90902" lon="5.78385">
        <ele>601.4</ele>
        <time>2020-12-26T16:23:16Z</time>
      </trkpt>
      <trkpt lat="46.90896" lon="5.78376">
        <ele>600.8</ele>
        <time>2020-12-26T16:23:17Z</time>
      </trkpt>
      <trkpt lat="46.9089" lon="5.78366">
        <ele>600.4</ele>
        <time>2020-12-26T16:23:18Z</time>
      </trkpt>
      <trkpt lat="46.90887" lon="5.78356">
        <ele>599.8</ele>
        <time>2020-12-26T16:23:19Z</time>
      </trkpt>
      <trkpt lat="46.90883" lon="5.78345">
        <ele>599.2</ele>
        <time>2020-12-26T16:23:20Z</time>
      </trkpt>
      <trkpt lat="46.90881" lon="5.78333">
        <ele>598.6</ele>
        <time>2020-12-26T16:23:21Z</time>
      </trkpt>
      <trkpt lat="46.90879" lon="5.78322">
        <ele>598</ele>
        <time>2020-12-26T16:23:22Z</time>
      </trkpt>
      <trkpt lat="46.90878" lon="5.78312">
        <ele>597.8</ele>
        <time>2020-12-26T16:23:23Z</time>
      </trkpt>
      <trkpt lat="46.90878" lon="5.78301">
        <ele>597.2</ele>
        <time>2020-12-26T16:23:24Z</time>
      </trkpt>
      <trkpt lat="46.90879" lon="5.78292">
        <ele>597</ele>
        <time>2020-12-26T16:23:25Z</time>
      </trkpt>
      <trkpt lat="46.90881" lon="5.78281">
        <ele>596.6</ele>
        <time>2020-12-26T16:23:26Z</time>
      </trkpt>
      <trkpt lat="46.90884" lon="5.78271">
        <ele>596.2</ele>
        <time>2020-12-26T16:23:27Z</time>
      </trkpt>
      <trkpt lat="46.90888" lon="5.7826">
        <ele>595.6</ele>
        <time>2020-12-26T16:23:28Z</time>
      </trkpt>
      <trkpt lat="46.90892" lon="5.78251">
        <ele>595.2</ele>
        <time>2020-12-26T16:23:29Z</time>
      </trkpt>
      <trkpt lat="46.90897" lon="5.78242">
        <ele>594.8</ele>
        <time>2020-12-26T16:23:30Z</time>
      </trkpt>
      <trkpt lat="46.90903" lon="5.78234">
        <ele>594.4</ele>
        <time>2020-12-26T16:23:31Z</time>
      </trkpt>
      <trkpt lat="46.90909" lon="5.78227">
        <ele>594</ele>
        <time>2020-12-26T16:23:32Z</time>
      </trkpt>
      <trkpt lat="46.90916" lon="5.7822">
        <ele>593.6</ele>
        <time>2020-12-26T16:23:33Z</time>
      </trkpt>
      <trkpt lat="46.90923" lon="5.78215">
        <ele>593.2</ele>
        <time>2020-12-26T16:23:34Z</time>
      </trkpt>
      <trkpt lat="46.90931" lon="5.78209">
        <ele>592.8</ele>
        <time>2020-12-26T16:23:35Z</time>
      </trkpt>
      <trkpt lat="46.90938" lon="5.78205">
        <ele>592.4</ele>
        <time>2020-12-26T16:23:36Z</time>
      </trkpt>
      <trkpt lat="46.90945" lon="5.78202">
        <ele>591.8</ele>
        <time>2020-12-26T16:23:37Z</time>
      </trkpt>
      <trkpt lat="46.90951" lon="5.782">
        <ele>591.4</ele>
        <time>2020-12-26T16:23:38Z</time>
      </trkpt>
      <trkpt lat="46.90957" lon="5.78199">
        <ele>591</ele>
        <time>2020-12-26T16:23:39Z</time>
      </trkpt>
      <trkpt lat="46.90963" lon="5.78199">
        <ele>590.4</ele>
        <time>2020-12-26T16:23:40Z</time>
      </trkpt>
      <trkpt lat="46.9097" lon="5.78199">
        <ele>590</ele>
        <time>2020-12-26T16:23:41Z</time>
      </trkpt>
      <trkpt lat="46.90976" lon="5.782">
        <ele>589.6</ele>
        <time>2020-12-26T16:23:42Z</time>
      </trkpt>
      <trkpt lat="46.90982" lon="5.78202">
        <ele>589.4</ele>
        <time>2020-12-26T16:23:43Z</time>
      </trkpt>
      <trkpt lat="46.90988" lon="5.78205">
        <ele>589</ele>
        <time>2020-12-26T16:23:44Z</time>
      </trkpt>
      <trkpt lat="46.90995" lon="5.78209">
        <ele>588.6</ele>
        <time>2020-12-26T16:23:45Z</time>
      </trkpt>
      <trkpt lat="46.91002" lon="5.78214">
        <ele>588.2</ele>
        <time>2020-12-26T16:23:46Z</time>
      </trkpt>
      <trkpt lat="46.91009" lon="5.78218">
        <ele>587.8</ele>
        <time>2020-12-26T16:23:47Z</time>
      </trkpt>
      <trkpt lat="46.91015" lon="5.78221">
        <ele>587.4</ele>
        <time>2020-12-26T16:23:48Z</time>
      </trkpt>
      <trkpt lat="46.91022" lon="5.78224">
        <ele>587</ele>
        <time>2020-12-26T16:23:49Z</time>
      </trkpt>
      <trkpt lat="46.91028" lon="5.78226">
        <ele>586.6</ele>
        <time>2020-12-26T16:23:50Z</time>
      </trkpt>
      <trkpt lat="46.91034" lon="5.78227">
        <ele>586</ele>
        <time>2020-12-26T16:23:51Z</time>
      </trkpt>
      <trkpt lat="46.91041" lon="5.78229">
        <ele>585.6</ele>
        <time>2020-12-26T16:23:52Z</time>
      </trkpt>
      <trkpt lat="46.91048" lon="5.7823">
        <ele>585.2</ele>
        <time>2020-12-26T16:23:53Z</time>
      </trkpt>
      <trkpt lat="46.91056" lon="5.7823">
        <ele>584.8</ele>
        <time>2020-12-26T16:23:54Z</time>
      </trkpt>
      <trkpt lat="46.91064" lon="5.7823">
        <ele>584.2</ele>
        <time>2020-12-26T16:23:55Z</time>
      </trkpt>
      <trkpt lat="46.91072" lon="5.7823">
        <ele>583.6</ele>
        <time>2020-12-26T16:23:56Z</time>
      </trkpt>
      <trkpt lat="46.9108" lon="5.78231">
        <ele>583.2</ele>
        <time>2020-12-26T16:23:57Z</time>
      </trkpt>
      <trkpt lat="46.91087" lon="5.78231">
        <ele>582.6</ele>
        <time>2020-12-26T16:23:58Z</time>
      </trkpt>
      <trkpt lat="46.91095" lon="5.78232">
        <ele>582.2</ele>
        <time>2020-12-26T16:23:59Z</time>
      </trkpt>
      <trkpt lat="46.91102" lon="5.78233">
        <ele>581.8</ele>
        <time>2020-12-26T16:24:00Z</time>
      </trkpt>
      <trkpt lat="46.91109" lon="5.78234">
        <ele>581.2</ele>
        <time>2020-12-26T16:24:01Z</time>
      </trkpt>
      <trkpt lat="46.91116" lon="5.78234">
        <ele>580.6</ele>
        <time>2020-12-26T16:24:02Z</time>
      </trkpt>
      <trkpt lat="46.91123" lon="5.78235">
        <ele>580.2</ele>
        <time>2020-12-26T16:24:03Z</time>
      </trkpt>
      <trkpt lat="46.91131" lon="5.78235">
        <ele>579.8</ele>
        <time>2020-12-26T16:24:04Z</time>
      </trkpt>
      <trkpt lat="46.91138" lon="5.78235">
        <ele>579.2</ele>
        <time>2020-12-26T16:24:05Z</time>
      </trkpt>
      <trkpt lat="46.91145" lon="5.78235">
        <ele>578.8</ele>
        <time>2020-12-26T16:24:06Z</time>
      </trkpt>
      <trkpt lat="46.91152" lon="5.78234">
        <ele>578.4</ele>
        <time>2020-12-26T16:24:07Z</time>
      </trkpt>
      <trkpt lat="46.91159" lon="5.78232">
        <ele>578</ele>
        <time>2020-12-26T16:24:08Z</time>
      </trkpt>
      <trkpt lat="46.91166" lon="5.7823">
        <ele>577.6</ele>
        <time>2020-12-26T16:24:09Z</time>
      </trkpt>
      <trkpt lat="46.91173" lon="5.78227">
        <ele>577</ele>
        <time>2020-12-26T16:24:10Z</time>
      </trkpt>
      <trkpt lat="46.91181" lon="5.78224">
        <ele>576.6</ele>
        <time>2020-12-26T16:24:11Z</time>
      </trkpt>
      <trkpt lat="46.91189" lon="5.78222">
        <ele>576.2</ele>
        <time>2020-12-26T16:24:12Z</time>
      </trkpt>
      <trkpt lat="46.91197" lon="5.78219">
        <ele>575.8</ele>
        <time>2020-12-26T16:24:13Z</time>
      </trkpt>
      <trkpt lat="46.91206" lon="5.78217">
        <ele>575.2</ele>
        <time>2020-12-26T16:24:14Z</time>
      </trkpt>
      <trkpt lat="46.91215" lon="5.78216">
        <ele>574.8</ele>
        <time>2020-12-26T16:24:15Z</time>
      </trkpt>
      <trkpt lat="46.91223" lon="5.78215">
        <ele>574.2</ele>
        <time>2020-12-26T16:24:16Z</time>
      </trkpt>
      <trkpt lat="46.91232" lon="5.78214">
        <ele>573.8</ele>
        <time>2020-12-26T16:24:17Z</time>
      </trkpt>
      <trkpt lat="46.9124" lon="5.78212">
        <ele>573.4</ele>
        <time>2020-12-26T16:24:18Z</time>
      </trkpt>
      <trkpt lat="46.91249" lon="5.78211">
        <ele>572.8</ele>
        <time>2020-12-26T16:24:19Z</time>
      </trkpt>
      <trkpt lat="46.91257" lon="5.78209">
        <ele>572.2</ele>
        <time>2020-12-26T16:24:20Z</time>
      </trkpt>
      <trkpt lat="46.91265" lon="5.78207">
        <ele>571.8</ele>
        <time>2020-12-26T16:24:21Z</time>
      </trkpt>
      <trkpt lat="46.91272" lon="5.78204">
        <ele>571.4</ele>
        <time>2020-12-26T16:24:22Z</time>
      </trkpt>
      <trkpt lat="46.9128" lon="5.78202">
        <ele>571</ele>
        <time>2020-12-26T16:24:23Z</time>
      </trkpt>
      <trkpt lat="46.91286" lon="5.78201">
        <ele>570.6</ele>
        <time>2020-12-26T16:24:24Z</time>
      </trkpt>
      <trkpt lat="46.91293" lon="5.782">
        <ele>570</ele>
        <time>2020-12-26T16:24:25Z</time>
      </trkpt>
      <trkpt lat="46.91299" lon="5.78199">
        <ele>569.6</ele>
        <time>2020-12-26T16:24:26Z</time>
      </trkpt>
      <trkpt lat="46.91304" lon="5.782">
        <ele>569.4</ele>
        <time>2020-12-26T16:24:27Z</time>
      </trkpt>
      <trkpt lat="46.91309" lon="5.78203">
        <ele>569</ele>
        <time>2020-12-26T16:24:28Z</time>
      </trkpt>
      <trkpt lat="46.91314" lon="5.78206">
        <ele>568.8</ele>
        <time>2020-12-26T16:24:29Z</time>
      </trkpt>
      <trkpt lat="46.91319" lon="5.78211">
        <ele>568.4</ele>
        <time>2020-12-26T16:24:30Z</time>
      </trkpt>
      <trkpt lat="46.91323" lon="5.78217">
        <ele>568</ele>
        <time>2020-12-26T16:24:31Z</time>
      </trkpt>
      <trkpt lat="46.91327" lon="5.78224">
        <ele>567.8</ele>
        <time>2020-12-26T16:24:32Z</time>
      </trkpt>
      <trkpt lat="46.9133" lon="5.78231">
        <ele>567.4</ele>
        <time>2020-12-26T16:24:33Z</time>
      </trkpt>
      <trkpt lat="46.91331" lon="5.78239">
        <ele>567.2</ele>
        <time>2020-12-26T16:24:34Z</time>
      </trkpt>
      <trkpt lat="46.91333" lon="5.78246">
        <ele>567</ele>
        <time>2020-12-26T16:24:35Z</time>
      </trkpt>
      <trkpt lat="46.91335" lon="5.78252">
        <ele>566.8</ele>
        <time>2020-12-26T16:24:36Z</time>
      </trkpt>
      <trkpt lat="46.91337" lon="5.78257">
        <ele>566.8</ele>
        <time>2020-12-26T16:24:37Z</time>
      </trkpt>
      <trkpt lat="46.91341" lon="5.78261">
        <ele>566.4</ele>
        <time>2020-12-26T16:24:38Z</time>
      </trkpt>
      <trkpt lat="46.91344" lon="5.78265">
        <ele>566.2</ele>
        <time>2020-12-26T16:24:39Z</time>
      </trkpt>
      <trkpt lat="46.91347" lon="5.78268">
        <ele>566</ele>
        <time>2020-12-26T16:24:40Z</time>
      </trkpt>
      <trkpt lat="46.91351" lon="5.7827">
        <ele>565.6</ele>
        <time>2020-12-26T16:24:41Z</time>
      </trkpt>
      <trkpt lat="46.91355" lon="5.78271">
        <ele>565.4</ele>
        <time>2020-12-26T16:24:42Z</time>
      </trkpt>
      <trkpt lat="46.9136" lon="5.78271">
        <ele>565</ele>
        <time>2020-12-26T16:24:43Z</time>
      </trkpt>
      <trkpt lat="46.91365" lon="5.7827">
        <ele>564.8</ele>
        <time>2020-12-26T16:24:44Z</time>
      </trkpt>
      <trkpt lat="46.9137" lon="5.78267">
        <ele>564.4</ele>
        <time>2020-12-26T16:24:45Z</time>
      </trkpt>
      <trkpt lat="46.91375" lon="5.78263">
        <ele>564.2</ele>
        <time>2020-12-26T16:24:46Z</time>
      </trkpt>
      <trkpt lat="46.91379" lon="5.78257">
        <ele>563.8</ele>
        <time>2020-12-26T16:24:47Z</time>
      </trkpt>
      <trkpt lat="46.91382" lon="5.7825">
        <ele>563.6</ele>
        <time>2020-12-26T16:24:48Z</time>
      </trkpt>
      <trkpt lat="46.91384" lon="5.78243">
        <ele>563.2</ele>
        <time>2020-12-26T16:24:49Z</time>
      </trkpt>
      <trkpt lat="46.91385" lon="5.78234">
        <ele>563</ele>
        <time>2020-12-26T16:24:50Z</time>
      </trkpt>
      <trkpt lat="46.91385" lon="5.78226">
        <ele>562.6</ele>
        <time>2020-12-26T16:24:51Z</time>
      </trkpt>
      <trkpt lat="46.91384" lon="5.78217">
        <ele>562.4</ele>
        <time>2020-12-26T16:24:52Z</time>
      </trkpt>
      <trkpt lat="46.91381" lon="5.78209">
        <ele>562.2</ele>
        <time>2020-12-26T16:24:53Z</time>
      </trkpt>
      <trkpt lat="46.91378" lon="5.78202">
        <ele>561.8</ele>
        <time>2020-12-26T16:24:54Z</time>
      </trkpt>
      <trkpt lat="46.91375" lon="5.78195">
        <ele>561.4</ele>
        <time>2020-12-26T16:24:55Z</time>
      </trkpt>
      <trkpt lat="46.91371" lon="5.78188">
        <ele>561</ele>
        <time>2020-12-26T16:24:56Z</time>
      </trkpt>
      <trkpt lat="46.91367" lon="5.78181">
        <ele>560.6</ele>
        <time>2020-12-26T16:24:57Z</time>
      </trkpt>
      <trkpt lat="46.91364" lon="5.78175">
        <ele>560.2</ele>
        <time>2020-12-26T16:24:58Z</time>
      </trkpt>
      <trkpt lat="46.91359" lon="5.78169">
        <ele>560</ele>
        <time>2020-12-26T16:24:59Z</time>
      </trkpt>
      <trkpt lat="46.91355" lon="5.78164">
        <ele>559.6</ele>
        <time>2020-12-26T16:25:00Z</time>
      </trkpt>
      <trkpt lat="46.9135" lon="5.7816">
        <ele>559.2</ele>
        <time>2020-12-26T16:25:01Z</time>
      </trkpt>
      <trkpt lat="46.91344" lon="5.78157">
        <ele>558.8</ele>
        <time>2020-12-26T16:25:02Z</time>
      </trkpt>
      <trkpt lat="46.91338" lon="5.78155">
        <ele>558.4</ele>
        <time>2020-12-26T16:25:03Z</time>
      </trkpt>
      <trkpt lat="46.91332" lon="5.78154">
        <ele>558</ele>
        <time>2020-12-26T16:25:04Z</time>
      </trkpt>
      <trkpt lat="46.91325" lon="5.78155">
        <ele>557.4</ele>
        <time>2020-12-26T16:25:05Z</time>
      </trkpt>
      <trkpt lat="46.91318" lon="5.78156">
        <ele>557</ele>
        <time>2020-12-26T16:25:06Z</time>
      </trkpt>
      <trkpt lat="46.9131" lon="5.78159">
        <ele>556.4</ele>
        <time>2020-12-26T16:25:07Z</time>
      </trkpt>
      <trkpt lat="46.91302" lon="5.78161">
        <ele>556</ele>
        <time>2020-12-26T16:25:08Z</time>
      </trkpt>
      <trkpt lat="46.91294" lon="5.78163">
        <ele>555.4</ele>
        <time>2020-12-26T16:25:09Z</time>
      </trkpt>
      <trkpt lat="46.91286" lon="5.78164">
        <ele>555</ele>
        <time>2020-12-26T16:25:10Z</time>
      </trkpt>
      <trkpt lat="46.91279" lon="5.78165">
        <ele>554.6</ele>
        <time>2020-12-26T16:25:11Z</time>
      </trkpt>
      <trkpt lat="46.91271" lon="5.78165">
        <ele>554</ele>
        <time>2020-12-26T16:25:12Z</time>
      </trkpt>
      <trkpt lat="46.91263" lon="5.78163">
        <ele>553.4</ele>
        <time>2020-12-26T16:25:13Z</time>
      </trkpt>
      <trkpt lat="46.91254" lon="5.78161">
        <ele>553</ele>
        <time>2020-12-26T16:25:14Z</time>
      </trkpt>
      <trkpt lat="46.91245" lon="5.78158">
        <ele>552.4</ele>
        <time>2020-12-26T16:25:15Z</time>
      </trkpt>
      <trkpt lat="46.91236" lon="5.78155">
        <ele>551.8</ele>
        <time>2020-12-26T16:25:16Z</time>
      </trkpt>
      <trkpt lat="46.91227" lon="5.78153">
        <ele>551.4</ele>
        <time>2020-12-26T16:25:17Z</time>
      </trkpt>
      <trkpt lat="46.91219" lon="5.78149">
        <ele>551</ele>
        <time>2020-12-26T16:25:18Z</time>
      </trkpt>
      <trkpt lat="46.91211" lon="5.78145">
        <ele>550.4</ele>
        <time>2020-12-26T16:25:19Z</time>
      </trkpt>
      <trkpt lat="46.91202" lon="5.78142">
        <ele>549.8</ele>
        <time>2020-12-26T16:25:20Z</time>
      </trkpt>
      <trkpt lat="46.91193" lon="5.78138">
        <ele>549.4</ele>
        <time>2020-12-26T16:25:21Z</time>
      </trkpt>
      <trkpt lat="46.91184" lon="5.78135">
        <ele>548.8</ele>
        <time>2020-12-26T16:25:22Z</time>
      </trkpt>
      <trkpt lat="46.91175" lon="5.78132">
        <ele>548.2</ele>
        <time>2020-12-26T16:25:23Z</time>
      </trkpt>
      <trkpt lat="46.91166" lon="5.7813">
        <ele>547.6</ele>
        <time>2020-12-26T16:25:24Z</time>
      </trkpt>
      <trkpt lat="46.91156" lon="5.78128">
        <ele>547.2</ele>
        <time>2020-12-26T16:25:25Z</time>
      </trkpt>
      <trkpt lat="46.91147" lon="5.78127">
        <ele>546.6</ele>
        <time>2020-12-26T16:25:26Z</time>
      </trkpt>
      <trkpt lat="46.91139" lon="5.78126">
        <ele>546</ele>
        <time>2020-12-26T16:25:27Z</time>
      </trkpt>
      <trkpt lat="46.91131" lon="5.78126">
        <ele>545.6</ele>
        <time>2020-12-26T16:25:28Z</time>
      </trkpt>
      <trkpt lat="46.91124" lon="5.78125">
        <ele>545</ele>
        <time>2020-12-26T16:25:29Z</time>
      </trkpt>
      <trkpt lat="46.91115" lon="5.78124">
        <ele>544.4</ele>
        <time>2020-12-26T16:25:30Z</time>
      </trkpt>
      <trkpt lat="46.91106" lon="5.78122">
        <ele>543.6</ele>
        <time>2020-12-26T16:25:31Z</time>
      </trkpt>
      <trkpt lat="46.91097" lon="5.78119">
        <ele>543.2</ele>
        <time>2020-12-26T16:25:32Z</time>
      </trkpt>
      <trkpt lat="46.91089" lon="5.78115">
        <ele>542.4</ele>
        <time>2020-12-26T16:25:33Z</time>
      </trkpt>
      <trkpt lat="46.91081" lon="5.78109">
        <ele>542</ele>
        <time>2020-12-26T16:25:34Z</time>
      </trkpt>
      <trkpt lat="46.91073" lon="5.78103">
        <ele>541.4</ele>
        <time>2020-12-26T16:25:35Z</time>
      </trkpt>
      <trkpt lat="46.91066" lon="5.78097">
        <ele>540.8</ele>
        <time>2020-12-26T16:25:36Z</time>
      </trkpt>
      <trkpt lat="46.91059" lon="5.78091">
        <ele>540.2</ele>
        <time>2020-12-26T16:25:37Z</time>
      </trkpt>
      <trkpt lat="46.91051" lon="5.78086">
        <ele>539.8</ele>
        <time>2020-12-26T16:25:38Z</time>
      </trkpt>
      <trkpt lat="46.91042" lon="5.78083">
        <ele>539.2</ele>
        <time>2020-12-26T16:25:39Z</time>
      </trkpt>
      <trkpt lat="46.91033" lon="5.78081">
        <ele>538.6</ele>
        <time>2020-12-26T16:25:40Z</time>
      </trkpt>
      <trkpt lat="46.91024" lon="5.78078">
        <ele>538.2</ele>
        <time>2020-12-26T16:25:41Z</time>
      </trkpt>
      <trkpt lat="46.91015" lon="5.78076">
        <ele>537.6</ele>
        <time>2020-12-26T16:25:42Z</time>
      </trkpt>
      <trkpt lat="46.91006" lon="5.78073">
        <ele>537</ele>
        <time>2020-12-26T16:25:43Z</time>
      </trkpt>
      <trkpt lat="46.90997" lon="5.7807">
        <ele>536.4</ele>
        <time>2020-12-26T16:25:44Z</time>
      </trkpt>
      <trkpt lat="46.90989" lon="5.78066">
        <ele>536</ele>
        <time>2020-12-26T16:25:45Z</time>
      </trkpt>
      <trkpt lat="46.90981" lon="5.78061">
        <ele>535.6</ele>
        <time>2020-12-26T16:25:46Z</time>
      </trkpt>
      <trkpt lat="46.90973" lon="5.78056">
        <ele>535</ele>
        <time>2020-12-26T16:25:47Z</time>
      </trkpt>
      <trkpt lat="46.90966" lon="5.78049">
        <ele>534.6</ele>
        <time>2020-12-26T16:25:48Z</time>
      </trkpt>
      <trkpt lat="46.90959" lon="5.78042">
        <ele>534</ele>
        <time>2020-12-26T16:25:49Z</time>
      </trkpt>
      <trkpt lat="46.90952" lon="5.78036">
        <ele>533.6</ele>
        <time>2020-12-26T16:25:50Z</time>
      </trkpt>
      <trkpt lat="46.90944" lon="5.78028">
        <ele>533</ele>
        <time>2020-12-26T16:25:51Z</time>
      </trkpt>
      <trkpt lat="46.90936" lon="5.78022">
        <ele>532.6</ele>
        <time>2020-12-26T16:25:52Z</time>
      </trkpt>
      <trkpt lat="46.90926" lon="5.78017">
        <ele>532.2</ele>
        <time>2020-12-26T16:25:53Z</time>
      </trkpt>
      <trkpt lat="46.90916" lon="5.78012">
        <ele>531.6</ele>
        <time>2020-12-26T16:25:54Z</time>
      </trkpt>
      <trkpt lat="46.90904" lon="5.78005">
        <ele>531</ele>
        <time>2020-12-26T16:25:55Z</time>
      </trkpt>
      <trkpt lat="46.90893" lon="5.77999">
        <ele>530.4</ele>
        <time>2020-12-26T16:25:56Z</time>
      </trkpt>
      <trkpt lat="46.90883" lon="5.77995">
        <ele>529.8</ele>
        <time>2020-12-26T16:25:57Z</time>
      </trkpt>
      <trkpt lat="46.90872" lon="5.7799">
        <ele>529.2</ele>
        <time>2020-12-26T16:25:58Z</time>
      </trkpt>
      <trkpt lat="46.90862" lon="5.77985">
        <ele>528.6</ele>
        <time>2020-12-26T16:25:59Z</time>
      </trkpt>
      <trkpt lat="46.90853" lon="5.77982">
        <ele>528.2</ele>
        <time>2020-12-26T16:26:00Z</time>
      </trkpt>
      <trkpt lat="46.90844" lon="5.77977">
        <ele>527.8</ele>
        <time>2020-12-26T16:26:01Z</time>
      </trkpt>
      <trkpt lat="46.90836" lon="5.77973">
        <ele>527.4</ele>
        <time>2020-12-26T16:26:02Z</time>
      </trkpt>
      <trkpt lat="46.90827" lon="5.77968">
        <ele>526.8</ele>
        <time>2020-12-26T16:26:03Z</time>
      </trkpt>
      <trkpt lat="46.90819" lon="5.77963">
        <ele>526.4</ele>
        <time>2020-12-26T16:26:04Z</time>
      </trkpt>
      <trkpt lat="46.90812" lon="5.77957">
        <ele>525.8</ele>
        <time>2020-12-26T16:26:05Z</time>
      </trkpt>
      <trkpt lat="46.90804" lon="5.77951">
        <ele>525.2</ele>
        <time>2020-12-26T16:26:06Z</time>
      </trkpt>
      <trkpt lat="46.90797" lon="5.77944">
        <ele>524.8</ele>
        <time>2020-12-26T16:26:07Z</time>
      </trkpt>
      <trkpt lat="46.9079" lon="5.77939">
        <ele>524.2</ele>
        <time>2020-12-26T16:26:08Z</time>
      </trkpt>
      <trkpt lat="46.90783" lon="5.77934">
        <ele>523.8</ele>
        <time>2020-12-26T16:26:09Z</time>
      </trkpt>
      <trkpt lat="46.90776" lon="5.7793">
        <ele>523.4</ele>
        <time>2020-12-26T16:26:10Z</time>
      </trkpt>
      <trkpt lat="46.90769" lon="5.77928">
        <ele>523</ele>
        <time>2020-12-26T16:26:11Z</time>
      </trkpt>
      <trkpt lat="46.90761" lon="5.77928">
        <ele>522.6</ele>
        <time>2020-12-26T16:26:12Z</time>
      </trkpt>
      <trkpt lat="46.90753" lon="5.77929">
        <ele>522.2</ele>
        <time>2020-12-26T16:26:13Z</time>
      </trkpt>
      <trkpt lat="46.90745" lon="5.77931">
        <ele>521.6</ele>
        <time>2020-12-26T16:26:14Z</time>
      </trkpt>
      <trkpt lat="46.90737" lon="5.77933">
        <ele>521.2</ele>
        <time>2020-12-26T16:26:15Z</time>
      </trkpt>
      <trkpt lat="46.90729" lon="5.77936">
        <ele>520.6</ele>
        <time>2020-12-26T16:26:16Z</time>
      </trkpt>
      <trkpt lat="46.9072" lon="5.77939">
        <ele>520.2</ele>
        <time>2020-12-26T16:26:17Z</time>
      </trkpt>
      <trkpt lat="46.90712" lon="5.77941">
        <ele>519.6</ele>
        <time>2020-12-26T16:26:18Z</time>
      </trkpt>
      <trkpt lat="46.90704" lon="5.77944">
        <ele>519.2</ele>
        <time>2020-12-26T16:26:19Z</time>
      </trkpt>
      <trkpt lat="46.90697" lon="5.77945">
        <ele>518.8</ele>
        <time>2020-12-26T16:26:20Z</time>
      </trkpt>
      <trkpt lat="46.9069" lon="5.77946">
        <ele>518.2</ele>
        <time>2020-12-26T16:26:21Z</time>
      </trkpt>
      <trkpt lat="46.90683" lon="5.77945">
        <ele>517.8</ele>
        <time>2020-12-26T16:26:22Z</time>
      </trkpt>
      <trkpt lat="46.90676" lon="5.77942">
        <ele>517.2</ele>
        <time>2020-12-26T16:26:23Z</time>
      </trkpt>
      <trkpt lat="46.90669" lon="5.77937">
        <ele>516.8</ele>
        <time>2020-12-26T16:26:24Z</time>
      </trkpt>
      <trkpt lat="46.90663" lon="5.77931">
        <ele>516.4</ele>
        <time>2020-12-26T16:26:25Z</time>
      </trkpt>
      <trkpt lat="46.90657" lon="5.77923">
        <ele>515.8</ele>
        <time>2020-12-26T16:26:26Z</time>
      </trkpt>
      <trkpt lat="46.90652" lon="5.77914">
        <ele>515.4</ele>
        <time>2020-12-26T16:26:27Z</time>
      </trkpt>
      <trkpt lat="46.90648" lon="5.77903">
        <ele>514.8</ele>
        <time>2020-12-26T16:26:28Z</time>
      </trkpt>
      <trkpt lat="46.90644" lon="5.77892">
        <ele>514.2</ele>
        <time>2020-12-26T16:26:29Z</time>
      </trkpt>
      <trkpt lat="46.9064" lon="5.77881">
        <ele>513.6</ele>
        <time>2020-12-26T16:26:30Z</time>
      </trkpt>
      <trkpt lat="46.90636" lon="5.7787">
        <ele>513.2</ele>
        <time>2020-12-26T16:26:31Z</time>
      </trkpt>
      <trkpt lat="46.90632" lon="5.77858">
        <ele>512.6</ele>
        <time>2020-12-26T16:26:32Z</time>
      </trkpt>
      <trkpt lat="46.90628" lon="5.77846">
        <ele>512.2</ele>
        <time>2020-12-26T16:26:33Z</time>
      </trkpt>
      <trkpt lat="46.90624" lon="5.77834">
        <ele>511.6</ele>
        <time>2020-12-26T16:26:34Z</time>
      </trkpt>
      <trkpt lat="46.9062" lon="5.77821">
        <ele>511</ele>
        <time>2020-12-26T16:26:35Z</time>
      </trkpt>
      <trkpt lat="46.90616" lon="5.77808">
        <ele>510.4</ele>
        <time>2020-12-26T16:26:36Z</time>
      </trkpt>
      <trkpt lat="46.90612" lon="5.77795">
        <ele>510</ele>
        <time>2020-12-26T16:26:37Z</time>
      </trkpt>
      <trkpt lat="46.90608" lon="5.77785">
        <ele>509.6</ele>
        <time>2020-12-26T16:26:38Z</time>
      </trkpt>
      <trkpt lat="46.90604" lon="5.77775">
        <ele>509.2</ele>
        <time>2020-12-26T16:26:39Z</time>
      </trkpt>
      <trkpt lat="46.90601" lon="5.77766">
        <ele>508.8</ele>
        <time>2020-12-26T16:26:40Z</time>
      </trkpt>
      <trkpt lat="46.90597" lon="5.77757">
        <ele>508.4</ele>
        <time>2020-12-26T16:26:41Z</time>
      </trkpt>
      <trkpt lat="46.90593" lon="5.77748">
        <ele>508.2</ele>
        <time>2020-12-26T16:26:42Z</time>
      </trkpt>
      <trkpt lat="46.90589" lon="5.77739">
        <ele>508</ele>
        <time>2020-12-26T16:26:43Z</time>
      </trkpt>
      <trkpt lat="46.90585" lon="5.7773">
        <ele>507.6</ele>
        <time>2020-12-26T16:26:44Z</time>
      </trkpt>
      <trkpt lat="46.90582" lon="5.77721">
        <ele>507.4</ele>
        <time>2020-12-26T16:26:45Z</time>
      </trkpt>
      <trkpt lat="46.90579" lon="5.77712">
        <ele>507.4</ele>
        <time>2020-12-26T16:26:46Z</time>
      </trkpt>
      <trkpt lat="46.90576" lon="5.77704">
        <ele>507.4</ele>
        <time>2020-12-26T16:26:47Z</time>
      </trkpt>
      <trkpt lat="46.90573" lon="5.77697">
        <ele>507.4</ele>
        <time>2020-12-26T16:26:48Z</time>
      </trkpt>
      <trkpt lat="46.90572" lon="5.7769">
        <ele>507.4</ele>
        <time>2020-12-26T16:26:49Z</time>
      </trkpt>
      <trkpt lat="46.90572" lon="5.77684">
        <ele>507.6</ele>
        <time>2020-12-26T16:26:50Z</time>
      </trkpt>
      <trkpt lat="46.90573" lon="5.77679">
        <ele>507.6</ele>
        <time>2020-12-26T16:26:51Z</time>
      </trkpt>
      <trkpt lat="46.90576" lon="5.77674">
        <ele>507.6</ele>
        <time>2020-12-26T16:26:52Z</time>
      </trkpt>
      <trkpt lat="46.90578" lon="5.77669">
        <ele>507.6</ele>
        <time>2020-12-26T16:26:53Z</time>
      </trkpt>
      <trkpt lat="46.9058" lon="5.77664">
        <ele>507.6</ele>
        <time>2020-12-26T16:26:54Z</time>
      </trkpt>
      <trkpt lat="46.90583" lon="5.77658">
        <ele>507.4</ele>
        <time>2020-12-26T16:26:55Z</time>
      </trkpt>
      <trkpt lat="46.90586" lon="5.77652">
        <ele>507.4</ele>
        <time>2020-12-26T16:26:56Z</time>
      </trkpt>
      <trkpt lat="46.90589" lon="5.77647">
        <ele>507.4</ele>
        <time>2020-12-26T16:26:57Z</time>
      </trkpt>
      <trkpt lat="46.90592" lon="5.77642">
        <ele>507.2</ele>
        <time>2020-12-26T16:26:58Z</time>
      </trkpt>
      <trkpt lat="46.90595" lon="5.77637">
        <ele>507.2</ele>
        <time>2020-12-26T16:26:59Z</time>
      </trkpt>
      <trkpt lat="46.90596" lon="5.77631">
        <ele>507.2</ele>
        <time>2020-12-26T16:27:00Z</time>
      </trkpt>
      <trkpt lat="46.90597" lon="5.77625">
        <ele>506.8</ele>
        <time>2020-12-26T16:27:01Z</time>
      </trkpt>
      <trkpt lat="46.90596" lon="5.7762">
        <ele>506.8</ele>
        <time>2020-12-26T16:27:02Z</time>
      </trkpt>
      <trkpt lat="46.90595" lon="5.77615">
        <ele>506.8</ele>
        <time>2020-12-26T16:27:03Z</time>
      </trkpt>
      <trkpt lat="46.90593" lon="5.77611">
        <ele>506.8</ele>
        <time>2020-12-26T16:27:04Z</time>
      </trkpt>
      <trkpt lat="46.90592" lon="5.77606">
        <ele>507</ele>
        <time>2020-12-26T16:27:05Z</time>
      </trkpt>
      <trkpt lat="46.9059" lon="5.776">
        <ele>507</ele>
        <time>2020-12-26T16:27:06Z</time>
      </trkpt>
      <trkpt lat="46.90589" lon="5.77595">
        <ele>507</ele>
        <time>2020-12-26T16:27:07Z</time>
      </trkpt>
      <trkpt lat="46.90588" lon="5.77589">
        <ele>507.4</ele>
        <time>2020-12-26T16:27:08Z</time>
      </trkpt>
      <trkpt lat="46.90587" lon="5.77583">
        <ele>507.4</ele>
        <time>2020-12-26T16:27:09Z</time>
      </trkpt>
      <trkpt lat="46.90585" lon="5.77576">
        <ele>507.6</ele>
        <time>2020-12-26T16:27:10Z</time>
      </trkpt>
      <trkpt lat="46.90584" lon="5.77569">
        <ele>507.6</ele>
        <time>2020-12-26T16:27:11Z</time>
      </trkpt>
      <trkpt lat="46.90583" lon="5.77562">
        <ele>507.8</ele>
        <time>2020-12-26T16:27:12Z</time>
      </trkpt>
      <trkpt lat="46.90583" lon="5.77554">
        <ele>507.8</ele>
        <time>2020-12-26T16:27:13Z</time>
      </trkpt>
      <trkpt lat="46.90582" lon="5.77547">
        <ele>508.2</ele>
        <time>2020-12-26T16:27:14Z</time>
      </trkpt>
      <trkpt lat="46.90583" lon="5.77539">
        <ele>508.2</ele>
        <time>2020-12-26T16:27:15Z</time>
      </trkpt>
      <trkpt lat="46.90583" lon="5.77532">
        <ele>508.6</ele>
        <time>2020-12-26T16:27:16Z</time>
      </trkpt>
      <trkpt lat="46.90583" lon="5.77524">
        <ele>509</ele>
        <time>2020-12-26T16:27:17Z</time>
      </trkpt>
      <trkpt lat="46.90583" lon="5.77516">
        <ele>509.2</ele>
        <time>2020-12-26T16:27:18Z</time>
      </trkpt>
      <trkpt lat="46.90583" lon="5.77509">
        <ele>509.6</ele>
        <time>2020-12-26T16:27:19Z</time>
      </trkpt>
      <trkpt lat="46.90583" lon="5.77502">
        <ele>510</ele>
        <time>2020-12-26T16:27:20Z</time>
      </trkpt>
      <trkpt lat="46.90583" lon="5.77494">
        <ele>510.2</ele>
        <time>2020-12-26T16:27:21Z</time>
      </trkpt>
      <trkpt lat="46.90583" lon="5.77488">
        <ele>510.6</ele>
        <time>2020-12-26T16:27:22Z</time>
      </trkpt>
      <trkpt lat="46.90582" lon="5.77482">
        <ele>511</ele>
        <time>2020-12-26T16:27:23Z</time>
      </trkpt>
      <trkpt lat="46.90581" lon="5.77476">
        <ele>511.4</ele>
        <time>2020-12-26T16:27:24Z</time>
      </trkpt>
      <trkpt lat="46.9058" lon="5.77471">
        <ele>511.8</ele>
        <time>2020-12-26T16:27:25Z</time>
      </trkpt>
      <trkpt lat="46.90578" lon="5.77466">
        <ele>512.2</ele>
        <time>2020-12-26T16:27:26Z</time>
      </trkpt>
      <trkpt lat="46.90577" lon="5.77461">
        <ele>512.6</ele>
        <time>2020-12-26T16:27:27Z</time>
      </trkpt>
      <trkpt lat="46.90576" lon="5.77456">
        <ele>513.2</ele>
        <time>2020-12-26T16:27:28Z</time>
      </trkpt>
      <trkpt lat="46.90574" lon="5.77452">
        <ele>513.6</ele>
        <time>2020-12-26T16:27:29Z</time>
      </trkpt>
      <trkpt lat="46.90572" lon="5.77447">
        <ele>513.8</ele>
        <time>2020-12-26T16:27:30Z</time>
      </trkpt>
      <trkpt lat="46.90571" lon="5.77443">
        <ele>514.2</ele>
        <time>2020-12-26T16:27:31Z</time>
      </trkpt>
      <trkpt lat="46.90569" lon="5.77438">
        <ele>514.4</ele>
        <time>2020-12-26T16:27:32Z</time>
      </trkpt>
      <trkpt lat="46.90568" lon="5.77434">
        <ele>514.8</ele>
        <time>2020-12-26T16:27:33Z</time>
      </trkpt>
      <trkpt lat="46.90566" lon="5.77429">
        <ele>515</ele>
        <time>2020-12-26T16:27:34Z</time>
      </trkpt>
      <trkpt lat="46.90565" lon="5.77424">
        <ele>515.2</ele>
        <time>2020-12-26T16:27:35Z</time>
      </trkpt>
      <trkpt lat="46.90563" lon="5.77419">
        <ele>515.2</ele>
        <time>2020-12-26T16:27:36Z</time>
      </trkpt>
      <trkpt lat="46.90562" lon="5.77415">
        <ele>515.6</ele>
        <time>2020-12-26T16:27:37Z</time>
      </trkpt>
      <trkpt lat="46.90561" lon="5.77411">
        <ele>515.6</ele>
        <time>2020-12-26T16:27:38Z</time>
      </trkpt>
      <trkpt lat="46.90559" lon="5.77407">
        <ele>515.6</ele>
        <time>2020-12-26T16:27:39Z</time>
      </trkpt>
      <trkpt lat="46.90557" lon="5.77404">
        <ele>515.6</ele>
        <time>2020-12-26T16:27:40Z</time>
      </trkpt>
      <trkpt lat="46.90556" lon="5.774">
        <ele>515.6</ele>
        <time>2020-12-26T16:27:41Z</time>
      </trkpt>
      <trkpt lat="46.90554" lon="5.77395">
        <ele>515.6</ele>
        <time>2020-12-26T16:27:42Z</time>
      </trkpt>
      <trkpt lat="46.90553" lon="5.77391">
        <ele>515.6</ele>
        <time>2020-12-26T16:27:43Z</time>
      </trkpt>
      <trkpt lat="46.90552" lon="5.77386">
        <ele>515.6</ele>
        <time>2020-12-26T16:27:44Z</time>
      </trkpt>
      <trkpt lat="46.90551" lon="5.77381">
        <ele>515.6</ele>
        <time>2020-12-26T16:27:45Z</time>
      </trkpt>
      <trkpt lat="46.90549" lon="5.77377">
        <ele>515.6</ele>
        <time>2020-12-26T16:27:46Z</time>
      </trkpt>
      <trkpt lat="46.90548" lon="5.77372">
        <ele>515</ele>
        <time>2020-12-26T16:27:47Z</time>
      </trkpt>
      <trkpt lat="46.90546" lon="5.77368">
        <ele>515</ele>
        <time>2020-12-26T16:27:48Z</time>
      </trkpt>
      <trkpt lat="46.90545" lon="5.77365">
        <ele>514.8</ele>
        <time>2020-12-26T16:27:49Z</time>
      </trkpt>
      <trkpt lat="46.90544" lon="5.77363">
        <ele>514.8</ele>
        <time>2020-12-26T16:27:50Z</time>
      </trkpt>
      <trkpt lat="46.90544" lon="5.77362">
        <ele>514.4</ele>
        <time>2020-12-26T16:27:51Z</time>
      </trkpt>
      <trkpt lat="46.9054" lon="5.77357">
        <ele>513.8</ele>
        <time>2020-12-26T16:28:01Z</time>
      </trkpt>
      <trkpt lat="46.90538" lon="5.77355">
        <ele>513.8</ele>
        <time>2020-12-26T16:28:02Z</time>
      </trkpt>
      <trkpt lat="46.90536" lon="5.77352">
        <ele>513.4</ele>
        <time>2020-12-26T16:28:03Z</time>
      </trkpt>
      <trkpt lat="46.90533" lon="5.77349">
        <ele>513.4</ele>
        <time>2020-12-26T16:28:04Z</time>
      </trkpt>
      <trkpt lat="46.90531" lon="5.77346">
        <ele>513</ele>
        <time>2020-12-26T16:28:05Z</time>
      </trkpt>
      <trkpt lat="46.90529" lon="5.77344">
        <ele>512.8</ele>
        <time>2020-12-26T16:28:06Z</time>
      </trkpt>
      <trkpt lat="46.90529" lon="5.7734">
        <ele>512.6</ele>
        <time>2020-12-26T16:28:07Z</time>
      </trkpt>
      <trkpt lat="46.90529" lon="5.77336">
        <ele>512.4</ele>
        <time>2020-12-26T16:28:08Z</time>
      </trkpt>
      <trkpt lat="46.9053" lon="5.77332">
        <ele>512.2</ele>
        <time>2020-12-26T16:28:09Z</time>
      </trkpt>
      <trkpt lat="46.90531" lon="5.77328">
        <ele>512.2</ele>
        <time>2020-12-26T16:28:10Z</time>
      </trkpt>
      <trkpt lat="46.90532" lon="5.77324">
        <ele>511.8</ele>
        <time>2020-12-26T16:28:11Z</time>
      </trkpt>
      <trkpt lat="46.90534" lon="5.77319">
        <ele>511.8</ele>
        <time>2020-12-26T16:28:12Z</time>
      </trkpt>
      <trkpt lat="46.90535" lon="5.77314">
        <ele>511.8</ele>
        <time>2020-12-26T16:28:13Z</time>
      </trkpt>
      <trkpt lat="46.90537" lon="5.77309">
        <ele>511.6</ele>
        <time>2020-12-26T16:28:14Z</time>
      </trkpt>
      <trkpt lat="46.90539" lon="5.77304">
        <ele>511.6</ele>
        <time>2020-12-26T16:28:15Z</time>
      </trkpt>
      <trkpt lat="46.90541" lon="5.77299">
        <ele>511.2</ele>
        <time>2020-12-26T16:28:16Z</time>
      </trkpt>
      <trkpt lat="46.90544" lon="5.77294">
        <ele>511</ele>
        <time>2020-12-26T16:28:17Z</time>
      </trkpt>
      <trkpt lat="46.90546" lon="5.77288">
        <ele>510.6</ele>
        <time>2020-12-26T16:28:18Z</time>
      </trkpt>
      <trkpt lat="46.90549" lon="5.77282">
        <ele>510.4</ele>
        <time>2020-12-26T16:28:19Z</time>
      </trkpt>
      <trkpt lat="46.90553" lon="5.77275">
        <ele>510</ele>
        <time>2020-12-26T16:28:20Z</time>
      </trkpt>
      <trkpt lat="46.90556" lon="5.77268">
        <ele>509.6</ele>
        <time>2020-12-26T16:28:21Z</time>
      </trkpt>
      <trkpt lat="46.90559" lon="5.77262">
        <ele>509.2</ele>
        <time>2020-12-26T16:28:22Z</time>
      </trkpt>
      <trkpt lat="46.90563" lon="5.77254">
        <ele>508.6</ele>
        <time>2020-12-26T16:28:23Z</time>
      </trkpt>
      <trkpt lat="46.90566" lon="5.77246">
        <ele>508</ele>
        <time>2020-12-26T16:28:24Z</time>
      </trkpt>
      <trkpt lat="46.90569" lon="5.77239">
        <ele>507.4</ele>
        <time>2020-12-26T16:28:25Z</time>
      </trkpt>
      <trkpt lat="46.90573" lon="5.7723">
        <ele>506.6</ele>
        <time>2020-12-26T16:28:26Z</time>
      </trkpt>
      <trkpt lat="46.90576" lon="5.77222">
        <ele>506</ele>
        <time>2020-12-26T16:28:27Z</time>
      </trkpt>
      <trkpt lat="46.90578" lon="5.77214">
        <ele>505.4</ele>
        <time>2020-12-26T16:28:28Z</time>
      </trkpt>
      <trkpt lat="46.9058" lon="5.77206">
        <ele>504.6</ele>
        <time>2020-12-26T16:28:29Z</time>
      </trkpt>
      <trkpt lat="46.90582" lon="5.77197">
        <ele>504</ele>
        <time>2020-12-26T16:28:30Z</time>
      </trkpt>
      <trkpt lat="46.90584" lon="5.77189">
        <ele>503.2</ele>
        <time>2020-12-26T16:28:31Z</time>
      </trkpt>
      <trkpt lat="46.90586" lon="5.77179">
        <ele>502.6</ele>
        <time>2020-12-26T16:28:32Z</time>
      </trkpt>
      <trkpt lat="46.90588" lon="5.7717">
        <ele>501.6</ele>
        <time>2020-12-26T16:28:33Z</time>
      </trkpt>
      <trkpt lat="46.9059" lon="5.77162">
        <ele>501</ele>
        <time>2020-12-26T16:28:34Z</time>
      </trkpt>
      <trkpt lat="46.90593" lon="5.77153">
        <ele>500.2</ele>
        <time>2020-12-26T16:28:35Z</time>
      </trkpt>
      <trkpt lat="46.90594" lon="5.77144">
        <ele>499.8</ele>
        <time>2020-12-26T16:28:36Z</time>
      </trkpt>
      <trkpt lat="46.90596" lon="5.77137">
        <ele>499.4</ele>
        <time>2020-12-26T16:28:37Z</time>
      </trkpt>
      <trkpt lat="46.90598" lon="5.7713">
        <ele>498.8</ele>
        <time>2020-12-26T16:28:38Z</time>
      </trkpt>
      <trkpt lat="46.90601" lon="5.77125">
        <ele>498.6</ele>
        <time>2020-12-26T16:28:39Z</time>
      </trkpt>
      <trkpt lat="46.90604" lon="5.77121">
        <ele>498.2</ele>
        <time>2020-12-26T16:28:40Z</time>
      </trkpt>
      <trkpt lat="46.90607" lon="5.77118">
        <ele>498</ele>
        <time>2020-12-26T16:28:41Z</time>
      </trkpt>
      <trkpt lat="46.90611" lon="5.77115">
        <ele>497.8</ele>
        <time>2020-12-26T16:28:42Z</time>
      </trkpt>
      <trkpt lat="46.90614" lon="5.77113">
        <ele>497.4</ele>
        <time>2020-12-26T16:28:43Z</time>
      </trkpt>
      <trkpt lat="46.90618" lon="5.7711">
        <ele>497.2</ele>
        <time>2020-12-26T16:28:44Z</time>
      </trkpt>
      <trkpt lat="46.90621" lon="5.77107">
        <ele>497</ele>
        <time>2020-12-26T16:28:45Z</time>
      </trkpt>
      <trkpt lat="46.90625" lon="5.77104">
        <ele>496.6</ele>
        <time>2020-12-26T16:28:46Z</time>
      </trkpt>
      <trkpt lat="46.90628" lon="5.77103">
        <ele>496.4</ele>
        <time>2020-12-26T16:28:47Z</time>
      </trkpt>
      <trkpt lat="46.90631" lon="5.77104">
        <ele>496.2</ele>
        <time>2020-12-26T16:28:48Z</time>
      </trkpt>
      <trkpt lat="46.90634" lon="5.77107">
        <ele>496</ele>
        <time>2020-12-26T16:28:49Z</time>
      </trkpt>
      <trkpt lat="46.90637" lon="5.77111">
        <ele>496</ele>
        <time>2020-12-26T16:28:50Z</time>
      </trkpt>
      <trkpt lat="46.90638" lon="5.77116">
        <ele>495.8</ele>
        <time>2020-12-26T16:28:51Z</time>
      </trkpt>
      <trkpt lat="46.9064" lon="5.77121">
        <ele>495.8</ele>
        <time>2020-12-26T16:28:52Z</time>
      </trkpt>
      <trkpt lat="46.90642" lon="5.77125">
        <ele>495.8</ele>
        <time>2020-12-26T16:28:53Z</time>
      </trkpt>
      <trkpt lat="46.90643" lon="5.77129">
        <ele>495.8</ele>
        <time>2020-12-26T16:28:54Z</time>
      </trkpt>
      <trkpt lat="46.90645" lon="5.77133">
        <ele>495.8</ele>
        <time>2020-12-26T16:28:55Z</time>
      </trkpt>
      <trkpt lat="46.90646" lon="5.77136">
        <ele>495.8</ele>
        <time>2020-12-26T16:28:56Z</time>
      </trkpt>
      <trkpt lat="46.90647" lon="5.77139">
        <ele>495.8</ele>
        <time>2020-12-26T16:28:57Z</time>
      </trkpt>
      <trkpt lat="46.90647" lon="5.77141">
        <ele>495.8</ele>
        <time>2020-12-26T16:28:58Z</time>
      </trkpt>
      <trkpt lat="46.90647" lon="5.77142">
        <ele>496</ele>
        <time>2020-12-26T16:28:59Z</time>
      </trkpt>
      <trkpt lat="46.90643" lon="5.77152">
        <ele>496.8</ele>
        <time>2020-12-26T16:29:37Z</time>
      </trkpt>
      <trkpt lat="46.90642" lon="5.77153">
        <ele>496.8</ele>
        <time>2020-12-26T16:29:38Z</time>
      </trkpt>
      <trkpt lat="46.90641" lon="5.77154">
        <ele>496.8</ele>
        <time>2020-12-26T16:29:39Z</time>
      </trkpt>
      <trkpt lat="46.9064" lon="5.77155">
        <ele>497</ele>
        <time>2020-12-26T16:29:40Z</time>
      </trkpt>
      <trkpt lat="46.90638" lon="5.77157">
        <ele>497</ele>
        <time>2020-12-26T16:29:43Z</time>
      </trkpt>
      <trkpt lat="46.90637" lon="5.77157">
        <ele>497.2</ele>
        <time>2020-12-26T16:29:44Z</time>
      </trkpt>
      <trkpt lat="46.90636" lon="5.77158">
        <ele>497.2</ele>
        <time>2020-12-26T16:29:45Z</time>
      </trkpt>
      <trkpt lat="46.90635" lon="5.77158">
        <ele>497.2</ele>
        <time>2020-12-26T16:29:46Z</time>
      </trkpt>
      <trkpt lat="46.90633" lon="5.77159">
        <ele>497.2</ele>
        <time>2020-12-26T16:29:47Z</time>
      </trkpt>
      <trkpt lat="46.90632" lon="5.77159">
        <ele>497.6</ele>
        <time>2020-12-26T16:29:48Z</time>
      </trkpt>
      <trkpt lat="46.90631" lon="5.77158">
        <ele>497.6</ele>
        <time>2020-12-26T16:29:49Z</time>
      </trkpt>
      <trkpt lat="46.9063" lon="5.77158">
        <ele>497.6</ele>
        <time>2020-12-26T16:29:50Z</time>
      </trkpt>
      <trkpt lat="46.90629" lon="5.77158">
        <ele>497.6</ele>
        <time>2020-12-26T16:29:51Z</time>
      </trkpt>
      <trkpt lat="46.90627" lon="5.77156">
        <ele>497.6</ele>
        <time>2020-12-26T16:29:55Z</time>
      </trkpt>
      <trkpt lat="46.90626" lon="5.77156">
        <ele>497.6</ele>
        <time>2020-12-26T16:29:56Z</time>
      </trkpt>
    </trkseg>
  </trk>
</gpx>